<?xml version="1.0" encoding="UTF-8" standalone="no" ?><gpx xmlns="http://www.topografix.com/GPX/1/1" xmlns:gpxx="http://www.garmin.com/xmlschemas/GpxExtensions/v3" xmlns:gpxtrkx="http://www.garmin.com/xmlschemas/TrackStatsExtension/v1" xmlns:wptx1="http://www.garmin.com/xmlschemas/WaypointExtension/v1" xmlns:gpxtpx="http://www.garmin.com/xmlschemas/TrackPointExtension/v1" creator="eTrex 20" version="1.1" xmlns:xsi="http://www.w3.org/2001/XMLSchema-instance" xsi:schemaLocation="http://www.topografix.com/GPX/1/1 http://www.topografix.com/GPX/1/1/gpx.xsd http://www.garmin.com/xmlschemas/GpxExtensions/v3 http://www8.garmin.com/xmlschemas/GpxExtensionsv3.xsd http://www.garmin.com/xmlschemas/TrackStatsExtension/v1 http://www8.garmin.com/xmlschemas/TrackStatsExtension.xsd http://www.garmin.com/xmlschemas/WaypointExtension/v1 http://www8.garmin.com/xmlschemas/WaypointExtensionv1.xsd http://www.garmin.com/xmlschemas/TrackPointExtension/v1 http://www.garmin.com/xmlschemas/TrackPointExtensionv1.xsd"><metadata><link href="http://www.garmin.com"><text>Garmin International</text></link><time>2018-09-17T08:42:41Z</time></metadata><trk><name>2018-09-17 11:42:37</name><extensions><gpxx:TrackExtension><gpxx:DisplayColor>Blue</gpxx:DisplayColor></gpxx:TrackExtension><gpxtrkx:TrackStatsExtension><gpxtrkx:Distance>408007</gpxtrkx:Distance></gpxtrkx:TrackStatsExtension></extensions><trkseg><trkpt lat="45.0154972170" lon="38.9682209585"><ele>22.25</ele><time>2018-09-15T04:59:44Z</time></trkpt><trkpt lat="45.0152685586" lon="38.9683657140"><ele>22.25</ele><time>2018-09-15T04:59:57Z</time></trkpt><trkpt lat="45.0152164232" lon="38.9685625210"><ele>22.73</ele><time>2018-09-15T05:00:02Z</time></trkpt><trkpt lat="45.0151950493" lon="38.9685976412"><ele>22.73</ele><time>2018-09-15T05:00:03Z</time></trkpt><trkpt lat="45.0151694845" lon="38.9686272293"><ele>22.73</ele><time>2018-09-15T05:00:04Z</time></trkpt><trkpt lat="45.0147707574" lon="38.9689671993"><ele>23.21</ele><time>2018-09-15T05:00:16Z</time></trkpt><trkpt lat="45.0146710128" lon="38.9690770023"><ele>22.25</ele><time>2018-09-15T05:00:19Z</time></trkpt><trkpt lat="45.0145612936" lon="38.9691577200"><ele>21.77</ele><time>2018-09-15T05:00:22Z</time></trkpt><trkpt lat="45.0144965854" lon="38.9692238532"><ele>21.77</ele><time>2018-09-15T05:00:24Z</time></trkpt><trkpt lat="45.0144463778" lon="38.9693222567"><ele>22.25</ele><time>2018-09-15T05:00:26Z</time></trkpt><trkpt lat="45.0143053103" lon="38.9700012747"><ele>22.73</ele><time>2018-09-15T05:00:40Z</time></trkpt><trkpt lat="45.0142155401" lon="38.9705444220"><ele>22.73</ele><time>2018-09-15T05:00:51Z</time></trkpt><trkpt lat="45.0141523406" lon="38.9710344281"><ele>24.17</ele><time>2018-09-15T05:00:59Z</time></trkpt><trkpt lat="45.0140995346" lon="38.9714106079"><ele>26.09</ele><time>2018-09-15T05:01:05Z</time></trkpt><trkpt lat="45.0140453875" lon="38.9719522465"><ele>28.02</ele><time>2018-09-15T05:01:13Z</time></trkpt><trkpt lat="45.0140308868" lon="38.9720156975"><ele>28.02</ele><time>2018-09-15T05:01:14Z</time></trkpt><trkpt lat="45.0140148774" lon="38.9720801543"><ele>28.02</ele><time>2018-09-15T05:01:15Z</time></trkpt><trkpt lat="45.0139580481" lon="38.9723762870"><ele>28.50</ele><time>2018-09-15T05:01:19Z</time></trkpt><trkpt lat="45.0139482412" lon="38.9724274166"><ele>28.50</ele><time>2018-09-15T05:01:20Z</time></trkpt><trkpt lat="45.0139314774" lon="38.9724965673"><ele>28.02</ele><time>2018-09-15T05:01:21Z</time></trkpt><trkpt lat="45.0138664339" lon="38.9727688115"><ele>27.05</ele><time>2018-09-15T05:01:25Z</time></trkpt><trkpt lat="45.0138539448" lon="38.9728346094"><ele>26.57</ele><time>2018-09-15T05:01:26Z</time></trkpt><trkpt lat="45.0136903301" lon="38.9735813532"><ele>24.17</ele><time>2018-09-15T05:01:39Z</time></trkpt><trkpt lat="45.0132941175" lon="38.9737637434"><ele>25.13</ele><time>2018-09-15T05:01:51Z</time></trkpt><trkpt lat="45.0132538006" lon="38.9737812616"><ele>25.13</ele><time>2018-09-15T05:01:52Z</time></trkpt><trkpt lat="45.0130884256" lon="38.9738453832"><ele>25.13</ele><time>2018-09-15T05:01:56Z</time></trkpt><trkpt lat="45.0130478572" lon="38.9738543518"><ele>25.13</ele><time>2018-09-15T05:01:57Z</time></trkpt><trkpt lat="45.0125624612" lon="38.9738112688"><ele>24.65</ele><time>2018-09-15T05:02:08Z</time></trkpt><trkpt lat="45.0124676619" lon="38.9737800881"><ele>25.13</ele><time>2018-09-15T05:02:10Z</time></trkpt><trkpt lat="45.0124217290" lon="38.9737624023"><ele>25.61</ele><time>2018-09-15T05:02:11Z</time></trkpt><trkpt lat="45.0118334871" lon="38.9731794409"><ele>28.50</ele><time>2018-09-15T05:02:25Z</time></trkpt><trkpt lat="45.0111910142" lon="38.9723321982"><ele>26.57</ele><time>2018-09-15T05:02:40Z</time></trkpt><trkpt lat="45.0104526524" lon="38.9713651780"><ele>26.09</ele><time>2018-09-15T05:02:55Z</time></trkpt><trkpt lat="45.0097728800" lon="38.9705516305"><ele>27.05</ele><time>2018-09-15T05:03:09Z</time></trkpt><trkpt lat="45.0090289861" lon="38.9696991071"><ele>22.73</ele><time>2018-09-15T05:03:24Z</time></trkpt><trkpt lat="45.0081701763" lon="38.9687492698"><ele>21.77</ele><time>2018-09-15T05:03:41Z</time></trkpt><trkpt lat="45.0079105049" lon="38.9684103895"><ele>21.29</ele><time>2018-09-15T05:03:47Z</time></trkpt><trkpt lat="45.0078738760" lon="38.9683579188"><ele>21.77</ele><time>2018-09-15T05:03:48Z</time></trkpt><trkpt lat="45.0077634025" lon="38.9682066254"><ele>22.73</ele><time>2018-09-15T05:03:51Z</time></trkpt><trkpt lat="45.0077217445" lon="38.9681586809"><ele>22.73</ele><time>2018-09-15T05:03:52Z</time></trkpt><trkpt lat="45.0070578139" lon="38.9676837623"><ele>20.32</ele><time>2018-09-15T05:04:06Z</time></trkpt><trkpt lat="45.0070185866" lon="38.9676450379"><ele>20.32</ele><time>2018-09-15T05:04:07Z</time></trkpt><trkpt lat="45.0069853105" lon="38.9675976802"><ele>20.32</ele><time>2018-09-15T05:04:08Z</time></trkpt><trkpt lat="45.0069506094" lon="38.9675550163"><ele>19.84</ele><time>2018-09-15T05:04:09Z</time></trkpt><trkpt lat="45.0069102086" lon="38.9675247576"><ele>19.36</ele><time>2018-09-15T05:04:10Z</time></trkpt><trkpt lat="45.0068661198" lon="38.9675046410"><ele>19.36</ele><time>2018-09-15T05:04:11Z</time></trkpt><trkpt lat="45.0068236236" lon="38.9674864523"><ele>19.36</ele><time>2018-09-15T05:04:12Z</time></trkpt><trkpt lat="45.0064780377" lon="38.9672987815"><ele>19.84</ele><time>2018-09-15T05:04:20Z</time></trkpt><trkpt lat="45.0063852500" lon="38.9672442153"><ele>20.81</ele><time>2018-09-15T05:04:22Z</time></trkpt><trkpt lat="45.0063395686" lon="38.9672208298"><ele>20.81</ele><time>2018-09-15T05:04:23Z</time></trkpt><trkpt lat="45.0054397713" lon="38.9666729886"><ele>19.36</ele><time>2018-09-15T05:04:41Z</time></trkpt><trkpt lat="45.0052368455" lon="38.9665459190"><ele>18.88</ele><time>2018-09-15T05:04:45Z</time></trkpt><trkpt lat="45.0051852968" lon="38.9665014111"><ele>18.88</ele><time>2018-09-15T05:04:46Z</time></trkpt><trkpt lat="45.0051389448" lon="38.9664593339"><ele>18.88</ele><time>2018-09-15T05:04:47Z</time></trkpt><trkpt lat="45.0049950276" lon="38.9663454238"><ele>19.84</ele><time>2018-09-15T05:04:50Z</time></trkpt><trkpt lat="45.0042119902" lon="38.9657481294"><ele>24.17</ele><time>2018-09-15T05:05:06Z</time></trkpt><trkpt lat="45.0037731137" lon="38.9654026274"><ele>24.65</ele><time>2018-09-15T05:05:15Z</time></trkpt><trkpt lat="45.0030532759" lon="38.9648473263"><ele>25.13</ele><time>2018-09-15T05:05:30Z</time></trkpt><trkpt lat="45.0023750961" lon="38.9642855711"><ele>20.81</ele><time>2018-09-15T05:05:44Z</time></trkpt><trkpt lat="45.0016386621" lon="38.9637275040"><ele>18.40</ele><time>2018-09-15T05:05:59Z</time></trkpt><trkpt lat="45.0008952711" lon="38.9631549362"><ele>20.32</ele><time>2018-09-15T05:06:15Z</time></trkpt><trkpt lat="45.0001297519" lon="38.9625581447"><ele>19.36</ele><time>2018-09-15T05:06:32Z</time></trkpt><trkpt lat="44.9994447827" lon="38.9620288275"><ele>19.36</ele><time>2018-09-15T05:06:49Z</time></trkpt><trkpt lat="44.9988208339" lon="38.9615669847"><ele>18.40</ele><time>2018-09-15T05:07:04Z</time></trkpt><trkpt lat="44.9985184986" lon="38.9613742009"><ele>17.92</ele><time>2018-09-15T05:07:11Z</time></trkpt><trkpt lat="44.9984801933" lon="38.9613429364"><ele>17.92</ele><time>2018-09-15T05:07:12Z</time></trkpt><trkpt lat="44.9980734196" lon="38.9609198179"><ele>19.36</ele><time>2018-09-15T05:07:23Z</time></trkpt><trkpt lat="44.9980439153" lon="38.9608736336"><ele>19.36</ele><time>2018-09-15T05:07:24Z</time></trkpt><trkpt lat="44.9976791348" lon="38.9601832163"><ele>20.32</ele><time>2018-09-15T05:07:39Z</time></trkpt><trkpt lat="44.9973561801" lon="38.9593860973"><ele>23.21</ele><time>2018-09-15T05:07:56Z</time></trkpt><trkpt lat="44.9968633242" lon="38.9587556943"><ele>24.17</ele><time>2018-09-15T05:08:13Z</time></trkpt><trkpt lat="44.9961836357" lon="38.9580513630"><ele>27.53</ele><time>2018-09-15T05:08:32Z</time></trkpt><trkpt lat="44.9954508059" lon="38.9572821558"><ele>26.57</ele><time>2018-09-15T05:08:51Z</time></trkpt><trkpt lat="44.9946186505" lon="38.9564110246"><ele>25.61</ele><time>2018-09-15T05:09:10Z</time></trkpt><trkpt lat="44.9938423187" lon="38.9558251295"><ele>22.25</ele><time>2018-09-15T05:09:24Z</time></trkpt><trkpt lat="44.9929461256" lon="38.9558278117"><ele>17.92</ele><time>2018-09-15T05:09:36Z</time></trkpt><trkpt lat="44.9920873158" lon="38.9555063657"><ele>15.04</ele><time>2018-09-15T05:09:47Z</time></trkpt><trkpt lat="44.9912264105" lon="38.9548460394"><ele>13.60</ele><time>2018-09-15T05:10:00Z</time></trkpt><trkpt lat="44.9905510806" lon="38.9543608110"><ele>14.56</ele><time>2018-09-15T05:10:14Z</time></trkpt><trkpt lat="44.9903878011" lon="38.9543532673"><ele>13.60</ele><time>2018-09-15T05:10:19Z</time></trkpt><trkpt lat="44.9901270401" lon="38.9542150497"><ele>13.12</ele><time>2018-09-15T05:10:25Z</time></trkpt><trkpt lat="44.9900930934" lon="38.9541862160"><ele>13.12</ele><time>2018-09-15T05:10:26Z</time></trkpt><trkpt lat="44.9900342524" lon="38.9542567916"><ele>13.12</ele><time>2018-09-15T05:10:31Z</time></trkpt><trkpt lat="44.9900945183" lon="38.9544935804"><ele>13.12</ele><time>2018-09-15T05:10:38Z</time></trkpt><trkpt lat="44.9900049996" lon="38.9547505695"><ele>15.04</ele><time>2018-09-15T05:10:44Z</time></trkpt><trkpt lat="44.9903227575" lon="38.9550297707"><ele>16.48</ele><time>2018-09-15T05:10:55Z</time></trkpt><trkpt lat="44.9903999548" lon="38.9550864324"><ele>16.00</ele><time>2018-09-15T05:10:57Z</time></trkpt><trkpt lat="44.9908030406" lon="38.9554196969"><ele>19.36</ele><time>2018-09-15T05:11:10Z</time></trkpt><trkpt lat="44.9908379931" lon="38.9554471895"><ele>19.84</ele><time>2018-09-15T05:11:11Z</time></trkpt><trkpt lat="44.9909154419" lon="38.9556355309"><ele>23.21</ele><time>2018-09-15T05:11:17Z</time></trkpt><trkpt lat="44.9908685032" lon="38.9557398017"><ele>26.09</ele><time>2018-09-15T05:11:24Z</time></trkpt><trkpt lat="44.9908006098" lon="38.9559231140"><ele>26.57</ele><time>2018-09-15T05:11:26Z</time></trkpt><trkpt lat="44.9907746259" lon="38.9559420571"><ele>26.57</ele><time>2018-09-15T05:11:27Z</time></trkpt><trkpt lat="44.9907555152" lon="38.9559684601"><ele>26.57</ele><time>2018-09-15T05:11:28Z</time></trkpt><trkpt lat="44.9907331355" lon="38.9559877384"><ele>26.57</ele><time>2018-09-15T05:11:29Z</time></trkpt><trkpt lat="44.9907077383" lon="38.9559941087"><ele>26.57</ele><time>2018-09-15T05:11:30Z</time></trkpt><trkpt lat="44.9906809162" lon="38.9559797756"><ele>26.57</ele><time>2018-09-15T05:11:31Z</time></trkpt><trkpt lat="44.9906529207" lon="38.9559496846"><ele>26.09</ele><time>2018-09-15T05:11:32Z</time></trkpt><trkpt lat="44.9906232487" lon="38.9559211861"><ele>25.61</ele><time>2018-09-15T05:11:33Z</time></trkpt><trkpt lat="44.9905865360" lon="38.9558987226"><ele>25.13</ele><time>2018-09-15T05:11:34Z</time></trkpt><trkpt lat="44.9905503262" lon="38.9558720682"><ele>24.65</ele><time>2018-09-15T05:11:35Z</time></trkpt><trkpt lat="44.9905142840" lon="38.9558422286"><ele>24.65</ele><time>2018-09-15T05:11:36Z</time></trkpt><trkpt lat="44.9902334064" lon="38.9556294121"><ele>21.77</ele><time>2018-09-15T05:11:43Z</time></trkpt><trkpt lat="44.9901899043" lon="38.9556039311"><ele>21.29</ele><time>2018-09-15T05:11:44Z</time></trkpt><trkpt lat="44.9901498388" lon="38.9555753488"><ele>21.29</ele><time>2018-09-15T05:11:45Z</time></trkpt><trkpt lat="44.9900672771" lon="38.9555120654"><ele>21.29</ele><time>2018-09-15T05:11:47Z</time></trkpt><trkpt lat="44.9895867426" lon="38.9551558346"><ele>18.88</ele><time>2018-09-15T05:11:58Z</time></trkpt><trkpt lat="44.9894920271" lon="38.9550899528"><ele>18.40</ele><time>2018-09-15T05:12:00Z</time></trkpt><trkpt lat="44.9894478545" lon="38.9550495520"><ele>17.92</ele><time>2018-09-15T05:12:01Z</time></trkpt><trkpt lat="44.9893686455" lon="38.9549757913"><ele>17.44</ele><time>2018-09-15T05:12:03Z</time></trkpt><trkpt lat="44.9893300049" lon="38.9549453650"><ele>17.44</ele><time>2018-09-15T05:12:04Z</time></trkpt><trkpt lat="44.9892876763" lon="38.9549126755"><ele>17.44</ele><time>2018-09-15T05:12:05Z</time></trkpt><trkpt lat="44.9892051984" lon="38.9548495598"><ele>17.44</ele><time>2018-09-15T05:12:07Z</time></trkpt><trkpt lat="44.9890414160" lon="38.9547237474"><ele>18.40</ele><time>2018-09-15T05:12:12Z</time></trkpt><trkpt lat="44.9890165217" lon="38.9547252562"><ele>17.92</ele><time>2018-09-15T05:12:13Z</time></trkpt><trkpt lat="44.9889865145" lon="38.9547323808"><ele>17.92</ele><time>2018-09-15T05:12:14Z</time></trkpt><trkpt lat="44.9889554176" lon="38.9547592867"><ele>17.92</ele><time>2018-09-15T05:12:15Z</time></trkpt><trkpt lat="44.9889348820" lon="38.9547979273"><ele>17.92</ele><time>2018-09-15T05:12:16Z</time></trkpt><trkpt lat="44.9889150169" lon="38.9548511524"><ele>17.92</ele><time>2018-09-15T05:12:17Z</time></trkpt><trkpt lat="44.9888966605" lon="38.9549069759"><ele>17.92</ele><time>2018-09-15T05:12:18Z</time></trkpt><trkpt lat="44.9886623025" lon="38.9555916935"><ele>18.40</ele><time>2018-09-15T05:12:29Z</time></trkpt><trkpt lat="44.9882148765" lon="38.9568685926"><ele>17.92</ele><time>2018-09-15T05:12:48Z</time></trkpt><trkpt lat="44.9877715576" lon="38.9581680391"><ele>18.88</ele><time>2018-09-15T05:13:07Z</time></trkpt><trkpt lat="44.9873448350" lon="38.9594189543"><ele>18.40</ele><time>2018-09-15T05:13:25Z</time></trkpt><trkpt lat="44.9868635461" lon="38.9608088415"><ele>18.40</ele><time>2018-09-15T05:13:46Z</time></trkpt><trkpt lat="44.9863457121" lon="38.9623361919"><ele>19.84</ele><time>2018-09-15T05:14:09Z</time></trkpt><trkpt lat="44.9859815184" lon="38.9634669106"><ele>18.88</ele><time>2018-09-15T05:14:26Z</time></trkpt><trkpt lat="44.9857997987" lon="38.9645812009"><ele>19.36</ele><time>2018-09-15T05:14:42Z</time></trkpt><trkpt lat="44.9856821168" lon="38.9659519773"><ele>20.32</ele><time>2018-09-15T05:15:01Z</time></trkpt><trkpt lat="44.9855665304" lon="38.9671172295"><ele>19.84</ele><time>2018-09-15T05:15:18Z</time></trkpt><trkpt lat="44.9854195118" lon="38.9685408957"><ele>17.92</ele><time>2018-09-15T05:15:38Z</time></trkpt><trkpt lat="44.9852963816" lon="38.9699887857"><ele>17.44</ele><time>2018-09-15T05:15:58Z</time></trkpt><trkpt lat="44.9851984810" lon="38.9713819418"><ele>17.44</ele><time>2018-09-15T05:16:17Z</time></trkpt><trkpt lat="44.9852392171" lon="38.9725590963"><ele>16.00</ele><time>2018-09-15T05:16:33Z</time></trkpt><trkpt lat="44.9853661191" lon="38.9739372488"><ele>16.48</ele><time>2018-09-15T05:16:52Z</time></trkpt><trkpt lat="44.9854590744" lon="38.9746726770"><ele>16.48</ele><time>2018-09-15T05:17:02Z</time></trkpt><trkpt lat="44.9857198354" lon="38.9762229938"><ele>17.44</ele><time>2018-09-15T05:17:23Z</time></trkpt><trkpt lat="44.9859774113" lon="38.9774738252"><ele>16.48</ele><time>2018-09-15T05:17:40Z</time></trkpt><trkpt lat="44.9862236716" lon="38.9787495509"><ele>16.00</ele><time>2018-09-15T05:17:58Z</time></trkpt><trkpt lat="44.9864737876" lon="38.9801891427"><ele>16.48</ele><time>2018-09-15T05:18:18Z</time></trkpt><trkpt lat="44.9867535755" lon="38.9817535412"><ele>16.48</ele><time>2018-09-15T05:18:40Z</time></trkpt><trkpt lat="44.9868629593" lon="38.9827281050"><ele>16.96</ele><time>2018-09-15T05:18:55Z</time></trkpt><trkpt lat="44.9868747778" lon="38.9840375260"><ele>16.48</ele><time>2018-09-15T05:19:14Z</time></trkpt><trkpt lat="44.9868386518" lon="38.9854217973"><ele>16.48</ele><time>2018-09-15T05:19:33Z</time></trkpt><trkpt lat="44.9868337065" lon="38.9856258128"><ele>16.48</ele><time>2018-09-15T05:19:36Z</time></trkpt><trkpt lat="44.9868147634" lon="38.9867911488"><ele>16.48</ele><time>2018-09-15T05:19:53Z</time></trkpt><trkpt lat="44.9868551642" lon="38.9881875739"><ele>16.96</ele><time>2018-09-15T05:20:12Z</time></trkpt><trkpt lat="44.9870896060" lon="38.9894876909"><ele>16.00</ele><time>2018-09-15T05:20:31Z</time></trkpt><trkpt lat="44.9873837270" lon="38.9909152966"><ele>16.48</ele><time>2018-09-15T05:20:52Z</time></trkpt><trkpt lat="44.9876168277" lon="38.9919943828"><ele>16.48</ele><time>2018-09-15T05:21:08Z</time></trkpt><trkpt lat="44.9878615793" lon="38.9931269456"><ele>16.96</ele><time>2018-09-15T05:21:25Z</time></trkpt><trkpt lat="44.9881014694" lon="38.9942302555"><ele>16.96</ele><time>2018-09-15T05:21:41Z</time></trkpt><trkpt lat="44.9883104302" lon="38.9952288754"><ele>16.48</ele><time>2018-09-15T05:21:55Z</time></trkpt><trkpt lat="44.9885922298" lon="38.9965491090"><ele>16.48</ele><time>2018-09-15T05:22:14Z</time></trkpt><trkpt lat="44.9888613727" lon="38.9974654187"><ele>16.00</ele><time>2018-09-15T05:22:28Z</time></trkpt><trkpt lat="44.9891368859" lon="38.9980898704"><ele>16.48</ele><time>2018-09-15T05:22:38Z</time></trkpt><trkpt lat="44.9892991595" lon="38.9984754380"><ele>16.48</ele><time>2018-09-15T05:22:44Z</time></trkpt><trkpt lat="44.9893018417" lon="38.9985486120"><ele>16.96</ele><time>2018-09-15T05:22:45Z</time></trkpt><trkpt lat="44.9892826471" lon="38.9986279048"><ele>16.96</ele><time>2018-09-15T05:22:46Z</time></trkpt><trkpt lat="44.9892555736" lon="38.9986776095"><ele>17.44</ele><time>2018-09-15T05:22:47Z</time></trkpt><trkpt lat="44.9892148376" lon="38.9987131488"><ele>17.44</ele><time>2018-09-15T05:22:48Z</time></trkpt><trkpt lat="44.9891711678" lon="38.9987398870"><ele>16.96</ele><time>2018-09-15T05:22:49Z</time></trkpt><trkpt lat="44.9883235060" lon="38.9993230160"><ele>16.00</ele><time>2018-09-15T05:23:08Z</time></trkpt><trkpt lat="44.9882773217" lon="38.9993534423"><ele>16.00</ele><time>2018-09-15T05:23:09Z</time></trkpt><trkpt lat="44.9874569010" lon="38.9999006968"><ele>15.52</ele><time>2018-09-15T05:23:27Z</time></trkpt><trkpt lat="44.9865779746" lon="39.0004800539"><ele>16.00</ele><time>2018-09-15T05:23:47Z</time></trkpt><trkpt lat="44.9857841246" lon="39.0010178369"><ele>16.00</ele><time>2018-09-15T05:24:05Z</time></trkpt><trkpt lat="44.9848588463" lon="39.0016426239"><ele>15.04</ele><time>2018-09-15T05:24:25Z</time></trkpt><trkpt lat="44.9840085022" lon="39.0022151079"><ele>15.04</ele><time>2018-09-15T05:24:44Z</time></trkpt><trkpt lat="44.9831164163" lon="39.0028177667"><ele>15.04</ele><time>2018-09-15T05:25:03Z</time></trkpt><trkpt lat="44.9822233245" lon="39.0033853054"><ele>15.04</ele><time>2018-09-15T05:25:22Z</time></trkpt><trkpt lat="44.9813475832" lon="39.0037136246"><ele>15.04</ele><time>2018-09-15T05:25:40Z</time></trkpt><trkpt lat="44.9804937188" lon="39.0036619082"><ele>16.00</ele><time>2018-09-15T05:25:57Z</time></trkpt><trkpt lat="44.9794295523" lon="39.0034058411"><ele>16.48</ele><time>2018-09-15T05:26:18Z</time></trkpt><trkpt lat="44.9783926271" lon="39.0031476784"><ele>16.96</ele><time>2018-09-15T05:26:39Z</time></trkpt><trkpt lat="44.9774608947" lon="39.0029113088"><ele>16.96</ele><time>2018-09-15T05:26:58Z</time></trkpt><trkpt lat="44.9770224374" lon="39.0028034337"><ele>16.48</ele><time>2018-09-15T05:27:07Z</time></trkpt><trkpt lat="44.9769718107" lon="39.0027930401"><ele>16.48</ele><time>2018-09-15T05:27:08Z</time></trkpt><trkpt lat="44.9757548422" lon="39.0024860948"><ele>16.00</ele><time>2018-09-15T05:27:32Z</time></trkpt><trkpt lat="44.9747861456" lon="39.0022443607"><ele>16.00</ele><time>2018-09-15T05:27:51Z</time></trkpt><trkpt lat="44.9736231565" lon="39.0019489825"><ele>15.04</ele><time>2018-09-15T05:28:14Z</time></trkpt><trkpt lat="44.9731897283" lon="39.0018357430"><ele>15.04</ele><time>2018-09-15T05:28:23Z</time></trkpt><trkpt lat="44.9722393043" lon="39.0015982836"><ele>15.04</ele><time>2018-09-15T05:28:43Z</time></trkpt><trkpt lat="44.9719991628" lon="39.0015436336"><ele>15.04</ele><time>2018-09-15T05:28:48Z</time></trkpt><trkpt lat="44.9719513860" lon="39.0015268698"><ele>15.04</ele><time>2018-09-15T05:28:49Z</time></trkpt><trkpt lat="44.9709203281" lon="39.0012699645"><ele>15.52</ele><time>2018-09-15T05:29:10Z</time></trkpt><trkpt lat="44.9699921161" lon="39.0010345168"><ele>15.52</ele><time>2018-09-15T05:29:29Z</time></trkpt><trkpt lat="44.9690222461" lon="39.0007891785"><ele>15.52</ele><time>2018-09-15T05:29:50Z</time></trkpt><trkpt lat="44.9679102190" lon="39.0005231369"><ele>16.48</ele><time>2018-09-15T05:30:12Z</time></trkpt><trkpt lat="44.9670149479" lon="39.0003348794"><ele>16.96</ele><time>2018-09-15T05:30:30Z</time></trkpt><trkpt lat="44.9659945350" lon="39.0001205541"><ele>16.96</ele><time>2018-09-15T05:30:50Z</time></trkpt><trkpt lat="44.9649105035" lon="38.9998969249"><ele>16.96</ele><time>2018-09-15T05:31:11Z</time></trkpt><trkpt lat="44.9637333490" lon="38.9996598009"><ele>16.48</ele><time>2018-09-15T05:31:34Z</time></trkpt><trkpt lat="44.9627758004" lon="38.9994622394"><ele>16.48</ele><time>2018-09-15T05:31:53Z</time></trkpt><trkpt lat="44.9617759231" lon="38.9992556255"><ele>16.96</ele><time>2018-09-15T05:32:13Z</time></trkpt><trkpt lat="44.9607719388" lon="38.9990511071"><ele>16.96</ele><time>2018-09-15T05:32:33Z</time></trkpt><trkpt lat="44.9595088698" lon="38.9987912681"><ele>16.96</ele><time>2018-09-15T05:32:58Z</time></trkpt><trkpt lat="44.9585093278" lon="38.9985914435"><ele>16.48</ele><time>2018-09-15T05:33:18Z</time></trkpt><trkpt lat="44.9576480035" lon="38.9984246437"><ele>16.48</ele><time>2018-09-15T05:33:36Z</time></trkpt><trkpt lat="44.9565496389" lon="38.9982012659"><ele>16.48</ele><time>2018-09-15T05:33:59Z</time></trkpt><trkpt lat="44.9556902424" lon="38.9980275091"><ele>16.48</ele><time>2018-09-15T05:34:17Z</time></trkpt><trkpt lat="44.9548290856" lon="38.9978467952"><ele>16.48</ele><time>2018-09-15T05:34:35Z</time></trkpt><trkpt lat="44.9538162164" lon="38.9976359066"><ele>16.48</ele><time>2018-09-15T05:34:55Z</time></trkpt><trkpt lat="44.9530806206" lon="38.9974814281"><ele>16.48</ele><time>2018-09-15T05:35:10Z</time></trkpt><trkpt lat="44.9528575782" lon="38.9974009618"><ele>16.48</ele><time>2018-09-15T05:35:15Z</time></trkpt><trkpt lat="44.9527733400" lon="38.9973380137"><ele>16.48</ele><time>2018-09-15T05:35:17Z</time></trkpt><trkpt lat="44.9527377170" lon="38.9972964395"><ele>16.48</ele><time>2018-09-15T05:35:18Z</time></trkpt><trkpt lat="44.9527074583" lon="38.9972479921"><ele>16.48</ele><time>2018-09-15T05:35:19Z</time></trkpt><trkpt lat="44.9526834022" lon="38.9971976168"><ele>16.00</ele><time>2018-09-15T05:35:20Z</time></trkpt><trkpt lat="44.9526633695" lon="38.9971436374"><ele>16.00</ele><time>2018-09-15T05:35:21Z</time></trkpt><trkpt lat="44.9526442587" lon="38.9970889036"><ele>16.48</ele><time>2018-09-15T05:35:22Z</time></trkpt><trkpt lat="44.9526207894" lon="38.9970337506"><ele>16.48</ele><time>2018-09-15T05:35:23Z</time></trkpt><trkpt lat="44.9525949731" lon="38.9969772566"><ele>16.48</ele><time>2018-09-15T05:35:24Z</time></trkpt><trkpt lat="44.9524734356" lon="38.9966745023"><ele>16.00</ele><time>2018-09-15T05:35:29Z</time></trkpt><trkpt lat="44.9524427578" lon="38.9966252167"><ele>16.00</ele><time>2018-09-15T05:35:30Z</time></trkpt><trkpt lat="44.9524045363" lon="38.9965816308"><ele>16.00</ele><time>2018-09-15T05:35:31Z</time></trkpt><trkpt lat="44.9523232318" lon="38.9965067804"><ele>15.52</ele><time>2018-09-15T05:35:33Z</time></trkpt><trkpt lat="44.9522845913" lon="38.9964802936"><ele>15.52</ele><time>2018-09-15T05:35:34Z</time></trkpt><trkpt lat="44.9522495549" lon="38.9964646194"><ele>15.52</ele><time>2018-09-15T05:35:35Z</time></trkpt><trkpt lat="44.9522192124" lon="38.9964576624"><ele>15.52</ele><time>2018-09-15T05:35:36Z</time></trkpt><trkpt lat="44.9521879479" lon="38.9964532200"><ele>15.52</ele><time>2018-09-15T05:35:37Z</time></trkpt><trkpt lat="44.9521549232" lon="38.9964504540"><ele>15.52</ele><time>2018-09-15T05:35:38Z</time></trkpt><trkpt lat="44.9519430287" lon="38.9966661204"><ele>15.04</ele><time>2018-09-15T05:35:45Z</time></trkpt><trkpt lat="44.9517768994" lon="38.9971580543"><ele>15.52</ele><time>2018-09-15T05:35:53Z</time></trkpt><trkpt lat="44.9517661706" lon="38.9972253609"><ele>15.52</ele><time>2018-09-15T05:35:54Z</time></trkpt><trkpt lat="44.9517654162" lon="38.9977947436"><ele>15.52</ele><time>2018-09-15T05:36:02Z</time></trkpt><trkpt lat="44.9517789949" lon="38.9978592843"><ele>16.00</ele><time>2018-09-15T05:36:03Z</time></trkpt><trkpt lat="44.9519099202" lon="38.9984984044"><ele>15.52</ele><time>2018-09-15T05:36:12Z</time></trkpt><trkpt lat="44.9519126024" lon="38.9985745121"><ele>15.52</ele><time>2018-09-15T05:36:13Z</time></trkpt><trkpt lat="44.9519101717" lon="38.9986502007"><ele>15.52</ele><time>2018-09-15T05:36:14Z</time></trkpt><trkpt lat="44.9517873768" lon="38.9997964259"><ele>17.44</ele><time>2018-09-15T05:36:30Z</time></trkpt><trkpt lat="44.9516230077" lon="39.0010153223"><ele>16.96</ele><time>2018-09-15T05:36:46Z</time></trkpt><trkpt lat="44.9514834490" lon="39.0020896308"><ele>16.48</ele><time>2018-09-15T05:37:01Z</time></trkpt><trkpt lat="44.9512984604" lon="39.0035144705"><ele>16.48</ele><time>2018-09-15T05:37:19Z</time></trkpt><trkpt lat="44.9511297327" lon="39.0048287529"><ele>16.96</ele><time>2018-09-15T05:37:36Z</time></trkpt><trkpt lat="44.9509481806" lon="39.0062598791"><ele>16.96</ele><time>2018-09-15T05:37:55Z</time></trkpt><trkpt lat="44.9508045986" lon="39.0073683858"><ele>15.52</ele><time>2018-09-15T05:38:12Z</time></trkpt><trkpt lat="44.9506290816" lon="39.0087168664"><ele>16.48</ele><time>2018-09-15T05:38:32Z</time></trkpt><trkpt lat="44.9504951388" lon="39.0097554680"><ele>16.96</ele><time>2018-09-15T05:38:47Z</time></trkpt><trkpt lat="44.9503280874" lon="39.0110504720"><ele>16.96</ele><time>2018-09-15T05:39:05Z</time></trkpt><trkpt lat="44.9501490500" lon="39.0124297980"><ele>17.92</ele><time>2018-09-15T05:39:24Z</time></trkpt><trkpt lat="44.9501172826" lon="39.0126530081"><ele>17.92</ele><time>2018-09-15T05:39:27Z</time></trkpt><trkpt lat="44.9501047935" lon="39.0127248410"><ele>17.92</ele><time>2018-09-15T05:39:28Z</time></trkpt><trkpt lat="44.9499438610" lon="39.0139548015"><ele>18.40</ele><time>2018-09-15T05:39:45Z</time></trkpt><trkpt lat="44.9497746304" lon="39.0152846742"><ele>18.40</ele><time>2018-09-15T05:40:04Z</time></trkpt><trkpt lat="44.9497664999" lon="39.0153490473"><ele>18.40</ele><time>2018-09-15T05:40:05Z</time></trkpt><trkpt lat="44.9496125244" lon="39.0165037382"><ele>19.36</ele><time>2018-09-15T05:40:22Z</time></trkpt><trkpt lat="44.9494539388" lon="39.0176831558"><ele>19.84</ele><time>2018-09-15T05:40:39Z</time></trkpt><trkpt lat="44.9492947664" lon="39.0188955981"><ele>19.36</ele><time>2018-09-15T05:40:56Z</time></trkpt><trkpt lat="44.9490739871" lon="39.0205718111"><ele>19.36</ele><time>2018-09-15T05:41:19Z</time></trkpt><trkpt lat="44.9488884956" lon="39.0220248140"><ele>19.84</ele><time>2018-09-15T05:41:39Z</time></trkpt><trkpt lat="44.9487024173" lon="39.0232515894"><ele>20.32</ele><time>2018-09-15T05:41:56Z</time></trkpt><trkpt lat="44.9484987371" lon="39.0247791912"><ele>19.36</ele><time>2018-09-15T05:42:17Z</time></trkpt><trkpt lat="44.9483269081" lon="39.0260518994"><ele>18.88</ele><time>2018-09-15T05:42:35Z</time></trkpt><trkpt lat="44.9481689092" lon="39.0272848774"><ele>19.84</ele><time>2018-09-15T05:42:52Z</time></trkpt><trkpt lat="44.9479822442" lon="39.0287351981"><ele>19.84</ele><time>2018-09-15T05:43:12Z</time></trkpt><trkpt lat="44.9478211440" lon="39.0302246623"><ele>19.84</ele><time>2018-09-15T05:43:32Z</time></trkpt><trkpt lat="44.9476290308" lon="39.0317349136"><ele>20.32</ele><time>2018-09-15T05:43:53Z</time></trkpt><trkpt lat="44.9474775698" lon="39.0329263173"><ele>20.32</ele><time>2018-09-15T05:44:10Z</time></trkpt><trkpt lat="44.9473173916" lon="39.0342063177"><ele>21.29</ele><time>2018-09-15T05:44:27Z</time></trkpt><trkpt lat="44.9471381865" lon="39.0356119629"><ele>20.81</ele><time>2018-09-15T05:44:46Z</time></trkpt><trkpt lat="44.9469588138" lon="39.0369878523"><ele>20.81</ele><time>2018-09-15T05:45:05Z</time></trkpt><trkpt lat="44.9467832968" lon="39.0384004544"><ele>20.32</ele><time>2018-09-15T05:45:24Z</time></trkpt><trkpt lat="44.9466213584" lon="39.0396398026"><ele>19.36</ele><time>2018-09-15T05:45:41Z</time></trkpt><trkpt lat="44.9464578275" lon="39.0409093257"><ele>19.36</ele><time>2018-09-15T05:45:58Z</time></trkpt><trkpt lat="44.9462543149" lon="39.0424520988"><ele>19.36</ele><time>2018-09-15T05:46:19Z</time></trkpt><trkpt lat="44.9461007584" lon="39.0436577518"><ele>19.84</ele><time>2018-09-15T05:46:36Z</time></trkpt><trkpt lat="44.9459253252" lon="39.0449713636"><ele>19.36</ele><time>2018-09-15T05:46:54Z</time></trkpt><trkpt lat="44.9457537476" lon="39.0463089477"><ele>18.88</ele><time>2018-09-15T05:47:12Z</time></trkpt><trkpt lat="44.9455719441" lon="39.0477733500"><ele>18.40</ele><time>2018-09-15T05:47:31Z</time></trkpt><trkpt lat="44.9453898892" lon="39.0491957590"><ele>17.92</ele><time>2018-09-15T05:47:50Z</time></trkpt><trkpt lat="44.9452082533" lon="39.0505429823"><ele>17.92</ele><time>2018-09-15T05:48:08Z</time></trkpt><trkpt lat="44.9450306408" lon="39.0518999286"><ele>17.44</ele><time>2018-09-15T05:48:26Z</time></trkpt><trkpt lat="44.9448736478" lon="39.0531020612"><ele>16.48</ele><time>2018-09-15T05:48:42Z</time></trkpt><trkpt lat="44.9447012320" lon="39.0544621926"><ele>16.48</ele><time>2018-09-15T05:49:00Z</time></trkpt><trkpt lat="44.9445412215" lon="39.0557226632"><ele>16.48</ele><time>2018-09-15T05:49:17Z</time></trkpt><trkpt lat="44.9443677999" lon="39.0570565592"><ele>16.48</ele><time>2018-09-15T05:49:35Z</time></trkpt><trkpt lat="44.9441942945" lon="39.0583981667"><ele>16.48</ele><time>2018-09-15T05:49:53Z</time></trkpt><trkpt lat="44.9440390617" lon="39.0595982876"><ele>16.48</ele><time>2018-09-15T05:50:10Z</time></trkpt><trkpt lat="44.9438554142" lon="39.0610226244"><ele>16.48</ele><time>2018-09-15T05:50:30Z</time></trkpt><trkpt lat="44.9436825793" lon="39.0623909701"><ele>16.00</ele><time>2018-09-15T05:50:49Z</time></trkpt><trkpt lat="44.9435197189" lon="39.0637112875"><ele>16.48</ele><time>2018-09-15T05:51:07Z</time></trkpt><trkpt lat="44.9433755502" lon="39.0650895238"><ele>16.96</ele><time>2018-09-15T05:51:26Z</time></trkpt><trkpt lat="44.9432785716" lon="39.0663561132"><ele>17.92</ele><time>2018-09-15T05:51:44Z</time></trkpt><trkpt lat="44.9431940820" lon="39.0675593354"><ele>19.36</ele><time>2018-09-15T05:52:01Z</time></trkpt><trkpt lat="44.9431117717" lon="39.0690567624"><ele>21.29</ele><time>2018-09-15T05:52:22Z</time></trkpt><trkpt lat="44.9430640787" lon="39.0704477392"><ele>21.77</ele><time>2018-09-15T05:52:41Z</time></trkpt><trkpt lat="44.9430407770" lon="39.0714555793"><ele>21.77</ele><time>2018-09-15T05:52:55Z</time></trkpt><trkpt lat="44.9430209119" lon="39.0722970385"><ele>21.77</ele><time>2018-09-15T05:53:07Z</time></trkpt><trkpt lat="44.9430173915" lon="39.0723671950"><ele>21.77</ele><time>2018-09-15T05:53:08Z</time></trkpt><trkpt lat="44.9430130329" lon="39.0740951244"><ele>21.77</ele><time>2018-09-15T05:53:30Z</time></trkpt><trkpt lat="44.9430321436" lon="39.0758630354"><ele>21.29</ele><time>2018-09-15T05:53:51Z</time></trkpt><trkpt lat="44.9430814292" lon="39.0770648327"><ele>21.29</ele><time>2018-09-15T05:54:08Z</time></trkpt><trkpt lat="44.9431360792" lon="39.0782943740"><ele>19.84</ele><time>2018-09-15T05:54:24Z</time></trkpt><trkpt lat="44.9432272743" lon="39.0799499676"><ele>19.36</ele><time>2018-09-15T05:54:45Z</time></trkpt><trkpt lat="44.9433739576" lon="39.0816230793"><ele>18.88</ele><time>2018-09-15T05:55:08Z</time></trkpt><trkpt lat="44.9435190484" lon="39.0830270480"><ele>18.40</ele><time>2018-09-15T05:55:26Z</time></trkpt><trkpt lat="44.9436862674" lon="39.0848159138"><ele>17.92</ele><time>2018-09-15T05:55:47Z</time></trkpt><trkpt lat="44.9438310228" lon="39.0864088107"><ele>17.92</ele><time>2018-09-15T05:56:06Z</time></trkpt><trkpt lat="44.9439780414" lon="39.0879991930"><ele>17.92</ele><time>2018-09-15T05:56:26Z</time></trkpt><trkpt lat="44.9441256467" lon="39.0896065067"><ele>18.40</ele><time>2018-09-15T05:56:47Z</time></trkpt><trkpt lat="44.9442568235" lon="39.0910507087"><ele>18.40</ele><time>2018-09-15T05:57:06Z</time></trkpt><trkpt lat="44.9443963822" lon="39.0924625564"><ele>17.92</ele><time>2018-09-15T05:57:25Z</time></trkpt><trkpt lat="44.9445375334" lon="39.0940583032"><ele>17.44</ele><time>2018-09-15T05:57:46Z</time></trkpt><trkpt lat="44.9446707219" lon="39.0954468492"><ele>17.92</ele><time>2018-09-15T05:58:05Z</time></trkpt><trkpt lat="44.9448003061" lon="39.0968680847"><ele>17.92</ele><time>2018-09-15T05:58:24Z</time></trkpt><trkpt lat="44.9449411221" lon="39.0983668528"><ele>17.92</ele><time>2018-09-15T05:58:44Z</time></trkpt><trkpt lat="44.9450599775" lon="39.0996024292"><ele>17.44</ele><time>2018-09-15T05:59:00Z</time></trkpt><trkpt lat="44.9452267773" lon="39.1011840105"><ele>16.96</ele><time>2018-09-15T05:59:21Z</time></trkpt><trkpt lat="44.9454118498" lon="39.1025282163"><ele>17.44</ele><time>2018-09-15T05:59:39Z</time></trkpt><trkpt lat="44.9455986824" lon="39.1037160996"><ele>17.44</ele><time>2018-09-15T05:59:55Z</time></trkpt><trkpt lat="44.9459205475" lon="39.1054264270"><ele>16.96</ele><time>2018-09-15T06:00:18Z</time></trkpt><trkpt lat="44.9461818952" lon="39.1067877319"><ele>16.96</ele><time>2018-09-15T06:00:36Z</time></trkpt><trkpt lat="44.9463253096" lon="39.1077608708"><ele>17.44</ele><time>2018-09-15T06:00:49Z</time></trkpt><trkpt lat="44.9465633556" lon="39.1090074275"><ele>18.88</ele><time>2018-09-15T06:01:08Z</time></trkpt><trkpt lat="44.9467619229" lon="39.1101632919"><ele>19.84</ele><time>2018-09-15T06:01:25Z</time></trkpt><trkpt lat="44.9469842110" lon="39.1116376687"><ele>21.29</ele><time>2018-09-15T06:01:46Z</time></trkpt><trkpt lat="44.9471899867" lon="39.1128668748"><ele>22.73</ele><time>2018-09-15T06:02:04Z</time></trkpt><trkpt lat="44.9474236742" lon="39.1140321270"><ele>21.77</ele><time>2018-09-15T06:02:21Z</time></trkpt><trkpt lat="44.9477097485" lon="39.1154137999"><ele>21.29</ele><time>2018-09-15T06:02:39Z</time></trkpt><trkpt lat="44.9480557535" lon="39.1169004142"><ele>21.29</ele><time>2018-09-15T06:02:58Z</time></trkpt><trkpt lat="44.9483137485" lon="39.1178821027"><ele>20.32</ele><time>2018-09-15T06:03:12Z</time></trkpt><trkpt lat="44.9485629424" lon="39.1188777052"><ele>19.36</ele><time>2018-09-15T06:03:27Z</time></trkpt><trkpt lat="44.9487367831" lon="39.1194677912"><ele>19.36</ele><time>2018-09-15T06:03:36Z</time></trkpt><trkpt lat="44.9487654492" lon="39.1195263807"><ele>19.36</ele><time>2018-09-15T06:03:37Z</time></trkpt><trkpt lat="44.9487919360" lon="39.1195800249"><ele>19.36</ele><time>2018-09-15T06:03:38Z</time></trkpt><trkpt lat="44.9488140643" lon="39.1196420509"><ele>19.36</ele><time>2018-09-15T06:03:39Z</time></trkpt><trkpt lat="44.9488311633" lon="39.1197052505"><ele>19.36</ele><time>2018-09-15T06:03:40Z</time></trkpt><trkpt lat="44.9491368514" lon="39.1208840813"><ele>19.84</ele><time>2018-09-15T06:03:58Z</time></trkpt><trkpt lat="44.9493764061" lon="39.1219394468"><ele>21.77</ele><time>2018-09-15T06:04:15Z</time></trkpt><trkpt lat="44.9495183118" lon="39.1230462771"><ele>23.69</ele><time>2018-09-15T06:04:33Z</time></trkpt><trkpt lat="44.9492718838" lon="39.1239835415"><ele>19.36</ele><time>2018-09-15T06:04:45Z</time></trkpt><trkpt lat="44.9488305766" lon="39.1245393455"><ele>18.40</ele><time>2018-09-15T06:04:54Z</time></trkpt><trkpt lat="44.9487765133" lon="39.1245761421"><ele>18.40</ele><time>2018-09-15T06:04:55Z</time></trkpt><trkpt lat="44.9478574377" lon="39.1250396613"><ele>18.40</ele><time>2018-09-15T06:05:13Z</time></trkpt><trkpt lat="44.9470701255" lon="39.1253678128"><ele>18.40</ele><time>2018-09-15T06:05:29Z</time></trkpt><trkpt lat="44.9460404087" lon="39.1258462518"><ele>18.88</ele><time>2018-09-15T06:05:50Z</time></trkpt><trkpt lat="44.9451323971" lon="39.1263110284"><ele>20.32</ele><time>2018-09-15T06:06:09Z</time></trkpt><trkpt lat="44.9443772715" lon="39.1267536767"><ele>20.32</ele><time>2018-09-15T06:06:25Z</time></trkpt><trkpt lat="44.9438138399" lon="39.1272506397"><ele>20.32</ele><time>2018-09-15T06:06:38Z</time></trkpt><trkpt lat="44.9437772948" lon="39.1272935551"><ele>20.32</ele><time>2018-09-15T06:06:39Z</time></trkpt><trkpt lat="44.9436312821" lon="39.1274732631"><ele>20.32</ele><time>2018-09-15T06:06:43Z</time></trkpt><trkpt lat="44.9435905460" lon="39.1275105625"><ele>20.32</ele><time>2018-09-15T06:06:44Z</time></trkpt><trkpt lat="44.9427549541" lon="39.1282096971"><ele>20.32</ele><time>2018-09-15T06:07:03Z</time></trkpt><trkpt lat="44.9423400499" lon="39.1285222583"><ele>19.84</ele><time>2018-09-15T06:07:12Z</time></trkpt><trkpt lat="44.9422589131" lon="39.1285650060"><ele>19.84</ele><time>2018-09-15T06:07:14Z</time></trkpt><trkpt lat="44.9420220405" lon="39.1286776587"><ele>19.36</ele><time>2018-09-15T06:07:21Z</time></trkpt><trkpt lat="44.9417550769" lon="39.1288922355"><ele>18.88</ele><time>2018-09-15T06:07:28Z</time></trkpt><trkpt lat="44.9417175259" lon="39.1289315466"><ele>18.88</ele><time>2018-09-15T06:07:29Z</time></trkpt><trkpt lat="44.9416773766" lon="39.1289668344"><ele>18.88</ele><time>2018-09-15T06:07:30Z</time></trkpt><trkpt lat="44.9415125046" lon="39.1291067284"><ele>19.36</ele><time>2018-09-15T06:07:34Z</time></trkpt><trkpt lat="44.9413523264" lon="39.1292638052"><ele>19.84</ele><time>2018-09-15T06:07:38Z</time></trkpt><trkpt lat="44.9408228416" lon="39.1297024302"><ele>20.32</ele><time>2018-09-15T06:07:50Z</time></trkpt><trkpt lat="44.9403551314" lon="39.1299947072"><ele>20.81</ele><time>2018-09-15T06:08:00Z</time></trkpt><trkpt lat="44.9396518897" lon="39.1304650996"><ele>19.84</ele><time>2018-09-15T06:08:16Z</time></trkpt><trkpt lat="44.9387108535" lon="39.1312084906"><ele>19.84</ele><time>2018-09-15T06:08:37Z</time></trkpt><trkpt lat="44.9381870683" lon="39.1316387337"><ele>19.84</ele><time>2018-09-15T06:08:50Z</time></trkpt><trkpt lat="44.9381560553" lon="39.1316852532"><ele>19.84</ele><time>2018-09-15T06:08:51Z</time></trkpt><trkpt lat="44.9380921014" lon="39.1317839921"><ele>19.84</ele><time>2018-09-15T06:08:53Z</time></trkpt><trkpt lat="44.9380522035" lon="39.1318150051"><ele>19.84</ele><time>2018-09-15T06:08:54Z</time></trkpt><trkpt lat="44.9376842380" lon="39.1320001613"><ele>19.84</ele><time>2018-09-15T06:09:02Z</time></trkpt><trkpt lat="44.9369242508" lon="39.1325972043"><ele>19.84</ele><time>2018-09-15T06:09:19Z</time></trkpt><trkpt lat="44.9359581526" lon="39.1333511565"><ele>19.84</ele><time>2018-09-15T06:09:40Z</time></trkpt><trkpt lat="44.9352421705" lon="39.1339073796"><ele>19.84</ele><time>2018-09-15T06:09:56Z</time></trkpt><trkpt lat="44.9351964891" lon="39.1339404043"><ele>19.84</ele><time>2018-09-15T06:09:57Z</time></trkpt><trkpt lat="44.9343969394" lon="39.1345679574"><ele>20.32</ele><time>2018-09-15T06:10:15Z</time></trkpt><trkpt lat="44.9342712108" lon="39.1346712224"><ele>20.32</ele><time>2018-09-15T06:10:18Z</time></trkpt><trkpt lat="44.9342273735" lon="39.1347019002"><ele>20.32</ele><time>2018-09-15T06:10:19Z</time></trkpt><trkpt lat="44.9334767740" lon="39.1352865379"><ele>20.32</ele><time>2018-09-15T06:10:36Z</time></trkpt><trkpt lat="44.9325663317" lon="39.1359939706"><ele>20.32</ele><time>2018-09-15T06:10:56Z</time></trkpt><trkpt lat="44.9317546282" lon="39.1366246250"><ele>20.81</ele><time>2018-09-15T06:11:14Z</time></trkpt><trkpt lat="44.9308953155" lon="39.1372869629"><ele>20.32</ele><time>2018-09-15T06:11:33Z</time></trkpt><trkpt lat="44.9299416225" lon="39.1380395740"><ele>20.32</ele><time>2018-09-15T06:11:54Z</time></trkpt><trkpt lat="44.9290942959" lon="39.1387214419"><ele>20.32</ele><time>2018-09-15T06:12:13Z</time></trkpt><trkpt lat="44.9281331431" lon="39.1394475661"><ele>19.84</ele><time>2018-09-15T06:12:34Z</time></trkpt><trkpt lat="44.9275239464" lon="39.1399279330"><ele>19.84</ele><time>2018-09-15T06:12:48Z</time></trkpt><trkpt lat="44.9274956994" lon="39.1399717703"><ele>19.84</ele><time>2018-09-15T06:12:49Z</time></trkpt><trkpt lat="44.9274642672" lon="39.1400018614"><ele>19.84</ele><time>2018-09-15T06:12:50Z</time></trkpt><trkpt lat="44.9273826275" lon="39.1400375683"><ele>19.84</ele><time>2018-09-15T06:12:52Z</time></trkpt><trkpt lat="44.9265662301" lon="39.1406578291"><ele>19.36</ele><time>2018-09-15T06:13:11Z</time></trkpt><trkpt lat="44.9257774930" lon="39.1412643436"><ele>19.36</ele><time>2018-09-15T06:13:29Z</time></trkpt><trkpt lat="44.9251226149" lon="39.1417820100"><ele>19.36</ele><time>2018-09-15T06:13:46Z</time></trkpt><trkpt lat="44.9244599417" lon="39.1423018556"><ele>19.36</ele><time>2018-09-15T06:14:01Z</time></trkpt><trkpt lat="44.9244150985" lon="39.1423306894"><ele>19.36</ele><time>2018-09-15T06:14:02Z</time></trkpt><trkpt lat="44.9235547800" lon="39.1430108808"><ele>19.36</ele><time>2018-09-15T06:14:22Z</time></trkpt><trkpt lat="44.9227820523" lon="39.1436805110"><ele>19.84</ele><time>2018-09-15T06:14:40Z</time></trkpt><trkpt lat="44.9220851809" lon="39.1442551743"><ele>19.84</ele><time>2018-09-15T06:14:56Z</time></trkpt><trkpt lat="44.9213013053" lon="39.1448966414"><ele>19.84</ele><time>2018-09-15T06:15:14Z</time></trkpt><trkpt lat="44.9211743195" lon="39.1450024210"><ele>19.84</ele><time>2018-09-15T06:15:17Z</time></trkpt><trkpt lat="44.9203803856" lon="39.1456134617"><ele>19.84</ele><time>2018-09-15T06:15:35Z</time></trkpt><trkpt lat="44.9194959272" lon="39.1462889593"><ele>19.84</ele><time>2018-09-15T06:15:55Z</time></trkpt><trkpt lat="44.9188444018" lon="39.1467860900"><ele>19.84</ele><time>2018-09-15T06:16:10Z</time></trkpt><trkpt lat="44.9187533744" lon="39.1468353756"><ele>20.32</ele><time>2018-09-15T06:16:12Z</time></trkpt><trkpt lat="44.9181554932" lon="39.1472471785"><ele>20.32</ele><time>2018-09-15T06:16:26Z</time></trkpt><trkpt lat="44.9173797481" lon="39.1478145495"><ele>20.81</ele><time>2018-09-15T06:16:44Z</time></trkpt><trkpt lat="44.9165735766" lon="39.1484502330"><ele>20.81</ele><time>2018-09-15T06:17:03Z</time></trkpt><trkpt lat="44.9158047885" lon="39.1490376368"><ele>20.81</ele><time>2018-09-15T06:17:20Z</time></trkpt><trkpt lat="44.9149489962" lon="39.1497137211"><ele>20.32</ele><time>2018-09-15T06:17:39Z</time></trkpt><trkpt lat="44.9142320920" lon="39.1502737161"><ele>20.81</ele><time>2018-09-15T06:17:55Z</time></trkpt><trkpt lat="44.9134177063" lon="39.1508596949"><ele>21.77</ele><time>2018-09-15T06:18:13Z</time></trkpt><trkpt lat="44.9128450546" lon="39.1512929555"><ele>20.81</ele><time>2018-09-15T06:18:26Z</time></trkpt><trkpt lat="44.9120859895" lon="39.1518762521"><ele>21.29</ele><time>2018-09-15T06:18:43Z</time></trkpt><trkpt lat="44.9111641478" lon="39.1526245885"><ele>21.29</ele><time>2018-09-15T06:19:04Z</time></trkpt><trkpt lat="44.9104664382" lon="39.1531218868"><ele>22.73</ele><time>2018-09-15T06:19:20Z</time></trkpt><trkpt lat="44.9102809466" lon="39.1532556619"><ele>23.21</ele><time>2018-09-15T06:19:25Z</time></trkpt><trkpt lat="44.9102453236" lon="39.1532782931"><ele>23.21</ele><time>2018-09-15T06:19:26Z</time></trkpt><trkpt lat="44.9097466003" lon="39.1535991523"><ele>23.69</ele><time>2018-09-15T06:19:37Z</time></trkpt><trkpt lat="44.9096960574" lon="39.1536255553"><ele>23.69</ele><time>2018-09-15T06:19:38Z</time></trkpt><trkpt lat="44.9092612043" lon="39.1538537107"><ele>24.17</ele><time>2018-09-15T06:19:47Z</time></trkpt><trkpt lat="44.9092111643" lon="39.1538737435"><ele>24.17</ele><time>2018-09-15T06:19:48Z</time></trkpt><trkpt lat="44.9083424639" lon="39.1542918328"><ele>24.65</ele><time>2018-09-15T06:20:06Z</time></trkpt><trkpt lat="44.9075633660" lon="39.1547541786"><ele>24.65</ele><time>2018-09-15T06:20:23Z</time></trkpt><trkpt lat="44.9067100044" lon="39.1553778760"><ele>25.61</ele><time>2018-09-15T06:20:42Z</time></trkpt><trkpt lat="44.9060636759" lon="39.1558795329"><ele>26.57</ele><time>2018-09-15T06:20:58Z</time></trkpt><trkpt lat="44.9058370292" lon="39.1560608335"><ele>27.53</ele><time>2018-09-15T06:21:04Z</time></trkpt><trkpt lat="44.9052658863" lon="39.1565049905"><ele>29.46</ele><time>2018-09-15T06:21:20Z</time></trkpt><trkpt lat="44.9047891237" lon="39.1569105070"><ele>30.90</ele><time>2018-09-15T06:21:35Z</time></trkpt><trkpt lat="44.9042791687" lon="39.1573277581"><ele>32.82</ele><time>2018-09-15T06:21:51Z</time></trkpt><trkpt lat="44.9037200958" lon="39.1578092985"><ele>34.26</ele><time>2018-09-15T06:22:08Z</time></trkpt><trkpt lat="44.9035132304" lon="39.1579887550"><ele>34.26</ele><time>2018-09-15T06:22:14Z</time></trkpt><trkpt lat="44.9028107431" lon="39.1586102732"><ele>35.23</ele><time>2018-09-15T06:22:33Z</time></trkpt><trkpt lat="44.9021166377" lon="39.1592126805"><ele>35.23</ele><time>2018-09-15T06:22:51Z</time></trkpt><trkpt lat="44.9013458379" lon="39.1598953865"><ele>36.19</ele><time>2018-09-15T06:23:09Z</time></trkpt><trkpt lat="44.9008114915" lon="39.1603827942"><ele>36.67</ele><time>2018-09-15T06:23:23Z</time></trkpt><trkpt lat="44.9001688510" lon="39.1609698627"><ele>35.71</ele><time>2018-09-15T06:23:39Z</time></trkpt><trkpt lat="44.8997868039" lon="39.1613115091"><ele>35.71</ele><time>2018-09-15T06:23:48Z</time></trkpt><trkpt lat="44.8990361206" lon="39.1619771998"><ele>36.19</ele><time>2018-09-15T06:24:06Z</time></trkpt><trkpt lat="44.8981718626" lon="39.1627590638"><ele>36.19</ele><time>2018-09-15T06:24:26Z</time></trkpt><trkpt lat="44.8974336684" lon="39.1633946635"><ele>37.15</ele><time>2018-09-15T06:24:44Z</time></trkpt><trkpt lat="44.8973534536" lon="39.1634523310"><ele>37.63</ele><time>2018-09-15T06:24:46Z</time></trkpt><trkpt lat="44.8971297406" lon="39.1636313684"><ele>38.11</ele><time>2018-09-15T06:24:52Z</time></trkpt><trkpt lat="44.8970963806" lon="39.1636577714"><ele>38.11</ele><time>2018-09-15T06:24:53Z</time></trkpt><trkpt lat="44.8964689951" lon="39.1640860029"><ele>39.55</ele><time>2018-09-15T06:25:10Z</time></trkpt><trkpt lat="44.8962368164" lon="39.1642281599"><ele>40.51</ele><time>2018-09-15T06:25:16Z</time></trkpt><trkpt lat="44.8954230174" lon="39.1646705568"><ele>41.47</ele><time>2018-09-15T06:25:35Z</time></trkpt><trkpt lat="44.8944787122" lon="39.1651427094"><ele>41.95</ele><time>2018-09-15T06:25:56Z</time></trkpt><trkpt lat="44.8937575333" lon="39.1655356530"><ele>42.92</ele><time>2018-09-15T06:26:13Z</time></trkpt><trkpt lat="44.8930505197" lon="39.1659661476"><ele>42.44</ele><time>2018-09-15T06:26:28Z</time></trkpt><trkpt lat="44.8930033296" lon="39.1659819894"><ele>42.44</ele><time>2018-09-15T06:26:29Z</time></trkpt><trkpt lat="44.8929578997" lon="39.1659977473"><ele>42.44</ele><time>2018-09-15T06:26:30Z</time></trkpt><trkpt lat="44.8929133918" lon="39.1660220549"><ele>42.92</ele><time>2018-09-15T06:26:31Z</time></trkpt><trkpt lat="44.8928685486" lon="39.1660499666"><ele>42.92</ele><time>2018-09-15T06:26:32Z</time></trkpt><trkpt lat="44.8921143450" lon="39.1666511167"><ele>41.47</ele><time>2018-09-15T06:26:50Z</time></trkpt><trkpt lat="44.8920345493" lon="39.1667200159"><ele>41.95</ele><time>2018-09-15T06:26:52Z</time></trkpt><trkpt lat="44.8915233370" lon="39.1672346648"><ele>41.47</ele><time>2018-09-15T06:27:05Z</time></trkpt><trkpt lat="44.8912505899" lon="39.1675227508"><ele>41.95</ele><time>2018-09-15T06:27:12Z</time></trkpt><trkpt lat="44.8904694803" lon="39.1684455983"><ele>41.95</ele><time>2018-09-15T06:27:33Z</time></trkpt><trkpt lat="44.8898452800" lon="39.1691925097"><ele>42.44</ele><time>2018-09-15T06:27:50Z</time></trkpt><trkpt lat="44.8891854566" lon="39.1699450370"><ele>41.95</ele><time>2018-09-15T06:28:08Z</time></trkpt><trkpt lat="44.8885195982" lon="39.1706887633"><ele>41.95</ele><time>2018-09-15T06:28:26Z</time></trkpt><trkpt lat="44.8879257403" lon="39.1713179927"><ele>42.44</ele><time>2018-09-15T06:28:43Z</time></trkpt><trkpt lat="44.8872904759" lon="39.1719410196"><ele>42.44</ele><time>2018-09-15T06:28:59Z</time></trkpt><trkpt lat="44.8866001423" lon="39.1726103984"><ele>42.92</ele><time>2018-09-15T06:29:16Z</time></trkpt><trkpt lat="44.8858478665" lon="39.1732831299"><ele>42.92</ele><time>2018-09-15T06:29:34Z</time></trkpt><trkpt lat="44.8849666771" lon="39.1740156244"><ele>43.40</ele><time>2018-09-15T06:29:55Z</time></trkpt><trkpt lat="44.8843471706" lon="39.1745341290"><ele>43.40</ele><time>2018-09-15T06:30:10Z</time></trkpt><trkpt lat="44.8842180055" lon="39.1746371426"><ele>43.40</ele><time>2018-09-15T06:30:13Z</time></trkpt><trkpt lat="44.8834024463" lon="39.1752915177"><ele>43.40</ele><time>2018-09-15T06:30:32Z</time></trkpt><trkpt lat="44.8825196642" lon="39.1759800073"><ele>43.40</ele><time>2018-09-15T06:30:52Z</time></trkpt><trkpt lat="44.8816154245" lon="39.1766824108"><ele>43.88</ele><time>2018-09-15T06:31:13Z</time></trkpt><trkpt lat="44.8808037210" lon="39.1773117241"><ele>43.88</ele><time>2018-09-15T06:31:31Z</time></trkpt><trkpt lat="44.8801590689" lon="39.1778243612"><ele>42.44</ele><time>2018-09-15T06:31:47Z</time></trkpt><trkpt lat="44.8792716768" lon="39.1785493959"><ele>41.95</ele><time>2018-09-15T06:32:07Z</time></trkpt><trkpt lat="44.8785113543" lon="39.1791481152"><ele>41.47</ele><time>2018-09-15T06:32:24Z</time></trkpt><trkpt lat="44.8777489364" lon="39.1797684599"><ele>41.95</ele><time>2018-09-15T06:32:42Z</time></trkpt><trkpt lat="44.8767638952" lon="39.1805591248"><ele>42.92</ele><time>2018-09-15T06:33:05Z</time></trkpt><trkpt lat="44.8766749632" lon="39.1806203127"><ele>43.40</ele><time>2018-09-15T06:33:07Z</time></trkpt><trkpt lat="44.8766281921" lon="39.1806391720"><ele>43.40</ele><time>2018-09-15T06:33:08Z</time></trkpt><trkpt lat="44.8765818402" lon="39.1806607135"><ele>43.40</ele><time>2018-09-15T06:33:09Z</time></trkpt><trkpt lat="44.8765371647" lon="39.1806908883"><ele>43.40</ele><time>2018-09-15T06:33:10Z</time></trkpt><trkpt lat="44.8764931597" lon="39.1807249188"><ele>43.40</ele><time>2018-09-15T06:33:11Z</time></trkpt><trkpt lat="44.8756841384" lon="39.1813591775"><ele>43.40</ele><time>2018-09-15T06:33:30Z</time></trkpt><trkpt lat="44.8747862689" lon="39.1820432246"><ele>43.40</ele><time>2018-09-15T06:33:51Z</time></trkpt><trkpt lat="44.8740420397" lon="39.1826164629"><ele>44.84</ele><time>2018-09-15T06:34:09Z</time></trkpt><trkpt lat="44.8732776940" lon="39.1832203791"><ele>45.32</ele><time>2018-09-15T06:34:27Z</time></trkpt><trkpt lat="44.8723418545" lon="39.1839667037"><ele>44.84</ele><time>2018-09-15T06:34:49Z</time></trkpt><trkpt lat="44.8714546300" lon="39.1846639942"><ele>44.84</ele><time>2018-09-15T06:35:09Z</time></trkpt><trkpt lat="44.8706663121" lon="39.1852827463"><ele>44.36</ele><time>2018-09-15T06:35:27Z</time></trkpt><trkpt lat="44.8697959352" lon="39.1860905103"><ele>44.36</ele><time>2018-09-15T06:35:48Z</time></trkpt><trkpt lat="44.8691656161" lon="39.1867992841"><ele>43.88</ele><time>2018-09-15T06:36:05Z</time></trkpt><trkpt lat="44.8684978299" lon="39.1875913739"><ele>42.92</ele><time>2018-09-15T06:36:22Z</time></trkpt><trkpt lat="44.8678088374" lon="39.1884932667"><ele>42.92</ele><time>2018-09-15T06:36:41Z</time></trkpt><trkpt lat="44.8671546299" lon="39.1893364023"><ele>43.88</ele><time>2018-09-15T06:36:59Z</time></trkpt><trkpt lat="44.8664803896" lon="39.1901622713"><ele>43.88</ele><time>2018-09-15T06:37:17Z</time></trkpt><trkpt lat="44.8657091707" lon="39.1910141241"><ele>43.40</ele><time>2018-09-15T06:37:36Z</time></trkpt><trkpt lat="44.8648087028" lon="39.1918280069"><ele>40.99</ele><time>2018-09-15T06:37:54Z</time></trkpt><trkpt lat="44.8639678303" lon="39.1924947873"><ele>40.99</ele><time>2018-09-15T06:38:11Z</time></trkpt><trkpt lat="44.8633145448" lon="39.1930065863"><ele>42.44</ele><time>2018-09-15T06:38:28Z</time></trkpt><trkpt lat="44.8626600858" lon="39.1935379989"><ele>44.36</ele><time>2018-09-15T06:38:46Z</time></trkpt><trkpt lat="44.8623623606" lon="39.1937677469"><ele>44.36</ele><time>2018-09-15T06:38:54Z</time></trkpt><trkpt lat="44.8623243067" lon="39.1937945690"><ele>44.36</ele><time>2018-09-15T06:38:55Z</time></trkpt><trkpt lat="44.8616503179" lon="39.1943266522"><ele>46.28</ele><time>2018-09-15T06:39:13Z</time></trkpt><trkpt lat="44.8616137728" lon="39.1943549830"><ele>46.28</ele><time>2018-09-15T06:39:14Z</time></trkpt><trkpt lat="44.8609196674" lon="39.1949146427"><ele>46.28</ele><time>2018-09-15T06:39:32Z</time></trkpt><trkpt lat="44.8604999017" lon="39.1952369269"><ele>46.76</ele><time>2018-09-15T06:39:42Z</time></trkpt><trkpt lat="44.8597817402" lon="39.1957990173"><ele>47.24</ele><time>2018-09-15T06:39:59Z</time></trkpt><trkpt lat="44.8590005469" lon="39.1963740997"><ele>47.72</ele><time>2018-09-15T06:40:17Z</time></trkpt><trkpt lat="44.8585533723" lon="39.1967558116"><ele>48.20</ele><time>2018-09-15T06:40:28Z</time></trkpt><trkpt lat="44.8585155699" lon="39.1967911832"><ele>47.72</ele><time>2018-09-15T06:40:29Z</time></trkpt><trkpt lat="44.8584762588" lon="39.1968229506"><ele>48.20</ele><time>2018-09-15T06:40:30Z</time></trkpt><trkpt lat="44.8576575983" lon="39.1974593047"><ele>47.72</ele><time>2018-09-15T06:40:50Z</time></trkpt><trkpt lat="44.8571363278" lon="39.1978928167"><ele>48.20</ele><time>2018-09-15T06:41:03Z</time></trkpt><trkpt lat="44.8565131333" lon="39.1983838286"><ele>48.20</ele><time>2018-09-15T06:41:18Z</time></trkpt><trkpt lat="44.8556601070" lon="39.1990500223"><ele>47.24</ele><time>2018-09-15T06:41:38Z</time></trkpt><trkpt lat="44.8549313843" lon="39.1996250208"><ele>47.24</ele><time>2018-09-15T06:41:55Z</time></trkpt><trkpt lat="44.8541072756" lon="39.2002781387"><ele>47.24</ele><time>2018-09-15T06:42:14Z</time></trkpt><trkpt lat="44.8533283453" lon="39.2008963041"><ele>47.24</ele><time>2018-09-15T06:42:33Z</time></trkpt><trkpt lat="44.8523767479" lon="39.2016438022"><ele>48.20</ele><time>2018-09-15T06:42:55Z</time></trkpt><trkpt lat="44.8516473547" lon="39.2022236623"><ele>48.20</ele><time>2018-09-15T06:43:12Z</time></trkpt><trkpt lat="44.8508857749" lon="39.2028277460"><ele>48.68</ele><time>2018-09-15T06:43:30Z</time></trkpt><trkpt lat="44.8502013925" lon="39.2033665348"><ele>49.16</ele><time>2018-09-15T06:43:46Z</time></trkpt><trkpt lat="44.8493812233" lon="39.2040205747"><ele>49.16</ele><time>2018-09-15T06:44:05Z</time></trkpt><trkpt lat="44.8485369142" lon="39.2046777159"><ele>50.13</ele><time>2018-09-15T06:44:24Z</time></trkpt><trkpt lat="44.8475037608" lon="39.2054813728"><ele>51.09</ele><time>2018-09-15T06:44:48Z</time></trkpt><trkpt lat="44.8468082305" lon="39.2060323153"><ele>51.09</ele><time>2018-09-15T06:45:04Z</time></trkpt><trkpt lat="44.8460168112" lon="39.2067081481"><ele>49.65</ele><time>2018-09-15T06:45:22Z</time></trkpt><trkpt lat="44.8450880963" lon="39.2074231245"><ele>47.72</ele><time>2018-09-15T06:45:41Z</time></trkpt><trkpt lat="44.8442474753" lon="39.2080691177"><ele>45.80</ele><time>2018-09-15T06:45:59Z</time></trkpt><trkpt lat="44.8442019615" lon="39.2081121169"><ele>45.32</ele><time>2018-09-15T06:46:00Z</time></trkpt><trkpt lat="44.8441559449" lon="39.2081551999"><ele>45.32</ele><time>2018-09-15T06:46:01Z</time></trkpt><trkpt lat="44.8441081680" lon="39.2081956007"><ele>44.84</ele><time>2018-09-15T06:46:02Z</time></trkpt><trkpt lat="44.8440602235" lon="39.2082342412"><ele>44.84</ele><time>2018-09-15T06:46:03Z</time></trkpt><trkpt lat="44.8432707321" lon="39.2088923045"><ele>41.95</ele><time>2018-09-15T06:46:19Z</time></trkpt><trkpt lat="44.8424102459" lon="39.2096418981"><ele>38.11</ele><time>2018-09-15T06:46:35Z</time></trkpt><trkpt lat="44.8422824219" lon="39.2097322550"><ele>37.63</ele><time>2018-09-15T06:46:37Z</time></trkpt><trkpt lat="44.8422203120" lon="39.2097874917"><ele>37.15</ele><time>2018-09-15T06:46:38Z</time></trkpt><trkpt lat="44.8411907628" lon="39.2107593734"><ele>31.86</ele><time>2018-09-15T06:46:54Z</time></trkpt><trkpt lat="44.8400614690" lon="39.2118416447"><ele>28.50</ele><time>2018-09-15T06:47:13Z</time></trkpt><trkpt lat="44.8390975501" lon="39.2127683479"><ele>29.46</ele><time>2018-09-15T06:47:33Z</time></trkpt><trkpt lat="44.8384850007" lon="39.2133505549"><ele>29.46</ele><time>2018-09-15T06:47:48Z</time></trkpt><trkpt lat="44.8376577906" lon="39.2141481768"><ele>29.46</ele><time>2018-09-15T06:48:08Z</time></trkpt><trkpt lat="44.8369161598" lon="39.2148619797"><ele>28.98</ele><time>2018-09-15T06:48:26Z</time></trkpt><trkpt lat="44.8361539096" lon="39.2155723460"><ele>29.46</ele><time>2018-09-15T06:48:44Z</time></trkpt><trkpt lat="44.8355069105" lon="39.2162067723"><ele>29.46</ele><time>2018-09-15T06:49:00Z</time></trkpt><trkpt lat="44.8345781118" lon="39.2170790769"><ele>28.98</ele><time>2018-09-15T06:49:22Z</time></trkpt><trkpt lat="44.8337469622" lon="39.2178832367"><ele>28.02</ele><time>2018-09-15T06:49:43Z</time></trkpt><trkpt lat="44.8329525255" lon="39.2186466604"><ele>28.50</ele><time>2018-09-15T06:50:03Z</time></trkpt><trkpt lat="44.8322126549" lon="39.2193820048"><ele>28.98</ele><time>2018-09-15T06:50:22Z</time></trkpt><trkpt lat="44.8315870296" lon="39.2199937161"><ele>30.42</ele><time>2018-09-15T06:50:38Z</time></trkpt><trkpt lat="44.8313261848" lon="39.2202381324"><ele>30.42</ele><time>2018-09-15T06:50:45Z</time></trkpt><trkpt lat="44.8312536813" lon="39.2203062773"><ele>30.90</ele><time>2018-09-15T06:50:47Z</time></trkpt><trkpt lat="44.8305524513" lon="39.2209763266"><ele>31.86</ele><time>2018-09-15T06:51:05Z</time></trkpt><trkpt lat="44.8298395704" lon="39.2216353957"><ele>32.82</ele><time>2018-09-15T06:51:23Z</time></trkpt><trkpt lat="44.8292401806" lon="39.2222128250"><ele>34.26</ele><time>2018-09-15T06:51:41Z</time></trkpt><trkpt lat="44.8286982905" lon="39.2227087822"><ele>36.19</ele><time>2018-09-15T06:51:59Z</time></trkpt><trkpt lat="44.8282476794" lon="39.2231249437"><ele>38.59</ele><time>2018-09-15T06:52:16Z</time></trkpt><trkpt lat="44.8277772870" lon="39.2234630696"><ele>39.55</ele><time>2018-09-15T06:52:33Z</time></trkpt><trkpt lat="44.8273071460" lon="39.2237618845"><ele>42.44</ele><time>2018-09-15T06:52:49Z</time></trkpt><trkpt lat="44.8267858755" lon="39.2240319494"><ele>43.40</ele><time>2018-09-15T06:53:05Z</time></trkpt><trkpt lat="44.8261993099" lon="39.2243436724"><ele>43.40</ele><time>2018-09-15T06:53:23Z</time></trkpt><trkpt lat="44.8255821504" lon="39.2245123163"><ele>45.80</ele><time>2018-09-15T06:53:40Z</time></trkpt><trkpt lat="44.8249886278" lon="39.2246608436"><ele>46.76</ele><time>2018-09-15T06:53:55Z</time></trkpt><trkpt lat="44.8243571352" lon="39.2248025816"><ele>47.24</ele><time>2018-09-15T06:54:09Z</time></trkpt><trkpt lat="44.8236919474" lon="39.2249691300"><ele>47.24</ele><time>2018-09-15T06:54:24Z</time></trkpt><trkpt lat="44.8232804798" lon="39.2250718083"><ele>47.24</ele><time>2018-09-15T06:54:33Z</time></trkpt><trkpt lat="44.8232412525" lon="39.2250801902"><ele>47.72</ele><time>2018-09-15T06:54:34Z</time></trkpt><trkpt lat="44.8227476422" lon="39.2252205871"><ele>47.72</ele><time>2018-09-15T06:54:45Z</time></trkpt><trkpt lat="44.8224198259" lon="39.2253053281"><ele>48.20</ele><time>2018-09-15T06:54:52Z</time></trkpt><trkpt lat="44.8223777488" lon="39.2253179848"><ele>48.20</ele><time>2018-09-15T06:54:53Z</time></trkpt><trkpt lat="44.8214828968" lon="39.2255447153"><ele>47.72</ele><time>2018-09-15T06:55:12Z</time></trkpt><trkpt lat="44.8207142763" lon="39.2257434502"><ele>47.72</ele><time>2018-09-15T06:55:28Z</time></trkpt><trkpt lat="44.8199620005" lon="39.2259514052"><ele>47.24</ele><time>2018-09-15T06:55:44Z</time></trkpt><trkpt lat="44.8189998418" lon="39.2261871044"><ele>46.76</ele><time>2018-09-15T06:56:04Z</time></trkpt><trkpt lat="44.8181036487" lon="39.2264179420"><ele>47.24</ele><time>2018-09-15T06:56:22Z</time></trkpt><trkpt lat="44.8173193540" lon="39.2266199458"><ele>46.76</ele><time>2018-09-15T06:56:38Z</time></trkpt><trkpt lat="44.8170205392" lon="39.2266935389"><ele>47.24</ele><time>2018-09-15T06:56:44Z</time></trkpt><trkpt lat="44.8169728462" lon="39.2267044354"><ele>47.24</ele><time>2018-09-15T06:56:45Z</time></trkpt><trkpt lat="44.8159810156" lon="39.2269552220"><ele>47.24</ele><time>2018-09-15T06:57:05Z</time></trkpt><trkpt lat="44.8150463495" lon="39.2271949444"><ele>46.76</ele><time>2018-09-15T06:57:22Z</time></trkpt><trkpt lat="44.8138732184" lon="39.2274900712"><ele>46.76</ele><time>2018-09-15T06:57:44Z</time></trkpt><trkpt lat="44.8130393028" lon="39.2277052347"><ele>46.76</ele><time>2018-09-15T06:58:01Z</time></trkpt><trkpt lat="44.8119337298" lon="39.2279816698"><ele>47.24</ele><time>2018-09-15T06:58:23Z</time></trkpt><trkpt lat="44.8111225292" lon="39.2281847633"><ele>47.72</ele><time>2018-09-15T06:58:40Z</time></trkpt><trkpt lat="44.8110767640" lon="39.2281936482"><ele>47.72</ele><time>2018-09-15T06:58:41Z</time></trkpt><trkpt lat="44.8106487002" lon="39.2283063009"><ele>47.72</ele><time>2018-09-15T06:58:50Z</time></trkpt><trkpt lat="44.8102208041" lon="39.2284222227"><ele>48.20</ele><time>2018-09-15T06:58:59Z</time></trkpt><trkpt lat="44.8093564622" lon="39.2286316864"><ele>48.20</ele><time>2018-09-15T06:59:17Z</time></trkpt><trkpt lat="44.8085869197" lon="39.2288416531"><ele>48.20</ele><time>2018-09-15T06:59:33Z</time></trkpt><trkpt lat="44.8076564446" lon="39.2290680483"><ele>47.72</ele><time>2018-09-15T06:59:51Z</time></trkpt><trkpt lat="44.8068644386" lon="39.2292804457"><ele>46.76</ele><time>2018-09-15T07:00:06Z</time></trkpt><trkpt lat="44.8056905530" lon="39.2295748182"><ele>45.80</ele><time>2018-09-15T07:00:27Z</time></trkpt><trkpt lat="44.8049401212" lon="39.2297664285"><ele>44.84</ele><time>2018-09-15T07:00:41Z</time></trkpt><trkpt lat="44.8041568324" lon="39.2299615592"><ele>45.32</ele><time>2018-09-15T07:00:56Z</time></trkpt><trkpt lat="44.8034181353" lon="39.2301501520"><ele>44.84</ele><time>2018-09-15T07:01:10Z</time></trkpt><trkpt lat="44.8024902586" lon="39.2304236535"><ele>43.40</ele><time>2018-09-15T07:01:26Z</time></trkpt><trkpt lat="44.8014193028" lon="39.2307350412"><ele>39.07</ele><time>2018-09-15T07:01:44Z</time></trkpt><trkpt lat="44.8011581227" lon="39.2308108974"><ele>38.11</ele><time>2018-09-15T07:01:49Z</time></trkpt><trkpt lat="44.8002869077" lon="39.2310720775"><ele>37.63</ele><time>2018-09-15T07:02:05Z</time></trkpt><trkpt lat="44.7992275190" lon="39.2313800287"><ele>37.63</ele><time>2018-09-15T07:02:24Z</time></trkpt><trkpt lat="44.7984112892" lon="39.2316140514"><ele>37.15</ele><time>2018-09-15T07:02:39Z</time></trkpt><trkpt lat="44.7974059638" lon="39.2319061607"><ele>36.19</ele><time>2018-09-15T07:02:57Z</time></trkpt><trkpt lat="44.7963722236" lon="39.2322206497"><ele>36.67</ele><time>2018-09-15T07:03:16Z</time></trkpt><trkpt lat="44.7953596897" lon="39.2325218953"><ele>36.67</ele><time>2018-09-15T07:03:35Z</time></trkpt><trkpt lat="44.7942723893" lon="39.2328348756"><ele>35.71</ele><time>2018-09-15T07:03:55Z</time></trkpt><trkpt lat="44.7932244837" lon="39.2331333552"><ele>34.74</ele><time>2018-09-15T07:04:14Z</time></trkpt><trkpt lat="44.7921370994" lon="39.2334410548"><ele>34.26</ele><time>2018-09-15T07:04:34Z</time></trkpt><trkpt lat="44.7913217917" lon="39.2336934339"><ele>33.78</ele><time>2018-09-15T07:04:51Z</time></trkpt><trkpt lat="44.7905064002" lon="39.2339129560"><ele>32.82</ele><time>2018-09-15T07:05:08Z</time></trkpt><trkpt lat="44.7901739739" lon="39.2340135388"><ele>33.78</ele><time>2018-09-15T07:05:16Z</time></trkpt><trkpt lat="44.7895681299" lon="39.2342261877"><ele>35.23</ele><time>2018-09-15T07:05:32Z</time></trkpt><trkpt lat="44.7889557481" lon="39.2344413511"><ele>36.19</ele><time>2018-09-15T07:05:49Z</time></trkpt><trkpt lat="44.7882665880" lon="39.2347099911"><ele>39.07</ele><time>2018-09-15T07:06:08Z</time></trkpt><trkpt lat="44.7876813635" lon="39.2349492945"><ele>40.99</ele><time>2018-09-15T07:06:24Z</time></trkpt><trkpt lat="44.7870247252" lon="39.2352203652"><ele>42.44</ele><time>2018-09-15T07:06:42Z</time></trkpt><trkpt lat="44.7864971682" lon="39.2354297452"><ele>44.36</ele><time>2018-09-15T07:06:57Z</time></trkpt><trkpt lat="44.7858639993" lon="39.2356377840"><ele>46.28</ele><time>2018-09-15T07:07:14Z</time></trkpt><trkpt lat="44.7850316763" lon="39.2357883230"><ele>47.72</ele><time>2018-09-15T07:07:35Z</time></trkpt><trkpt lat="44.7848619428" lon="39.2357994709"><ele>48.20</ele><time>2018-09-15T07:07:39Z</time></trkpt><trkpt lat="44.7848176025" lon="39.2358034942"><ele>48.68</ele><time>2018-09-15T07:07:40Z</time></trkpt><trkpt lat="44.7840190586" lon="39.2357958667"><ele>50.13</ele><time>2018-09-15T07:07:58Z</time></trkpt><trkpt lat="44.7838383447" lon="39.2357765045"><ele>50.13</ele><time>2018-09-15T07:08:02Z</time></trkpt><trkpt lat="44.7832510248" lon="39.2356599960"><ele>50.13</ele><time>2018-09-15T07:08:15Z</time></trkpt><trkpt lat="44.7832070198" lon="39.2356474232"><ele>50.13</ele><time>2018-09-15T07:08:16Z</time></trkpt><trkpt lat="44.7831611708" lon="39.2356355209"><ele>50.13</ele><time>2018-09-15T07:08:17Z</time></trkpt><trkpt lat="44.7827035189" lon="39.2354931124"><ele>50.61</ele><time>2018-09-15T07:08:27Z</time></trkpt><trkpt lat="44.7826571669" lon="39.2354740854"><ele>50.61</ele><time>2018-09-15T07:08:28Z</time></trkpt><trkpt lat="44.7821678314" lon="39.2352908570"><ele>51.09</ele><time>2018-09-15T07:08:39Z</time></trkpt><trkpt lat="44.7813394479" lon="39.2349602748"><ele>52.53</ele><time>2018-09-15T07:08:57Z</time></trkpt><trkpt lat="44.7804117389" lon="39.2346106656"><ele>52.53</ele><time>2018-09-15T07:09:17Z</time></trkpt><trkpt lat="44.7799260076" lon="39.2344224080"><ele>52.53</ele><time>2018-09-15T07:09:27Z</time></trkpt><trkpt lat="44.7798786499" lon="39.2343955021"><ele>52.53</ele><time>2018-09-15T07:09:28Z</time></trkpt><trkpt lat="44.7790972888" lon="39.2340886407"><ele>52.05</ele><time>2018-09-15T07:09:44Z</time></trkpt><trkpt lat="44.7783552390" lon="39.2338301428"><ele>52.53</ele><time>2018-09-15T07:10:00Z</time></trkpt><trkpt lat="44.7776818369" lon="39.2336034961"><ele>52.05</ele><time>2018-09-15T07:10:14Z</time></trkpt><trkpt lat="44.7768827062" lon="39.2333828006"><ele>51.57</ele><time>2018-09-15T07:10:30Z</time></trkpt><trkpt lat="44.7759436816" lon="39.2331465986"><ele>51.57</ele><time>2018-09-15T07:10:48Z</time></trkpt><trkpt lat="44.7754933219" lon="39.2330326047"><ele>51.57</ele><time>2018-09-15T07:10:57Z</time></trkpt><trkpt lat="44.7754451260" lon="39.2330243904"><ele>51.57</ele><time>2018-09-15T07:10:58Z</time></trkpt><trkpt lat="44.7745925188" lon="39.2328134179"><ele>52.05</ele><time>2018-09-15T07:11:16Z</time></trkpt><trkpt lat="44.7736249119" lon="39.2325710133"><ele>53.49</ele><time>2018-09-15T07:11:36Z</time></trkpt><trkpt lat="44.7727319039" lon="39.2323468812"><ele>53.01</ele><time>2018-09-15T07:11:55Z</time></trkpt><trkpt lat="44.7721582465" lon="39.2321964260"><ele>53.97</ele><time>2018-09-15T07:12:09Z</time></trkpt><trkpt lat="44.7712468822" lon="39.2319731321"><ele>54.45</ele><time>2018-09-15T07:12:29Z</time></trkpt><trkpt lat="44.7711153701" lon="39.2319403589"><ele>55.41</ele><time>2018-09-15T07:12:32Z</time></trkpt><trkpt lat="44.7706285492" lon="39.2317843717"><ele>55.41</ele><time>2018-09-15T07:12:43Z</time></trkpt><trkpt lat="44.7705841251" lon="39.2317691166"><ele>55.41</ele><time>2018-09-15T07:12:44Z</time></trkpt><trkpt lat="44.7698047757" lon="39.2315766681"><ele>55.89</ele><time>2018-09-15T07:13:01Z</time></trkpt><trkpt lat="44.7689911444" lon="39.2313291505"><ele>55.41</ele><time>2018-09-15T07:13:18Z</time></trkpt><trkpt lat="44.7689455468" lon="39.2312974669"><ele>55.41</ele><time>2018-09-15T07:13:19Z</time></trkpt><trkpt lat="44.7686865460" lon="39.2310462613"><ele>54.93</ele><time>2018-09-15T07:13:26Z</time></trkpt><trkpt lat="44.7683595680" lon="39.2304045428"><ele>55.89</ele><time>2018-09-15T07:13:42Z</time></trkpt><trkpt lat="44.7681475896" lon="39.2298036441"><ele>58.78</ele><time>2018-09-15T07:13:58Z</time></trkpt><trkpt lat="44.7677755170" lon="39.2294655181"><ele>60.70</ele><time>2018-09-15T07:14:13Z</time></trkpt><trkpt lat="44.7673175298" lon="39.2295776680"><ele>62.62</ele><time>2018-09-15T07:14:27Z</time></trkpt><trkpt lat="44.7670551762" lon="39.2301119305"><ele>63.10</ele><time>2018-09-15T07:14:40Z</time></trkpt><trkpt lat="44.7669939883" lon="39.2305046227"><ele>63.10</ele><time>2018-09-15T07:14:47Z</time></trkpt><trkpt lat="44.7669885401" lon="39.2305667326"><ele>63.10</ele><time>2018-09-15T07:14:48Z</time></trkpt><trkpt lat="44.7669822536" lon="39.2306238972"><ele>63.10</ele><time>2018-09-15T07:14:49Z</time></trkpt><trkpt lat="44.7668563575" lon="39.2316225171"><ele>63.58</ele><time>2018-09-15T07:15:05Z</time></trkpt><trkpt lat="44.7666620649" lon="39.2327439319"><ele>60.70</ele><time>2018-09-15T07:15:20Z</time></trkpt><trkpt lat="44.7661796864" lon="39.2338649277"><ele>55.89</ele><time>2018-09-15T07:15:33Z</time></trkpt><trkpt lat="44.7653315216" lon="39.2348265834"><ele>52.53</ele><time>2018-09-15T07:15:46Z</time></trkpt><trkpt lat="44.7647836804" lon="39.2353648692"><ele>53.49</ele><time>2018-09-15T07:15:57Z</time></trkpt><trkpt lat="44.7639390361" lon="39.2358599044"><ele>53.01</ele><time>2018-09-15T07:16:15Z</time></trkpt><trkpt lat="44.7630011011" lon="39.2360464856"><ele>52.05</ele><time>2018-09-15T07:16:33Z</time></trkpt><trkpt lat="44.7622074187" lon="39.2362078372"><ele>53.01</ele><time>2018-09-15T07:16:50Z</time></trkpt><trkpt lat="44.7617043369" lon="39.2364007886"><ele>51.57</ele><time>2018-09-15T07:17:00Z</time></trkpt><trkpt lat="44.7616452444" lon="39.2364339810"><ele>51.57</ele><time>2018-09-15T07:17:01Z</time></trkpt><trkpt lat="44.7606779728" lon="39.2370006815"><ele>46.28</ele><time>2018-09-15T07:17:15Z</time></trkpt><trkpt lat="44.7596307378" lon="39.2376012448"><ele>41.47</ele><time>2018-09-15T07:17:28Z</time></trkpt><trkpt lat="44.7588357143" lon="39.2380714696"><ele>41.95</ele><time>2018-09-15T07:17:41Z</time></trkpt><trkpt lat="44.7580784932" lon="39.2385226674"><ele>44.84</ele><time>2018-09-15T07:17:55Z</time></trkpt><trkpt lat="44.7575269639" lon="39.2388469633"><ele>48.20</ele><time>2018-09-15T07:18:07Z</time></trkpt><trkpt lat="44.7573356051" lon="39.2389574368"><ele>48.68</ele><time>2018-09-15T07:18:11Z</time></trkpt><trkpt lat="44.7567426693" lon="39.2392995022"><ele>48.20</ele><time>2018-09-15T07:18:24Z</time></trkpt><trkpt lat="44.7562310379" lon="39.2395263165"><ele>49.16</ele><time>2018-09-15T07:18:41Z</time></trkpt><trkpt lat="44.7558539361" lon="39.2393237259"><ele>51.09</ele><time>2018-09-15T07:18:56Z</time></trkpt><trkpt lat="44.7555283830" lon="39.2389586940"><ele>54.45</ele><time>2018-09-15T07:19:13Z</time></trkpt><trkpt lat="44.7551674582" lon="39.2385357432"><ele>56.37</ele><time>2018-09-15T07:19:30Z</time></trkpt><trkpt lat="44.7546608560" lon="39.2379348446"><ele>57.34</ele><time>2018-09-15T07:19:47Z</time></trkpt><trkpt lat="44.7541932296" lon="39.2373822257"><ele>57.34</ele><time>2018-09-15T07:20:02Z</time></trkpt><trkpt lat="44.7535860445" lon="39.2367595341"><ele>57.34</ele><time>2018-09-15T07:20:20Z</time></trkpt><trkpt lat="44.7529353574" lon="39.2361999582"><ele>56.86</ele><time>2018-09-15T07:20:38Z</time></trkpt><trkpt lat="44.7523647174" lon="39.2356756702"><ele>56.37</ele><time>2018-09-15T07:20:53Z</time></trkpt><trkpt lat="44.7517162096" lon="39.2351139989"><ele>55.89</ele><time>2018-09-15T07:21:11Z</time></trkpt><trkpt lat="44.7509951144" lon="39.2344760522"><ele>55.89</ele><time>2018-09-15T07:21:31Z</time></trkpt><trkpt lat="44.7503416613" lon="39.2338980362"><ele>56.37</ele><time>2018-09-15T07:21:48Z</time></trkpt><trkpt lat="44.7496462148" lon="39.2332735844"><ele>56.86</ele><time>2018-09-15T07:22:07Z</time></trkpt><trkpt lat="44.7490369342" lon="39.2327296827"><ele>57.34</ele><time>2018-09-15T07:22:24Z</time></trkpt><trkpt lat="44.7482552379" lon="39.2320456356"><ele>57.82</ele><time>2018-09-15T07:22:45Z</time></trkpt><trkpt lat="44.7475742083" lon="39.2314502690"><ele>58.30</ele><time>2018-09-15T07:23:03Z</time></trkpt><trkpt lat="44.7469144687" lon="39.2308506276"><ele>54.93</ele><time>2018-09-15T07:23:17Z</time></trkpt><trkpt lat="44.7458720114" lon="39.2299517523"><ele>47.24</ele><time>2018-09-15T07:23:32Z</time></trkpt><trkpt lat="44.7456107475" lon="39.2298065778"><ele>45.80</ele><time>2018-09-15T07:23:35Z</time></trkpt><trkpt lat="44.7455213964" lon="39.2297784984"><ele>45.32</ele><time>2018-09-15T07:23:36Z</time></trkpt><trkpt lat="44.7444495186" lon="39.2296099383"><ele>45.80</ele><time>2018-09-15T07:23:49Z</time></trkpt><trkpt lat="44.7439895198" lon="39.2295618262"><ele>49.16</ele><time>2018-09-15T07:24:00Z</time></trkpt><trkpt lat="44.7434260044" lon="39.2294961121"><ele>53.49</ele><time>2018-09-15T07:24:20Z</time></trkpt><trkpt lat="44.7429303825" lon="39.2294496763"><ele>55.89</ele><time>2018-09-15T07:24:38Z</time></trkpt><trkpt lat="44.7423922643" lon="39.2293865606"><ele>57.34</ele><time>2018-09-15T07:24:56Z</time></trkpt><trkpt lat="44.7417754401" lon="39.2293218523"><ele>58.78</ele><time>2018-09-15T07:25:13Z</time></trkpt><trkpt lat="44.7411051393" lon="39.2292433139"><ele>59.26</ele><time>2018-09-15T07:25:30Z</time></trkpt><trkpt lat="44.7406168934" lon="39.2291812040"><ele>59.74</ele><time>2018-09-15T07:25:41Z</time></trkpt><trkpt lat="44.7405735590" lon="39.2291770130"><ele>59.74</ele><time>2018-09-15T07:25:42Z</time></trkpt><trkpt lat="44.7396153398" lon="39.2290613428"><ele>59.74</ele><time>2018-09-15T07:26:02Z</time></trkpt><trkpt lat="44.7386337351" lon="39.2289403081"><ele>58.30</ele><time>2018-09-15T07:26:22Z</time></trkpt><trkpt lat="44.7379488498" lon="39.2288629431"><ele>56.37</ele><time>2018-09-15T07:26:36Z</time></trkpt><trkpt lat="44.7370444424" lon="39.2287683953"><ele>52.53</ele><time>2018-09-15T07:26:49Z</time></trkpt><trkpt lat="44.7358553018" lon="39.2284121644"><ele>44.84</ele><time>2018-09-15T07:27:03Z</time></trkpt><trkpt lat="44.7350501362" lon="39.2278411891"><ele>43.88</ele><time>2018-09-15T07:27:15Z</time></trkpt><trkpt lat="44.7346717771" lon="39.2275629938"><ele>46.76</ele><time>2018-09-15T07:27:27Z</time></trkpt><trkpt lat="44.7343156300" lon="39.2272945214"><ele>47.24</ele><time>2018-09-15T07:27:43Z</time></trkpt><trkpt lat="44.7338917572" lon="39.2269452475"><ele>50.61</ele><time>2018-09-15T07:28:03Z</time></trkpt><trkpt lat="44.7335827164" lon="39.2266692314"><ele>52.53</ele><time>2018-09-15T07:28:17Z</time></trkpt><trkpt lat="44.7331392299" lon="39.2262463644"><ele>53.49</ele><time>2018-09-15T07:28:33Z</time></trkpt><trkpt lat="44.7325420193" lon="39.2256618943"><ele>54.93</ele><time>2018-09-15T07:28:52Z</time></trkpt><trkpt lat="44.7319091018" lon="39.2250559665"><ele>56.86</ele><time>2018-09-15T07:29:12Z</time></trkpt><trkpt lat="44.7312793694" lon="39.2247301619"><ele>58.30</ele><time>2018-09-15T07:29:29Z</time></trkpt><trkpt lat="44.7304298636" lon="39.2246097140"><ele>58.78</ele><time>2018-09-15T07:29:49Z</time></trkpt><trkpt lat="44.7296165675" lon="39.2244800460"><ele>59.74</ele><time>2018-09-15T07:30:09Z</time></trkpt><trkpt lat="44.7288626153" lon="39.2243701592"><ele>60.22</ele><time>2018-09-15T07:30:28Z</time></trkpt><trkpt lat="44.7282070667" lon="39.2242898606"><ele>61.18</ele><time>2018-09-15T07:30:46Z</time></trkpt><trkpt lat="44.7275880631" lon="39.2241953965"><ele>62.62</ele><time>2018-09-15T07:31:04Z</time></trkpt><trkpt lat="44.7271429002" lon="39.2241251562"><ele>64.07</ele><time>2018-09-15T07:31:20Z</time></trkpt><trkpt lat="44.7266819794" lon="39.2240613699"><ele>66.47</ele><time>2018-09-15T07:31:37Z</time></trkpt><trkpt lat="44.7262655664" lon="39.2239985056"><ele>68.39</ele><time>2018-09-15T07:31:52Z</time></trkpt><trkpt lat="44.7257426195" lon="39.2239291035"><ele>69.83</ele><time>2018-09-15T07:32:09Z</time></trkpt><trkpt lat="44.7251623403" lon="39.2239997629"><ele>70.79</ele><time>2018-09-15T07:32:26Z</time></trkpt><trkpt lat="44.7244460229" lon="39.2241610307"><ele>71.76</ele><time>2018-09-15T07:32:44Z</time></trkpt><trkpt lat="44.7237804160" lon="39.2242960632"><ele>71.76</ele><time>2018-09-15T07:33:00Z</time></trkpt><trkpt lat="44.7237381712" lon="39.2243026011"><ele>71.76</ele><time>2018-09-15T07:33:01Z</time></trkpt><trkpt lat="44.7228964604" lon="39.2244783696"><ele>71.76</ele><time>2018-09-15T07:33:20Z</time></trkpt><trkpt lat="44.7219683323" lon="39.2246697284"><ele>72.72</ele><time>2018-09-15T07:33:41Z</time></trkpt><trkpt lat="44.7214096785" lon="39.2247384600"><ele>73.20</ele><time>2018-09-15T07:33:56Z</time></trkpt><trkpt lat="44.7207659483" lon="39.2247874103"><ele>73.68</ele><time>2018-09-15T07:34:12Z</time></trkpt><trkpt lat="44.7200451884" lon="39.2248400487"><ele>74.16</ele><time>2018-09-15T07:34:30Z</time></trkpt><trkpt lat="44.7193218302" lon="39.2248910107"><ele>75.60</ele><time>2018-09-15T07:34:49Z</time></trkpt><trkpt lat="44.7185708117" lon="39.2249411345"><ele>76.08</ele><time>2018-09-15T07:35:07Z</time></trkpt><trkpt lat="44.7183824703" lon="39.2249662802"><ele>76.56</ele><time>2018-09-15T07:35:11Z</time></trkpt><trkpt lat="44.7176265903" lon="39.2250105366"><ele>76.56</ele><time>2018-09-15T07:35:28Z</time></trkpt><trkpt lat="44.7175438609" lon="39.2250123806"><ele>76.56</ele><time>2018-09-15T07:35:30Z</time></trkpt><trkpt lat="44.7175031248" lon="39.2250149790"><ele>76.56</ele><time>2018-09-15T07:35:31Z</time></trkpt><trkpt lat="44.7174630594" lon="39.2250180803"><ele>76.56</ele><time>2018-09-15T07:35:32Z</time></trkpt><trkpt lat="44.7173419409" lon="39.2250241991"><ele>77.04</ele><time>2018-09-15T07:35:35Z</time></trkpt><trkpt lat="44.7173016239" lon="39.2250281386"><ele>76.56</ele><time>2018-09-15T07:35:36Z</time></trkpt><trkpt lat="44.7166345920" lon="39.2250858061"><ele>75.60</ele><time>2018-09-15T07:35:52Z</time></trkpt><trkpt lat="44.7159531433" lon="39.2250464950"><ele>71.76</ele><time>2018-09-15T07:36:03Z</time></trkpt><trkpt lat="44.7157414164" lon="39.2249413859"><ele>69.83</ele><time>2018-09-15T07:36:06Z</time></trkpt><trkpt lat="44.7156715114" lon="39.2248845566"><ele>68.87</ele><time>2018-09-15T07:36:07Z</time></trkpt><trkpt lat="44.7155335452" lon="39.2247578222"><ele>67.43</ele><time>2018-09-15T07:36:09Z</time></trkpt><trkpt lat="44.7154668253" lon="39.2246769369"><ele>66.95</ele><time>2018-09-15T07:36:10Z</time></trkpt><trkpt lat="44.7148088459" lon="39.2234563641"><ele>61.18</ele><time>2018-09-15T07:36:22Z</time></trkpt><trkpt lat="44.7140967194" lon="39.2220499646"><ele>58.30</ele><time>2018-09-15T07:36:38Z</time></trkpt><trkpt lat="44.7135233134" lon="39.2209252808"><ele>55.41</ele><time>2018-09-15T07:36:55Z</time></trkpt><trkpt lat="44.7129992768" lon="39.2198668141"><ele>51.57</ele><time>2018-09-15T07:37:10Z</time></trkpt><trkpt lat="44.7123485897" lon="39.2185802758"><ele>51.09</ele><time>2018-09-15T07:37:29Z</time></trkpt><trkpt lat="44.7118170094" lon="39.2174644768"><ele>50.61</ele><time>2018-09-15T07:37:46Z</time></trkpt><trkpt lat="44.7116571665" lon="39.2171084974"><ele>50.13</ele><time>2018-09-15T07:37:52Z</time></trkpt><trkpt lat="44.7113973275" lon="39.2164908350"><ele>49.16</ele><time>2018-09-15T07:38:03Z</time></trkpt><trkpt lat="44.7113446053" lon="39.2163905874"><ele>49.16</ele><time>2018-09-15T07:38:05Z</time></trkpt><trkpt lat="44.7113104071" lon="39.2163459957"><ele>49.16</ele><time>2018-09-15T07:38:06Z</time></trkpt><trkpt lat="44.7112757061" lon="39.2163114622"><ele>48.68</ele><time>2018-09-15T07:38:07Z</time></trkpt><trkpt lat="44.7112366464" lon="39.2162791919"><ele>48.68</ele><time>2018-09-15T07:38:08Z</time></trkpt><trkpt lat="44.7111947369" lon="39.2162536271"><ele>48.20</ele><time>2018-09-15T07:38:09Z</time></trkpt><trkpt lat="44.7111469600" lon="39.2162438203"><ele>48.20</ele><time>2018-09-15T07:38:10Z</time></trkpt><trkpt lat="44.7110932320" lon="39.2162522860"><ele>47.72</ele><time>2018-09-15T07:38:11Z</time></trkpt><trkpt lat="44.7110452037" lon="39.2162723187"><ele>47.72</ele><time>2018-09-15T07:38:12Z</time></trkpt><trkpt lat="44.7109987680" lon="39.2163003143"><ele>47.72</ele><time>2018-09-15T07:38:13Z</time></trkpt><trkpt lat="44.7109550145" lon="39.2163335066"><ele>47.24</ele><time>2018-09-15T07:38:14Z</time></trkpt><trkpt lat="44.7109192237" lon="39.2163658608"><ele>47.24</ele><time>2018-09-15T07:38:15Z</time></trkpt><trkpt lat="44.7107791621" lon="39.2165218480"><ele>47.24</ele><time>2018-09-15T07:38:19Z</time></trkpt><trkpt lat="44.7106349934" lon="39.2166475765"><ele>46.76</ele><time>2018-09-15T07:38:22Z</time></trkpt><trkpt lat="44.7105266992" lon="39.2167306412"><ele>46.28</ele><time>2018-09-15T07:38:24Z</time></trkpt><trkpt lat="44.7104744799" lon="39.2167812679"><ele>46.28</ele><time>2018-09-15T07:38:25Z</time></trkpt><trkpt lat="44.7098707315" lon="39.2173577752"><ele>44.84</ele><time>2018-09-15T07:38:38Z</time></trkpt><trkpt lat="44.7098156624" lon="39.2173338030"><ele>44.84</ele><time>2018-09-15T07:38:41Z</time></trkpt><trkpt lat="44.7098330967" lon="39.2173058912"><ele>44.36</ele><time>2018-09-15T07:38:55Z</time></trkpt><trkpt lat="44.7098538838" lon="39.2173069809"><ele>45.32</ele><time>2018-09-15T07:39:12Z</time></trkpt><trkpt lat="44.7098785266" lon="39.2174169514"><ele>46.76</ele><time>2018-09-15T07:39:21Z</time></trkpt><trkpt lat="44.7098631039" lon="39.2174528260"><ele>47.24</ele><time>2018-09-15T07:39:22Z</time></trkpt><trkpt lat="44.7098434065" lon="39.2174768820"><ele>47.72</ele><time>2018-09-15T07:39:23Z</time></trkpt><trkpt lat="44.7098177578" lon="39.2174977530"><ele>47.72</ele><time>2018-09-15T07:39:24Z</time></trkpt><trkpt lat="44.7097909357" lon="39.2175166123"><ele>47.72</ele><time>2018-09-15T07:39:25Z</time></trkpt><trkpt lat="44.7097594198" lon="39.2175380699"><ele>47.72</ele><time>2018-09-15T07:39:26Z</time></trkpt><trkpt lat="44.7096351162" lon="39.2176871002"><ele>48.68</ele><time>2018-09-15T07:39:30Z</time></trkpt><trkpt lat="44.7096089646" lon="39.2177379783"><ele>48.68</ele><time>2018-09-15T07:39:31Z</time></trkpt><trkpt lat="44.7095094714" lon="39.2181916907"><ele>48.20</ele><time>2018-09-15T07:39:39Z</time></trkpt><trkpt lat="44.7093498800" lon="39.2192214914"><ele>47.72</ele><time>2018-09-15T07:39:56Z</time></trkpt><trkpt lat="44.7092110757" lon="39.2202343605"><ele>46.28</ele><time>2018-09-15T07:40:13Z</time></trkpt><trkpt lat="44.7091391589" lon="39.2204598337"><ele>45.80</ele><time>2018-09-15T07:40:17Z</time></trkpt><trkpt lat="44.7090411745" lon="39.2206803616"><ele>45.80</ele><time>2018-09-15T07:40:21Z</time></trkpt><trkpt lat="44.7090142686" lon="39.2207306530"><ele>45.80</ele><time>2018-09-15T07:40:22Z</time></trkpt><trkpt lat="44.7085374221" lon="39.2215020396"><ele>45.80</ele><time>2018-09-15T07:40:38Z</time></trkpt><trkpt lat="44.7078265529" lon="39.2226042598"><ele>45.32</ele><time>2018-09-15T07:40:59Z</time></trkpt><trkpt lat="44.7076027561" lon="39.2230807710"><ele>45.80</ele><time>2018-09-15T07:41:07Z</time></trkpt><trkpt lat="44.7074927017" lon="39.2240329552"><ele>44.84</ele><time>2018-09-15T07:41:21Z</time></trkpt><trkpt lat="44.7074036859" lon="39.2253694497"><ele>43.88</ele><time>2018-09-15T07:41:38Z</time></trkpt><trkpt lat="44.7072763648" lon="39.2271480896"><ele>42.44</ele><time>2018-09-15T07:42:00Z</time></trkpt><trkpt lat="44.7071450204" lon="39.2288362049"><ele>42.92</ele><time>2018-09-15T07:42:23Z</time></trkpt><trkpt lat="44.7069737781" lon="39.2296314798"><ele>43.88</ele><time>2018-09-15T07:42:38Z</time></trkpt><trkpt lat="44.7067998536" lon="39.2296678573"><ele>43.88</ele><time>2018-09-15T07:42:47Z</time></trkpt><trkpt lat="44.7067895439" lon="39.2296772450"><ele>43.88</ele><time>2018-09-15T07:42:48Z</time></trkpt><trkpt lat="44.7067791503" lon="39.2296878062"><ele>43.88</ele><time>2018-09-15T07:42:49Z</time></trkpt><trkpt lat="44.7068017814" lon="39.2297471501"><ele>44.36</ele><time>2018-09-15T07:42:53Z</time></trkpt><trkpt lat="44.7068241611" lon="39.2297492456"><ele>44.36</ele><time>2018-09-15T07:42:54Z</time></trkpt><trkpt lat="44.7068456188" lon="39.2297489103"><ele>44.36</ele><time>2018-09-15T07:42:55Z</time></trkpt><trkpt lat="44.7068722732" lon="39.2297471501"><ele>44.36</ele><time>2018-09-15T07:42:56Z</time></trkpt><trkpt lat="44.7068975028" lon="39.2297461443"><ele>44.36</ele><time>2018-09-15T07:42:57Z</time></trkpt><trkpt lat="44.7071391530" lon="39.2297282070"><ele>44.84</ele><time>2018-09-15T07:43:06Z</time></trkpt><trkpt lat="44.7071594372" lon="39.2297023069"><ele>44.84</ele><time>2018-09-15T07:43:07Z</time></trkpt><trkpt lat="44.7071764525" lon="39.2296700366"><ele>44.84</ele><time>2018-09-15T07:43:08Z</time></trkpt><trkpt lat="44.7071915399" lon="39.2296578828"><ele>43.88</ele><time>2018-09-15T07:43:16Z</time></trkpt><trkpt lat="44.7071995027" lon="39.2296483275"><ele>41.95</ele><time>2018-09-15T07:43:41Z</time></trkpt><trkpt lat="44.7071931325" lon="39.2296474054"><ele>43.40</ele><time>2018-09-15T07:44:30Z</time></trkpt><trkpt lat="44.7072090581" lon="39.2296417058"><ele>42.92</ele><time>2018-09-15T07:45:10Z</time></trkpt><trkpt lat="44.7071912885" lon="39.2296263669"><ele>41.95</ele><time>2018-09-15T07:45:42Z</time></trkpt><trkpt lat="44.7071803920" lon="39.2296468187"><ele>40.03</ele><time>2018-09-15T07:46:16Z</time></trkpt><trkpt lat="44.7071839124" lon="39.2296652589"><ele>38.59</ele><time>2018-09-15T07:46:57Z</time></trkpt><trkpt lat="44.7071782127" lon="39.2296592239"><ele>40.03</ele><time>2018-09-15T07:47:30Z</time></trkpt><trkpt lat="44.7071908694" lon="39.2296207510"><ele>40.51</ele><time>2018-09-15T07:48:07Z</time></trkpt><trkpt lat="44.7071708366" lon="39.2296406999"><ele>41.47</ele><time>2018-09-15T07:48:48Z</time></trkpt><trkpt lat="44.7071655560" lon="39.2296333238"><ele>43.88</ele><time>2018-09-15T07:49:32Z</time></trkpt><trkpt lat="44.7071746923" lon="39.2296329048"><ele>43.40</ele><time>2018-09-15T07:50:05Z</time></trkpt><trkpt lat="44.7071663942" lon="39.2296331562"><ele>44.36</ele><time>2018-09-15T07:50:32Z</time></trkpt><trkpt lat="44.7071711719" lon="39.2296366766"><ele>45.32</ele><time>2018-09-15T07:51:14Z</time></trkpt><trkpt lat="44.7071859241" lon="39.2296682764"><ele>45.32</ele><time>2018-09-15T07:51:37Z</time></trkpt><trkpt lat="44.7071818169" lon="39.2296923324"><ele>44.36</ele><time>2018-09-15T07:51:55Z</time></trkpt><trkpt lat="44.7070798092" lon="39.2299806699"><ele>44.84</ele><time>2018-09-15T07:52:07Z</time></trkpt><trkpt lat="44.7068884503" lon="39.2303667404"><ele>45.32</ele><time>2018-09-15T07:52:19Z</time></trkpt><trkpt lat="44.7068403382" lon="39.2305053771"><ele>44.84</ele><time>2018-09-15T07:52:28Z</time></trkpt><trkpt lat="44.7068096604" lon="39.2305024434"><ele>45.32</ele><time>2018-09-15T07:52:54Z</time></trkpt><trkpt lat="44.7067465447" lon="39.2308067903"><ele>45.80</ele><time>2018-09-15T07:53:05Z</time></trkpt><trkpt lat="44.7064794973" lon="39.2317352537"><ele>45.80</ele><time>2018-09-15T07:53:22Z</time></trkpt><trkpt lat="44.7061248589" lon="39.2328467779"><ele>44.36</ele><time>2018-09-15T07:53:41Z</time></trkpt><trkpt lat="44.7057302389" lon="39.2341227550"><ele>43.88</ele><time>2018-09-15T07:54:01Z</time></trkpt><trkpt lat="44.7052926198" lon="39.2352678906"><ele>43.40</ele><time>2018-09-15T07:54:19Z</time></trkpt><trkpt lat="44.7047668230" lon="39.2365003657"><ele>43.88</ele><time>2018-09-15T07:54:40Z</time></trkpt><trkpt lat="44.7041475680" lon="39.2379128002"><ele>42.44</ele><time>2018-09-15T07:55:03Z</time></trkpt><trkpt lat="44.7036614176" lon="39.2390158586"><ele>42.44</ele><time>2018-09-15T07:55:21Z</time></trkpt><trkpt lat="44.7036025766" lon="39.2391435988"><ele>42.44</ele><time>2018-09-15T07:55:23Z</time></trkpt><trkpt lat="44.7029540688" lon="39.2404765729"><ele>42.44</ele><time>2018-09-15T07:55:45Z</time></trkpt><trkpt lat="44.7023661621" lon="39.2416604329"><ele>42.44</ele><time>2018-09-15T07:56:05Z</time></trkpt><trkpt lat="44.7016701289" lon="39.2430676706"><ele>43.40</ele><time>2018-09-15T07:56:29Z</time></trkpt><trkpt lat="44.7011306696" lon="39.2441644426"><ele>43.88</ele><time>2018-09-15T07:56:48Z</time></trkpt><trkpt lat="44.7004602011" lon="39.2455380689"><ele>42.92</ele><time>2018-09-15T07:57:12Z</time></trkpt><trkpt lat="44.7002846003" lon="39.2458554078"><ele>43.40</ele><time>2018-09-15T07:57:18Z</time></trkpt><trkpt lat="44.6994604077" lon="39.2469323985"><ele>44.36</ele><time>2018-09-15T07:57:42Z</time></trkpt><trkpt lat="44.6988235507" lon="39.2477351334"><ele>45.32</ele><time>2018-09-15T07:58:01Z</time></trkpt><trkpt lat="44.6981365699" lon="39.2486077733"><ele>45.80</ele><time>2018-09-15T07:58:22Z</time></trkpt><trkpt lat="44.6973295603" lon="39.2496049684"><ele>46.76</ele><time>2018-09-15T07:58:46Z</time></trkpt><trkpt lat="44.6969034243" lon="39.2504204437"><ele>47.24</ele><time>2018-09-15T07:59:03Z</time></trkpt><trkpt lat="44.6965417452" lon="39.2513648327"><ele>48.68</ele><time>2018-09-15T07:59:22Z</time></trkpt><trkpt lat="44.6962347999" lon="39.2522204574"><ele>51.09</ele><time>2018-09-15T07:59:42Z</time></trkpt><trkpt lat="44.6959026251" lon="39.2530942708"><ele>54.45</ele><time>2018-09-15T08:00:04Z</time></trkpt><trkpt lat="44.6956074145" lon="39.2538488097"><ele>54.93</ele><time>2018-09-15T08:00:22Z</time></trkpt><trkpt lat="44.6952579729" lon="39.2547356151"><ele>55.89</ele><time>2018-09-15T08:00:41Z</time></trkpt><trkpt lat="44.6948874928" lon="39.2556971870"><ele>56.86</ele><time>2018-09-15T08:00:59Z</time></trkpt><trkpt lat="44.6943896078" lon="39.2569825519"><ele>57.82</ele><time>2018-09-15T08:01:21Z</time></trkpt><trkpt lat="44.6941679902" lon="39.2575522698"><ele>57.82</ele><time>2018-09-15T08:01:31Z</time></trkpt><trkpt lat="44.6939321235" lon="39.2581944074"><ele>58.78</ele><time>2018-09-15T08:01:42Z</time></trkpt><trkpt lat="44.6939089056" lon="39.2582490575"><ele>58.78</ele><time>2018-09-15T08:01:43Z</time></trkpt><trkpt lat="44.6938868612" lon="39.2583017796"><ele>59.26</ele><time>2018-09-15T08:01:44Z</time></trkpt><trkpt lat="44.6934368368" lon="39.2594612483"><ele>60.22</ele><time>2018-09-15T08:02:04Z</time></trkpt><trkpt lat="44.6929613315" lon="39.2607025243"><ele>59.26</ele><time>2018-09-15T08:02:25Z</time></trkpt><trkpt lat="44.6924608480" lon="39.2620258592"><ele>57.34</ele><time>2018-09-15T08:02:45Z</time></trkpt><trkpt lat="44.6921675652" lon="39.2627950665"><ele>56.86</ele><time>2018-09-15T08:02:57Z</time></trkpt><trkpt lat="44.6917886194" lon="39.2638102826"><ele>57.82</ele><time>2018-09-15T08:03:16Z</time></trkpt><trkpt lat="44.6914654970" lon="39.2648360599"><ele>60.70</ele><time>2018-09-15T08:03:37Z</time></trkpt><trkpt lat="44.6912561171" lon="39.2656867392"><ele>63.58</ele><time>2018-09-15T08:03:56Z</time></trkpt><trkpt lat="44.6911286283" lon="39.2662679404"><ele>65.03</ele><time>2018-09-15T08:04:09Z</time></trkpt><trkpt lat="44.6909513511" lon="39.2671104893"><ele>65.99</ele><time>2018-09-15T08:04:27Z</time></trkpt><trkpt lat="44.6908081882" lon="39.2678049300"><ele>66.47</ele><time>2018-09-15T08:04:42Z</time></trkpt><trkpt lat="44.6906376164" lon="39.2686673440"><ele>68.39</ele><time>2018-09-15T08:05:00Z</time></trkpt><trkpt lat="44.6904601716" lon="39.2695421632"><ele>69.83</ele><time>2018-09-15T08:05:19Z</time></trkpt><trkpt lat="44.6902777813" lon="39.2704588082"><ele>71.27</ele><time>2018-09-15T08:05:39Z</time></trkpt><trkpt lat="44.6901354566" lon="39.2710949946"><ele>74.16</ele><time>2018-09-15T08:05:57Z</time></trkpt><trkpt lat="44.6900030226" lon="39.2717666365"><ele>76.56</ele><time>2018-09-15T08:06:19Z</time></trkpt><trkpt lat="44.6899083070" lon="39.2722196784"><ele>78.48</ele><time>2018-09-15T08:06:35Z</time></trkpt><trkpt lat="44.6897990908" lon="39.2727996223"><ele>81.85</ele><time>2018-09-15T08:06:55Z</time></trkpt><trkpt lat="44.6897037886" lon="39.2732948251"><ele>84.73</ele><time>2018-09-15T08:07:12Z</time></trkpt><trkpt lat="44.6896009427" lon="39.2737963982"><ele>86.66</ele><time>2018-09-15T08:07:29Z</time></trkpt><trkpt lat="44.6894951630" lon="39.2743503582"><ele>90.02</ele><time>2018-09-15T08:07:48Z</time></trkpt><trkpt lat="44.6894176304" lon="39.2748272046"><ele>92.90</ele><time>2018-09-15T08:08:04Z</time></trkpt><trkpt lat="44.6893124375" lon="39.2754299473"><ele>95.31</ele><time>2018-09-15T08:08:23Z</time></trkpt><trkpt lat="44.6892261039" lon="39.2760362942"><ele>97.23</ele><time>2018-09-15T08:08:40Z</time></trkpt><trkpt lat="44.6891284548" lon="39.2767894920"><ele>99.63</ele><time>2018-09-15T08:09:00Z</time></trkpt><trkpt lat="44.6890218370" lon="39.2776850984"><ele>101.56</ele><time>2018-09-15T08:09:20Z</time></trkpt><trkpt lat="44.6889210027" lon="39.2785436567"><ele>103.00</ele><time>2018-09-15T08:09:39Z</time></trkpt><trkpt lat="44.6888375189" lon="39.2794083338"><ele>103.96</ele><time>2018-09-15T08:09:56Z</time></trkpt><trkpt lat="44.6887519397" lon="39.2805369571"><ele>105.88</ele><time>2018-09-15T08:10:17Z</time></trkpt><trkpt lat="44.6886775084" lon="39.2814820167"><ele>105.88</ele><time>2018-09-15T08:10:34Z</time></trkpt><trkpt lat="44.6885904204" lon="39.2824762780"><ele>106.36</ele><time>2018-09-15T08:10:51Z</time></trkpt><trkpt lat="44.6884643566" lon="39.2839228269"><ele>104.44</ele><time>2018-09-15T08:11:12Z</time></trkpt><trkpt lat="44.6883470099" lon="39.2850906774"><ele>101.56</ele><time>2018-09-15T08:11:29Z</time></trkpt><trkpt lat="44.6882595867" lon="39.2864077259"><ele>100.11</ele><time>2018-09-15T08:11:47Z</time></trkpt><trkpt lat="44.6881419048" lon="39.2878456414"><ele>96.75</ele><time>2018-09-15T08:12:03Z</time></trkpt><trkpt lat="44.6879409906" lon="39.2898919992"><ele>89.06</ele><time>2018-09-15T08:12:20Z</time></trkpt><trkpt lat="44.6875998471" lon="39.2920134589"><ele>79.45</ele><time>2018-09-15T08:12:34Z</time></trkpt><trkpt lat="44.6874496434" lon="39.2929489631"><ele>82.81</ele><time>2018-09-15T08:12:43Z</time></trkpt><trkpt lat="44.6873867791" lon="39.2933435831"><ele>86.66</ele><time>2018-09-15T08:12:53Z</time></trkpt><trkpt lat="44.6873154491" lon="39.2938335892"><ele>91.46</ele><time>2018-09-15T08:13:11Z</time></trkpt><trkpt lat="44.6872255951" lon="39.2943394370"><ele>95.31</ele><time>2018-09-15T08:13:29Z</time></trkpt><trkpt lat="44.6871172171" lon="39.2948375735"><ele>99.15</ele><time>2018-09-15T08:13:47Z</time></trkpt><trkpt lat="44.6869489085" lon="39.2953765299"><ele>101.56</ele><time>2018-09-15T08:14:07Z</time></trkpt><trkpt lat="44.6867940109" lon="39.2959228624"><ele>105.40</ele><time>2018-09-15T08:14:27Z</time></trkpt><trkpt lat="44.6866657678" lon="39.2963862978"><ele>108.77</ele><time>2018-09-15T08:14:44Z</time></trkpt><trkpt lat="44.6865324955" lon="39.2968442850"><ele>109.25</ele><time>2018-09-15T08:15:01Z</time></trkpt><trkpt lat="44.6863609180" lon="39.2973934673"><ele>111.17</ele><time>2018-09-15T08:15:20Z</time></trkpt><trkpt lat="44.6861640271" lon="39.2979484331"><ele>112.61</ele><time>2018-09-15T08:15:36Z</time></trkpt><trkpt lat="44.6859443374" lon="39.2985173967"><ele>113.57</ele><time>2018-09-15T08:15:52Z</time></trkpt><trkpt lat="44.6856730990" lon="39.2992013600"><ele>114.53</ele><time>2018-09-15T08:16:11Z</time></trkpt><trkpt lat="44.6852981765" lon="39.3001730740"><ele>116.46</ele><time>2018-09-15T08:16:34Z</time></trkpt><trkpt lat="44.6848979406" lon="39.3011590373"><ele>116.94</ele><time>2018-09-15T08:16:53Z</time></trkpt><trkpt lat="44.6844588127" lon="39.3022624310"><ele>116.94</ele><time>2018-09-15T08:17:11Z</time></trkpt><trkpt lat="44.6840170026" lon="39.3033923954"><ele>115.98</ele><time>2018-09-15T08:17:29Z</time></trkpt><trkpt lat="44.6839706507" lon="39.3035201356"><ele>115.98</ele><time>2018-09-15T08:17:31Z</time></trkpt><trkpt lat="44.6839432418" lon="39.3035892863"><ele>115.50</ele><time>2018-09-15T08:17:32Z</time></trkpt><trkpt lat="44.6834573429" lon="39.3051972706"><ele>112.13</ele><time>2018-09-15T08:17:53Z</time></trkpt><trkpt lat="44.6832052153" lon="39.3068725616"><ele>106.36</ele><time>2018-09-15T08:18:08Z</time></trkpt><trkpt lat="44.6831048839" lon="39.3086102977"><ele>103.00</ele><time>2018-09-15T08:18:23Z</time></trkpt><trkpt lat="44.6831762977" lon="39.3097110093"><ele>103.96</ele><time>2018-09-15T08:18:36Z</time></trkpt><trkpt lat="44.6833387390" lon="39.3106450047"><ele>104.44</ele><time>2018-09-15T08:18:50Z</time></trkpt><trkpt lat="44.6835710853" lon="39.3116344884"><ele>104.44</ele><time>2018-09-15T08:19:07Z</time></trkpt><trkpt lat="44.6838539746" lon="39.3126880936"><ele>104.92</ele><time>2018-09-15T08:19:26Z</time></trkpt><trkpt lat="44.6841956209" lon="39.3135797605"><ele>107.32</ele><time>2018-09-15T08:19:43Z</time></trkpt><trkpt lat="44.6847110242" lon="39.3145726807"><ele>108.77</ele><time>2018-09-15T08:20:01Z</time></trkpt><trkpt lat="44.6853469592" lon="39.3155343365"><ele>108.29</ele><time>2018-09-15T08:20:20Z</time></trkpt><trkpt lat="44.6856666449" lon="39.3159612268"><ele>108.29</ele><time>2018-09-15T08:20:29Z</time></trkpt><trkpt lat="44.6864439826" lon="39.3167684041"><ele>108.29</ele><time>2018-09-15T08:20:47Z</time></trkpt><trkpt lat="44.6874769684" lon="39.3176547065"><ele>108.29</ele><time>2018-09-15T08:21:07Z</time></trkpt><trkpt lat="44.6886692941" lon="39.3186197989"><ele>106.84</ele><time>2018-09-15T08:21:28Z</time></trkpt><trkpt lat="44.6898558363" lon="39.3196174968"><ele>105.88</ele><time>2018-09-15T08:21:50Z</time></trkpt><trkpt lat="44.6907742415" lon="39.3204356544"><ele>104.92</ele><time>2018-09-15T08:22:08Z</time></trkpt><trkpt lat="44.6915575303" lon="39.3214072846"><ele>102.52</ele><time>2018-09-15T08:22:26Z</time></trkpt><trkpt lat="44.6918320376" lon="39.3218499329"><ele>102.04</ele><time>2018-09-15T08:22:33Z</time></trkpt><trkpt lat="44.6924285777" lon="39.3230278417"><ele>102.04</ele><time>2018-09-15T08:22:50Z</time></trkpt><trkpt lat="44.6931842063" lon="39.3246556073"><ele>100.11</ele><time>2018-09-15T08:23:11Z</time></trkpt><trkpt lat="44.6936320513" lon="39.3264251109"><ele>99.15</ele><time>2018-09-15T08:23:31Z</time></trkpt><trkpt lat="44.6939526591" lon="39.3278089631"><ele>99.15</ele><time>2018-09-15T08:23:49Z</time></trkpt><trkpt lat="44.6942865942" lon="39.3292222358"><ele>99.63</ele><time>2018-09-15T08:24:08Z</time></trkpt><trkpt lat="44.6947040968" lon="39.3310174718"><ele>99.15</ele><time>2018-09-15T08:24:31Z</time></trkpt><trkpt lat="44.6950846352" lon="39.3326979596"><ele>99.15</ele><time>2018-09-15T08:24:52Z</time></trkpt><trkpt lat="44.6954601444" lon="39.3343390524"><ele>98.67</ele><time>2018-09-15T08:25:13Z</time></trkpt><trkpt lat="44.6958426107" lon="39.3360153493"><ele>98.67</ele><time>2018-09-15T08:25:34Z</time></trkpt><trkpt lat="44.6962617058" lon="39.3377928995"><ele>97.23</ele><time>2018-09-15T08:25:56Z</time></trkpt><trkpt lat="44.6966431662" lon="39.3394348305"><ele>95.31</ele><time>2018-09-15T08:26:15Z</time></trkpt><trkpt lat="44.6970154904" lon="39.3410330918"><ele>92.90</ele><time>2018-09-15T08:26:33Z</time></trkpt><trkpt lat="44.6974322386" lon="39.3427589256"><ele>89.06</ele><time>2018-09-15T08:26:51Z</time></trkpt><trkpt lat="44.6977557801" lon="39.3441436999"><ele>89.54</ele><time>2018-09-15T08:27:07Z</time></trkpt><trkpt lat="44.6979541797" lon="39.3449868355"><ele>91.46</ele><time>2018-09-15T08:27:20Z</time></trkpt><trkpt lat="44.6982088219" lon="39.3460895587"><ele>91.94</ele><time>2018-09-15T08:27:39Z</time></trkpt><trkpt lat="44.6983183734" lon="39.3465498928"><ele>92.42</ele><time>2018-09-15T08:27:47Z</time></trkpt><trkpt lat="44.6985116601" lon="39.3476837967"><ele>91.94</ele><time>2018-09-15T08:28:05Z</time></trkpt><trkpt lat="44.6984941419" lon="39.3489114940"><ele>90.02</ele><time>2018-09-15T08:28:20Z</time></trkpt><trkpt lat="44.6982717700" lon="39.3505271897"><ele>85.21</ele><time>2018-09-15T08:28:38Z</time></trkpt><trkpt lat="44.6979009546" lon="39.3522047438"><ele>82.81</ele><time>2018-09-15T08:28:56Z</time></trkpt><trkpt lat="44.6974375192" lon="39.3535722513"><ele>82.81</ele><time>2018-09-15T08:29:14Z</time></trkpt><trkpt lat="44.6971781831" lon="39.3543860503"><ele>84.25</ele><time>2018-09-15T08:29:29Z</time></trkpt><trkpt lat="44.6969636064" lon="39.3550214823"><ele>86.66</ele><time>2018-09-15T08:29:45Z</time></trkpt><trkpt lat="44.6967787016" lon="39.3555772025"><ele>89.06</ele><time>2018-09-15T08:30:02Z</time></trkpt><trkpt lat="44.6965963114" lon="39.3561379518"><ele>92.42</ele><time>2018-09-15T08:30:20Z</time></trkpt><trkpt lat="44.6964483708" lon="39.3566060811"><ele>94.35</ele><time>2018-09-15T08:30:35Z</time></trkpt><trkpt lat="44.6962653100" lon="39.3571771402"><ele>96.27</ele><time>2018-09-15T08:30:53Z</time></trkpt><trkpt lat="44.6960699279" lon="39.3578435015"><ele>97.71</ele><time>2018-09-15T08:31:13Z</time></trkpt><trkpt lat="44.6958740428" lon="39.3585619144"><ele>98.19</ele><time>2018-09-15T08:31:30Z</time></trkpt><trkpt lat="44.6956126112" lon="39.3595470395"><ele>98.67</ele><time>2018-09-15T08:31:50Z</time></trkpt><trkpt lat="44.6953536943" lon="39.3604839686"><ele>98.67</ele><time>2018-09-15T08:32:06Z</time></trkpt><trkpt lat="44.6950544603" lon="39.3616325408"><ele>97.23</ele><time>2018-09-15T08:32:23Z</time></trkpt><trkpt lat="44.6947337687" lon="39.3629477452"><ele>95.31</ele><time>2018-09-15T08:32:40Z</time></trkpt><trkpt lat="44.6944346186" lon="39.3642108142"><ele>91.94</ele><time>2018-09-15T08:32:56Z</time></trkpt><trkpt lat="44.6943114884" lon="39.3656849395"><ele>89.54</ele><time>2018-09-15T08:33:13Z</time></trkpt><trkpt lat="44.6944621950" lon="39.3673410360"><ele>84.25</ele><time>2018-09-15T08:33:29Z</time></trkpt><trkpt lat="44.6943963133" lon="39.3688755110"><ele>83.29</ele><time>2018-09-15T08:33:43Z</time></trkpt><trkpt lat="44.6942093130" lon="39.3702345528"><ele>84.73</ele><time>2018-09-15T08:33:59Z</time></trkpt><trkpt lat="44.6940477099" lon="39.3713624217"><ele>85.21</ele><time>2018-09-15T08:34:16Z</time></trkpt><trkpt lat="44.6939470433" lon="39.3720974308"><ele>88.10</ele><time>2018-09-15T08:34:33Z</time></trkpt><trkpt lat="44.6938820835" lon="39.3725764565"><ele>90.50</ele><time>2018-09-15T08:34:49Z</time></trkpt><trkpt lat="44.6938036289" lon="39.3731189333"><ele>92.42</ele><time>2018-09-15T08:35:08Z</time></trkpt><trkpt lat="44.6937364899" lon="39.3734957837"><ele>95.31</ele><time>2018-09-15T08:35:22Z</time></trkpt><trkpt lat="44.6935963444" lon="39.3740177248"><ele>101.08</ele><time>2018-09-15T08:35:42Z</time></trkpt><trkpt lat="44.6934612282" lon="39.3743978441"><ele>106.36</ele><time>2018-09-15T08:35:57Z</time></trkpt><trkpt lat="44.6933053248" lon="39.3747887760"><ele>108.77</ele><time>2018-09-15T08:36:12Z</time></trkpt><trkpt lat="44.6931185760" lon="39.3752836436"><ele>110.69</ele><time>2018-09-15T08:36:29Z</time></trkpt><trkpt lat="44.6929194219" lon="39.3757990468"><ele>111.65</ele><time>2018-09-15T08:36:46Z</time></trkpt><trkpt lat="44.6927097067" lon="39.3763298728"><ele>112.61</ele><time>2018-09-15T08:37:03Z</time></trkpt><trkpt lat="44.6924783662" lon="39.3768988363"><ele>113.57</ele><time>2018-09-15T08:37:20Z</time></trkpt><trkpt lat="44.6921953931" lon="39.3776252121"><ele>114.05</ele><time>2018-09-15T08:37:38Z</time></trkpt><trkpt lat="44.6918491367" lon="39.3785380013"><ele>114.53</ele><time>2018-09-15T08:37:58Z</time></trkpt><trkpt lat="44.6915436164" lon="39.3793497887"><ele>115.50</ele><time>2018-09-15T08:38:13Z</time></trkpt><trkpt lat="44.6912268642" lon="39.3802064192"><ele>115.01</ele><time>2018-09-15T08:38:28Z</time></trkpt><trkpt lat="44.6910901554" lon="39.3806097563"><ele>115.50</ele><time>2018-09-15T08:38:35Z</time></trkpt><trkpt lat="44.6907076053" lon="39.3816373777"><ele>116.46</ele><time>2018-09-15T08:38:51Z</time></trkpt><trkpt lat="44.6903418191" lon="39.3826541863"><ele>120.30</ele><time>2018-09-15T08:39:08Z</time></trkpt><trkpt lat="44.6900420822" lon="39.3834894430"><ele>124.63</ele><time>2018-09-15T08:39:24Z</time></trkpt><trkpt lat="44.6897802316" lon="39.3842569739"><ele>124.15</ele><time>2018-09-15T08:39:38Z</time></trkpt><trkpt lat="44.6894800756" lon="39.3851395883"><ele>124.63</ele><time>2018-09-15T08:39:53Z</time></trkpt><trkpt lat="44.6891346574" lon="39.3861392140"><ele>127.03</ele><time>2018-09-15T08:40:11Z</time></trkpt><trkpt lat="44.6889070049" lon="39.3867716286"><ele>125.11</ele><time>2018-09-15T08:40:23Z</time></trkpt><trkpt lat="44.6884003188" lon="39.3876405805"><ele>123.19</ele><time>2018-09-15T08:40:41Z</time></trkpt><trkpt lat="44.6877766214" lon="39.3884505238"><ele>122.22</ele><time>2018-09-15T08:40:59Z</time></trkpt><trkpt lat="44.6872464661" lon="39.3891043123"><ele>120.30</ele><time>2018-09-15T08:41:14Z</time></trkpt><trkpt lat="44.6866958588" lon="39.3897865154"><ele>119.34</ele><time>2018-09-15T08:41:29Z</time></trkpt><trkpt lat="44.6863782685" lon="39.3901873380"><ele>119.82</ele><time>2018-09-15T08:41:38Z</time></trkpt><trkpt lat="44.6863455791" lon="39.3902219553"><ele>119.82</ele><time>2018-09-15T08:41:39Z</time></trkpt><trkpt lat="44.6863112133" lon="39.3902553990"><ele>119.82</ele><time>2018-09-15T08:41:40Z</time></trkpt><trkpt lat="44.6862783562" lon="39.3902946264"><ele>120.30</ele><time>2018-09-15T08:41:41Z</time></trkpt><trkpt lat="44.6862462536" lon="39.3903390504"><ele>119.82</ele><time>2018-09-15T08:41:42Z</time></trkpt><trkpt lat="44.6862154920" lon="39.3903824687"><ele>119.82</ele><time>2018-09-15T08:41:43Z</time></trkpt><trkpt lat="44.6857665572" lon="39.3910806812"><ele>120.30</ele><time>2018-09-15T08:41:58Z</time></trkpt><trkpt lat="44.6852989309" lon="39.3922450952"><ele>116.94</ele><time>2018-09-15T08:42:15Z</time></trkpt><trkpt lat="44.6850903891" lon="39.3935567793"><ele>115.98</ele><time>2018-09-15T08:42:30Z</time></trkpt><trkpt lat="44.6849729586" lon="39.3947890867"><ele>113.57</ele><time>2018-09-15T08:42:44Z</time></trkpt><trkpt lat="44.6850944962" lon="39.3959072325"><ele>111.65</ele><time>2018-09-15T08:42:58Z</time></trkpt><trkpt lat="44.6853046305" lon="39.3974023964"><ele>108.77</ele><time>2018-09-15T08:43:15Z</time></trkpt><trkpt lat="44.6855296846" lon="39.3990340177"><ele>107.81</ele><time>2018-09-15T08:43:35Z</time></trkpt><trkpt lat="44.6856606938" lon="39.4004742801"><ele>107.81</ele><time>2018-09-15T08:43:54Z</time></trkpt><trkpt lat="44.6857211273" lon="39.4019805919"><ele>107.32</ele><time>2018-09-15T08:44:15Z</time></trkpt><trkpt lat="44.6857523080" lon="39.4031680562"><ele>106.36</ele><time>2018-09-15T08:44:30Z</time></trkpt><trkpt lat="44.6857395675" lon="39.4047580194"><ele>103.96</ele><time>2018-09-15T08:44:48Z</time></trkpt><trkpt lat="44.6857232228" lon="39.4064188097"><ele>104.44</ele><time>2018-09-15T08:45:09Z</time></trkpt><trkpt lat="44.6856900305" lon="39.4077617582"><ele>103.48</ele><time>2018-09-15T08:45:26Z</time></trkpt><trkpt lat="44.6855751984" lon="39.4093914516"><ele>102.04</ele><time>2018-09-15T08:45:44Z</time></trkpt><trkpt lat="44.6854753699" lon="39.4107696041"><ele>103.00</ele><time>2018-09-15T08:46:01Z</time></trkpt><trkpt lat="44.6854558401" lon="39.4118332677"><ele>105.88</ele><time>2018-09-15T08:46:20Z</time></trkpt><trkpt lat="44.6854663175" lon="39.4129284471"><ele>105.40</ele><time>2018-09-15T08:46:38Z</time></trkpt><trkpt lat="44.6854930557" lon="39.4142271392"><ele>103.96</ele><time>2018-09-15T08:46:55Z</time></trkpt><trkpt lat="44.6855565906" lon="39.4157506339"><ele>101.08</ele><time>2018-09-15T08:47:11Z</time></trkpt><trkpt lat="44.6857177746" lon="39.4173884578"><ele>99.15</ele><time>2018-09-15T08:47:27Z</time></trkpt><trkpt lat="44.6858074609" lon="39.4187252875"><ele>100.11</ele><time>2018-09-15T08:47:43Z</time></trkpt><trkpt lat="44.6856503841" lon="39.4197715167"><ele>100.60</ele><time>2018-09-15T08:48:00Z</time></trkpt><trkpt lat="44.6855058800" lon="39.4206693862"><ele>103.00</ele><time>2018-09-15T08:48:17Z</time></trkpt><trkpt lat="44.6853448637" lon="39.4216811657"><ele>104.92</ele><time>2018-09-15T08:48:36Z</time></trkpt><trkpt lat="44.6852230746" lon="39.4224569947"><ele>106.84</ele><time>2018-09-15T08:48:52Z</time></trkpt><trkpt lat="44.6851069015" lon="39.4231174048"><ele>108.29</ele><time>2018-09-15T08:49:06Z</time></trkpt><trkpt lat="44.6849469747" lon="39.4240814913"><ele>110.21</ele><time>2018-09-15T08:49:26Z</time></trkpt><trkpt lat="44.6848509181" lon="39.4249910954"><ele>112.61</ele><time>2018-09-15T08:49:45Z</time></trkpt><trkpt lat="44.6848784946" lon="39.4251555484"><ele>112.13</ele><time>2018-09-15T08:49:48Z</time></trkpt><trkpt lat="44.6848961804" lon="39.4252115395"><ele>112.13</ele><time>2018-09-15T08:49:49Z</time></trkpt><trkpt lat="44.6849582903" lon="39.4253811054"><ele>111.65</ele><time>2018-09-15T08:49:52Z</time></trkpt><trkpt lat="44.6849830169" lon="39.4254284631"><ele>111.65</ele><time>2018-09-15T08:49:53Z</time></trkpt><trkpt lat="44.6850083303" lon="39.4254772458"><ele>111.65</ele><time>2018-09-15T08:49:54Z</time></trkpt><trkpt lat="44.6854480449" lon="39.4262660667"><ele>112.61</ele><time>2018-09-15T08:50:11Z</time></trkpt><trkpt lat="44.6856150124" lon="39.4265127461"><ele>112.13</ele><time>2018-09-15T08:50:17Z</time></trkpt><trkpt lat="44.6856428403" lon="39.4265578408"><ele>112.13</ele><time>2018-09-15T08:50:18Z</time></trkpt><trkpt lat="44.6856734343" lon="39.4266040251"><ele>111.65</ele><time>2018-09-15T08:50:19Z</time></trkpt><trkpt lat="44.6857011784" lon="39.4266499579"><ele>111.65</ele><time>2018-09-15T08:50:20Z</time></trkpt><trkpt lat="44.6857254021" lon="39.4267004170"><ele>111.65</ele><time>2018-09-15T08:50:21Z</time></trkpt><trkpt lat="44.6857460216" lon="39.4267577492"><ele>111.65</ele><time>2018-09-15T08:50:22Z</time></trkpt><trkpt lat="44.6857615281" lon="39.4268164225"><ele>111.17</ele><time>2018-09-15T08:50:23Z</time></trkpt><trkpt lat="44.6857727598" lon="39.4268809631"><ele>111.17</ele><time>2018-09-15T08:50:24Z</time></trkpt><trkpt lat="44.6857751068" lon="39.4269522093"><ele>111.17</ele><time>2018-09-15T08:50:25Z</time></trkpt><trkpt lat="44.6857658029" lon="39.4270287361"><ele>110.69</ele><time>2018-09-15T08:50:26Z</time></trkpt><trkpt lat="44.6857509669" lon="39.4270756748"><ele>110.69</ele><time>2018-09-15T08:50:27Z</time></trkpt><trkpt lat="44.6857266594" lon="39.4271377847"><ele>110.21</ele><time>2018-09-15T08:50:28Z</time></trkpt><trkpt lat="44.6857000887" lon="39.4271947816"><ele>110.21</ele><time>2018-09-15T08:50:29Z</time></trkpt><trkpt lat="44.6856711712" lon="39.4272485934"><ele>110.69</ele><time>2018-09-15T08:50:30Z</time></trkpt><trkpt lat="44.6856373921" lon="39.4272984657"><ele>110.69</ele><time>2018-09-15T08:50:31Z</time></trkpt><trkpt lat="44.6856047027" lon="39.4273462426"><ele>110.69</ele><time>2018-09-15T08:50:32Z</time></trkpt><trkpt lat="44.6849474777" lon="39.4282728620"><ele>112.13</ele><time>2018-09-15T08:50:51Z</time></trkpt><trkpt lat="44.6843757480" lon="39.4290708192"><ele>113.57</ele><time>2018-09-15T08:51:08Z</time></trkpt><trkpt lat="44.6837450936" lon="39.4299775735"><ele>114.05</ele><time>2018-09-15T08:51:26Z</time></trkpt><trkpt lat="44.6831230726" lon="39.4309783727"><ele>111.65</ele><time>2018-09-15T08:51:43Z</time></trkpt><trkpt lat="44.6830965020" lon="39.4310683943"><ele>111.17</ele><time>2018-09-15T08:51:44Z</time></trkpt><trkpt lat="44.6830805764" lon="39.4311616011"><ele>111.17</ele><time>2018-09-15T08:51:45Z</time></trkpt><trkpt lat="44.6830742899" lon="39.4312590826"><ele>110.69</ele><time>2018-09-15T08:51:46Z</time></trkpt><trkpt lat="44.6830799896" lon="39.4313674606"><ele>110.21</ele><time>2018-09-15T08:51:47Z</time></trkpt><trkpt lat="44.6830939036" lon="39.4314714801"><ele>110.21</ele><time>2018-09-15T08:51:48Z</time></trkpt><trkpt lat="44.6831167862" lon="39.4315802772"><ele>109.73</ele><time>2018-09-15T08:51:49Z</time></trkpt><trkpt lat="44.6831485536" lon="39.4316837937"><ele>109.25</ele><time>2018-09-15T08:51:50Z</time></trkpt><trkpt lat="44.6831858531" lon="39.4317855500"><ele>109.25</ele><time>2018-09-15T08:51:51Z</time></trkpt><trkpt lat="44.6832296066" lon="39.4318927545"><ele>108.77</ele><time>2018-09-15T08:51:52Z</time></trkpt><trkpt lat="44.6839592513" lon="39.4333084580"><ele>105.40</ele><time>2018-09-15T08:52:07Z</time></trkpt><trkpt lat="44.6845436376" lon="39.4346838444"><ele>103.48</ele><time>2018-09-15T08:52:22Z</time></trkpt><trkpt lat="44.6846152190" lon="39.4359544571"><ele>103.00</ele><time>2018-09-15T08:52:35Z</time></trkpt><trkpt lat="44.6845453978" lon="39.4373005070"><ele>102.04</ele><time>2018-09-15T08:52:51Z</time></trkpt><trkpt lat="44.6844821144" lon="39.4375234656"><ele>102.04</ele><time>2018-09-15T08:52:54Z</time></trkpt><trkpt lat="44.6844550408" lon="39.4375856593"><ele>102.04</ele><time>2018-09-15T08:52:55Z</time></trkpt><trkpt lat="44.6843891591" lon="39.4377138186"><ele>102.04</ele><time>2018-09-15T08:52:57Z</time></trkpt><trkpt lat="44.6838492807" lon="39.4382422976"><ele>102.52</ele><time>2018-09-15T08:53:10Z</time></trkpt><trkpt lat="44.6834187862" lon="39.4384670164"><ele>103.48</ele><time>2018-09-15T08:53:20Z</time></trkpt><trkpt lat="44.6826264448" lon="39.4388281088"><ele>105.40</ele><time>2018-09-15T08:53:38Z</time></trkpt><trkpt lat="44.6817807108" lon="39.4390529115"><ele>103.96</ele><time>2018-09-15T08:53:56Z</time></trkpt><trkpt lat="44.6812813170" lon="39.4391322881"><ele>103.96</ele><time>2018-09-15T08:54:07Z</time></trkpt><trkpt lat="44.6804780792" lon="39.4393328670"><ele>103.96</ele><time>2018-09-15T08:54:26Z</time></trkpt><trkpt lat="44.6796725783" lon="39.4398787804"><ele>105.40</ele><time>2018-09-15T08:54:45Z</time></trkpt><trkpt lat="44.6789737791" lon="39.4403599016"><ele>107.32</ele><time>2018-09-15T08:55:02Z</time></trkpt><trkpt lat="44.6783117764" lon="39.4408167992"><ele>106.84</ele><time>2018-09-15T08:55:20Z</time></trkpt><trkpt lat="44.6776378714" lon="39.4412949029"><ele>107.32</ele><time>2018-09-15T08:55:37Z</time></trkpt><trkpt lat="44.6769296005" lon="39.4417867530"><ele>108.29</ele><time>2018-09-15T08:55:55Z</time></trkpt><trkpt lat="44.6766213141" lon="39.4419967197"><ele>109.25</ele><time>2018-09-15T08:56:03Z</time></trkpt><trkpt lat="44.6772557404" lon="39.4415566698"><ele>85.69</ele><time>2018-09-15T08:58:45Z</time></trkpt><trkpt lat="44.6759303100" lon="39.4420981407"><ele>90.50</ele><time>2018-09-15T08:59:01Z</time></trkpt><trkpt lat="44.6759793442" lon="39.4422211032"><ele>97.71</ele><time>2018-09-15T08:59:21Z</time></trkpt><trkpt lat="44.6759935096" lon="39.4423181657"><ele>91.46</ele><time>2018-09-15T08:59:42Z</time></trkpt><trkpt lat="44.6759908274" lon="39.4423894119"><ele>93.87</ele><time>2018-09-15T08:59:56Z</time></trkpt><trkpt lat="44.6759946831" lon="39.4424110372"><ele>94.35</ele><time>2018-09-15T09:00:06Z</time></trkpt><trkpt lat="44.6759299748" lon="39.4424556289"><ele>95.31</ele><time>2018-09-15T09:00:11Z</time></trkpt><trkpt lat="44.6759085171" lon="39.4424710516"><ele>95.79</ele><time>2018-09-15T09:00:12Z</time></trkpt><trkpt lat="44.6758903284" lon="39.4424839597"><ele>95.79</ele><time>2018-09-15T09:00:13Z</time></trkpt><trkpt lat="44.6754239593" lon="39.4428105187"><ele>96.75</ele><time>2018-09-15T09:00:27Z</time></trkpt><trkpt lat="44.6749824006" lon="39.4431444537"><ele>98.19</ele><time>2018-09-15T09:00:41Z</time></trkpt><trkpt lat="44.6744822524" lon="39.4438815583"><ele>98.19</ele><time>2018-09-15T09:00:59Z</time></trkpt><trkpt lat="44.6743175481" lon="39.4444967061"><ele>99.63</ele><time>2018-09-15T09:01:12Z</time></trkpt><trkpt lat="44.6742130257" lon="39.4452573638"><ele>102.04</ele><time>2018-09-15T09:01:30Z</time></trkpt><trkpt lat="44.6741204057" lon="39.4460346177"><ele>104.92</ele><time>2018-09-15T09:01:49Z</time></trkpt><trkpt lat="44.6740479860" lon="39.4466148969"><ele>106.84</ele><time>2018-09-15T09:02:06Z</time></trkpt><trkpt lat="44.6740043163" lon="39.4470280409"><ele>108.29</ele><time>2018-09-15T09:02:19Z</time></trkpt><trkpt lat="44.6740011312" lon="39.4470841996"><ele>108.77</ele><time>2018-09-15T09:02:21Z</time></trkpt><trkpt lat="44.6739950124" lon="39.4471174758"><ele>108.77</ele><time>2018-09-15T09:02:22Z</time></trkpt><trkpt lat="44.6739902347" lon="39.4471437111"><ele>109.25</ele><time>2018-09-15T09:02:23Z</time></trkpt><trkpt lat="44.6739858761" lon="39.4471795019"><ele>109.25</ele><time>2018-09-15T09:02:24Z</time></trkpt><trkpt lat="44.6739851218" lon="39.4472064916"><ele>109.25</ele><time>2018-09-15T09:02:25Z</time></trkpt><trkpt lat="44.6739820205" lon="39.4472371694"><ele>109.73</ele><time>2018-09-15T09:02:26Z</time></trkpt><trkpt lat="44.6739769075" lon="39.4472700264"><ele>109.73</ele><time>2018-09-15T09:02:27Z</time></trkpt><trkpt lat="44.6739167254" lon="39.4477899559"><ele>112.61</ele><time>2018-09-15T09:02:44Z</time></trkpt><trkpt lat="44.6738761570" lon="39.4483755995"><ele>115.50</ele><time>2018-09-15T09:03:02Z</time></trkpt><trkpt lat="44.6738619078" lon="39.4489668589"><ele>118.38</ele><time>2018-09-15T09:03:20Z</time></trkpt><trkpt lat="44.6738602314" lon="39.4496002793"><ele>119.82</ele><time>2018-09-15T09:03:39Z</time></trkpt><trkpt lat="44.6738586389" lon="39.4500274211"><ele>120.78</ele><time>2018-09-15T09:03:49Z</time></trkpt><trkpt lat="44.6738781687" lon="39.4506490231"><ele>123.67</ele><time>2018-09-15T09:04:06Z</time></trkpt><trkpt lat="44.6738592256" lon="39.4513264485"><ele>124.63</ele><time>2018-09-15T09:04:22Z</time></trkpt><trkpt lat="44.6737668570" lon="39.4521506410"><ele>130.88</ele><time>2018-09-15T09:04:39Z</time></trkpt><trkpt lat="44.6736454032" lon="39.4528877456"><ele>134.72</ele><time>2018-09-15T09:04:53Z</time></trkpt><trkpt lat="44.6736344229" lon="39.4529453292"><ele>135.20</ele><time>2018-09-15T09:04:54Z</time></trkpt><trkpt lat="44.6736138035" lon="39.4530578982"><ele>135.20</ele><time>2018-09-15T09:04:56Z</time></trkpt><trkpt lat="44.6736009791" lon="39.4531179126"><ele>135.20</ele><time>2018-09-15T09:04:57Z</time></trkpt><trkpt lat="44.6735586505" lon="39.4533646759"><ele>134.72</ele><time>2018-09-15T09:05:01Z</time></trkpt><trkpt lat="44.6734917630" lon="39.4536829367"><ele>134.72</ele><time>2018-09-15T09:05:06Z</time></trkpt><trkpt lat="44.6733394638" lon="39.4541688357"><ele>134.72</ele><time>2018-09-15T09:05:13Z</time></trkpt><trkpt lat="44.6728729270" lon="39.4552430604"><ele>133.76</ele><time>2018-09-15T09:05:28Z</time></trkpt><trkpt lat="44.6723469626" lon="39.4563399162"><ele>133.76</ele><time>2018-09-15T09:05:43Z</time></trkpt><trkpt lat="44.6718605608" lon="39.4573526178"><ele>132.80</ele><time>2018-09-15T09:05:57Z</time></trkpt><trkpt lat="44.6714702994" lon="39.4581414387"><ele>136.16</ele><time>2018-09-15T09:06:12Z</time></trkpt><trkpt lat="44.6712662838" lon="39.4585808180"><ele>140.97</ele><time>2018-09-15T09:06:26Z</time></trkpt><trkpt lat="44.6709813830" lon="39.4591647852"><ele>145.78</ele><time>2018-09-15T09:06:43Z</time></trkpt><trkpt lat="44.6706953924" lon="39.4597632531"><ele>149.14</ele><time>2018-09-15T09:06:59Z</time></trkpt><trkpt lat="44.6704079770" lon="39.4603397604"><ele>152.51</ele><time>2018-09-15T09:07:15Z</time></trkpt><trkpt lat="44.6700396761" lon="39.4610956404"><ele>155.39</ele><time>2018-09-15T09:07:35Z</time></trkpt><trkpt lat="44.6697755624" lon="39.4616547134"><ele>157.79</ele><time>2018-09-15T09:07:50Z</time></trkpt><trkpt lat="44.6694251988" lon="39.4623727910"><ele>158.27</ele><time>2018-09-15T09:08:07Z</time></trkpt><trkpt lat="44.6690434031" lon="39.4632005040"><ele>158.27</ele><time>2018-09-15T09:08:25Z</time></trkpt><trkpt lat="44.6688310057" lon="39.4635743368"><ele>157.79</ele><time>2018-09-15T09:08:37Z</time></trkpt><trkpt lat="44.6688830573" lon="39.4636149891"><ele>153.47</ele><time>2018-09-15T09:08:58Z</time></trkpt><trkpt lat="44.6688828059" lon="39.4635894243"><ele>153.47</ele><time>2018-09-15T09:09:47Z</time></trkpt><trkpt lat="44.6688498650" lon="39.4636313338"><ele>152.03</ele><time>2018-09-15T09:10:16Z</time></trkpt><trkpt lat="44.6688326821" lon="39.4636827987"><ele>152.51</ele><time>2018-09-15T09:10:30Z</time></trkpt><trkpt lat="44.6686274931" lon="39.4640791789"><ele>154.43</ele><time>2018-09-15T09:10:42Z</time></trkpt><trkpt lat="44.6684649680" lon="39.4644252677"><ele>154.43</ele><time>2018-09-15T09:10:49Z</time></trkpt><trkpt lat="44.6684399061" lon="39.4644823484"><ele>154.43</ele><time>2018-09-15T09:10:50Z</time></trkpt><trkpt lat="44.6680162847" lon="39.4653593469"><ele>153.95</ele><time>2018-09-15T09:11:05Z</time></trkpt><trkpt lat="44.6675699484" lon="39.4662837870"><ele>152.99</ele><time>2018-09-15T09:11:20Z</time></trkpt><trkpt lat="44.6671718080" lon="39.4671234861"><ele>151.06</ele><time>2018-09-15T09:11:34Z</time></trkpt><trkpt lat="44.6666807123" lon="39.4681703858"><ele>150.58</ele><time>2018-09-15T09:11:51Z</time></trkpt><trkpt lat="44.6662322804" lon="39.4691063091"><ele>150.10</ele><time>2018-09-15T09:12:05Z</time></trkpt><trkpt lat="44.6658302005" lon="39.4703498483"><ele>143.85</ele><time>2018-09-15T09:12:18Z</time></trkpt><trkpt lat="44.6658926457" lon="39.4718283322"><ele>131.36</ele><time>2018-09-15T09:12:27Z</time></trkpt><trkpt lat="44.6658622194" lon="39.4732371625"><ele>125.59</ele><time>2018-09-15T09:12:36Z</time></trkpt><trkpt lat="44.6658041328" lon="39.4734523259"><ele>126.07</ele><time>2018-09-15T09:12:38Z</time></trkpt><trkpt lat="44.6654920746" lon="39.4740946312"><ele>130.40</ele><time>2018-09-15T09:12:48Z</time></trkpt><trkpt lat="44.6654639952" lon="39.4741399772"><ele>130.40</ele><time>2018-09-15T09:12:49Z</time></trkpt><trkpt lat="44.6654341556" lon="39.4741796236"><ele>131.36</ele><time>2018-09-15T09:12:50Z</time></trkpt><trkpt lat="44.6651710477" lon="39.4746052567"><ele>135.68</ele><time>2018-09-15T09:13:02Z</time></trkpt><trkpt lat="44.6649775933" lon="39.4749341626"><ele>139.05</ele><time>2018-09-15T09:13:14Z</time></trkpt><trkpt lat="44.6647794452" lon="39.4752332289"><ele>143.37</ele><time>2018-09-15T09:13:27Z</time></trkpt><trkpt lat="44.6645626891" lon="39.4755237456"><ele>151.54</ele><time>2018-09-15T09:13:41Z</time></trkpt><trkpt lat="44.6643238887" lon="39.4758400787"><ele>156.35</ele><time>2018-09-15T09:13:56Z</time></trkpt><trkpt lat="44.6640736889" lon="39.4761287514"><ele>161.64</ele><time>2018-09-15T09:14:09Z</time></trkpt><trkpt lat="44.6637124289" lon="39.4764605071"><ele>164.52</ele><time>2018-09-15T09:14:24Z</time></trkpt><trkpt lat="44.6632086765" lon="39.4766993076"><ele>157.79</ele><time>2018-09-15T09:14:42Z</time></trkpt><trkpt lat="44.6626820415" lon="39.4767802767"><ele>151.54</ele><time>2018-09-15T09:14:59Z</time></trkpt><trkpt lat="44.6620751917" lon="39.4768703822"><ele>151.06</ele><time>2018-09-15T09:15:19Z</time></trkpt><trkpt lat="44.6615011990" lon="39.4769414607"><ele>153.95</ele><time>2018-09-15T09:15:37Z</time></trkpt><trkpt lat="44.6608415432" lon="39.4770231005"><ele>155.87</ele><time>2018-09-15T09:15:55Z</time></trkpt><trkpt lat="44.6602564864" lon="39.4770883955"><ele>159.24</ele><time>2018-09-15T09:16:10Z</time></trkpt><trkpt lat="44.6597391553" lon="39.4771503378"><ele>162.12</ele><time>2018-09-15T09:16:23Z</time></trkpt><trkpt lat="44.6590930782" lon="39.4772338215"><ele>165.48</ele><time>2018-09-15T09:16:38Z</time></trkpt><trkpt lat="44.6590480674" lon="39.4772423711"><ele>165.48</ele><time>2018-09-15T09:16:39Z</time></trkpt><trkpt lat="44.6582255512" lon="39.4773542695"><ele>165.96</ele><time>2018-09-15T09:16:57Z</time></trkpt><trkpt lat="44.6574260015" lon="39.4774710294"><ele>165.00</ele><time>2018-09-15T09:17:14Z</time></trkpt><trkpt lat="44.6568510029" lon="39.4775348157"><ele>166.45</ele><time>2018-09-15T09:17:29Z</time></trkpt><trkpt lat="44.6568542719" lon="39.4774987735"><ele>165.48</ele><time>2018-09-15T09:17:48Z</time></trkpt><trkpt lat="44.6567496657" lon="39.4775452092"><ele>165.48</ele><time>2018-09-15T09:18:04Z</time></trkpt><trkpt lat="44.6567097679" lon="39.4775569439"><ele>165.48</ele><time>2018-09-15T09:18:06Z</time></trkpt><trkpt lat="44.6566883102" lon="39.4775686786"><ele>165.96</ele><time>2018-09-15T09:18:07Z</time></trkpt><trkpt lat="44.6566645894" lon="39.4775770605"><ele>165.96</ele><time>2018-09-15T09:18:08Z</time></trkpt><trkpt lat="44.6566390246" lon="39.4775867835"><ele>165.96</ele><time>2018-09-15T09:18:09Z</time></trkpt><trkpt lat="44.6566093527" lon="39.4775986858"><ele>166.45</ele><time>2018-09-15T09:18:10Z</time></trkpt><trkpt lat="44.6565781720" lon="39.4776117615"><ele>165.96</ele><time>2018-09-15T09:18:11Z</time></trkpt><trkpt lat="44.6561563108" lon="39.4779182039"><ele>167.41</ele><time>2018-09-15T09:18:25Z</time></trkpt><trkpt lat="44.6558239684" lon="39.4783235528"><ele>173.66</ele><time>2018-09-15T09:18:38Z</time></trkpt><trkpt lat="44.6555124968" lon="39.4789095316"><ele>177.98</ele><time>2018-09-15T09:18:51Z</time></trkpt><trkpt lat="44.6554492973" lon="39.4791416265"><ele>177.50</ele><time>2018-09-15T09:18:55Z</time></trkpt><trkpt lat="44.6554386523" lon="39.4792031497"><ele>177.50</ele><time>2018-09-15T09:18:56Z</time></trkpt><trkpt lat="44.6554033644" lon="39.4794685207"><ele>175.58</ele><time>2018-09-15T09:19:00Z</time></trkpt><trkpt lat="44.6553415060" lon="39.4803502969"><ele>170.29</ele><time>2018-09-15T09:19:12Z</time></trkpt><trkpt lat="44.6553121693" lon="39.4805667177"><ele>169.33</ele><time>2018-09-15T09:19:15Z</time></trkpt><trkpt lat="44.6552215610" lon="39.4819163717"><ele>164.04</ele><time>2018-09-15T09:19:31Z</time></trkpt><trkpt lat="44.6550581977" lon="39.4832360186"><ele>160.68</ele><time>2018-09-15T09:19:47Z</time></trkpt><trkpt lat="44.6550227422" lon="39.4833531976"><ele>161.16</ele><time>2018-09-15T09:19:49Z</time></trkpt><trkpt lat="44.6547208261" lon="39.4839810021"><ele>160.20</ele><time>2018-09-15T09:20:05Z</time></trkpt><trkpt lat="44.6544719674" lon="39.4844487961"><ele>161.16</ele><time>2018-09-15T09:20:19Z</time></trkpt><trkpt lat="44.6541267168" lon="39.4850556459"><ele>163.08</ele><time>2018-09-15T09:20:36Z</time></trkpt><trkpt lat="44.6537037659" lon="39.4857945107"><ele>163.56</ele><time>2018-09-15T09:20:53Z</time></trkpt><trkpt lat="44.6536736749" lon="39.4858402759"><ele>163.56</ele><time>2018-09-15T09:20:54Z</time></trkpt><trkpt lat="44.6530071460" lon="39.4867476169"><ele>162.12</ele><time>2018-09-15T09:21:12Z</time></trkpt><trkpt lat="44.6522272937" lon="39.4877048302"><ele>158.27</ele><time>2018-09-15T09:21:30Z</time></trkpt><trkpt lat="44.6513963118" lon="39.4884987641"><ele>154.91</ele><time>2018-09-15T09:21:44Z</time></trkpt><trkpt lat="44.6502470691" lon="39.4891480263"><ele>148.18</ele><time>2018-09-15T09:21:59Z</time></trkpt><trkpt lat="44.6491446812" lon="39.4896676205"><ele>144.82</ele><time>2018-09-15T09:22:12Z</time></trkpt><trkpt lat="44.6485580318" lon="39.4897104520"><ele>149.14</ele><time>2018-09-15T09:22:22Z</time></trkpt><trkpt lat="44.6482281201" lon="39.4896704704"><ele>153.47</ele><time>2018-09-15T09:22:34Z</time></trkpt><trkpt lat="44.6478468273" lon="39.4896656927"><ele>156.35</ele><time>2018-09-15T09:22:48Z</time></trkpt><trkpt lat="44.6474562306" lon="39.4898424670"><ele>163.56</ele><time>2018-09-15T09:23:04Z</time></trkpt><trkpt lat="44.6471493691" lon="39.4900526851"><ele>170.29</ele><time>2018-09-15T09:23:17Z</time></trkpt><trkpt lat="44.6468022745" lon="39.4902669266"><ele>177.98</ele><time>2018-09-15T09:23:31Z</time></trkpt><trkpt lat="44.6464393381" lon="39.4904869515"><ele>182.79</ele><time>2018-09-15T09:23:46Z</time></trkpt><trkpt lat="44.6460738871" lon="39.4907282665"><ele>186.63</ele><time>2018-09-15T09:23:59Z</time></trkpt><trkpt lat="44.6456164867" lon="39.4910687394"><ele>185.19</ele><time>2018-09-15T09:24:13Z</time></trkpt><trkpt lat="44.6451301686" lon="39.4914158341"><ele>180.38</ele><time>2018-09-15T09:24:27Z</time></trkpt><trkpt lat="44.6444740333" lon="39.4918435626"><ele>178.46</ele><time>2018-09-15T09:24:44Z</time></trkpt><trkpt lat="44.6441554371" lon="39.4920247793"><ele>176.54</ele><time>2018-09-15T09:24:53Z</time></trkpt><trkpt lat="44.6441100072" lon="39.4920360949"><ele>176.06</ele><time>2018-09-15T09:24:58Z</time></trkpt><trkpt lat="44.6440974344" lon="39.4920489192"><ele>176.06</ele><time>2018-09-15T09:24:59Z</time></trkpt><trkpt lat="44.6437412873" lon="39.4923347421"><ele>177.50</ele><time>2018-09-15T09:25:13Z</time></trkpt><trkpt lat="44.6432832163" lon="39.4928436074"><ele>178.46</ele><time>2018-09-15T09:25:27Z</time></trkpt><trkpt lat="44.6427551564" lon="39.4936031755"><ele>169.33</ele><time>2018-09-15T09:25:41Z</time></trkpt><trkpt lat="44.6426388994" lon="39.4937957916"><ele>167.41</ele><time>2018-09-15T09:25:44Z</time></trkpt><trkpt lat="44.6418273635" lon="39.4950515684"><ele>159.24</ele><time>2018-09-15T09:26:02Z</time></trkpt><trkpt lat="44.6408570744" lon="39.4965875521"><ele>151.54</ele><time>2018-09-15T09:26:21Z</time></trkpt><trkpt lat="44.6401372366" lon="39.4977210369"><ele>152.51</ele><time>2018-09-15T09:26:36Z</time></trkpt><trkpt lat="44.6400452871" lon="39.4978571590"><ele>153.47</ele><time>2018-09-15T09:26:39Z</time></trkpt><trkpt lat="44.6397386771" lon="39.4983456563"><ele>154.91</ele><time>2018-09-15T09:26:54Z</time></trkpt><trkpt lat="44.6394112799" lon="39.4988664240"><ele>157.31</ele><time>2018-09-15T09:27:11Z</time></trkpt><trkpt lat="44.6390076913" lon="39.4994987547"><ele>159.24</ele><time>2018-09-15T09:27:30Z</time></trkpt><trkpt lat="44.6385968942" lon="39.5001380425"><ele>160.20</ele><time>2018-09-15T09:27:46Z</time></trkpt><trkpt lat="44.6379900444" lon="39.5010772347"><ele>158.75</ele><time>2018-09-15T09:28:05Z</time></trkpt><trkpt lat="44.6374045685" lon="39.5019699074"><ele>153.95</ele><time>2018-09-15T09:28:18Z</time></trkpt><trkpt lat="44.6366501972" lon="39.5032813400"><ele>146.26</ele><time>2018-09-15T09:28:32Z</time></trkpt><trkpt lat="44.6361893602" lon="39.5046456624"><ele>143.37</ele><time>2018-09-15T09:28:44Z</time></trkpt><trkpt lat="44.6361265797" lon="39.5054909773"><ele>145.78</ele><time>2018-09-15T09:28:55Z</time></trkpt><trkpt lat="44.6361322794" lon="39.5061452687"><ele>150.58</ele><time>2018-09-15T09:29:11Z</time></trkpt><trkpt lat="44.6361402422" lon="39.5068734046"><ele>156.35</ele><time>2018-09-15T09:29:29Z</time></trkpt><trkpt lat="44.6361742727" lon="39.5075071603"><ele>159.72</ele><time>2018-09-15T09:29:44Z</time></trkpt><trkpt lat="44.6362782922" lon="39.5081531536"><ele>162.60</ele><time>2018-09-15T09:30:00Z</time></trkpt><trkpt lat="44.6364748478" lon="39.5088937785"><ele>162.60</ele><time>2018-09-15T09:30:17Z</time></trkpt><trkpt lat="44.6366842277" lon="39.5094867982"><ele>160.68</ele><time>2018-09-15T09:30:31Z</time></trkpt><trkpt lat="44.6369863953" lon="39.5101926383"><ele>160.20</ele><time>2018-09-15T09:30:46Z</time></trkpt><trkpt lat="44.6373180673" lon="39.5110538788"><ele>160.20</ele><time>2018-09-15T09:31:02Z</time></trkpt><trkpt lat="44.6373872180" lon="39.5112897456"><ele>159.72</ele><time>2018-09-15T09:31:06Z</time></trkpt><trkpt lat="44.6375009604" lon="39.5122844260"><ele>160.20</ele><time>2018-09-15T09:31:23Z</time></trkpt><trkpt lat="44.6373573784" lon="39.5133215189"><ele>159.72</ele><time>2018-09-15T09:31:39Z</time></trkpt><trkpt lat="44.6369734034" lon="39.5146124996"><ele>157.79</ele><time>2018-09-15T09:31:58Z</time></trkpt><trkpt lat="44.6365774423" lon="39.5158597268"><ele>155.87</ele><time>2018-09-15T09:32:14Z</time></trkpt><trkpt lat="44.6359505598" lon="39.5170205366"><ele>154.91</ele><time>2018-09-15T09:32:30Z</time></trkpt><trkpt lat="44.6350798476" lon="39.5181623194"><ele>156.35</ele><time>2018-09-15T09:32:48Z</time></trkpt><trkpt lat="44.6340700798" lon="39.5194618497"><ele>154.43</ele><time>2018-09-15T09:33:09Z</time></trkpt><trkpt lat="44.6332285367" lon="39.5205721166"><ele>151.54</ele><time>2018-09-15T09:33:26Z</time></trkpt><trkpt lat="44.6324141510" lon="39.5216123108"><ele>148.66</ele><time>2018-09-15T09:33:42Z</time></trkpt><trkpt lat="44.6313397586" lon="39.5229885355"><ele>143.85</ele><time>2018-09-15T09:34:03Z</time></trkpt><trkpt lat="44.6307641733" lon="39.5237806253"><ele>147.22</ele><time>2018-09-15T09:34:18Z</time></trkpt><trkpt lat="44.6302694734" lon="39.5245218370"><ele>153.47</ele><time>2018-09-15T09:34:34Z</time></trkpt><trkpt lat="44.6299540624" lon="39.5253029466"><ele>155.39</ele><time>2018-09-15T09:34:49Z</time></trkpt><trkpt lat="44.6296741907" lon="39.5264938474"><ele>152.51</ele><time>2018-09-15T09:35:07Z</time></trkpt><trkpt lat="44.6295031998" lon="39.5275922120"><ele>150.58</ele><time>2018-09-15T09:35:22Z</time></trkpt><trkpt lat="44.6294934768" lon="39.5276741870"><ele>150.58</ele><time>2018-09-15T09:35:23Z</time></trkpt><trkpt lat="44.6294692531" lon="39.5281554759"><ele>149.62</ele><time>2018-09-15T09:35:29Z</time></trkpt><trkpt lat="44.6295026969" lon="39.5297077205"><ele>147.22</ele><time>2018-09-15T09:35:48Z</time></trkpt><trkpt lat="44.6295404993" lon="39.5311438758"><ele>145.30</ele><time>2018-09-15T09:36:05Z</time></trkpt><trkpt lat="44.6295754518" lon="39.5327022392"><ele>143.37</ele><time>2018-09-15T09:36:23Z</time></trkpt><trkpt lat="44.6296157688" lon="39.5341261569"><ele>142.41</ele><time>2018-09-15T09:36:40Z</time></trkpt><trkpt lat="44.6296509728" lon="39.5355601329"><ele>140.97</ele><time>2018-09-15T09:36:57Z</time></trkpt><trkpt lat="44.6296912897" lon="39.5370719768"><ele>140.97</ele><time>2018-09-15T09:37:14Z</time></trkpt><trkpt lat="44.6297290921" lon="39.5384771191"><ele>140.01</ele><time>2018-09-15T09:37:31Z</time></trkpt><trkpt lat="44.6296825726" lon="39.5401035435"><ele>138.57</ele><time>2018-09-15T09:37:50Z</time></trkpt><trkpt lat="44.6292503178" lon="39.5410734136"><ele>137.61</ele><time>2018-09-15T09:38:03Z</time></trkpt><trkpt lat="44.6287339926" lon="39.5419700257"><ele>136.64</ele><time>2018-09-15T09:38:17Z</time></trkpt><trkpt lat="44.6280377917" lon="39.5432124753"><ele>131.84</ele><time>2018-09-15T09:38:34Z</time></trkpt><trkpt lat="44.6271839272" lon="39.5447157696"><ele>125.59</ele><time>2018-09-15T09:38:51Z</time></trkpt><trkpt lat="44.6269587893" lon="39.5449849963"><ele>123.67</ele><time>2018-09-15T09:38:54Z</time></trkpt><trkpt lat="44.6268723719" lon="39.5450590923"><ele>122.71</ele><time>2018-09-15T09:38:55Z</time></trkpt><trkpt lat="44.6255145874" lon="39.5457858033"><ele>114.53</ele><time>2018-09-15T09:39:09Z</time></trkpt><trkpt lat="44.6248430293" lon="39.5461573731"><ele>109.73</ele><time>2018-09-15T09:39:16Z</time></trkpt><trkpt lat="44.6247615572" lon="39.5462375041"><ele>109.25</ele><time>2018-09-15T09:39:17Z</time></trkpt><trkpt lat="44.6246854495" lon="39.5463284478"><ele>108.29</ele><time>2018-09-15T09:39:18Z</time></trkpt><trkpt lat="44.6234560758" lon="39.5481413696"><ele>96.75</ele><time>2018-09-15T09:39:35Z</time></trkpt><trkpt lat="44.6222106926" lon="39.5499796048"><ele>89.06</ele><time>2018-09-15T09:39:54Z</time></trkpt><trkpt lat="44.6214090474" lon="39.5515711606"><ele>84.25</ele><time>2018-09-15T09:40:10Z</time></trkpt><trkpt lat="44.6209653094" lon="39.5534961484"><ele>82.81</ele><time>2018-09-15T09:40:27Z</time></trkpt><trkpt lat="44.6207014471" lon="39.5547639951"><ele>84.25</ele><time>2018-09-15T09:40:42Z</time></trkpt><trkpt lat="44.6205800772" lon="39.5553946495"><ele>85.21</ele><time>2018-09-15T09:40:50Z</time></trkpt><trkpt lat="44.6203267761" lon="39.5566203352"><ele>86.66</ele><time>2018-09-15T09:41:06Z</time></trkpt><trkpt lat="44.6200946812" lon="39.5577036962"><ele>87.62</ele><time>2018-09-15T09:41:21Z</time></trkpt><trkpt lat="44.6198201738" lon="39.5588632487"><ele>86.66</ele><time>2018-09-15T09:41:39Z</time></trkpt><trkpt lat="44.6194652840" lon="39.5600354578"><ele>85.21</ele><time>2018-09-15T09:41:57Z</time></trkpt><trkpt lat="44.6190549899" lon="39.5612913184"><ele>85.69</ele><time>2018-09-15T09:42:17Z</time></trkpt><trkpt lat="44.6188807301" lon="39.5618469547"><ele>86.18</ele><time>2018-09-15T09:42:26Z</time></trkpt><trkpt lat="44.6186115872" lon="39.5626983885"><ele>88.58</ele><time>2018-09-15T09:42:41Z</time></trkpt><trkpt lat="44.6183671709" lon="39.5635314658"><ele>93.39</ele><time>2018-09-15T09:42:58Z</time></trkpt><trkpt lat="44.6181864571" lon="39.5641834941"><ele>98.67</ele><time>2018-09-15T09:43:15Z</time></trkpt><trkpt lat="44.6179728024" lon="39.5649615861"><ele>98.19</ele><time>2018-09-15T09:43:33Z</time></trkpt><trkpt lat="44.6178125404" lon="39.5655929111"><ele>99.63</ele><time>2018-09-15T09:43:47Z</time></trkpt><trkpt lat="44.6175888274" lon="39.5664772857"><ele>100.11</ele><time>2018-09-15T09:44:05Z</time></trkpt><trkpt lat="44.6173967142" lon="39.5673066750"><ele>100.60</ele><time>2018-09-15T09:44:21Z</time></trkpt><trkpt lat="44.6173022501" lon="39.5682807360"><ele>98.67</ele><time>2018-09-15T09:44:36Z</time></trkpt><trkpt lat="44.6174460836" lon="39.5693440642"><ele>97.23</ele><time>2018-09-15T09:44:51Z</time></trkpt><trkpt lat="44.6176627558" lon="39.5704077277"><ele>96.75</ele><time>2018-09-15T09:45:06Z</time></trkpt><trkpt lat="44.6177565493" lon="39.5718328189"><ele>96.27</ele><time>2018-09-15T09:45:24Z</time></trkpt><trkpt lat="44.6176991332" lon="39.5733137336"><ele>95.31</ele><time>2018-09-15T09:45:41Z</time></trkpt><trkpt lat="44.6176373586" lon="39.5747690834"><ele>94.83</ele><time>2018-09-15T09:45:59Z</time></trkpt><trkpt lat="44.6175779309" lon="39.5762156323"><ele>94.35</ele><time>2018-09-15T09:46:18Z</time></trkpt><trkpt lat="44.6175560541" lon="39.5777154900"><ele>92.90</ele><time>2018-09-15T09:46:36Z</time></trkpt><trkpt lat="44.6175314113" lon="39.5791643020"><ele>90.98</ele><time>2018-09-15T09:46:54Z</time></trkpt><trkpt lat="44.6174256317" lon="39.5806183107"><ele>89.54</ele><time>2018-09-15T09:47:13Z</time></trkpt><trkpt lat="44.6170297544" lon="39.5818421524"><ele>87.62</ele><time>2018-09-15T09:47:28Z</time></trkpt><trkpt lat="44.6162957512" lon="39.5830235817"><ele>86.18</ele><time>2018-09-15T09:47:44Z</time></trkpt><trkpt lat="44.6152700577" lon="39.5839258935"><ele>83.29</ele><time>2018-09-15T09:48:02Z</time></trkpt><trkpt lat="44.6142143570" lon="39.5847204980"><ele>80.41</ele><time>2018-09-15T09:48:21Z</time></trkpt><trkpt lat="44.6131762583" lon="39.5855007693"><ele>78.00</ele><time>2018-09-15T09:48:40Z</time></trkpt><trkpt lat="44.6124276705" lon="39.5862171706"><ele>77.04</ele><time>2018-09-15T09:48:56Z</time></trkpt><trkpt lat="44.6117463894" lon="39.5872603822"><ele>75.12</ele><time>2018-09-15T09:49:13Z</time></trkpt><trkpt lat="44.6110532898" lon="39.5885406341"><ele>74.64</ele><time>2018-09-15T09:49:33Z</time></trkpt><trkpt lat="44.6105502918" lon="39.5894590393"><ele>74.64</ele><time>2018-09-15T09:49:49Z</time></trkpt><trkpt lat="44.6099166200" lon="39.5906202681"><ele>75.12</ele><time>2018-09-15T09:50:11Z</time></trkpt><trkpt lat="44.6094888914" lon="39.5914112683"><ele>76.08</ele><time>2018-09-15T09:50:26Z</time></trkpt><trkpt lat="44.6089397930" lon="39.5924181025"><ele>78.00</ele><time>2018-09-15T09:50:46Z</time></trkpt><trkpt lat="44.6085595898" lon="39.5931112859"><ele>78.00</ele><time>2018-09-15T09:51:00Z</time></trkpt><trkpt lat="44.6085041016" lon="39.5932032354"><ele>77.52</ele><time>2018-09-15T09:51:02Z</time></trkpt><trkpt lat="44.6084815543" lon="39.5932509284"><ele>78.00</ele><time>2018-09-15T09:51:03Z</time></trkpt><trkpt lat="44.6084561571" lon="39.5933044050"><ele>78.00</ele><time>2018-09-15T09:51:04Z</time></trkpt><trkpt lat="44.6084307600" lon="39.5933466498"><ele>78.00</ele><time>2018-09-15T09:51:05Z</time></trkpt><trkpt lat="44.6084021777" lon="39.5933930017"><ele>78.00</ele><time>2018-09-15T09:51:06Z</time></trkpt><trkpt lat="44.6079265047" lon="39.5942831598"><ele>76.56</ele><time>2018-09-15T09:51:22Z</time></trkpt><trkpt lat="44.6073972713" lon="39.5952599868"><ele>75.60</ele><time>2018-09-15T09:51:40Z</time></trkpt><trkpt lat="44.6069410443" lon="39.5960951596"><ele>75.12</ele><time>2018-09-15T09:51:56Z</time></trkpt><trkpt lat="44.6069159824" lon="39.5961429365"><ele>75.12</ele><time>2018-09-15T09:51:57Z</time></trkpt><trkpt lat="44.6065045986" lon="39.5968494471"><ele>75.12</ele><time>2018-09-15T09:52:11Z</time></trkpt><trkpt lat="44.6058893669" lon="39.5978510845"><ele>75.12</ele><time>2018-09-15T09:52:30Z</time></trkpt><trkpt lat="44.6057636384" lon="39.5980546810"><ele>75.12</ele><time>2018-09-15T09:52:34Z</time></trkpt><trkpt lat="44.6051505860" lon="39.5990514569"><ele>75.60</ele><time>2018-09-15T09:52:53Z</time></trkpt><trkpt lat="44.6045467537" lon="39.6000521723"><ele>74.64</ele><time>2018-09-15T09:53:11Z</time></trkpt><trkpt lat="44.6040314343" lon="39.6009494551"><ele>74.16</ele><time>2018-09-15T09:53:28Z</time></trkpt><trkpt lat="44.6035949886" lon="39.6016936004"><ele>74.64</ele><time>2018-09-15T09:53:43Z</time></trkpt><trkpt lat="44.6034927294" lon="39.6018846240"><ele>75.12</ele><time>2018-09-15T09:53:47Z</time></trkpt><trkpt lat="44.6034661587" lon="39.6019303054"><ele>75.12</ele><time>2018-09-15T09:53:48Z</time></trkpt><trkpt lat="44.6034400910" lon="39.6019822732"><ele>75.12</ele><time>2018-09-15T09:53:49Z</time></trkpt><trkpt lat="44.6033942420" lon="39.6020779945"><ele>75.60</ele><time>2018-09-15T09:53:51Z</time></trkpt><trkpt lat="44.6029006317" lon="39.6031145006"><ele>77.04</ele><time>2018-09-15T09:54:12Z</time></trkpt><trkpt lat="44.6025455743" lon="39.6039055847"><ele>76.56</ele><time>2018-09-15T09:54:28Z</time></trkpt><trkpt lat="44.6025055926" lon="39.6040117834"><ele>77.04</ele><time>2018-09-15T09:54:30Z</time></trkpt><trkpt lat="44.6024825424" lon="39.6040569618"><ele>77.04</ele><time>2018-09-15T09:54:31Z</time></trkpt><trkpt lat="44.6024615876" lon="39.6041007154"><ele>77.04</ele><time>2018-09-15T09:54:32Z</time></trkpt><trkpt lat="44.6024436504" lon="39.6041481569"><ele>77.04</ele><time>2018-09-15T09:54:33Z</time></trkpt><trkpt lat="44.6024257131" lon="39.6041976940"><ele>77.04</ele><time>2018-09-15T09:54:34Z</time></trkpt><trkpt lat="44.6022439934" lon="39.6047105826"><ele>79.45</ele><time>2018-09-15T09:54:48Z</time></trkpt><trkpt lat="44.6023239568" lon="39.6051663067"><ele>80.89</ele><time>2018-09-15T09:55:01Z</time></trkpt><trkpt lat="44.6029184852" lon="39.6056729928"><ele>81.37</ele><time>2018-09-15T09:55:20Z</time></trkpt><trkpt lat="44.6033752151" lon="39.6060625836"><ele>83.77</ele><time>2018-09-15T09:55:37Z</time></trkpt><trkpt lat="44.6037618723" lon="39.6063978598"><ele>87.14</ele><time>2018-09-15T09:55:53Z</time></trkpt><trkpt lat="44.6042204462" lon="39.6067721117"><ele>88.10</ele><time>2018-09-15T09:56:10Z</time></trkpt><trkpt lat="44.6046797745" lon="39.6071586013"><ele>88.58</ele><time>2018-09-15T09:56:24Z</time></trkpt><trkpt lat="44.6047076862" lon="39.6071972419"><ele>88.10</ele><time>2018-09-15T09:56:25Z</time></trkpt><trkpt lat="44.6047345083" lon="39.6072419174"><ele>88.10</ele><time>2018-09-15T09:56:26Z</time></trkpt><trkpt lat="44.6047578100" lon="39.6072955616"><ele>88.10</ele><time>2018-09-15T09:56:27Z</time></trkpt><trkpt lat="44.6047695447" lon="39.6073456015"><ele>88.10</ele><time>2018-09-15T09:56:28Z</time></trkpt><trkpt lat="44.6047744062" lon="39.6074064542"><ele>88.10</ele><time>2018-09-15T09:56:29Z</time></trkpt><trkpt lat="44.6047722269" lon="39.6074532252"><ele>88.10</ele><time>2018-09-15T09:56:30Z</time></trkpt><trkpt lat="44.6047626715" lon="39.6075047739"><ele>88.10</ele><time>2018-09-15T09:56:31Z</time></trkpt><trkpt lat="44.6047490090" lon="39.6075564902"><ele>88.58</ele><time>2018-09-15T09:56:32Z</time></trkpt><trkpt lat="44.6045559738" lon="39.6081386972"><ele>90.98</ele><time>2018-09-15T09:56:46Z</time></trkpt><trkpt lat="44.6043128986" lon="39.6088162065"><ele>92.90</ele><time>2018-09-15T09:57:03Z</time></trkpt><trkpt lat="44.6041190252" lon="39.6094986610"><ele>94.35</ele><time>2018-09-15T09:57:20Z</time></trkpt><trkpt lat="44.6043986455" lon="39.6098392177"><ele>94.35</ele><time>2018-09-15T09:57:31Z</time></trkpt><trkpt lat="44.6050139610" lon="39.6103398688"><ele>95.31</ele><time>2018-09-15T09:57:49Z</time></trkpt><trkpt lat="44.6053855307" lon="39.6106661763"><ele>95.31</ele><time>2018-09-15T09:57:59Z</time></trkpt><trkpt lat="44.6054137778" lon="39.6107164677"><ele>95.31</ele><time>2018-09-15T09:58:00Z</time></trkpt><trkpt lat="44.6054324694" lon="39.6107695252"><ele>95.31</ele><time>2018-09-15T09:58:01Z</time></trkpt><trkpt lat="44.6054449584" lon="39.6108309645"><ele>95.31</ele><time>2018-09-15T09:58:02Z</time></trkpt><trkpt lat="44.6054499876" lon="39.6108862013"><ele>95.31</ele><time>2018-09-15T09:58:03Z</time></trkpt><trkpt lat="44.6054464672" lon="39.6109406836"><ele>95.31</ele><time>2018-09-15T09:58:04Z</time></trkpt><trkpt lat="44.6054349001" lon="39.6109895501"><ele>95.31</ele><time>2018-09-15T09:58:05Z</time></trkpt><trkpt lat="44.6054201480" lon="39.6110349800"><ele>95.79</ele><time>2018-09-15T09:58:06Z</time></trkpt><trkpt lat="44.6054039709" lon="39.6110745426"><ele>95.79</ele><time>2018-09-15T09:58:07Z</time></trkpt><trkpt lat="44.6053864527" lon="39.6111142728"><ele>95.79</ele><time>2018-09-15T09:58:08Z</time></trkpt><trkpt lat="44.6051577106" lon="39.6116035245"><ele>97.71</ele><time>2018-09-15T09:58:24Z</time></trkpt><trkpt lat="44.6049487498" lon="39.6120464243"><ele>100.60</ele><time>2018-09-15T09:58:41Z</time></trkpt><trkpt lat="44.6047612466" lon="39.6124121267"><ele>103.00</ele><time>2018-09-15T09:58:56Z</time></trkpt><trkpt lat="44.6045651939" lon="39.6127082594"><ele>106.36</ele><time>2018-09-15T09:59:09Z</time></trkpt><trkpt lat="44.6041873377" lon="39.6130680945"><ele>105.88</ele><time>2018-09-15T09:59:26Z</time></trkpt><trkpt lat="44.6038727649" lon="39.6134238224"><ele>105.40</ele><time>2018-09-15T09:59:39Z</time></trkpt><trkpt lat="44.6037534904" lon="39.6138069592"><ele>106.84</ele><time>2018-09-15T09:59:49Z</time></trkpt><trkpt lat="44.6037472039" lon="39.6141961310"><ele>108.77</ele><time>2018-09-15T10:00:05Z</time></trkpt><trkpt lat="44.6037950646" lon="39.6144877374"><ele>111.17</ele><time>2018-09-15T10:00:19Z</time></trkpt><trkpt lat="44.6038585156" lon="39.6147928387"><ele>113.57</ele><time>2018-09-15T10:00:34Z</time></trkpt><trkpt lat="44.6039394848" lon="39.6151369996"><ele>115.98</ele><time>2018-09-15T10:00:51Z</time></trkpt><trkpt lat="44.6039600205" lon="39.6152243391"><ele>116.46</ele><time>2018-09-15T10:00:55Z</time></trkpt><trkpt lat="44.6039676480" lon="39.6152440365"><ele>116.46</ele><time>2018-09-15T10:00:56Z</time></trkpt><trkpt lat="44.6039741859" lon="39.6152639855"><ele>116.94</ele><time>2018-09-15T10:00:57Z</time></trkpt><trkpt lat="44.6039812267" lon="39.6152846050"><ele>116.94</ele><time>2018-09-15T10:00:58Z</time></trkpt><trkpt lat="44.6039882675" lon="39.6153027099"><ele>117.42</ele><time>2018-09-15T10:00:59Z</time></trkpt><trkpt lat="44.6039914526" lon="39.6153197251"><ele>117.42</ele><time>2018-09-15T10:01:00Z</time></trkpt><trkpt lat="44.6039975714" lon="39.6153401770"><ele>117.90</ele><time>2018-09-15T10:01:01Z</time></trkpt><trkpt lat="44.6041048598" lon="39.6156635508"><ele>120.30</ele><time>2018-09-15T10:01:18Z</time></trkpt><trkpt lat="44.6042083763" lon="39.6159764472"><ele>121.74</ele><time>2018-09-15T10:01:34Z</time></trkpt><trkpt lat="44.6043347754" lon="39.6162614319"><ele>125.11</ele><time>2018-09-15T10:01:49Z</time></trkpt><trkpt lat="44.6045019943" lon="39.6166211832"><ele>127.51</ele><time>2018-09-15T10:02:08Z</time></trkpt><trkpt lat="44.6046779305" lon="39.6170219220"><ele>129.43</ele><time>2018-09-15T10:02:29Z</time></trkpt><trkpt lat="44.6046829596" lon="39.6170367580"><ele>129.43</ele><time>2018-09-15T10:02:30Z</time></trkpt><trkpt lat="44.6046891622" lon="39.6170541085"><ele>129.92</ele><time>2018-09-15T10:02:31Z</time></trkpt><trkpt lat="44.6046973765" lon="39.6170707047"><ele>129.92</ele><time>2018-09-15T10:02:32Z</time></trkpt><trkpt lat="44.6047059260" lon="39.6170880552"><ele>130.40</ele><time>2018-09-15T10:02:33Z</time></trkpt><trkpt lat="44.6047125477" lon="39.6171074174"><ele>130.40</ele><time>2018-09-15T10:02:34Z</time></trkpt><trkpt lat="44.6047180798" lon="39.6171287913"><ele>130.40</ele><time>2018-09-15T10:02:35Z</time></trkpt><trkpt lat="44.6047240309" lon="39.6171504166"><ele>130.40</ele><time>2018-09-15T10:02:36Z</time></trkpt><trkpt lat="44.6047918405" lon="39.6174890455"><ele>131.84</ele><time>2018-09-15T10:02:52Z</time></trkpt><trkpt lat="44.6047763340" lon="39.6178441029"><ele>135.20</ele><time>2018-09-15T10:03:09Z</time></trkpt><trkpt lat="44.6047272999" lon="39.6182340290"><ele>137.61</ele><time>2018-09-15T10:03:27Z</time></trkpt><trkpt lat="44.6047232766" lon="39.6185396332"><ele>139.53</ele><time>2018-09-15T10:03:41Z</time></trkpt><trkpt lat="44.6047959477" lon="39.6188475844"><ele>141.45</ele><time>2018-09-15T10:03:56Z</time></trkpt><trkpt lat="44.6049141325" lon="39.6191550326"><ele>142.89</ele><time>2018-09-15T10:04:12Z</time></trkpt><trkpt lat="44.6050323173" lon="39.6194291208"><ele>145.78</ele><time>2018-09-15T10:04:27Z</time></trkpt><trkpt lat="44.6051817667" lon="39.6197701804"><ele>148.66</ele><time>2018-09-15T10:04:46Z</time></trkpt><trkpt lat="44.6053048130" lon="39.6201414987"><ele>152.03</ele><time>2018-09-15T10:05:05Z</time></trkpt><trkpt lat="44.6053184755" lon="39.6202083863"><ele>152.51</ele><time>2018-09-15T10:05:08Z</time></trkpt><trkpt lat="44.6053230017" lon="39.6202285029"><ele>152.51</ele><time>2018-09-15T10:05:09Z</time></trkpt><trkpt lat="44.6053440403" lon="39.6205795370"><ele>155.39</ele><time>2018-09-15T10:05:26Z</time></trkpt><trkpt lat="44.6052494925" lon="39.6209236979"><ele>157.31</ele><time>2018-09-15T10:05:43Z</time></trkpt><trkpt lat="44.6050438844" lon="39.6210623346"><ele>159.24</ele><time>2018-09-15T10:05:58Z</time></trkpt><trkpt lat="44.6047953609" lon="39.6210369375"><ele>161.16</ele><time>2018-09-15T10:06:14Z</time></trkpt><trkpt lat="44.6045101248" lon="39.6209509391"><ele>163.56</ele><time>2018-09-15T10:06:32Z</time></trkpt><trkpt lat="44.6042756829" lon="39.6208942775"><ele>165.96</ele><time>2018-09-15T10:06:47Z</time></trkpt><trkpt lat="44.6039693244" lon="39.6208382025"><ele>168.37</ele><time>2018-09-15T10:07:06Z</time></trkpt><trkpt lat="44.6036818251" lon="39.6208508592"><ele>170.77</ele><time>2018-09-15T10:07:24Z</time></trkpt><trkpt lat="44.6035320405" lon="39.6208636835"><ele>172.21</ele><time>2018-09-15T10:07:38Z</time></trkpt><trkpt lat="44.6035120916" lon="39.6208651084"><ele>173.17</ele><time>2018-09-15T10:07:57Z</time></trkpt><trkpt lat="44.6034902986" lon="39.6208867338"><ele>173.66</ele><time>2018-09-15T10:08:03Z</time></trkpt><trkpt lat="44.6034780610" lon="39.6208887454"><ele>173.66</ele><time>2018-09-15T10:08:04Z</time></trkpt><trkpt lat="44.6034648176" lon="39.6208879072"><ele>174.14</ele><time>2018-09-15T10:08:05Z</time></trkpt><trkpt lat="44.6032161266" lon="39.6209582314"><ele>177.02</ele><time>2018-09-15T10:08:22Z</time></trkpt><trkpt lat="44.6029692795" lon="39.6210419666"><ele>179.90</ele><time>2018-09-15T10:08:39Z</time></trkpt><trkpt lat="44.6027310658" lon="39.6211581398"><ele>182.31</ele><time>2018-09-15T10:08:55Z</time></trkpt><trkpt lat="44.6024646889" lon="39.6212923340"><ele>184.23</ele><time>2018-09-15T10:09:13Z</time></trkpt><trkpt lat="44.6021834761" lon="39.6214363351"><ele>187.59</ele><time>2018-09-15T10:09:32Z</time></trkpt><trkpt lat="44.6019186080" lon="39.6215721220"><ele>190.00</ele><time>2018-09-15T10:09:50Z</time></trkpt><trkpt lat="44.6016343776" lon="39.6217096690"><ele>192.88</ele><time>2018-09-15T10:10:09Z</time></trkpt><trkpt lat="44.6013896260" lon="39.6218256745"><ele>195.77</ele><time>2018-09-15T10:10:25Z</time></trkpt><trkpt lat="44.6011488140" lon="39.6219499782"><ele>199.61</ele><time>2018-09-15T10:10:41Z</time></trkpt><trkpt lat="44.6008885559" lon="39.6220698394"><ele>202.01</ele><time>2018-09-15T10:10:58Z</time></trkpt><trkpt lat="44.6006225143" lon="39.6222017705"><ele>204.90</ele><time>2018-09-15T10:11:16Z</time></trkpt><trkpt lat="44.6003683750" lon="39.6223721746"><ele>207.30</ele><time>2018-09-15T10:11:33Z</time></trkpt><trkpt lat="44.6001936123" lon="39.6225600131"><ele>208.74</ele><time>2018-09-15T10:11:46Z</time></trkpt><trkpt lat="44.6000327636" lon="39.6228467580"><ele>209.22</ele><time>2018-09-15T10:12:00Z</time></trkpt><trkpt lat="44.5999228768" lon="39.6231763344"><ele>209.70</ele><time>2018-09-15T10:12:14Z</time></trkpt><trkpt lat="44.5999181829" lon="39.6231912542"><ele>209.70</ele><time>2018-09-15T10:12:15Z</time></trkpt><trkpt lat="44.5999168418" lon="39.6232090238"><ele>209.70</ele><time>2018-09-15T10:12:16Z</time></trkpt><trkpt lat="44.5999144111" lon="39.6232294757"><ele>210.19</ele><time>2018-09-15T10:12:17Z</time></trkpt><trkpt lat="44.5999083761" lon="39.6232510172"><ele>210.19</ele><time>2018-09-15T10:12:18Z</time></trkpt><trkpt lat="44.5998979826" lon="39.6232730616"><ele>210.19</ele><time>2018-09-15T10:12:19Z</time></trkpt><trkpt lat="44.5998890977" lon="39.6232966147"><ele>210.19</ele><time>2018-09-15T10:12:20Z</time></trkpt><trkpt lat="44.5998827275" lon="39.6233215928"><ele>210.19</ele><time>2018-09-15T10:12:21Z</time></trkpt><trkpt lat="44.5998667181" lon="39.6233735606"><ele>210.19</ele><time>2018-09-15T10:12:24Z</time></trkpt><trkpt lat="44.5998583362" lon="39.6233926713"><ele>210.67</ele><time>2018-09-15T10:12:25Z</time></trkpt><trkpt lat="44.5997674763" lon="39.6237655822"><ele>212.11</ele><time>2018-09-15T10:12:38Z</time></trkpt><trkpt lat="44.5996552426" lon="39.6243178658"><ele>213.07</ele><time>2018-09-15T10:12:54Z</time></trkpt><trkpt lat="44.5995928813" lon="39.6249197703"><ele>213.07</ele><time>2018-09-15T10:13:08Z</time></trkpt><trkpt lat="44.5996723417" lon="39.6259866189"><ele>213.07</ele><time>2018-09-15T10:13:28Z</time></trkpt><trkpt lat="44.5998574980" lon="39.6269017551"><ele>214.03</ele><time>2018-09-15T10:13:45Z</time></trkpt><trkpt lat="44.6000626031" lon="39.6277610678"><ele>216.43</ele><time>2018-09-15T10:14:01Z</time></trkpt><trkpt lat="44.6002770122" lon="39.6286277566"><ele>216.91</ele><time>2018-09-15T10:14:19Z</time></trkpt><trkpt lat="44.6004895773" lon="39.6294786036"><ele>217.88</ele><time>2018-09-15T10:14:37Z</time></trkpt><trkpt lat="44.6006525215" lon="39.6302478947"><ele>217.88</ele><time>2018-09-15T10:14:52Z</time></trkpt><trkpt lat="44.6008740552" lon="39.6312634461"><ele>218.84</ele><time>2018-09-15T10:15:09Z</time></trkpt><trkpt lat="44.6011781506" lon="39.6326833405"><ele>217.88</ele><time>2018-09-15T10:15:30Z</time></trkpt><trkpt lat="44.6015097387" lon="39.6342009678"><ele>217.88</ele><time>2018-09-15T10:15:49Z</time></trkpt><trkpt lat="44.6018803027" lon="39.6359580662"><ele>212.59</ele><time>2018-09-15T10:16:05Z</time></trkpt><trkpt lat="44.6022656187" lon="39.6377946250"><ele>209.22</ele><time>2018-09-15T10:16:20Z</time></trkpt><trkpt lat="44.6024770103" lon="39.6387972683"><ele>210.67</ele><time>2018-09-15T10:16:33Z</time></trkpt><trkpt lat="44.6026485041" lon="39.6395712532"><ele>213.55</ele><time>2018-09-15T10:16:51Z</time></trkpt><trkpt lat="44.6027828660" lon="39.6401984710"><ele>214.99</ele><time>2018-09-15T10:17:06Z</time></trkpt><trkpt lat="44.6029695310" lon="39.6410696022"><ele>217.40</ele><time>2018-09-15T10:17:25Z</time></trkpt><trkpt lat="44.6031003725" lon="39.6416851692"><ele>218.84</ele><time>2018-09-15T10:17:38Z</time></trkpt><trkpt lat="44.6032503247" lon="39.6424213517"><ele>219.80</ele><time>2018-09-15T10:17:53Z</time></trkpt><trkpt lat="44.6034197230" lon="39.6432260145"><ele>221.24</ele><time>2018-09-15T10:18:09Z</time></trkpt><trkpt lat="44.6036156081" lon="39.6441658773"><ele>220.28</ele><time>2018-09-15T10:18:25Z</time></trkpt><trkpt lat="44.6038874332" lon="39.6454275213"><ele>218.84</ele><time>2018-09-15T10:18:43Z</time></trkpt><trkpt lat="44.6041715797" lon="39.6467128862"><ele>216.91</ele><time>2018-09-15T10:18:57Z</time></trkpt><trkpt lat="44.6045540459" lon="39.6484757680"><ele>210.19</ele><time>2018-09-15T10:19:11Z</time></trkpt><trkpt lat="44.6050596423" lon="39.6510507725"><ele>198.65</ele><time>2018-09-15T10:19:27Z</time></trkpt><trkpt lat="44.6051640809" lon="39.6526098065"><ele>195.77</ele><time>2018-09-15T10:19:38Z</time></trkpt><trkpt lat="44.6051303856" lon="39.6534396987"><ele>198.65</ele><time>2018-09-15T10:19:48Z</time></trkpt><trkpt lat="44.6051108558" lon="39.6537637431"><ele>201.53</ele><time>2018-09-15T10:19:59Z</time></trkpt><trkpt lat="44.6050763223" lon="39.6541615482"><ele>204.42</ele><time>2018-09-15T10:20:14Z</time></trkpt><trkpt lat="44.6050153021" lon="39.6546243969"><ele>207.78</ele><time>2018-09-15T10:20:30Z</time></trkpt><trkpt lat="44.6049194131" lon="39.6551591624"><ele>209.70</ele><time>2018-09-15T10:20:48Z</time></trkpt><trkpt lat="44.6047970373" lon="39.6556287166"><ele>212.11</ele><time>2018-09-15T10:21:04Z</time></trkpt><trkpt lat="44.6046543773" lon="39.6561356541"><ele>214.51</ele><time>2018-09-15T10:21:21Z</time></trkpt><trkpt lat="44.6044710651" lon="39.6566527337"><ele>217.40</ele><time>2018-09-15T10:21:38Z</time></trkpt><trkpt lat="44.6042131539" lon="39.6571903490"><ele>217.40</ele><time>2018-09-15T10:21:54Z</time></trkpt><trkpt lat="44.6038428415" lon="39.6578666009"><ele>217.40</ele><time>2018-09-15T10:22:09Z</time></trkpt><trkpt lat="44.6032825112" lon="39.6588914562"><ele>216.43</ele><time>2018-09-15T10:22:28Z</time></trkpt><trkpt lat="44.6031230036" lon="39.6591629460"><ele>215.95</ele><time>2018-09-15T10:22:33Z</time></trkpt><trkpt lat="44.6026697103" lon="39.6600596420"><ele>214.51</ele><time>2018-09-15T10:22:48Z</time></trkpt><trkpt lat="44.6026504319" lon="39.6601344086"><ele>214.51</ele><time>2018-09-15T10:22:49Z</time></trkpt><trkpt lat="44.6024519484" lon="39.6612897702"><ele>210.67</ele><time>2018-09-15T10:23:03Z</time></trkpt><trkpt lat="44.6021995693" lon="39.6628858522"><ele>207.30</ele><time>2018-09-15T10:23:21Z</time></trkpt><trkpt lat="44.6019663848" lon="39.6643754002"><ele>207.78</ele><time>2018-09-15T10:23:40Z</time></trkpt><trkpt lat="44.6018005908" lon="39.6654154267"><ele>208.74</ele><time>2018-09-15T10:23:57Z</time></trkpt><trkpt lat="44.6016446874" lon="39.6663950197"><ele>208.26</ele><time>2018-09-15T10:24:13Z</time></trkpt><trkpt lat="44.6014771331" lon="39.6674812306"><ele>207.78</ele><time>2018-09-15T10:24:30Z</time></trkpt><trkpt lat="44.6012585331" lon="39.6688678488"><ele>205.38</ele><time>2018-09-15T10:24:48Z</time></trkpt><trkpt lat="44.6010458004" lon="39.6702342667"><ele>202.01</ele><time>2018-09-15T10:25:05Z</time></trkpt><trkpt lat="44.6008855384" lon="39.6712838486"><ele>203.46</ele><time>2018-09-15T10:25:22Z</time></trkpt><trkpt lat="44.6006895695" lon="39.6724289842"><ele>203.94</ele><time>2018-09-15T10:25:41Z</time></trkpt><trkpt lat="44.6004606597" lon="39.6734815836"><ele>203.94</ele><time>2018-09-15T10:25:56Z</time></trkpt><trkpt lat="44.6001078654" lon="39.6748210955"><ele>200.57</ele><time>2018-09-15T10:26:10Z</time></trkpt><trkpt lat="44.5996006764" lon="39.6767216921"><ele>198.65</ele><time>2018-09-15T10:26:29Z</time></trkpt><trkpt lat="44.5990022924" lon="39.6779802348"><ele>194.32</ele><time>2018-09-15T10:26:45Z</time></trkpt><trkpt lat="44.5982263796" lon="39.6794925816"><ele>186.63</ele><time>2018-09-15T10:27:00Z</time></trkpt><trkpt lat="44.5972960722" lon="39.6813211776"><ele>176.06</ele><time>2018-09-15T10:27:14Z</time></trkpt><trkpt lat="44.5966777392" lon="39.6825507190"><ele>176.06</ele><time>2018-09-15T10:27:25Z</time></trkpt><trkpt lat="44.5962668583" lon="39.6833463293"><ele>177.98</ele><time>2018-09-15T10:27:37Z</time></trkpt><trkpt lat="44.5958424825" lon="39.6841745451"><ele>178.94</ele><time>2018-09-15T10:27:52Z</time></trkpt><trkpt lat="44.5953010954" lon="39.6852325927"><ele>174.62</ele><time>2018-09-15T10:28:07Z</time></trkpt><trkpt lat="44.5945851970" lon="39.6866303589"><ele>166.45</ele><time>2018-09-15T10:28:20Z</time></trkpt><trkpt lat="44.5943225082" lon="39.6878244448"><ele>163.56</ele><time>2018-09-15T10:28:30Z</time></trkpt><trkpt lat="44.5941047464" lon="39.6892195288"><ele>161.64</ele><time>2018-09-15T10:28:45Z</time></trkpt><trkpt lat="44.5939012337" lon="39.6907013655"><ele>162.60</ele><time>2018-09-15T10:29:03Z</time></trkpt><trkpt lat="44.5938258804" lon="39.6912244800"><ele>162.60</ele><time>2018-09-15T10:29:10Z</time></trkpt><trkpt lat="44.5936572365" lon="39.6924433764"><ele>162.12</ele><time>2018-09-15T10:29:27Z</time></trkpt><trkpt lat="44.5934393071" lon="39.6939285658"><ele>161.64</ele><time>2018-09-15T10:29:47Z</time></trkpt><trkpt lat="44.5933241397" lon="39.6949389204"><ele>162.12</ele><time>2018-09-15T10:30:03Z</time></trkpt><trkpt lat="44.5933412388" lon="39.6954819839"><ele>162.12</ele><time>2018-09-15T10:30:17Z</time></trkpt><trkpt lat="44.5934684761" lon="39.6963345073"><ele>162.12</ele><time>2018-09-15T10:30:31Z</time></trkpt><trkpt lat="44.5937611721" lon="39.6977163479"><ele>162.12</ele><time>2018-09-15T10:30:50Z</time></trkpt><trkpt lat="44.5940029062" lon="39.6988326497"><ele>161.64</ele><time>2018-09-15T10:31:06Z</time></trkpt><trkpt lat="44.5941003878" lon="39.6990744676"><ele>161.16</ele><time>2018-09-15T10:31:10Z</time></trkpt><trkpt lat="44.5941179059" lon="39.6991352364"><ele>161.16</ele><time>2018-09-15T10:31:11Z</time></trkpt><trkpt lat="44.5942213386" lon="39.6995760407"><ele>160.68</ele><time>2018-09-15T10:31:21Z</time></trkpt><trkpt lat="44.5942387730" lon="39.6995789744"><ele>160.68</ele><time>2018-09-15T10:31:22Z</time></trkpt><trkpt lat="44.5943765715" lon="39.6994927246"><ele>160.20</ele><time>2018-09-15T10:31:34Z</time></trkpt><trkpt lat="44.5943596400" lon="39.6994835883"><ele>160.68</ele><time>2018-09-15T10:31:50Z</time></trkpt><trkpt lat="44.5943530183" lon="39.6994540002"><ele>162.60</ele><time>2018-09-15T10:32:05Z</time></trkpt><trkpt lat="44.5943384338" lon="39.6994414274"><ele>165.48</ele><time>2018-09-15T10:32:31Z</time></trkpt><trkpt lat="44.5943189878" lon="39.6994358115"><ele>168.37</ele><time>2018-09-15T10:33:06Z</time></trkpt><trkpt lat="44.5943080075" lon="39.6994345542"><ele>169.33</ele><time>2018-09-15T10:33:32Z</time></trkpt><trkpt lat="44.5942989551" lon="39.6994395833"><ele>170.77</ele><time>2018-09-15T10:34:00Z</time></trkpt><trkpt lat="44.5942944288" lon="39.6994524077"><ele>171.73</ele><time>2018-09-15T10:34:23Z</time></trkpt><trkpt lat="44.5942818560" lon="39.6994566824"><ele>173.66</ele><time>2018-09-15T10:34:43Z</time></trkpt><trkpt lat="44.5942956023" lon="39.6994389966"><ele>171.73</ele><time>2018-09-15T10:35:12Z</time></trkpt><trkpt lat="44.5943079237" lon="39.6994612925"><ele>170.29</ele><time>2018-09-15T10:35:33Z</time></trkpt><trkpt lat="44.5943258610" lon="39.6995031182"><ele>168.85</ele><time>2018-09-15T10:35:53Z</time></trkpt><trkpt lat="44.5943572093" lon="39.6995063033"><ele>165.48</ele><time>2018-09-15T10:36:09Z</time></trkpt><trkpt lat="44.5943572931" lon="39.6995250788"><ele>165.00</ele><time>2018-09-15T10:36:37Z</time></trkpt><trkpt lat="44.5943593048" lon="39.6995104104"><ele>165.48</ele><time>2018-09-15T10:37:08Z</time></trkpt><trkpt lat="44.5943580475" lon="39.6994918864"><ele>164.04</ele><time>2018-09-15T10:37:46Z</time></trkpt><trkpt lat="44.5943696983" lon="39.6994817443"><ele>163.08</ele><time>2018-09-15T10:38:30Z</time></trkpt><trkpt lat="44.5943645854" lon="39.6994921379"><ele>161.16</ele><time>2018-09-15T10:39:08Z</time></trkpt><trkpt lat="44.5943734702" lon="39.6994826663"><ele>160.68</ele><time>2018-09-15T10:39:39Z</time></trkpt><trkpt lat="44.5943632443" lon="39.6994699258"><ele>161.16</ele><time>2018-09-15T10:40:17Z</time></trkpt><trkpt lat="44.5943609811" lon="39.6994613763"><ele>162.12</ele><time>2018-09-15T10:40:46Z</time></trkpt><trkpt lat="44.5943686087" lon="39.6995020285"><ele>161.16</ele><time>2018-09-15T10:41:23Z</time></trkpt><trkpt lat="44.5943736378" lon="39.6994975023"><ele>159.24</ele><time>2018-09-15T10:41:46Z</time></trkpt><trkpt lat="44.5943748951" lon="39.6994997654"><ele>160.68</ele><time>2018-09-15T10:42:21Z</time></trkpt><trkpt lat="44.5943660941" lon="39.6994956583"><ele>161.64</ele><time>2018-09-15T10:42:46Z</time></trkpt><trkpt lat="44.5943642501" lon="39.6994945686"><ele>161.64</ele><time>2018-09-15T10:43:17Z</time></trkpt><trkpt lat="44.5943597239" lon="39.6994987596"><ele>161.16</ele><time>2018-09-15T10:43:44Z</time></trkpt><trkpt lat="44.5943521801" lon="39.6995068062"><ele>162.12</ele><time>2018-09-15T10:44:17Z</time></trkpt><trkpt lat="44.5943494141" lon="39.6994902100"><ele>163.08</ele><time>2018-09-15T10:44:44Z</time></trkpt><trkpt lat="44.5943457261" lon="39.6994834207"><ele>164.04</ele><time>2018-09-15T10:45:17Z</time></trkpt><trkpt lat="44.5943538565" lon="39.6994824149"><ele>164.04</ele><time>2018-09-15T10:45:49Z</time></trkpt><trkpt lat="44.5943755656" lon="39.6994692553"><ele>163.08</ele><time>2018-09-15T10:46:30Z</time></trkpt><trkpt lat="44.5943737216" lon="39.6994772181"><ele>164.52</ele><time>2018-09-15T10:47:05Z</time></trkpt><trkpt lat="44.5943672676" lon="39.6994944010"><ele>166.45</ele><time>2018-09-15T10:47:54Z</time></trkpt><trkpt lat="44.5943788346" lon="39.6995008551"><ele>166.45</ele><time>2018-09-15T10:48:26Z</time></trkpt><trkpt lat="44.5943829417" lon="39.6994835883"><ele>167.41</ele><time>2018-09-15T10:48:58Z</time></trkpt><trkpt lat="44.5943539403" lon="39.6995019447"><ele>168.85</ele><time>2018-09-15T10:49:28Z</time></trkpt><trkpt lat="44.5942721330" lon="39.6995437704"><ele>166.45</ele><time>2018-09-15T10:49:39Z</time></trkpt><trkpt lat="44.5941975340" lon="39.6996033657"><ele>165.00</ele><time>2018-09-15T10:49:47Z</time></trkpt><trkpt lat="44.5941868890" lon="39.6996411681"><ele>164.52</ele><time>2018-09-15T10:49:53Z</time></trkpt><trkpt lat="44.5942686126" lon="39.7001046035"><ele>163.56</ele><time>2018-09-15T10:50:06Z</time></trkpt><trkpt lat="44.5944800880" lon="39.7011225857"><ele>161.16</ele><time>2018-09-15T10:50:23Z</time></trkpt><trkpt lat="44.5947409328" lon="39.7023660410"><ele>159.72</ele><time>2018-09-15T10:50:42Z</time></trkpt><trkpt lat="44.5948981773" lon="39.7032617312"><ele>159.24</ele><time>2018-09-15T10:50:56Z</time></trkpt><trkpt lat="44.5948939025" lon="39.7033264395"><ele>159.24</ele><time>2018-09-15T10:50:57Z</time></trkpt><trkpt lat="44.5948842634" lon="39.7033843584"><ele>159.24</ele><time>2018-09-15T10:50:58Z</time></trkpt><trkpt lat="44.5948565193" lon="39.7034988552"><ele>159.24</ele><time>2018-09-15T10:51:00Z</time></trkpt><trkpt lat="44.5947693475" lon="39.7037601192"><ele>159.24</ele><time>2018-09-15T10:51:05Z</time></trkpt><trkpt lat="44.5947652403" lon="39.7038164455"><ele>158.75</ele><time>2018-09-15T10:51:06Z</time></trkpt><trkpt lat="44.5947759692" lon="39.7038793098"><ele>158.75</ele><time>2018-09-15T10:51:07Z</time></trkpt><trkpt lat="44.5948041324" lon="39.7039372288"><ele>158.75</ele><time>2018-09-15T10:51:08Z</time></trkpt><trkpt lat="44.5948514901" lon="39.7039716784"><ele>158.75</ele><time>2018-09-15T10:51:09Z</time></trkpt><trkpt lat="44.5948825032" lon="39.7039851733"><ele>158.75</ele><time>2018-09-15T10:51:10Z</time></trkpt><trkpt lat="44.5949254185" lon="39.7040037811"><ele>158.75</ele><time>2018-09-15T10:51:11Z</time></trkpt><trkpt lat="44.5956821367" lon="39.7041237261"><ele>158.75</ele><time>2018-09-15T10:51:27Z</time></trkpt><trkpt lat="44.5965160523" lon="39.7041083872"><ele>158.75</ele><time>2018-09-15T10:51:44Z</time></trkpt><trkpt lat="44.5974262431" lon="39.7041172720"><ele>158.27</ele><time>2018-09-15T10:52:02Z</time></trkpt><trkpt lat="44.5982136391" lon="39.7044388857"><ele>158.27</ele><time>2018-09-15T10:52:18Z</time></trkpt><trkpt lat="44.5993552543" lon="39.7049873974"><ele>158.27</ele><time>2018-09-15T10:52:41Z</time></trkpt><trkpt lat="44.6001739986" lon="39.7053837776"><ele>158.27</ele><time>2018-09-15T10:52:59Z</time></trkpt><trkpt lat="44.6009687707" lon="39.7059054673"><ele>158.27</ele><time>2018-09-15T10:53:17Z</time></trkpt><trkpt lat="44.6016845852" lon="39.7064237203"><ele>157.79</ele><time>2018-09-15T10:53:33Z</time></trkpt><trkpt lat="44.6024922654" lon="39.7070070170"><ele>157.79</ele><time>2018-09-15T10:53:50Z</time></trkpt><trkpt lat="44.6035354771" lon="39.7077617235"><ele>157.31</ele><time>2018-09-15T10:54:11Z</time></trkpt><trkpt lat="44.6047428902" lon="39.7087037656"><ele>156.83</ele><time>2018-09-15T10:54:36Z</time></trkpt><trkpt lat="44.6056718566" lon="39.7098191455"><ele>155.87</ele><time>2018-09-15T10:54:58Z</time></trkpt><trkpt lat="44.6063919459" lon="39.7106874269"><ele>154.91</ele><time>2018-09-15T10:55:15Z</time></trkpt><trkpt lat="44.6072020568" lon="39.7117618192"><ele>153.95</ele><time>2018-09-15T10:55:35Z</time></trkpt><trkpt lat="44.6075773984" lon="39.7130076215"><ele>152.51</ele><time>2018-09-15T10:55:51Z</time></trkpt><trkpt lat="44.6075840201" lon="39.7130902670"><ele>152.51</ele><time>2018-09-15T10:55:52Z</time></trkpt><trkpt lat="44.6075831819" lon="39.7131716553"><ele>152.51</ele><time>2018-09-15T10:55:53Z</time></trkpt><trkpt lat="44.6075757220" lon="39.7132543009"><ele>152.51</ele><time>2018-09-15T10:55:54Z</time></trkpt><trkpt lat="44.6075630654" lon="39.7133324202"><ele>152.03</ele><time>2018-09-15T10:55:55Z</time></trkpt><trkpt lat="44.6075457148" lon="39.7134116292"><ele>152.03</ele><time>2018-09-15T10:55:56Z</time></trkpt><trkpt lat="44.6072712075" lon="39.7142825089"><ele>151.54</ele><time>2018-09-15T10:56:08Z</time></trkpt><trkpt lat="44.6072575450" lon="39.7143561020"><ele>151.54</ele><time>2018-09-15T10:56:09Z</time></trkpt><trkpt lat="44.6072500851" lon="39.7144326288"><ele>152.03</ele><time>2018-09-15T10:56:10Z</time></trkpt><trkpt lat="44.6072519291" lon="39.7145058028"><ele>152.03</ele><time>2018-09-15T10:56:11Z</time></trkpt><trkpt lat="44.6072630771" lon="39.7145793959"><ele>152.03</ele><time>2018-09-15T10:56:12Z</time></trkpt><trkpt lat="44.6072831098" lon="39.7146483790"><ele>152.03</ele><time>2018-09-15T10:56:13Z</time></trkpt><trkpt lat="44.6073118597" lon="39.7147138417"><ele>152.03</ele><time>2018-09-15T10:56:14Z</time></trkpt><trkpt lat="44.6073463093" lon="39.7147677373"><ele>152.03</ele><time>2018-09-15T10:56:15Z</time></trkpt><trkpt lat="44.6073855367" lon="39.7148155142"><ele>152.03</ele><time>2018-09-15T10:56:16Z</time></trkpt><trkpt lat="44.6074267756" lon="39.7148580104"><ele>152.51</ele><time>2018-09-15T10:56:17Z</time></trkpt><trkpt lat="44.6080430970" lon="39.7155700531"><ele>152.51</ele><time>2018-09-15T10:56:32Z</time></trkpt><trkpt lat="44.6089604124" lon="39.7166643944"><ele>151.54</ele><time>2018-09-15T10:56:54Z</time></trkpt><trkpt lat="44.6095582098" lon="39.7173877526"><ele>152.03</ele><time>2018-09-15T10:57:09Z</time></trkpt><trkpt lat="44.6095968504" lon="39.7174371220"><ele>152.03</ele><time>2018-09-15T10:57:10Z</time></trkpt><trkpt lat="44.6104493737" lon="39.7184384242"><ele>151.54</ele><time>2018-09-15T10:57:31Z</time></trkpt><trkpt lat="44.6113654319" lon="39.7191778757"><ele>151.54</ele><time>2018-09-15T10:57:51Z</time></trkpt><trkpt lat="44.6123117488" lon="39.7198563069"><ele>152.03</ele><time>2018-09-15T10:58:12Z</time></trkpt><trkpt lat="44.6128518786" lon="39.7202296369"><ele>152.03</ele><time>2018-09-15T10:58:23Z</time></trkpt><trkpt lat="44.6137576271" lon="39.7208718583"><ele>152.51</ele><time>2018-09-15T10:58:42Z</time></trkpt><trkpt lat="44.6145701688" lon="39.7214471083"><ele>151.54</ele><time>2018-09-15T10:58:59Z</time></trkpt><trkpt lat="44.6153014898" lon="39.7219723184"><ele>151.54</ele><time>2018-09-15T10:59:16Z</time></trkpt><trkpt lat="44.6162486449" lon="39.7226439603"><ele>151.06</ele><time>2018-09-15T10:59:37Z</time></trkpt><trkpt lat="44.6170658804" lon="39.7232265864"><ele>150.10</ele><time>2018-09-15T10:59:54Z</time></trkpt><trkpt lat="44.6179622412" lon="39.7238750942"><ele>149.14</ele><time>2018-09-15T11:00:13Z</time></trkpt><trkpt lat="44.6187684964" lon="39.7244667728"><ele>148.66</ele><time>2018-09-15T11:00:30Z</time></trkpt><trkpt lat="44.6196158230" lon="39.7250943258"><ele>149.14</ele><time>2018-09-15T11:00:48Z</time></trkpt><trkpt lat="44.6205944102" lon="39.7258103080"><ele>148.18</ele><time>2018-09-15T11:01:09Z</time></trkpt><trkpt lat="44.6214885078" lon="39.7265296429"><ele>147.22</ele><time>2018-09-15T11:01:28Z</time></trkpt><trkpt lat="44.6222697850" lon="39.7273178771"><ele>146.26</ele><time>2018-09-15T11:01:45Z</time></trkpt><trkpt lat="44.6232768707" lon="39.7283567302"><ele>146.74</ele><time>2018-09-15T11:02:08Z</time></trkpt><trkpt lat="44.6240980458" lon="39.7292111814"><ele>146.26</ele><time>2018-09-15T11:02:28Z</time></trkpt><trkpt lat="44.6249011997" lon="39.7300404869"><ele>146.26</ele><time>2018-09-15T11:02:48Z</time></trkpt><trkpt lat="44.6257520467" lon="39.7309306450"><ele>146.26</ele><time>2018-09-15T11:03:09Z</time></trkpt><trkpt lat="44.6265920810" lon="39.7318293527"><ele>146.26</ele><time>2018-09-15T11:03:29Z</time></trkpt><trkpt lat="44.6274628770" lon="39.7327515297"><ele>146.74</ele><time>2018-09-15T11:03:50Z</time></trkpt><trkpt lat="44.6281422302" lon="39.7334930766"><ele>146.74</ele><time>2018-09-15T11:04:07Z</time></trkpt><trkpt lat="44.6288307197" lon="39.7342310194"><ele>145.78</ele><time>2018-09-15T11:04:24Z</time></trkpt><trkpt lat="44.6295969933" lon="39.7350558825"><ele>145.78</ele><time>2018-09-15T11:04:43Z</time></trkpt><trkpt lat="44.6304214373" lon="39.7359421011"><ele>144.82</ele><time>2018-09-15T11:05:02Z</time></trkpt><trkpt lat="44.6314832568" lon="39.7370710596"><ele>143.37</ele><time>2018-09-15T11:05:25Z</time></trkpt><trkpt lat="44.6323843114" lon="39.7380362358"><ele>143.37</ele><time>2018-09-15T11:05:45Z</time></trkpt><trkpt lat="44.6333649941" lon="39.7390807886"><ele>143.37</ele><time>2018-09-15T11:06:06Z</time></trkpt><trkpt lat="44.6343331039" lon="39.7399797477"><ele>142.89</ele><time>2018-09-15T11:06:26Z</time></trkpt><trkpt lat="44.6352271177" lon="39.7407973185"><ele>141.93</ele><time>2018-09-15T11:06:43Z</time></trkpt><trkpt lat="44.6361879352" lon="39.7416721378"><ele>141.93</ele><time>2018-09-15T11:07:02Z</time></trkpt><trkpt lat="44.6369630098" lon="39.7423637286"><ele>143.37</ele><time>2018-09-15T11:07:20Z</time></trkpt><trkpt lat="44.6378400922" lon="39.7431421559"><ele>144.82</ele><time>2018-09-15T11:07:42Z</time></trkpt><trkpt lat="44.6384588443" lon="39.7435394581"><ele>146.26</ele><time>2018-09-15T11:08:00Z</time></trkpt><trkpt lat="44.6389992256" lon="39.7437941004"><ele>149.14</ele><time>2018-09-15T11:08:20Z</time></trkpt><trkpt lat="44.6394545306" lon="39.7439810168"><ele>152.99</ele><time>2018-09-15T11:08:39Z</time></trkpt><trkpt lat="44.6398530900" lon="39.7441392671"><ele>156.35</ele><time>2018-09-15T11:08:56Z</time></trkpt><trkpt lat="44.6403148491" lon="39.7443281114"><ele>158.75</ele><time>2018-09-15T11:09:14Z</time></trkpt><trkpt lat="44.6408035979" lon="39.7445201408"><ele>159.72</ele><time>2018-09-15T11:09:32Z</time></trkpt><trkpt lat="44.6413830388" lon="39.7447584383"><ele>161.64</ele><time>2018-09-15T11:09:51Z</time></trkpt><trkpt lat="44.6419025492" lon="39.7449692432"><ele>165.00</ele><time>2018-09-15T11:10:08Z</time></trkpt><trkpt lat="44.6423897054" lon="39.7451673914"><ele>165.96</ele><time>2018-09-15T11:10:23Z</time></trkpt><trkpt lat="44.6430474333" lon="39.7454748396"><ele>163.56</ele><time>2018-09-15T11:10:43Z</time></trkpt><trkpt lat="44.6436620783" lon="39.7458726447"><ele>162.60</ele><time>2018-09-15T11:11:02Z</time></trkpt><trkpt lat="44.6439491585" lon="39.7461173963"><ele>162.12</ele><time>2018-09-15T11:11:11Z</time></trkpt><trkpt lat="44.6444861870" lon="39.7467291914"><ele>161.64</ele><time>2018-09-15T11:11:28Z</time></trkpt><trkpt lat="44.6451395564" lon="39.7476641089"><ele>160.68</ele><time>2018-09-15T11:11:48Z</time></trkpt><trkpt lat="44.6457182430" lon="39.7485719528"><ele>160.20</ele><time>2018-09-15T11:12:05Z</time></trkpt><trkpt lat="44.6460171416" lon="39.7490130085"><ele>160.20</ele><time>2018-09-15T11:12:13Z</time></trkpt><trkpt lat="44.6466358099" lon="39.7499651089"><ele>160.20</ele><time>2018-09-15T11:12:32Z</time></trkpt><trkpt lat="44.6471615229" lon="39.7507726215"><ele>159.72</ele><time>2018-09-15T11:12:49Z</time></trkpt><trkpt lat="44.6477959491" lon="39.7517465148"><ele>159.24</ele><time>2018-09-15T11:13:07Z</time></trkpt><trkpt lat="44.6484000329" lon="39.7526749782"><ele>159.24</ele><time>2018-09-15T11:13:24Z</time></trkpt><trkpt lat="44.6490086429" lon="39.7535860073"><ele>157.79</ele><time>2018-09-15T11:13:40Z</time></trkpt><trkpt lat="44.6496800333" lon="39.7542519495"><ele>157.79</ele><time>2018-09-15T11:13:56Z</time></trkpt><trkpt lat="44.6504976880" lon="39.7548427060"><ele>157.31</ele><time>2018-09-15T11:14:13Z</time></trkpt><trkpt lat="44.6516117267" lon="39.7556458600"><ele>153.95</ele><time>2018-09-15T11:14:33Z</time></trkpt><trkpt lat="44.6524873842" lon="39.7562559787"><ele>154.43</ele><time>2018-09-15T11:14:50Z</time></trkpt><trkpt lat="44.6530628018" lon="39.7566636745"><ele>155.39</ele><time>2018-09-15T11:15:04Z</time></trkpt><trkpt lat="44.6537700668" lon="39.7575146891"><ele>154.91</ele><time>2018-09-15T11:15:26Z</time></trkpt><trkpt lat="44.6543939319" lon="39.7585871536"><ele>152.99</ele><time>2018-09-15T11:15:45Z</time></trkpt><trkpt lat="44.6548960079" lon="39.7594405152"><ele>152.51</ele><time>2018-09-15T11:16:00Z</time></trkpt><trkpt lat="44.6556971502" lon="39.7605056874"><ele>149.62</ele><time>2018-09-15T11:16:17Z</time></trkpt><trkpt lat="44.6566351689" lon="39.7617628891"><ele>146.26</ele><time>2018-09-15T11:16:35Z</time></trkpt><trkpt lat="44.6574812382" lon="39.7632277105"><ele>146.26</ele><time>2018-09-15T11:16:55Z</time></trkpt><trkpt lat="44.6582429856" lon="39.7643733490"><ele>147.70</ele><time>2018-09-15T11:17:17Z</time></trkpt><trkpt lat="44.6589091793" lon="39.7651360184"><ele>150.58</ele><time>2018-09-15T11:17:37Z</time></trkpt><trkpt lat="44.6595096588" lon="39.7657579556"><ele>152.51</ele><time>2018-09-15T11:17:56Z</time></trkpt><trkpt lat="44.6602420695" lon="39.7664394882"><ele>152.51</ele><time>2018-09-15T11:18:15Z</time></trkpt><trkpt lat="44.6612359118" lon="39.7673450690"><ele>151.54</ele><time>2018-09-15T11:18:37Z</time></trkpt><trkpt lat="44.6621013433" lon="39.7681332193"><ele>150.58</ele><time>2018-09-15T11:18:55Z</time></trkpt><trkpt lat="44.6622413211" lon="39.7682456207"><ele>150.10</ele><time>2018-09-15T11:18:58Z</time></trkpt><trkpt lat="44.6630521026" lon="39.7689979803"><ele>148.66</ele><time>2018-09-15T11:19:14Z</time></trkpt><trkpt lat="44.6638695896" lon="39.7697532736"><ele>148.18</ele><time>2018-09-15T11:19:31Z</time></trkpt><trkpt lat="44.6646997333" lon="39.7705175355"><ele>148.66</ele><time>2018-09-15T11:19:52Z</time></trkpt><trkpt lat="44.6654344909" lon="39.7711895965"><ele>148.66</ele><time>2018-09-15T11:20:11Z</time></trkpt><trkpt lat="44.6658474673" lon="39.7715590708"><ele>148.66</ele><time>2018-09-15T11:20:21Z</time></trkpt><trkpt lat="44.6665547322" lon="39.7722105961"><ele>148.66</ele><time>2018-09-15T11:20:38Z</time></trkpt><trkpt lat="44.6673573833" lon="39.7729380615"><ele>148.18</ele><time>2018-09-15T11:20:57Z</time></trkpt><trkpt lat="44.6683627926" lon="39.7735458333"><ele>147.70</ele><time>2018-09-15T11:21:19Z</time></trkpt><trkpt lat="44.6692074370" lon="39.7739099432"><ele>147.22</ele><time>2018-09-15T11:21:36Z</time></trkpt><trkpt lat="44.6702581923" lon="39.7743595485"><ele>144.34</ele><time>2018-09-15T11:21:55Z</time></trkpt><trkpt lat="44.6712044254" lon="39.7747610416"><ele>144.34</ele><time>2018-09-15T11:22:12Z</time></trkpt><trkpt lat="44.6718140412" lon="39.7751044482"><ele>146.74</ele><time>2018-09-15T11:22:29Z</time></trkpt><trkpt lat="44.6717896499" lon="39.7751487885"><ele>146.26</ele><time>2018-09-15T11:22:37Z</time></trkpt><trkpt lat="44.6717615705" lon="39.7751746047"><ele>146.74</ele><time>2018-09-15T11:22:41Z</time></trkpt><trkpt lat="44.6717214212" lon="39.7751900274"><ele>146.26</ele><time>2018-09-15T11:22:45Z</time></trkpt><trkpt lat="44.6717058308" lon="39.7752216272"><ele>146.26</ele><time>2018-09-15T11:22:48Z</time></trkpt><trkpt lat="44.6716681123" lon="39.7753491998"><ele>146.26</ele><time>2018-09-15T11:22:59Z</time></trkpt><trkpt lat="44.6716131270" lon="39.7754030116"><ele>147.70</ele><time>2018-09-15T11:23:14Z</time></trkpt><trkpt lat="44.6716012247" lon="39.7754228767"><ele>147.70</ele><time>2018-09-15T11:23:28Z</time></trkpt><trkpt lat="44.6715520229" lon="39.7753910255"><ele>149.14</ele><time>2018-09-15T11:58:04Z</time></trkpt><trkpt lat="44.6715827845" lon="39.7754276544"><ele>150.10</ele><time>2018-09-15T11:58:26Z</time></trkpt><trkpt lat="44.6716331597" lon="39.7754828911"><ele>151.06</ele><time>2018-09-15T11:58:51Z</time></trkpt><trkpt lat="44.6716112830" lon="39.7754455917"><ele>147.70</ele><time>2018-09-15T11:59:19Z</time></trkpt><trkpt lat="44.6716138814" lon="39.7754550632"><ele>149.14</ele><time>2018-09-15T11:59:45Z</time></trkpt><trkpt lat="44.6716138814" lon="39.7754597571"><ele>150.58</ele><time>2018-09-15T12:00:09Z</time></trkpt><trkpt lat="44.6716166474" lon="39.7754669655"><ele>153.47</ele><time>2018-09-15T12:00:28Z</time></trkpt><trkpt lat="44.6716086846" lon="39.7754704859"><ele>152.99</ele><time>2018-09-15T12:00:56Z</time></trkpt><trkpt lat="44.6716061700" lon="39.7754201107"><ele>151.06</ele><time>2018-09-15T12:01:05Z</time></trkpt><trkpt lat="44.6716399491" lon="39.7753853258"><ele>150.58</ele><time>2018-09-15T12:01:19Z</time></trkpt><trkpt lat="44.6716780867" lon="39.7752952203"><ele>152.99</ele><time>2018-09-15T12:01:25Z</time></trkpt><trkpt lat="44.6717427112" lon="39.7751316894"><ele>152.99</ele><time>2018-09-15T12:01:38Z</time></trkpt><trkpt lat="44.6717890631" lon="39.7750977427"><ele>150.10</ele><time>2018-09-15T12:01:45Z</time></trkpt><trkpt lat="44.6718158014" lon="39.7751052026"><ele>148.18</ele><time>2018-09-15T12:01:52Z</time></trkpt><trkpt lat="44.6720712818" lon="39.7753284127"><ele>149.14</ele><time>2018-09-15T12:02:06Z</time></trkpt><trkpt lat="44.6724950708" lon="39.7758065164"><ele>149.14</ele><time>2018-09-15T12:02:21Z</time></trkpt><trkpt lat="44.6730623581" lon="39.7765112668"><ele>148.18</ele><time>2018-09-15T12:02:38Z</time></trkpt><trkpt lat="44.6737978701" lon="39.7774420772"><ele>147.22</ele><time>2018-09-15T12:02:56Z</time></trkpt><trkpt lat="44.6746182069" lon="39.7784987837"><ele>146.26</ele><time>2018-09-15T12:03:16Z</time></trkpt><trkpt lat="44.6753595024" lon="39.7794330306"><ele>145.78</ele><time>2018-09-15T12:03:35Z</time></trkpt><trkpt lat="44.6760987025" lon="39.7803659365"><ele>144.82</ele><time>2018-09-15T12:03:52Z</time></trkpt><trkpt lat="44.6771277487" lon="39.7816384770"><ele>140.97</ele><time>2018-09-15T12:04:11Z</time></trkpt><trkpt lat="44.6781127062" lon="39.7828161344"><ele>141.45</ele><time>2018-09-15T12:04:28Z</time></trkpt><trkpt lat="44.6785675082" lon="39.7833717708"><ele>143.85</ele><time>2018-09-15T12:04:42Z</time></trkpt><trkpt lat="44.6791762859" lon="39.7841222025"><ele>143.37</ele><time>2018-09-15T12:04:59Z</time></trkpt><trkpt lat="44.6799743269" lon="39.7851302940"><ele>142.89</ele><time>2018-09-15T12:05:17Z</time></trkpt><trkpt lat="44.6808662452" lon="39.7862574086"><ele>141.93</ele><time>2018-09-15T12:05:37Z</time></trkpt><trkpt lat="44.6817180980" lon="39.7873382550"><ele>140.97</ele><time>2018-09-15T12:05:56Z</time></trkpt><trkpt lat="44.6825863793" lon="39.7884631902"><ele>140.01</ele><time>2018-09-15T12:06:16Z</time></trkpt><trkpt lat="44.6835134178" lon="39.7896555159"><ele>140.01</ele><time>2018-09-15T12:06:37Z</time></trkpt><trkpt lat="44.6843039151" lon="39.7907644417"><ele>138.57</ele><time>2018-09-15T12:06:56Z</time></trkpt><trkpt lat="44.6851249225" lon="39.7921119165"><ele>136.64</ele><time>2018-09-15T12:07:16Z</time></trkpt><trkpt lat="44.6858427487" lon="39.7932931781"><ele>135.20</ele><time>2018-09-15T12:07:32Z</time></trkpt><trkpt lat="44.6862069424" lon="39.7937875427"><ele>138.57</ele><time>2018-09-15T12:07:44Z</time></trkpt><trkpt lat="44.6866863035" lon="39.7941508982"><ele>140.01</ele><time>2018-09-15T12:08:00Z</time></trkpt><trkpt lat="44.6872188058" lon="39.7943375632"><ele>140.01</ele><time>2018-09-15T12:08:13Z</time></trkpt><trkpt lat="44.6881320141" lon="39.7946770303"><ele>138.57</ele><time>2018-09-15T12:08:31Z</time></trkpt><trkpt lat="44.6893434506" lon="39.7950780205"><ele>138.09</ele><time>2018-09-15T12:08:54Z</time></trkpt><trkpt lat="44.6902530547" lon="39.7953462414"><ele>137.61</ele><time>2018-09-15T12:09:11Z</time></trkpt><trkpt lat="44.6905287355" lon="39.7954863869"><ele>136.64</ele><time>2018-09-15T12:09:16Z</time></trkpt><trkpt lat="44.6905839723" lon="39.7955324873"><ele>136.64</ele><time>2018-09-15T12:09:17Z</time></trkpt><trkpt lat="44.6906376164" lon="39.7955838684"><ele>136.64</ele><time>2018-09-15T12:09:18Z</time></trkpt><trkpt lat="44.6906826273" lon="39.7956388537"><ele>136.16</ele><time>2018-09-15T12:09:19Z</time></trkpt><trkpt lat="44.6907259617" lon="39.7957022209"><ele>136.16</ele><time>2018-09-15T12:09:20Z</time></trkpt><trkpt lat="44.6907663625" lon="39.7957729641"><ele>136.16</ele><time>2018-09-15T12:09:21Z</time></trkpt><trkpt lat="44.6908016503" lon="39.7958468087"><ele>136.16</ele><time>2018-09-15T12:09:22Z</time></trkpt><trkpt lat="44.6913518384" lon="39.7974099498"><ele>136.64</ele><time>2018-09-15T12:09:42Z</time></trkpt><trkpt lat="44.6916342247" lon="39.7988532297"><ele>138.09</ele><time>2018-09-15T12:10:00Z</time></trkpt><trkpt lat="44.6917327121" lon="39.7994553018"><ele>138.09</ele><time>2018-09-15T12:10:08Z</time></trkpt><trkpt lat="44.6917471290" lon="39.7995281406"><ele>138.09</ele><time>2018-09-15T12:10:09Z</time></trkpt><trkpt lat="44.6919769607" lon="39.8007705901"><ele>137.61</ele><time>2018-09-15T12:10:25Z</time></trkpt><trkpt lat="44.6922717523" lon="39.8023791611"><ele>136.16</ele><time>2018-09-15T12:10:44Z</time></trkpt><trkpt lat="44.6926939487" lon="39.8036385421"><ele>133.28</ele><time>2018-09-15T12:10:59Z</time></trkpt><trkpt lat="44.6931184921" lon="39.8052745219"><ele>129.43</ele><time>2018-09-15T12:11:16Z</time></trkpt><trkpt lat="44.6934891399" lon="39.8067279439"><ele>127.51</ele><time>2018-09-15T12:11:31Z</time></trkpt><trkpt lat="44.6939766314" lon="39.8085177317"><ele>127.03</ele><time>2018-09-15T12:11:51Z</time></trkpt><trkpt lat="44.6944662184" lon="39.8102510255"><ele>126.07</ele><time>2018-09-15T12:12:12Z</time></trkpt><trkpt lat="44.6950726490" lon="39.8117704969"><ele>126.07</ele><time>2018-09-15T12:12:32Z</time></trkpt><trkpt lat="44.6958772279" lon="39.8131665029"><ele>125.11</ele><time>2018-09-15T12:12:52Z</time></trkpt><trkpt lat="44.6966419928" lon="39.8145434819"><ele>124.15</ele><time>2018-09-15T12:13:12Z</time></trkpt><trkpt lat="44.6972786821" lon="39.8157626297"><ele>124.15</ele><time>2018-09-15T12:13:29Z</time></trkpt><trkpt lat="44.6974842902" lon="39.8160684016"><ele>124.15</ele><time>2018-09-15T12:13:34Z</time></trkpt><trkpt lat="44.6977258567" lon="39.8163101356"><ele>124.63</ele><time>2018-09-15T12:13:39Z</time></trkpt><trkpt lat="44.6986729279" lon="39.8168537859"><ele>124.15</ele><time>2018-09-15T12:13:56Z</time></trkpt><trkpt lat="44.6997624077" lon="39.8174347356"><ele>122.71</ele><time>2018-09-15T12:14:16Z</time></trkpt><trkpt lat="44.7008308489" lon="39.8180091474"><ele>122.71</ele><time>2018-09-15T12:14:37Z</time></trkpt><trkpt lat="44.7017994616" lon="39.8188176658"><ele>123.19</ele><time>2018-09-15T12:14:58Z</time></trkpt><trkpt lat="44.7023443691" lon="39.8197680898"><ele>123.67</ele><time>2018-09-15T12:15:14Z</time></trkpt><trkpt lat="44.7028107382" lon="39.8209026642"><ele>125.11</ele><time>2018-09-15T12:15:31Z</time></trkpt><trkpt lat="44.7032880038" lon="39.8221299425"><ele>126.07</ele><time>2018-09-15T12:15:50Z</time></trkpt><trkpt lat="44.7038176563" lon="39.8231536243"><ele>126.07</ele><time>2018-09-15T12:16:09Z</time></trkpt><trkpt lat="44.7046665754" lon="39.8243475426"><ele>125.59</ele><time>2018-09-15T12:16:33Z</time></trkpt><trkpt lat="44.7054017521" lon="39.8253822047"><ele>126.07</ele><time>2018-09-15T12:16:55Z</time></trkpt><trkpt lat="44.7061832808" lon="39.8264787253"><ele>125.59</ele><time>2018-09-15T12:17:16Z</time></trkpt><trkpt lat="44.7068765480" lon="39.8274515290"><ele>125.11</ele><time>2018-09-15T12:17:34Z</time></trkpt><trkpt lat="44.7077537142" lon="39.8286547512"><ele>123.19</ele><time>2018-09-15T12:17:56Z</time></trkpt><trkpt lat="44.7085709497" lon="39.8295539618"><ele>122.71</ele><time>2018-09-15T12:18:15Z</time></trkpt><trkpt lat="44.7094814759" lon="39.8305137735"><ele>122.22</ele><time>2018-09-15T12:18:37Z</time></trkpt><trkpt lat="44.7105370089" lon="39.8316428158"><ele>121.26</ele><time>2018-09-15T12:19:03Z</time></trkpt><trkpt lat="44.7112917993" lon="39.8324517533"><ele>121.26</ele><time>2018-09-15T12:19:22Z</time></trkpt><trkpt lat="44.7119863238" lon="39.8331909534"><ele>120.78</ele><time>2018-09-15T12:19:41Z</time></trkpt><trkpt lat="44.7127122805" lon="39.8339647707"><ele>120.30</ele><time>2018-09-15T12:20:00Z</time></trkpt><trkpt lat="44.7134814877" lon="39.8347966745"><ele>120.30</ele><time>2018-09-15T12:20:20Z</time></trkpt><trkpt lat="44.7135159373" lon="39.8348300345"><ele>120.30</ele><time>2018-09-15T12:20:21Z</time></trkpt><trkpt lat="44.7141706478" lon="39.8354973178"><ele>120.78</ele><time>2018-09-15T12:20:38Z</time></trkpt><trkpt lat="44.7149631567" lon="39.8361259606"><ele>120.78</ele><time>2018-09-15T12:20:56Z</time></trkpt><trkpt lat="44.7158171888" lon="39.8366820160"><ele>120.78</ele><time>2018-09-15T12:21:14Z</time></trkpt><trkpt lat="44.7166273836" lon="39.8374225572"><ele>120.30</ele><time>2018-09-15T12:21:32Z</time></trkpt><trkpt lat="44.7171034757" lon="39.8379251361"><ele>119.82</ele><time>2018-09-15T12:21:43Z</time></trkpt><trkpt lat="44.7177358903" lon="39.8385847080"><ele>119.82</ele><time>2018-09-15T12:21:59Z</time></trkpt><trkpt lat="44.7186475061" lon="39.8395358864"><ele>119.34</ele><time>2018-09-15T12:22:20Z</time></trkpt><trkpt lat="44.7195313778" lon="39.8404487595"><ele>119.34</ele><time>2018-09-15T12:22:41Z</time></trkpt><trkpt lat="44.7203305922" lon="39.8412782326"><ele>119.34</ele><time>2018-09-15T12:23:00Z</time></trkpt><trkpt lat="44.7211971972" lon="39.8421673011"><ele>119.34</ele><time>2018-09-15T12:23:20Z</time></trkpt><trkpt lat="44.7219217289" lon="39.8429141287"><ele>119.34</ele><time>2018-09-15T12:23:37Z</time></trkpt><trkpt lat="44.7228608374" lon="39.8439026903"><ele>118.38</ele><time>2018-09-15T12:23:58Z</time></trkpt><trkpt lat="44.7236645781" lon="39.8447378632"><ele>117.90</ele><time>2018-09-15T12:24:16Z</time></trkpt><trkpt lat="44.7246179357" lon="39.8456590343"><ele>118.86</ele><time>2018-09-15T12:24:37Z</time></trkpt><trkpt lat="44.7256232612" lon="39.8462652974"><ele>118.86</ele><time>2018-09-15T12:24:57Z</time></trkpt><trkpt lat="44.7264680732" lon="39.8467609193"><ele>118.86</ele><time>2018-09-15T12:25:14Z</time></trkpt><trkpt lat="44.7274059244" lon="39.8474735487"><ele>119.34</ele><time>2018-09-15T12:25:33Z</time></trkpt><trkpt lat="44.7275834531" lon="39.8476547655"><ele>119.34</ele><time>2018-09-15T12:25:37Z</time></trkpt><trkpt lat="44.7284131777" lon="39.8483994976"><ele>119.34</ele><time>2018-09-15T12:25:55Z</time></trkpt><trkpt lat="44.7293141484" lon="39.8492626660"><ele>120.78</ele><time>2018-09-15T12:26:14Z</time></trkpt><trkpt lat="44.7303668316" lon="39.8501772992"><ele>120.30</ele><time>2018-09-15T12:26:36Z</time></trkpt><trkpt lat="44.7312248033" lon="39.8508170061"><ele>121.26</ele><time>2018-09-15T12:26:54Z</time></trkpt><trkpt lat="44.7318754066" lon="39.8512753285"><ele>122.22</ele><time>2018-09-15T12:27:09Z</time></trkpt><trkpt lat="44.7326480504" lon="39.8517356627"><ele>122.22</ele><time>2018-09-15T12:27:26Z</time></trkpt><trkpt lat="44.7326979227" lon="39.8517354112"><ele>122.22</ele><time>2018-09-15T12:27:27Z</time></trkpt><trkpt lat="44.7327485494" lon="39.8517240118"><ele>122.22</ele><time>2018-09-15T12:27:28Z</time></trkpt><trkpt lat="44.7327985056" lon="39.8517054878"><ele>121.74</ele><time>2018-09-15T12:27:29Z</time></trkpt><trkpt lat="44.7328501381" lon="39.8516781628"><ele>121.74</ele><time>2018-09-15T12:27:30Z</time></trkpt><trkpt lat="44.7328913771" lon="39.8516481556"><ele>121.74</ele><time>2018-09-15T12:27:31Z</time></trkpt><trkpt lat="44.7329337057" lon="39.8516082577"><ele>121.74</ele><time>2018-09-15T12:27:32Z</time></trkpt><trkpt lat="44.7329725139" lon="39.8515658453"><ele>121.74</ele><time>2018-09-15T12:27:33Z</time></trkpt><trkpt lat="44.7335927747" lon="39.8506305087"><ele>119.34</ele><time>2018-09-15T12:27:49Z</time></trkpt><trkpt lat="44.7336441558" lon="39.8505860846"><ele>119.34</ele><time>2018-09-15T12:27:50Z</time></trkpt><trkpt lat="44.7336928546" lon="39.8505619448"><ele>119.34</ele><time>2018-09-15T12:27:51Z</time></trkpt><trkpt lat="44.7337489296" lon="39.8505496234"><ele>119.34</ele><time>2018-09-15T12:27:52Z</time></trkpt><trkpt lat="44.7337982990" lon="39.8505484499"><ele>119.34</ele><time>2018-09-15T12:27:53Z</time></trkpt><trkpt lat="44.7338506859" lon="39.8505555745"><ele>119.82</ele><time>2018-09-15T12:27:54Z</time></trkpt><trkpt lat="44.7338996362" lon="39.8505678121"><ele>119.82</ele><time>2018-09-15T12:27:55Z</time></trkpt><trkpt lat="44.7339427192" lon="39.8505834863"><ele>119.82</ele><time>2018-09-15T12:27:56Z</time></trkpt><trkpt lat="44.7339886520" lon="39.8506077938"><ele>119.82</ele><time>2018-09-15T12:27:57Z</time></trkpt><trkpt lat="44.7340315674" lon="39.8506372981"><ele>119.82</ele><time>2018-09-15T12:27:58Z</time></trkpt><trkpt lat="44.7340692021" lon="39.8506654613"><ele>119.82</ele><time>2018-09-15T12:27:59Z</time></trkpt><trkpt lat="44.7341109440" lon="39.8507017549"><ele>119.82</ele><time>2018-09-15T12:28:00Z</time></trkpt><trkpt lat="44.7341446392" lon="39.8507385515"><ele>119.82</ele><time>2018-09-15T12:28:01Z</time></trkpt><trkpt lat="44.7345900536" lon="39.8513721395"><ele>123.19</ele><time>2018-09-15T12:28:17Z</time></trkpt><trkpt lat="44.7346773930" lon="39.8515099380"><ele>123.19</ele><time>2018-09-15T12:28:20Z</time></trkpt><trkpt lat="44.7352670599" lon="39.8526467755"><ele>123.67</ele><time>2018-09-15T12:28:40Z</time></trkpt><trkpt lat="44.7359894123" lon="39.8541203141"><ele>123.67</ele><time>2018-09-15T12:29:02Z</time></trkpt><trkpt lat="44.7364755627" lon="39.8551720753"><ele>122.71</ele><time>2018-09-15T12:29:17Z</time></trkpt><trkpt lat="44.7369154450" lon="39.8562629800"><ele>123.19</ele><time>2018-09-15T12:29:33Z</time></trkpt><trkpt lat="44.7372865956" lon="39.8574225325"><ele>123.19</ele><time>2018-09-15T12:29:51Z</time></trkpt><trkpt lat="44.7373783775" lon="39.8577566352"><ele>123.19</ele><time>2018-09-15T12:29:56Z</time></trkpt><trkpt lat="44.7376277391" lon="39.8586631380"><ele>123.67</ele><time>2018-09-15T12:30:11Z</time></trkpt><trkpt lat="44.7380666155" lon="39.8599050008"><ele>123.19</ele><time>2018-09-15T12:30:31Z</time></trkpt><trkpt lat="44.7386239283" lon="39.8611312732"><ele>123.67</ele><time>2018-09-15T12:30:52Z</time></trkpt><trkpt lat="44.7391921375" lon="39.8621158954"><ele>125.11</ele><time>2018-09-15T12:31:11Z</time></trkpt><trkpt lat="44.7398294974" lon="39.8629607074"><ele>125.59</ele><time>2018-09-15T12:31:30Z</time></trkpt><trkpt lat="44.7405645065" lon="39.8638529610"><ele>126.07</ele><time>2018-09-15T12:31:50Z</time></trkpt><trkpt lat="44.7413436044" lon="39.8647410236"><ele>126.55</ele><time>2018-09-15T12:32:09Z</time></trkpt><trkpt lat="44.7421873268" lon="39.8657524679"><ele>124.15</ele><time>2018-09-15T12:32:27Z</time></trkpt><trkpt lat="44.7430973500" lon="39.8669898883"><ele>122.71</ele><time>2018-09-15T12:32:47Z</time></trkpt><trkpt lat="44.7438052017" lon="39.8681069445"><ele>122.22</ele><time>2018-09-15T12:33:06Z</time></trkpt><trkpt lat="44.7444537096" lon="39.8691781517"><ele>122.22</ele><time>2018-09-15T12:33:25Z</time></trkpt><trkpt lat="44.7451067436" lon="39.8702508677"><ele>122.71</ele><time>2018-09-15T12:33:44Z</time></trkpt><trkpt lat="44.7456448618" lon="39.8711307999"><ele>122.71</ele><time>2018-09-15T12:34:02Z</time></trkpt><trkpt lat="44.7462767735" lon="39.8721885961"><ele>122.71</ele><time>2018-09-15T12:34:22Z</time></trkpt><trkpt lat="44.7470413707" lon="39.8734593764"><ele>122.71</ele><time>2018-09-15T12:34:45Z</time></trkpt><trkpt lat="44.7476387490" lon="39.8744241334"><ele>122.71</ele><time>2018-09-15T12:35:03Z</time></trkpt><trkpt lat="44.7478087340" lon="39.8747458309"><ele>122.71</ele><time>2018-09-15T12:35:09Z</time></trkpt><trkpt lat="44.7478234023" lon="39.8748001456"><ele>122.71</ele><time>2018-09-15T12:35:10Z</time></trkpt><trkpt lat="44.7478349693" lon="39.8748675361"><ele>122.71</ele><time>2018-09-15T12:35:11Z</time></trkpt><trkpt lat="44.7478407528" lon="39.8749342561"><ele>122.71</ele><time>2018-09-15T12:35:12Z</time></trkpt><trkpt lat="44.7478416748" lon="39.8749978747"><ele>122.71</ele><time>2018-09-15T12:35:13Z</time></trkpt><trkpt lat="44.7478365619" lon="39.8750661872"><ele>122.71</ele><time>2018-09-15T12:35:14Z</time></trkpt><trkpt lat="44.7478261683" lon="39.8751284648"><ele>122.71</ele><time>2018-09-15T12:35:15Z</time></trkpt><trkpt lat="44.7478086501" lon="39.8751916643"><ele>123.19</ele><time>2018-09-15T12:35:16Z</time></trkpt><trkpt lat="44.7477853484" lon="39.8752442189"><ele>123.19</ele><time>2018-09-15T12:35:17Z</time></trkpt><trkpt lat="44.7477515694" lon="39.8752972763"><ele>123.19</ele><time>2018-09-15T12:35:18Z</time></trkpt><trkpt lat="44.7477204725" lon="39.8753356654"><ele>123.19</ele><time>2018-09-15T12:35:19Z</time></trkpt><trkpt lat="44.7476871125" lon="39.8753732163"><ele>123.19</ele><time>2018-09-15T12:35:20Z</time></trkpt><trkpt lat="44.7476509027" lon="39.8754100967"><ele>123.19</ele><time>2018-09-15T12:35:21Z</time></trkpt><trkpt lat="44.7476158664" lon="39.8754488211"><ele>123.19</ele><time>2018-09-15T12:35:22Z</time></trkpt><trkpt lat="44.7471085098" lon="39.8761067167"><ele>123.19</ele><time>2018-09-15T12:35:40Z</time></trkpt><trkpt lat="44.7469242755" lon="39.8765445035"><ele>125.11</ele><time>2018-09-15T12:35:54Z</time></trkpt><trkpt lat="44.7466959525" lon="39.8770425562"><ele>128.47</ele><time>2018-09-15T12:36:12Z</time></trkpt><trkpt lat="44.7464518715" lon="39.8773909081"><ele>130.88</ele><time>2018-09-15T12:36:26Z</time></trkpt><trkpt lat="44.7459870111" lon="39.8777981848"><ele>132.32</ele><time>2018-09-15T12:36:45Z</time></trkpt><trkpt lat="44.7454947419" lon="39.8782044556"><ele>133.28</ele><time>2018-09-15T12:37:01Z</time></trkpt><trkpt lat="44.7448144667" lon="39.8787817173"><ele>130.40</ele><time>2018-09-15T12:37:18Z</time></trkpt><trkpt lat="44.7439854965" lon="39.8795353342"><ele>125.11</ele><time>2018-09-15T12:37:32Z</time></trkpt><trkpt lat="44.7435342986" lon="39.8804257438"><ele>123.67</ele><time>2018-09-15T12:37:43Z</time></trkpt><trkpt lat="44.7430591285" lon="39.8816932552"><ele>125.11</ele><time>2018-09-15T12:38:01Z</time></trkpt><trkpt lat="44.7426382732" lon="39.8827746883"><ele>125.11</ele><time>2018-09-15T12:38:19Z</time></trkpt><trkpt lat="44.7420899291" lon="39.8841891345"><ele>125.11</ele><time>2018-09-15T12:38:42Z</time></trkpt><trkpt lat="44.7415649705" lon="39.8854990583"><ele>126.07</ele><time>2018-09-15T12:39:04Z</time></trkpt><trkpt lat="44.7410851065" lon="39.8864354845"><ele>127.51</ele><time>2018-09-15T12:39:21Z</time></trkpt><trkpt lat="44.7405495867" lon="39.8874601722"><ele>128.47</ele><time>2018-09-15T12:39:39Z</time></trkpt><trkpt lat="44.7399579082" lon="39.8886118457"><ele>128.47</ele><time>2018-09-15T12:39:59Z</time></trkpt><trkpt lat="44.7395571694" lon="39.8894001637"><ele>128.95</ele><time>2018-09-15T12:40:13Z</time></trkpt><trkpt lat="44.7395303473" lon="39.8894334398"><ele>128.95</ele><time>2018-09-15T12:40:14Z</time></trkpt><trkpt lat="44.7394990828" lon="39.8894518800"><ele>128.95</ele><time>2018-09-15T12:40:15Z</time></trkpt><trkpt lat="44.7394673154" lon="39.8894539755"><ele>128.95</ele><time>2018-09-15T12:40:16Z</time></trkpt><trkpt lat="44.7394047864" lon="39.8894275725"><ele>128.47</ele><time>2018-09-15T12:40:18Z</time></trkpt><trkpt lat="44.7393026110" lon="39.8893579189"><ele>127.99</ele><time>2018-09-15T12:40:22Z</time></trkpt><trkpt lat="44.7392907087" lon="39.8893352877"><ele>127.99</ele><time>2018-09-15T12:40:36Z</time></trkpt><trkpt lat="44.7393065505" lon="39.8893260676"><ele>128.47</ele><time>2018-09-15T12:41:07Z</time></trkpt><trkpt lat="44.7393018566" lon="39.8893128242"><ele>126.55</ele><time>2018-09-15T12:41:26Z</time></trkpt><trkpt lat="44.7393503040" lon="39.8894030973"><ele>127.99</ele><time>2018-09-15T12:41:38Z</time></trkpt><trkpt lat="44.7393534053" lon="39.8894235492"><ele>128.47</ele><time>2018-09-15T12:41:43Z</time></trkpt><trkpt lat="44.7393649723" lon="39.8895297479"><ele>128.47</ele><time>2018-09-15T12:41:48Z</time></trkpt><trkpt lat="44.7393657267" lon="39.8895581625"><ele>128.47</ele><time>2018-09-15T12:41:49Z</time></trkpt><trkpt lat="44.7393695824" lon="39.8896194343"><ele>128.47</ele><time>2018-09-15T12:41:51Z</time></trkpt><trkpt lat="44.7392145172" lon="39.8900641780"><ele>128.47</ele><time>2018-09-15T12:42:03Z</time></trkpt><trkpt lat="44.7388393432" lon="39.8907924816"><ele>130.40</ele><time>2018-09-15T12:42:18Z</time></trkpt><trkpt lat="44.7382346727" lon="39.8919677082"><ele>129.92</ele><time>2018-09-15T12:42:39Z</time></trkpt><trkpt lat="44.7376346122" lon="39.8931275960"><ele>130.40</ele><time>2018-09-15T12:42:59Z</time></trkpt><trkpt lat="44.7371452767" lon="39.8940732423"><ele>130.88</ele><time>2018-09-15T12:43:16Z</time></trkpt><trkpt lat="44.7366190609" lon="39.8950890452"><ele>129.43</ele><time>2018-09-15T12:43:34Z</time></trkpt><trkpt lat="44.7360654362" lon="39.8961712327"><ele>128.95</ele><time>2018-09-15T12:43:53Z</time></trkpt><trkpt lat="44.7354600113" lon="39.8973506503"><ele>128.95</ele><time>2018-09-15T12:44:14Z</time></trkpt><trkpt lat="44.7348987591" lon="39.8984446563"><ele>128.95</ele><time>2018-09-15T12:44:33Z</time></trkpt><trkpt lat="44.7343176417" lon="39.8995669931"><ele>128.95</ele><time>2018-09-15T12:44:53Z</time></trkpt><trkpt lat="44.7337257955" lon="39.9007192533"><ele>128.47</ele><time>2018-09-15T12:45:13Z</time></trkpt><trkpt lat="44.7332405671" lon="39.9016602058"><ele>128.95</ele><time>2018-09-15T12:45:30Z</time></trkpt><trkpt lat="44.7326125950" lon="39.9028107058"><ele>129.43</ele><time>2018-09-15T12:45:51Z</time></trkpt><trkpt lat="44.7320759017" lon="39.9038721900"><ele>129.92</ele><time>2018-09-15T12:46:10Z</time></trkpt><trkpt lat="44.7315725684" lon="39.9048974644"><ele>130.40</ele><time>2018-09-15T12:46:29Z</time></trkpt><trkpt lat="44.7310357075" lon="39.9059478007"><ele>130.88</ele><time>2018-09-15T12:46:48Z</time></trkpt><trkpt lat="44.7304674145" lon="39.9070469197"><ele>130.88</ele><time>2018-09-15T12:47:08Z</time></trkpt><trkpt lat="44.7299202438" lon="39.9081182946"><ele>130.88</ele><time>2018-09-15T12:47:26Z</time></trkpt><trkpt lat="44.7294319980" lon="39.9090625998"><ele>131.36</ele><time>2018-09-15T12:47:43Z</time></trkpt><trkpt lat="44.7288692370" lon="39.9099839386"><ele>132.32</ele><time>2018-09-15T12:48:01Z</time></trkpt><trkpt lat="44.7282109223" lon="39.9106626213"><ele>131.84</ele><time>2018-09-15T12:48:18Z</time></trkpt><trkpt lat="44.7274629213" lon="39.9114477541"><ele>132.32</ele><time>2018-09-15T12:48:37Z</time></trkpt><trkpt lat="44.7267999128" lon="39.9121286999"><ele>132.32</ele><time>2018-09-15T12:48:54Z</time></trkpt><trkpt lat="44.7260338068" lon="39.9129207060"><ele>132.32</ele><time>2018-09-15T12:49:14Z</time></trkpt><trkpt lat="44.7253164835" lon="39.9136593193"><ele>132.80</ele><time>2018-09-15T12:49:34Z</time></trkpt><trkpt lat="44.7246003337" lon="39.9144035485"><ele>132.80</ele><time>2018-09-15T12:49:54Z</time></trkpt><trkpt lat="44.7243211325" lon="39.9146948196"><ele>132.80</ele><time>2018-09-15T12:50:02Z</time></trkpt><trkpt lat="44.7236985248" lon="39.9153302517"><ele>133.28</ele><time>2018-09-15T12:50:19Z</time></trkpt><trkpt lat="44.7232080996" lon="39.9158358481"><ele>133.76</ele><time>2018-09-15T12:50:34Z</time></trkpt><trkpt lat="44.7225781996" lon="39.9164832663"><ele>134.72</ele><time>2018-09-15T12:50:51Z</time></trkpt><trkpt lat="44.7219286859" lon="39.9171479512"><ele>134.24</ele><time>2018-09-15T12:51:09Z</time></trkpt><trkpt lat="44.7211419605" lon="39.9179747421"><ele>135.20</ele><time>2018-09-15T12:51:31Z</time></trkpt><trkpt lat="44.7205926105" lon="39.9186214898"><ele>134.72</ele><time>2018-09-15T12:51:47Z</time></trkpt><trkpt lat="44.7200457752" lon="39.9192972388"><ele>134.72</ele><time>2018-09-15T12:52:03Z</time></trkpt><trkpt lat="44.7199161071" lon="39.9194689840"><ele>134.72</ele><time>2018-09-15T12:52:07Z</time></trkpt><trkpt lat="44.7197136004" lon="39.9197059404"><ele>135.20</ele><time>2018-09-15T12:52:13Z</time></trkpt><trkpt lat="44.7189581394" lon="39.9206077494"><ele>135.68</ele><time>2018-09-15T12:52:35Z</time></trkpt><trkpt lat="44.7183871642" lon="39.9213151820"><ele>136.16</ele><time>2018-09-15T12:52:52Z</time></trkpt><trkpt lat="44.7178428434" lon="39.9219845608"><ele>135.68</ele><time>2018-09-15T12:53:08Z</time></trkpt><trkpt lat="44.7171761468" lon="39.9227964319"><ele>135.20</ele><time>2018-09-15T12:53:27Z</time></trkpt><trkpt lat="44.7165517788" lon="39.9235688243"><ele>135.68</ele><time>2018-09-15T12:53:45Z</time></trkpt><trkpt lat="44.7158416640" lon="39.9244277179"><ele>136.64</ele><time>2018-09-15T12:54:04Z</time></trkpt><trkpt lat="44.7151411045" lon="39.9252846837"><ele>137.13</ele><time>2018-09-15T12:54:23Z</time></trkpt><trkpt lat="44.7144518606" lon="39.9261455890"><ele>138.09</ele><time>2018-09-15T12:54:42Z</time></trkpt><trkpt lat="44.7136906162" lon="39.9270891398"><ele>138.57</ele><time>2018-09-15T12:55:03Z</time></trkpt><trkpt lat="44.7129952535" lon="39.9279471114"><ele>139.05</ele><time>2018-09-15T12:55:22Z</time></trkpt><trkpt lat="44.7121727373" lon="39.9289578013"><ele>140.01</ele><time>2018-09-15T12:55:44Z</time></trkpt><trkpt lat="44.7114565875" lon="39.9298341293"><ele>140.49</ele><time>2018-09-15T12:56:03Z</time></trkpt><trkpt lat="44.7108856123" lon="39.9305355269"><ele>140.49</ele><time>2018-09-15T12:56:19Z</time></trkpt><trkpt lat="44.7106582951" lon="39.9308153987"><ele>140.97</ele><time>2018-09-15T12:56:26Z</time></trkpt><trkpt lat="44.7105990350" lon="39.9308995530"><ele>140.49</ele><time>2018-09-15T12:56:28Z</time></trkpt><trkpt lat="44.7100598272" lon="39.9315421935"><ele>140.49</ele><time>2018-09-15T12:56:43Z</time></trkpt><trkpt lat="44.7093114909" lon="39.9324600119"><ele>140.97</ele><time>2018-09-15T12:57:04Z</time></trkpt><trkpt lat="44.7086084168" lon="39.9333224259"><ele>140.01</ele><time>2018-09-15T12:57:24Z</time></trkpt><trkpt lat="44.7081358451" lon="39.9339130986"><ele>140.97</ele><time>2018-09-15T12:57:38Z</time></trkpt><trkpt lat="44.7074727528" lon="39.9347191025"><ele>141.45</ele><time>2018-09-15T12:57:57Z</time></trkpt><trkpt lat="44.7068245802" lon="39.9353530258"><ele>141.93</ele><time>2018-09-15T12:58:14Z</time></trkpt><trkpt lat="44.7061356716" lon="39.9358561914"><ele>141.93</ele><time>2018-09-15T12:58:31Z</time></trkpt><trkpt lat="44.7052834835" lon="39.9364538211"><ele>141.45</ele><time>2018-09-15T12:58:52Z</time></trkpt><trkpt lat="44.7046503145" lon="39.9369004089"><ele>141.93</ele><time>2018-09-15T12:59:08Z</time></trkpt><trkpt lat="44.7038994636" lon="39.9374360126"><ele>142.89</ele><time>2018-09-15T12:59:26Z</time></trkpt><trkpt lat="44.7037766688" lon="39.9375224300"><ele>143.37</ele><time>2018-09-15T12:59:29Z</time></trkpt><trkpt lat="44.7031135764" lon="39.9380074907"><ele>143.85</ele><time>2018-09-15T12:59:45Z</time></trkpt><trkpt lat="44.7023525834" lon="39.9385267496"><ele>144.34</ele><time>2018-09-15T13:00:03Z</time></trkpt><trkpt lat="44.7019022238" lon="39.9388580024"><ele>144.34</ele><time>2018-09-15T13:00:14Z</time></trkpt><trkpt lat="44.7013647761" lon="39.9392258003"><ele>145.78</ele><time>2018-09-15T13:00:28Z</time></trkpt><trkpt lat="44.7005704232" lon="39.9397930037"><ele>146.74</ele><time>2018-09-15T13:00:48Z</time></trkpt><trkpt lat="44.6998729650" lon="39.9402793217"><ele>147.22</ele><time>2018-09-15T13:01:05Z</time></trkpt><trkpt lat="44.6990929451" lon="39.9408337846"><ele>145.78</ele><time>2018-09-15T13:01:24Z</time></trkpt><trkpt lat="44.6986311860" lon="39.9411691446"><ele>146.26</ele><time>2018-09-15T13:01:37Z</time></trkpt><trkpt lat="44.6979300398" lon="39.9416687898"><ele>146.26</ele><time>2018-09-15T13:01:55Z</time></trkpt><trkpt lat="44.6971247904" lon="39.9422307126"><ele>147.22</ele><time>2018-09-15T13:02:15Z</time></trkpt><trkpt lat="44.6963265818" lon="39.9427899532"><ele>147.22</ele><time>2018-09-15T13:02:35Z</time></trkpt><trkpt lat="44.6955356654" lon="39.9433976412"><ele>147.22</ele><time>2018-09-15T13:02:56Z</time></trkpt><trkpt lat="44.6950117964" lon="39.9439089373"><ele>146.74</ele><time>2018-09-15T13:03:13Z</time></trkpt><trkpt lat="44.6944705769" lon="39.9444706086"><ele>147.70</ele><time>2018-09-15T13:03:30Z</time></trkpt><trkpt lat="44.6939514857" lon="39.9450043682"><ele>147.70</ele><time>2018-09-15T13:03:46Z</time></trkpt><trkpt lat="44.6933005471" lon="39.9456868228"><ele>148.66</ele><time>2018-09-15T13:04:06Z</time></trkpt><trkpt lat="44.6926686354" lon="39.9463204108"><ele>148.66</ele><time>2018-09-15T13:04:25Z</time></trkpt><trkpt lat="44.6920622885" lon="39.9469332956"><ele>149.14</ele><time>2018-09-15T13:04:43Z</time></trkpt><trkpt lat="44.6915573627" lon="39.9474879261"><ele>149.14</ele><time>2018-09-15T13:04:58Z</time></trkpt><trkpt lat="44.6909478307" lon="39.9481230229"><ele>150.58</ele><time>2018-09-15T13:05:16Z</time></trkpt><trkpt lat="44.6906843036" lon="39.9483930040"><ele>150.58</ele><time>2018-09-15T13:05:24Z</time></trkpt><trkpt lat="44.6906537935" lon="39.9484313093"><ele>150.58</ele><time>2018-09-15T13:05:25Z</time></trkpt><trkpt lat="44.6906193439" lon="39.9484685250"><ele>150.58</ele><time>2018-09-15T13:05:26Z</time></trkpt><trkpt lat="44.6899028588" lon="39.9492161069"><ele>149.62</ele><time>2018-09-15T13:05:46Z</time></trkpt><trkpt lat="44.6892455500" lon="39.9498880003"><ele>150.10</ele><time>2018-09-15T13:06:05Z</time></trkpt><trkpt lat="44.6891746391" lon="39.9499561451"><ele>150.10</ele><time>2018-09-15T13:06:07Z</time></trkpt><trkpt lat="44.6886614989" lon="39.9504969455"><ele>151.06</ele><time>2018-09-15T13:06:23Z</time></trkpt><trkpt lat="44.6886298154" lon="39.9505313952"><ele>151.06</ele><time>2018-09-15T13:06:24Z</time></trkpt><trkpt lat="44.6879394818" lon="39.9512379896"><ele>150.58</ele><time>2018-09-15T13:06:44Z</time></trkpt><trkpt lat="44.6873636451" lon="39.9518177658"><ele>151.06</ele><time>2018-09-15T13:07:01Z</time></trkpt><trkpt lat="44.6870923229" lon="39.9521039240"><ele>150.10</ele><time>2018-09-15T13:07:09Z</time></trkpt><trkpt lat="44.6870602202" lon="39.9521379545"><ele>150.10</ele><time>2018-09-15T13:07:10Z</time></trkpt><trkpt lat="44.6870271955" lon="39.9521707278"><ele>150.10</ele><time>2018-09-15T13:07:11Z</time></trkpt><trkpt lat="44.6865353454" lon="39.9526642542"><ele>151.06</ele><time>2018-09-15T13:07:25Z</time></trkpt><trkpt lat="44.6865003090" lon="39.9526967760"><ele>151.06</ele><time>2018-09-15T13:07:26Z</time></trkpt><trkpt lat="44.6864645183" lon="39.9527317286"><ele>151.06</ele><time>2018-09-15T13:07:27Z</time></trkpt><trkpt lat="44.6864299849" lon="39.9527667649"><ele>150.58</ele><time>2018-09-15T13:07:28Z</time></trkpt><trkpt lat="44.6863955352" lon="39.9528042320"><ele>150.58</ele><time>2018-09-15T13:07:29Z</time></trkpt><trkpt lat="44.6857826505" lon="39.9534198828"><ele>151.06</ele><time>2018-09-15T13:07:46Z</time></trkpt><trkpt lat="44.6850665845" lon="39.9541429058"><ele>151.06</ele><time>2018-09-15T13:08:06Z</time></trkpt><trkpt lat="44.6844816115" lon="39.9547448102"><ele>150.10</ele><time>2018-09-15T13:08:23Z</time></trkpt><trkpt lat="44.6838206984" lon="39.9554183800"><ele>150.10</ele><time>2018-09-15T13:08:42Z</time></trkpt><trkpt lat="44.6831147745" lon="39.9561254773"><ele>151.06</ele><time>2018-09-15T13:09:02Z</time></trkpt><trkpt lat="44.6825188212" lon="39.9567153119"><ele>151.54</ele><time>2018-09-15T13:09:19Z</time></trkpt><trkpt lat="44.6817149129" lon="39.9575590342"><ele>151.54</ele><time>2018-09-15T13:09:43Z</time></trkpt><trkpt lat="44.6810968313" lon="39.9581850786"><ele>151.54</ele><time>2018-09-15T13:10:01Z</time></trkpt><trkpt lat="44.6805300470" lon="39.9589393660"><ele>152.99</ele><time>2018-09-15T13:10:20Z</time></trkpt><trkpt lat="44.6800495125" lon="39.9596923124"><ele>153.47</ele><time>2018-09-15T13:10:37Z</time></trkpt><trkpt lat="44.6795823053" lon="39.9604056124"><ele>154.91</ele><time>2018-09-15T13:10:54Z</time></trkpt><trkpt lat="44.6789742820" lon="39.9613362551"><ele>154.91</ele><time>2018-09-15T13:11:15Z</time></trkpt><trkpt lat="44.6784680989" lon="39.9621284287"><ele>155.87</ele><time>2018-09-15T13:11:33Z</time></trkpt><trkpt lat="44.6784387622" lon="39.9621693324"><ele>156.35</ele><time>2018-09-15T13:11:34Z</time></trkpt><trkpt lat="44.6779211797" lon="39.9629729893"><ele>155.87</ele><time>2018-09-15T13:11:52Z</time></trkpt><trkpt lat="44.6774555650" lon="39.9636890553"><ele>155.39</ele><time>2018-09-15T13:12:08Z</time></trkpt><trkpt lat="44.6768520679" lon="39.9646297563"><ele>155.39</ele><time>2018-09-15T13:12:29Z</time></trkpt><trkpt lat="44.6763866208" lon="39.9653547071"><ele>156.35</ele><time>2018-09-15T13:12:45Z</time></trkpt><trkpt lat="44.6762363333" lon="39.9655733071"><ele>157.31</ele><time>2018-09-15T13:12:50Z</time></trkpt><trkpt lat="44.6762097627" lon="39.9656133726"><ele>157.31</ele><time>2018-09-15T13:12:51Z</time></trkpt><trkpt lat="44.6761829406" lon="39.9656541087"><ele>157.31</ele><time>2018-09-15T13:12:52Z</time></trkpt><trkpt lat="44.6761104371" lon="39.9657821003"><ele>157.31</ele><time>2018-09-15T13:12:55Z</time></trkpt><trkpt lat="44.6756899171" lon="39.9664285127"><ele>157.31</ele><time>2018-09-15T13:13:10Z</time></trkpt><trkpt lat="44.6752187703" lon="39.9671495240"><ele>156.83</ele><time>2018-09-15T13:13:26Z</time></trkpt><trkpt lat="44.6746635530" lon="39.9680019636"><ele>155.87</ele><time>2018-09-15T13:13:44Z</time></trkpt><trkpt lat="44.6741085034" lon="39.9688741006"><ele>156.83</ele><time>2018-09-15T13:14:03Z</time></trkpt><trkpt lat="44.6735421382" lon="39.9697412923"><ele>158.27</ele><time>2018-09-15T13:14:22Z</time></trkpt><trkpt lat="44.6732357796" lon="39.9702371657"><ele>158.27</ele><time>2018-09-15T13:14:33Z</time></trkpt><trkpt lat="44.6729954705" lon="39.9706042092"><ele>157.31</ele><time>2018-09-15T13:14:41Z</time></trkpt><trkpt lat="44.6729664691" lon="39.9706474598"><ele>157.31</ele><time>2018-09-15T13:14:42Z</time></trkpt><trkpt lat="44.6729383059" lon="39.9706897046"><ele>157.31</ele><time>2018-09-15T13:14:43Z</time></trkpt><trkpt lat="44.6723792329" lon="39.9715553038"><ele>156.83</ele><time>2018-09-15T13:15:03Z</time></trkpt><trkpt lat="44.6718981117" lon="39.9722835235"><ele>158.27</ele><time>2018-09-15T13:15:19Z</time></trkpt><trkpt lat="44.6714311559" lon="39.9730360508"><ele>158.27</ele><time>2018-09-15T13:15:35Z</time></trkpt><trkpt lat="44.6714006457" lon="39.9730794691"><ele>158.75</ele><time>2018-09-15T13:15:36Z</time></trkpt><trkpt lat="44.6713684592" lon="39.9731224682"><ele>158.27</ele><time>2018-09-15T13:15:37Z</time></trkpt><trkpt lat="44.6713381168" lon="39.9731666408"><ele>158.27</ele><time>2018-09-15T13:15:38Z</time></trkpt><trkpt lat="44.6708093025" lon="39.9739614129"><ele>158.27</ele><time>2018-09-15T13:15:56Z</time></trkpt><trkpt lat="44.6702910494" lon="39.9747881200"><ele>159.24</ele><time>2018-09-15T13:16:14Z</time></trkpt><trkpt lat="44.6699433681" lon="39.9752909504"><ele>159.72</ele><time>2018-09-15T13:16:29Z</time></trkpt><trkpt lat="44.6699505765" lon="39.9753062893"><ele>160.20</ele><time>2018-09-15T13:16:35Z</time></trkpt><trkpt lat="44.6697390173" lon="39.9756382126"><ele>161.64</ele><time>2018-09-15T13:16:48Z</time></trkpt><trkpt lat="44.6693871450" lon="39.9761068448"><ele>161.64</ele><time>2018-09-15T13:17:01Z</time></trkpt><trkpt lat="44.6693501808" lon="39.9761725590"><ele>161.64</ele><time>2018-09-15T13:17:09Z</time></trkpt><trkpt lat="44.6693583950" lon="39.9761371873"><ele>162.60</ele><time>2018-09-15T13:17:40Z</time></trkpt><trkpt lat="44.6693493426" lon="39.9761736486"><ele>161.64</ele><time>2018-09-15T13:17:55Z</time></trkpt><trkpt lat="44.6693317406" lon="39.9762413744"><ele>162.12</ele><time>2018-09-15T13:17:59Z</time></trkpt><trkpt lat="44.6693163179" lon="39.9762635864"><ele>162.12</ele><time>2018-09-15T13:18:00Z</time></trkpt><trkpt lat="44.6692993026" lon="39.9762923364"><ele>162.12</ele><time>2018-09-15T13:18:01Z</time></trkpt><trkpt lat="44.6692799404" lon="39.9763263669"><ele>162.12</ele><time>2018-09-15T13:18:02Z</time></trkpt><trkpt lat="44.6692586504" lon="39.9763645884"><ele>162.12</ele><time>2018-09-15T13:18:03Z</time></trkpt><trkpt lat="44.6687823907" lon="39.9770972505"><ele>162.60</ele><time>2018-09-15T13:18:20Z</time></trkpt><trkpt lat="44.6684106532" lon="39.9776574969"><ele>162.60</ele><time>2018-09-15T13:18:35Z</time></trkpt><trkpt lat="44.6684372239" lon="39.9776838999"><ele>162.12</ele><time>2018-09-15T13:18:51Z</time></trkpt><trkpt lat="44.6684394870" lon="39.9776994903"><ele>162.12</ele><time>2018-09-15T13:18:52Z</time></trkpt><trkpt lat="44.6684612799" lon="39.9778663740"><ele>162.60</ele><time>2018-09-15T13:19:01Z</time></trkpt><trkpt lat="44.6684583463" lon="39.9778826348"><ele>162.60</ele><time>2018-09-15T13:19:02Z</time></trkpt><trkpt lat="44.6684538200" lon="39.9778961297"><ele>162.60</ele><time>2018-09-15T13:19:03Z</time></trkpt><trkpt lat="44.6684337873" lon="39.9779258855"><ele>163.08</ele><time>2018-09-15T13:19:18Z</time></trkpt><trkpt lat="44.6684334520" lon="39.9779403862"><ele>162.12</ele><time>2018-09-15T13:19:52Z</time></trkpt><trkpt lat="44.6684373915" lon="39.9779145699"><ele>160.68</ele><time>2018-09-15T13:20:32Z</time></trkpt><trkpt lat="44.6684454381" lon="39.9778596684"><ele>163.56</ele><time>2018-09-15T13:21:08Z</time></trkpt><trkpt lat="44.6684328653" lon="39.9778968003"><ele>163.56</ele><time>2018-09-15T13:21:39Z</time></trkpt><trkpt lat="44.6684229746" lon="39.9779182579"><ele>163.08</ele><time>2018-09-15T13:22:11Z</time></trkpt><trkpt lat="44.6684206277" lon="39.9779429007"><ele>160.68</ele><time>2018-09-15T13:22:45Z</time></trkpt><trkpt lat="44.6684333682" lon="39.9779511150"><ele>157.79</ele><time>2018-09-15T13:23:24Z</time></trkpt><trkpt lat="44.6684341226" lon="39.9779412244"><ele>157.79</ele><time>2018-09-15T13:23:53Z</time></trkpt><trkpt lat="44.6684507187" lon="39.9779268075"><ele>159.24</ele><time>2018-09-15T13:24:25Z</time></trkpt><trkpt lat="44.6684243996" lon="39.9779694714"><ele>162.12</ele><time>2018-09-15T13:24:55Z</time></trkpt><trkpt lat="44.6684154309" lon="39.9779252987"><ele>161.64</ele><time>2018-09-15T13:25:22Z</time></trkpt><trkpt lat="44.6684157662" lon="39.9779822957"><ele>163.56</ele><time>2018-09-15T13:25:50Z</time></trkpt><trkpt lat="44.6684307698" lon="39.9779511150"><ele>164.04</ele><time>2018-09-15T13:26:22Z</time></trkpt><trkpt lat="44.6684207954" lon="39.9779482652"><ele>160.20</ele><time>2018-09-15T13:26:52Z</time></trkpt><trkpt lat="44.6683933027" lon="39.9779522885"><ele>163.08</ele><time>2018-09-15T13:27:12Z</time></trkpt><trkpt lat="44.6683683246" lon="39.9779201858"><ele>164.04</ele><time>2018-09-15T13:27:22Z</time></trkpt><trkpt lat="44.6682757884" lon="39.9779221974"><ele>163.08</ele><time>2018-09-15T13:27:36Z</time></trkpt><trkpt lat="44.6682528220" lon="39.9779141508"><ele>162.60</ele><time>2018-09-15T13:27:58Z</time></trkpt><trkpt lat="44.6681420133" lon="39.9780803639"><ele>163.08</ele><time>2018-09-15T13:28:10Z</time></trkpt><trkpt lat="44.6678747144" lon="39.9784819409"><ele>163.56</ele><time>2018-09-15T13:28:20Z</time></trkpt><trkpt lat="44.6674122009" lon="39.9792131782"><ele>163.56</ele><time>2018-09-15T13:28:37Z</time></trkpt><trkpt lat="44.6669424791" lon="39.9799367040"><ele>163.56</ele><time>2018-09-15T13:28:54Z</time></trkpt><trkpt lat="44.6662707534" lon="39.9809636548"><ele>163.56</ele><time>2018-09-15T13:29:17Z</time></trkpt><trkpt lat="44.6660766285" lon="39.9812568538"><ele>163.56</ele><time>2018-09-15T13:29:24Z</time></trkpt><trkpt lat="44.6660501417" lon="39.9813029543"><ele>163.56</ele><time>2018-09-15T13:29:25Z</time></trkpt><trkpt lat="44.6660152730" lon="39.9813500606"><ele>163.56</ele><time>2018-09-15T13:29:26Z</time></trkpt><trkpt lat="44.6658748761" lon="39.9815206323"><ele>164.04</ele><time>2018-09-15T13:29:36Z</time></trkpt><trkpt lat="44.6658923104" lon="39.9815531541"><ele>161.64</ele><time>2018-09-15T13:29:57Z</time></trkpt><trkpt lat="44.6658918075" lon="39.9815449398"><ele>163.08</ele><time>2018-09-15T13:30:32Z</time></trkpt><trkpt lat="44.6658716910" lon="39.9815797247"><ele>163.08</ele><time>2018-09-15T13:30:40Z</time></trkpt><trkpt lat="44.6658586152" lon="39.9816055410"><ele>162.60</ele><time>2018-09-15T13:30:41Z</time></trkpt><trkpt lat="44.6658397559" lon="39.9816317763"><ele>163.08</ele><time>2018-09-15T13:30:42Z</time></trkpt><trkpt lat="44.6654509194" lon="39.9822229519"><ele>163.08</ele><time>2018-09-15T13:30:56Z</time></trkpt><trkpt lat="44.6649425570" lon="39.9829958472"><ele>163.56</ele><time>2018-09-15T13:31:13Z</time></trkpt><trkpt lat="44.6647998970" lon="39.9832452089"><ele>163.56</ele><time>2018-09-15T13:31:18Z</time></trkpt><trkpt lat="44.6643276606" lon="39.9839908630"><ele>163.56</ele><time>2018-09-15T13:31:34Z</time></trkpt><trkpt lat="44.6638732776" lon="39.9847694580"><ele>163.56</ele><time>2018-09-15T13:31:50Z</time></trkpt><trkpt lat="44.6636947431" lon="39.9850581307"><ele>163.56</ele><time>2018-09-15T13:32:01Z</time></trkpt><trkpt lat="44.6637105010" lon="39.9850322306"><ele>163.56</ele><time>2018-09-15T13:32:19Z</time></trkpt><trkpt lat="44.6636897977" lon="39.9850794207"><ele>163.56</ele><time>2018-09-15T13:32:50Z</time></trkpt><trkpt lat="44.6636022069" lon="39.9852416944"><ele>165.00</ele><time>2018-09-15T13:33:04Z</time></trkpt><trkpt lat="44.6633110195" lon="39.9857437704"><ele>165.48</ele><time>2018-09-15T13:33:16Z</time></trkpt><trkpt lat="44.6627877373" lon="39.9866325036"><ele>164.04</ele><time>2018-09-15T13:33:35Z</time></trkpt><trkpt lat="44.6623398922" lon="39.9874150380"><ele>165.00</ele><time>2018-09-15T13:33:52Z</time></trkpt><trkpt lat="44.6618199628" lon="39.9882605206"><ele>165.48</ele><time>2018-09-15T13:34:10Z</time></trkpt><trkpt lat="44.6616218984" lon="39.9885814637"><ele>165.00</ele><time>2018-09-15T13:34:17Z</time></trkpt><trkpt lat="44.6614827588" lon="39.9888052605"><ele>165.48</ele><time>2018-09-15T13:34:22Z</time></trkpt><trkpt lat="44.6610080916" lon="39.9896069895"><ele>165.48</ele><time>2018-09-15T13:34:39Z</time></trkpt><trkpt lat="44.6605688799" lon="39.9904065393"><ele>165.48</ele><time>2018-09-15T13:34:56Z</time></trkpt><trkpt lat="44.6602159180" lon="39.9910545442"><ele>167.41</ele><time>2018-09-15T13:35:13Z</time></trkpt><trkpt lat="44.6598458569" lon="39.9918618053"><ele>166.45</ele><time>2018-09-15T13:35:32Z</time></trkpt><trkpt lat="44.6597849205" lon="39.9920136016"><ele>166.45</ele><time>2018-09-15T13:35:35Z</time></trkpt><trkpt lat="44.6594183799" lon="39.9930370320"><ele>165.96</ele><time>2018-09-15T13:35:52Z</time></trkpt><trkpt lat="44.6590151265" lon="39.9940914754"><ele>167.41</ele><time>2018-09-15T13:36:08Z</time></trkpt><trkpt lat="44.6589860413" lon="39.9941506516"><ele>167.41</ele><time>2018-09-15T13:36:09Z</time></trkpt><trkpt lat="44.6583666187" lon="39.9949992355"><ele>166.93</ele><time>2018-09-15T13:36:26Z</time></trkpt><trkpt lat="44.6581383795" lon="39.9952555541"><ele>166.93</ele><time>2018-09-15T13:36:33Z</time></trkpt><trkpt lat="44.6575361397" lon="39.9959370028"><ele>166.93</ele><time>2018-09-15T13:36:50Z</time></trkpt><trkpt lat="44.6570923179" lon="39.9965109117"><ele>167.41</ele><time>2018-09-15T13:37:04Z</time></trkpt><trkpt lat="44.6564707160" lon="39.9974749144"><ele>167.41</ele><time>2018-09-15T13:37:22Z</time></trkpt><trkpt lat="44.6559446678" lon="39.9983961694"><ele>167.89</ele><time>2018-09-15T13:37:39Z</time></trkpt><trkpt lat="44.6554233972" lon="39.9993213639"><ele>169.81</ele><time>2018-09-15T13:37:57Z</time></trkpt><trkpt lat="44.6553653944" lon="39.9994200189"><ele>169.81</ele><time>2018-09-15T13:37:59Z</time></trkpt><trkpt lat="44.6553359739" lon="39.9994688854"><ele>169.81</ele><time>2018-09-15T13:38:00Z</time></trkpt><trkpt lat="44.6548305452" lon="40.0003736280"><ele>170.29</ele><time>2018-09-15T13:38:19Z</time></trkpt><trkpt lat="44.6548087522" lon="40.0004143640"><ele>169.81</ele><time>2018-09-15T13:38:26Z</time></trkpt><trkpt lat="44.6548175532" lon="40.0003908109"><ele>169.81</ele><time>2018-09-15T13:38:58Z</time></trkpt><trkpt lat="44.6548121050" lon="40.0003933255"><ele>169.33</ele><time>2018-09-15T13:39:29Z</time></trkpt><trkpt lat="44.6546881367" lon="40.0006412622"><ele>169.81</ele><time>2018-09-15T13:39:40Z</time></trkpt><trkpt lat="44.6542254556" lon="40.0014373753"><ele>169.33</ele><time>2018-09-15T13:39:57Z</time></trkpt><trkpt lat="44.6537534706" lon="40.0022593886"><ele>168.85</ele><time>2018-09-15T13:40:14Z</time></trkpt><trkpt lat="44.6533078887" lon="40.0030177832"><ele>168.37</ele><time>2018-09-15T13:40:30Z</time></trkpt><trkpt lat="44.6531415079" lon="40.0033051986"><ele>168.37</ele><time>2018-09-15T13:40:36Z</time></trkpt><trkpt lat="44.6531134285" lon="40.0033523887"><ele>168.37</ele><time>2018-09-15T13:40:37Z</time></trkpt><trkpt lat="44.6526474785" lon="40.0041495077"><ele>168.37</ele><time>2018-09-15T13:40:54Z</time></trkpt><trkpt lat="44.6521329973" lon="40.0050487183"><ele>168.85</ele><time>2018-09-15T13:41:13Z</time></trkpt><trkpt lat="44.6516154986" lon="40.0059363618"><ele>169.81</ele><time>2018-09-15T13:41:32Z</time></trkpt><trkpt lat="44.6511633787" lon="40.0067181420"><ele>169.81</ele><time>2018-09-15T13:41:49Z</time></trkpt><trkpt lat="44.6506030485" lon="40.0076878443"><ele>170.29</ele><time>2018-09-15T13:42:10Z</time></trkpt><trkpt lat="44.6502578817" lon="40.0083003100"><ele>170.29</ele><time>2018-09-15T13:42:23Z</time></trkpt><trkpt lat="44.6497702226" lon="40.0091374945"><ele>170.29</ele><time>2018-09-15T13:42:41Z</time></trkpt><trkpt lat="44.6495913528" lon="40.0094381534"><ele>170.77</ele><time>2018-09-15T13:42:48Z</time></trkpt><trkpt lat="44.6490890253" lon="40.0103143137"><ele>170.77</ele><time>2018-09-15T13:43:07Z</time></trkpt><trkpt lat="44.6484732069" lon="40.0113877840"><ele>172.21</ele><time>2018-09-15T13:43:30Z</time></trkpt><trkpt lat="44.6482561994" lon="40.0117538217"><ele>172.69</ele><time>2018-09-15T13:43:38Z</time></trkpt><trkpt lat="44.6482308023" lon="40.0117988326"><ele>172.69</ele><time>2018-09-15T13:43:39Z</time></trkpt><trkpt lat="44.6477217693" lon="40.0126719754"><ele>173.17</ele><time>2018-09-15T13:43:58Z</time></trkpt><trkpt lat="44.6472142451" lon="40.0135058071"><ele>174.14</ele><time>2018-09-15T13:44:16Z</time></trkpt><trkpt lat="44.6467810683" lon="40.0142221246"><ele>173.66</ele><time>2018-09-15T13:44:32Z</time></trkpt><trkpt lat="44.6461730450" lon="40.0152616482"><ele>173.17</ele><time>2018-09-15T13:44:54Z</time></trkpt><trkpt lat="44.6457138006" lon="40.0160523131"><ele>173.66</ele><time>2018-09-15T13:45:11Z</time></trkpt><trkpt lat="44.6452405583" lon="40.0168991368"><ele>173.66</ele><time>2018-09-15T13:45:29Z</time></trkpt><trkpt lat="44.6449803002" lon="40.0173577107"><ele>173.66</ele><time>2018-09-15T13:45:39Z</time></trkpt><trkpt lat="44.6449517179" lon="40.0174023863"><ele>174.14</ele><time>2018-09-15T13:45:40Z</time></trkpt><trkpt lat="44.6444939822" lon="40.0181719288"><ele>175.10</ele><time>2018-09-15T13:45:58Z</time></trkpt><trkpt lat="44.6441017091" lon="40.0188795291"><ele>175.58</ele><time>2018-09-15T13:46:14Z</time></trkpt><trkpt lat="44.6437276248" lon="40.0195548590"><ele>175.58</ele><time>2018-09-15T13:46:29Z</time></trkpt><trkpt lat="44.6437036525" lon="40.0196028873"><ele>175.58</ele><time>2018-09-15T13:46:30Z</time></trkpt><trkpt lat="44.6432154905" lon="40.0204560813"><ele>176.06</ele><time>2018-09-15T13:46:48Z</time></trkpt><trkpt lat="44.6426917892" lon="40.0213723909"><ele>177.50</ele><time>2018-09-15T13:47:07Z</time></trkpt><trkpt lat="44.6421974245" lon="40.0222368166"><ele>177.50</ele><time>2018-09-15T13:47:25Z</time></trkpt><trkpt lat="44.6418001223" lon="40.0229171757"><ele>178.46</ele><time>2018-09-15T13:47:40Z</time></trkpt><trkpt lat="44.6413075179" lon="40.0237553660"><ele>177.98</ele><time>2018-09-15T13:47:58Z</time></trkpt><trkpt lat="44.6408068668" lon="40.0246254075"><ele>178.94</ele><time>2018-09-15T13:48:17Z</time></trkpt><trkpt lat="44.6403239854" lon="40.0254654419"><ele>178.94</ele><time>2018-09-15T13:48:35Z</time></trkpt><trkpt lat="44.6399487276" lon="40.0261078309"><ele>179.90</ele><time>2018-09-15T13:48:49Z</time></trkpt><trkpt lat="44.6394974459" lon="40.0268912036"><ele>179.90</ele><time>2018-09-15T13:49:06Z</time></trkpt><trkpt lat="44.6391644329" lon="40.0274507795"><ele>180.38</ele><time>2018-09-15T13:49:19Z</time></trkpt><trkpt lat="44.6386887599" lon="40.0282789953"><ele>180.87</ele><time>2018-09-15T13:49:36Z</time></trkpt><trkpt lat="44.6381985862" lon="40.0291023497"><ele>180.38</ele><time>2018-09-15T13:49:53Z</time></trkpt><trkpt lat="44.6376454644" lon="40.0300194975"><ele>179.90</ele><time>2018-09-15T13:50:11Z</time></trkpt><trkpt lat="44.6369044203" lon="40.0312948041"><ele>180.38</ele><time>2018-09-15T13:50:35Z</time></trkpt><trkpt lat="44.6364051942" lon="40.0321728922"><ele>181.35</ele><time>2018-09-15T13:50:52Z</time></trkpt><trkpt lat="44.6359064709" lon="40.0330271758"><ele>181.35</ele><time>2018-09-15T13:51:09Z</time></trkpt><trkpt lat="44.6352582145" lon="40.0341630913"><ele>182.31</ele><time>2018-09-15T13:51:30Z</time></trkpt><trkpt lat="44.6346342657" lon="40.0352916308"><ele>182.79</ele><time>2018-09-15T13:51:51Z</time></trkpt><trkpt lat="44.6341157611" lon="40.0362009834"><ele>183.27</ele><time>2018-09-15T13:52:10Z</time></trkpt><trkpt lat="44.6335595381" lon="40.0371550117"><ele>183.75</ele><time>2018-09-15T13:52:29Z</time></trkpt><trkpt lat="44.6329627465" lon="40.0381851476"><ele>183.27</ele><time>2018-09-15T13:52:49Z</time></trkpt><trkpt lat="44.6326974593" lon="40.0386117864"><ele>183.75</ele><time>2018-09-15T13:52:58Z</time></trkpt><trkpt lat="44.6323424857" lon="40.0392326340"><ele>184.71</ele><time>2018-09-15T13:53:12Z</time></trkpt><trkpt lat="44.6317228116" lon="40.0403529592"><ele>184.71</ele><time>2018-09-15T13:53:34Z</time></trkpt><trkpt lat="44.6310785785" lon="40.0414685905"><ele>184.23</ele><time>2018-09-15T13:53:56Z</time></trkpt><trkpt lat="44.6310287062" lon="40.0415614620"><ele>184.23</ele><time>2018-09-15T13:53:58Z</time></trkpt><trkpt lat="44.6304579824" lon="40.0425428152"><ele>185.19</ele><time>2018-09-15T13:54:18Z</time></trkpt><trkpt lat="44.6300188545" lon="40.0432914868"><ele>185.19</ele><time>2018-09-15T13:54:34Z</time></trkpt><trkpt lat="44.6297218837" lon="40.0438125059"><ele>186.15</ele><time>2018-09-15T13:54:47Z</time></trkpt><trkpt lat="44.6292649861" lon="40.0446146540"><ele>187.11</ele><time>2018-09-15T13:55:04Z</time></trkpt><trkpt lat="44.6287971921" lon="40.0454047322"><ele>187.11</ele><time>2018-09-15T13:55:21Z</time></trkpt><trkpt lat="44.6283889934" lon="40.0460494682"><ele>187.11</ele><time>2018-09-15T13:55:36Z</time></trkpt><trkpt lat="44.6278884262" lon="40.0469411351"><ele>188.08</ele><time>2018-09-15T13:55:55Z</time></trkpt><trkpt lat="44.6273312811" lon="40.0479014497"><ele>188.56</ele><time>2018-09-15T13:56:16Z</time></trkpt><trkpt lat="44.6269763075" lon="40.0485274941"><ele>189.04</ele><time>2018-09-15T13:56:30Z</time></trkpt><trkpt lat="44.6264122054" lon="40.0495341606"><ele>190.00</ele><time>2018-09-15T13:56:52Z</time></trkpt><trkpt lat="44.6260061860" lon="40.0502646435"><ele>191.44</ele><time>2018-09-15T13:57:08Z</time></trkpt><trkpt lat="44.6255464386" lon="40.0509957969"><ele>192.40</ele><time>2018-09-15T13:57:26Z</time></trkpt><trkpt lat="44.6251752879" lon="40.0516417064"><ele>191.92</ele><time>2018-09-15T13:57:41Z</time></trkpt><trkpt lat="44.6247304603" lon="40.0524395797"><ele>191.92</ele><time>2018-09-15T13:57:58Z</time></trkpt><trkpt lat="44.6242787596" lon="40.0532242935"><ele>193.36</ele><time>2018-09-15T13:58:15Z</time></trkpt><trkpt lat="44.6237643622" lon="40.0540984422"><ele>192.88</ele><time>2018-09-15T13:58:34Z</time></trkpt><trkpt lat="44.6233044472" lon="40.0549063738"><ele>192.40</ele><time>2018-09-15T13:58:51Z</time></trkpt><trkpt lat="44.6232285071" lon="40.0550409872"><ele>191.92</ele><time>2018-09-15T13:58:54Z</time></trkpt><trkpt lat="44.6228641458" lon="40.0557062589"><ele>190.00</ele><time>2018-09-15T13:59:10Z</time></trkpt><trkpt lat="44.6225658339" lon="40.0562655833"><ele>190.00</ele><time>2018-09-15T13:59:24Z</time></trkpt><trkpt lat="44.6223698650" lon="40.0566321239"><ele>189.04</ele><time>2018-09-15T13:59:37Z</time></trkpt><trkpt lat="44.6222581342" lon="40.0569864269"><ele>191.44</ele><time>2018-09-15T13:59:46Z</time></trkpt><trkpt lat="44.6221958566" lon="40.0576058496"><ele>192.40</ele><time>2018-09-15T13:59:58Z</time></trkpt><trkpt lat="44.6223859582" lon="40.0578105357"><ele>192.88</ele><time>2018-09-15T14:00:04Z</time></trkpt><trkpt lat="44.6224231739" lon="40.0578373577"><ele>192.88</ele><time>2018-09-15T14:00:05Z</time></trkpt><trkpt lat="44.6224555280" lon="40.0578619167"><ele>192.88</ele><time>2018-09-15T14:00:06Z</time></trkpt><trkpt lat="44.6227973420" lon="40.0582505856"><ele>193.84</ele><time>2018-09-15T14:00:18Z</time></trkpt><trkpt lat="44.6227562707" lon="40.0589289330"><ele>195.28</ele><time>2018-09-15T14:00:31Z</time></trkpt><trkpt lat="44.6226925682" lon="40.0594835635"><ele>196.73</ele><time>2018-09-15T14:00:45Z</time></trkpt><trkpt lat="44.6226337273" lon="40.0600162335"><ele>197.69</ele><time>2018-09-15T14:01:00Z</time></trkpt><trkpt lat="44.6225629840" lon="40.0606869534"><ele>197.21</ele><time>2018-09-15T14:01:14Z</time></trkpt><trkpt lat="44.6224961802" lon="40.0613002572"><ele>198.17</ele><time>2018-09-15T14:01:26Z</time></trkpt><trkpt lat="44.6224069968" lon="40.0621095300"><ele>198.65</ele><time>2018-09-15T14:01:41Z</time></trkpt><trkpt lat="44.6223044023" lon="40.0629518274"><ele>199.13</ele><time>2018-09-15T14:01:57Z</time></trkpt><trkpt lat="44.6222007181" lon="40.0638699811"><ele>198.65</ele><time>2018-09-15T14:02:15Z</time></trkpt><trkpt lat="44.6221207548" lon="40.0646340754"><ele>198.65</ele><time>2018-09-15T14:02:29Z</time></trkpt><trkpt lat="44.6219837107" lon="40.0657882635"><ele>199.13</ele><time>2018-09-15T14:02:49Z</time></trkpt><trkpt lat="44.6219355986" lon="40.0662501063"><ele>199.61</ele><time>2018-09-15T14:02:57Z</time></trkpt><trkpt lat="44.6218316630" lon="40.0670692697"><ele>200.09</ele><time>2018-09-15T14:03:13Z</time></trkpt><trkpt lat="44.6217482630" lon="40.0676676538"><ele>199.61</ele><time>2018-09-15T14:03:28Z</time></trkpt><trkpt lat="44.6216651145" lon="40.0685122143"><ele>199.61</ele><time>2018-09-15T14:03:44Z</time></trkpt><trkpt lat="44.6215599217" lon="40.0694452040"><ele>199.13</ele><time>2018-09-15T14:04:01Z</time></trkpt><trkpt lat="44.6214418206" lon="40.0706272200"><ele>199.13</ele><time>2018-09-15T14:04:21Z</time></trkpt><trkpt lat="44.6213718317" lon="40.0712027214"><ele>198.65</ele><time>2018-09-15T14:04:31Z</time></trkpt><trkpt lat="44.6212619450" lon="40.0722178537"><ele>199.13</ele><time>2018-09-15T14:04:48Z</time></trkpt><trkpt lat="44.6211435087" lon="40.0732548628"><ele>200.09</ele><time>2018-09-15T14:05:06Z</time></trkpt><trkpt lat="44.6210244857" lon="40.0742585119"><ele>200.09</ele><time>2018-09-15T14:05:23Z</time></trkpt><trkpt lat="44.6209156048" lon="40.0753684435"><ele>200.09</ele><time>2018-09-15T14:05:42Z</time></trkpt><trkpt lat="44.6208002698" lon="40.0763122458"><ele>201.05</ele><time>2018-09-15T14:06:00Z</time></trkpt><trkpt lat="44.6207119245" lon="40.0771856401"><ele>202.01</ele><time>2018-09-15T14:06:17Z</time></trkpt><trkpt lat="44.6206095815" lon="40.0780635606"><ele>202.01</ele><time>2018-09-15T14:06:33Z</time></trkpt><trkpt lat="44.6205258463" lon="40.0787791237"><ele>201.53</ele><time>2018-09-15T14:06:48Z</time></trkpt><trkpt lat="44.6204305440" lon="40.0796012208"><ele>201.53</ele><time>2018-09-15T14:07:04Z</time></trkpt><trkpt lat="44.6203170530" lon="40.0805626251"><ele>202.01</ele><time>2018-09-15T14:07:22Z</time></trkpt><trkpt lat="44.6201949287" lon="40.0816242769"><ele>202.49</ele><time>2018-09-15T14:07:41Z</time></trkpt><trkpt lat="44.6200785041" lon="40.0826969091"><ele>202.49</ele><time>2018-09-15T14:07:59Z</time></trkpt><trkpt lat="44.6199327428" lon="40.0839319825"><ele>203.46</ele><time>2018-09-15T14:08:20Z</time></trkpt><trkpt lat="44.6198122948" lon="40.0849840790"><ele>202.01</ele><time>2018-09-15T14:08:39Z</time></trkpt><trkpt lat="44.6196815372" lon="40.0860645901"><ele>201.05</ele><time>2018-09-15T14:08:58Z</time></trkpt><trkpt lat="44.6195758414" lon="40.0870128348"><ele>202.01</ele><time>2018-09-15T14:09:14Z</time></trkpt><trkpt lat="44.6194559801" lon="40.0881288014"><ele>202.98</ele><time>2018-09-15T14:09:33Z</time></trkpt><trkpt lat="44.6193206124" lon="40.0892673992"><ele>203.94</ele><time>2018-09-15T14:09:52Z</time></trkpt><trkpt lat="44.6192975622" lon="40.0894847419"><ele>204.42</ele><time>2018-09-15T14:09:56Z</time></trkpt><trkpt lat="44.6191999968" lon="40.0903791748"><ele>204.90</ele><time>2018-09-15T14:10:12Z</time></trkpt><trkpt lat="44.6190930437" lon="40.0913306046"><ele>205.38</ele><time>2018-09-15T14:10:29Z</time></trkpt><trkpt lat="44.6189960651" lon="40.0922587328"><ele>205.86</ele><time>2018-09-15T14:10:45Z</time></trkpt><trkpt lat="44.6188595239" lon="40.0933893677"><ele>205.38</ele><time>2018-09-15T14:11:04Z</time></trkpt><trkpt lat="44.6187381539" lon="40.0944516901"><ele>206.82</ele><time>2018-09-15T14:11:22Z</time></trkpt><trkpt lat="44.6186745353" lon="40.0949632376"><ele>207.30</ele><time>2018-09-15T14:11:34Z</time></trkpt><trkpt lat="44.6186692547" lon="40.0949534308"><ele>207.78</ele><time>2018-09-15T14:11:54Z</time></trkpt><trkpt lat="44.6186370682" lon="40.0952370744"><ele>207.78</ele><time>2018-09-15T14:12:04Z</time></trkpt><trkpt lat="44.6185656544" lon="40.0959884282"><ele>208.74</ele><time>2018-09-15T14:12:18Z</time></trkpt><trkpt lat="44.6184533369" lon="40.0969294645"><ele>207.30</ele><time>2018-09-15T14:12:33Z</time></trkpt><trkpt lat="44.6183080785" lon="40.0982761011"><ele>207.30</ele><time>2018-09-15T14:12:53Z</time></trkpt><trkpt lat="44.6181416977" lon="40.0997428503"><ele>208.26</ele><time>2018-09-15T14:13:15Z</time></trkpt><trkpt lat="44.6180019714" lon="40.1009396184"><ele>209.22</ele><time>2018-09-15T14:13:34Z</time></trkpt><trkpt lat="44.6179233491" lon="40.1016680896"><ele>208.74</ele><time>2018-09-15T14:13:47Z</time></trkpt><trkpt lat="44.6178099420" lon="40.1026379596"><ele>208.26</ele><time>2018-09-15T14:14:04Z</time></trkpt><trkpt lat="44.6177062578" lon="40.1035748050"><ele>209.22</ele><time>2018-09-15T14:14:20Z</time></trkpt><trkpt lat="44.6176146436" lon="40.1043657213"><ele>209.70</ele><time>2018-09-15T14:14:38Z</time></trkpt><trkpt lat="44.6175978798" lon="40.1043827366"><ele>209.70</ele><time>2018-09-15T14:14:39Z</time></trkpt><trkpt lat="44.6175666992" lon="40.1044285018"><ele>210.67</ele><time>2018-09-15T14:14:48Z</time></trkpt><trkpt lat="44.6175754163" lon="40.1044326089"><ele>211.15</ele><time>2018-09-15T14:15:02Z</time></trkpt><trkpt lat="44.6175760031" lon="40.1044364646"><ele>213.07</ele><time>2018-09-15T14:15:32Z</time></trkpt><trkpt lat="44.6175786015" lon="40.1044537313"><ele>214.99</ele><time>2018-09-15T14:16:02Z</time></trkpt><trkpt lat="44.6175658610" lon="40.1044091396"><ele>211.15</ele><time>2018-09-15T14:16:42Z</time></trkpt><trkpt lat="44.6175583173" lon="40.1044315193"><ele>211.15</ele><time>2018-09-15T14:17:13Z</time></trkpt><trkpt lat="44.6175778471" lon="40.1044285018"><ele>213.07</ele><time>2018-09-15T14:17:51Z</time></trkpt><trkpt lat="44.6176215168" lon="40.1044290885"><ele>218.36</ele><time>2018-09-15T14:18:23Z</time></trkpt><trkpt lat="44.6175802778" lon="40.1044005901"><ele>214.99</ele><time>2018-09-15T14:18:57Z</time></trkpt><trkpt lat="44.6175754163" lon="40.1043899450"><ele>217.88</ele><time>2018-09-15T14:19:37Z</time></trkpt><trkpt lat="44.6175631788" lon="40.1043603569"><ele>218.84</ele><time>2018-09-15T14:20:11Z</time></trkpt><trkpt lat="44.6175951138" lon="40.1044348720"><ele>218.84</ele><time>2018-09-15T14:20:47Z</time></trkpt><trkpt lat="44.6175806969" lon="40.1044166833"><ele>216.43</ele><time>2018-09-15T14:21:23Z</time></trkpt><trkpt lat="44.6175793558" lon="40.1043829881"><ele>216.43</ele><time>2018-09-15T14:21:49Z</time></trkpt><trkpt lat="44.6176161524" lon="40.1043715887"><ele>216.43</ele><time>2018-09-15T14:22:19Z</time></trkpt><trkpt lat="44.6176024061" lon="40.1043928787"><ele>217.88</ele><time>2018-09-15T14:22:46Z</time></trkpt><trkpt lat="44.6176134702" lon="40.1043749414"><ele>214.99</ele><time>2018-09-15T14:23:23Z</time></trkpt><trkpt lat="44.6175884921" lon="40.1044239756"><ele>216.43</ele><time>2018-09-15T14:24:04Z</time></trkpt><trkpt lat="44.6175584011" lon="40.1044181082"><ele>211.15</ele><time>2018-09-15T14:24:31Z</time></trkpt><trkpt lat="44.6175807808" lon="40.1044336986"><ele>214.03</ele><time>2018-09-15T14:24:59Z</time></trkpt><trkpt lat="44.6175799426" lon="40.1044178568"><ele>211.63</ele><time>2018-09-15T14:25:38Z</time></trkpt><trkpt lat="44.6175552998" lon="40.1044616941"><ele>211.63</ele><time>2018-09-15T14:25:49Z</time></trkpt><trkpt lat="44.6175615862" lon="40.1045787055"><ele>212.11</ele><time>2018-09-15T14:26:05Z</time></trkpt><trkpt lat="44.6175739914" lon="40.1046097185"><ele>213.07</ele><time>2018-09-15T14:26:17Z</time></trkpt><trkpt lat="44.6175364405" lon="40.1051058434"><ele>214.03</ele><time>2018-09-15T14:26:30Z</time></trkpt><trkpt lat="44.6174673736" lon="40.1058321353"><ele>215.95</ele><time>2018-09-15T14:26:44Z</time></trkpt><trkpt lat="44.6173966303" lon="40.1065879315"><ele>215.95</ele><time>2018-09-15T14:26:59Z</time></trkpt><trkpt lat="44.6172923595" lon="40.1069409773"><ele>215.47</ele><time>2018-09-15T14:27:11Z</time></trkpt><trkpt lat="44.6172943711" lon="40.1070072781"><ele>215.47</ele><time>2018-09-15T14:27:21Z</time></trkpt><trkpt lat="44.6172906831" lon="40.1070175041"><ele>212.11</ele><time>2018-09-15T14:27:53Z</time></trkpt><trkpt lat="44.6173030883" lon="40.1070289034"><ele>214.51</ele><time>2018-09-15T14:28:20Z</time></trkpt><trkpt lat="44.6173128113" lon="40.1070802845"><ele>214.51</ele><time>2018-09-15T14:28:36Z</time></trkpt><trkpt lat="44.6173138171" lon="40.1071035024"><ele>214.51</ele><time>2018-09-15T14:28:37Z</time></trkpt><trkpt lat="44.6173139848" lon="40.1071365271"><ele>214.51</ele><time>2018-09-15T14:28:38Z</time></trkpt><trkpt lat="44.6173106320" lon="40.1071756706"><ele>214.03</ele><time>2018-09-15T14:28:39Z</time></trkpt><trkpt lat="44.6173047647" lon="40.1072174963"><ele>214.03</ele><time>2018-09-15T14:28:40Z</time></trkpt><trkpt lat="44.6173019987" lon="40.1072595734"><ele>214.51</ele><time>2018-09-15T14:28:41Z</time></trkpt><trkpt lat="44.6172483545" lon="40.1079611387"><ele>214.03</ele><time>2018-09-15T14:28:55Z</time></trkpt><trkpt lat="44.6171990689" lon="40.1085540745"><ele>213.55</ele><time>2018-09-15T14:29:08Z</time></trkpt><trkpt lat="44.6171922795" lon="40.1086117420"><ele>213.55</ele><time>2018-09-15T14:29:09Z</time></trkpt><trkpt lat="44.6171887591" lon="40.1086706668"><ele>213.55</ele><time>2018-09-15T14:29:10Z</time></trkpt><trkpt lat="44.6171455923" lon="40.1091622654"><ele>214.03</ele><time>2018-09-15T14:29:18Z</time></trkpt><trkpt lat="44.6171356179" lon="40.1092175022"><ele>214.03</ele><time>2018-09-15T14:29:19Z</time></trkpt><trkpt lat="44.6170662995" lon="40.1100522559"><ele>214.51</ele><time>2018-09-15T14:29:33Z</time></trkpt><trkpt lat="44.6170514636" lon="40.1101785712"><ele>214.51</ele><time>2018-09-15T14:29:35Z</time></trkpt><trkpt lat="44.6170351189" lon="40.1103583630"><ele>214.51</ele><time>2018-09-15T14:29:38Z</time></trkpt><trkpt lat="44.6170274913" lon="40.1104201376"><ele>214.51</ele><time>2018-09-15T14:29:39Z</time></trkpt><trkpt lat="44.6169609390" lon="40.1109935436"><ele>214.03</ele><time>2018-09-15T14:29:48Z</time></trkpt><trkpt lat="44.6168578416" lon="40.1119579654"><ele>214.99</ele><time>2018-09-15T14:30:03Z</time></trkpt><trkpt lat="44.6167775430" lon="40.1127245743"><ele>215.95</ele><time>2018-09-15T14:30:15Z</time></trkpt><trkpt lat="44.6167710051" lon="40.1127861813"><ele>215.95</ele><time>2018-09-15T14:30:16Z</time></trkpt><trkpt lat="44.6166752838" lon="40.1137508545"><ele>215.95</ele><time>2018-09-15T14:30:32Z</time></trkpt><trkpt lat="44.6165503096" lon="40.1150389854"><ele>215.95</ele><time>2018-09-15T14:30:52Z</time></trkpt><trkpt lat="44.6164809912" lon="40.1157846395"><ele>215.47</ele><time>2018-09-15T14:31:03Z</time></trkpt><trkpt lat="44.6164169535" lon="40.1164359972"><ele>215.47</ele><time>2018-09-15T14:31:13Z</time></trkpt><trkpt lat="44.6163898800" lon="40.1166993566"><ele>215.47</ele><time>2018-09-15T14:31:17Z</time></trkpt><trkpt lat="44.6162948292" lon="40.1177130640"><ele>215.47</ele><time>2018-09-15T14:31:32Z</time></trkpt><trkpt lat="44.6161415242" lon="40.1191697549"><ele>214.99</ele><time>2018-09-15T14:31:53Z</time></trkpt><trkpt lat="44.6160250995" lon="40.1203021500"><ele>214.51</ele><time>2018-09-15T14:32:12Z</time></trkpt><trkpt lat="44.6160161309" lon="40.1205162238"><ele>214.51</ele><time>2018-09-15T14:32:19Z</time></trkpt><trkpt lat="44.6159671806" lon="40.1209231652"><ele>213.55</ele><time>2018-09-15T14:32:29Z</time></trkpt><trkpt lat="44.6159659233" lon="40.1209824253"><ele>213.55</ele><time>2018-09-15T14:32:30Z</time></trkpt><trkpt lat="44.6159076691" lon="40.1216052845"><ele>214.51</ele><time>2018-09-15T14:32:40Z</time></trkpt><trkpt lat="44.6158668492" lon="40.1220110524"><ele>214.03</ele><time>2018-09-15T14:32:51Z</time></trkpt><trkpt lat="44.6158323996" lon="40.1224597357"><ele>214.03</ele><time>2018-09-15T14:33:01Z</time></trkpt><trkpt lat="44.6157415397" lon="40.1234480459"><ele>214.51</ele><time>2018-09-15T14:33:14Z</time></trkpt><trkpt lat="44.6155937668" lon="40.1250719558"><ele>213.55</ele><time>2018-09-15T14:33:36Z</time></trkpt><trkpt lat="44.6154255420" lon="40.1267856359"><ele>213.55</ele><time>2018-09-15T14:33:58Z</time></trkpt><trkpt lat="44.6152770985" lon="40.1283787843"><ele>213.55</ele><time>2018-09-15T14:34:19Z</time></trkpt><trkpt lat="44.6151574049" lon="40.1296085771"><ele>214.51</ele><time>2018-09-15T14:34:37Z</time></trkpt><trkpt lat="44.6150555648" lon="40.1307691354"><ele>214.99</ele><time>2018-09-15T14:34:54Z</time></trkpt><trkpt lat="44.6149202809" lon="40.1320827473"><ele>215.95</ele><time>2018-09-15T14:35:13Z</time></trkpt><trkpt lat="44.6148999128" lon="40.1322829071"><ele>215.95</ele><time>2018-09-15T14:35:16Z</time></trkpt><trkpt lat="44.6148875915" lon="40.1323427539"><ele>215.95</ele><time>2018-09-15T14:35:17Z</time></trkpt><trkpt lat="44.6148751862" lon="40.1324083842"><ele>215.95</ele><time>2018-09-15T14:35:18Z</time></trkpt><trkpt lat="44.6148688998" lon="40.1324697398"><ele>215.95</ele><time>2018-09-15T14:35:19Z</time></trkpt><trkpt lat="44.6148646250" lon="40.1325574145"><ele>215.95</ele><time>2018-09-15T14:35:20Z</time></trkpt><trkpt lat="44.6147611085" lon="40.1337131951"><ele>216.91</ele><time>2018-09-15T14:35:38Z</time></trkpt><trkpt lat="44.6146400739" lon="40.1351088658"><ele>217.88</ele><time>2018-09-15T14:35:58Z</time></trkpt><trkpt lat="44.6146201249" lon="40.1353099477"><ele>217.40</ele><time>2018-09-15T14:36:01Z</time></trkpt><trkpt lat="44.6145260800" lon="40.1363281813"><ele>217.40</ele><time>2018-09-15T14:36:17Z</time></trkpt><trkpt lat="44.6143995132" lon="40.1369045209"><ele>217.88</ele><time>2018-09-15T14:36:30Z</time></trkpt><trkpt lat="44.6143281832" lon="40.1375564653"><ele>218.84</ele><time>2018-09-15T14:36:47Z</time></trkpt><trkpt lat="44.6142772213" lon="40.1381646562"><ele>218.36</ele><time>2018-09-15T14:37:02Z</time></trkpt><trkpt lat="44.6142461244" lon="40.1386715099"><ele>218.84</ele><time>2018-09-15T14:37:11Z</time></trkpt><trkpt lat="44.6141895466" lon="40.1394052617"><ele>219.80</ele><time>2018-09-15T14:37:24Z</time></trkpt><trkpt lat="44.6141056437" lon="40.1403526682"><ele>220.28</ele><time>2018-09-15T14:37:41Z</time></trkpt><trkpt lat="44.6140548494" lon="40.1410810556"><ele>222.68</ele><time>2018-09-15T14:37:58Z</time></trkpt><trkpt lat="44.6140175499" lon="40.1417235285"><ele>225.57</ele><time>2018-09-15T14:38:16Z</time></trkpt><trkpt lat="44.6140152030" lon="40.1423385926"><ele>227.49</ele><time>2018-09-15T14:38:34Z</time></trkpt><trkpt lat="44.6140375827" lon="40.1429279242"><ele>229.89</ele><time>2018-09-15T14:38:51Z</time></trkpt><trkpt lat="44.6140945796" lon="40.1436105464"><ele>232.78</ele><time>2018-09-15T14:39:11Z</time></trkpt><trkpt lat="44.6141884569" lon="40.1442753151"><ele>234.70</ele><time>2018-09-15T14:39:31Z</time></trkpt><trkpt lat="44.6143192984" lon="40.1449011080"><ele>236.14</ele><time>2018-09-15T14:39:49Z</time></trkpt><trkpt lat="44.6144836675" lon="40.1454893500"><ele>237.58</ele><time>2018-09-15T14:40:05Z</time></trkpt><trkpt lat="44.6146856714" lon="40.1460893266"><ele>239.99</ele><time>2018-09-15T14:40:21Z</time></trkpt><trkpt lat="44.6149830613" lon="40.1468157023"><ele>240.47</ele><time>2018-09-15T14:40:39Z</time></trkpt><trkpt lat="44.6151940338" lon="40.1474181097"><ele>240.95</ele><time>2018-09-15T14:40:52Z</time></trkpt><trkpt lat="44.6154147293" lon="40.1479423139"><ele>241.91</ele><time>2018-09-15T14:41:03Z</time></trkpt><trkpt lat="44.6154379472" lon="40.1479908451"><ele>241.91</ele><time>2018-09-15T14:41:04Z</time></trkpt><trkpt lat="44.6159233432" lon="40.1490695123"><ele>242.87</ele><time>2018-09-15T14:41:25Z</time></trkpt><trkpt lat="44.6164404228" lon="40.1501632668"><ele>242.39</ele><time>2018-09-15T14:41:45Z</time></trkpt><trkpt lat="44.6167208813" lon="40.1507586334"><ele>242.87</ele><time>2018-09-15T14:41:56Z</time></trkpt><trkpt lat="44.6171191055" lon="40.1516020205"><ele>243.83</ele><time>2018-09-15T14:42:13Z</time></trkpt><trkpt lat="44.6171862446" lon="40.1517345384"><ele>243.83</ele><time>2018-09-15T14:42:16Z</time></trkpt><trkpt lat="44.6176098660" lon="40.1526331622"><ele>243.83</ele><time>2018-09-15T14:42:32Z</time></trkpt><trkpt lat="44.6182101779" lon="40.1539030205"><ele>242.87</ele><time>2018-09-15T14:42:53Z</time></trkpt><trkpt lat="44.6186816599" lon="40.1548732258"><ele>242.87</ele><time>2018-09-15T14:43:11Z</time></trkpt><trkpt lat="44.6192340273" lon="40.1560324430"><ele>241.91</ele><time>2018-09-15T14:43:30Z</time></trkpt><trkpt lat="44.6197376121" lon="40.1570809353"><ele>241.43</ele><time>2018-09-15T14:43:47Z</time></trkpt><trkpt lat="44.6202743892" lon="40.1582012605"><ele>240.95</ele><time>2018-09-15T14:44:05Z</time></trkpt><trkpt lat="44.6208673250" lon="40.1594430394"><ele>239.99</ele><time>2018-09-15T14:44:25Z</time></trkpt><trkpt lat="44.6214266494" lon="40.1606073696"><ele>239.02</ele><time>2018-09-15T14:44:45Z</time></trkpt><trkpt lat="44.6218973771" lon="40.1615975238"><ele>239.02</ele><time>2018-09-15T14:45:02Z</time></trkpt><trkpt lat="44.6220892388" lon="40.1620001905"><ele>239.02</ele><time>2018-09-15T14:45:09Z</time></trkpt><trkpt lat="44.6221144684" lon="40.1620550919"><ele>239.02</ele><time>2018-09-15T14:45:10Z</time></trkpt><trkpt lat="44.6225622296" lon="40.1629879978"><ele>238.06</ele><time>2018-09-15T14:45:27Z</time></trkpt><trkpt lat="44.6229845099" lon="40.1638653316"><ele>237.58</ele><time>2018-09-15T14:45:43Z</time></trkpt><trkpt lat="44.6235381346" lon="40.1649989001"><ele>236.62</ele><time>2018-09-15T14:46:03Z</time></trkpt><trkpt lat="44.6239632647" lon="40.1659582090"><ele>237.10</ele><time>2018-09-15T14:46:18Z</time></trkpt><trkpt lat="44.6245693602" lon="40.1671936177"><ele>237.10</ele><time>2018-09-15T14:46:39Z</time></trkpt><trkpt lat="44.6250747051" lon="40.1682654116"><ele>237.10</ele><time>2018-09-15T14:46:58Z</time></trkpt><trkpt lat="44.6251293551" lon="40.1683709398"><ele>237.10</ele><time>2018-09-15T14:47:00Z</time></trkpt><trkpt lat="44.6256114822" lon="40.1694017462"><ele>238.06</ele><time>2018-09-15T14:47:20Z</time></trkpt><trkpt lat="44.6259771846" lon="40.1701804250"><ele>238.54</ele><time>2018-09-15T14:47:38Z</time></trkpt><trkpt lat="44.6263698768" lon="40.1710059587"><ele>240.47</ele><time>2018-09-15T14:47:56Z</time></trkpt><trkpt lat="44.6267343219" lon="40.1717433147"><ele>240.95</ele><time>2018-09-15T14:48:13Z</time></trkpt><trkpt lat="44.6271119267" lon="40.1725260168"><ele>243.83</ele><time>2018-09-15T14:48:33Z</time></trkpt><trkpt lat="44.6274151839" lon="40.1731364708"><ele>245.27</ele><time>2018-09-15T14:48:50Z</time></trkpt><trkpt lat="44.6277540643" lon="40.1738283969"><ele>247.68</ele><time>2018-09-15T14:49:10Z</time></trkpt><trkpt lat="44.6280742530" lon="40.1745038107"><ele>250.08</ele><time>2018-09-15T14:49:31Z</time></trkpt><trkpt lat="44.6283861436" lon="40.1751881931"><ele>252.48</ele><time>2018-09-15T14:49:52Z</time></trkpt><trkpt lat="44.6286506765" lon="40.1757402252"><ele>254.41</ele><time>2018-09-15T14:50:09Z</time></trkpt><trkpt lat="44.6289497428" lon="40.1763546187"><ele>256.81</ele><time>2018-09-15T14:50:28Z</time></trkpt><trkpt lat="44.6292712726" lon="40.1770293619"><ele>259.21</ele><time>2018-09-15T14:50:48Z</time></trkpt><trkpt lat="44.6295750327" lon="40.1776678953"><ele>261.14</ele><time>2018-09-15T14:51:07Z</time></trkpt><trkpt lat="44.6298290044" lon="40.1782101206"><ele>262.58</ele><time>2018-09-15T14:51:23Z</time></trkpt><trkpt lat="44.6301713213" lon="40.1789225824"><ele>264.50</ele><time>2018-09-15T14:51:45Z</time></trkpt><trkpt lat="44.6304349322" lon="40.1794901211"><ele>266.42</ele><time>2018-09-15T14:52:03Z</time></trkpt><trkpt lat="44.6307236049" lon="40.1800923608"><ele>268.83</ele><time>2018-09-15T14:52:21Z</time></trkpt><trkpt lat="44.6310494095" lon="40.1807888132"><ele>270.27</ele><time>2018-09-15T14:52:41Z</time></trkpt><trkpt lat="44.6313297842" lon="40.1813593693"><ele>271.71</ele><time>2018-09-15T14:52:57Z</time></trkpt><trkpt lat="44.6316208038" lon="40.1819962263"><ele>272.67</ele><time>2018-09-15T14:53:14Z</time></trkpt><trkpt lat="44.6319960617" lon="40.1828065887"><ele>273.63</ele><time>2018-09-15T14:53:33Z</time></trkpt><trkpt lat="44.6324060205" lon="40.1836694218"><ele>273.63</ele><time>2018-09-15T14:53:52Z</time></trkpt><trkpt lat="44.6327648498" lon="40.1844510343"><ele>273.63</ele><time>2018-09-15T14:54:08Z</time></trkpt><trkpt lat="44.6332677640" lon="40.1854980178"><ele>273.63</ele><time>2018-09-15T14:54:27Z</time></trkpt><trkpt lat="44.6337995119" lon="40.1865758467"><ele>273.63</ele><time>2018-09-15T14:54:45Z</time></trkpt><trkpt lat="44.6344505344" lon="40.1879611239"><ele>272.67</ele><time>2018-09-15T14:55:06Z</time></trkpt><trkpt lat="44.6349802706" lon="40.1890646853"><ele>272.19</ele><time>2018-09-15T14:55:24Z</time></trkpt><trkpt lat="44.6355813369" lon="40.1903066318"><ele>270.75</ele><time>2018-09-15T14:55:44Z</time></trkpt><trkpt lat="44.6357441135" lon="40.1906845719"><ele>270.27</ele><time>2018-09-15T14:55:50Z</time></trkpt><trkpt lat="44.6362249833" lon="40.1918944158"><ele>269.31</ele><time>2018-09-15T14:56:08Z</time></trkpt><trkpt lat="44.6366686374" lon="40.1931647770"><ele>267.86</ele><time>2018-09-15T14:56:27Z</time></trkpt><trkpt lat="44.6370385308" lon="40.1939793304"><ele>266.42</ele><time>2018-09-15T14:56:40Z</time></trkpt><trkpt lat="44.6370810270" lon="40.1940250117"><ele>266.42</ele><time>2018-09-15T14:56:41Z</time></trkpt><trkpt lat="44.6371261217" lon="40.1940639876"><ele>265.94</ele><time>2018-09-15T14:56:42Z</time></trkpt><trkpt lat="44.6371746529" lon="40.1941005327"><ele>265.94</ele><time>2018-09-15T14:56:43Z</time></trkpt><trkpt lat="44.6372269560" lon="40.1941338927"><ele>265.94</ele><time>2018-09-15T14:56:44Z</time></trkpt><trkpt lat="44.6375654172" lon="40.1943296101"><ele>264.98</ele><time>2018-09-15T14:56:50Z</time></trkpt><trkpt lat="44.6377570275" lon="40.1945202984"><ele>264.98</ele><time>2018-09-15T14:56:54Z</time></trkpt><trkpt lat="44.6377895493" lon="40.1945856772"><ele>264.98</ele><time>2018-09-15T14:56:55Z</time></trkpt><trkpt lat="44.6383283380" lon="40.1956903283"><ele>263.54</ele><time>2018-09-15T14:57:13Z</time></trkpt><trkpt lat="44.6389508620" lon="40.1969028544"><ele>260.17</ele><time>2018-09-15T14:57:32Z</time></trkpt><trkpt lat="44.6395141259" lon="40.1979780849"><ele>257.29</ele><time>2018-09-15T14:57:48Z</time></trkpt><trkpt lat="44.6395379305" lon="40.1980416197"><ele>257.29</ele><time>2018-09-15T14:57:49Z</time></trkpt><trkpt lat="44.6395519283" lon="40.1981086750"><ele>257.29</ele><time>2018-09-15T14:57:50Z</time></trkpt><trkpt lat="44.6396665089" lon="40.1986156963"><ele>256.81</ele><time>2018-09-15T14:57:57Z</time></trkpt><trkpt lat="44.6396950074" lon="40.1986861043"><ele>256.81</ele><time>2018-09-15T14:57:58Z</time></trkpt><trkpt lat="44.6397271939" lon="40.1987545006"><ele>256.81</ele><time>2018-09-15T14:57:59Z</time></trkpt><trkpt lat="44.6397637390" lon="40.1988190413"><ele>256.33</ele><time>2018-09-15T14:58:00Z</time></trkpt><trkpt lat="44.6398024634" lon="40.1988818217"><ele>256.33</ele><time>2018-09-15T14:58:01Z</time></trkpt><trkpt lat="44.6404236462" lon="40.2000344172"><ele>254.89</ele><time>2018-09-15T14:58:18Z</time></trkpt><trkpt lat="44.6410199348" lon="40.2010953147"><ele>254.41</ele><time>2018-09-15T14:58:36Z</time></trkpt><trkpt lat="44.6412693802" lon="40.2015335206"><ele>253.93</ele><time>2018-09-15T14:58:44Z</time></trkpt><trkpt lat="44.6413007285" lon="40.2015825547"><ele>253.93</ele><time>2018-09-15T14:58:45Z</time></trkpt><trkpt lat="44.6419737954" lon="40.2027361561"><ele>253.44</ele><time>2018-09-15T14:59:06Z</time></trkpt><trkpt lat="44.6426431742" lon="40.2039053477"><ele>252.96</ele><time>2018-09-15T14:59:28Z</time></trkpt><trkpt lat="44.6431573201" lon="40.2049692627"><ele>251.52</ele><time>2018-09-15T14:59:47Z</time></trkpt><trkpt lat="44.6435360983" lon="40.2057261486"><ele>252.00</ele><time>2018-09-15T15:00:03Z</time></trkpt><trkpt lat="44.6436745673" lon="40.2059575729"><ele>252.96</ele><time>2018-09-15T15:00:12Z</time></trkpt><trkpt lat="44.6436885651" lon="40.2059721574"><ele>252.96</ele><time>2018-09-15T15:00:13Z</time></trkpt><trkpt lat="44.6439080872" lon="40.2063023206"><ele>257.29</ele><time>2018-09-15T15:00:31Z</time></trkpt><trkpt lat="44.6441204008" lon="40.2066055778"><ele>260.65</ele><time>2018-09-15T15:00:49Z</time></trkpt><trkpt lat="44.6443129331" lon="40.2068993635"><ele>262.10</ele><time>2018-09-15T15:01:04Z</time></trkpt><trkpt lat="44.6445581876" lon="40.2072340529"><ele>264.02</ele><time>2018-09-15T15:01:19Z</time></trkpt><trkpt lat="44.6448961459" lon="40.2076963987"><ele>266.42</ele><time>2018-09-15T15:01:39Z</time></trkpt><trkpt lat="44.6452407259" lon="40.2081245463"><ele>268.83</ele><time>2018-09-15T15:01:58Z</time></trkpt><trkpt lat="44.6456668619" lon="40.2086474095"><ele>270.27</ele><time>2018-09-15T15:02:16Z</time></trkpt><trkpt lat="44.6462064888" lon="40.2091811690"><ele>271.71</ele><time>2018-09-15T15:02:36Z</time></trkpt><trkpt lat="44.6467878576" lon="40.2096616197"><ele>273.15</ele><time>2018-09-15T15:02:56Z</time></trkpt><trkpt lat="44.6471958887" lon="40.2099756058"><ele>274.11</ele><time>2018-09-15T15:03:09Z</time></trkpt><trkpt lat="44.6477112919" lon="40.2103269752"><ele>274.59</ele><time>2018-09-15T15:03:25Z</time></trkpt><trkpt lat="44.6484122705" lon="40.2107361797"><ele>274.59</ele><time>2018-09-15T15:03:44Z</time></trkpt><trkpt lat="44.6491510514" lon="40.2110252716"><ele>275.07</ele><time>2018-09-15T15:04:01Z</time></trkpt><trkpt lat="44.6500707138" lon="40.2113877889"><ele>274.11</ele><time>2018-09-15T15:04:18Z</time></trkpt><trkpt lat="44.6507144440" lon="40.2116786409"><ele>273.15</ele><time>2018-09-15T15:04:30Z</time></trkpt><trkpt lat="44.6507650707" lon="40.2117132582"><ele>273.15</ele><time>2018-09-15T15:04:31Z</time></trkpt><trkpt lat="44.6515748464" lon="40.2122317627"><ele>271.23</ele><time>2018-09-15T15:04:47Z</time></trkpt><trkpt lat="44.6525759809" lon="40.2131302189"><ele>269.31</ele><time>2018-09-15T15:05:07Z</time></trkpt><trkpt lat="44.6535285003" lon="40.2142192796"><ele>266.90</ele><time>2018-09-15T15:05:27Z</time></trkpt><trkpt lat="44.6544386912" lon="40.2152761538"><ele>265.46</ele><time>2018-09-15T15:05:47Z</time></trkpt><trkpt lat="44.6545925830" lon="40.2155205701"><ele>264.98</ele><time>2018-09-15T15:05:55Z</time></trkpt><trkpt lat="44.6545904875" lon="40.2155025490"><ele>265.94</ele><time>2018-09-15T15:06:16Z</time></trkpt><trkpt lat="44.6545902360" lon="40.2155007888"><ele>265.94</ele><time>2018-09-15T15:06:56Z</time></trkpt><trkpt lat="44.6545909066" lon="40.2155049797"><ele>266.42</ele><time>2018-09-15T15:07:35Z</time></trkpt><trkpt lat="44.6546981111" lon="40.2156642359"><ele>265.94</ele><time>2018-09-15T15:07:45Z</time></trkpt><trkpt lat="44.6551421005" lon="40.2163284179"><ele>264.98</ele><time>2018-09-15T15:07:59Z</time></trkpt><trkpt lat="44.6557176858" lon="40.2173364256"><ele>264.02</ele><time>2018-09-15T15:08:16Z</time></trkpt><trkpt lat="44.6562988032" lon="40.2186302561"><ele>262.58</ele><time>2018-09-15T15:08:35Z</time></trkpt><trkpt lat="44.6568422858" lon="40.2201248333"><ele>261.62</ele><time>2018-09-15T15:08:56Z</time></trkpt><trkpt lat="44.6574342158" lon="40.2218061592"><ele>259.69</ele><time>2018-09-15T15:09:19Z</time></trkpt><trkpt lat="44.6578217950" lon="40.2229129896"><ele>258.25</ele><time>2018-09-15T15:09:36Z</time></trkpt><trkpt lat="44.6579261497" lon="40.2232363634"><ele>258.73</ele><time>2018-09-15T15:09:48Z</time></trkpt><trkpt lat="44.6579578333" lon="40.2232955396"><ele>258.73</ele><time>2018-09-15T15:09:58Z</time></trkpt><trkpt lat="44.6579524688" lon="40.2232823800"><ele>258.73</ele><time>2018-09-15T15:09:59Z</time></trkpt><trkpt lat="44.6579463501" lon="40.2232730761"><ele>258.73</ele><time>2018-09-15T15:10:00Z</time></trkpt><trkpt lat="44.6579392254" lon="40.2232618444"><ele>258.73</ele><time>2018-09-15T15:10:01Z</time></trkpt><trkpt lat="44.6578576695" lon="40.2230344433"><ele>259.21</ele><time>2018-09-15T15:10:14Z</time></trkpt><trkpt lat="44.6578269918" lon="40.2229484450"><ele>259.69</ele><time>2018-09-15T15:10:19Z</time></trkpt><trkpt lat="44.6578396484" lon="40.2229022607"><ele>259.21</ele><time>2018-09-15T15:10:25Z</time></trkpt><trkpt lat="44.6578940470" lon="40.2229499537"><ele>257.77</ele><time>2018-09-15T15:10:35Z</time></trkpt><trkpt lat="44.6578984056" lon="40.2229585871"><ele>257.77</ele><time>2018-09-15T15:10:36Z</time></trkpt><trkpt lat="44.6579088829" lon="40.2229924500"><ele>257.29</ele><time>2018-09-15T15:10:38Z</time></trkpt><trkpt lat="44.6579186898" lon="40.2230319288"><ele>257.29</ele><time>2018-09-15T15:10:39Z</time></trkpt><trkpt lat="44.6581606753" lon="40.2237416245"><ele>257.77</ele><time>2018-09-15T15:10:54Z</time></trkpt><trkpt lat="44.6583876573" lon="40.2244239114"><ele>258.25</ele><time>2018-09-15T15:11:08Z</time></trkpt><trkpt lat="44.6586419642" lon="40.2251904365"><ele>259.69</ele><time>2018-09-15T15:11:25Z</time></trkpt><trkpt lat="44.6589147113" lon="40.2260042354"><ele>261.62</ele><time>2018-09-15T15:11:46Z</time></trkpt><trkpt lat="44.6591329761" lon="40.2267390769"><ele>264.50</ele><time>2018-09-15T15:12:07Z</time></trkpt><trkpt lat="44.6591632348" lon="40.2273587510"><ele>265.94</ele><time>2018-09-15T15:12:24Z</time></trkpt><trkpt lat="44.6592773125" lon="40.2279413771"><ele>267.38</ele><time>2018-09-15T15:12:39Z</time></trkpt><trkpt lat="44.6594208945" lon="40.2285986859"><ele>268.83</ele><time>2018-09-15T15:12:56Z</time></trkpt><trkpt lat="44.6596231498" lon="40.2294712421"><ele>271.71</ele><time>2018-09-15T15:13:18Z</time></trkpt><trkpt lat="44.6597272530" lon="40.2300262917"><ele>273.15</ele><time>2018-09-15T15:13:32Z</time></trkpt><trkpt lat="44.6598301828" lon="40.2306793258"><ele>275.07</ele><time>2018-09-15T15:13:48Z</time></trkpt><trkpt lat="44.6599300113" lon="40.2314912807"><ele>276.52</ele><time>2018-09-15T15:14:06Z</time></trkpt><trkpt lat="44.6600314323" lon="40.2324368432"><ele>278.44</ele><time>2018-09-15T15:14:26Z</time></trkpt><trkpt lat="44.6600849088" lon="40.2335103136"><ele>279.40</ele><time>2018-09-15T15:14:47Z</time></trkpt><trkpt lat="44.6600891836" lon="40.2343478333"><ele>279.88</ele><time>2018-09-15T15:15:02Z</time></trkpt><trkpt lat="44.6600983199" lon="40.2354484610"><ele>279.88</ele><time>2018-09-15T15:15:20Z</time></trkpt><trkpt lat="44.6600919496" lon="40.2364954446"><ele>279.40</ele><time>2018-09-15T15:15:36Z</time></trkpt><trkpt lat="44.6600207873" lon="40.2377649676"><ele>278.44</ele><time>2018-09-15T15:15:53Z</time></trkpt><trkpt lat="44.6599032730" lon="40.2389382664"><ele>276.52</ele><time>2018-09-15T15:16:08Z</time></trkpt><trkpt lat="44.6597563382" lon="40.2399878483"><ele>275.07</ele><time>2018-09-15T15:16:23Z</time></trkpt><trkpt lat="44.6596951503" lon="40.2403840609"><ele>274.59</ele><time>2018-09-15T15:16:29Z</time></trkpt><trkpt lat="44.6595070604" lon="40.2413804177"><ele>274.59</ele><time>2018-09-15T15:16:44Z</time></trkpt><trkpt lat="44.6593718603" lon="40.2420079708"><ele>274.11</ele><time>2018-09-15T15:16:53Z</time></trkpt><trkpt lat="44.6591600496" lon="40.2429503482"><ele>273.63</ele><time>2018-09-15T15:17:09Z</time></trkpt><trkpt lat="44.6589992009" lon="40.2436385863"><ele>274.11</ele><time>2018-09-15T15:17:23Z</time></trkpt><trkpt lat="44.6587512642" lon="40.2448652778"><ele>274.11</ele><time>2018-09-15T15:17:41Z</time></trkpt><trkpt lat="44.6584149823" lon="40.2464352082"><ele>274.11</ele><time>2018-09-15T15:18:02Z</time></trkpt><trkpt lat="44.6582787763" lon="40.2470569778"><ele>273.63</ele><time>2018-09-15T15:18:12Z</time></trkpt><trkpt lat="44.6582578216" lon="40.2471181657"><ele>273.15</ele><time>2018-09-15T15:18:13Z</time></trkpt><trkpt lat="44.6581665426" lon="40.2473977860"><ele>272.67</ele><time>2018-09-15T15:18:17Z</time></trkpt><trkpt lat="44.6580522135" lon="40.2479065675"><ele>272.67</ele><time>2018-09-15T15:18:24Z</time></trkpt><trkpt lat="44.6580460109" lon="40.2479745448"><ele>273.15</ele><time>2018-09-15T15:18:25Z</time></trkpt><trkpt lat="44.6578991599" lon="40.2487725019"><ele>274.59</ele><time>2018-09-15T15:18:40Z</time></trkpt><trkpt lat="44.6579059493" lon="40.2487740107"><ele>274.11</ele><time>2018-09-15T15:18:49Z</time></trkpt><trkpt lat="44.6579093859" lon="40.2487896010"><ele>273.63</ele><time>2018-09-15T15:19:28Z</time></trkpt><trkpt lat="44.6578952204" lon="40.2488254756"><ele>273.63</ele><time>2018-09-15T15:19:30Z</time></trkpt><trkpt lat="44.6578868385" lon="40.2488522138"><ele>274.11</ele><time>2018-09-15T15:19:31Z</time></trkpt><trkpt lat="44.6578796301" lon="40.2488833945"><ele>274.11</ele><time>2018-09-15T15:19:32Z</time></trkpt><trkpt lat="44.6578734275" lon="40.2489216998"><ele>274.11</ele><time>2018-09-15T15:19:33Z</time></trkpt><trkpt lat="44.6578660514" lon="40.2489634417"><ele>274.11</ele><time>2018-09-15T15:19:34Z</time></trkpt><trkpt lat="44.6578032710" lon="40.2492262982"><ele>274.11</ele><time>2018-09-15T15:19:41Z</time></trkpt><trkpt lat="44.6578027681" lon="40.2492584009"><ele>274.11</ele><time>2018-09-15T15:19:42Z</time></trkpt><trkpt lat="44.6578021813" lon="40.2492862288"><ele>274.11</ele><time>2018-09-15T15:19:43Z</time></trkpt><trkpt lat="44.6577956434" lon="40.2493161522"><ele>274.11</ele><time>2018-09-15T15:19:44Z</time></trkpt><trkpt lat="44.6577855852" lon="40.2493498474"><ele>274.11</ele><time>2018-09-15T15:19:45Z</time></trkpt><trkpt lat="44.6577767842" lon="40.2493884042"><ele>274.11</ele><time>2018-09-15T15:19:46Z</time></trkpt><trkpt lat="44.6577682346" lon="40.2494313195"><ele>274.11</ele><time>2018-09-15T15:19:47Z</time></trkpt><trkpt lat="44.6576508880" lon="40.2499720361"><ele>274.11</ele><time>2018-09-15T15:19:57Z</time></trkpt><trkpt lat="44.6576370578" lon="40.2500315476"><ele>274.11</ele><time>2018-09-15T15:19:58Z</time></trkpt><trkpt lat="44.6574766282" lon="40.2508041915"><ele>274.11</ele><time>2018-09-15T15:20:13Z</time></trkpt><trkpt lat="44.6573178750" lon="40.2515578084"><ele>273.63</ele><time>2018-09-15T15:20:29Z</time></trkpt><trkpt lat="44.6571131889" lon="40.2524431888"><ele>274.11</ele><time>2018-09-15T15:20:47Z</time></trkpt><trkpt lat="44.6569913998" lon="40.2530538943"><ele>273.63</ele><time>2018-09-15T15:21:02Z</time></trkpt><trkpt lat="44.6568643302" lon="40.2537732292"><ele>273.15</ele><time>2018-09-15T15:21:16Z</time></trkpt><trkpt lat="44.6566742286" lon="40.2550151758"><ele>271.23</ele><time>2018-09-15T15:21:35Z</time></trkpt><trkpt lat="44.6566653438" lon="40.2550929599"><ele>270.75</ele><time>2018-09-15T15:21:36Z</time></trkpt><trkpt lat="44.6563489269" lon="40.2565776464"><ele>266.90</ele><time>2018-09-15T15:21:54Z</time></trkpt><trkpt lat="44.6559224557" lon="40.2585136984"><ele>260.17</ele><time>2018-09-15T15:22:13Z</time></trkpt><trkpt lat="44.6553622931" lon="40.2610828355"><ele>253.93</ele><time>2018-09-15T15:22:36Z</time></trkpt><trkpt lat="44.6550242510" lon="40.2627065778"><ele>252.48</ele><time>2018-09-15T15:22:53Z</time></trkpt><trkpt lat="44.6547264419" lon="40.2641247120"><ele>252.00</ele><time>2018-09-15T15:23:10Z</time></trkpt><trkpt lat="44.6544709615" lon="40.2653131820"><ele>252.48</ele><time>2018-09-15T15:23:26Z</time></trkpt><trkpt lat="44.6542158164" lon="40.2664918453"><ele>252.96</ele><time>2018-09-15T15:23:42Z</time></trkpt><trkpt lat="44.6539217792" lon="40.2677917108"><ele>251.04</ele><time>2018-09-15T15:23:59Z</time></trkpt><trkpt lat="44.6536031831" lon="40.2693529241"><ele>248.64</ele><time>2018-09-15T15:24:17Z</time></trkpt><trkpt lat="44.6533370577" lon="40.2705799509"><ele>249.12</ele><time>2018-09-15T15:24:33Z</time></trkpt><trkpt lat="44.6531068906" lon="40.2716459613"><ele>251.52</ele><time>2018-09-15T15:24:52Z</time></trkpt><trkpt lat="44.6528395079" lon="40.2728287317"><ele>252.48</ele><time>2018-09-15T15:25:14Z</time></trkpt><trkpt lat="44.6525761485" lon="40.2740397491"><ele>252.96</ele><time>2018-09-15T15:25:35Z</time></trkpt><trkpt lat="44.6523052454" lon="40.2752990462"><ele>252.96</ele><time>2018-09-15T15:25:55Z</time></trkpt><trkpt lat="44.6520100348" lon="40.2767330222"><ele>252.00</ele><time>2018-09-15T15:26:16Z</time></trkpt><trkpt lat="44.6517206077" lon="40.2780993562"><ele>250.08</ele><time>2018-09-15T15:26:35Z</time></trkpt><trkpt lat="44.6514063701" lon="40.2795319911"><ele>248.16</ele><time>2018-09-15T15:26:54Z</time></trkpt><trkpt lat="44.6510249935" lon="40.2811928652"><ele>244.79</ele><time>2018-09-15T15:27:15Z</time></trkpt><trkpt lat="44.6506143641" lon="40.2828943916"><ele>239.51</ele><time>2018-09-15T15:27:34Z</time></trkpt><trkpt lat="44.6500999667" lon="40.2850210480"><ele>228.93</ele><time>2018-09-15T15:27:56Z</time></trkpt><trkpt lat="44.6494881716" lon="40.2875569928"><ele>220.28</ele><time>2018-09-15T15:28:20Z</time></trkpt><trkpt lat="44.6491822321" lon="40.2887530066"><ele>219.32</ele><time>2018-09-15T15:28:35Z</time></trkpt><trkpt lat="44.6488408372" lon="40.2901521139"><ele>219.32</ele><time>2018-09-15T15:28:55Z</time></trkpt><trkpt lat="44.6486947406" lon="40.2908561099"><ele>219.32</ele><time>2018-09-15T15:29:06Z</time></trkpt><trkpt lat="44.6484944969" lon="40.2918733377"><ele>219.80</ele><time>2018-09-15T15:29:23Z</time></trkpt><trkpt lat="44.6483308822" lon="40.2927410323"><ele>220.76</ele><time>2018-09-15T15:29:39Z</time></trkpt><trkpt lat="44.6483098436" lon="40.2928761486"><ele>221.72</ele><time>2018-09-15T15:29:48Z</time></trkpt><trkpt lat="44.6483174711" lon="40.2928710356"><ele>222.20</ele><time>2018-09-15T15:30:10Z</time></trkpt><trkpt lat="44.6483146213" lon="40.2928611450"><ele>222.20</ele><time>2018-09-15T15:30:47Z</time></trkpt><trkpt lat="44.6483231708" lon="40.2928610612"><ele>222.20</ele><time>2018-09-15T15:31:33Z</time></trkpt><trkpt lat="44.6483191475" lon="40.2928660065"><ele>221.72</ele><time>2018-09-15T15:32:29Z</time></trkpt><trkpt lat="44.6483187284" lon="40.2928679343"><ele>221.24</ele><time>2018-09-15T15:33:10Z</time></trkpt><trkpt lat="44.6483205725" lon="40.2928784955"><ele>221.24</ele><time>2018-09-15T15:33:48Z</time></trkpt><trkpt lat="44.6483018808" lon="40.2929959260"><ele>221.24</ele><time>2018-09-15T15:34:00Z</time></trkpt><trkpt lat="44.6481775772" lon="40.2936552465"><ele>221.72</ele><time>2018-09-15T15:34:14Z</time></trkpt><trkpt lat="44.6481506713" lon="40.2938168496"><ele>221.72</ele><time>2018-09-15T15:34:17Z</time></trkpt><trkpt lat="44.6480028145" lon="40.2946450654"><ele>221.24</ele><time>2018-09-15T15:34:33Z</time></trkpt><trkpt lat="44.6478363499" lon="40.2955112513"><ele>221.24</ele><time>2018-09-15T15:34:49Z</time></trkpt><trkpt lat="44.6477164049" lon="40.2962554805"><ele>223.64</ele><time>2018-09-15T15:35:05Z</time></trkpt><trkpt lat="44.6476378664" lon="40.2968202531"><ele>227.01</ele><time>2018-09-15T15:35:23Z</time></trkpt><trkpt lat="44.6475761756" lon="40.2973131090"><ele>229.89</ele><time>2018-09-15T15:35:40Z</time></trkpt><trkpt lat="44.6475296561" lon="40.2976909652"><ele>232.30</ele><time>2018-09-15T15:35:55Z</time></trkpt><trkpt lat="44.6474846452" lon="40.2980533149"><ele>235.18</ele><time>2018-09-15T15:36:10Z</time></trkpt><trkpt lat="44.6474424843" lon="40.2984880004"><ele>237.10</ele><time>2018-09-15T15:36:28Z</time></trkpt><trkpt lat="44.6474110521" lon="40.2988460753"><ele>239.51</ele><time>2018-09-15T15:36:43Z</time></trkpt><trkpt lat="44.6473666281" lon="40.2993514203"><ele>242.39</ele><time>2018-09-15T15:37:04Z</time></trkpt><trkpt lat="44.6473350283" lon="40.2997766342"><ele>245.27</ele><time>2018-09-15T15:37:21Z</time></trkpt><trkpt lat="44.6473206114" lon="40.3001433425"><ele>247.68</ele><time>2018-09-15T15:37:36Z</time></trkpt><trkpt lat="44.6472823061" lon="40.3006885853"><ele>251.52</ele><time>2018-09-15T15:37:58Z</time></trkpt><trkpt lat="44.6472517960" lon="40.3012324031"><ele>253.93</ele><time>2018-09-15T15:38:20Z</time></trkpt><trkpt lat="44.6472379658" lon="40.3017234989"><ele>256.81</ele><time>2018-09-15T15:38:39Z</time></trkpt><trkpt lat="44.6472295839" lon="40.3022725135"><ele>259.69</ele><time>2018-09-15T15:39:00Z</time></trkpt><trkpt lat="44.6472297516" lon="40.3028616775"><ele>262.10</ele><time>2018-09-15T15:39:22Z</time></trkpt><trkpt lat="44.6472373791" lon="40.3033310641"><ele>264.02</ele><time>2018-09-15T15:39:38Z</time></trkpt><trkpt lat="44.6472477727" lon="40.3038597107"><ele>265.94</ele><time>2018-09-15T15:39:54Z</time></trkpt><trkpt lat="44.6472709067" lon="40.3044776246"><ele>268.35</ele><time>2018-09-15T15:40:12Z</time></trkpt><trkpt lat="44.6473031770" lon="40.3051438183"><ele>269.31</ele><time>2018-09-15T15:40:31Z</time></trkpt><trkpt lat="44.6473419014" lon="40.3057555296"><ele>270.75</ele><time>2018-09-15T15:40:47Z</time></trkpt><trkpt lat="44.6474001557" lon="40.3064554185"><ele>271.71</ele><time>2018-09-15T15:41:04Z</time></trkpt><trkpt lat="44.6474491898" lon="40.3069804609"><ele>271.71</ele><time>2018-09-15T15:41:17Z</time></trkpt><trkpt lat="44.6475142334" lon="40.3076628316"><ele>272.67</ele><time>2018-09-15T15:41:31Z</time></trkpt><trkpt lat="44.6475713979" lon="40.3082873672"><ele>272.67</ele><time>2018-09-15T15:41:45Z</time></trkpt><trkpt lat="44.6475946158" lon="40.3082743753"><ele>272.67</ele><time>2018-09-15T15:42:03Z</time></trkpt><trkpt lat="44.6475953702" lon="40.3082822543"><ele>272.67</ele><time>2018-09-15T15:42:36Z</time></trkpt><trkpt lat="44.6476009022" lon="40.3083400056"><ele>273.15</ele><time>2018-09-15T15:42:52Z</time></trkpt><trkpt lat="44.6476462483" lon="40.3087103181"><ele>273.63</ele><time>2018-09-15T15:43:03Z</time></trkpt><trkpt lat="44.6477507707" lon="40.3094703052"><ele>273.63</ele><time>2018-09-15T15:43:20Z</time></trkpt><trkpt lat="44.6479323227" lon="40.3105369024"><ele>273.15</ele><time>2018-09-15T15:43:39Z</time></trkpt><trkpt lat="44.6481625736" lon="40.3117593192"><ele>272.67</ele><time>2018-09-15T15:43:58Z</time></trkpt><trkpt lat="44.6484499052" lon="40.3133113123"><ele>270.27</ele><time>2018-09-15T15:44:19Z</time></trkpt><trkpt lat="44.6487150248" lon="40.3147700150"><ele>268.35</ele><time>2018-09-15T15:44:39Z</time></trkpt><trkpt lat="44.6489790548" lon="40.3161905799"><ele>266.42</ele><time>2018-09-15T15:44:58Z</time></trkpt><trkpt lat="44.6492729243" lon="40.3177858237"><ele>264.02</ele><time>2018-09-15T15:45:18Z</time></trkpt><trkpt lat="44.6496250480" lon="40.3196072951"><ele>262.58</ele><time>2018-09-15T15:45:41Z</time></trkpt><trkpt lat="44.6498807799" lon="40.3209922370"><ele>262.58</ele><time>2018-09-15T15:46:00Z</time></trkpt><trkpt lat="44.6501078457" lon="40.3222349379"><ele>264.02</ele><time>2018-09-15T15:46:20Z</time></trkpt><trkpt lat="44.6503173932" lon="40.3234220669"><ele>267.38</ele><time>2018-09-15T15:46:42Z</time></trkpt><trkpt lat="44.6504713688" lon="40.3242723271"><ele>268.35</ele><time>2018-09-15T15:47:00Z</time></trkpt><trkpt lat="44.6506567765" lon="40.3253006190"><ele>269.79</ele><time>2018-09-15T15:47:21Z</time></trkpt><trkpt lat="44.6508291084" lon="40.3262064513"><ele>269.79</ele><time>2018-09-15T15:47:39Z</time></trkpt><trkpt lat="44.6510183718" lon="40.3272439633"><ele>270.27</ele><time>2018-09-15T15:47:58Z</time></trkpt><trkpt lat="44.6512381453" lon="40.3284482751"><ele>270.27</ele><time>2018-09-15T15:48:19Z</time></trkpt><trkpt lat="44.6514134947" lon="40.3294070810"><ele>270.27</ele><time>2018-09-15T15:48:36Z</time></trkpt><trkpt lat="44.6515083779" lon="40.3299231548"><ele>270.27</ele><time>2018-09-15T15:48:46Z</time></trkpt><trkpt lat="44.6517107170" lon="40.3310349304"><ele>269.79</ele><time>2018-09-15T15:49:05Z</time></trkpt><trkpt lat="44.6519495174" lon="40.3323333710"><ele>269.31</ele><time>2018-09-15T15:49:24Z</time></trkpt><trkpt lat="44.6522132121" lon="40.3338802513"><ele>269.31</ele><time>2018-09-15T15:49:45Z</time></trkpt><trkpt lat="44.6525261085" lon="40.3356272914"><ele>268.83</ele><time>2018-09-15T15:50:09Z</time></trkpt><trkpt lat="44.6527503245" lon="40.3367767856"><ele>268.83</ele><time>2018-09-15T15:50:26Z</time></trkpt><trkpt lat="44.6529648174" lon="40.3378712945"><ele>268.83</ele><time>2018-09-15T15:50:43Z</time></trkpt><trkpt lat="44.6531546675" lon="40.3391843196"><ele>267.38</ele><time>2018-09-15T15:51:03Z</time></trkpt><trkpt lat="44.6532256622" lon="40.3404901363"><ele>264.98</ele><time>2018-09-15T15:51:20Z</time></trkpt><trkpt lat="44.6531102434" lon="40.3423390165"><ele>260.17</ele><time>2018-09-15T15:51:41Z</time></trkpt><trkpt lat="44.6526964288" lon="40.3444179799"><ele>255.37</ele><time>2018-09-15T15:52:04Z</time></trkpt><trkpt lat="44.6521682851" lon="40.3458683006"><ele>251.52</ele><time>2018-09-15T15:52:23Z</time></trkpt><trkpt lat="44.6514140815" lon="40.3472954035"><ele>246.72</ele><time>2018-09-15T15:52:44Z</time></trkpt><trkpt lat="44.6506355703" lon="40.3485161439"><ele>243.35</ele><time>2018-09-15T15:53:03Z</time></trkpt><trkpt lat="44.6498916764" lon="40.3496732656"><ele>239.99</ele><time>2018-09-15T15:53:22Z</time></trkpt><trkpt lat="44.6490772907" lon="40.3509468958"><ele>238.06</ele><time>2018-09-15T15:53:43Z</time></trkpt><trkpt lat="44.6487701777" lon="40.3514217306"><ele>239.99</ele><time>2018-09-15T15:53:56Z</time></trkpt><trkpt lat="44.6485488117" lon="40.3517707530"><ele>242.39</ele><time>2018-09-15T15:54:12Z</time></trkpt><trkpt lat="44.6483376715" lon="40.3520928696"><ele>246.23</ele><time>2018-09-15T15:54:30Z</time></trkpt><trkpt lat="44.6481500845" lon="40.3523829672"><ele>248.16</ele><time>2018-09-15T15:54:45Z</time></trkpt><trkpt lat="44.6479858831" lon="40.3526399564"><ele>250.08</ele><time>2018-09-15T15:55:00Z</time></trkpt><trkpt lat="44.6478107851" lon="40.3529142961"><ele>252.00</ele><time>2018-09-15T15:55:16Z</time></trkpt><trkpt lat="44.6477547940" lon="40.3529995400"><ele>252.96</ele><time>2018-09-15T15:55:21Z</time></trkpt><trkpt lat="44.6477423888" lon="40.3530138731"><ele>252.96</ele><time>2018-09-15T15:55:22Z</time></trkpt><trkpt lat="44.6477329172" lon="40.3530285414"><ele>253.44</ele><time>2018-09-15T15:55:23Z</time></trkpt><trkpt lat="44.6475935262" lon="40.3532519192"><ele>255.85</ele><time>2018-09-15T15:55:36Z</time></trkpt><trkpt lat="44.6473912708" lon="40.3535534162"><ele>258.73</ele><time>2018-09-15T15:55:53Z</time></trkpt><trkpt lat="44.6471516322" lon="40.3539293446"><ele>260.17</ele><time>2018-09-15T15:56:14Z</time></trkpt><trkpt lat="44.6469212137" lon="40.3542963881"><ele>261.62</ele><time>2018-09-15T15:56:34Z</time></trkpt><trkpt lat="44.6467000991" lon="40.3546482604"><ele>263.54</ele><time>2018-09-15T15:56:51Z</time></trkpt><trkpt lat="44.6464586165" lon="40.3550296370"><ele>264.98</ele><time>2018-09-15T15:57:09Z</time></trkpt><trkpt lat="44.6462307125" lon="40.3553897236"><ele>266.42</ele><time>2018-09-15T15:57:26Z</time></trkpt><trkpt lat="44.6459927503" lon="40.3557597846"><ele>267.86</ele><time>2018-09-15T15:57:41Z</time></trkpt><trkpt lat="44.6457217634" lon="40.3561865911"><ele>268.83</ele><time>2018-09-15T15:57:56Z</time></trkpt><trkpt lat="44.6454731561" lon="40.3565657884"><ele>269.31</ele><time>2018-09-15T15:58:09Z</time></trkpt><trkpt lat="44.6451188531" lon="40.3571166471"><ele>270.27</ele><time>2018-09-15T15:58:27Z</time></trkpt><trkpt lat="44.6447110735" lon="40.3577193059"><ele>270.75</ele><time>2018-09-15T15:58:45Z</time></trkpt><trkpt lat="44.6443466283" lon="40.3582291771"><ele>270.75</ele><time>2018-09-15T15:58:59Z</time></trkpt><trkpt lat="44.6440608893" lon="40.3586764354"><ele>271.71</ele><time>2018-09-15T15:59:13Z</time></trkpt><trkpt lat="44.6435592324" lon="40.3594795894"><ele>273.63</ele><time>2018-09-15T15:59:34Z</time></trkpt><trkpt lat="44.6432537958" lon="40.3599309549"><ele>274.11</ele><time>2018-09-15T15:59:47Z</time></trkpt><trkpt lat="44.6428668872" lon="40.3605400678"><ele>274.59</ele><time>2018-09-15T16:00:03Z</time></trkpt><trkpt lat="44.6424954012" lon="40.3611606639"><ele>275.07</ele><time>2018-09-15T16:00:19Z</time></trkpt><trkpt lat="44.6421007812" lon="40.3618601337"><ele>275.56</ele><time>2018-09-15T16:00:36Z</time></trkpt><trkpt lat="44.6416915767" lon="40.3626465239"><ele>275.56</ele><time>2018-09-15T16:00:54Z</time></trkpt><trkpt lat="44.6412480064" lon="40.3635026515"><ele>275.56</ele><time>2018-09-15T16:01:12Z</time></trkpt><trkpt lat="44.6407339443" lon="40.3645544965"><ele>275.07</ele><time>2018-09-15T16:01:31Z</time></trkpt><trkpt lat="44.6401669923" lon="40.3657949343"><ele>274.59</ele><time>2018-09-15T16:01:53Z</time></trkpt><trkpt lat="44.6399685927" lon="40.3662326373"><ele>274.59</ele><time>2018-09-15T16:02:06Z</time></trkpt><trkpt lat="44.6399640664" lon="40.3662229143"><ele>275.07</ele><time>2018-09-15T16:02:30Z</time></trkpt><trkpt lat="44.6399623062" lon="40.3662417736"><ele>275.07</ele><time>2018-09-15T16:02:35Z</time></trkpt><trkpt lat="44.6399603784" lon="40.3662599623"><ele>275.07</ele><time>2018-09-15T16:02:36Z</time></trkpt><trkpt lat="44.6399529185" lon="40.3662765585"><ele>275.07</ele><time>2018-09-15T16:02:37Z</time></trkpt><trkpt lat="44.6399426088" lon="40.3662968427"><ele>275.07</ele><time>2018-09-15T16:02:38Z</time></trkpt><trkpt lat="44.6399328019" lon="40.3663258441"><ele>275.07</ele><time>2018-09-15T16:02:39Z</time></trkpt><trkpt lat="44.6399208158" lon="40.3663563542"><ele>275.07</ele><time>2018-09-15T16:02:40Z</time></trkpt><trkpt lat="44.6399051417" lon="40.3663949948"><ele>275.07</ele><time>2018-09-15T16:02:41Z</time></trkpt><trkpt lat="44.6398903895" lon="40.3664302826"><ele>275.07</ele><time>2018-09-15T16:02:42Z</time></trkpt><trkpt lat="44.6398715302" lon="40.3664742876"><ele>275.07</ele><time>2018-09-15T16:02:43Z</time></trkpt><trkpt lat="44.6396322269" lon="40.3670763597"><ele>274.59</ele><time>2018-09-15T16:02:56Z</time></trkpt><trkpt lat="44.6393914986" lon="40.3676664457"><ele>274.11</ele><time>2018-09-15T16:03:11Z</time></trkpt><trkpt lat="44.6392068453" lon="40.3681117762"><ele>274.59</ele><time>2018-09-15T16:03:24Z</time></trkpt><trkpt lat="44.6389594115" lon="40.3687527403"><ele>274.59</ele><time>2018-09-15T16:03:38Z</time></trkpt><trkpt lat="44.6389393788" lon="40.3687997628"><ele>274.59</ele><time>2018-09-15T16:03:39Z</time></trkpt><trkpt lat="44.6389163285" lon="40.3688530717"><ele>274.11</ele><time>2018-09-15T16:03:40Z</time></trkpt><trkpt lat="44.6385640372" lon="40.3697439842"><ele>274.11</ele><time>2018-09-15T16:03:57Z</time></trkpt><trkpt lat="44.6381326206" lon="40.3708230704"><ele>272.19</ele><time>2018-09-15T16:04:16Z</time></trkpt><trkpt lat="44.6375834383" lon="40.3721731436"><ele>268.35</ele><time>2018-09-15T16:04:36Z</time></trkpt><trkpt lat="44.6369874012" lon="40.3735886794"><ele>262.10</ele><time>2018-09-15T16:04:56Z</time></trkpt><trkpt lat="44.6364512946" lon="40.3746920731"><ele>256.81</ele><time>2018-09-15T16:05:15Z</time></trkpt><trkpt lat="44.6359001007" lon="40.3756004199"><ele>252.96</ele><time>2018-09-15T16:05:30Z</time></trkpt><trkpt lat="44.6350784227" lon="40.3767529316"><ele>250.08</ele><time>2018-09-15T16:05:51Z</time></trkpt><trkpt lat="44.6345929429" lon="40.3774010204"><ele>251.52</ele><time>2018-09-15T16:06:08Z</time></trkpt><trkpt lat="44.6344039310" lon="40.3776442632"><ele>252.96</ele><time>2018-09-15T16:06:21Z</time></trkpt><trkpt lat="44.6341168508" lon="40.3780241311"><ele>255.85</ele><time>2018-09-15T16:06:39Z</time></trkpt><trkpt lat="44.6338560898" lon="40.3783664480"><ele>259.69</ele><time>2018-09-15T16:06:57Z</time></trkpt><trkpt lat="44.6336783096" lon="40.3786101099"><ele>261.62</ele><time>2018-09-15T16:07:12Z</time></trkpt><trkpt lat="44.6335012000" lon="40.3788505867"><ele>264.02</ele><time>2018-09-15T16:07:27Z</time></trkpt><trkpt lat="44.6333162114" lon="40.3790873755"><ele>265.94</ele><time>2018-09-15T16:07:42Z</time></trkpt><trkpt lat="44.6331044007" lon="40.3793269303"><ele>267.38</ele><time>2018-09-15T16:07:58Z</time></trkpt><trkpt lat="44.6328612417" lon="40.3795737773"><ele>268.83</ele><time>2018-09-15T16:08:15Z</time></trkpt><trkpt lat="44.6325962059" lon="40.3798181098"><ele>270.27</ele><time>2018-09-15T16:08:31Z</time></trkpt><trkpt lat="44.6323141549" lon="40.3800271545"><ele>272.67</ele><time>2018-09-15T16:08:46Z</time></trkpt><trkpt lat="44.6319773700" lon="40.3802290745"><ele>275.07</ele><time>2018-09-15T16:09:02Z</time></trkpt><trkpt lat="44.6315243281" lon="40.3804421425"><ele>276.04</ele><time>2018-09-15T16:09:20Z</time></trkpt><trkpt lat="44.6309740562" lon="40.3806100320"><ele>276.04</ele><time>2018-09-15T16:09:39Z</time></trkpt><trkpt lat="44.6305128001" lon="40.3806824517"><ele>276.04</ele><time>2018-09-15T16:09:55Z</time></trkpt><trkpt lat="44.6302454174" lon="40.3806999698"><ele>276.04</ele><time>2018-09-15T16:10:08Z</time></trkpt><trkpt lat="44.6299537271" lon="40.3807361796"><ele>276.52</ele><time>2018-09-15T16:10:21Z</time></trkpt><trkpt lat="44.6295142639" lon="40.3807921708"><ele>277.00</ele><time>2018-09-15T16:10:35Z</time></trkpt><trkpt lat="44.6290240064" lon="40.3808316495"><ele>277.00</ele><time>2018-09-15T16:10:51Z</time></trkpt><trkpt lat="44.6285392810" lon="40.3808518499"><ele>277.00</ele><time>2018-09-15T16:11:07Z</time></trkpt><trkpt lat="44.6278642025" lon="40.3809053265"><ele>278.44</ele><time>2018-09-15T16:11:25Z</time></trkpt><trkpt lat="44.6271825023" lon="40.3809920792"><ele>279.40</ele><time>2018-09-15T16:11:43Z</time></trkpt><trkpt lat="44.6264038235" lon="40.3812641557"><ele>280.36</ele><time>2018-09-15T16:12:04Z</time></trkpt><trkpt lat="44.6257651225" lon="40.3817079775"><ele>281.80</ele><time>2018-09-15T16:12:24Z</time></trkpt><trkpt lat="44.6253603604" lon="40.3821924515"><ele>283.73</ele><time>2018-09-15T16:12:40Z</time></trkpt><trkpt lat="44.6249354817" lon="40.3830037359"><ele>285.17</ele><time>2018-09-15T16:13:01Z</time></trkpt><trkpt lat="44.6246481501" lon="40.3837363981"><ele>285.65</ele><time>2018-09-15T16:13:18Z</time></trkpt><trkpt lat="44.6244037338" lon="40.3845800366"><ele>284.21</ele><time>2018-09-15T16:13:36Z</time></trkpt><trkpt lat="44.6241910011" lon="40.3855926543"><ele>283.25</ele><time>2018-09-15T16:13:53Z</time></trkpt><trkpt lat="44.6241393685" lon="40.3858614620"><ele>283.25</ele><time>2018-09-15T16:13:58Z</time></trkpt><trkpt lat="44.6239050105" lon="40.3870167397"><ele>282.28</ele><time>2018-09-15T16:14:17Z</time></trkpt><trkpt lat="44.6236822195" lon="40.3881021962"><ele>281.80</ele><time>2018-09-15T16:14:36Z</time></trkpt><trkpt lat="44.6234380547" lon="40.3890888300"><ele>281.80</ele><time>2018-09-15T16:14:55Z</time></trkpt><trkpt lat="44.6230653115" lon="40.3902177047"><ele>280.36</ele><time>2018-09-15T16:15:13Z</time></trkpt><trkpt lat="44.6225675102" lon="40.3913785145"><ele>278.92</ele><time>2018-09-15T16:15:32Z</time></trkpt><trkpt lat="44.6223710384" lon="40.3916735575"><ele>278.44</ele><time>2018-09-15T16:15:38Z</time></trkpt><trkpt lat="44.6217051800" lon="40.3925886098"><ele>275.56</ele><time>2018-09-15T16:15:56Z</time></trkpt><trkpt lat="44.6207511518" lon="40.3938957676"><ele>275.07</ele><time>2018-09-15T16:16:19Z</time></trkpt><trkpt lat="44.6201720461" lon="40.3947995882"><ele>274.59</ele><time>2018-09-15T16:16:36Z</time></trkpt><trkpt lat="44.6194803715" lon="40.3958939295"><ele>272.67</ele><time>2018-09-15T16:16:56Z</time></trkpt><trkpt lat="44.6189098991" lon="40.3967928886"><ele>271.71</ele><time>2018-09-15T16:17:14Z</time></trkpt><trkpt lat="44.6183718648" lon="40.3976452444"><ele>272.67</ele><time>2018-09-15T16:17:32Z</time></trkpt><trkpt lat="44.6179237682" lon="40.3984781541"><ele>273.63</ele><time>2018-09-15T16:17:50Z</time></trkpt><trkpt lat="44.6176703833" lon="40.3990062978"><ele>276.52</ele><time>2018-09-15T16:18:07Z</time></trkpt><trkpt lat="44.6175003983" lon="40.3993851598"><ele>279.40</ele><time>2018-09-15T16:18:23Z</time></trkpt><trkpt lat="44.6173360292" lon="40.3997565620"><ele>280.84</ele><time>2018-09-15T16:18:41Z</time></trkpt><trkpt lat="44.6172077022" lon="40.4000914190"><ele>282.77</ele><time>2018-09-15T16:18:57Z</time></trkpt><trkpt lat="44.6171608474" lon="40.4002248589"><ele>283.25</ele><time>2018-09-15T16:19:03Z</time></trkpt><trkpt lat="44.6171526331" lon="40.4002451431"><ele>283.25</ele><time>2018-09-15T16:19:04Z</time></trkpt><trkpt lat="44.6171440836" lon="40.4002661817"><ele>283.25</ele><time>2018-09-15T16:19:05Z</time></trkpt><trkpt lat="44.6171346121" lon="40.4002868012"><ele>283.25</ele><time>2018-09-15T16:19:06Z</time></trkpt><trkpt lat="44.6171248890" lon="40.4003091808"><ele>283.25</ele><time>2018-09-15T16:19:07Z</time></trkpt><trkpt lat="44.6170113981" lon="40.4006499890"><ele>285.17</ele><time>2018-09-15T16:19:23Z</time></trkpt><trkpt lat="44.6168802213" lon="40.4010381550"><ele>287.09</ele><time>2018-09-15T16:19:41Z</time></trkpt><trkpt lat="44.6167637967" lon="40.4014222976"><ele>288.53</ele><time>2018-09-15T16:19:59Z</time></trkpt><trkpt lat="44.6166551672" lon="40.4018179234"><ele>290.46</ele><time>2018-09-15T16:20:17Z</time></trkpt><trkpt lat="44.6165902913" lon="40.4021112900"><ele>292.38</ele><time>2018-09-15T16:20:30Z</time></trkpt><trkpt lat="44.6165209729" lon="40.4024675209"><ele>293.82</ele><time>2018-09-15T16:20:45Z</time></trkpt><trkpt lat="44.6164720226" lon="40.4029146116"><ele>295.26</ele><time>2018-09-15T16:21:01Z</time></trkpt><trkpt lat="44.6164314542" lon="40.4033419210"><ele>297.18</ele><time>2018-09-15T16:21:16Z</time></trkpt><trkpt lat="44.6163839288" lon="40.4038771894"><ele>299.59</ele><time>2018-09-15T16:21:34Z</time></trkpt><trkpt lat="44.6163556818" lon="40.4045108613"><ele>301.99</ele><time>2018-09-15T16:21:53Z</time></trkpt><trkpt lat="44.6163545083" lon="40.4051840957"><ele>302.95</ele><time>2018-09-15T16:22:09Z</time></trkpt><trkpt lat="44.6163825877" lon="40.4060843121"><ele>302.95</ele><time>2018-09-15T16:22:28Z</time></trkpt><trkpt lat="44.6164103318" lon="40.4069896415"><ele>301.99</ele><time>2018-09-15T16:22:44Z</time></trkpt><trkpt lat="44.6164329629" lon="40.4078647960"><ele>302.47</ele><time>2018-09-15T16:23:00Z</time></trkpt><trkpt lat="44.6164420154" lon="40.4086888209"><ele>302.95</ele><time>2018-09-15T16:23:16Z</time></trkpt><trkpt lat="44.6163459588" lon="40.4098076373"><ele>302.47</ele><time>2018-09-15T16:23:37Z</time></trkpt><trkpt lat="44.6161580365" lon="40.4109385237"><ele>302.95</ele><time>2018-09-15T16:23:57Z</time></trkpt><trkpt lat="44.6159549430" lon="40.4120349605"><ele>302.47</ele><time>2018-09-15T16:24:16Z</time></trkpt><trkpt lat="44.6157811861" lon="40.4129572213"><ele>301.99</ele><time>2018-09-15T16:24:32Z</time></trkpt><trkpt lat="44.6155744046" lon="40.4140592739"><ele>302.47</ele><time>2018-09-15T16:24:51Z</time></trkpt><trkpt lat="44.6153330058" lon="40.4153781664"><ele>302.95</ele><time>2018-09-15T16:25:13Z</time></trkpt><trkpt lat="44.6153218579" lon="40.4154279549"><ele>302.95</ele><time>2018-09-15T16:25:14Z</time></trkpt><trkpt lat="44.6151102986" lon="40.4165811371"><ele>303.91</ele><time>2018-09-15T16:25:35Z</time></trkpt><trkpt lat="44.6149724163" lon="40.4173551220"><ele>304.39</ele><time>2018-09-15T16:25:50Z</time></trkpt><trkpt lat="44.6148185246" lon="40.4182128422"><ele>304.39</ele><time>2018-09-15T16:26:06Z</time></trkpt><trkpt lat="44.6146151796" lon="40.4193955287"><ele>302.95</ele><time>2018-09-15T16:26:27Z</time></trkpt><trkpt lat="44.6143758763" lon="40.4207249824"><ele>298.63</ele><time>2018-09-15T16:26:45Z</time></trkpt><trkpt lat="44.6140354034" lon="40.4226942267"><ele>293.34</ele><time>2018-09-15T16:27:06Z</time></trkpt><trkpt lat="44.6136266179" lon="40.4248764552"><ele>288.53</ele><time>2018-09-15T16:27:27Z</time></trkpt><trkpt lat="44.6134469099" lon="40.4259456508"><ele>289.49</ele><time>2018-09-15T16:27:42Z</time></trkpt><trkpt lat="44.6132979635" lon="40.4271423351"><ele>289.97</ele><time>2018-09-15T16:28:02Z</time></trkpt><trkpt lat="44.6132569760" lon="40.4283187352"><ele>290.94</ele><time>2018-09-15T16:28:24Z</time></trkpt><trkpt lat="44.6132676210" lon="40.4291035328"><ele>292.38</ele><time>2018-09-15T16:28:41Z</time></trkpt><trkpt lat="44.6133159846" lon="40.4298722371"><ele>293.34</ele><time>2018-09-15T16:28:56Z</time></trkpt><trkpt lat="44.6134473290" lon="40.4306777380"><ele>294.30</ele><time>2018-09-15T16:29:11Z</time></trkpt><trkpt lat="44.6136614028" lon="40.4317686427"><ele>292.38</ele><time>2018-09-15T16:29:28Z</time></trkpt><trkpt lat="44.6139349882" lon="40.4330984317"><ele>291.42</ele><time>2018-09-15T16:29:47Z</time></trkpt><trkpt lat="44.6142499801" lon="40.4345917515"><ele>290.94</ele><time>2018-09-15T16:30:08Z</time></trkpt><trkpt lat="44.6145414189" lon="40.4359790403"><ele>289.97</ele><time>2018-09-15T16:30:28Z</time></trkpt><trkpt lat="44.6147978213" lon="40.4372508265"><ele>288.05</ele><time>2018-09-15T16:30:46Z</time></trkpt><trkpt lat="44.6150714066" lon="40.4388520215"><ele>286.13</ele><time>2018-09-15T16:31:08Z</time></trkpt><trkpt lat="44.6152546350" lon="40.4401942994"><ele>283.73</ele><time>2018-09-15T16:31:27Z</time></trkpt><trkpt lat="44.6154871490" lon="40.4419881944"><ele>279.40</ele><time>2018-09-15T16:31:49Z</time></trkpt><trkpt lat="44.6156961937" lon="40.4435618129"><ele>274.59</ele><time>2018-09-15T16:32:09Z</time></trkpt><trkpt lat="44.6159673482" lon="40.4453270417"><ele>265.94</ele><time>2018-09-15T16:32:30Z</time></trkpt><trkpt lat="44.6161757223" lon="40.4463060480"><ele>264.02</ele><time>2018-09-15T16:32:44Z</time></trkpt><trkpt lat="44.6162402630" lon="40.4469951242"><ele>264.98</ele><time>2018-09-15T16:32:57Z</time></trkpt><trkpt lat="44.6162141953" lon="40.4471507762"><ele>264.98</ele><time>2018-09-15T16:33:04Z</time></trkpt><trkpt lat="44.6161918994" lon="40.4471997265"><ele>265.46</ele><time>2018-09-15T16:33:07Z</time></trkpt><trkpt lat="44.6161847748" lon="40.4472168256"><ele>265.94</ele><time>2018-09-15T16:33:08Z</time></trkpt><trkpt lat="44.6161745489" lon="40.4472330026"><ele>265.94</ele><time>2018-09-15T16:33:09Z</time></trkpt><trkpt lat="44.6161418594" lon="40.4472879879"><ele>267.38</ele><time>2018-09-15T16:33:21Z</time></trkpt><trkpt lat="44.6161579527" lon="40.4472891614"><ele>266.90</ele><time>2018-09-15T16:33:35Z</time></trkpt><trkpt lat="44.6161472239" lon="40.4472928494"><ele>266.90</ele><time>2018-09-15T16:33:51Z</time></trkpt><trkpt lat="44.6161463857" lon="40.4472965375"><ele>265.46</ele><time>2018-09-15T16:34:12Z</time></trkpt><trkpt lat="44.6161494870" lon="40.4472977947"><ele>267.38</ele><time>2018-09-15T16:34:41Z</time></trkpt><trkpt lat="44.6161245927" lon="40.4472936876"><ele>267.38</ele><time>2018-09-15T16:35:09Z</time></trkpt><trkpt lat="44.6161236707" lon="40.4472956154"><ele>266.90</ele><time>2018-09-15T16:35:44Z</time></trkpt><trkpt lat="44.6161284484" lon="40.4473184142"><ele>267.38</ele><time>2018-09-15T16:36:01Z</time></trkpt><trkpt lat="44.6161235869" lon="40.4473070148"><ele>266.90</ele><time>2018-09-15T16:36:22Z</time></trkpt><trkpt lat="44.6160932444" lon="40.4473656882"><ele>267.38</ele><time>2018-09-15T16:36:41Z</time></trkpt><trkpt lat="44.6159252711" lon="40.4475888982"><ele>269.79</ele><time>2018-09-15T16:36:55Z</time></trkpt><trkpt lat="44.6157448925" lon="40.4477816820"><ele>272.19</ele><time>2018-09-15T16:37:09Z</time></trkpt><trkpt lat="44.6155535337" lon="40.4479809199"><ele>274.11</ele><time>2018-09-15T16:37:25Z</time></trkpt><trkpt lat="44.6153594088" lon="40.4482246656"><ele>277.48</ele><time>2018-09-15T16:37:42Z</time></trkpt><trkpt lat="44.6152082831" lon="40.4484999273"><ele>280.36</ele><time>2018-09-15T16:37:58Z</time></trkpt><trkpt lat="44.6151131485" lon="40.4488192778"><ele>281.32</ele><time>2018-09-15T16:38:14Z</time></trkpt><trkpt lat="44.6150363702" lon="40.4491767660"><ele>283.25</ele><time>2018-09-15T16:38:30Z</time></trkpt><trkpt lat="44.6150011662" lon="40.4495744035"><ele>284.21</ele><time>2018-09-15T16:38:46Z</time></trkpt><trkpt lat="44.6149545629" lon="40.4500850290"><ele>285.17</ele><time>2018-09-15T16:39:03Z</time></trkpt><trkpt lat="44.6148701571" lon="40.4505814053"><ele>287.57</ele><time>2018-09-15T16:39:18Z</time></trkpt><trkpt lat="44.6148037724" lon="40.4509084672"><ele>287.57</ele><time>2018-09-15T16:39:29Z</time></trkpt><trkpt lat="44.6146098152" lon="40.4515618365"><ele>288.05</ele><time>2018-09-15T16:39:46Z</time></trkpt><trkpt lat="44.6145193744" lon="40.4517293908"><ele>288.05</ele><time>2018-09-15T16:39:52Z</time></trkpt><trkpt lat="44.6145101544" lon="40.4517494235"><ele>288.05</ele><time>2018-09-15T16:39:53Z</time></trkpt><trkpt lat="44.6143027022" lon="40.4519625753"><ele>288.05</ele><time>2018-09-15T16:40:08Z</time></trkpt><trkpt lat="44.6142871119" lon="40.4519667663"><ele>288.53</ele><time>2018-09-15T16:40:19Z</time></trkpt><trkpt lat="44.6142919734" lon="40.4519702867"><ele>289.01</ele><time>2018-09-15T16:40:37Z</time></trkpt><trkpt lat="44.6142811608" lon="40.4519726336"><ele>287.57</ele><time>2018-09-15T16:41:08Z</time></trkpt><trkpt lat="44.6142695937" lon="40.4519843683"><ele>290.46</ele><time>2018-09-15T16:41:35Z</time></trkpt><trkpt lat="44.6142843459" lon="40.4519821052"><ele>286.13</ele><time>2018-09-15T16:42:03Z</time></trkpt><trkpt lat="44.6142965835" lon="40.4519765731"><ele>286.13</ele><time>2018-09-15T16:42:34Z</time></trkpt><trkpt lat="44.6143171191" lon="40.4519880563"><ele>288.05</ele><time>2018-09-15T16:43:10Z</time></trkpt><trkpt lat="44.6143178735" lon="40.4519615695"><ele>287.57</ele><time>2018-09-15T16:43:45Z</time></trkpt><trkpt lat="44.6143109165" lon="40.4519821052"><ele>287.09</ele><time>2018-09-15T16:44:18Z</time></trkpt><trkpt lat="44.6143062226" lon="40.4519823566"><ele>292.38</ele><time>2018-09-15T16:44:52Z</time></trkpt><trkpt lat="44.6143113356" lon="40.4519899003"><ele>292.38</ele><time>2018-09-15T16:45:29Z</time></trkpt><trkpt lat="44.6143208072" lon="40.4520115256"><ele>294.30</ele><time>2018-09-15T16:46:07Z</time></trkpt><trkpt lat="44.6143323742" lon="40.4520103522"><ele>292.38</ele><time>2018-09-15T16:46:39Z</time></trkpt><trkpt lat="44.6143223997" lon="40.4520047363"><ele>291.90</ele><time>2018-09-15T16:47:15Z</time></trkpt><trkpt lat="44.6143184602" lon="40.4520130344"><ele>290.46</ele><time>2018-09-15T16:47:47Z</time></trkpt><trkpt lat="44.6143163648" lon="40.4520003777"><ele>290.46</ele><time>2018-09-15T16:48:20Z</time></trkpt><trkpt lat="44.6143001039" lon="40.4519742262"><ele>291.42</ele><time>2018-09-15T16:48:50Z</time></trkpt><trkpt lat="44.6143144369" lon="40.4519753158"><ele>289.49</ele><time>2018-09-15T16:49:14Z</time></trkpt><trkpt lat="44.6142940689" lon="40.4520158842"><ele>289.97</ele><time>2018-09-15T16:49:29Z</time></trkpt><trkpt lat="44.6142849326" lon="40.4520301335"><ele>288.53</ele><time>2018-09-15T16:49:42Z</time></trkpt><trkpt lat="44.6142233256" lon="40.4523607995"><ele>289.01</ele><time>2018-09-15T16:49:55Z</time></trkpt><trkpt lat="44.6141052246" lon="40.4527990054"><ele>289.49</ele><time>2018-09-15T16:50:08Z</time></trkpt><trkpt lat="44.6140582860" lon="40.4529720917"><ele>289.01</ele><time>2018-09-15T16:50:13Z</time></trkpt><trkpt lat="44.6139513329" lon="40.4534343537"><ele>287.57</ele><time>2018-09-15T16:50:26Z</time></trkpt><trkpt lat="44.6136562061" lon="40.4540765751"><ele>287.09</ele><time>2018-09-15T16:50:40Z</time></trkpt><trkpt lat="44.6133483388" lon="40.4547383264"><ele>285.17</ele><time>2018-09-15T16:50:52Z</time></trkpt><trkpt lat="44.6133135539" lon="40.4548571818"><ele>285.17</ele><time>2018-09-15T16:50:54Z</time></trkpt><trkpt lat="44.6132081095" lon="40.4558723141"><ele>283.25</ele><time>2018-09-15T16:51:09Z</time></trkpt><trkpt lat="44.6132465824" lon="40.4573395662"><ele>275.56</ele><time>2018-09-15T16:51:27Z</time></trkpt><trkpt lat="44.6133239474" lon="40.4586683493"><ele>269.79</ele><time>2018-09-15T16:51:41Z</time></trkpt><trkpt lat="44.6134744864" lon="40.4597834777"><ele>266.90</ele><time>2018-09-15T16:51:56Z</time></trkpt><trkpt lat="44.6138068289" lon="40.4611338023"><ele>264.98</ele><time>2018-09-15T16:52:15Z</time></trkpt><trkpt lat="44.6139251813" lon="40.4614971578"><ele>263.06</ele><time>2018-09-15T16:52:20Z</time></trkpt><trkpt lat="44.6139561106" lon="40.4615662247"><ele>262.58</ele><time>2018-09-15T16:52:21Z</time></trkpt><trkpt lat="44.6139939968" lon="40.4616379738"><ele>262.10</ele><time>2018-09-15T16:52:22Z</time></trkpt><trkpt lat="44.6140350681" lon="40.4617050290"><ele>261.62</ele><time>2018-09-15T16:52:23Z</time></trkpt><trkpt lat="44.6140793245" lon="40.4617709946"><ele>261.62</ele><time>2018-09-15T16:52:24Z</time></trkpt><trkpt lat="44.6141246706" lon="40.4618294165"><ele>261.14</ele><time>2018-09-15T16:52:25Z</time></trkpt><trkpt lat="44.6141765546" lon="40.4618869163"><ele>260.17</ele><time>2018-09-15T16:52:26Z</time></trkpt><trkpt lat="44.6151623502" lon="40.4628669284"><ele>250.56</ele><time>2018-09-15T16:52:43Z</time></trkpt><trkpt lat="44.6162266005" lon="40.4639372975"><ele>242.87</ele><time>2018-09-15T16:53:01Z</time></trkpt><trkpt lat="44.6167886909" lon="40.4650743864"><ele>239.99</ele><time>2018-09-15T16:53:18Z</time></trkpt><trkpt lat="44.6168668941" lon="40.4652555194"><ele>239.99</ele><time>2018-09-15T16:53:21Z</time></trkpt><trkpt lat="44.6173004899" lon="40.4663303308"><ele>238.54</ele><time>2018-09-15T16:53:39Z</time></trkpt><trkpt lat="44.6176476683" lon="40.4674144462"><ele>237.10</ele><time>2018-09-15T16:53:56Z</time></trkpt><trkpt lat="44.6176983789" lon="40.4676659033"><ele>237.58</ele><time>2018-09-15T16:54:00Z</time></trkpt><trkpt lat="44.6177112870" lon="40.4677197989"><ele>237.58</ele><time>2018-09-15T16:54:01Z</time></trkpt><trkpt lat="44.6177474968" lon="40.4678579327"><ele>238.06</ele><time>2018-09-15T16:54:05Z</time></trkpt><trkpt lat="44.6178341657" lon="40.4685095418"><ele>238.06</ele><time>2018-09-15T16:54:18Z</time></trkpt><trkpt lat="44.6179121174" lon="40.4693817627"><ele>238.54</ele><time>2018-09-15T16:54:34Z</time></trkpt><trkpt lat="44.6180030610" lon="40.4703381378"><ele>238.54</ele><time>2018-09-15T16:54:49Z</time></trkpt><trkpt lat="44.6180363372" lon="40.4706632718"><ele>238.06</ele><time>2018-09-15T16:54:54Z</time></trkpt><trkpt lat="44.6181219164" lon="40.4716729559"><ele>238.06</ele><time>2018-09-15T16:55:10Z</time></trkpt><trkpt lat="44.6182014607" lon="40.4726662952"><ele>239.02</ele><time>2018-09-15T16:55:27Z</time></trkpt><trkpt lat="44.6182716172" lon="40.4736977722"><ele>239.51</ele><time>2018-09-15T16:55:45Z</time></trkpt><trkpt lat="44.6183027141" lon="40.4746185243"><ele>239.51</ele><time>2018-09-15T16:56:01Z</time></trkpt><trkpt lat="44.6181308012" lon="40.4756545275"><ele>239.99</ele><time>2018-09-15T16:56:19Z</time></trkpt><trkpt lat="44.6179948468" lon="40.4761957470"><ele>242.39</ele><time>2018-09-15T16:56:35Z</time></trkpt><trkpt lat="44.6178526059" lon="40.4768408183"><ele>245.27</ele><time>2018-09-15T16:56:55Z</time></trkpt><trkpt lat="44.6177306492" lon="40.4776282143"><ele>248.64</ele><time>2018-09-15T16:57:19Z</time></trkpt><trkpt lat="44.6176410466" lon="40.4781967588"><ele>250.56</ele><time>2018-09-15T16:57:36Z</time></trkpt><trkpt lat="44.6175703872" lon="40.4786092322"><ele>252.48</ele><time>2018-09-15T16:57:51Z</time></trkpt><trkpt lat="44.6174651943" lon="40.4790849891"><ele>255.85</ele><time>2018-09-15T16:58:10Z</time></trkpt><trkpt lat="44.6173449978" lon="40.4794450756"><ele>258.25</ele><time>2018-09-15T16:58:27Z</time></trkpt><trkpt lat="44.6171811316" lon="40.4797575530"><ele>260.17</ele><time>2018-09-15T16:58:45Z</time></trkpt><trkpt lat="44.6171175130" lon="40.4798666015"><ele>261.62</ele><time>2018-09-15T16:58:52Z</time></trkpt><trkpt lat="44.6169707458" lon="40.4801810067"><ele>264.98</ele><time>2018-09-15T16:59:09Z</time></trkpt><trkpt lat="44.6169010084" lon="40.4805983417"><ele>266.90</ele><time>2018-09-15T16:59:26Z</time></trkpt><trkpt lat="44.6169518866" lon="40.4811002500"><ele>267.86</ele><time>2018-09-15T16:59:42Z</time></trkpt><trkpt lat="44.6170695685" lon="40.4816599097"><ele>268.35</ele><time>2018-09-15T16:59:58Z</time></trkpt><trkpt lat="44.6170662157" lon="40.4821881372"><ele>267.86</ele><time>2018-09-15T17:00:12Z</time></trkpt><trkpt lat="44.6170121524" lon="40.4828944802"><ele>268.83</ele><time>2018-09-15T17:00:30Z</time></trkpt><trkpt lat="44.6170034353" lon="40.4836866539"><ele>271.23</ele><time>2018-09-15T17:00:51Z</time></trkpt><trkpt lat="44.6170178521" lon="40.4842111096"><ele>273.63</ele><time>2018-09-15T17:01:09Z</time></trkpt><trkpt lat="44.6170304250" lon="40.4847115930"><ele>276.04</ele><time>2018-09-15T17:01:28Z</time></trkpt><trkpt lat="44.6170492843" lon="40.4851800576"><ele>275.56</ele><time>2018-09-15T17:01:44Z</time></trkpt><trkpt lat="44.6170296706" lon="40.4856792837"><ele>275.56</ele><time>2018-09-15T17:01:59Z</time></trkpt><trkpt lat="44.6169102285" lon="40.4862471577"><ele>277.48</ele><time>2018-09-15T17:02:16Z</time></trkpt><trkpt lat="44.6168005932" lon="40.4867259320"><ele>280.84</ele><time>2018-09-15T17:02:31Z</time></trkpt><trkpt lat="44.6166760381" lon="40.4872634634"><ele>283.25</ele><time>2018-09-15T17:02:47Z</time></trkpt><trkpt lat="44.6165629663" lon="40.4878424853"><ele>283.73</ele><time>2018-09-15T17:03:03Z</time></trkpt><trkpt lat="44.6165239066" lon="40.4884414561"><ele>282.28</ele><time>2018-09-15T17:03:18Z</time></trkpt><trkpt lat="44.6165512316" lon="40.4891560972"><ele>281.32</ele><time>2018-09-15T17:03:33Z</time></trkpt><trkpt lat="44.6166208852" lon="40.4900594149"><ele>280.36</ele><time>2018-09-15T17:03:51Z</time></trkpt><trkpt lat="44.6166694164" lon="40.4905110318"><ele>280.36</ele><time>2018-09-15T17:04:03Z</time></trkpt><trkpt lat="44.6167446021" lon="40.4912884533"><ele>280.84</ele><time>2018-09-15T17:04:22Z</time></trkpt><trkpt lat="44.6168172732" lon="40.4920291621"><ele>282.28</ele><time>2018-09-15T17:04:41Z</time></trkpt><trkpt lat="44.6168539021" lon="40.4925463255"><ele>284.21</ele><time>2018-09-15T17:04:56Z</time></trkpt><trkpt lat="44.6168877650" lon="40.4930427857"><ele>287.09</ele><time>2018-09-15T17:05:13Z</time></trkpt><trkpt lat="44.6169342846" lon="40.4935820773"><ele>288.05</ele><time>2018-09-15T17:05:31Z</time></trkpt><trkpt lat="44.6169725899" lon="40.4940465186"><ele>289.49</ele><time>2018-09-15T17:05:46Z</time></trkpt><trkpt lat="44.6170217916" lon="40.4945649393"><ele>290.94</ele><time>2018-09-15T17:06:03Z</time></trkpt><trkpt lat="44.6170564927" lon="40.4950019717"><ele>293.34</ele><time>2018-09-15T17:06:19Z</time></trkpt><trkpt lat="44.6171079576" lon="40.4955396708"><ele>296.22</ele><time>2018-09-15T17:06:37Z</time></trkpt><trkpt lat="44.6171647031" lon="40.4960732628"><ele>298.15</ele><time>2018-09-15T17:06:54Z</time></trkpt><trkpt lat="44.6172033437" lon="40.4965626821"><ele>299.59</ele><time>2018-09-15T17:07:10Z</time></trkpt><trkpt lat="44.6172433253" lon="40.4970109463"><ele>301.51</ele><time>2018-09-15T17:07:25Z</time></trkpt><trkpt lat="44.6172898449" lon="40.4975534230"><ele>304.39</ele><time>2018-09-15T17:07:44Z</time></trkpt><trkpt lat="44.6173548885" lon="40.4981026053"><ele>306.32</ele><time>2018-09-15T17:08:02Z</time></trkpt><trkpt lat="44.6174214408" lon="40.4987137299"><ele>307.76</ele><time>2018-09-15T17:08:21Z</time></trkpt><trkpt lat="44.6174938604" lon="40.4993252736"><ele>308.72</ele><time>2018-09-15T17:08:38Z</time></trkpt><trkpt lat="44.6175574791" lon="40.4998911358"><ele>310.64</ele><time>2018-09-15T17:08:56Z</time></trkpt><trkpt lat="44.6176084410" lon="40.5004258174"><ele>312.57</ele><time>2018-09-15T17:09:14Z</time></trkpt><trkpt lat="44.6176387835" lon="40.5008171685"><ele>314.97</ele><time>2018-09-15T17:09:28Z</time></trkpt><trkpt lat="44.6176538710" lon="40.5011894088"><ele>317.37</ele><time>2018-09-15T17:09:43Z</time></trkpt><trkpt lat="44.6176598221" lon="40.5016097613"><ele>320.26</ele><time>2018-09-15T17:09:59Z</time></trkpt><trkpt lat="44.6176542901" lon="40.5017083324"><ele>321.22</ele><time>2018-09-15T17:10:10Z</time></trkpt><trkpt lat="44.6176594868" lon="40.5017701909"><ele>321.70</ele><time>2018-09-15T17:10:27Z</time></trkpt><trkpt lat="44.6176371071" lon="40.5021586921"><ele>323.62</ele><time>2018-09-15T17:10:42Z</time></trkpt><trkpt lat="44.6176014841" lon="40.5026444234"><ele>325.54</ele><time>2018-09-15T17:11:00Z</time></trkpt><trkpt lat="44.6175540425" lon="40.5031151511"><ele>328.43</ele><time>2018-09-15T17:11:18Z</time></trkpt><trkpt lat="44.6175262146" lon="40.5035068374"><ele>330.83</ele><time>2018-09-15T17:11:33Z</time></trkpt><trkpt lat="44.6174562257" lon="40.5038671754"><ele>333.23</ele><time>2018-09-15T17:11:47Z</time></trkpt><trkpt lat="44.6173434053" lon="40.5042213947"><ele>334.20</ele><time>2018-09-15T17:12:02Z</time></trkpt><trkpt lat="44.6171854902" lon="40.5045244005"><ele>335.16</ele><time>2018-09-15T17:12:15Z</time></trkpt><trkpt lat="44.6169468574" lon="40.5050003249"><ele>336.12</ele><time>2018-09-15T17:12:33Z</time></trkpt><trkpt lat="44.6167033631" lon="40.5055075977"><ele>337.08</ele><time>2018-09-15T17:12:48Z</time></trkpt><trkpt lat="44.6164389979" lon="40.5060055666"><ele>339.48</ele><time>2018-09-15T17:13:05Z</time></trkpt><trkpt lat="44.6164389979" lon="40.5060328078"><ele>339.48</ele><time>2018-09-15T17:13:21Z</time></trkpt><trkpt lat="44.6164390817" lon="40.5060216598"><ele>340.92</ele><time>2018-09-15T17:13:45Z</time></trkpt><trkpt lat="44.6164483856" lon="40.5060318857"><ele>341.41</ele><time>2018-09-15T17:14:31Z</time></trkpt><trkpt lat="44.6164552588" lon="40.5060219951"><ele>337.56</ele><time>2018-09-15T17:15:09Z</time></trkpt><trkpt lat="44.6164429374" lon="40.5060616415"><ele>340.92</ele><time>2018-09-15T17:15:42Z</time></trkpt><trkpt lat="44.6164214797" lon="40.5060786568"><ele>341.41</ele><time>2018-09-15T17:15:58Z</time></trkpt><trkpt lat="44.6164157800" lon="40.5060830154"><ele>340.44</ele><time>2018-09-15T17:16:12Z</time></trkpt><trkpt lat="44.6164175402" lon="40.5060891341"><ele>342.85</ele><time>2018-09-15T17:16:51Z</time></trkpt><trkpt lat="44.6163999382" lon="40.5061084963"><ele>341.89</ele><time>2018-09-15T17:17:07Z</time></trkpt><trkpt lat="44.6163861081" lon="40.5061354022"><ele>341.89</ele><time>2018-09-15T17:17:23Z</time></trkpt><trkpt lat="44.6163787320" lon="40.5061526690"><ele>341.89</ele><time>2018-09-15T17:17:24Z</time></trkpt><trkpt lat="44.6163716912" lon="40.5061689299"><ele>342.37</ele><time>2018-09-15T17:17:25Z</time></trkpt><trkpt lat="44.6163629740" lon="40.5061882921"><ele>342.37</ele><time>2018-09-15T17:17:26Z</time></trkpt><trkpt lat="44.6163535025" lon="40.5062127672"><ele>342.37</ele><time>2018-09-15T17:17:27Z</time></trkpt><trkpt lat="44.6163417678" lon="40.5062365718"><ele>342.37</ele><time>2018-09-15T17:17:28Z</time></trkpt><trkpt lat="44.6161818411" lon="40.5065657292"><ele>342.85</ele><time>2018-09-15T17:17:43Z</time></trkpt><trkpt lat="44.6160388459" lon="40.5068683997"><ele>342.85</ele><time>2018-09-15T17:17:57Z</time></trkpt><trkpt lat="44.6160269435" lon="40.5068832356"><ele>343.33</ele><time>2018-09-15T17:17:58Z</time></trkpt><trkpt lat="44.6160186455" lon="40.5069011729"><ele>343.33</ele><time>2018-09-15T17:17:59Z</time></trkpt><trkpt lat="44.6160095092" lon="40.5069217924"><ele>343.33</ele><time>2018-09-15T17:18:00Z</time></trkpt><trkpt lat="44.6159999538" lon="40.5069414899"><ele>343.33</ele><time>2018-09-15T17:18:01Z</time></trkpt><trkpt lat="44.6158897318" lon="40.5072501954"><ele>346.21</ele><time>2018-09-15T17:18:16Z</time></trkpt><trkpt lat="44.6158515941" lon="40.5076185800"><ele>348.13</ele><time>2018-09-15T17:18:32Z</time></trkpt><trkpt lat="44.6158664301" lon="40.5079986155"><ele>349.58</ele><time>2018-09-15T17:18:48Z</time></trkpt><trkpt lat="44.6158875525" lon="40.5082898866"><ele>350.54</ele><time>2018-09-15T17:19:00Z</time></trkpt><trkpt lat="44.6159286238" lon="40.5086453632"><ele>351.98</ele><time>2018-09-15T17:19:14Z</time></trkpt><trkpt lat="44.6159893926" lon="40.5091970600"><ele>352.46</ele><time>2018-09-15T17:19:30Z</time></trkpt><trkpt lat="44.6160460543" lon="40.5099804327"><ele>351.50</ele><time>2018-09-15T17:19:47Z</time></trkpt><trkpt lat="44.6158987843" lon="40.5104970932"><ele>351.50</ele><time>2018-09-15T17:20:00Z</time></trkpt><trkpt lat="44.6155520249" lon="40.5112129077"><ele>352.46</ele><time>2018-09-15T17:20:18Z</time></trkpt><trkpt lat="44.6151576564" lon="40.5119966157"><ele>352.46</ele><time>2018-09-15T17:20:36Z</time></trkpt><trkpt lat="44.6147859190" lon="40.5127638113"><ele>352.46</ele><time>2018-09-15T17:20:54Z</time></trkpt><trkpt lat="44.6146653872" lon="40.5130016897"><ele>352.46</ele><time>2018-09-15T17:21:03Z</time></trkpt><trkpt lat="44.6144639701" lon="40.5134378001"><ele>352.94</ele><time>2018-09-15T17:21:18Z</time></trkpt><trkpt lat="44.6142270975" lon="40.5139941070"><ele>354.86</ele><time>2018-09-15T17:21:33Z</time></trkpt><trkpt lat="44.6139716171" lon="40.5146119371"><ele>355.83</ele><time>2018-09-15T17:21:49Z</time></trkpt><trkpt lat="44.6136638336" lon="40.5155144166"><ele>355.34</ele><time>2018-09-15T17:22:07Z</time></trkpt><trkpt lat="44.6132833790" lon="40.5166582949"><ele>352.46</ele><time>2018-09-15T17:22:26Z</time></trkpt><trkpt lat="44.6128688101" lon="40.5178950448"><ele>351.02</ele><time>2018-09-15T17:22:46Z</time></trkpt><trkpt lat="44.6124689095" lon="40.5190626439"><ele>351.02</ele><time>2018-09-15T17:23:06Z</time></trkpt><trkpt lat="44.6121389978" lon="40.5200550612"><ele>351.50</ele><time>2018-09-15T17:23:24Z</time></trkpt><trkpt lat="44.6119676717" lon="40.5210444611"><ele>351.98</ele><time>2018-09-15T17:23:43Z</time></trkpt><trkpt lat="44.6119830944" lon="40.5220402312"><ele>352.46</ele><time>2018-09-15T17:24:03Z</time></trkpt><trkpt lat="44.6120062284" lon="40.5225563049"><ele>354.38</ele><time>2018-09-15T17:24:16Z</time></trkpt><trkpt lat="44.6120397560" lon="40.5234581139"><ele>356.79</ele><time>2018-09-15T17:24:38Z</time></trkpt><trkpt lat="44.6120691765" lon="40.5240550730"><ele>357.75</ele><time>2018-09-15T17:24:54Z</time></trkpt><trkpt lat="44.6121134330" lon="40.5247140583"><ele>359.67</ele><time>2018-09-15T17:25:11Z</time></trkpt><trkpt lat="44.6122292709" lon="40.5254412722"><ele>361.59</ele><time>2018-09-15T17:25:30Z</time></trkpt><trkpt lat="44.6124427579" lon="40.5263083801"><ele>363.52</ele><time>2018-09-15T17:25:52Z</time></trkpt><trkpt lat="44.6126086358" lon="40.5269320775"><ele>364.48</ele><time>2018-09-15T17:26:08Z</time></trkpt><trkpt lat="44.6128300019" lon="40.5278415978"><ele>364.48</ele><time>2018-09-15T17:26:27Z</time></trkpt><trkpt lat="44.6131044254" lon="40.5289149843"><ele>364.48</ele><time>2018-09-15T17:26:47Z</time></trkpt><trkpt lat="44.6134329122" lon="40.5302052945"><ele>363.04</ele><time>2018-09-15T17:27:08Z</time></trkpt><trkpt lat="44.6137203276" lon="40.5313584767"><ele>361.11</ele><time>2018-09-15T17:27:25Z</time></trkpt><trkpt lat="44.6140627284" lon="40.5327292532"><ele>361.11</ele><time>2018-09-15T17:27:45Z</time></trkpt><trkpt lat="44.6144284308" lon="40.5341667496"><ele>360.63</ele><time>2018-09-15T17:28:07Z</time></trkpt><trkpt lat="44.6147448476" lon="40.5353858136"><ele>360.15</ele><time>2018-09-15T17:28:27Z</time></trkpt><trkpt lat="44.6151747555" lon="40.5364597030"><ele>359.19</ele><time>2018-09-15T17:28:46Z</time></trkpt><trkpt lat="44.6157821920" lon="40.5376868136"><ele>358.71</ele><time>2018-09-15T17:29:08Z</time></trkpt><trkpt lat="44.6164810751" lon="40.5390956439"><ele>355.83</ele><time>2018-09-15T17:29:31Z</time></trkpt><trkpt lat="44.6171527170" lon="40.5404678453"><ele>352.94</ele><time>2018-09-15T17:29:51Z</time></trkpt><trkpt lat="44.6179959364" lon="40.5421635043"><ele>347.17</ele><time>2018-09-15T17:30:11Z</time></trkpt><trkpt lat="44.6188970748" lon="40.5440023262"><ele>342.85</ele><time>2018-09-15T17:30:31Z</time></trkpt><trkpt lat="44.6196579840" lon="40.5455672275"><ele>340.92</ele><time>2018-09-15T17:30:52Z</time></trkpt><trkpt lat="44.6203026362" lon="40.5468831863"><ele>339.48</ele><time>2018-09-15T17:31:11Z</time></trkpt><trkpt lat="44.6209353022" lon="40.5481679644"><ele>338.52</ele><time>2018-09-15T17:31:30Z</time></trkpt><trkpt lat="44.6214988176" lon="40.5493104178"><ele>337.08</ele><time>2018-09-15T17:31:49Z</time></trkpt><trkpt lat="44.6221340820" lon="40.5504610855"><ele>335.64</ele><time>2018-09-15T17:32:08Z</time></trkpt><trkpt lat="44.6229078155" lon="40.5514778942"><ele>333.71</ele><time>2018-09-15T17:32:26Z</time></trkpt><trkpt lat="44.6238016617" lon="40.5526122171"><ele>332.27</ele><time>2018-09-15T17:32:46Z</time></trkpt><trkpt lat="44.6245034784" lon="40.5534942448"><ele>330.35</ele><time>2018-09-15T17:33:03Z</time></trkpt><trkpt lat="44.6253977437" lon="40.5545723252"><ele>325.54</ele><time>2018-09-15T17:33:19Z</time></trkpt><trkpt lat="44.6267417818" lon="40.5560919642"><ele>319.30</ele><time>2018-09-15T17:33:40Z</time></trkpt><trkpt lat="44.6276461892" lon="40.5571094435"><ele>316.41</ele><time>2018-09-15T17:33:57Z</time></trkpt><trkpt lat="44.6284341719" lon="40.5580774695"><ele>313.53</ele><time>2018-09-15T17:34:14Z</time></trkpt><trkpt lat="44.6290442906" lon="40.5594184063"><ele>309.20</ele><time>2018-09-15T17:34:30Z</time></trkpt><trkpt lat="44.6293250006" lon="40.5608426593"><ele>305.36</ele><time>2018-09-15T17:34:45Z</time></trkpt><trkpt lat="44.6296322811" lon="40.5624831654"><ele>301.03</ele><time>2018-09-15T17:35:04Z</time></trkpt><trkpt lat="44.6300098859" lon="40.5644259229"><ele>293.82</ele><time>2018-09-15T17:35:23Z</time></trkpt><trkpt lat="44.6300926153" lon="40.5657569692"><ele>292.38</ele><time>2018-09-15T17:35:37Z</time></trkpt><trkpt lat="44.6301082056" lon="40.5665018689"><ele>292.38</ele><time>2018-09-15T17:35:48Z</time></trkpt><trkpt lat="44.6301182639" lon="40.5673869140"><ele>293.82</ele><time>2018-09-15T17:36:05Z</time></trkpt><trkpt lat="44.6301372070" lon="40.5680902395"><ele>294.78</ele><time>2018-09-15T17:36:20Z</time></trkpt><trkpt lat="44.6301398054" lon="40.5688341334"><ele>295.74</ele><time>2018-09-15T17:36:36Z</time></trkpt><trkpt lat="44.6300590038" lon="40.5696598347"><ele>296.70</ele><time>2018-09-15T17:36:55Z</time></trkpt><trkpt lat="44.6299804654" lon="40.5703476537"><ele>298.63</ele><time>2018-09-15T17:37:11Z</time></trkpt><trkpt lat="44.6298481990" lon="40.5713626184"><ele>299.11</ele><time>2018-09-15T17:37:32Z</time></trkpt><trkpt lat="44.6297164354" lon="40.5723828636"><ele>299.59</ele><time>2018-09-15T17:37:53Z</time></trkpt><trkpt lat="44.6295994241" lon="40.5732900370"><ele>301.51</ele><time>2018-09-15T17:38:13Z</time></trkpt><trkpt lat="44.6294850949" lon="40.5741749145"><ele>301.51</ele><time>2018-09-15T17:38:32Z</time></trkpt><trkpt lat="44.6293273475" lon="40.5754116643"><ele>301.51</ele><time>2018-09-15T17:38:54Z</time></trkpt><trkpt lat="44.6291399281" lon="40.5768037308"><ele>299.59</ele><time>2018-09-15T17:39:15Z</time></trkpt><trkpt lat="44.6289668418" lon="40.5781543069"><ele>298.15</ele><time>2018-09-15T17:39:35Z</time></trkpt><trkpt lat="44.6288374253" lon="40.5792285316"><ele>298.63</ele><time>2018-09-15T17:39:52Z</time></trkpt><trkpt lat="44.6286847070" lon="40.5803914368"><ele>298.63</ele><time>2018-09-15T17:40:10Z</time></trkpt><trkpt lat="44.6285425499" lon="40.5814864486"><ele>298.63</ele><time>2018-09-15T17:40:27Z</time></trkpt><trkpt lat="44.6284029074" lon="40.5826151557"><ele>298.63</ele><time>2018-09-15T17:40:45Z</time></trkpt><trkpt lat="44.6282342635" lon="40.5838914681"><ele>298.63</ele><time>2018-09-15T17:41:03Z</time></trkpt><trkpt lat="44.6280837245" lon="40.5850791000"><ele>298.63</ele><time>2018-09-15T17:41:20Z</time></trkpt><trkpt lat="44.6278411523" lon="40.5863565858"><ele>297.67</ele><time>2018-09-15T17:41:38Z</time></trkpt><trkpt lat="44.6275056247" lon="40.5876743887"><ele>298.63</ele><time>2018-09-15T17:41:59Z</time></trkpt><trkpt lat="44.6273494698" lon="40.5884647183"><ele>298.15</ele><time>2018-09-15T17:42:14Z</time></trkpt><trkpt lat="44.6273383219" lon="40.5895277113"><ele>299.11</ele><time>2018-09-15T17:42:32Z</time></trkpt><trkpt lat="44.6274296008" lon="40.5907015968"><ele>299.11</ele><time>2018-09-15T17:42:51Z</time></trkpt><trkpt lat="44.6274969913" lon="40.5917214230"><ele>300.07</ele><time>2018-09-15T17:43:08Z</time></trkpt><trkpt lat="44.6275932156" lon="40.5928336177"><ele>301.03</ele><time>2018-09-15T17:43:28Z</time></trkpt><trkpt lat="44.6276541520" lon="40.5938914139"><ele>302.47</ele><time>2018-09-15T17:43:47Z</time></trkpt><trkpt lat="44.6277538128" lon="40.5949150119"><ele>303.91</ele><time>2018-09-15T17:44:05Z</time></trkpt><trkpt lat="44.6279568225" lon="40.5957559682"><ele>305.36</ele><time>2018-09-15T17:44:22Z</time></trkpt><trkpt lat="44.6281752549" lon="40.5963494908"><ele>307.28</ele><time>2018-09-15T17:44:39Z</time></trkpt><trkpt lat="44.6283559687" lon="40.5967068113"><ele>308.72</ele><time>2018-09-15T17:44:54Z</time></trkpt><trkpt lat="44.6285459865" lon="40.5970311072"><ele>310.64</ele><time>2018-09-15T17:45:09Z</time></trkpt><trkpt lat="44.6287277900" lon="40.5973637849"><ele>313.53</ele><time>2018-09-15T17:45:24Z</time></trkpt><trkpt lat="44.6289756428" lon="40.5977573153"><ele>316.41</ele><time>2018-09-15T17:45:43Z</time></trkpt><trkpt lat="44.6291699354" lon="40.5980583094"><ele>316.89</ele><time>2018-09-15T17:45:57Z</time></trkpt><trkpt lat="44.6294056345" lon="40.5984193180"><ele>318.81</ele><time>2018-09-15T17:46:12Z</time></trkpt><trkpt lat="44.6296449378" lon="40.5988298636"><ele>320.26</ele><time>2018-09-15T17:46:28Z</time></trkpt><trkpt lat="44.6299828961" lon="40.5995087977"><ele>322.18</ele><time>2018-09-15T17:46:51Z</time></trkpt><trkpt lat="44.6302190982" lon="40.6001612451"><ele>322.18</ele><time>2018-09-15T17:47:08Z</time></trkpt><trkpt lat="44.6304448228" lon="40.6009451207"><ele>322.66</ele><time>2018-09-15T17:47:24Z</time></trkpt><trkpt lat="44.6307559591" lon="40.6021340936"><ele>323.62</ele><time>2018-09-15T17:47:46Z</time></trkpt><trkpt lat="44.6310373396" lon="40.6032705959"><ele>325.54</ele><time>2018-09-15T17:48:09Z</time></trkpt><trkpt lat="44.6312406007" lon="40.6040683016"><ele>327.47</ele><time>2018-09-15T17:48:26Z</time></trkpt><trkpt lat="44.6314450353" lon="40.6048926618"><ele>328.91</ele><time>2018-09-15T17:48:43Z</time></trkpt><trkpt lat="44.6316477098" lon="40.6057003420"><ele>331.31</ele><time>2018-09-15T17:49:01Z</time></trkpt><trkpt lat="44.6317898668" lon="40.6063165795"><ele>332.27</ele><time>2018-09-15T17:49:15Z</time></trkpt><trkpt lat="44.6319264919" lon="40.6072893832"><ele>333.71</ele><time>2018-09-15T17:49:34Z</time></trkpt><trkpt lat="44.6320382226" lon="40.6081425771"><ele>333.71</ele><time>2018-09-15T17:49:50Z</time></trkpt><trkpt lat="44.6321167611" lon="40.6087225210"><ele>333.71</ele><time>2018-09-15T17:50:00Z</time></trkpt><trkpt lat="44.6322669648" lon="40.6099176127"><ele>335.16</ele><time>2018-09-15T17:50:20Z</time></trkpt><trkpt lat="44.6322812978" lon="40.6100365520"><ele>335.16</ele><time>2018-09-15T17:50:22Z</time></trkpt><trkpt lat="44.6322888415" lon="40.6100926269"><ele>335.16</ele><time>2018-09-15T17:50:23Z</time></trkpt><trkpt lat="44.6324173361" lon="40.6110584736"><ele>334.68</ele><time>2018-09-15T17:50:39Z</time></trkpt><trkpt lat="44.6325398795" lon="40.6119524036"><ele>334.68</ele><time>2018-09-15T17:50:55Z</time></trkpt><trkpt lat="44.6326392051" lon="40.6127366982"><ele>335.16</ele><time>2018-09-15T17:51:09Z</time></trkpt><trkpt lat="44.6327832062" lon="40.6139255874"><ele>336.60</ele><time>2018-09-15T17:51:28Z</time></trkpt><trkpt lat="44.6328681987" lon="40.6145013403"><ele>336.12</ele><time>2018-09-15T17:51:40Z</time></trkpt><trkpt lat="44.6330035664" lon="40.6155835278"><ele>338.04</ele><time>2018-09-15T17:52:00Z</time></trkpt><trkpt lat="44.6331173927" lon="40.6164076366"><ele>339.00</ele><time>2018-09-15T17:52:16Z</time></trkpt><trkpt lat="44.6332146227" lon="40.6171991397"><ele>339.96</ele><time>2018-09-15T17:52:31Z</time></trkpt><trkpt lat="44.6332996152" lon="40.6178382598"><ele>340.92</ele><time>2018-09-15T17:52:45Z</time></trkpt><trkpt lat="44.6333794948" lon="40.6185516436"><ele>342.37</ele><time>2018-09-15T17:52:59Z</time></trkpt><trkpt lat="44.6335072350" lon="40.6195558794"><ele>344.29</ele><time>2018-09-15T17:53:18Z</time></trkpt><trkpt lat="44.6336317062" lon="40.6205658987"><ele>345.25</ele><time>2018-09-15T17:53:37Z</time></trkpt><trkpt lat="44.6336280182" lon="40.6206034496"><ele>344.77</ele><time>2018-09-15T17:53:48Z</time></trkpt><trkpt lat="44.6336413454" lon="40.6206197105"><ele>341.41</ele><time>2018-09-15T17:54:16Z</time></trkpt><trkpt lat="44.6336264256" lon="40.6206464488"><ele>340.92</ele><time>2018-09-15T17:54:45Z</time></trkpt><trkpt lat="44.6336571034" lon="40.6208124105"><ele>342.37</ele><time>2018-09-15T17:54:57Z</time></trkpt><trkpt lat="44.6337779704" lon="40.6216808595"><ele>342.37</ele><time>2018-09-15T17:55:12Z</time></trkpt><trkpt lat="44.6339482907" lon="40.6229668111"><ele>340.92</ele><time>2018-09-15T17:55:29Z</time></trkpt><trkpt lat="44.6341860853" lon="40.6248699222"><ele>334.20</ele><time>2018-09-15T17:55:48Z</time></trkpt><trkpt lat="44.6343606804" lon="40.6263460591"><ele>327.47</ele><time>2018-09-15T17:56:04Z</time></trkpt><trkpt lat="44.6345404722" lon="40.6277737487"><ele>321.22</ele><time>2018-09-15T17:56:19Z</time></trkpt><trkpt lat="44.6346702240" lon="40.6290972512"><ele>314.01</ele><time>2018-09-15T17:56:34Z</time></trkpt><trkpt lat="44.6347820386" lon="40.6313810684"><ele>304.88</ele><time>2018-09-15T17:56:54Z</time></trkpt><trkpt lat="44.6348793525" lon="40.6336929649"><ele>297.67</ele><time>2018-09-15T17:57:14Z</time></trkpt><trkpt lat="44.6350581385" lon="40.6350343209"><ele>291.90</ele><time>2018-09-15T17:57:28Z</time></trkpt><trkpt lat="44.6354158781" lon="40.6367609929"><ele>286.13</ele><time>2018-09-15T17:57:46Z</time></trkpt><trkpt lat="44.6357322950" lon="40.6377567630"><ele>279.88</ele><time>2018-09-15T17:57:59Z</time></trkpt><trkpt lat="44.6362658031" lon="40.6393473130"><ele>271.71</ele><time>2018-09-15T17:58:15Z</time></trkpt><trkpt lat="44.6370800212" lon="40.6411155593"><ele>264.02</ele><time>2018-09-15T17:58:34Z</time></trkpt><trkpt lat="44.6377758030" lon="40.6425220426"><ele>261.62</ele><time>2018-09-15T17:58:52Z</time></trkpt><trkpt lat="44.6382700838" lon="40.6435220037"><ele>262.10</ele><time>2018-09-15T17:59:08Z</time></trkpt><trkpt lat="44.6385270730" lon="40.6440549251"><ele>262.58</ele><time>2018-09-15T17:59:17Z</time></trkpt><trkpt lat="44.6389780194" lon="40.6449830532"><ele>263.54</ele><time>2018-09-15T17:59:34Z</time></trkpt><trkpt lat="44.6395219211" lon="40.6460747961"><ele>264.02</ele><time>2018-09-15T17:59:54Z</time></trkpt><trkpt lat="44.6399275213" lon="40.6468945462"><ele>264.50</ele><time>2018-09-15T18:00:09Z</time></trkpt><trkpt lat="44.6404467802" lon="40.6479471456"><ele>264.02</ele><time>2018-09-15T18:00:28Z</time></trkpt><trkpt lat="44.6409291588" lon="40.6489088852"><ele>263.54</ele><time>2018-09-15T18:00:46Z</time></trkpt><trkpt lat="44.6414940991" lon="40.6500472315"><ele>263.06</ele><time>2018-09-15T18:01:06Z</time></trkpt><trkpt lat="44.6419898048" lon="40.6510188617"><ele>261.62</ele><time>2018-09-15T18:01:24Z</time></trkpt><trkpt lat="44.6425238997" lon="40.6520918291"><ele>261.62</ele><time>2018-09-15T18:01:42Z</time></trkpt><trkpt lat="44.6430618502" lon="40.6531695742"><ele>262.58</ele><time>2018-09-15T18:02:02Z</time></trkpt><trkpt lat="44.6436029859" lon="40.6542480737"><ele>263.06</ele><time>2018-09-15T18:02:22Z</time></trkpt><trkpt lat="44.6441856120" lon="40.6554210372"><ele>262.10</ele><time>2018-09-15T18:02:42Z</time></trkpt><trkpt lat="44.6447557490" lon="40.6565460563"><ele>261.14</ele><time>2018-09-15T18:03:01Z</time></trkpt><trkpt lat="44.6453867387" lon="40.6578036770"><ele>260.17</ele><time>2018-09-15T18:03:22Z</time></trkpt><trkpt lat="44.6459467337" lon="40.6589264330"><ele>259.69</ele><time>2018-09-15T18:03:41Z</time></trkpt><trkpt lat="44.6465161163" lon="40.6600673776"><ele>259.69</ele><time>2018-09-15T18:04:00Z</time></trkpt><trkpt lat="44.6471076272" lon="40.6612595357"><ele>259.21</ele><time>2018-09-15T18:04:20Z</time></trkpt><trkpt lat="44.6476714779" lon="40.6623910088"><ele>258.73</ele><time>2018-09-15T18:04:39Z</time></trkpt><trkpt lat="44.6482638270" lon="40.6635669898"><ele>257.77</ele><time>2018-09-15T18:04:59Z</time></trkpt><trkpt lat="44.6488577686" lon="40.6647496764"><ele>256.33</ele><time>2018-09-15T18:05:18Z</time></trkpt><trkpt lat="44.6492885984" lon="40.6656202208"><ele>256.33</ele><time>2018-09-15T18:05:34Z</time></trkpt><trkpt lat="44.6497448254" lon="40.6665294059"><ele>256.33</ele><time>2018-09-15T18:05:51Z</time></trkpt><trkpt lat="44.6502757352" lon="40.6675948296"><ele>256.33</ele><time>2018-09-15T18:06:10Z</time></trkpt><trkpt lat="44.6507854387" lon="40.6686451659"><ele>255.85</ele><time>2018-09-15T18:06:28Z</time></trkpt><trkpt lat="44.6508118417" lon="40.6687022466"><ele>255.85</ele><time>2018-09-15T18:06:29Z</time></trkpt><trkpt lat="44.6508369874" lon="40.6687578186"><ele>255.85</ele><time>2018-09-15T18:06:30Z</time></trkpt><trkpt lat="44.6508928109" lon="40.6688578147"><ele>255.85</ele><time>2018-09-15T18:06:32Z</time></trkpt><trkpt lat="44.6509207226" lon="40.6689046696"><ele>255.85</ele><time>2018-09-15T18:06:33Z</time></trkpt><trkpt lat="44.6513044462" lon="40.6697338913"><ele>255.85</ele><time>2018-09-15T18:06:48Z</time></trkpt><trkpt lat="44.6517195180" lon="40.6705847383"><ele>256.33</ele><time>2018-09-15T18:07:04Z</time></trkpt><trkpt lat="44.6518822107" lon="40.6709402986"><ele>256.33</ele><time>2018-09-15T18:07:11Z</time></trkpt><trkpt lat="44.6519035008" lon="40.6709913444"><ele>255.85</ele><time>2018-09-15T18:07:12Z</time></trkpt><trkpt lat="44.6520958655" lon="40.6713710446"><ele>255.85</ele><time>2018-09-15T18:07:20Z</time></trkpt><trkpt lat="44.6524735540" lon="40.6723263301"><ele>255.37</ele><time>2018-09-15T18:07:38Z</time></trkpt><trkpt lat="44.6526930761" lon="40.6730947830"><ele>256.33</ele><time>2018-09-15T18:07:53Z</time></trkpt><trkpt lat="44.6529255062" lon="40.6739872880"><ele>257.29</ele><time>2018-09-15T18:08:10Z</time></trkpt><trkpt lat="44.6531840041" lon="40.6742342189"><ele>256.33</ele><time>2018-09-15T18:08:20Z</time></trkpt><trkpt lat="44.6535479464" lon="40.6739924848"><ele>257.29</ele><time>2018-09-15T18:08:30Z</time></trkpt><trkpt lat="44.6541132219" lon="40.6736190710"><ele>258.25</ele><time>2018-09-15T18:08:46Z</time></trkpt><trkpt lat="44.6547131147" lon="40.6732500996"><ele>258.73</ele><time>2018-09-15T18:09:01Z</time></trkpt><trkpt lat="44.6548753045" lon="40.6731510255"><ele>258.25</ele><time>2018-09-15T18:09:05Z</time></trkpt><trkpt lat="44.6555396542" lon="40.6728486065"><ele>257.77</ele><time>2018-09-15T18:09:20Z</time></trkpt><trkpt lat="44.6557887644" lon="40.6727624405"><ele>257.29</ele><time>2018-09-15T18:09:30Z</time></trkpt><trkpt lat="44.6557626128" lon="40.6727555674"><ele>256.81</ele><time>2018-09-15T18:09:47Z</time></trkpt><trkpt lat="44.6557761915" lon="40.6728069484"><ele>254.41</ele><time>2018-09-15T18:10:14Z</time></trkpt><trkpt lat="44.6557459328" lon="40.6727948785"><ele>258.25</ele><time>2018-09-15T18:10:54Z</time></trkpt><trkpt lat="44.6557649598" lon="40.6727779470"><ele>257.29</ele><time>2018-09-15T18:11:27Z</time></trkpt><trkpt lat="44.6557568293" lon="40.6728108041"><ele>257.29</ele><time>2018-09-15T18:12:01Z</time></trkpt><trkpt lat="44.6557886805" lon="40.6727995723"><ele>256.81</ele><time>2018-09-15T18:12:36Z</time></trkpt><trkpt lat="44.6557528898" lon="40.6727611832"><ele>258.73</ele><time>2018-09-15T18:13:15Z</time></trkpt><trkpt lat="44.6557808854" lon="40.6727769412"><ele>256.33</ele><time>2018-09-15T18:13:57Z</time></trkpt><trkpt lat="44.6557518840" lon="40.6727901008"><ele>257.29</ele><time>2018-09-15T18:14:34Z</time></trkpt><trkpt lat="44.6557686478" lon="40.6728140730"><ele>258.25</ele><time>2018-09-15T18:15:09Z</time></trkpt><trkpt lat="44.6558035165" lon="40.6727515440"><ele>257.29</ele><time>2018-09-15T18:15:30Z</time></trkpt><trkpt lat="44.6561323386" lon="40.6726176850"><ele>256.33</ele><time>2018-09-15T18:15:43Z</time></trkpt><trkpt lat="44.6567959338" lon="40.6723881885"><ele>255.85</ele><time>2018-09-15T18:15:59Z</time></trkpt><trkpt lat="44.6572619677" lon="40.6722792238"><ele>255.37</ele><time>2018-09-15T18:16:12Z</time></trkpt><trkpt lat="44.6572279371" lon="40.6723000109"><ele>254.89</ele><time>2018-09-15T18:16:19Z</time></trkpt><trkpt lat="44.6571947448" lon="40.6723219715"><ele>254.89</ele><time>2018-09-15T18:16:33Z</time></trkpt><trkpt lat="44.6571966726" lon="40.6722980831"><ele>254.41</ele><time>2018-09-15T18:16:37Z</time></trkpt><trkpt lat="44.6572619677" lon="40.6722461153"><ele>253.44</ele><time>2018-09-15T18:16:46Z</time></trkpt><trkpt lat="44.6576886065" lon="40.6721342169"><ele>253.44</ele><time>2018-09-15T18:16:59Z</time></trkpt><trkpt lat="44.6579592582" lon="40.6720393337"><ele>253.93</ele><time>2018-09-15T18:17:06Z</time></trkpt><trkpt lat="44.6586527769" lon="40.6718319654"><ele>254.41</ele><time>2018-09-15T18:17:22Z</time></trkpt><trkpt lat="44.6595328767" lon="40.6716092583"><ele>253.93</ele><time>2018-09-15T18:17:39Z</time></trkpt><trkpt lat="44.6606683731" lon="40.6713061687"><ele>253.44</ele><time>2018-09-15T18:17:59Z</time></trkpt><trkpt lat="44.6615612973" lon="40.6710650213"><ele>252.96</ele><time>2018-09-15T18:18:15Z</time></trkpt><trkpt lat="44.6625122242" lon="40.6708102953"><ele>252.48</ele><time>2018-09-15T18:18:32Z</time></trkpt><trkpt lat="44.6632859576" lon="40.6706051901"><ele>252.48</ele><time>2018-09-15T18:18:46Z</time></trkpt><trkpt lat="44.6644481923" lon="40.6702765357"><ele>251.52</ele><time>2018-09-15T18:19:07Z</time></trkpt><trkpt lat="44.6651349217" lon="40.6697992701"><ele>252.00</ele><time>2018-09-15T18:19:21Z</time></trkpt><trkpt lat="44.6659529954" lon="40.6688576471"><ele>250.56</ele><time>2018-09-15T18:19:40Z</time></trkpt><trkpt lat="44.6668123081" lon="40.6678523216"><ele>250.08</ele><time>2018-09-15T18:19:59Z</time></trkpt><trkpt lat="44.6675201599" lon="40.6672280375"><ele>250.08</ele><time>2018-09-15T18:20:14Z</time></trkpt><trkpt lat="44.6685090568" lon="40.6666308269"><ele>251.04</ele><time>2018-09-15T18:20:33Z</time></trkpt><trkpt lat="44.6694475785" lon="40.6660806388"><ele>251.52</ele><time>2018-09-15T18:20:51Z</time></trkpt><trkpt lat="44.6700920630" lon="40.6657200493"><ele>251.52</ele><time>2018-09-15T18:21:04Z</time></trkpt><trkpt lat="44.6711783577" lon="40.6650882214"><ele>250.08</ele><time>2018-09-15T18:21:25Z</time></trkpt><trkpt lat="44.6718914900" lon="40.6646704674"><ele>249.60</ele><time>2018-09-15T18:21:39Z</time></trkpt><trkpt lat="44.6721358225" lon="40.6645091996"><ele>249.60</ele><time>2018-09-15T18:21:44Z</time></trkpt><trkpt lat="44.6721856948" lon="40.6644832157"><ele>249.60</ele><time>2018-09-15T18:21:45Z</time></trkpt><trkpt lat="44.6722364053" lon="40.6644646917"><ele>249.60</ele><time>2018-09-15T18:21:46Z</time></trkpt><trkpt lat="44.6722874511" lon="40.6644463353"><ele>249.12</ele><time>2018-09-15T18:21:47Z</time></trkpt><trkpt lat="44.6723371558" lon="40.6644233689"><ele>249.60</ele><time>2018-09-15T18:21:48Z</time></trkpt><trkpt lat="44.6723887045" lon="40.6643974688"><ele>249.60</ele><time>2018-09-15T18:21:49Z</time></trkpt><trkpt lat="44.6732850652" lon="40.6638693251"><ele>249.12</ele><time>2018-09-15T18:22:07Z</time></trkpt><trkpt lat="44.6740130335" lon="40.6633377448"><ele>248.64</ele><time>2018-09-15T18:22:23Z</time></trkpt><trkpt lat="44.6747338772" lon="40.6626184098"><ele>247.20</ele><time>2018-09-15T18:22:40Z</time></trkpt><trkpt lat="44.6754237916" lon="40.6618651282"><ele>245.27</ele><time>2018-09-15T18:22:57Z</time></trkpt><trkpt lat="44.6762370039" lon="40.6609972659"><ele>245.27</ele><time>2018-09-15T18:23:15Z</time></trkpt><trkpt lat="44.6769827418" lon="40.6601736601"><ele>243.83</ele><time>2018-09-15T18:23:31Z</time></trkpt><trkpt lat="44.6778791025" lon="40.6592033710"><ele>244.31</ele><time>2018-09-15T18:23:49Z</time></trkpt><trkpt lat="44.6787812468" lon="40.6582193356"><ele>243.35</ele><time>2018-09-15T18:24:07Z</time></trkpt><trkpt lat="44.6797781903" lon="40.6572516449"><ele>243.35</ele><time>2018-09-15T18:24:26Z</time></trkpt><trkpt lat="44.6808504034" lon="40.6562840380"><ele>243.35</ele><time>2018-09-15T18:24:46Z</time></trkpt><trkpt lat="44.6809016168" lon="40.6562319864"><ele>243.35</ele><time>2018-09-15T18:24:47Z</time></trkpt><trkpt lat="44.6809556801" lon="40.6561855506"><ele>243.35</ele><time>2018-09-15T18:24:48Z</time></trkpt><trkpt lat="44.6816554014" lon="40.6555803772"><ele>242.87</ele><time>2018-09-15T18:25:01Z</time></trkpt><trkpt lat="44.6824726369" lon="40.6548651494"><ele>243.35</ele><time>2018-09-15T18:25:17Z</time></trkpt><trkpt lat="44.6835340373" lon="40.6539305672"><ele>242.87</ele><time>2018-09-15T18:25:38Z</time></trkpt><trkpt lat="44.6846276242" lon="40.6529530697"><ele>242.39</ele><time>2018-09-15T18:26:00Z</time></trkpt><trkpt lat="44.6856622864" lon="40.6520385202"><ele>242.39</ele><time>2018-09-15T18:26:21Z</time></trkpt><trkpt lat="44.6867221780" lon="40.6510968972"><ele>241.91</ele><time>2018-09-15T18:26:41Z</time></trkpt><trkpt lat="44.6876697522" lon="40.6502528396"><ele>241.43</ele><time>2018-09-15T18:26:59Z</time></trkpt><trkpt lat="44.6884621773" lon="40.6495465804"><ele>241.43</ele><time>2018-09-15T18:27:14Z</time></trkpt><trkpt lat="44.6893377509" lon="40.6487822346"><ele>240.95</ele><time>2018-09-15T18:27:31Z</time></trkpt><trkpt lat="44.6904128976" lon="40.6478323974"><ele>239.99</ele><time>2018-09-15T18:27:51Z</time></trkpt><trkpt lat="44.6914210729" lon="40.6469359528"><ele>239.02</ele><time>2018-09-15T18:28:10Z</time></trkpt><trkpt lat="44.6924714930" lon="40.6459939945"><ele>239.02</ele><time>2018-09-15T18:28:30Z</time></trkpt><trkpt lat="44.6933238488" lon="40.6452065986"><ele>238.06</ele><time>2018-09-15T18:28:47Z</time></trkpt><trkpt lat="44.6943068784" lon="40.6440864410"><ele>237.58</ele><time>2018-09-15T18:29:08Z</time></trkpt><trkpt lat="44.6950056776" lon="40.6432784256"><ele>236.62</ele><time>2018-09-15T18:29:23Z</time></trkpt><trkpt lat="44.6957426146" lon="40.6424549874"><ele>236.14</ele><time>2018-09-15T18:29:39Z</time></trkpt><trkpt lat="44.6965794638" lon="40.6417698506"><ele>236.62</ele><time>2018-09-15T18:29:56Z</time></trkpt><trkpt lat="44.6974834520" lon="40.6411668565"><ele>235.66</ele><time>2018-09-15T18:30:13Z</time></trkpt><trkpt lat="44.6985986643" lon="40.6404099707"><ele>234.70</ele><time>2018-09-15T18:30:33Z</time></trkpt><trkpt lat="44.6998080052" lon="40.6396032963"><ele>234.22</ele><time>2018-09-15T18:30:54Z</time></trkpt><trkpt lat="44.7006724309" lon="40.6390128750"><ele>234.22</ele><time>2018-09-15T18:31:10Z</time></trkpt><trkpt lat="44.7017415427" lon="40.6382925343"><ele>233.26</ele><time>2018-09-15T18:31:30Z</time></trkpt><trkpt lat="44.7027184535" lon="40.6377194636"><ele>234.22</ele><time>2018-09-15T18:31:48Z</time></trkpt><trkpt lat="44.7037416324" lon="40.6371858716"><ele>236.14</ele><time>2018-09-15T18:32:07Z</time></trkpt><trkpt lat="44.7046405077" lon="40.6367145572"><ele>236.14</ele><time>2018-09-15T18:32:23Z</time></trkpt><trkpt lat="44.7056631837" lon="40.6361877546"><ele>234.22</ele><time>2018-09-15T18:32:41Z</time></trkpt><trkpt lat="44.7057180852" lon="40.6361544784"><ele>233.74</ele><time>2018-09-15T18:32:42Z</time></trkpt><trkpt lat="44.7058839630" lon="40.6360521354"><ele>233.74</ele><time>2018-09-15T18:32:45Z</time></trkpt><trkpt lat="44.7064995300" lon="40.6357471179"><ele>234.22</ele><time>2018-09-15T18:32:57Z</time></trkpt><trkpt lat="44.7072620317" lon="40.6353554316"><ele>235.18</ele><time>2018-09-15T18:33:12Z</time></trkpt><trkpt lat="44.7083089314" lon="40.6348152179"><ele>235.18</ele><time>2018-09-15T18:33:31Z</time></trkpt><trkpt lat="44.7093577590" lon="40.6342755072"><ele>235.66</ele><time>2018-09-15T18:33:50Z</time></trkpt><trkpt lat="44.7105240170" lon="40.6336706690"><ele>237.10</ele><time>2018-09-15T18:34:11Z</time></trkpt><trkpt lat="44.7115257382" lon="40.6331388373"><ele>234.70</ele><time>2018-09-15T18:34:29Z</time></trkpt><trkpt lat="44.7121753357" lon="40.6328048185"><ele>233.74</ele><time>2018-09-15T18:34:42Z</time></trkpt><trkpt lat="44.7130163759" lon="40.6323771738"><ele>233.26</ele><time>2018-09-15T18:34:58Z</time></trkpt><trkpt lat="44.7137906123" lon="40.6319575757"><ele>234.22</ele><time>2018-09-15T18:35:14Z</time></trkpt><trkpt lat="44.7140821349" lon="40.6317974813"><ele>235.18</ele><time>2018-09-15T18:35:20Z</time></trkpt><trkpt lat="44.7148683574" lon="40.6313902885"><ele>235.66</ele><time>2018-09-15T18:35:35Z</time></trkpt><trkpt lat="44.7153669968" lon="40.6311217323"><ele>234.70</ele><time>2018-09-15T18:35:44Z</time></trkpt><trkpt lat="44.7164355218" lon="40.6305742264"><ele>233.26</ele><time>2018-09-15T18:36:03Z</time></trkpt><trkpt lat="44.7174092475" lon="40.6300621759"><ele>233.26</ele><time>2018-09-15T18:36:21Z</time></trkpt><trkpt lat="44.7181507945" lon="40.6296271551"><ele>231.33</ele><time>2018-09-15T18:36:37Z</time></trkpt><trkpt lat="44.7186223604" lon="40.6291480456"><ele>229.41</ele><time>2018-09-15T18:36:48Z</time></trkpt><trkpt lat="44.7189094406" lon="40.6287593767"><ele>228.45</ele><time>2018-09-15T18:36:56Z</time></trkpt><trkpt lat="44.7195407655" lon="40.6277855672"><ele>227.01</ele><time>2018-09-15T18:37:14Z</time></trkpt><trkpt lat="44.7201480344" lon="40.6268218998"><ele>226.53</ele><time>2018-09-15T18:37:33Z</time></trkpt><trkpt lat="44.7201594338" lon="40.6268193014"><ele>226.05</ele><time>2018-09-15T18:37:48Z</time></trkpt><trkpt lat="44.7201721743" lon="40.6268022861"><ele>225.57</ele><time>2018-09-15T18:38:09Z</time></trkpt><trkpt lat="44.7201794665" lon="40.6267833430"><ele>226.05</ele><time>2018-09-15T18:38:24Z</time></trkpt><trkpt lat="44.7204125673" lon="40.6263936684"><ele>226.53</ele><time>2018-09-15T18:38:38Z</time></trkpt><trkpt lat="44.7208438162" lon="40.6257590745"><ele>225.09</ele><time>2018-09-15T18:38:52Z</time></trkpt><trkpt lat="44.7216613870" lon="40.6253397278"><ele>226.05</ele><time>2018-09-15T18:39:09Z</time></trkpt><trkpt lat="44.7226083744" lon="40.6249316130"><ele>225.09</ele><time>2018-09-15T18:39:26Z</time></trkpt><trkpt lat="44.7238145303" lon="40.6244195625"><ele>225.09</ele><time>2018-09-15T18:39:47Z</time></trkpt><trkpt lat="44.7246864997" lon="40.6240531895"><ele>224.61</ele><time>2018-09-15T18:40:03Z</time></trkpt><trkpt lat="44.7254908271" lon="40.6237005629"><ele>225.09</ele><time>2018-09-15T18:40:18Z</time></trkpt><trkpt lat="44.7265268303" lon="40.6232794560"><ele>225.57</ele><time>2018-09-15T18:40:37Z</time></trkpt><trkpt lat="44.7275001369" lon="40.6228652224"><ele>224.61</ele><time>2018-09-15T18:40:55Z</time></trkpt><trkpt lat="44.7278986964" lon="40.6227032840"><ele>224.61</ele><time>2018-09-15T18:41:03Z</time></trkpt><trkpt lat="44.7279852815" lon="40.6229040306"><ele>222.20</ele><time>2018-09-15T18:41:10Z</time></trkpt><trkpt lat="44.7279960103" lon="40.6229429226"><ele>220.76</ele><time>2018-09-15T18:41:21Z</time></trkpt><trkpt lat="44.7279843595" lon="40.6229329482"><ele>220.28</ele><time>2018-09-15T18:41:54Z</time></trkpt><trkpt lat="44.7279374208" lon="40.6229617819"><ele>219.80</ele><time>2018-09-15T18:42:26Z</time></trkpt><trkpt lat="44.7279408574" lon="40.6229326967"><ele>220.28</ele><time>2018-09-15T18:43:13Z</time></trkpt><trkpt lat="44.7279340681" lon="40.6228991691"><ele>220.76</ele><time>2018-09-15T18:43:48Z</time></trkpt><trkpt lat="44.7279550228" lon="40.6229130831"><ele>222.68</ele><time>2018-09-15T18:44:15Z</time></trkpt><trkpt lat="44.7279671766" lon="40.6229146756"><ele>223.16</ele><time>2018-09-15T18:44:52Z</time></trkpt><trkpt lat="44.7279540170" lon="40.6229088083"><ele>222.68</ele><time>2018-09-15T18:45:27Z</time></trkpt><trkpt lat="44.7279520892" lon="40.6229071319"><ele>221.24</ele><time>2018-09-15T18:45:58Z</time></trkpt><trkpt lat="44.7279536817" lon="40.6229136698"><ele>219.32</ele><time>2018-09-15T18:46:28Z</time></trkpt><trkpt lat="44.7279632371" lon="40.6228996720"><ele>222.20</ele><time>2018-09-15T18:46:48Z</time></trkpt><trkpt lat="44.7279636562" lon="40.6228989176"><ele>221.72</ele><time>2018-09-15T18:46:57Z</time></trkpt><trkpt lat="44.7279613093" lon="40.6228587683"><ele>223.16</ele><time>2018-09-15T18:47:03Z</time></trkpt><trkpt lat="44.7279995307" lon="40.6227145996"><ele>227.01</ele><time>2018-09-15T18:47:09Z</time></trkpt><trkpt lat="44.7280944139" lon="40.6226546690"><ele>227.97</ele><time>2018-09-15T18:47:14Z</time></trkpt><trkpt lat="44.7286192048" lon="40.6224205624"><ele>227.97</ele><time>2018-09-15T18:47:28Z</time></trkpt><trkpt lat="44.7295735683" lon="40.6220210809"><ele>226.05</ele><time>2018-09-15T18:47:48Z</time></trkpt><trkpt lat="44.7299152985" lon="40.6218726374"><ele>224.61</ele><time>2018-09-15T18:47:55Z</time></trkpt><trkpt lat="44.7302250937" lon="40.6217191648"><ele>224.61</ele><time>2018-09-15T18:48:02Z</time></trkpt><trkpt lat="44.7305632196" lon="40.6215976272"><ele>224.12</ele><time>2018-09-15T18:48:09Z</time></trkpt><trkpt lat="44.7314653639" lon="40.6212201901"><ele>222.20</ele><time>2018-09-15T18:48:27Z</time></trkpt><trkpt lat="44.7325271834" lon="40.6207679026"><ele>222.20</ele><time>2018-09-15T18:48:48Z</time></trkpt><trkpt lat="44.7333310917" lon="40.6204322074"><ele>222.20</ele><time>2018-09-15T18:49:03Z</time></trkpt><trkpt lat="44.7342838626" lon="40.6200260203"><ele>221.72</ele><time>2018-09-15T18:49:21Z</time></trkpt><trkpt lat="44.7351102345" lon="40.6196878105"><ele>221.24</ele><time>2018-09-15T18:49:37Z</time></trkpt><trkpt lat="44.7361799330" lon="40.6192445755"><ele>219.80</ele><time>2018-09-15T18:49:57Z</time></trkpt><trkpt lat="44.7369260900" lon="40.6189176813"><ele>220.28</ele><time>2018-09-15T18:50:13Z</time></trkpt><trkpt lat="44.7378381249" lon="40.6185284257"><ele>220.28</ele><time>2018-09-15T18:50:31Z</time></trkpt><trkpt lat="44.7388841864" lon="40.6180923991"><ele>219.80</ele><time>2018-09-15T18:50:51Z</time></trkpt><trkpt lat="44.7396623623" lon="40.6177698635"><ele>218.84</ele><time>2018-09-15T18:51:06Z</time></trkpt><trkpt lat="44.7407481540" lon="40.6173148938"><ele>218.84</ele><time>2018-09-15T18:51:26Z</time></trkpt><trkpt lat="44.7415066324" lon="40.6167413201"><ele>217.40</ele><time>2018-09-15T18:51:41Z</time></trkpt><trkpt lat="44.7415370587" lon="40.6166918669"><ele>217.40</ele><time>2018-09-15T18:51:42Z</time></trkpt><trkpt lat="44.7421677969" lon="40.6155201606"><ele>216.43</ele><time>2018-09-15T18:52:00Z</time></trkpt><trkpt lat="44.7428707033" lon="40.6141487136"><ele>215.47</ele><time>2018-09-15T18:52:19Z</time></trkpt><trkpt lat="44.7435658984" lon="40.6127926055"><ele>214.51</ele><time>2018-09-15T18:52:37Z</time></trkpt><trkpt lat="44.7441062797" lon="40.6117296964"><ele>214.03</ele><time>2018-09-15T18:52:52Z</time></trkpt><trkpt lat="44.7448279615" lon="40.6103472691"><ele>213.55</ele><time>2018-09-15T18:53:12Z</time></trkpt><trkpt lat="44.7454860248" lon="40.6090483256"><ele>213.07</ele><time>2018-09-15T18:53:31Z</time></trkpt><trkpt lat="44.7461953014" lon="40.6076456979"><ele>212.11</ele><time>2018-09-15T18:53:52Z</time></trkpt><trkpt lat="44.7467708867" lon="40.6065023225"><ele>211.63</ele><time>2018-09-15T18:54:09Z</time></trkpt><trkpt lat="44.7473787423" lon="40.6053342205"><ele>211.63</ele><time>2018-09-15T18:54:27Z</time></trkpt><trkpt lat="44.7479473706" lon="40.6042209361"><ele>211.15</ele><time>2018-09-15T18:54:44Z</time></trkpt><trkpt lat="44.7484580800" lon="40.6032333802"><ele>211.15</ele><time>2018-09-15T18:54:59Z</time></trkpt><trkpt lat="44.7491440549" lon="40.6021117140"><ele>211.63</ele><time>2018-09-15T18:55:18Z</time></trkpt><trkpt lat="44.7498453688" lon="40.6010685861"><ele>212.59</ele><time>2018-09-15T18:55:36Z</time></trkpt><trkpt lat="44.7505592555" lon="40.6000112928"><ele>213.07</ele><time>2018-09-15T18:55:54Z</time></trkpt><trkpt lat="44.7510903329" lon="40.5992291775"><ele>213.07</ele><time>2018-09-15T18:56:08Z</time></trkpt><trkpt lat="44.7517851088" lon="40.5981800985"><ele>211.15</ele><time>2018-09-15T18:56:26Z</time></trkpt><trkpt lat="44.7522915434" lon="40.5974232964"><ele>210.67</ele><time>2018-09-15T18:56:40Z</time></trkpt><trkpt lat="44.7528610099" lon="40.5965784844"><ele>211.15</ele><time>2018-09-15T18:56:55Z</time></trkpt><trkpt lat="44.7535403632" lon="40.5955631007"><ele>210.67</ele><time>2018-09-15T18:57:13Z</time></trkpt><trkpt lat="44.7543002665" lon="40.5944297835"><ele>210.19</ele><time>2018-09-15T18:57:32Z</time></trkpt><trkpt lat="44.7551677935" lon="40.5931139085"><ele>208.74</ele><time>2018-09-15T18:57:53Z</time></trkpt><trkpt lat="44.7558585461" lon="40.5920865387"><ele>209.22</ele><time>2018-09-15T18:58:10Z</time></trkpt><trkpt lat="44.7565194592" lon="40.5911145732"><ele>208.74</ele><time>2018-09-15T18:58:27Z</time></trkpt><trkpt lat="44.7572437394" lon="40.5900369957"><ele>207.78</ele><time>2018-09-15T18:58:45Z</time></trkpt><trkpt lat="44.7580318060" lon="40.5888548959"><ele>206.82</ele><time>2018-09-15T18:59:05Z</time></trkpt><trkpt lat="44.7588953096" lon="40.5875610653"><ele>206.34</ele><time>2018-09-15T18:59:25Z</time></trkpt><trkpt lat="44.7596414667" lon="40.5864511337"><ele>205.86</ele><time>2018-09-15T18:59:42Z</time></trkpt><trkpt lat="44.7603480611" lon="40.5853984505"><ele>204.90</ele><time>2018-09-15T18:59:59Z</time></trkpt><trkpt lat="44.7611074615" lon="40.5842710007"><ele>204.42</ele><time>2018-09-15T19:00:18Z</time></trkpt><trkpt lat="44.7619800176" lon="40.5829751585"><ele>204.42</ele><time>2018-09-15T19:00:39Z</time></trkpt><trkpt lat="44.7628051322" lon="40.5817397498"><ele>203.94</ele><time>2018-09-15T19:00:59Z</time></trkpt><trkpt lat="44.7636234574" lon="40.5805025809"><ele>203.46</ele><time>2018-09-15T19:01:18Z</time></trkpt><trkpt lat="44.7643739730" lon="40.5793678388"><ele>203.46</ele><time>2018-09-15T19:01:36Z</time></trkpt><trkpt lat="44.7652174439" lon="40.5780973937"><ele>202.98</ele><time>2018-09-15T19:01:55Z</time></trkpt><trkpt lat="44.7662013117" lon="40.5766124558"><ele>202.01</ele><time>2018-09-15T19:02:16Z</time></trkpt><trkpt lat="44.7671298590" lon="40.5752236582"><ele>201.53</ele><time>2018-09-15T19:02:36Z</time></trkpt><trkpt lat="44.7679639421" lon="40.5739752576"><ele>200.57</ele><time>2018-09-15T19:02:54Z</time></trkpt><trkpt lat="44.7686622385" lon="40.5729277711"><ele>200.09</ele><time>2018-09-15T19:03:11Z</time></trkpt><trkpt lat="44.7693995945" lon="40.5718196835"><ele>200.09</ele><time>2018-09-15T19:03:29Z</time></trkpt><trkpt lat="44.7702284809" lon="40.5705632363"><ele>199.61</ele><time>2018-09-15T19:03:48Z</time></trkpt><trkpt lat="44.7708889749" lon="40.5695922766"><ele>199.13</ele><time>2018-09-15T19:04:03Z</time></trkpt><trkpt lat="44.7715493012" lon="40.5685964227"><ele>198.65</ele><time>2018-09-15T19:04:19Z</time></trkpt><trkpt lat="44.7723309137" lon="40.5674357805"><ele>198.17</ele><time>2018-09-15T19:04:38Z</time></trkpt><trkpt lat="44.7730888054" lon="40.5662960932"><ele>198.17</ele><time>2018-09-15T19:04:57Z</time></trkpt><trkpt lat="44.7738254070" lon="40.5652375426"><ele>197.69</ele><time>2018-09-15T19:05:15Z</time></trkpt><trkpt lat="44.7745168302" lon="40.5642180517"><ele>198.17</ele><time>2018-09-15T19:05:32Z</time></trkpt><trkpt lat="44.7752225865" lon="40.5632222816"><ele>198.65</ele><time>2018-09-15T19:05:49Z</time></trkpt><trkpt lat="44.7759104893" lon="40.5622156151"><ele>199.13</ele><time>2018-09-15T19:06:06Z</time></trkpt><trkpt lat="44.7765211947" lon="40.5613322463"><ele>199.13</ele><time>2018-09-15T19:06:21Z</time></trkpt><trkpt lat="44.7771403659" lon="40.5604339577"><ele>198.17</ele><time>2018-09-15T19:06:36Z</time></trkpt><trkpt lat="44.7778686695" lon="40.5593776703"><ele>198.17</ele><time>2018-09-15T19:06:53Z</time></trkpt><trkpt lat="44.7785574105" lon="40.5583930481"><ele>198.17</ele><time>2018-09-15T19:07:09Z</time></trkpt><trkpt lat="44.7793055791" lon="40.5573050771"><ele>197.69</ele><time>2018-09-15T19:07:28Z</time></trkpt><trkpt lat="44.7799804062" lon="40.5563316867"><ele>196.25</ele><time>2018-09-15T19:07:45Z</time></trkpt><trkpt lat="44.7807515413" lon="40.5552271195"><ele>195.28</ele><time>2018-09-15T19:08:03Z</time></trkpt><trkpt lat="44.7814941779" lon="40.5541299284"><ele>194.80</ele><time>2018-09-15T19:08:21Z</time></trkpt><trkpt lat="44.7820730321" lon="40.5532849487"><ele>194.80</ele><time>2018-09-15T19:08:37Z</time></trkpt><trkpt lat="44.7827845719" lon="40.5522677209"><ele>193.84</ele><time>2018-09-15T19:08:54Z</time></trkpt><trkpt lat="44.7834763303" lon="40.5512747169"><ele>193.84</ele><time>2018-09-15T19:09:11Z</time></trkpt><trkpt lat="44.7842211463" lon="40.5502121430"><ele>193.36</ele><time>2018-09-15T19:09:30Z</time></trkpt><trkpt lat="44.7848036047" lon="40.5493669119"><ele>192.88</ele><time>2018-09-15T19:09:45Z</time></trkpt><trkpt lat="44.7853896674" lon="40.5485016480"><ele>191.92</ele><time>2018-09-15T19:10:00Z</time></trkpt><trkpt lat="44.7861263528" lon="40.5474337935"><ele>190.48</ele><time>2018-09-15T19:10:18Z</time></trkpt><trkpt lat="44.7868104000" lon="40.5464607384"><ele>190.48</ele><time>2018-09-15T19:10:35Z</time></trkpt><trkpt lat="44.7875195090" lon="40.5454418343"><ele>191.44</ele><time>2018-09-15T19:10:53Z</time></trkpt><trkpt lat="44.7881913185" lon="40.5444911588"><ele>190.48</ele><time>2018-09-15T19:11:09Z</time></trkpt><trkpt lat="44.7889328655" lon="40.5434474442"><ele>188.56</ele><time>2018-09-15T19:11:27Z</time></trkpt><trkpt lat="44.7896760050" lon="40.5423966050"><ele>187.59</ele><time>2018-09-15T19:11:45Z</time></trkpt><trkpt lat="44.7903870419" lon="40.5413666368"><ele>187.59</ele><time>2018-09-15T19:12:03Z</time></trkpt><trkpt lat="44.7909844201" lon="40.5405266024"><ele>187.59</ele><time>2018-09-15T19:12:18Z</time></trkpt><trkpt lat="44.7915431578" lon="40.5397222750"><ele>187.59</ele><time>2018-09-15T19:12:32Z</time></trkpt><trkpt lat="44.7922210023" lon="40.5387695879"><ele>187.11</ele><time>2018-09-15T19:12:49Z</time></trkpt><trkpt lat="44.7928980086" lon="40.5378339160"><ele>187.11</ele><time>2018-09-15T19:13:06Z</time></trkpt><trkpt lat="44.7936649527" lon="40.5368144251"><ele>187.11</ele><time>2018-09-15T19:13:25Z</time></trkpt><trkpt lat="44.7943831980" lon="40.5358835310"><ele>187.11</ele><time>2018-09-15T19:13:42Z</time></trkpt><trkpt lat="44.7952069715" lon="40.5348342005"><ele>185.19</ele><time>2018-09-15T19:14:02Z</time></trkpt><trkpt lat="44.7959723230" lon="40.5338607263"><ele>185.19</ele><time>2018-09-15T19:14:21Z</time></trkpt><trkpt lat="44.7966540232" lon="40.5330053531"><ele>184.71</ele><time>2018-09-15T19:14:37Z</time></trkpt><trkpt lat="44.7973329574" lon="40.5321570206"><ele>184.23</ele><time>2018-09-15T19:14:53Z</time></trkpt><trkpt lat="44.7980465926" lon="40.5312526971"><ele>184.23</ele><time>2018-09-15T19:15:10Z</time></trkpt><trkpt lat="44.7987867985" lon="40.5303342082"><ele>184.71</ele><time>2018-09-15T19:15:28Z</time></trkpt><trkpt lat="44.7995534074" lon="40.5293707922"><ele>184.23</ele><time>2018-09-15T19:15:46Z</time></trkpt><trkpt lat="44.8004119657" lon="40.5282847490"><ele>183.75</ele><time>2018-09-15T19:16:06Z</time></trkpt><trkpt lat="44.8011771496" lon="40.5273314752"><ele>183.75</ele><time>2018-09-15T19:16:24Z</time></trkpt><trkpt lat="44.8019336164" lon="40.5263829790"><ele>183.75</ele><time>2018-09-15T19:16:42Z</time></trkpt><trkpt lat="44.8027893249" lon="40.5253033899"><ele>183.27</ele><time>2018-09-15T19:17:02Z</time></trkpt><trkpt lat="44.8035559338" lon="40.5244519562"><ele>182.79</ele><time>2018-09-15T19:17:19Z</time></trkpt><trkpt lat="44.8036017828" lon="40.5244061910"><ele>182.31</ele><time>2018-09-15T19:17:20Z</time></trkpt><trkpt lat="44.8036471289" lon="40.5243603420"><ele>182.31</ele><time>2018-09-15T19:17:21Z</time></trkpt><trkpt lat="44.8044996522" lon="40.5235729460"><ele>180.87</ele><time>2018-09-15T19:17:40Z</time></trkpt><trkpt lat="44.8054038081" lon="40.5227541178"><ele>179.90</ele><time>2018-09-15T19:18:00Z</time></trkpt><trkpt lat="44.8062530626" lon="40.5219577532"><ele>179.90</ele><time>2018-09-15T19:18:19Z</time></trkpt><trkpt lat="44.8071299773" lon="40.5211559404"><ele>179.90</ele><time>2018-09-15T19:18:38Z</time></trkpt><trkpt lat="44.8077321332" lon="40.5206044950"><ele>179.90</ele><time>2018-09-15T19:18:52Z</time></trkpt><trkpt lat="44.8084506299" lon="40.5199455936"><ele>178.46</ele><time>2018-09-15T19:19:08Z</time></trkpt><trkpt lat="44.8091362696" lon="40.5193118379"><ele>178.46</ele><time>2018-09-15T19:19:24Z</time></trkpt><trkpt lat="44.8098157067" lon="40.5186785851"><ele>178.46</ele><time>2018-09-15T19:19:40Z</time></trkpt><trkpt lat="44.8107561562" lon="40.5178247206"><ele>177.50</ele><time>2018-09-15T19:20:00Z</time></trkpt><trkpt lat="44.8115834501" lon="40.5170597881"><ele>177.50</ele><time>2018-09-15T19:20:18Z</time></trkpt><trkpt lat="44.8126567528" lon="40.5160782672"><ele>177.02</ele><time>2018-09-15T19:20:41Z</time></trkpt><trkpt lat="44.8136214260" lon="40.5151797272"><ele>176.54</ele><time>2018-09-15T19:21:02Z</time></trkpt><trkpt lat="44.8142661620" lon="40.5145810917"><ele>177.02</ele><time>2018-09-15T19:21:18Z</time></trkpt><trkpt lat="44.8153470084" lon="40.5135782808"><ele>176.06</ele><time>2018-09-15T19:21:42Z</time></trkpt><trkpt lat="44.8162237555" lon="40.5127659068"><ele>175.58</ele><time>2018-09-15T19:22:01Z</time></trkpt><trkpt lat="44.8170968983" lon="40.5119564664"><ele>175.10</ele><time>2018-09-15T19:22:20Z</time></trkpt><trkpt lat="44.8177706357" lon="40.5113119818"><ele>174.62</ele><time>2018-09-15T19:22:35Z</time></trkpt><trkpt lat="44.8184781522" lon="40.5106695928"><ele>173.17</ele><time>2018-09-15T19:22:51Z</time></trkpt><trkpt lat="44.8192266561" lon="40.5099884793"><ele>173.17</ele><time>2018-09-15T19:23:08Z</time></trkpt><trkpt lat="44.8201127071" lon="40.5091710761"><ele>173.17</ele><time>2018-09-15T19:23:27Z</time></trkpt><trkpt lat="44.8210548330" lon="40.5082841869"><ele>173.66</ele><time>2018-09-15T19:23:47Z</time></trkpt><trkpt lat="44.8217039276" lon="40.5076790974"><ele>173.66</ele><time>2018-09-15T19:24:02Z</time></trkpt><trkpt lat="44.8225449678" lon="40.5068995804"><ele>172.69</ele><time>2018-09-15T19:24:21Z</time></trkpt><trkpt lat="44.8234794661" lon="40.5060331430"><ele>172.21</ele><time>2018-09-15T19:24:40Z</time></trkpt><trkpt lat="44.8243040778" lon="40.5052879080"><ele>171.25</ele><time>2018-09-15T19:24:57Z</time></trkpt><trkpt lat="44.8250501510" lon="40.5046078842"><ele>171.73</ele><time>2018-09-15T19:25:13Z</time></trkpt><trkpt lat="44.8259646166" lon="40.5037618987"><ele>170.77</ele><time>2018-09-15T19:25:32Z</time></trkpt><trkpt lat="44.8260626849" lon="40.5036748946"><ele>170.77</ele><time>2018-09-15T19:25:34Z</time></trkpt><trkpt lat="44.8267981969" lon="40.5029813759"><ele>170.77</ele><time>2018-09-15T19:25:50Z</time></trkpt><trkpt lat="44.8276197910" lon="40.5022315308"><ele>170.29</ele><time>2018-09-15T19:26:07Z</time></trkpt><trkpt lat="44.8284390382" lon="40.5014643352"><ele>170.29</ele><time>2018-09-15T19:26:24Z</time></trkpt><trkpt lat="44.8292930704" lon="40.5006650370"><ele>170.29</ele><time>2018-09-15T19:26:42Z</time></trkpt><trkpt lat="44.8302191030" lon="40.4998099152"><ele>168.85</ele><time>2018-09-15T19:27:01Z</time></trkpt><trkpt lat="44.8305630963" lon="40.4995004553"><ele>168.37</ele><time>2018-09-15T19:27:08Z</time></trkpt><trkpt lat="44.8307829536" lon="40.4992793407"><ele>167.89</ele><time>2018-09-15T19:27:13Z</time></trkpt><trkpt lat="44.8313465528" lon="40.4987858981"><ele>168.37</ele><time>2018-09-15T19:27:25Z</time></trkpt><trkpt lat="44.8316359799" lon="40.4985065293"><ele>168.37</ele><time>2018-09-15T19:27:32Z</time></trkpt><trkpt lat="44.8322973959" lon="40.4979174491"><ele>167.41</ele><time>2018-09-15T19:27:47Z</time></trkpt><trkpt lat="44.8331251089" lon="40.4971886426"><ele>166.45</ele><time>2018-09-15T19:28:05Z</time></trkpt><trkpt lat="44.8335582856" lon="40.4969122913"><ele>166.93</ele><time>2018-09-15T19:28:14Z</time></trkpt><trkpt lat="44.8344512098" lon="40.4968611617"><ele>166.93</ele><time>2018-09-15T19:28:32Z</time></trkpt><trkpt lat="44.8356057331" lon="40.4969601519"><ele>165.96</ele><time>2018-09-15T19:28:53Z</time></trkpt><trkpt lat="44.8367315903" lon="40.4970759898"><ele>165.00</ele><time>2018-09-15T19:29:13Z</time></trkpt><trkpt lat="44.8375015520" lon="40.4971945938"><ele>165.00</ele><time>2018-09-15T19:29:27Z</time></trkpt><trkpt lat="44.8384893592" lon="40.4974091705"><ele>165.00</ele><time>2018-09-15T19:29:46Z</time></trkpt><trkpt lat="44.8387134913" lon="40.4974623956"><ele>164.52</ele><time>2018-09-15T19:29:51Z</time></trkpt><trkpt lat="44.8388080392" lon="40.4974989407"><ele>165.00</ele><time>2018-09-15T19:29:53Z</time></trkpt><trkpt lat="44.8390856478" lon="40.4975455441"><ele>164.52</ele><time>2018-09-15T19:29:59Z</time></trkpt><trkpt lat="44.8391309939" lon="40.4975621402"><ele>164.52</ele><time>2018-09-15T19:30:00Z</time></trkpt><trkpt lat="44.8391770944" lon="40.4975775629"><ele>165.00</ele><time>2018-09-15T19:30:01Z</time></trkpt><trkpt lat="44.8400175478" lon="40.4977830872"><ele>165.48</ele><time>2018-09-15T19:30:17Z</time></trkpt><trkpt lat="44.8408884276" lon="40.4979911260"><ele>165.48</ele><time>2018-09-15T19:30:34Z</time></trkpt><trkpt lat="44.8409402277" lon="40.4979993403"><ele>165.48</ele><time>2018-09-15T19:30:35Z</time></trkpt><trkpt lat="44.8416201677" lon="40.4981642962"><ele>165.00</ele><time>2018-09-15T19:30:48Z</time></trkpt><trkpt lat="44.8423868604" lon="40.4983414058"><ele>165.00</ele><time>2018-09-15T19:31:04Z</time></trkpt><trkpt lat="44.8432606738" lon="40.4985972214"><ele>165.00</ele><time>2018-09-15T19:31:21Z</time></trkpt><trkpt lat="44.8440839443" lon="40.4989039991"><ele>165.00</ele><time>2018-09-15T19:31:38Z</time></trkpt><trkpt lat="44.8449265771" lon="40.4992345814"><ele>165.00</ele><time>2018-09-15T19:31:54Z</time></trkpt><trkpt lat="44.8457987979" lon="40.4995737970"><ele>165.48</ele><time>2018-09-15T19:32:11Z</time></trkpt><trkpt lat="44.8463691864" lon="40.4997945763"><ele>165.48</ele><time>2018-09-15T19:32:23Z</time></trkpt><trkpt lat="44.8464171309" lon="40.4998140223"><ele>165.48</ele><time>2018-09-15T19:32:24Z</time></trkpt><trkpt lat="44.8466413468" lon="40.4998975899"><ele>166.45</ele><time>2018-09-15T19:32:29Z</time></trkpt><trkpt lat="44.8473781161" lon="40.5001794733"><ele>167.41</ele><time>2018-09-15T19:32:46Z</time></trkpt><trkpt lat="44.8474198580" lon="40.5001935549"><ele>167.41</ele><time>2018-09-15T19:32:47Z</time></trkpt><trkpt lat="44.8480167333" lon="40.5004225485"><ele>168.37</ele><time>2018-09-15T19:33:01Z</time></trkpt><trkpt lat="44.8489358928" lon="40.5007760972"><ele>168.85</ele><time>2018-09-15T19:33:19Z</time></trkpt><trkpt lat="44.8499464151" lon="40.5011785962"><ele>169.33</ele><time>2018-09-15T19:33:38Z</time></trkpt><trkpt lat="44.8500528652" lon="40.5012163147"><ele>169.33</ele><time>2018-09-15T19:33:40Z</time></trkpt><trkpt lat="44.8509453703" lon="40.5015691929"><ele>168.85</ele><time>2018-09-15T19:33:57Z</time></trkpt><trkpt lat="44.8518266436" lon="40.5019071512"><ele>168.37</ele><time>2018-09-15T19:34:14Z</time></trkpt><trkpt lat="44.8528486490" lon="40.5022910424"><ele>167.41</ele><time>2018-09-15T19:34:33Z</time></trkpt><trkpt lat="44.8537517991" lon="40.5026313476"><ele>165.96</ele><time>2018-09-15T19:34:50Z</time></trkpt><trkpt lat="44.8545625806" lon="40.5029620137"><ele>165.00</ele><time>2018-09-15T19:35:05Z</time></trkpt><trkpt lat="44.8556838278" lon="40.5034023989"><ele>164.04</ele><time>2018-09-15T19:35:25Z</time></trkpt><trkpt lat="44.8564474192" lon="40.5037007947"><ele>163.56</ele><time>2018-09-15T19:35:40Z</time></trkpt><trkpt lat="44.8572882917" lon="40.5040249228"><ele>163.08</ele><time>2018-09-15T19:35:57Z</time></trkpt><trkpt lat="44.8580476921" lon="40.5043209717"><ele>162.60</ele><time>2018-09-15T19:36:12Z</time></trkpt><trkpt lat="44.8581550643" lon="40.5043574329"><ele>162.60</ele><time>2018-09-15T19:36:14Z</time></trkpt><trkpt lat="44.8591334838" lon="40.5047427490"><ele>162.12</ele><time>2018-09-15T19:36:32Z</time></trkpt><trkpt lat="44.8603038490" lon="40.5051923543"><ele>161.16</ele><time>2018-09-15T19:36:53Z</time></trkpt><trkpt lat="44.8612644151" lon="40.5055641755"><ele>160.68</ele><time>2018-09-15T19:37:11Z</time></trkpt><trkpt lat="44.8622742668" lon="40.5059540179"><ele>160.68</ele><time>2018-09-15T19:37:30Z</time></trkpt><trkpt lat="44.8632288817" lon="40.5063183792"><ele>160.68</ele><time>2018-09-15T19:37:48Z</time></trkpt><trkpt lat="44.8633908201" lon="40.5063727777"><ele>160.20</ele><time>2018-09-15T19:37:51Z</time></trkpt><trkpt lat="44.8642218858" lon="40.5067165196"><ele>160.68</ele><time>2018-09-15T19:38:07Z</time></trkpt><trkpt lat="44.8650091980" lon="40.5070149992"><ele>160.20</ele><time>2018-09-15T19:38:23Z</time></trkpt><trkpt lat="44.8659944907" lon="40.5073938612"><ele>159.24</ele><time>2018-09-15T19:38:41Z</time></trkpt><trkpt lat="44.8672824539" lon="40.5079124495"><ele>159.24</ele><time>2018-09-15T19:39:04Z</time></trkpt><trkpt lat="44.8683017772" lon="40.5083178822"><ele>159.24</ele><time>2018-09-15T19:39:22Z</time></trkpt><trkpt lat="44.8691770993" lon="40.5085635558"><ele>158.75</ele><time>2018-09-15T19:39:38Z</time></trkpt><trkpt lat="44.8702883720" lon="40.5086774658"><ele>158.27</ele><time>2018-09-15T19:39:57Z</time></trkpt><trkpt lat="44.8714397941" lon="40.5087463651"><ele>158.27</ele><time>2018-09-15T19:40:17Z</time></trkpt><trkpt lat="44.8725289386" lon="40.5088005960"><ele>158.27</ele><time>2018-09-15T19:40:36Z</time></trkpt><trkpt lat="44.8734202702" lon="40.5088500492"><ele>157.31</ele><time>2018-09-15T19:40:52Z</time></trkpt><trkpt lat="44.8743312992" lon="40.5089440942"><ele>157.31</ele><time>2018-09-15T19:41:10Z</time></trkpt><trkpt lat="44.8751904443" lon="40.5091646221"><ele>157.31</ele><time>2018-09-15T19:41:26Z</time></trkpt><trkpt lat="44.8762730509" lon="40.5094427336"><ele>157.31</ele><time>2018-09-15T19:41:46Z</time></trkpt><trkpt lat="44.8772761971" lon="40.5097120441"><ele>156.83</ele><time>2018-09-15T19:42:04Z</time></trkpt><trkpt lat="44.8782112822" lon="40.5100079253"><ele>156.83</ele><time>2018-09-15T19:42:21Z</time></trkpt><trkpt lat="44.8790910468" lon="40.5103306286"><ele>155.87</ele><time>2018-09-15T19:42:37Z</time></trkpt><trkpt lat="44.8798885010" lon="40.5106349755"><ele>155.39</ele><time>2018-09-15T19:42:52Z</time></trkpt><trkpt lat="44.8809530865" lon="40.5110339541"><ele>154.91</ele><time>2018-09-15T19:43:12Z</time></trkpt><trkpt lat="44.8822135571" lon="40.5115054362"><ele>155.39</ele><time>2018-09-15T19:43:35Z</time></trkpt><trkpt lat="44.8829430342" lon="40.5117677059"><ele>154.91</ele><time>2018-09-15T19:43:50Z</time></trkpt><trkpt lat="44.8837791290" lon="40.5120852124"><ele>154.91</ele><time>2018-09-15T19:44:06Z</time></trkpt><trkpt lat="44.8845734820" lon="40.5123742204"><ele>154.91</ele><time>2018-09-15T19:44:21Z</time></trkpt><trkpt lat="44.8854515702" lon="40.5126853567"><ele>154.91</ele><time>2018-09-15T19:44:39Z</time></trkpt><trkpt lat="44.8861624394" lon="40.5129151046"><ele>154.43</ele><time>2018-09-15T19:44:53Z</time></trkpt><trkpt lat="44.8866535351" lon="40.5130683258"><ele>154.43</ele><time>2018-09-15T19:45:02Z</time></trkpt><trkpt lat="44.8871217482" lon="40.5131844152"><ele>154.91</ele><time>2018-09-15T19:45:11Z</time></trkpt><trkpt lat="44.8872250132" lon="40.5132069625"><ele>154.91</ele><time>2018-09-15T19:45:13Z</time></trkpt><trkpt lat="44.8872771487" lon="40.5132204574"><ele>154.91</ele><time>2018-09-15T19:45:14Z</time></trkpt><trkpt lat="44.8880000040" lon="40.5133312661"><ele>155.39</ele><time>2018-09-15T19:45:29Z</time></trkpt><trkpt lat="44.8888640106" lon="40.5131959822"><ele>155.87</ele><time>2018-09-15T19:45:46Z</time></trkpt><trkpt lat="44.8898514826" lon="40.5129747838"><ele>155.87</ele><time>2018-09-15T19:46:05Z</time></trkpt><trkpt lat="44.8907136451" lon="40.5127649009"><ele>155.39</ele><time>2018-09-15T19:46:22Z</time></trkpt><trkpt lat="44.8910118733" lon="40.5126935709"><ele>154.43</ele><time>2018-09-15T19:46:28Z</time></trkpt><trkpt lat="44.8911114503" lon="40.5126773939"><ele>154.43</ele><time>2018-09-15T19:46:30Z</time></trkpt><trkpt lat="44.8922132514" lon="40.5123935826"><ele>153.95</ele><time>2018-09-15T19:46:52Z</time></trkpt><trkpt lat="44.8928975500" lon="40.5122672673"><ele>153.95</ele><time>2018-09-15T19:47:07Z</time></trkpt><trkpt lat="44.8932542000" lon="40.5122651719"><ele>155.39</ele><time>2018-09-15T19:47:18Z</time></trkpt><trkpt lat="44.8936038930" lon="40.5122849531"><ele>155.87</ele><time>2018-09-15T19:47:30Z</time></trkpt><trkpt lat="44.8937732913" lon="40.5123286229"><ele>155.39</ele><time>2018-09-15T19:47:37Z</time></trkpt><trkpt lat="44.8937915638" lon="40.5123237614"><ele>155.39</ele><time>2018-09-15T19:47:38Z</time></trkpt><trkpt lat="44.8938140273" lon="40.5123292096"><ele>155.87</ele><time>2018-09-15T19:47:39Z</time></trkpt><trkpt lat="44.8938365746" lon="40.5123488232"><ele>155.87</ele><time>2018-09-15T19:47:40Z</time></trkpt><trkpt lat="44.8938599601" lon="40.5123627372"><ele>155.87</ele><time>2018-09-15T19:47:41Z</time></trkpt><trkpt lat="44.8938934878" lon="40.5123768188"><ele>155.39</ele><time>2018-09-15T19:47:42Z</time></trkpt><trkpt lat="44.8939230759" lon="40.5123918224"><ele>155.39</ele><time>2018-09-15T19:47:43Z</time></trkpt><trkpt lat="44.8941051308" lon="40.5123924091"><ele>155.39</ele><time>2018-09-15T19:47:48Z</time></trkpt><trkpt lat="44.8941456154" lon="40.5123683531"><ele>155.39</ele><time>2018-09-15T19:47:49Z</time></trkpt><trkpt lat="44.8941823281" lon="40.5123392679"><ele>155.39</ele><time>2018-09-15T19:47:50Z</time></trkpt><trkpt lat="44.8942486290" lon="40.5122670997"><ele>154.43</ele><time>2018-09-15T19:47:52Z</time></trkpt><trkpt lat="44.8942756187" lon="40.5122261122"><ele>154.43</ele><time>2018-09-15T19:47:53Z</time></trkpt><trkpt lat="44.8942996748" lon="40.5121779162"><ele>153.95</ele><time>2018-09-15T19:47:54Z</time></trkpt><trkpt lat="44.8943190370" lon="40.5121238530"><ele>153.95</ele><time>2018-09-15T19:47:55Z</time></trkpt><trkpt lat="44.8943316936" lon="40.5120775010"><ele>153.47</ele><time>2018-09-15T19:47:56Z</time></trkpt><trkpt lat="44.8942956515" lon="40.5117247906"><ele>152.51</ele><time>2018-09-15T19:48:03Z</time></trkpt><trkpt lat="44.8942696676" lon="40.5116817914"><ele>152.51</ele><time>2018-09-15T19:48:04Z</time></trkpt><trkpt lat="44.8941224813" lon="40.5114917737"><ele>152.03</ele><time>2018-09-15T19:48:09Z</time></trkpt><trkpt lat="44.8940577731" lon="40.5114150792"><ele>152.03</ele><time>2018-09-15T19:48:11Z</time></trkpt><trkpt lat="44.8940297775" lon="40.5113680568"><ele>152.03</ele><time>2018-09-15T19:48:12Z</time></trkpt><trkpt lat="44.8940076493" lon="40.5113144126"><ele>152.03</ele><time>2018-09-15T19:48:13Z</time></trkpt><trkpt lat="44.8939907178" lon="40.5112500396"><ele>152.03</ele><time>2018-09-15T19:48:14Z</time></trkpt><trkpt lat="44.8939801566" lon="40.5111879297"><ele>152.03</ele><time>2018-09-15T19:48:15Z</time></trkpt><trkpt lat="44.8939716071" lon="40.5111285020"><ele>152.03</ele><time>2018-09-15T19:48:16Z</time></trkpt><trkpt lat="44.8939575255" lon="40.5110051204"><ele>151.54</ele><time>2018-09-15T19:48:18Z</time></trkpt><trkpt lat="44.8939505685" lon="40.5109513924"><ele>151.54</ele><time>2018-09-15T19:48:19Z</time></trkpt><trkpt lat="44.8939465452" lon="40.5108897015"><ele>151.54</ele><time>2018-09-15T19:48:20Z</time></trkpt><trkpt lat="44.8939339723" lon="40.5097858887"><ele>150.10</ele><time>2018-09-15T19:48:37Z</time></trkpt><trkpt lat="44.8939835094" lon="40.5086627975"><ele>149.62</ele><time>2018-09-15T19:48:53Z</time></trkpt><trkpt lat="44.8940933123" lon="40.5074121337"><ele>149.62</ele><time>2018-09-15T19:49:11Z</time></trkpt><trkpt lat="44.8942052945" lon="40.5062396731"><ele>149.62</ele><time>2018-09-15T19:49:28Z</time></trkpt><trkpt lat="44.8943028599" lon="40.5052238703"><ele>149.14</ele><time>2018-09-15T19:49:44Z</time></trkpt><trkpt lat="44.8943094816" lon="40.5051580723"><ele>149.14</ele><time>2018-09-15T19:49:45Z</time></trkpt><trkpt lat="44.8944205418" lon="40.5040984321"><ele>149.14</ele><time>2018-09-15T19:50:01Z</time></trkpt><trkpt lat="44.8945553228" lon="40.5027021747"><ele>149.62</ele><time>2018-09-15T19:50:21Z</time></trkpt><trkpt lat="44.8946873378" lon="40.5012447294"><ele>149.62</ele><time>2018-09-15T19:50:40Z</time></trkpt><trkpt lat="44.8947937880" lon="40.5000552535"><ele>148.18</ele><time>2018-09-15T19:50:55Z</time></trkpt><trkpt lat="44.8950149864" lon="40.4991485830"><ele>148.66</ele><time>2018-09-15T19:51:08Z</time></trkpt><trkpt lat="44.8955261987" lon="40.4978636373"><ele>149.14</ele><time>2018-09-15T19:51:28Z</time></trkpt><trkpt lat="44.8957494926" lon="40.4970092699"><ele>149.14</ele><time>2018-09-15T19:51:41Z</time></trkpt><trkpt lat="44.8957049847" lon="40.4958839994"><ele>149.62</ele><time>2018-09-15T19:51:57Z</time></trkpt><trkpt lat="44.8955874704" lon="40.4944955371"><ele>148.66</ele><time>2018-09-15T19:52:16Z</time></trkpt><trkpt lat="44.8955801781" lon="40.4941493645"><ele>148.66</ele><time>2018-09-15T19:52:24Z</time></trkpt><trkpt lat="44.8955499195" lon="40.4933477193"><ele>147.70</ele><time>2018-09-15T19:52:38Z</time></trkpt><trkpt lat="44.8956518434" lon="40.4922087863"><ele>148.18</ele><time>2018-09-15T19:52:54Z</time></trkpt><trkpt lat="44.8957689386" lon="40.4909433704"><ele>147.70</ele><time>2018-09-15T19:53:11Z</time></trkpt><trkpt lat="44.8958962597" lon="40.4896053672"><ele>148.66</ele><time>2018-09-15T19:53:29Z</time></trkpt><trkpt lat="44.8959819227" lon="40.4889522493"><ele>148.18</ele><time>2018-09-15T19:53:38Z</time></trkpt><trkpt lat="44.8963166121" lon="40.4879845586"><ele>147.70</ele><time>2018-09-15T19:53:53Z</time></trkpt><trkpt lat="44.8969457578" lon="40.4866243433"><ele>148.18</ele><time>2018-09-15T19:54:14Z</time></trkpt><trkpt lat="44.8974333331" lon="40.4855265655"><ele>147.70</ele><time>2018-09-15T19:54:31Z</time></trkpt><trkpt lat="44.8974602390" lon="40.4854666349"><ele>147.70</ele><time>2018-09-15T19:54:32Z</time></trkpt><trkpt lat="44.8979083356" lon="40.4844591301"><ele>146.74</ele><time>2018-09-15T19:54:48Z</time></trkpt><trkpt lat="44.8984513991" lon="40.4832859151"><ele>146.74</ele><time>2018-09-15T19:55:07Z</time></trkpt><trkpt lat="44.8987233918" lon="40.4826851003"><ele>145.78</ele><time>2018-09-15T19:55:17Z</time></trkpt><trkpt lat="44.8987460230" lon="40.4826291930"><ele>146.26</ele><time>2018-09-15T19:55:18Z</time></trkpt><trkpt lat="44.8988391459" lon="40.4824225791"><ele>145.78</ele><time>2018-09-15T19:55:22Z</time></trkpt><trkpt lat="44.8989421595" lon="40.4821989499"><ele>146.26</ele><time>2018-09-15T19:55:26Z</time></trkpt><trkpt lat="44.8993708100" lon="40.4812305048"><ele>145.78</ele><time>2018-09-15T19:55:42Z</time></trkpt><trkpt lat="44.8999751452" lon="40.4799126182"><ele>146.74</ele><time>2018-09-15T19:56:02Z</time></trkpt><trkpt lat="44.9004001077" lon="40.4789766110"><ele>145.78</ele><time>2018-09-15T19:56:16Z</time></trkpt><trkpt lat="44.9009437580" lon="40.4777653422"><ele>146.26</ele><time>2018-09-15T19:56:34Z</time></trkpt><trkpt lat="44.9015173316" lon="40.4765260778"><ele>145.78</ele><time>2018-09-15T19:56:52Z</time></trkpt><trkpt lat="44.9020500015" lon="40.4753436428"><ele>145.30</ele><time>2018-09-15T19:57:10Z</time></trkpt><trkpt lat="44.9021839444" lon="40.4750231188"><ele>145.30</ele><time>2018-09-15T19:57:15Z</time></trkpt><trkpt lat="44.9025680032" lon="40.4739024583"><ele>144.82</ele><time>2018-09-15T19:57:31Z</time></trkpt><trkpt lat="44.9029435962" lon="40.4727946222"><ele>143.37</ele><time>2018-09-15T19:57:46Z</time></trkpt><trkpt lat="44.9029917922" lon="40.4726440832"><ele>143.85</ele><time>2018-09-15T19:57:48Z</time></trkpt><trkpt lat="44.9033634458" lon="40.4715443775"><ele>143.37</ele><time>2018-09-15T19:58:03Z</time></trkpt><trkpt lat="44.9037745781" lon="40.4702984076"><ele>143.37</ele><time>2018-09-15T19:58:20Z</time></trkpt><trkpt lat="44.9042855389" lon="40.4687480908"><ele>143.37</ele><time>2018-09-15T19:58:40Z</time></trkpt><trkpt lat="44.9047447834" lon="40.4673897196"><ele>142.89</ele><time>2018-09-15T19:58:58Z</time></trkpt><trkpt lat="44.9052818958" lon="40.4657870159"><ele>141.93</ele><time>2018-09-15T19:59:20Z</time></trkpt><trkpt lat="44.9054287467" lon="40.4653788172"><ele>141.93</ele><time>2018-09-15T19:59:26Z</time></trkpt><trkpt lat="44.9058877397" lon="40.4639928695"><ele>141.45</ele><time>2018-09-15T19:59:45Z</time></trkpt><trkpt lat="44.9062961899" lon="40.4627339914"><ele>141.93</ele><time>2018-09-15T20:00:02Z</time></trkpt><trkpt lat="44.9067427777" lon="40.4613804817"><ele>140.97</ele><time>2018-09-15T20:00:21Z</time></trkpt><trkpt lat="44.9070928060" lon="40.4603516031"><ele>140.49</ele><time>2018-09-15T20:00:36Z</time></trkpt><trkpt lat="44.9074258190" lon="40.4593344592"><ele>140.01</ele><time>2018-09-15T20:00:51Z</time></trkpt><trkpt lat="44.9078635219" lon="40.4580263793"><ele>140.01</ele><time>2018-09-15T20:01:10Z</time></trkpt><trkpt lat="44.9082374386" lon="40.4569100775"><ele>139.53</ele><time>2018-09-15T20:01:27Z</time></trkpt><trkpt lat="44.9086045660" lon="40.4557986371"><ele>140.01</ele><time>2018-09-15T20:01:43Z</time></trkpt><trkpt lat="44.9090339709" lon="40.4545269348"><ele>139.53</ele><time>2018-09-15T20:02:01Z</time></trkpt><trkpt lat="44.9094363023" lon="40.4533193540"><ele>138.57</ele><time>2018-09-15T20:02:18Z</time></trkpt><trkpt lat="44.9097597599" lon="40.4523420241"><ele>138.57</ele><time>2018-09-15T20:02:35Z</time></trkpt><trkpt lat="44.9100605026" lon="40.4514090344"><ele>138.57</ele><time>2018-09-15T20:02:50Z</time></trkpt><trkpt lat="44.9101024959" lon="40.4512911849"><ele>138.57</ele><time>2018-09-15T20:02:52Z</time></trkpt><trkpt lat="44.9102974590" lon="40.4506990034"><ele>138.57</ele><time>2018-09-15T20:03:02Z</time></trkpt><trkpt lat="44.9106753152" lon="40.4496090207"><ele>138.57</ele><time>2018-09-15T20:03:19Z</time></trkpt><trkpt lat="44.9110392574" lon="40.4485123325"><ele>138.09</ele><time>2018-09-15T20:03:36Z</time></trkpt><trkpt lat="44.9113780539" lon="40.4474517703"><ele>136.64</ele><time>2018-09-15T20:03:52Z</time></trkpt><trkpt lat="44.9117016792" lon="40.4464950599"><ele>136.64</ele><time>2018-09-15T20:04:07Z</time></trkpt><trkpt lat="44.9120495282" lon="40.4454510100"><ele>136.64</ele><time>2018-09-15T20:04:23Z</time></trkpt><trkpt lat="44.9124744069" lon="40.4441591911"><ele>136.16</ele><time>2018-09-15T20:04:43Z</time></trkpt><trkpt lat="44.9128214177" lon="40.4431217629"><ele>136.16</ele><time>2018-09-15T20:04:59Z</time></trkpt><trkpt lat="44.9131836835" lon="40.4420637153"><ele>136.64</ele><time>2018-09-15T20:05:16Z</time></trkpt><trkpt lat="44.9135175347" lon="40.4410338309"><ele>137.13</ele><time>2018-09-15T20:05:33Z</time></trkpt><trkpt lat="44.9138267431" lon="40.4401003383"><ele>136.64</ele><time>2018-09-15T20:05:49Z</time></trkpt><trkpt lat="44.9140647054" lon="40.4393868707"><ele>136.64</ele><time>2018-09-15T20:06:01Z</time></trkpt><trkpt lat="44.9144295696" lon="40.4383316729"><ele>136.16</ele><time>2018-09-15T20:06:18Z</time></trkpt><trkpt lat="44.9147567153" lon="40.4373403452"><ele>135.20</ele><time>2018-09-15T20:06:33Z</time></trkpt><trkpt lat="44.9150982779" lon="40.4363166634"><ele>134.72</ele><time>2018-09-15T20:06:48Z</time></trkpt><trkpt lat="44.9155113380" lon="40.4350603838"><ele>135.68</ele><time>2018-09-15T20:07:07Z</time></trkpt><trkpt lat="44.9155318737" lon="40.4349942505"><ele>135.68</ele><time>2018-09-15T20:07:08Z</time></trkpt><trkpt lat="44.9155522417" lon="40.4349288717"><ele>135.20</ele><time>2018-09-15T20:07:09Z</time></trkpt><trkpt lat="44.9159411620" lon="40.4337823950"><ele>135.68</ele><time>2018-09-15T20:07:27Z</time></trkpt><trkpt lat="44.9163014162" lon="40.4327299632"><ele>135.20</ele><time>2018-09-15T20:07:44Z</time></trkpt><trkpt lat="44.9165853113" lon="40.4318559822"><ele>134.72</ele><time>2018-09-15T20:07:59Z</time></trkpt><trkpt lat="44.9169416260" lon="40.4307750519"><ele>133.76</ele><time>2018-09-15T20:08:17Z</time></trkpt><trkpt lat="44.9172867928" lon="40.4297477659"><ele>133.28</ele><time>2018-09-15T20:08:34Z</time></trkpt><trkpt lat="44.9174856115" lon="40.4291547462"><ele>133.28</ele><time>2018-09-15T20:08:45Z</time></trkpt><trkpt lat="44.9175855238" lon="40.4288580269"><ele>132.80</ele><time>2018-09-15T20:08:50Z</time></trkpt><trkpt lat="44.9176047184" lon="40.4287959170"><ele>132.80</ele><time>2018-09-15T20:08:51Z</time></trkpt><trkpt lat="44.9176659901" lon="40.4286154546"><ele>132.80</ele><time>2018-09-15T20:08:54Z</time></trkpt><trkpt lat="44.9176865257" lon="40.4285580385"><ele>132.80</ele><time>2018-09-15T20:08:55Z</time></trkpt><trkpt lat="44.9177387450" lon="40.4283929989"><ele>132.80</ele><time>2018-09-15T20:08:58Z</time></trkpt><trkpt lat="44.9177586101" lon="40.4283386841"><ele>132.80</ele><time>2018-09-15T20:08:59Z</time></trkpt><trkpt lat="44.9180674832" lon="40.4274117295"><ele>132.32</ele><time>2018-09-15T20:09:14Z</time></trkpt><trkpt lat="44.9184285756" lon="40.4263048153"><ele>132.80</ele><time>2018-09-15T20:09:31Z</time></trkpt><trkpt lat="44.9184540566" lon="40.4262393527"><ele>133.28</ele><time>2018-09-15T20:09:32Z</time></trkpt><trkpt lat="44.9188141432" lon="40.4251646250"><ele>132.80</ele><time>2018-09-15T20:09:49Z</time></trkpt><trkpt lat="44.9191836175" lon="40.4240745585"><ele>132.32</ele><time>2018-09-15T20:10:06Z</time></trkpt><trkpt lat="44.9194873776" lon="40.4231589194"><ele>131.84</ele><time>2018-09-15T20:10:21Z</time></trkpt><trkpt lat="44.9197807442" lon="40.4222614691"><ele>131.84</ele><time>2018-09-15T20:10:36Z</time></trkpt><trkpt lat="44.9198358133" lon="40.4220825154"><ele>131.84</ele><time>2018-09-15T20:10:39Z</time></trkpt><trkpt lat="44.9201390706" lon="40.4211306665"><ele>132.80</ele><time>2018-09-15T20:10:54Z</time></trkpt><trkpt lat="44.9204910267" lon="40.4200562742"><ele>132.80</ele><time>2018-09-15T20:11:10Z</time></trkpt><trkpt lat="44.9208600819" lon="40.4189345241"><ele>132.80</ele><time>2018-09-15T20:11:27Z</time></trkpt><trkpt lat="44.9213468190" lon="40.4174843710"><ele>132.80</ele><time>2018-09-15T20:11:48Z</time></trkpt><trkpt lat="44.9217731226" lon="40.4162021074"><ele>132.80</ele><time>2018-09-15T20:12:07Z</time></trkpt><trkpt lat="44.9220723566" lon="40.4152893182"><ele>133.76</ele><time>2018-09-15T20:12:21Z</time></trkpt><trkpt lat="44.9224673957" lon="40.4141070507"><ele>133.28</ele><time>2018-09-15T20:12:39Z</time></trkpt><trkpt lat="44.9227193557" lon="40.4133651685"><ele>132.32</ele><time>2018-09-15T20:12:50Z</time></trkpt><trkpt lat="44.9227399752" lon="40.4133028071"><ele>132.32</ele><time>2018-09-15T20:12:51Z</time></trkpt><trkpt lat="44.9228388816" lon="40.4130182415"><ele>132.32</ele><time>2018-09-15T20:12:56Z</time></trkpt><trkpt lat="44.9231205974" lon="40.4121679813"><ele>132.32</ele><time>2018-09-15T20:13:10Z</time></trkpt><trkpt lat="44.9234774150" lon="40.4110879730"><ele>132.32</ele><time>2018-09-15T20:13:27Z</time></trkpt><trkpt lat="44.9238355737" lon="40.4100360442"><ele>132.32</ele><time>2018-09-15T20:13:44Z</time></trkpt><trkpt lat="44.9241272639" lon="40.4091277812"><ele>132.80</ele><time>2018-09-15T20:13:58Z</time></trkpt><trkpt lat="44.9245836586" lon="40.4077206273"><ele>132.80</ele><time>2018-09-15T20:14:19Z</time></trkpt><trkpt lat="44.9247210380" lon="40.4073334672"><ele>132.80</ele><time>2018-09-15T20:14:25Z</time></trkpt><trkpt lat="44.9247426633" lon="40.4072749615"><ele>132.80</ele><time>2018-09-15T20:14:26Z</time></trkpt><trkpt lat="44.9247826450" lon="40.4071587883"><ele>132.32</ele><time>2018-09-15T20:14:28Z</time></trkpt><trkpt lat="44.9248034321" lon="40.4071044736"><ele>132.80</ele><time>2018-09-15T20:14:29Z</time></trkpt><trkpt lat="44.9251531251" lon="40.4060274828"><ele>131.84</ele><time>2018-09-15T20:14:46Z</time></trkpt><trkpt lat="44.9255092721" lon="40.4049639031"><ele>131.36</ele><time>2018-09-15T20:15:02Z</time></trkpt><trkpt lat="44.9258499127" lon="40.4039285704"><ele>132.32</ele><time>2018-09-15T20:15:18Z</time></trkpt><trkpt lat="44.9262142740" lon="40.4028350674"><ele>132.80</ele><time>2018-09-15T20:15:35Z</time></trkpt><trkpt lat="44.9262563512" lon="40.4027142841"><ele>132.32</ele><time>2018-09-15T20:15:37Z</time></trkpt><trkpt lat="44.9262760486" lon="40.4026516713"><ele>132.32</ele><time>2018-09-15T20:15:38Z</time></trkpt><trkpt lat="44.9265415873" lon="40.4018618446"><ele>131.36</ele><time>2018-09-15T20:15:54Z</time></trkpt><trkpt lat="44.9267031904" lon="40.4013688210"><ele>131.36</ele><time>2018-09-15T20:16:05Z</time></trkpt><trkpt lat="44.9267225526" lon="40.4013135843"><ele>131.36</ele><time>2018-09-15T20:16:06Z</time></trkpt><trkpt lat="44.9270419031" lon="40.4003248550"><ele>130.88</ele><time>2018-09-15T20:16:22Z</time></trkpt><trkpt lat="44.9273874890" lon="40.3992883489"><ele>129.92</ele><time>2018-09-15T20:16:38Z</time></trkpt><trkpt lat="44.9276725575" lon="40.3984242585"><ele>129.92</ele><time>2018-09-15T20:16:52Z</time></trkpt><trkpt lat="44.9281566963" lon="40.3969488759"><ele>129.43</ele><time>2018-09-15T20:17:13Z</time></trkpt><trkpt lat="44.9285911303" lon="40.3956639301"><ele>128.47</ele><time>2018-09-15T20:17:31Z</time></trkpt><trkpt lat="44.9289457686" lon="40.3945941478"><ele>128.95</ele><time>2018-09-15T20:17:46Z</time></trkpt><trkpt lat="44.9293673784" lon="40.3932990599"><ele>129.43</ele><time>2018-09-15T20:18:04Z</time></trkpt><trkpt lat="44.9297640100" lon="40.3920692671"><ele>128.47</ele><time>2018-09-15T20:18:21Z</time></trkpt><trkpt lat="44.9301697779" lon="40.3908384684"><ele>127.99</ele><time>2018-09-15T20:18:38Z</time></trkpt><trkpt lat="44.9306400865" lon="40.3894030675"><ele>127.51</ele><time>2018-09-15T20:18:58Z</time></trkpt><trkpt lat="44.9311324395" lon="40.3878791537"><ele>127.51</ele><time>2018-09-15T20:19:19Z</time></trkpt><trkpt lat="44.9314824678" lon="40.3868599981"><ele>127.03</ele><time>2018-09-15T20:19:34Z</time></trkpt><trkpt lat="44.9318822846" lon="40.3856916446"><ele>126.07</ele><time>2018-09-15T20:19:51Z</time></trkpt><trkpt lat="44.9321208335" lon="40.3851225134"><ele>125.59</ele><time>2018-09-15T20:20:00Z</time></trkpt><trkpt lat="44.9326400924" lon="40.3842735942"><ele>125.59</ele><time>2018-09-15T20:20:16Z</time></trkpt><trkpt lat="44.9329715967" lon="40.3837757930"><ele>125.11</ele><time>2018-09-15T20:20:26Z</time></trkpt><trkpt lat="44.9334771093" lon="40.3830409516"><ele>125.11</ele><time>2018-09-15T20:20:41Z</time></trkpt><trkpt lat="44.9337065220" lon="40.3827029094"><ele>125.59</ele><time>2018-09-15T20:20:48Z</time></trkpt><trkpt lat="44.9337980524" lon="40.3825636860"><ele>125.59</ele><time>2018-09-15T20:20:51Z</time></trkpt><trkpt lat="44.9338307418" lon="40.3825151548"><ele>125.59</ele><time>2018-09-15T20:20:52Z</time></trkpt><trkpt lat="44.9343649205" lon="40.3817054629"><ele>126.07</ele><time>2018-09-15T20:21:08Z</time></trkpt><trkpt lat="44.9349022843" lon="40.3808960225"><ele>125.59</ele><time>2018-09-15T20:21:25Z</time></trkpt><trkpt lat="44.9349352252" lon="40.3808515985"><ele>125.59</ele><time>2018-09-15T20:21:26Z</time></trkpt><trkpt lat="44.9355467688" lon="40.3798926249"><ele>125.59</ele><time>2018-09-15T20:21:45Z</time></trkpt><trkpt lat="44.9357902631" lon="40.3794376552"><ele>124.63</ele><time>2018-09-15T20:21:53Z</time></trkpt><trkpt lat="44.9360756669" lon="40.3784557153"><ele>124.15</ele><time>2018-09-15T20:22:08Z</time></trkpt><trkpt lat="44.9362414610" lon="40.3777770326"><ele>125.11</ele><time>2018-09-15T20:22:19Z</time></trkpt><trkpt lat="44.9363006372" lon="40.3775991686"><ele>125.11</ele><time>2018-09-15T20:22:22Z</time></trkpt><trkpt lat="44.9365353305" lon="40.3765990399"><ele>125.59</ele><time>2018-09-15T20:22:38Z</time></trkpt><trkpt lat="44.9367618095" lon="40.3757419903"><ele>126.55</ele><time>2018-09-15T20:22:52Z</time></trkpt><trkpt lat="44.9367883801" lon="40.3756174352"><ele>126.55</ele><time>2018-09-15T20:22:54Z</time></trkpt><trkpt lat="44.9368503224" lon="40.3753861785"><ele>126.55</ele><time>2018-09-15T20:22:58Z</time></trkpt><trkpt lat="44.9368639011" lon="40.3753244877"><ele>126.55</ele><time>2018-09-15T20:22:59Z</time></trkpt><trkpt lat="44.9371576868" lon="40.3741801903"><ele>127.03</ele><time>2018-09-15T20:23:17Z</time></trkpt><trkpt lat="44.9373093992" lon="40.3735984862"><ele>127.51</ele><time>2018-09-15T20:23:26Z</time></trkpt><trkpt lat="44.9373290129" lon="40.3735314310"><ele>127.03</ele><time>2018-09-15T20:23:27Z</time></trkpt><trkpt lat="44.9377067853" lon="40.3721719701"><ele>126.55</ele><time>2018-09-15T20:23:47Z</time></trkpt><trkpt lat="44.9380000681" lon="40.3714500368"><ele>126.55</ele><time>2018-09-15T20:23:58Z</time></trkpt><trkpt lat="44.9386748113" lon="40.3704171348"><ele>126.55</ele><time>2018-09-15T20:24:17Z</time></trkpt><trkpt lat="44.9393254984" lon="40.3694287408"><ele>125.11</ele><time>2018-09-15T20:24:35Z</time></trkpt><trkpt lat="44.9398409016" lon="40.3686433565"><ele>124.63</ele><time>2018-09-15T20:24:49Z</time></trkpt><trkpt lat="44.9405133817" lon="40.3676526994"><ele>124.63</ele><time>2018-09-15T20:25:07Z</time></trkpt><trkpt lat="44.9409681838" lon="40.3669441771"><ele>123.67</ele><time>2018-09-15T20:25:20Z</time></trkpt><trkpt lat="44.9415087327" lon="40.3661245108"><ele>123.19</ele><time>2018-09-15T20:25:36Z</time></trkpt><trkpt lat="44.9421327654" lon="40.3651801217"><ele>124.15</ele><time>2018-09-15T20:25:54Z</time></trkpt><trkpt lat="44.9427991267" lon="40.3641905542"><ele>122.71</ele><time>2018-09-15T20:26:12Z</time></trkpt><trkpt lat="44.9433327187" lon="40.3633898310"><ele>122.22</ele><time>2018-09-15T20:26:28Z</time></trkpt><trkpt lat="44.9439073820" lon="40.3624246549"><ele>122.22</ele><time>2018-09-15T20:26:45Z</time></trkpt><trkpt lat="44.9440484494" lon="40.3621970024"><ele>122.22</ele><time>2018-09-15T20:26:49Z</time></trkpt><trkpt lat="44.9446217716" lon="40.3612353466"><ele>120.78</ele><time>2018-09-15T20:27:06Z</time></trkpt><trkpt lat="44.9451204948" lon="40.3603846673"><ele>121.26</ele><time>2018-09-15T20:27:21Z</time></trkpt><trkpt lat="44.9455998559" lon="40.3595655877"><ele>121.26</ele><time>2018-09-15T20:27:35Z</time></trkpt><trkpt lat="44.9460756127" lon="40.3587618470"><ele>121.26</ele><time>2018-09-15T20:27:49Z</time></trkpt><trkpt lat="44.9465512019" lon="40.3579706792"><ele>121.26</ele><time>2018-09-15T20:28:04Z</time></trkpt><trkpt lat="44.9470923375" lon="40.3570614103"><ele>120.30</ele><time>2018-09-15T20:28:21Z</time></trkpt><trkpt lat="44.9476845190" lon="40.3560648020"><ele>120.30</ele><time>2018-09-15T20:28:39Z</time></trkpt><trkpt lat="44.9482585117" lon="40.3551007155"><ele>120.30</ele><time>2018-09-15T20:28:56Z</time></trkpt><trkpt lat="44.9487465061" lon="40.3542813007"><ele>120.30</ele><time>2018-09-15T20:29:10Z</time></trkpt><trkpt lat="44.9488148186" lon="40.3541768622"><ele>120.30</ele><time>2018-09-15T20:29:12Z</time></trkpt><trkpt lat="44.9494108558" lon="40.3531780746"><ele>120.30</ele><time>2018-09-15T20:29:29Z</time></trkpt><trkpt lat="44.9495363329" lon="40.3529752325"><ele>120.30</ele><time>2018-09-15T20:29:33Z</time></trkpt><trkpt lat="44.9500156101" lon="40.3521609306"><ele>119.34</ele><time>2018-09-15T20:29:49Z</time></trkpt><trkpt lat="44.9506293330" lon="40.3511325549"><ele>118.86</ele><time>2018-09-15T20:30:08Z</time></trkpt><trkpt lat="44.9511655234" lon="40.3502277285"><ele>118.86</ele><time>2018-09-15T20:30:24Z</time></trkpt><trkpt lat="44.9517380912" lon="40.3492761310"><ele>118.38</ele><time>2018-09-15T20:30:41Z</time></trkpt><trkpt lat="44.9523576815" lon="40.3482285608"><ele>117.42</ele><time>2018-09-15T20:30:59Z</time></trkpt><trkpt lat="44.9530506134" lon="40.3470588662"><ele>116.94</ele><time>2018-09-15T20:31:19Z</time></trkpt><trkpt lat="44.9535982870" lon="40.3461239487"><ele>118.38</ele><time>2018-09-15T20:31:35Z</time></trkpt><trkpt lat="44.9541903008" lon="40.3451491334"><ele>119.34</ele><time>2018-09-15T20:31:52Z</time></trkpt><trkpt lat="44.9548291694" lon="40.3440810274"><ele>117.90</ele><time>2018-09-15T20:32:10Z</time></trkpt><trkpt lat="44.9553096201" lon="40.3432446811"><ele>116.94</ele><time>2018-09-15T20:32:24Z</time></trkpt><trkpt lat="44.9557847902" lon="40.3424447123"><ele>116.46</ele><time>2018-09-15T20:32:38Z</time></trkpt><trkpt lat="44.9564527441" lon="40.3413429949"><ele>116.46</ele><time>2018-09-15T20:32:57Z</time></trkpt><trkpt lat="44.9570978992" lon="40.3402578738"><ele>115.98</ele><time>2018-09-15T20:33:15Z</time></trkpt><trkpt lat="44.9573544692" lon="40.3398567997"><ele>116.46</ele><time>2018-09-15T20:33:22Z</time></trkpt><trkpt lat="44.9574230332" lon="40.3397397045"><ele>116.94</ele><time>2018-09-15T20:33:24Z</time></trkpt><trkpt lat="44.9579160567" lon="40.3389891051"><ele>116.94</ele><time>2018-09-15T20:33:38Z</time></trkpt><trkpt lat="44.9579539429" lon="40.3389390651"><ele>116.46</ele><time>2018-09-15T20:33:39Z</time></trkpt><trkpt lat="44.9579904880" lon="40.3388907015"><ele>116.46</ele><time>2018-09-15T20:33:40Z</time></trkpt><trkpt lat="44.9585919734" lon="40.3380371723"><ele>115.50</ele><time>2018-09-15T20:33:57Z</time></trkpt><trkpt lat="44.9586275965" lon="40.3379851207"><ele>115.50</ele><time>2018-09-15T20:33:58Z</time></trkpt><trkpt lat="44.9591444246" lon="40.3373002354"><ele>114.05</ele><time>2018-09-15T20:34:13Z</time></trkpt><trkpt lat="44.9594826344" lon="40.3368722554"><ele>114.53</ele><time>2018-09-15T20:34:22Z</time></trkpt><trkpt lat="44.9595199339" lon="40.3368243948"><ele>114.53</ele><time>2018-09-15T20:34:23Z</time></trkpt><trkpt lat="44.9601810146" lon="40.3360559419"><ele>113.57</ele><time>2018-09-15T20:34:39Z</time></trkpt><trkpt lat="44.9604371656" lon="40.3357720468"><ele>114.05</ele><time>2018-09-15T20:34:45Z</time></trkpt><trkpt lat="44.9604745489" lon="40.3357213363"><ele>114.05</ele><time>2018-09-15T20:34:46Z</time></trkpt><trkpt lat="44.9605136085" lon="40.3356753197"><ele>114.05</ele><time>2018-09-15T20:34:47Z</time></trkpt><trkpt lat="44.9608064722" lon="40.3353584837"><ele>114.05</ele><time>2018-09-15T20:34:54Z</time></trkpt><trkpt lat="44.9616117217" lon="40.3346536495"><ele>114.53</ele><time>2018-09-15T20:35:12Z</time></trkpt><trkpt lat="44.9624413624" lon="40.3339496534"><ele>115.01</ele><time>2018-09-15T20:35:30Z</time></trkpt><trkpt lat="44.9631068017" lon="40.3334986232"><ele>115.01</ele><time>2018-09-15T20:35:44Z</time></trkpt><trkpt lat="44.9641472474" lon="40.3328596707"><ele>114.05</ele><time>2018-09-15T20:36:03Z</time></trkpt><trkpt lat="44.9651895370" lon="40.3323156014"><ele>113.09</ele><time>2018-09-15T20:36:22Z</time></trkpt><trkpt lat="44.9652987532" lon="40.3322625440"><ele>113.09</ele><time>2018-09-15T20:36:24Z</time></trkpt><trkpt lat="44.9660375342" lon="40.3319047205"><ele>114.05</ele><time>2018-09-15T20:36:38Z</time></trkpt><trkpt lat="44.9668150395" lon="40.3315553628"><ele>114.05</ele><time>2018-09-15T20:36:53Z</time></trkpt><trkpt lat="44.9676588457" lon="40.3311836254"><ele>114.05</ele><time>2018-09-15T20:37:09Z</time></trkpt><trkpt lat="44.9680891726" lon="40.3310011514"><ele>113.09</ele><time>2018-09-15T20:37:17Z</time></trkpt><trkpt lat="44.9685838725" lon="40.3307894245"><ele>112.61</ele><time>2018-09-15T20:37:26Z</time></trkpt><trkpt lat="44.9686349183" lon="40.3307639435"><ele>112.61</ele><time>2018-09-15T20:37:27Z</time></trkpt><trkpt lat="44.9687810149" lon="40.3306880873"><ele>112.13</ele><time>2018-09-15T20:37:30Z</time></trkpt><trkpt lat="44.9697372224" lon="40.3302984126"><ele>113.57</ele><time>2018-09-15T20:37:49Z</time></trkpt><trkpt lat="44.9704332557" lon="40.3300121706"><ele>114.05</ele><time>2018-09-15T20:38:03Z</time></trkpt><trkpt lat="44.9708733056" lon="40.3298261762"><ele>114.53</ele><time>2018-09-15T20:38:12Z</time></trkpt><trkpt lat="44.9709222559" lon="40.3298047185"><ele>114.53</ele><time>2018-09-15T20:38:13Z</time></trkpt><trkpt lat="44.9713669159" lon="40.3296136949"><ele>115.01</ele><time>2018-09-15T20:38:22Z</time></trkpt><trkpt lat="44.9714162014" lon="40.3295960091"><ele>115.01</ele><time>2018-09-15T20:38:23Z</time></trkpt><trkpt lat="44.9719224684" lon="40.3293722961"><ele>115.01</ele><time>2018-09-15T20:38:34Z</time></trkpt><trkpt lat="44.9720072094" lon="40.3293372598"><ele>115.01</ele><time>2018-09-15T20:38:36Z</time></trkpt><trkpt lat="44.9720901903" lon="40.3292990383"><ele>115.50</ele><time>2018-09-15T20:38:38Z</time></trkpt><trkpt lat="44.9728953559" lon="40.3289758321"><ele>115.01</ele><time>2018-09-15T20:38:54Z</time></trkpt><trkpt lat="44.9737436045" lon="40.3286112193"><ele>114.53</ele><time>2018-09-15T20:39:10Z</time></trkpt><trkpt lat="44.9746788573" lon="40.3281441797"><ele>112.13</ele><time>2018-09-15T20:39:28Z</time></trkpt><trkpt lat="44.9755631480" lon="40.3276115097"><ele>110.69</ele><time>2018-09-15T20:39:46Z</time></trkpt><trkpt lat="44.9757559318" lon="40.3274895530"><ele>110.21</ele><time>2018-09-15T20:39:50Z</time></trkpt><trkpt lat="44.9758484680" lon="40.3274381720"><ele>110.21</ele><time>2018-09-15T20:39:52Z</time></trkpt><trkpt lat="44.9768191762" lon="40.3268218506"><ele>108.77</ele><time>2018-09-15T20:40:12Z</time></trkpt><trkpt lat="44.9775668420" lon="40.3263480216"><ele>107.81</ele><time>2018-09-15T20:40:27Z</time></trkpt><trkpt lat="44.9783912860" lon="40.3258176986"><ele>107.32</ele><time>2018-09-15T20:40:43Z</time></trkpt><trkpt lat="44.9787615146" lon="40.3255856037"><ele>106.84</ele><time>2018-09-15T20:40:50Z</time></trkpt><trkpt lat="44.9796680175" lon="40.3250064142"><ele>106.84</ele><time>2018-09-15T20:41:08Z</time></trkpt><trkpt lat="44.9797184765" lon="40.3249776643"><ele>106.84</ele><time>2018-09-15T20:41:09Z</time></trkpt><trkpt lat="44.9805491231" lon="40.3244726546"><ele>108.29</ele><time>2018-09-15T20:41:26Z</time></trkpt><trkpt lat="44.9813785963" lon="40.3239578381"><ele>107.32</ele><time>2018-09-15T20:41:43Z</time></trkpt><trkpt lat="44.9820544291" lon="40.3235510644"><ele>106.84</ele><time>2018-09-15T20:41:58Z</time></trkpt><trkpt lat="44.9829125684" lon="40.3230084199"><ele>106.84</ele><time>2018-09-15T20:42:16Z</time></trkpt><trkpt lat="44.9832831323" lon="40.3227599803"><ele>106.36</ele><time>2018-09-15T20:42:24Z</time></trkpt><trkpt lat="44.9833262991" lon="40.3227261174"><ele>106.84</ele><time>2018-09-15T20:42:25Z</time></trkpt><trkpt lat="44.9833741598" lon="40.3226974513"><ele>106.84</ele><time>2018-09-15T20:42:26Z</time></trkpt><trkpt lat="44.9842214026" lon="40.3221870773"><ele>107.32</ele><time>2018-09-15T20:42:43Z</time></trkpt><trkpt lat="44.9851554818" lon="40.3216132522"><ele>107.32</ele><time>2018-09-15T20:43:01Z</time></trkpt><trkpt lat="44.9858566280" lon="40.3211496491"><ele>107.32</ele><time>2018-09-15T20:43:17Z</time></trkpt><trkpt lat="44.9858933408" lon="40.3211255092"><ele>107.32</ele><time>2018-09-15T20:43:18Z</time></trkpt><trkpt lat="44.9866436888" lon="40.3206343297"><ele>106.84</ele><time>2018-09-15T20:43:35Z</time></trkpt><trkpt lat="44.9869948067" lon="40.3203707188"><ele>106.36</ele><time>2018-09-15T20:43:43Z</time></trkpt><trkpt lat="44.9873985630" lon="40.3201817907"><ele>106.84</ele><time>2018-09-15T20:43:53Z</time></trkpt><trkpt lat="44.9875547178" lon="40.3200852312"><ele>106.84</ele><time>2018-09-15T20:43:57Z</time></trkpt><trkpt lat="44.9876347650" lon="40.3200477641"><ele>106.84</ele><time>2018-09-15T20:43:59Z</time></trkpt><trkpt lat="44.9876730703" lon="40.3200213611"><ele>106.84</ele><time>2018-09-15T20:44:00Z</time></trkpt><trkpt lat="44.9877559673" lon="40.3199644480"><ele>106.84</ele><time>2018-09-15T20:44:02Z</time></trkpt><trkpt lat="44.9879808538" lon="40.3198396415"><ele>106.84</ele><time>2018-09-15T20:44:07Z</time></trkpt><trkpt lat="44.9888513144" lon="40.3193014394"><ele>106.84</ele><time>2018-09-15T20:44:25Z</time></trkpt><trkpt lat="44.9896501936" lon="40.3187993634"><ele>106.36</ele><time>2018-09-15T20:44:41Z</time></trkpt><trkpt lat="44.9903692771" lon="40.3183233552"><ele>105.88</ele><time>2018-09-15T20:44:57Z</time></trkpt><trkpt lat="44.9912729301" lon="40.3177583311"><ele>105.88</ele><time>2018-09-15T20:45:16Z</time></trkpt><trkpt lat="44.9921847973" lon="40.3171173669"><ele>105.40</ele><time>2018-09-15T20:45:35Z</time></trkpt><trkpt lat="44.9927469715" lon="40.3165921569"><ele>105.88</ele><time>2018-09-15T20:45:48Z</time></trkpt><trkpt lat="44.9933758657" lon="40.3158313315"><ele>105.88</ele><time>2018-09-15T20:46:03Z</time></trkpt><trkpt lat="44.9938773550" lon="40.3149276786"><ele>105.88</ele><time>2018-09-15T20:46:18Z</time></trkpt><trkpt lat="44.9939855654" lon="40.3146786522"><ele>105.88</ele><time>2018-09-15T20:46:22Z</time></trkpt><trkpt lat="44.9940487649" lon="40.3145664185"><ele>105.88</ele><time>2018-09-15T20:46:24Z</time></trkpt><trkpt lat="44.9940765090" lon="40.3145048115"><ele>105.88</ele><time>2018-09-15T20:46:25Z</time></trkpt><trkpt lat="44.9946436286" lon="40.3129542433"><ele>106.36</ele><time>2018-09-15T20:46:48Z</time></trkpt><trkpt lat="44.9949384201" lon="40.3119154740"><ele>106.36</ele><time>2018-09-15T20:47:04Z</time></trkpt><trkpt lat="44.9952184595" lon="40.3109180275"><ele>106.84</ele><time>2018-09-15T20:47:20Z</time></trkpt><trkpt lat="44.9956057034" lon="40.3096037451"><ele>107.32</ele><time>2018-09-15T20:47:39Z</time></trkpt><trkpt lat="44.9959752616" lon="40.3083337191"><ele>107.32</ele><time>2018-09-15T20:47:57Z</time></trkpt><trkpt lat="44.9963726476" lon="40.3069372103"><ele>106.84</ele><time>2018-09-15T20:48:18Z</time></trkpt><trkpt lat="44.9965595640" lon="40.3058137838"><ele>106.36</ele><time>2018-09-15T20:48:34Z</time></trkpt><trkpt lat="44.9966833647" lon="40.3047092166"><ele>106.36</ele><time>2018-09-15T20:48:49Z</time></trkpt><trkpt lat="44.9968295451" lon="40.3034679405"><ele>104.92</ele><time>2018-09-15T20:49:05Z</time></trkpt><trkpt lat="44.9970036373" lon="40.3019105829"><ele>104.92</ele><time>2018-09-15T20:49:25Z</time></trkpt><trkpt lat="44.9971583672" lon="40.3005265631"><ele>104.44</ele><time>2018-09-15T20:49:43Z</time></trkpt><trkpt lat="44.9973267596" lon="40.2990122885"><ele>103.96</ele><time>2018-09-15T20:50:03Z</time></trkpt><trkpt lat="44.9974976666" lon="40.2974890452"><ele>103.96</ele><time>2018-09-15T20:50:23Z</time></trkpt><trkpt lat="44.9976630416" lon="40.2960569970"><ele>103.96</ele><time>2018-09-15T20:50:42Z</time></trkpt><trkpt lat="44.9978095572" lon="40.2947689500"><ele>103.96</ele><time>2018-09-15T20:51:00Z</time></trkpt><trkpt lat="44.9979517981" lon="40.2934534941"><ele>103.48</ele><time>2018-09-15T20:51:18Z</time></trkpt><trkpt lat="44.9980995711" lon="40.2921672910"><ele>103.00</ele><time>2018-09-15T20:51:35Z</time></trkpt><trkpt lat="44.9982562289" lon="40.2907705307"><ele>102.52</ele><time>2018-09-15T20:51:53Z</time></trkpt><trkpt lat="44.9984464981" lon="40.2891184576"><ele>102.04</ele><time>2018-09-15T20:52:15Z</time></trkpt><trkpt lat="44.9985816982" lon="40.2879632637"><ele>102.52</ele><time>2018-09-15T20:52:31Z</time></trkpt><trkpt lat="44.9987708777" lon="40.2863297146"><ele>102.52</ele><time>2018-09-15T20:52:53Z</time></trkpt><trkpt lat="44.9989528488" lon="40.2851732634"><ele>102.52</ele><time>2018-09-15T20:53:09Z</time></trkpt><trkpt lat="44.9992370792" lon="40.2841691952"><ele>101.56</ele><time>2018-09-15T20:53:24Z</time></trkpt><trkpt lat="44.9997682404" lon="40.2827671543"><ele>101.08</ele><time>2018-09-15T20:53:44Z</time></trkpt><trkpt lat="45.0001503713" lon="40.2817472443"><ele>101.56</ele><time>2018-09-15T20:53:59Z</time></trkpt><trkpt lat="45.0006371923" lon="40.2804824989"><ele>101.56</ele><time>2018-09-15T20:54:17Z</time></trkpt><trkpt lat="45.0011049863" lon="40.2792986389"><ele>100.11</ele><time>2018-09-15T20:54:34Z</time></trkpt><trkpt lat="45.0015726965" lon="40.2781770565"><ele>100.11</ele><time>2018-09-15T20:54:50Z</time></trkpt><trkpt lat="45.0020575896" lon="40.2769850660"><ele>100.60</ele><time>2018-09-15T20:55:07Z</time></trkpt><trkpt lat="45.0026369467" lon="40.2755829412"><ele>99.63</ele><time>2018-09-15T20:55:27Z</time></trkpt><trkpt lat="45.0031858776" lon="40.2742520627"><ele>99.15</ele><time>2018-09-15T20:55:46Z</time></trkpt><trkpt lat="45.0036183000" lon="40.2731226850"><ele>99.63</ele><time>2018-09-15T20:56:03Z</time></trkpt><trkpt lat="45.0039027818" lon="40.2724048588"><ele>99.15</ele><time>2018-09-15T20:56:17Z</time></trkpt><trkpt lat="45.0039044581" lon="40.2724004164"><ele>99.63</ele><time>2018-09-15T20:56:28Z</time></trkpt><trkpt lat="45.0038998481" lon="40.2723828983"><ele>100.60</ele><time>2018-09-15T20:57:10Z</time></trkpt><trkpt lat="45.0038954057" lon="40.2723949682"><ele>99.63</ele><time>2018-09-15T20:57:48Z</time></trkpt><trkpt lat="45.0038949866" lon="40.2723973151"><ele>100.11</ele><time>2018-09-15T20:58:23Z</time></trkpt><trkpt lat="45.0039024465" lon="40.2723649610"><ele>100.11</ele><time>2018-09-15T20:58:53Z</time></trkpt><trkpt lat="45.0039153546" lon="40.2723612729"><ele>99.63</ele><time>2018-09-15T20:59:29Z</time></trkpt><trkpt lat="45.0039161090" lon="40.2723661344"><ele>99.63</ele><time>2018-09-15T21:00:09Z</time></trkpt><trkpt lat="45.0039208028" lon="40.2723653801"><ele>100.11</ele><time>2018-09-15T21:00:44Z</time></trkpt><trkpt lat="45.0039160252" lon="40.2723675594"><ele>100.60</ele><time>2018-09-15T21:01:27Z</time></trkpt><trkpt lat="45.0039156899" lon="40.2723623626"><ele>100.60</ele><time>2018-09-15T21:01:56Z</time></trkpt><trkpt lat="45.0039090682" lon="40.2723620273"><ele>100.60</ele><time>2018-09-15T21:02:22Z</time></trkpt><trkpt lat="45.0039179530" lon="40.2723751869"><ele>99.63</ele><time>2018-09-15T21:03:00Z</time></trkpt><trkpt lat="45.0039224792" lon="40.2723605186"><ele>100.60</ele><time>2018-09-15T21:03:17Z</time></trkpt><trkpt lat="45.0039483793" lon="40.2722834889"><ele>100.60</ele><time>2018-09-15T21:03:33Z</time></trkpt><trkpt lat="45.0040829089" lon="40.2719270904"><ele>100.60</ele><time>2018-09-15T21:03:47Z</time></trkpt><trkpt lat="45.0043621939" lon="40.2711838670"><ele>100.11</ele><time>2018-09-15T21:04:02Z</time></trkpt><trkpt lat="45.0047462527" lon="40.2701687347"><ele>99.63</ele><time>2018-09-15T21:04:20Z</time></trkpt><trkpt lat="45.0053125340" lon="40.2687381115"><ele>99.15</ele><time>2018-09-15T21:04:43Z</time></trkpt><trkpt lat="45.0058404263" lon="40.2675812412"><ele>99.63</ele><time>2018-09-15T21:05:02Z</time></trkpt><trkpt lat="45.0063404907" lon="40.2664886601"><ele>99.63</ele><time>2018-09-15T21:05:20Z</time></trkpt><trkpt lat="45.0069515314" lon="40.2651893813"><ele>99.15</ele><time>2018-09-15T21:05:41Z</time></trkpt><trkpt lat="45.0075007137" lon="40.2639832254"><ele>98.67</ele><time>2018-09-15T21:06:01Z</time></trkpt><trkpt lat="45.0080704316" lon="40.2627515886"><ele>98.67</ele><time>2018-09-15T21:06:22Z</time></trkpt><trkpt lat="45.0085435063" lon="40.2617248055"><ele>98.67</ele><time>2018-09-15T21:06:40Z</time></trkpt><trkpt lat="45.0089828018" lon="40.2607766446"><ele>97.71</ele><time>2018-09-15T21:06:58Z</time></trkpt><trkpt lat="45.0093782600" lon="40.2598309144"><ele>97.23</ele><time>2018-09-15T21:07:14Z</time></trkpt><trkpt lat="45.0094409566" lon="40.2596751787"><ele>97.23</ele><time>2018-09-15T21:07:17Z</time></trkpt><trkpt lat="45.0094557088" lon="40.2596200258"><ele>97.23</ele><time>2018-09-15T21:07:18Z</time></trkpt><trkpt lat="45.0094677787" lon="40.2595599275"><ele>97.23</ele><time>2018-09-15T21:07:19Z</time></trkpt><trkpt lat="45.0094776694" lon="40.2594971471"><ele>97.23</ele><time>2018-09-15T21:07:20Z</time></trkpt><trkpt lat="45.0094869733" lon="40.2594308462"><ele>97.23</ele><time>2018-09-15T21:07:21Z</time></trkpt><trkpt lat="45.0095771626" lon="40.2590603661"><ele>96.75</ele><time>2018-09-15T21:07:27Z</time></trkpt><trkpt lat="45.0095934235" lon="40.2590106614"><ele>96.75</ele><time>2018-09-15T21:07:28Z</time></trkpt><trkpt lat="45.0096103549" lon="40.2589534130"><ele>96.75</ele><time>2018-09-15T21:07:29Z</time></trkpt><trkpt lat="45.0096256938" lon="40.2588902134"><ele>96.75</ele><time>2018-09-15T21:07:30Z</time></trkpt><trkpt lat="45.0096401107" lon="40.2588297799"><ele>96.75</ele><time>2018-09-15T21:07:31Z</time></trkpt><trkpt lat="45.0096586347" lon="40.2587661613"><ele>96.75</ele><time>2018-09-15T21:07:32Z</time></trkpt><trkpt lat="45.0099146180" lon="40.2578622568"><ele>96.75</ele><time>2018-09-15T21:07:46Z</time></trkpt><trkpt lat="45.0103491358" lon="40.2563804202"><ele>96.27</ele><time>2018-09-15T21:08:07Z</time></trkpt><trkpt lat="45.0106900278" lon="40.2552213706"><ele>95.79</ele><time>2018-09-15T21:08:23Z</time></trkpt><trkpt lat="45.0110464264" lon="40.2539786696"><ele>95.79</ele><time>2018-09-15T21:08:40Z</time></trkpt><trkpt lat="45.0114474166" lon="40.2526571788"><ele>95.79</ele><time>2018-09-15T21:08:59Z</time></trkpt><trkpt lat="45.0118190702" lon="40.2515562158"><ele>96.27</ele><time>2018-09-15T21:09:15Z</time></trkpt><trkpt lat="45.0121846050" lon="40.2505424246"><ele>96.27</ele><time>2018-09-15T21:09:31Z</time></trkpt><trkpt lat="45.0125390757" lon="40.2495612390"><ele>96.27</ele><time>2018-09-15T21:09:47Z</time></trkpt><trkpt lat="45.0129202008" lon="40.2483895328"><ele>96.27</ele><time>2018-09-15T21:10:04Z</time></trkpt><trkpt lat="45.0132351927" lon="40.2472257055"><ele>95.79</ele><time>2018-09-15T21:10:20Z</time></trkpt><trkpt lat="45.0135442335" lon="40.2461741120"><ele>95.79</ele><time>2018-09-15T21:10:36Z</time></trkpt><trkpt lat="45.0136065949" lon="40.2459098306"><ele>96.27</ele><time>2018-09-15T21:10:40Z</time></trkpt><trkpt lat="45.0138556212" lon="40.2449868154"><ele>95.79</ele><time>2018-09-15T21:10:55Z</time></trkpt><trkpt lat="45.0140984450" lon="40.2440727688"><ele>95.79</ele><time>2018-09-15T21:11:10Z</time></trkpt><trkpt lat="45.0142468046" lon="40.2435125224"><ele>96.27</ele><time>2018-09-15T21:11:19Z</time></trkpt><trkpt lat="45.0142656639" lon="40.2434541006"><ele>96.27</ele><time>2018-09-15T21:11:20Z</time></trkpt><trkpt lat="45.0142852776" lon="40.2433962654"><ele>96.27</ele><time>2018-09-15T21:11:21Z</time></trkpt><trkpt lat="45.0143028796" lon="40.2433342393"><ele>96.27</ele><time>2018-09-15T21:11:22Z</time></trkpt><trkpt lat="45.0143187214" lon="40.2432686090"><ele>96.27</ele><time>2018-09-15T21:11:23Z</time></trkpt><trkpt lat="45.0145610422" lon="40.2423670515"><ele>96.75</ele><time>2018-09-15T21:11:37Z</time></trkpt><trkpt lat="45.0148661435" lon="40.2412252687"><ele>97.23</ele><time>2018-09-15T21:11:54Z</time></trkpt><trkpt lat="45.0151133258" lon="40.2401707415"><ele>97.71</ele><time>2018-09-15T21:12:11Z</time></trkpt><trkpt lat="45.0153775234" lon="40.2389520127"><ele>98.67</ele><time>2018-09-15T21:12:28Z</time></trkpt><trkpt lat="45.0156522822" lon="40.2378357947"><ele>98.67</ele><time>2018-09-15T21:12:44Z</time></trkpt><trkpt lat="45.0160173140" lon="40.2366852947"><ele>97.23</ele><time>2018-09-15T21:13:00Z</time></trkpt><trkpt lat="45.0161889754" lon="40.2361092065"><ele>95.79</ele><time>2018-09-15T21:13:08Z</time></trkpt><trkpt lat="45.0162349083" lon="40.2359612659"><ele>95.79</ele><time>2018-09-15T21:13:10Z</time></trkpt><trkpt lat="45.0165087450" lon="40.2349659149"><ele>94.35</ele><time>2018-09-15T21:13:24Z</time></trkpt><trkpt lat="45.0165851042" lon="40.2346844506"><ele>94.83</ele><time>2018-09-15T21:13:28Z</time></trkpt><trkpt lat="45.0166073162" lon="40.2346156351"><ele>94.35</ele><time>2018-09-15T21:13:29Z</time></trkpt><trkpt lat="45.0166680850" lon="40.2344130445"><ele>94.35</ele><time>2018-09-15T21:13:32Z</time></trkpt><trkpt lat="45.0166892912" lon="40.2343490906"><ele>94.35</ele><time>2018-09-15T21:13:33Z</time></trkpt><trkpt lat="45.0167066418" lon="40.2342821192"><ele>94.35</ele><time>2018-09-15T21:13:34Z</time></trkpt><trkpt lat="45.0169200450" lon="40.2334839106"><ele>93.87</ele><time>2018-09-15T21:13:46Z</time></trkpt><trkpt lat="45.0169316120" lon="40.2334171906"><ele>93.87</ele><time>2018-09-15T21:13:47Z</time></trkpt><trkpt lat="45.0170031935" lon="40.2328674216"><ele>93.39</ele><time>2018-09-15T21:13:55Z</time></trkpt><trkpt lat="45.0170491263" lon="40.2325829398"><ele>92.90</ele><time>2018-09-15T21:13:59Z</time></trkpt><trkpt lat="45.0172222126" lon="40.2312018536"><ele>92.42</ele><time>2018-09-15T21:14:18Z</time></trkpt><trkpt lat="45.0173596758" lon="40.2303186525"><ele>91.94</ele><time>2018-09-15T21:14:31Z</time></trkpt><trkpt lat="45.0175127294" lon="40.2297265548"><ele>91.94</ele><time>2018-09-15T21:14:41Z</time></trkpt><trkpt lat="45.0175284036" lon="40.2296707314"><ele>91.94</ele><time>2018-09-15T21:14:42Z</time></trkpt><trkpt lat="45.0175449159" lon="40.2296120580"><ele>91.94</ele><time>2018-09-15T21:14:43Z</time></trkpt><trkpt lat="45.0177308265" lon="40.2288042940"><ele>92.90</ele><time>2018-09-15T21:14:59Z</time></trkpt><trkpt lat="45.0178092811" lon="40.2286357339"><ele>92.90</ele><time>2018-09-15T21:15:05Z</time></trkpt><trkpt lat="45.0179581437" lon="40.2280768286"><ele>92.42</ele><time>2018-09-15T21:15:18Z</time></trkpt><trkpt lat="45.0182237662" lon="40.2272692323"><ele>91.94</ele><time>2018-09-15T21:15:33Z</time></trkpt><trkpt lat="45.0185918156" lon="40.2264978457"><ele>91.46</ele><time>2018-09-15T21:15:49Z</time></trkpt><trkpt lat="45.0185866188" lon="40.2263932396"><ele>91.94</ele><time>2018-09-15T21:15:51Z</time></trkpt><trkpt lat="45.0185799971" lon="40.2263463009"><ele>91.46</ele><time>2018-09-15T21:15:52Z</time></trkpt><trkpt lat="45.0185826793" lon="40.2263070736"><ele>91.46</ele><time>2018-09-15T21:15:53Z</time></trkpt><trkpt lat="45.0185847748" lon="40.2263159584"><ele>92.42</ele><time>2018-09-15T21:16:03Z</time></trkpt><trkpt lat="45.0186065678" lon="40.2263165452"><ele>92.90</ele><time>2018-09-15T21:16:37Z</time></trkpt><trkpt lat="45.0185918994" lon="40.2263313811"><ele>92.42</ele><time>2018-09-15T21:16:57Z</time></trkpt><trkpt lat="45.0185853615" lon="40.2263587900"><ele>92.42</ele><time>2018-09-15T21:17:00Z</time></trkpt><trkpt lat="45.0185836852" lon="40.2264641505"><ele>94.83</ele><time>2018-09-15T21:17:14Z</time></trkpt><trkpt lat="45.0185951684" lon="40.2264908049"><ele>94.83</ele><time>2018-09-15T21:17:39Z</time></trkpt><trkpt lat="45.0186038017" lon="40.2264890447"><ele>97.23</ele><time>2018-09-15T21:18:12Z</time></trkpt><trkpt lat="45.0186053105" lon="40.2264659107"><ele>98.19</ele><time>2018-09-15T21:18:42Z</time></trkpt><trkpt lat="45.0185917318" lon="40.2264732029"><ele>96.75</ele><time>2018-09-15T21:19:07Z</time></trkpt><trkpt lat="45.0185887981" lon="40.2264479734"><ele>96.27</ele><time>2018-09-15T21:19:26Z</time></trkpt><trkpt lat="45.0185957551" lon="40.2263847739"><ele>96.27</ele><time>2018-09-15T21:19:42Z</time></trkpt><trkpt lat="45.0185744651" lon="40.2263908088"><ele>96.75</ele><time>2018-09-15T21:20:08Z</time></trkpt><trkpt lat="45.0185776502" lon="40.2264186367"><ele>97.23</ele><time>2018-09-15T21:20:30Z</time></trkpt><trkpt lat="45.0186062325" lon="40.2264219057"><ele>95.79</ele><time>2018-09-15T21:20:45Z</time></trkpt><trkpt lat="45.0186163746" lon="40.2264175471"><ele>95.79</ele><time>2018-09-15T21:20:46Z</time></trkpt><trkpt lat="45.0186256785" lon="40.2264054772"><ele>95.31</ele><time>2018-09-15T21:20:47Z</time></trkpt><trkpt lat="45.0186675880" lon="40.2263229992"><ele>95.79</ele><time>2018-09-15T21:20:52Z</time></trkpt><trkpt lat="45.0186724495" lon="40.2262962610"><ele>95.79</ele><time>2018-09-15T21:20:53Z</time></trkpt><trkpt lat="45.0186760537" lon="40.2262679301"><ele>95.31</ele><time>2018-09-15T21:20:54Z</time></trkpt><trkpt lat="45.0186883751" lon="40.2257630043"><ele>93.87</ele><time>2018-09-15T21:21:07Z</time></trkpt><trkpt lat="45.0183250196" lon="40.2253465075"><ele>92.90</ele><time>2018-09-15T21:21:19Z</time></trkpt><trkpt lat="45.0177383702" lon="40.2247860935"><ele>91.46</ele><time>2018-09-15T21:21:35Z</time></trkpt><trkpt lat="45.0171291735" lon="40.2241511643"><ele>93.39</ele><time>2018-09-15T21:21:52Z</time></trkpt><trkpt lat="45.0167750381" lon="40.2237347513"><ele>93.87</ele><time>2018-09-15T21:22:02Z</time></trkpt><trkpt lat="45.0166439451" lon="40.2235138044"><ele>93.87</ele><time>2018-09-15T21:22:12Z</time></trkpt><trkpt lat="45.0166439451" lon="40.2234706376"><ele>92.90</ele><time>2018-09-15T21:22:16Z</time></trkpt><trkpt lat="45.0166355632" lon="40.2234466653"><ele>92.90</ele><time>2018-09-15T21:22:17Z</time></trkpt><trkpt lat="45.0166235771" lon="40.2234297339"><ele>92.90</ele><time>2018-09-15T21:22:18Z</time></trkpt><trkpt lat="45.0166085735" lon="40.2234127186"><ele>92.90</ele><time>2018-09-15T21:22:19Z</time></trkpt><trkpt lat="45.0165903009" lon="40.2233972959"><ele>92.90</ele><time>2018-09-15T21:22:20Z</time></trkpt><trkpt lat="45.0165701006" lon="40.2233793586"><ele>92.90</ele><time>2018-09-15T21:22:21Z</time></trkpt><trkpt lat="45.0165513251" lon="40.2233577333"><ele>92.90</ele><time>2018-09-15T21:22:22Z</time></trkpt><trkpt lat="45.0165318791" lon="40.2233288158"><ele>92.90</ele><time>2018-09-15T21:22:23Z</time></trkpt><trkpt lat="45.0161774922" lon="40.2228818089"><ele>93.39</ele><time>2018-09-15T21:22:36Z</time></trkpt><trkpt lat="45.0160890631" lon="40.2227627020"><ele>93.39</ele><time>2018-09-15T21:22:39Z</time></trkpt><trkpt lat="45.0159245264" lon="40.2225437667"><ele>93.39</ele><time>2018-09-15T21:22:44Z</time></trkpt><trkpt lat="45.0153888389" lon="40.2217298839"><ele>92.90</ele><time>2018-09-15T21:23:01Z</time></trkpt><trkpt lat="45.0151331909" lon="40.2208297513"><ele>92.42</ele><time>2018-09-15T21:23:16Z</time></trkpt><trkpt lat="45.0148938876" lon="40.2194924187"><ele>94.35</ele><time>2018-09-15T21:23:36Z</time></trkpt><trkpt lat="45.0148156006" lon="40.2189273108"><ele>94.35</ele><time>2018-09-15T21:23:46Z</time></trkpt><trkpt lat="45.0146635529" lon="40.2179390006"><ele>96.27</ele><time>2018-09-15T21:24:01Z</time></trkpt><trkpt lat="45.0144661590" lon="40.2166642807"><ele>94.83</ele><time>2018-09-15T21:24:19Z</time></trkpt><trkpt lat="45.0142950844" lon="40.2155441232"><ele>95.79</ele><time>2018-09-15T21:24:34Z</time></trkpt><trkpt lat="45.0141350739" lon="40.2141877636"><ele>95.79</ele><time>2018-09-15T21:24:52Z</time></trkpt><trkpt lat="45.0139963534" lon="40.2128640097"><ele>96.75</ele><time>2018-09-15T21:25:09Z</time></trkpt><trkpt lat="45.0138571300" lon="40.2120526414"><ele>98.67</ele><time>2018-09-15T21:25:20Z</time></trkpt><trkpt lat="45.0136004761" lon="40.2108330745"><ele>98.19</ele><time>2018-09-15T21:25:37Z</time></trkpt><trkpt lat="45.0134888291" lon="40.2102544717"><ele>98.19</ele><time>2018-09-15T21:25:45Z</time></trkpt><trkpt lat="45.0134820398" lon="40.2101862431"><ele>97.71</ele><time>2018-09-15T21:25:46Z</time></trkpt><trkpt lat="45.0133168325" lon="40.2089261077"><ele>97.23</ele><time>2018-09-15T21:26:03Z</time></trkpt><trkpt lat="45.0132284872" lon="40.2082667034"><ele>96.75</ele><time>2018-09-15T21:26:12Z</time></trkpt><trkpt lat="45.0131274015" lon="40.2071164548"><ele>93.39</ele><time>2018-09-15T21:26:28Z</time></trkpt><trkpt lat="45.0131215341" lon="40.2069033030"><ele>92.42</ele><time>2018-09-15T21:26:31Z</time></trkpt><trkpt lat="45.0130925328" lon="40.2057703212"><ele>90.98</ele><time>2018-09-15T21:26:47Z</time></trkpt><trkpt lat="45.0130901858" lon="40.2054852527"><ele>90.98</ele><time>2018-09-15T21:26:51Z</time></trkpt><trkpt lat="45.0130812172" lon="40.2054185327"><ele>90.98</ele><time>2018-09-15T21:26:52Z</time></trkpt><trkpt lat="45.0128756091" lon="40.2042594831"><ele>90.02</ele><time>2018-09-15T21:27:10Z</time></trkpt><trkpt lat="45.0128314365" lon="40.2040972933"><ele>89.54</ele><time>2018-09-15T21:27:13Z</time></trkpt><trkpt lat="45.0126575120" lon="40.2033128310"><ele>89.06</ele><time>2018-09-15T21:27:27Z</time></trkpt><trkpt lat="45.0124182925" lon="40.2022860479"><ele>89.06</ele><time>2018-09-15T21:27:43Z</time></trkpt><trkpt lat="45.0121339783" lon="40.2011531498"><ele>89.54</ele><time>2018-09-15T21:28:00Z</time></trkpt><trkpt lat="45.0118875504" lon="40.2001803461"><ele>88.58</ele><time>2018-09-15T21:28:15Z</time></trkpt><trkpt lat="45.0118215848" lon="40.1997442357"><ele>89.06</ele><time>2018-09-15T21:28:22Z</time></trkpt><trkpt lat="45.0115371030" lon="40.1987225655"><ele>89.06</ele><time>2018-09-15T21:28:38Z</time></trkpt><trkpt lat="45.0112470891" lon="40.1975944452"><ele>89.06</ele><time>2018-09-15T21:28:54Z</time></trkpt><trkpt lat="45.0109647028" lon="40.1964611281"><ele>89.54</ele><time>2018-09-15T21:29:11Z</time></trkpt><trkpt lat="45.0106326956" lon="40.1951337699"><ele>89.06</ele><time>2018-09-15T21:29:30Z</time></trkpt><trkpt lat="45.0103902910" lon="40.1941633131"><ele>88.58</ele><time>2018-09-15T21:29:46Z</time></trkpt><trkpt lat="45.0101159513" lon="40.1929963008"><ele>88.10</ele><time>2018-09-15T21:30:03Z</time></trkpt><trkpt lat="45.0098763965" lon="40.1920289453"><ele>88.58</ele><time>2018-09-15T21:30:18Z</time></trkpt><trkpt lat="45.0095757376" lon="40.1908229571"><ele>89.54</ele><time>2018-09-15T21:30:36Z</time></trkpt><trkpt lat="45.0094924215" lon="40.1904879324"><ele>89.54</ele><time>2018-09-15T21:30:41Z</time></trkpt><trkpt lat="45.0094729755" lon="40.1904254872"><ele>89.54</ele><time>2018-09-15T21:30:42Z</time></trkpt><trkpt lat="45.0094534457" lon="40.1903663110"><ele>89.54</ele><time>2018-09-15T21:30:43Z</time></trkpt><trkpt lat="45.0094378553" lon="40.1903075539"><ele>89.54</ele><time>2018-09-15T21:30:44Z</time></trkpt><trkpt lat="45.0094260368" lon="40.1902480423"><ele>89.54</ele><time>2018-09-15T21:30:45Z</time></trkpt><trkpt lat="45.0092914235" lon="40.1897126064"><ele>90.02</ele><time>2018-09-15T21:30:54Z</time></trkpt><trkpt lat="45.0089749228" lon="40.1884152554"><ele>90.02</ele><time>2018-09-15T21:31:12Z</time></trkpt><trkpt lat="45.0086190272" lon="40.1869975403"><ele>90.02</ele><time>2018-09-15T21:31:32Z</time></trkpt><trkpt lat="45.0085868407" lon="40.1868672017"><ele>90.02</ele><time>2018-09-15T21:31:34Z</time></trkpt><trkpt lat="45.0085096434" lon="40.1865491923"><ele>90.02</ele><time>2018-09-15T21:31:39Z</time></trkpt><trkpt lat="45.0082187075" lon="40.1854474749"><ele>90.50</ele><time>2018-09-15T21:31:56Z</time></trkpt><trkpt lat="45.0082016084" lon="40.1853898913"><ele>90.50</ele><time>2018-09-15T21:31:57Z</time></trkpt><trkpt lat="45.0081892032" lon="40.1853323076"><ele>90.50</ele><time>2018-09-15T21:31:58Z</time></trkpt><trkpt lat="45.0081655663" lon="40.1852034777"><ele>90.50</ele><time>2018-09-15T21:32:00Z</time></trkpt><trkpt lat="45.0078856945" lon="40.1840735134"><ele>90.02</ele><time>2018-09-15T21:32:17Z</time></trkpt><trkpt lat="45.0075953454" lon="40.1829162240"><ele>90.02</ele><time>2018-09-15T21:32:34Z</time></trkpt><trkpt lat="45.0074596424" lon="40.1823471766"><ele>90.02</ele><time>2018-09-15T21:32:46Z</time></trkpt><trkpt lat="45.0074645877" lon="40.1823288202"><ele>89.54</ele><time>2018-09-15T21:33:01Z</time></trkpt><trkpt lat="45.0074730534" lon="40.1823341008"><ele>89.54</ele><time>2018-09-15T21:33:45Z</time></trkpt><trkpt lat="45.0074717123" lon="40.1823343523"><ele>90.98</ele><time>2018-09-15T21:34:27Z</time></trkpt><trkpt lat="45.0074613187" lon="40.1823113859"><ele>90.02</ele><time>2018-09-15T21:35:11Z</time></trkpt><trkpt lat="45.0074237678" lon="40.1821973082"><ele>90.02</ele><time>2018-09-15T21:35:23Z</time></trkpt><trkpt lat="45.0072536990" lon="40.1815736946"><ele>90.02</ele><time>2018-09-15T21:35:36Z</time></trkpt><trkpt lat="45.0072420482" lon="40.1815120038"><ele>90.02</ele><time>2018-09-15T21:35:37Z</time></trkpt><trkpt lat="45.0072152261" lon="40.1813823357"><ele>90.02</ele><time>2018-09-15T21:35:39Z</time></trkpt><trkpt lat="45.0071758311" lon="40.1812556852"><ele>90.02</ele><time>2018-09-15T21:35:41Z</time></trkpt><trkpt lat="45.0071542058" lon="40.1811947487"><ele>90.02</ele><time>2018-09-15T21:35:42Z</time></trkpt><trkpt lat="45.0071386155" lon="40.1811358240"><ele>90.02</ele><time>2018-09-15T21:35:43Z</time></trkpt><trkpt lat="45.0071281381" lon="40.1810702775"><ele>90.02</ele><time>2018-09-15T21:35:44Z</time></trkpt><trkpt lat="45.0071192533" lon="40.1810043119"><ele>89.54</ele><time>2018-09-15T21:35:45Z</time></trkpt><trkpt lat="45.0071063451" lon="40.1809397712"><ele>89.54</ele><time>2018-09-15T21:35:46Z</time></trkpt><trkpt lat="45.0070878211" lon="40.1808785833"><ele>89.54</ele><time>2018-09-15T21:35:47Z</time></trkpt><trkpt lat="45.0070242025" lon="40.1806437224"><ele>89.54</ele><time>2018-09-15T21:35:51Z</time></trkpt><trkpt lat="45.0070024095" lon="40.1805274654"><ele>89.54</ele><time>2018-09-15T21:35:53Z</time></trkpt><trkpt lat="45.0066890940" lon="40.1792928949"><ele>89.54</ele><time>2018-09-15T21:36:12Z</time></trkpt><trkpt lat="45.0063782930" lon="40.1780585758"><ele>89.06</ele><time>2018-09-15T21:36:30Z</time></trkpt><trkpt lat="45.0061394926" lon="40.1770922262"><ele>89.06</ele><time>2018-09-15T21:36:44Z</time></trkpt><trkpt lat="45.0061230641" lon="40.1770284399"><ele>89.54</ele><time>2018-09-15T21:36:45Z</time></trkpt><trkpt lat="45.0060409214" lon="40.1766994502"><ele>89.54</ele><time>2018-09-15T21:36:50Z</time></trkpt><trkpt lat="45.0057234988" lon="40.1754425839"><ele>89.06</ele><time>2018-09-15T21:37:08Z</time></trkpt><trkpt lat="45.0053943414" lon="40.1741334982"><ele>88.58</ele><time>2018-09-15T21:37:27Z</time></trkpt><trkpt lat="45.0050748233" lon="40.1728289388"><ele>90.02</ele><time>2018-09-15T21:37:46Z</time></trkpt><trkpt lat="45.0047935266" lon="40.1716822106"><ele>91.94</ele><time>2018-09-15T21:38:04Z</time></trkpt><trkpt lat="45.0045221206" lon="40.1705943234"><ele>93.39</ele><time>2018-09-15T21:38:22Z</time></trkpt><trkpt lat="45.0042815600" lon="40.1696314942"><ele>94.35</ele><time>2018-09-15T21:38:39Z</time></trkpt><trkpt lat="45.0040223077" lon="40.1685872767"><ele>95.31</ele><time>2018-09-15T21:38:57Z</time></trkpt><trkpt lat="45.0037680846" lon="40.1675722282"><ele>95.79</ele><time>2018-09-15T21:39:15Z</time></trkpt><trkpt lat="45.0036532525" lon="40.1671155822"><ele>95.79</ele><time>2018-09-15T21:39:23Z</time></trkpt><trkpt lat="45.0036208145" lon="40.1670018397"><ele>95.79</ele><time>2018-09-15T21:39:25Z</time></trkpt><trkpt lat="45.0032920763" lon="40.1657252759"><ele>95.31</ele><time>2018-09-15T21:39:46Z</time></trkpt><trkpt lat="45.0030165631" lon="40.1646950562"><ele>95.79</ele><time>2018-09-15T21:40:04Z</time></trkpt><trkpt lat="45.0027351826" lon="40.1636454742"><ele>96.27</ele><time>2018-09-15T21:40:22Z</time></trkpt><trkpt lat="45.0024884194" lon="40.1627362054"><ele>96.75</ele><time>2018-09-15T21:40:37Z</time></trkpt><trkpt lat="45.0022429135" lon="40.1618325524"><ele>96.75</ele><time>2018-09-15T21:40:53Z</time></trkpt><trkpt lat="45.0020554103" lon="40.1611331664"><ele>97.23</ele><time>2018-09-15T21:41:06Z</time></trkpt><trkpt lat="45.0020388979" lon="40.1610713080"><ele>97.23</ele><time>2018-09-15T21:41:07Z</time></trkpt><trkpt lat="45.0018689130" lon="40.1604328584"><ele>97.23</ele><time>2018-09-15T21:41:17Z</time></trkpt><trkpt lat="45.0018322002" lon="40.1603037771"><ele>97.23</ele><time>2018-09-15T21:41:19Z</time></trkpt><trkpt lat="45.0015240815" lon="40.1591307297"><ele>95.31</ele><time>2018-09-15T21:41:36Z</time></trkpt><trkpt lat="45.0015058927" lon="40.1590645127"><ele>95.31</ele><time>2018-09-15T21:41:37Z</time></trkpt><trkpt lat="45.0014856085" lon="40.1589949429"><ele>95.31</ele><time>2018-09-15T21:41:38Z</time></trkpt><trkpt lat="45.0014132727" lon="40.1587238722"><ele>95.31</ele><time>2018-09-15T21:41:42Z</time></trkpt><trkpt lat="45.0013976824" lon="40.1586581580"><ele>94.83</ele><time>2018-09-15T21:41:43Z</time></trkpt><trkpt lat="45.0011488236" lon="40.1577166189"><ele>93.87</ele><time>2018-09-15T21:41:58Z</time></trkpt><trkpt lat="45.0008738134" lon="40.1566937752"><ele>92.90</ele><time>2018-09-15T21:42:14Z</time></trkpt><trkpt lat="45.0007384457" lon="40.1561847422"><ele>93.39</ele><time>2018-09-15T21:42:22Z</time></trkpt><trkpt lat="45.0004797801" lon="40.1552385092"><ele>93.39</ele><time>2018-09-15T21:42:37Z</time></trkpt><trkpt lat="45.0002081227" lon="40.1541922800"><ele>93.39</ele><time>2018-09-15T21:42:54Z</time></trkpt><trkpt lat="45.0000750180" lon="40.1537174452"><ele>93.39</ele><time>2018-09-15T21:43:02Z</time></trkpt><trkpt lat="44.9999528099" lon="40.1532403473"><ele>93.39</ele><time>2018-09-15T21:43:10Z</time></trkpt><trkpt lat="44.9999350403" lon="40.1531867031"><ele>93.39</ele><time>2018-09-15T21:43:11Z</time></trkpt><trkpt lat="44.9999193661" lon="40.1531281136"><ele>93.39</ele><time>2018-09-15T21:43:12Z</time></trkpt><trkpt lat="44.9999042787" lon="40.1530687697"><ele>93.39</ele><time>2018-09-15T21:43:13Z</time></trkpt><trkpt lat="44.9998889398" lon="40.1530109346"><ele>93.39</ele><time>2018-09-15T21:43:14Z</time></trkpt><trkpt lat="44.9997292645" lon="40.1524372771"><ele>93.87</ele><time>2018-09-15T21:43:24Z</time></trkpt><trkpt lat="44.9997107405" lon="40.1523827109"><ele>93.87</ele><time>2018-09-15T21:43:25Z</time></trkpt><trkpt lat="44.9996951502" lon="40.1523248758"><ele>93.87</ele><time>2018-09-15T21:43:26Z</time></trkpt><trkpt lat="44.9996309448" lon="40.1520861592"><ele>93.39</ele><time>2018-09-15T21:43:30Z</time></trkpt><trkpt lat="44.9993834272" lon="40.1512412634"><ele>93.87</ele><time>2018-09-15T21:43:45Z</time></trkpt><trkpt lat="44.9992570281" lon="40.1502058469"><ele>93.39</ele><time>2018-09-15T21:44:01Z</time></trkpt><trkpt lat="44.9991706107" lon="40.1489486452"><ele>91.46</ele><time>2018-09-15T21:44:18Z</time></trkpt><trkpt lat="44.9990791641" lon="40.1477793697"><ele>90.02</ele><time>2018-09-15T21:44:34Z</time></trkpt><trkpt lat="44.9989731330" lon="40.1464474853"><ele>89.54</ele><time>2018-09-15T21:44:53Z</time></trkpt><trkpt lat="44.9988774955" lon="40.1452174410"><ele>88.58</ele><time>2018-09-15T21:45:10Z</time></trkpt><trkpt lat="44.9988051597" lon="40.1445389260"><ele>88.58</ele><time>2018-09-15T21:45:20Z</time></trkpt><trkpt lat="44.9986650981" lon="40.1434516255"><ele>88.58</ele><time>2018-09-15T21:45:36Z</time></trkpt><trkpt lat="44.9984951131" lon="40.1422003750"><ele>88.10</ele><time>2018-09-15T21:45:54Z</time></trkpt><trkpt lat="44.9983110465" lon="40.1408917923"><ele>88.10</ele><time>2018-09-15T21:46:13Z</time></trkpt><trkpt lat="44.9981736671" lon="40.1399174798"><ele>87.62</ele><time>2018-09-15T21:46:29Z</time></trkpt><trkpt lat="44.9981138203" lon="40.1394585706"><ele>87.62</ele><time>2018-09-15T21:46:36Z</time></trkpt><trkpt lat="44.9979772791" lon="40.1384376548"><ele>87.62</ele><time>2018-09-15T21:46:52Z</time></trkpt><trkpt lat="44.9978340324" lon="40.1373294834"><ele>88.10</ele><time>2018-09-15T21:47:10Z</time></trkpt><trkpt lat="44.9978108983" lon="40.1371591631"><ele>88.58</ele><time>2018-09-15T21:47:13Z</time></trkpt><trkpt lat="44.9977464415" lon="40.1366607752"><ele>89.06</ele><time>2018-09-15T21:47:22Z</time></trkpt><trkpt lat="44.9975966569" lon="40.1355676074"><ele>90.02</ele><time>2018-09-15T21:47:41Z</time></trkpt><trkpt lat="44.9975653086" lon="40.1353290584"><ele>90.02</ele><time>2018-09-15T21:47:45Z</time></trkpt><trkpt lat="44.9975583516" lon="40.1352736540"><ele>90.02</ele><time>2018-09-15T21:47:46Z</time></trkpt><trkpt lat="44.9974050466" lon="40.1341905445"><ele>90.02</ele><time>2018-09-15T21:48:05Z</time></trkpt><trkpt lat="44.9972892925" lon="40.1333355065"><ele>90.50</ele><time>2018-09-15T21:48:20Z</time></trkpt><trkpt lat="44.9972115085" lon="40.1327914372"><ele>90.50</ele><time>2018-09-15T21:48:29Z</time></trkpt><trkpt lat="44.9970897194" lon="40.1318800729"><ele>90.50</ele><time>2018-09-15T21:48:46Z</time></trkpt><trkpt lat="44.9969639909" lon="40.1309656072"><ele>91.46</ele><time>2018-09-15T21:49:04Z</time></trkpt><trkpt lat="44.9968759809" lon="40.1303065382"><ele>91.46</ele><time>2018-09-15T21:49:18Z</time></trkpt><trkpt lat="44.9968764838" lon="40.1301492099"><ele>90.50</ele><time>2018-09-15T21:49:29Z</time></trkpt><trkpt lat="44.9968736339" lon="40.1301257405"><ele>91.94</ele><time>2018-09-15T21:49:43Z</time></trkpt><trkpt lat="44.9968634918" lon="40.1301201247"><ele>92.90</ele><time>2018-09-15T21:50:25Z</time></trkpt><trkpt lat="44.9968706165" lon="40.1301322784"><ele>92.42</ele><time>2018-09-15T21:51:17Z</time></trkpt><trkpt lat="44.9968653359" lon="40.1301265787"><ele>92.90</ele><time>2018-09-15T21:52:03Z</time></trkpt><trkpt lat="44.9968612287" lon="40.1301348768"><ele>92.90</ele><time>2018-09-15T21:52:51Z</time></trkpt><trkpt lat="44.9968618993" lon="40.1301269140"><ele>92.42</ele><time>2018-09-15T21:53:29Z</time></trkpt><trkpt lat="44.9968584627" lon="40.1301328652"><ele>91.46</ele><time>2018-09-15T21:54:09Z</time></trkpt><trkpt lat="44.9968624022" lon="40.1301311050"><ele>90.98</ele><time>2018-09-15T21:54:45Z</time></trkpt><trkpt lat="44.9968671799" lon="40.1301276684"><ele>90.98</ele><time>2018-09-15T21:55:01Z</time></trkpt><trkpt lat="44.9968516733" lon="40.1301390678"><ele>91.46</ele><time>2018-09-15T21:55:32Z</time></trkpt><trkpt lat="44.9968512543" lon="40.1301477011"><ele>92.90</ele><time>2018-09-15T21:56:12Z</time></trkpt><trkpt lat="44.9968487397" lon="40.1301531494"><ele>92.42</ele><time>2018-09-15T21:56:53Z</time></trkpt><trkpt lat="44.9968504999" lon="40.1301506348"><ele>92.42</ele><time>2018-09-15T21:57:38Z</time></trkpt><trkpt lat="44.9968386814" lon="40.1301566698"><ele>93.39</ele><time>2018-09-15T21:58:19Z</time></trkpt><trkpt lat="44.9968356639" lon="40.1301511377"><ele>92.90</ele><time>2018-09-15T21:58:56Z</time></trkpt><trkpt lat="44.9968429562" lon="40.1301459409"><ele>93.39</ele><time>2018-09-15T21:59:45Z</time></trkpt><trkpt lat="44.9968413636" lon="40.1301500481"><ele>91.94</ele><time>2018-09-15T22:00:20Z</time></trkpt><trkpt lat="44.9968367536" lon="40.1301512215"><ele>93.39</ele><time>2018-09-15T22:00:53Z</time></trkpt><trkpt lat="44.9968371727" lon="40.1301521435"><ele>93.87</ele><time>2018-09-15T22:01:41Z</time></trkpt><trkpt lat="44.9968343228" lon="40.1301490422"><ele>93.87</ele><time>2018-09-15T22:02:30Z</time></trkpt><trkpt lat="44.9968392681" lon="40.1301425043"><ele>93.39</ele><time>2018-09-15T22:03:05Z</time></trkpt><trkpt lat="44.9968361668" lon="40.1301500481"><ele>92.42</ele><time>2018-09-15T22:03:47Z</time></trkpt><trkpt lat="44.9968374241" lon="40.1301439293"><ele>91.94</ele><time>2018-09-15T22:04:31Z</time></trkpt><trkpt lat="44.9968343228" lon="40.1301486231"><ele>92.90</ele><time>2018-09-15T22:05:19Z</time></trkpt><trkpt lat="44.9968323112" lon="40.1301459409"><ele>92.90</ele><time>2018-09-15T22:06:04Z</time></trkpt><trkpt lat="44.9968408607" lon="40.1301457733"><ele>92.90</ele><time>2018-09-15T22:06:50Z</time></trkpt><trkpt lat="44.9968393520" lon="40.1301409956"><ele>92.42</ele><time>2018-09-15T22:07:33Z</time></trkpt><trkpt lat="44.9968406931" lon="40.1301373076"><ele>91.94</ele><time>2018-09-15T22:08:24Z</time></trkpt><trkpt lat="44.9968400225" lon="40.1301398221"><ele>90.98</ele><time>2018-09-15T22:09:09Z</time></trkpt><trkpt lat="44.9968354963" lon="40.1301383134"><ele>90.98</ele><time>2018-09-15T22:09:48Z</time></trkpt><trkpt lat="44.9968362506" lon="40.1301404927"><ele>90.98</ele><time>2018-09-15T22:10:34Z</time></trkpt><trkpt lat="44.9968414474" lon="40.1301359665"><ele>90.98</ele><time>2018-09-15T22:11:18Z</time></trkpt><trkpt lat="44.9968490750" lon="40.1301321108"><ele>90.02</ele><time>2018-09-15T22:12:11Z</time></trkpt><trkpt lat="44.9968428724" lon="40.1301354636"><ele>90.02</ele><time>2018-09-15T22:12:59Z</time></trkpt><trkpt lat="44.9968428724" lon="40.1301374752"><ele>90.98</ele><time>2018-09-15T22:13:44Z</time></trkpt><trkpt lat="44.9968471471" lon="40.1301387325"><ele>90.98</ele><time>2018-09-15T22:14:30Z</time></trkpt><trkpt lat="44.9968491588" lon="40.1301311888"><ele>90.50</ele><time>2018-09-15T22:15:10Z</time></trkpt><trkpt lat="44.9968522601" lon="40.1301289257"><ele>90.50</ele><time>2018-09-15T22:16:05Z</time></trkpt><trkpt lat="44.9968495779" lon="40.1301319432"><ele>90.02</ele><time>2018-09-15T22:16:46Z</time></trkpt><trkpt lat="44.9968489073" lon="40.1301269140"><ele>89.54</ele><time>2018-09-15T22:17:34Z</time></trkpt><trkpt lat="44.9968476500" lon="40.1301311050"><ele>89.06</ele><time>2018-09-15T22:18:27Z</time></trkpt><trkpt lat="44.9968502484" lon="40.1301221363"><ele>90.02</ele><time>2018-09-15T22:19:07Z</time></trkpt><trkpt lat="44.9968542717" lon="40.1301280875"><ele>90.98</ele><time>2018-09-15T22:19:50Z</time></trkpt><trkpt lat="44.9968571216" lon="40.1301235612"><ele>90.98</ele><time>2018-09-15T22:20:47Z</time></trkpt><trkpt lat="44.9968548585" lon="40.1301226392"><ele>90.02</ele><time>2018-09-15T22:21:39Z</time></trkpt><trkpt lat="44.9968520924" lon="40.1301288418"><ele>90.98</ele><time>2018-09-15T22:22:31Z</time></trkpt><trkpt lat="44.9968523439" lon="40.1301247347"><ele>90.98</ele><time>2018-09-15T22:23:16Z</time></trkpt><trkpt lat="44.9968563672" lon="40.1301204599"><ele>90.02</ele><time>2018-09-15T22:24:13Z</time></trkpt><trkpt lat="44.9968620669" lon="40.1301234774"><ele>89.54</ele><time>2018-09-15T22:25:03Z</time></trkpt><trkpt lat="44.9968570378" lon="40.1301228069"><ele>90.98</ele><time>2018-09-15T22:25:37Z</time></trkpt><trkpt lat="44.9968605582" lon="40.1301231422"><ele>91.46</ele><time>2018-09-15T22:26:25Z</time></trkpt><trkpt lat="44.9968727119" lon="40.1301234774"><ele>91.94</ele><time>2018-09-15T22:27:04Z</time></trkpt><trkpt lat="44.9968771543" lon="40.1301176939"><ele>90.98</ele><time>2018-09-15T22:27:36Z</time></trkpt><trkpt lat="44.9968648329" lon="40.1301246509"><ele>91.94</ele><time>2018-09-15T22:27:52Z</time></trkpt><trkpt lat="44.9968786631" lon="40.1301281713"><ele>94.35</ele><time>2018-09-15T22:28:43Z</time></trkpt><trkpt lat="44.9968710355" lon="40.1301306020"><ele>94.83</ele><time>2018-09-15T22:29:23Z</time></trkpt><trkpt lat="44.9968692753" lon="40.1301332843"><ele>93.87</ele><time>2018-09-15T22:30:05Z</time></trkpt><trkpt lat="44.9968650006" lon="40.1301327813"><ele>94.83</ele><time>2018-09-15T22:30:42Z</time></trkpt><trkpt lat="44.9968695268" lon="40.1301181130"><ele>92.42</ele><time>2018-09-15T22:31:18Z</time></trkpt><trkpt lat="44.9968460575" lon="40.1301132515"><ele>92.42</ele><time>2018-09-15T22:31:42Z</time></trkpt><trkpt lat="44.9968555290" lon="40.1301086415"><ele>91.46</ele><time>2018-09-15T22:31:57Z</time></trkpt><trkpt lat="44.9968447164" lon="40.1301220525"><ele>90.50</ele><time>2018-09-15T22:32:11Z</time></trkpt><trkpt lat="44.9968351610" lon="40.1300965715"><ele>90.98</ele><time>2018-09-15T22:32:24Z</time></trkpt><trkpt lat="44.9968292937" lon="40.1300457772"><ele>90.98</ele><time>2018-09-15T22:32:39Z</time></trkpt><trkpt lat="44.9968176428" lon="40.1299727708"><ele>90.98</ele><time>2018-09-15T22:32:55Z</time></trkpt><trkpt lat="44.9967703689" lon="40.1295680925"><ele>90.50</ele><time>2018-09-15T22:33:06Z</time></trkpt><trkpt lat="44.9967020564" lon="40.1290607359"><ele>90.98</ele><time>2018-09-15T22:33:18Z</time></trkpt><trkpt lat="44.9965850450" lon="40.1282241382"><ele>91.46</ele><time>2018-09-15T22:33:35Z</time></trkpt><trkpt lat="44.9964798521" lon="40.1274626423"><ele>91.46</ele><time>2018-09-15T22:33:50Z</time></trkpt><trkpt lat="44.9963551294" lon="40.1265422255"><ele>91.46</ele><time>2018-09-15T22:34:07Z</time></trkpt><trkpt lat="44.9962099548" lon="40.1255063899"><ele>92.42</ele><time>2018-09-15T22:34:26Z</time></trkpt><trkpt lat="44.9960420653" lon="40.1242943667"><ele>91.46</ele><time>2018-09-15T22:34:44Z</time></trkpt><trkpt lat="44.9958409835" lon="40.1229395997"><ele>90.50</ele><time>2018-09-15T22:35:06Z</time></trkpt><trkpt lat="44.9957132433" lon="40.1219908521"><ele>91.46</ele><time>2018-09-15T22:35:23Z</time></trkpt><trkpt lat="44.9955526460" lon="40.1208451297"><ele>91.46</ele><time>2018-09-15T22:35:41Z</time></trkpt><trkpt lat="44.9955262430" lon="40.1206443831"><ele>91.46</ele><time>2018-09-15T22:35:44Z</time></trkpt><trkpt lat="44.9953639694" lon="40.1195108984"><ele>91.46</ele><time>2018-09-15T22:36:01Z</time></trkpt><trkpt lat="44.9951958284" lon="40.1183122862"><ele>91.46</ele><time>2018-09-15T22:36:19Z</time></trkpt><trkpt lat="44.9950364884" lon="40.1172046177"><ele>91.46</ele><time>2018-09-15T22:36:36Z</time></trkpt><trkpt lat="44.9948546849" lon="40.1159278024"><ele>92.42</ele><time>2018-09-15T22:36:56Z</time></trkpt><trkpt lat="44.9948385078" lon="40.1158014033"><ele>92.42</ele><time>2018-09-15T22:36:58Z</time></trkpt><trkpt lat="44.9946789164" lon="40.1146990154"><ele>91.94</ele><time>2018-09-15T22:37:16Z</time></trkpt><trkpt lat="44.9945986178" lon="40.1140876394"><ele>91.94</ele><time>2018-09-15T22:37:29Z</time></trkpt><trkpt lat="44.9945498351" lon="40.1138016488"><ele>91.94</ele><time>2018-09-15T22:37:39Z</time></trkpt><trkpt lat="44.9944421276" lon="40.1130617782"><ele>92.42</ele><time>2018-09-15T22:37:52Z</time></trkpt><trkpt lat="44.9944346678" lon="40.1130031049"><ele>92.42</ele><time>2018-09-15T22:37:53Z</time></trkpt><trkpt lat="44.9943888187" lon="40.1126952376"><ele>92.42</ele><time>2018-09-15T22:37:58Z</time></trkpt><trkpt lat="44.9942217674" lon="40.1115316618"><ele>92.42</ele><time>2018-09-15T22:38:17Z</time></trkpt><trkpt lat="44.9940775149" lon="40.1105444413"><ele>91.94</ele><time>2018-09-15T22:38:33Z</time></trkpt><trkpt lat="44.9939109664" lon="40.1093816198"><ele>92.42</ele><time>2018-09-15T22:38:52Z</time></trkpt><trkpt lat="44.9937094655" lon="40.1079445425"><ele>92.42</ele><time>2018-09-15T22:39:15Z</time></trkpt><trkpt lat="44.9935458507" lon="40.1068487763"><ele>92.42</ele><time>2018-09-15T22:39:32Z</time></trkpt><trkpt lat="44.9934972357" lon="40.1065179426"><ele>91.94</ele><time>2018-09-15T22:39:37Z</time></trkpt><trkpt lat="44.9933409132" lon="40.1053771656"><ele>92.42</ele><time>2018-09-15T22:39:55Z</time></trkpt><trkpt lat="44.9931928050" lon="40.1043619495"><ele>91.94</ele><time>2018-09-15T22:40:11Z</time></trkpt><trkpt lat="44.9930106662" lon="40.1030946895"><ele>91.94</ele><time>2018-09-15T22:40:29Z</time></trkpt><trkpt lat="44.9928025436" lon="40.1016541757"><ele>90.98</ele><time>2018-09-15T22:40:48Z</time></trkpt><trkpt lat="44.9927258492" lon="40.1011324022"><ele>90.98</ele><time>2018-09-15T22:40:56Z</time></trkpt><trkpt lat="44.9927132763" lon="40.1010096911"><ele>90.98</ele><time>2018-09-15T22:40:58Z</time></trkpt><trkpt lat="44.9925578758" lon="40.0999590196"><ele>90.98</ele><time>2018-09-15T22:41:14Z</time></trkpt><trkpt lat="44.9924520124" lon="40.0992279500"><ele>90.98</ele><time>2018-09-15T22:41:25Z</time></trkpt><trkpt lat="44.9924386013" lon="40.0990944263"><ele>90.98</ele><time>2018-09-15T22:41:27Z</time></trkpt><trkpt lat="44.9923031498" lon="40.0981817208"><ele>90.98</ele><time>2018-09-15T22:41:41Z</time></trkpt><trkpt lat="44.9922190793" lon="40.0975990947"><ele>90.98</ele><time>2018-09-15T22:41:50Z</time></trkpt><trkpt lat="44.9922132958" lon="40.0975355599"><ele>90.98</ele><time>2018-09-15T22:41:51Z</time></trkpt><trkpt lat="44.9922065064" lon="40.0974734500"><ele>90.98</ele><time>2018-09-15T22:41:52Z</time></trkpt><trkpt lat="44.9920168240" lon="40.0961686391"><ele>91.46</ele><time>2018-09-15T22:42:12Z</time></trkpt><trkpt lat="44.9918618426" lon="40.0950894691"><ele>91.46</ele><time>2018-09-15T22:42:29Z</time></trkpt><trkpt lat="44.9916983116" lon="40.0940066110"><ele>91.94</ele><time>2018-09-15T22:42:46Z</time></trkpt><trkpt lat="44.9914875906" lon="40.0928577874"><ele>90.98</ele><time>2018-09-15T22:43:04Z</time></trkpt><trkpt lat="44.9912403245" lon="40.0916716643"><ele>91.94</ele><time>2018-09-15T22:43:22Z</time></trkpt><trkpt lat="44.9909619614" lon="40.0904360879"><ele>90.98</ele><time>2018-09-15T22:43:40Z</time></trkpt><trkpt lat="44.9905285332" lon="40.0891675707"><ele>90.02</ele><time>2018-09-15T22:43:58Z</time></trkpt><trkpt lat="44.9900055025" lon="40.0881864689"><ele>89.06</ele><time>2018-09-15T22:44:16Z</time></trkpt><trkpt lat="44.9899641797" lon="40.0881198328"><ele>90.02</ele><time>2018-09-15T22:44:26Z</time></trkpt><trkpt lat="44.9899585638" lon="40.0881256163"><ele>90.98</ele><time>2018-09-15T22:44:54Z</time></trkpt><trkpt lat="44.9899503496" lon="40.0881289691"><ele>90.98</ele><time>2018-09-15T22:45:33Z</time></trkpt><trkpt lat="44.9899569713" lon="40.0881395303"><ele>92.42</ele><time>2018-09-15T22:46:16Z</time></trkpt><trkpt lat="44.9899357650" lon="40.0881183241"><ele>92.42</ele><time>2018-09-15T22:46:31Z</time></trkpt><trkpt lat="44.9899103679" lon="40.0880786777"><ele>92.42</ele><time>2018-09-15T22:46:47Z</time></trkpt><trkpt lat="44.9896745849" lon="40.0877672900"><ele>91.46</ele><time>2018-09-15T22:46:58Z</time></trkpt><trkpt lat="44.9893424939" lon="40.0874388870"><ele>90.98</ele><time>2018-09-15T22:47:08Z</time></trkpt><trkpt lat="44.9885115121" lon="40.0868194643"><ele>90.02</ele><time>2018-09-15T22:47:30Z</time></trkpt><trkpt lat="44.9876919296" lon="40.0863469765"><ele>90.50</ele><time>2018-09-15T22:47:50Z</time></trkpt><trkpt lat="44.9866557587" lon="40.0858121272"><ele>90.50</ele><time>2018-09-15T22:48:15Z</time></trkpt><trkpt lat="44.9866174534" lon="40.0857915916"><ele>90.02</ele><time>2018-09-15T22:48:16Z</time></trkpt><trkpt lat="44.9861594662" lon="40.0855545513"><ele>90.50</ele><time>2018-09-15T22:48:27Z</time></trkpt><trkpt lat="44.9861142039" lon="40.0855359435"><ele>90.50</ele><time>2018-09-15T22:48:28Z</time></trkpt><trkpt lat="44.9860717915" lon="40.0855167489"><ele>90.50</ele><time>2018-09-15T22:48:29Z</time></trkpt><trkpt lat="44.9853037577" lon="40.0851195306"><ele>90.50</ele><time>2018-09-15T22:48:47Z</time></trkpt><trkpt lat="44.9845748674" lon="40.0847520679"><ele>90.50</ele><time>2018-09-15T22:49:05Z</time></trkpt><trkpt lat="44.9837823585" lon="40.0843373314"><ele>90.02</ele><time>2018-09-15T22:49:23Z</time></trkpt><trkpt lat="44.9830411468" lon="40.0839740597"><ele>89.54</ele><time>2018-09-15T22:49:40Z</time></trkpt><trkpt lat="44.9826008454" lon="40.0838000514"><ele>90.02</ele><time>2018-09-15T22:49:51Z</time></trkpt><trkpt lat="44.9825616181" lon="40.0837840419"><ele>89.54</ele><time>2018-09-15T22:49:52Z</time></trkpt><trkpt lat="44.9816984497" lon="40.0834811199"><ele>89.54</ele><time>2018-09-15T22:50:13Z</time></trkpt><trkpt lat="44.9811589066" lon="40.0833864044"><ele>88.58</ele><time>2018-09-15T22:50:26Z</time></trkpt><trkpt lat="44.9805010948" lon="40.0832920242"><ele>88.58</ele><time>2018-09-15T22:50:42Z</time></trkpt><trkpt lat="44.9804602750" lon="40.0832870789"><ele>88.58</ele><time>2018-09-15T22:50:43Z</time></trkpt><trkpt lat="44.9800787307" lon="40.0831059460"><ele>88.58</ele><time>2018-09-15T22:50:55Z</time></trkpt><trkpt lat="44.9801049661" lon="40.0829588436"><ele>88.58</ele><time>2018-09-15T22:50:59Z</time></trkpt><trkpt lat="44.9801200535" lon="40.0829252321"><ele>89.06</ele><time>2018-09-15T22:51:00Z</time></trkpt><trkpt lat="44.9804870971" lon="40.0826467853"><ele>88.58</ele><time>2018-09-15T22:51:13Z</time></trkpt><trkpt lat="44.9812323321" lon="40.0822094176"><ele>87.62</ele><time>2018-09-15T22:51:32Z</time></trkpt><trkpt lat="44.9820116814" lon="40.0817707926"><ele>88.10</ele><time>2018-09-15T22:51:52Z</time></trkpt><trkpt lat="44.9821322132" lon="40.0817103591"><ele>88.58</ele><time>2018-09-15T22:51:55Z</time></trkpt><trkpt lat="44.9821746256" lon="40.0816871412"><ele>88.58</ele><time>2018-09-15T22:51:56Z</time></trkpt><trkpt lat="44.9828759395" lon="40.0812936109"><ele>89.06</ele><time>2018-09-15T22:52:12Z</time></trkpt><trkpt lat="44.9832378700" lon="40.0810802076"><ele>90.02</ele><time>2018-09-15T22:52:20Z</time></trkpt><trkpt lat="44.9832724035" lon="40.0810643658"><ele>90.02</ele><time>2018-09-15T22:52:21Z</time></trkpt><trkpt lat="44.9836448953" lon="40.0808623619"><ele>89.54</ele><time>2018-09-15T22:52:31Z</time></trkpt><trkpt lat="44.9836854637" lon="40.0808350369"><ele>89.54</ele><time>2018-09-15T22:52:32Z</time></trkpt><trkpt lat="44.9837275408" lon="40.0808090530"><ele>89.54</ele><time>2018-09-15T22:52:33Z</time></trkpt><trkpt lat="44.9838494137" lon="40.0807451829"><ele>89.54</ele><time>2018-09-15T22:52:36Z</time></trkpt><trkpt lat="44.9845348857" lon="40.0803462043"><ele>88.10</ele><time>2018-09-15T22:52:52Z</time></trkpt><trkpt lat="44.9845824949" lon="40.0803192984"><ele>88.10</ele><time>2018-09-15T22:52:53Z</time></trkpt><trkpt lat="44.9854273908" lon="40.0798365846"><ele>87.62</ele><time>2018-09-15T22:53:11Z</time></trkpt><trkpt lat="44.9862347357" lon="40.0793813635"><ele>86.66</ele><time>2018-09-15T22:53:28Z</time></trkpt><trkpt lat="44.9870613590" lon="40.0790413935"><ele>86.66</ele><time>2018-09-15T22:53:45Z</time></trkpt><trkpt lat="44.9879301433" lon="40.0788223743"><ele>88.58</ele><time>2018-09-15T22:54:02Z</time></trkpt><trkpt lat="44.9887149408" lon="40.0786539819"><ele>89.06</ele><time>2018-09-15T22:54:19Z</time></trkpt><trkpt lat="44.9894058611" lon="40.0785240624"><ele>91.46</ele><time>2018-09-15T22:54:35Z</time></trkpt><trkpt lat="44.9896741658" lon="40.0785052031"><ele>91.94</ele><time>2018-09-15T22:54:42Z</time></trkpt><trkpt lat="44.9897567276" lon="40.0785163511"><ele>91.94</ele><time>2018-09-15T22:54:44Z</time></trkpt><trkpt lat="44.9897965416" lon="40.0785206258"><ele>91.94</ele><time>2018-09-15T22:54:45Z</time></trkpt><trkpt lat="44.9904195685" lon="40.0787795428"><ele>91.46</ele><time>2018-09-15T22:55:00Z</time></trkpt><trkpt lat="44.9909742828" lon="40.0790786091"><ele>90.02</ele><time>2018-09-15T22:55:13Z</time></trkpt><trkpt lat="44.9914334435" lon="40.0793275516"><ele>89.06</ele><time>2018-09-15T22:55:24Z</time></trkpt><trkpt lat="44.9921089411" lon="40.0796972774"><ele>89.06</ele><time>2018-09-15T22:55:40Z</time></trkpt><trkpt lat="44.9928810820" lon="40.0801272690"><ele>89.06</ele><time>2018-09-15T22:55:57Z</time></trkpt><trkpt lat="44.9936154205" lon="40.0803700089"><ele>89.06</ele><time>2018-09-15T22:56:14Z</time></trkpt><trkpt lat="44.9942345917" lon="40.0801486429"><ele>89.06</ele><time>2018-09-15T22:56:28Z</time></trkpt><trkpt lat="44.9945493322" lon="40.0799626485"><ele>90.50</ele><time>2018-09-15T22:56:36Z</time></trkpt><trkpt lat="44.9952173699" lon="40.0796075072"><ele>90.50</ele><time>2018-09-15T22:56:52Z</time></trkpt><trkpt lat="44.9952581059" lon="40.0795806851"><ele>90.50</ele><time>2018-09-15T22:56:53Z</time></trkpt><trkpt lat="44.9952977523" lon="40.0795568805"><ele>90.50</ele><time>2018-09-15T22:56:54Z</time></trkpt><trkpt lat="44.9953460321" lon="40.0795331597"><ele>90.50</ele><time>2018-09-15T22:56:55Z</time></trkpt><trkpt lat="44.9953848403" lon="40.0795143843"><ele>90.98</ele><time>2018-09-15T22:56:56Z</time></trkpt><trkpt lat="44.9954239838" lon="40.0794917531"><ele>90.98</ele><time>2018-09-15T22:56:57Z</time></trkpt><trkpt lat="44.9960745871" lon="40.0791368634"><ele>90.50</ele><time>2018-09-15T22:57:12Z</time></trkpt><trkpt lat="44.9963616673" lon="40.0789725780"><ele>90.02</ele><time>2018-09-15T22:57:19Z</time></trkpt><trkpt lat="44.9964464083" lon="40.0789280701"><ele>90.02</ele><time>2018-09-15T22:57:21Z</time></trkpt><trkpt lat="44.9966028985" lon="40.0788278226"><ele>90.02</ele><time>2018-09-15T22:57:25Z</time></trkpt><trkpt lat="44.9968558643" lon="40.0787019264"><ele>90.02</ele><time>2018-09-15T22:57:31Z</time></trkpt><trkpt lat="44.9975643028" lon="40.0783073064"><ele>89.54</ele><time>2018-09-15T22:57:48Z</time></trkpt><trkpt lat="44.9982062727" lon="40.0779400952"><ele>88.58</ele><time>2018-09-15T22:58:04Z</time></trkpt><trkpt lat="44.9989615660" lon="40.0775220059"><ele>88.10</ele><time>2018-09-15T22:58:21Z</time></trkpt><trkpt lat="44.9998040311" lon="40.0770993903"><ele>86.18</ele><time>2018-09-15T22:58:37Z</time></trkpt><trkpt lat="45.0010585506" lon="40.0765876751"><ele>84.73</ele><time>2018-09-15T22:58:59Z</time></trkpt><trkpt lat="45.0018345471" lon="40.0762940571"><ele>85.21</ele><time>2018-09-15T22:59:14Z</time></trkpt><trkpt lat="45.0018855091" lon="40.0762741920"><ele>85.21</ele><time>2018-09-15T22:59:15Z</time></trkpt><trkpt lat="45.0027603284" lon="40.0759549253"><ele>84.73</ele><time>2018-09-15T22:59:32Z</time></trkpt><trkpt lat="45.0035215728" lon="40.0756732933"><ele>84.73</ele><time>2018-09-15T22:59:47Z</time></trkpt><trkpt lat="45.0046776887" lon="40.0752326567"><ele>84.25</ele><time>2018-09-15T23:00:10Z</time></trkpt><trkpt lat="45.0056043919" lon="40.0748940278"><ele>83.29</ele><time>2018-09-15T23:00:28Z</time></trkpt><trkpt lat="45.0066033471" lon="40.0745169260"><ele>83.29</ele><time>2018-09-15T23:00:48Z</time></trkpt><trkpt lat="45.0075309724" lon="40.0741768721"><ele>83.77</ele><time>2018-09-15T23:01:07Z</time></trkpt><trkpt lat="45.0082999282" lon="40.0738874450"><ele>83.29</ele><time>2018-09-15T23:01:23Z</time></trkpt><trkpt lat="45.0089959614" lon="40.0736426935"><ele>82.81</ele><time>2018-09-15T23:01:37Z</time></trkpt><trkpt lat="45.0099034701" lon="40.0733033102"><ele>82.33</ele><time>2018-09-15T23:01:56Z</time></trkpt><trkpt lat="45.0107080489" lon="40.0730095245"><ele>82.33</ele><time>2018-09-15T23:02:12Z</time></trkpt><trkpt lat="45.0116906594" lon="40.0726449117"><ele>82.33</ele><time>2018-09-15T23:02:31Z</time></trkpt><trkpt lat="45.0126421731" lon="40.0722929556"><ele>82.33</ele><time>2018-09-15T23:02:49Z</time></trkpt><trkpt lat="45.0136824511" lon="40.0719114952"><ele>82.81</ele><time>2018-09-15T23:03:09Z</time></trkpt><trkpt lat="45.0145521574" lon="40.0715939887"><ele>83.29</ele><time>2018-09-15T23:03:28Z</time></trkpt><trkpt lat="45.0153537188" lon="40.0711404439"><ele>81.85</ele><time>2018-09-15T23:03:45Z</time></trkpt><trkpt lat="45.0160671864" lon="40.0705579016"><ele>81.37</ele><time>2018-09-15T23:04:01Z</time></trkpt><trkpt lat="45.0162512530" lon="40.0704075303"><ele>81.37</ele><time>2018-09-15T23:04:05Z</time></trkpt><trkpt lat="45.0164244231" lon="40.0702550635"><ele>80.89</ele><time>2018-09-15T23:04:09Z</time></trkpt><trkpt lat="45.0164684281" lon="40.0702208653"><ele>81.37</ele><time>2018-09-15T23:04:10Z</time></trkpt><trkpt lat="45.0172482803" lon="40.0695615448"><ele>80.89</ele><time>2018-09-15T23:04:27Z</time></trkpt><trkpt lat="45.0180571340" lon="40.0689039007"><ele>80.89</ele><time>2018-09-15T23:04:45Z</time></trkpt><trkpt lat="45.0183271151" lon="40.0686834566"><ele>80.89</ele><time>2018-09-15T23:04:51Z</time></trkpt><trkpt lat="45.0189539138" lon="40.0681653712"><ele>80.89</ele><time>2018-09-15T23:05:05Z</time></trkpt><trkpt lat="45.0190840010" lon="40.0680401456"><ele>80.89</ele><time>2018-09-15T23:05:08Z</time></trkpt><trkpt lat="45.0198628474" lon="40.0674097426"><ele>80.89</ele><time>2018-09-15T23:05:25Z</time></trkpt><trkpt lat="45.0206326414" lon="40.0667848717"><ele>80.41</ele><time>2018-09-15T23:05:42Z</time></trkpt><trkpt lat="45.0207696855" lon="40.0666797627"><ele>79.93</ele><time>2018-09-15T23:05:45Z</time></trkpt><trkpt lat="45.0213057082" lon="40.0662395451"><ele>80.89</ele><time>2018-09-15T23:05:57Z</time></trkpt><trkpt lat="45.0219351891" lon="40.0657053664"><ele>80.89</ele><time>2018-09-15T23:06:11Z</time></trkpt><trkpt lat="45.0223927572" lon="40.0653309468"><ele>80.89</ele><time>2018-09-15T23:06:21Z</time></trkpt><trkpt lat="45.0231855176" lon="40.0646693632"><ele>80.89</ele><time>2018-09-15T23:06:38Z</time></trkpt><trkpt lat="45.0240182597" lon="40.0639695581"><ele>80.41</ele><time>2018-09-15T23:06:56Z</time></trkpt><trkpt lat="45.0240639411" lon="40.0639319234"><ele>80.41</ele><time>2018-09-15T23:06:57Z</time></trkpt><trkpt lat="45.0248100143" lon="40.0633187871"><ele>79.93</ele><time>2018-09-15T23:07:13Z</time></trkpt><trkpt lat="45.0257583428" lon="40.0625391025"><ele>80.41</ele><time>2018-09-15T23:07:35Z</time></trkpt><trkpt lat="45.0264767557" lon="40.0619650260"><ele>81.37</ele><time>2018-09-15T23:07:53Z</time></trkpt><trkpt lat="45.0268622395" lon="40.0616299175"><ele>81.37</ele><time>2018-09-15T23:08:03Z</time></trkpt><trkpt lat="45.0275488850" lon="40.0610564277"><ele>80.89</ele><time>2018-09-15T23:08:19Z</time></trkpt><trkpt lat="45.0279740989" lon="40.0607005320"><ele>80.89</ele><time>2018-09-15T23:08:29Z</time></trkpt><trkpt lat="45.0287464913" lon="40.0599791855"><ele>80.41</ele><time>2018-09-15T23:08:48Z</time></trkpt><trkpt lat="45.0290837791" lon="40.0595725793"><ele>79.93</ele><time>2018-09-15T23:08:58Z</time></trkpt><trkpt lat="45.0296059716" lon="40.0586560182"><ele>79.45</ele><time>2018-09-15T23:09:15Z</time></trkpt><trkpt lat="45.0296695065" lon="40.0585458800"><ele>78.97</ele><time>2018-09-15T23:09:17Z</time></trkpt><trkpt lat="45.0302263163" lon="40.0574357808"><ele>78.00</ele><time>2018-09-15T23:09:36Z</time></trkpt><trkpt lat="45.0306711439" lon="40.0565047190"><ele>75.60</ele><time>2018-09-15T23:09:52Z</time></trkpt><trkpt lat="45.0312695280" lon="40.0553140696"><ele>75.12</ele><time>2018-09-15T23:10:11Z</time></trkpt><trkpt lat="45.0318884477" lon="40.0540711172"><ele>74.16</ele><time>2018-09-15T23:10:30Z</time></trkpt><trkpt lat="45.0324114785" lon="40.0530175120"><ele>74.64</ele><time>2018-09-15T23:10:47Z</time></trkpt><trkpt lat="45.0329695456" lon="40.0518746395"><ele>74.64</ele><time>2018-09-15T23:11:06Z</time></trkpt><trkpt lat="45.0335164648" lon="40.0507836509"><ele>76.08</ele><time>2018-09-15T23:11:26Z</time></trkpt><trkpt lat="45.0339244120" lon="40.0499497354"><ele>76.56</ele><time>2018-09-15T23:11:43Z</time></trkpt><trkpt lat="45.0343638752" lon="40.0490719825"><ele>77.52</ele><time>2018-09-15T23:12:01Z</time></trkpt><trkpt lat="45.0345393922" lon="40.0487046037"><ele>78.00</ele><time>2018-09-15T23:12:09Z</time></trkpt><trkpt lat="45.0345645379" lon="40.0486600120"><ele>78.00</ele><time>2018-09-15T23:12:10Z</time></trkpt><trkpt lat="45.0345889293" lon="40.0486113131"><ele>78.00</ele><time>2018-09-15T23:12:11Z</time></trkpt><trkpt lat="45.0350140594" lon="40.0477521680"><ele>78.00</ele><time>2018-09-15T23:12:28Z</time></trkpt><trkpt lat="45.0351971202" lon="40.0473808497"><ele>77.52</ele><time>2018-09-15T23:12:35Z</time></trkpt><trkpt lat="45.0355001260" lon="40.0467666239"><ele>77.52</ele><time>2018-09-15T23:12:47Z</time></trkpt><trkpt lat="45.0355245173" lon="40.0467166677"><ele>77.52</ele><time>2018-09-15T23:12:48Z</time></trkpt><trkpt lat="45.0357214082" lon="40.0463174377"><ele>77.04</ele><time>2018-09-15T23:12:56Z</time></trkpt><trkpt lat="45.0357685145" lon="40.0462141726"><ele>76.56</ele><time>2018-09-15T23:12:58Z</time></trkpt><trkpt lat="45.0357945822" lon="40.0461640488"><ele>77.04</ele><time>2018-09-15T23:12:59Z</time></trkpt><trkpt lat="45.0362510607" lon="40.0452388544"><ele>77.04</ele><time>2018-09-15T23:13:16Z</time></trkpt><trkpt lat="45.0367020071" lon="40.0443386380"><ele>78.00</ele><time>2018-09-15T23:13:32Z</time></trkpt><trkpt lat="45.0373105332" lon="40.0430819392"><ele>76.56</ele><time>2018-09-15T23:13:52Z</time></trkpt><trkpt lat="45.0378916506" lon="40.0418891106"><ele>74.64</ele><time>2018-09-15T23:14:09Z</time></trkpt><trkpt lat="45.0382351410" lon="40.0411857013"><ele>75.60</ele><time>2018-09-15T23:14:23Z</time></trkpt><trkpt lat="45.0383912958" lon="40.0408536941"><ele>76.08</ele><time>2018-09-15T23:14:30Z</time></trkpt><trkpt lat="45.0384291820" lon="40.0407409575"><ele>76.08</ele><time>2018-09-15T23:14:32Z</time></trkpt><trkpt lat="45.0387471076" lon="40.0398628693"><ele>76.08</ele><time>2018-09-15T23:14:48Z</time></trkpt><trkpt lat="45.0389144104" lon="40.0392107572"><ele>75.60</ele><time>2018-09-15T23:14:58Z</time></trkpt><trkpt lat="45.0391068589" lon="40.0383769255"><ele>75.60</ele><time>2018-09-15T23:15:11Z</time></trkpt><trkpt lat="45.0393837970" lon="40.0371779781"><ele>74.64</ele><time>2018-09-15T23:15:29Z</time></trkpt><trkpt lat="45.0396290515" lon="40.0360587426"><ele>72.72</ele><time>2018-09-15T23:15:45Z</time></trkpt><trkpt lat="45.0399416126" lon="40.0348262675"><ele>71.27</ele><time>2018-09-15T23:16:03Z</time></trkpt><trkpt lat="45.0399573706" lon="40.0347614754"><ele>71.27</ele><time>2018-09-15T23:16:04Z</time></trkpt><trkpt lat="45.0400491524" lon="40.0343748182"><ele>71.27</ele><time>2018-09-15T23:16:10Z</time></trkpt><trkpt lat="45.0402768049" lon="40.0333821494"><ele>70.79</ele><time>2018-09-15T23:16:25Z</time></trkpt><trkpt lat="45.0405860133" lon="40.0320932642"><ele>71.27</ele><time>2018-09-15T23:16:44Z</time></trkpt><trkpt lat="45.0406545773" lon="40.0317653641"><ele>71.27</ele><time>2018-09-15T23:16:49Z</time></trkpt><trkpt lat="45.0406694971" lon="40.0317025837"><ele>71.27</ele><time>2018-09-15T23:16:50Z</time></trkpt><trkpt lat="45.0409289170" lon="40.0305601303"><ele>70.79</ele><time>2018-09-15T23:17:07Z</time></trkpt><trkpt lat="45.0411275681" lon="40.0297169946"><ele>71.76</ele><time>2018-09-15T23:17:20Z</time></trkpt><trkpt lat="45.0413957890" lon="40.0286150258"><ele>72.24</ele><time>2018-09-15T23:17:37Z</time></trkpt><trkpt lat="45.0414797757" lon="40.0282811746"><ele>71.76</ele><time>2018-09-15T23:17:43Z</time></trkpt><trkpt lat="45.0415041670" lon="40.0281644985"><ele>72.24</ele><time>2018-09-15T23:17:45Z</time></trkpt><trkpt lat="45.0417929236" lon="40.0269732624"><ele>72.72</ele><time>2018-09-15T23:18:04Z</time></trkpt><trkpt lat="45.0420161337" lon="40.0260074995"><ele>73.20</ele><time>2018-09-15T23:18:19Z</time></trkpt><trkpt lat="45.0421235897" lon="40.0254963711"><ele>73.20</ele><time>2018-09-15T23:18:27Z</time></trkpt><trkpt lat="45.0423628092" lon="40.0245284289"><ele>73.20</ele><time>2018-09-15T23:18:42Z</time></trkpt><trkpt lat="45.0424019527" lon="40.0243218988"><ele>73.20</ele><time>2018-09-15T23:18:45Z</time></trkpt><trkpt lat="45.0424206443" lon="40.0242554303"><ele>73.20</ele><time>2018-09-15T23:18:46Z</time></trkpt><trkpt lat="45.0427321158" lon="40.0230549742"><ele>73.20</ele><time>2018-09-15T23:19:03Z</time></trkpt><trkpt lat="45.0427729357" lon="40.0229134038"><ele>73.20</ele><time>2018-09-15T23:19:05Z</time></trkpt><trkpt lat="45.0428793859" lon="40.0224982481"><ele>72.72</ele><time>2018-09-15T23:19:11Z</time></trkpt><trkpt lat="45.0430388935" lon="40.0218598824"><ele>72.72</ele><time>2018-09-15T23:19:21Z</time></trkpt><trkpt lat="45.0430766959" lon="40.0217427034"><ele>72.72</ele><time>2018-09-15T23:19:23Z</time></trkpt><trkpt lat="45.0430910289" lon="40.0216811802"><ele>72.72</ele><time>2018-09-15T23:19:24Z</time></trkpt><trkpt lat="45.0431046914" lon="40.0216235127"><ele>72.72</ele><time>2018-09-15T23:19:25Z</time></trkpt><trkpt lat="45.0431222096" lon="40.0215652585"><ele>72.72</ele><time>2018-09-15T23:19:26Z</time></trkpt><trkpt lat="45.0431373809" lon="40.0215129554"><ele>73.20</ele><time>2018-09-15T23:19:27Z</time></trkpt><trkpt lat="45.0431516301" lon="40.0214588922"><ele>72.72</ele><time>2018-09-15T23:19:28Z</time></trkpt><trkpt lat="45.0432488602" lon="40.0210801139"><ele>73.20</ele><time>2018-09-15T23:19:35Z</time></trkpt><trkpt lat="45.0432587508" lon="40.0210199319"><ele>73.20</ele><time>2018-09-15T23:19:36Z</time></trkpt><trkpt lat="45.0432735868" lon="40.0209617615"><ele>73.20</ele><time>2018-09-15T23:19:37Z</time></trkpt><trkpt lat="45.0435599126" lon="40.0198885426"><ele>73.20</ele><time>2018-09-15T23:19:55Z</time></trkpt><trkpt lat="45.0438352581" lon="40.0188352726"><ele>71.27</ele><time>2018-09-15T23:20:11Z</time></trkpt><trkpt lat="45.0442284532" lon="40.0173106045"><ele>70.79</ele><time>2018-09-15T23:20:32Z</time></trkpt><trkpt lat="45.0442919042" lon="40.0169943552"><ele>71.27</ele><time>2018-09-15T23:20:37Z</time></trkpt><trkpt lat="45.0445595384" lon="40.0160091463"><ele>72.24</ele><time>2018-09-15T23:20:54Z</time></trkpt><trkpt lat="45.0448805653" lon="40.0147649366"><ele>70.79</ele><time>2018-09-15T23:21:12Z</time></trkpt><trkpt lat="45.0451876782" lon="40.0135327969"><ele>68.87</ele><time>2018-09-15T23:21:29Z</time></trkpt><trkpt lat="45.0452062022" lon="40.0134580303"><ele>68.87</ele><time>2018-09-15T23:21:30Z</time></trkpt><trkpt lat="45.0455410592" lon="40.0121989008"><ele>65.99</ele><time>2018-09-15T23:21:47Z</time></trkpt><trkpt lat="45.0459093601" lon="40.0107911602"><ele>65.99</ele><time>2018-09-15T23:22:05Z</time></trkpt><trkpt lat="45.0462603942" lon="40.0094347168"><ele>65.99</ele><time>2018-09-15T23:22:24Z</time></trkpt><trkpt lat="45.0466203131" lon="40.0080686342"><ele>65.51</ele><time>2018-09-15T23:22:44Z</time></trkpt><trkpt lat="45.0469098240" lon="40.0069718622"><ele>65.51</ele><time>2018-09-15T23:23:01Z</time></trkpt><trkpt lat="45.0471873488" lon="40.0058859028"><ele>65.99</ele><time>2018-09-15T23:23:18Z</time></trkpt><trkpt lat="45.0474740937" lon="40.0047026295"><ele>66.95</ele><time>2018-09-15T23:23:36Z</time></trkpt><trkpt lat="45.0476492755" lon="40.0037355255"><ele>67.91</ele><time>2018-09-15T23:23:50Z</time></trkpt><trkpt lat="45.0476567354" lon="40.0036646146"><ele>67.91</ele><time>2018-09-15T23:23:51Z</time></trkpt><trkpt lat="45.0477454998" lon="40.0023695268"><ele>68.39</ele><time>2018-09-15T23:24:09Z</time></trkpt><trkpt lat="45.0477450807" lon="40.0022992864"><ele>67.91</ele><time>2018-09-15T23:24:10Z</time></trkpt><trkpt lat="45.0477451645" lon="40.0020246953"><ele>67.91</ele><time>2018-09-15T23:24:14Z</time></trkpt><trkpt lat="45.0477060210" lon="40.0008463673"><ele>67.43</ele><time>2018-09-15T23:24:31Z</time></trkpt><trkpt lat="45.0476895086" lon="39.9999401160"><ele>65.51</ele><time>2018-09-15T23:24:45Z</time></trkpt><trkpt lat="45.0476862397" lon="39.9996760022"><ele>65.51</ele><time>2018-09-15T23:24:49Z</time></trkpt><trkpt lat="45.0476783607" lon="39.9993340205"><ele>65.51</ele><time>2018-09-15T23:24:54Z</time></trkpt><trkpt lat="45.0476607587" lon="39.9988130853"><ele>65.51</ele><time>2018-09-15T23:25:02Z</time></trkpt><trkpt lat="45.0476421509" lon="39.9982737936"><ele>65.03</ele><time>2018-09-15T23:25:10Z</time></trkpt><trkpt lat="45.0476253033" lon="39.9971919414"><ele>64.55</ele><time>2018-09-15T23:25:25Z</time></trkpt><trkpt lat="45.0476235431" lon="39.9966816511"><ele>64.07</ele><time>2018-09-15T23:25:32Z</time></trkpt><trkpt lat="45.0476034265" lon="39.9955943506"><ele>63.58</ele><time>2018-09-15T23:25:47Z</time></trkpt><trkpt lat="45.0475828070" lon="39.9944405816"><ele>62.62</ele><time>2018-09-15T23:26:05Z</time></trkpt><trkpt lat="45.0475761015" lon="39.9941860233"><ele>62.14</ele><time>2018-09-15T23:26:09Z</time></trkpt><trkpt lat="45.0475460105" lon="39.9934763275"><ele>62.14</ele><time>2018-09-15T23:26:20Z</time></trkpt><trkpt lat="45.0475497823" lon="39.9932029098"><ele>62.14</ele><time>2018-09-15T23:26:24Z</time></trkpt><trkpt lat="45.0475239661" lon="39.9920566007"><ele>61.18</ele><time>2018-09-15T23:26:41Z</time></trkpt><trkpt lat="45.0475093815" lon="39.9914519303"><ele>61.66</ele><time>2018-09-15T23:26:50Z</time></trkpt><trkpt lat="45.0474937912" lon="39.9900949840"><ele>62.14</ele><time>2018-09-15T23:27:10Z</time></trkpt><trkpt lat="45.0474759378" lon="39.9886271451"><ele>63.10</ele><time>2018-09-15T23:27:31Z</time></trkpt><trkpt lat="45.0474491995" lon="39.9874628987"><ele>62.62</ele><time>2018-09-15T23:27:48Z</time></trkpt><trkpt lat="45.0474084634" lon="39.9860201217"><ele>62.14</ele><time>2018-09-15T23:28:08Z</time></trkpt><trkpt lat="45.0473779533" lon="39.9846838787"><ele>62.14</ele><time>2018-09-15T23:28:26Z</time></trkpt><trkpt lat="45.0473394804" lon="39.9832692649"><ele>62.14</ele><time>2018-09-15T23:28:45Z</time></trkpt><trkpt lat="45.0473309308" lon="39.9826834537"><ele>61.66</ele><time>2018-09-15T23:28:53Z</time></trkpt><trkpt lat="45.0473043602" lon="39.9814206362"><ele>62.62</ele><time>2018-09-15T23:29:11Z</time></trkpt><trkpt lat="45.0472720060" lon="39.9801398814"><ele>61.66</ele><time>2018-09-15T23:29:29Z</time></trkpt><trkpt lat="45.0472562481" lon="39.9788868707"><ele>61.18</ele><time>2018-09-15T23:29:47Z</time></trkpt><trkpt lat="45.0472392328" lon="39.9781051744"><ele>61.18</ele><time>2018-09-15T23:29:59Z</time></trkpt><trkpt lat="45.0471876841" lon="39.9769518245"><ele>61.66</ele><time>2018-09-15T23:30:17Z</time></trkpt><trkpt lat="45.0471178629" lon="39.9760325812"><ele>61.66</ele><time>2018-09-15T23:30:31Z</time></trkpt><trkpt lat="45.0470187049" lon="39.9746955838"><ele>61.66</ele><time>2018-09-15T23:30:50Z</time></trkpt><trkpt lat="45.0469579361" lon="39.9738670327"><ele>61.18</ele><time>2018-09-15T23:31:02Z</time></trkpt><trkpt lat="45.0468646456" lon="39.9728260841"><ele>61.18</ele><time>2018-09-15T23:31:17Z</time></trkpt><trkpt lat="45.0467952434" lon="39.9720464833"><ele>61.18</ele><time>2018-09-15T23:31:28Z</time></trkpt><trkpt lat="45.0467811618" lon="39.9719105288"><ele>61.66</ele><time>2018-09-15T23:31:30Z</time></trkpt><trkpt lat="45.0466904696" lon="39.9707116652"><ele>61.66</ele><time>2018-09-15T23:31:46Z</time></trkpt><trkpt lat="45.0465946645" lon="39.9695842993"><ele>61.66</ele><time>2018-09-15T23:32:02Z</time></trkpt><trkpt lat="45.0465035532" lon="39.9684146885"><ele>61.66</ele><time>2018-09-15T23:32:18Z</time></trkpt><trkpt lat="45.0464108493" lon="39.9673058465"><ele>61.66</ele><time>2018-09-15T23:32:34Z</time></trkpt><trkpt lat="45.0463179778" lon="39.9660027958"><ele>61.66</ele><time>2018-09-15T23:32:52Z</time></trkpt><trkpt lat="45.0463121943" lon="39.9651496019"><ele>60.70</ele><time>2018-09-15T23:33:04Z</time></trkpt><trkpt lat="45.0463857036" lon="39.9642157741"><ele>60.70</ele><time>2018-09-15T23:33:18Z</time></trkpt><trkpt lat="45.0464237574" lon="39.9638258480"><ele>60.70</ele><time>2018-09-15T23:33:24Z</time></trkpt><trkpt lat="45.0464272778" lon="39.9637640733"><ele>60.70</ele><time>2018-09-15T23:33:25Z</time></trkpt><trkpt lat="45.0464335643" lon="39.9636971019"><ele>60.70</ele><time>2018-09-15T23:33:26Z</time></trkpt><trkpt lat="45.0464430358" lon="39.9636345729"><ele>60.70</ele><time>2018-09-15T23:33:27Z</time></trkpt><trkpt lat="45.0464521721" lon="39.9635689426"><ele>60.70</ele><time>2018-09-15T23:33:28Z</time></trkpt><trkpt lat="45.0464569498" lon="39.9635058269"><ele>60.70</ele><time>2018-09-15T23:33:29Z</time></trkpt><trkpt lat="45.0464687683" lon="39.9633070081"><ele>60.22</ele><time>2018-09-15T23:33:32Z</time></trkpt><trkpt lat="45.0466030464" lon="39.9620792270"><ele>60.70</ele><time>2018-09-15T23:33:50Z</time></trkpt><trkpt lat="45.0466167089" lon="39.9618160352"><ele>60.70</ele><time>2018-09-15T23:33:54Z</time></trkpt><trkpt lat="45.0467099994" lon="39.9610335007"><ele>60.70</ele><time>2018-09-15T23:34:05Z</time></trkpt><trkpt lat="45.0468263403" lon="39.9599825777"><ele>61.18</ele><time>2018-09-15T23:34:20Z</time></trkpt><trkpt lat="45.0469702575" lon="39.9586233683"><ele>61.18</ele><time>2018-09-15T23:34:39Z</time></trkpt><trkpt lat="45.0470783003" lon="39.9575441983"><ele>60.70</ele><time>2018-09-15T23:34:55Z</time></trkpt><trkpt lat="45.0471095648" lon="39.9570364226"><ele>61.18</ele><time>2018-09-15T23:35:03Z</time></trkpt><trkpt lat="45.0471158512" lon="39.9569815211"><ele>61.18</ele><time>2018-09-15T23:35:04Z</time></trkpt><trkpt lat="45.0471243169" lon="39.9569265358"><ele>61.66</ele><time>2018-09-15T23:35:05Z</time></trkpt><trkpt lat="45.0471374765" lon="39.9568697065"><ele>61.66</ele><time>2018-09-15T23:35:06Z</time></trkpt><trkpt lat="45.0471511390" lon="39.9568110332"><ele>61.66</ele><time>2018-09-15T23:35:07Z</time></trkpt><trkpt lat="45.0471596047" lon="39.9567506835"><ele>61.66</ele><time>2018-09-15T23:35:08Z</time></trkpt><trkpt lat="45.0471623708" lon="39.9566897471"><ele>61.66</ele><time>2018-09-15T23:35:09Z</time></trkpt><trkpt lat="45.0471647177" lon="39.9566301517"><ele>61.66</ele><time>2018-09-15T23:35:10Z</time></trkpt><trkpt lat="45.0471707527" lon="39.9565712269"><ele>61.66</ele><time>2018-09-15T23:35:11Z</time></trkpt><trkpt lat="45.0471813139" lon="39.9565095361"><ele>61.66</ele><time>2018-09-15T23:35:12Z</time></trkpt><trkpt lat="45.0471927132" lon="39.9564442411"><ele>61.66</ele><time>2018-09-15T23:35:13Z</time></trkpt><trkpt lat="45.0472024363" lon="39.9563766830"><ele>62.14</ele><time>2018-09-15T23:35:14Z</time></trkpt><trkpt lat="45.0473163463" lon="39.9553256761"><ele>62.14</ele><time>2018-09-15T23:35:29Z</time></trkpt><trkpt lat="45.0474223774" lon="39.9542519543"><ele>61.66</ele><time>2018-09-15T23:35:45Z</time></trkpt><trkpt lat="45.0475679711" lon="39.9527805112"><ele>59.74</ele><time>2018-09-15T23:36:05Z</time></trkpt><trkpt lat="45.0477195997" lon="39.9513091519"><ele>59.74</ele><time>2018-09-15T23:36:26Z</time></trkpt><trkpt lat="45.0477346033" lon="39.9511703476"><ele>59.74</ele><time>2018-09-15T23:36:28Z</time></trkpt><trkpt lat="45.0477444939" lon="39.9511032924"><ele>59.74</ele><time>2018-09-15T23:36:29Z</time></trkpt><trkpt lat="45.0479014032" lon="39.9496708252"><ele>58.78</ele><time>2018-09-15T23:36:48Z</time></trkpt><trkpt lat="45.0479996391" lon="39.9485526793"><ele>61.18</ele><time>2018-09-15T23:37:03Z</time></trkpt><trkpt lat="45.0481572188" lon="39.9470674060"><ele>59.26</ele><time>2018-09-15T23:37:23Z</time></trkpt><trkpt lat="45.0482908264" lon="39.9458147306"><ele>58.30</ele><time>2018-09-15T23:37:40Z</time></trkpt><trkpt lat="45.0483699515" lon="39.9450690765"><ele>59.26</ele><time>2018-09-15T23:37:54Z</time></trkpt><trkpt lat="45.0484494120" lon="39.9442397710"><ele>61.66</ele><time>2018-09-15T23:38:10Z</time></trkpt><trkpt lat="45.0485452171" lon="39.9433048535"><ele>60.70</ele><time>2018-09-15T23:38:25Z</time></trkpt><trkpt lat="45.0486390106" lon="39.9423520826"><ele>60.70</ele><time>2018-09-15T23:38:39Z</time></trkpt><trkpt lat="45.0487675052" lon="39.9410729203"><ele>60.22</ele><time>2018-09-15T23:38:57Z</time></trkpt><trkpt lat="45.0488940720" lon="39.9397458974"><ele>59.26</ele><time>2018-09-15T23:39:14Z</time></trkpt><trkpt lat="45.0490343850" lon="39.9382125959"><ele>59.74</ele><time>2018-09-15T23:39:35Z</time></trkpt><trkpt lat="45.0491658133" lon="39.9369891733"><ele>59.26</ele><time>2018-09-15T23:39:53Z</time></trkpt><trkpt lat="45.0492522307" lon="39.9359005317"><ele>58.78</ele><time>2018-09-15T23:40:08Z</time></trkpt><trkpt lat="45.0493907835" lon="39.9342103209"><ele>58.78</ele><time>2018-09-15T23:40:30Z</time></trkpt><trkpt lat="45.0495225471" lon="39.9325610977"><ele>58.78</ele><time>2018-09-15T23:40:51Z</time></trkpt><trkpt lat="45.0496522989" lon="39.9309110362"><ele>58.78</ele><time>2018-09-15T23:41:12Z</time></trkpt><trkpt lat="45.0496733375" lon="39.9306118861"><ele>58.30</ele><time>2018-09-15T23:41:16Z</time></trkpt><trkpt lat="45.0497075357" lon="39.9300605245"><ele>58.78</ele><time>2018-09-15T23:41:24Z</time></trkpt><trkpt lat="45.0497164205" lon="39.9300020188"><ele>58.30</ele><time>2018-09-15T23:41:25Z</time></trkpt><trkpt lat="45.0497266464" lon="39.9299410824"><ele>58.30</ele><time>2018-09-15T23:41:26Z</time></trkpt><trkpt lat="45.0497336034" lon="39.9298836663"><ele>58.78</ele><time>2018-09-15T23:41:27Z</time></trkpt><trkpt lat="45.0497377943" lon="39.9298250768"><ele>58.78</ele><time>2018-09-15T23:41:28Z</time></trkpt><trkpt lat="45.0497391354" lon="39.9297705106"><ele>58.78</ele><time>2018-09-15T23:41:29Z</time></trkpt><trkpt lat="45.0497369561" lon="39.9297151901"><ele>58.78</ele><time>2018-09-15T23:41:30Z</time></trkpt><trkpt lat="45.0497357827" lon="39.9296638928"><ele>59.26</ele><time>2018-09-15T23:41:31Z</time></trkpt><trkpt lat="45.0497372076" lon="39.9296084046"><ele>59.26</ele><time>2018-09-15T23:41:32Z</time></trkpt><trkpt lat="45.0497491099" lon="39.9294963386"><ele>59.26</ele><time>2018-09-15T23:41:34Z</time></trkpt><trkpt lat="45.0497688912" lon="39.9293770641"><ele>58.78</ele><time>2018-09-15T23:41:36Z</time></trkpt><trkpt lat="45.0497727469" lon="39.9293105956"><ele>58.78</ele><time>2018-09-15T23:41:37Z</time></trkpt><trkpt lat="45.0498569850" lon="39.9280799646"><ele>59.26</ele><time>2018-09-15T23:41:54Z</time></trkpt><trkpt lat="45.0499674585" lon="39.9266844615"><ele>59.26</ele><time>2018-09-15T23:42:13Z</time></trkpt><trkpt lat="45.0500661973" lon="39.9255770445"><ele>59.26</ele><time>2018-09-15T23:42:28Z</time></trkpt><trkpt lat="45.0501717255" lon="39.9243141431"><ele>59.26</ele><time>2018-09-15T23:42:45Z</time></trkpt><trkpt lat="45.0502847973" lon="39.9229478091"><ele>59.74</ele><time>2018-09-15T23:43:03Z</time></trkpt><trkpt lat="45.0503889006" lon="39.9215991609"><ele>59.26</ele><time>2018-09-15T23:43:21Z</time></trkpt><trkpt lat="45.0504785869" lon="39.9205239303"><ele>60.22</ele><time>2018-09-15T23:43:38Z</time></trkpt><trkpt lat="45.0504857115" lon="39.9204555340"><ele>60.22</ele><time>2018-09-15T23:43:39Z</time></trkpt><trkpt lat="45.0505134556" lon="39.9202438071"><ele>60.22</ele><time>2018-09-15T23:43:42Z</time></trkpt><trkpt lat="45.0506124459" lon="39.9190175347"><ele>59.74</ele><time>2018-09-15T23:43:58Z</time></trkpt><trkpt lat="45.0507291220" lon="39.9176001549"><ele>59.26</ele><time>2018-09-15T23:44:17Z</time></trkpt><trkpt lat="45.0508292019" lon="39.9162240978"><ele>58.30</ele><time>2018-09-15T23:44:35Z</time></trkpt><trkpt lat="45.0509353168" lon="39.9148605298"><ele>57.82</ele><time>2018-09-15T23:44:53Z</time></trkpt><trkpt lat="45.0510747917" lon="39.9133102968"><ele>57.82</ele><time>2018-09-15T23:45:13Z</time></trkpt><trkpt lat="45.0511139352" lon="39.9127774592"><ele>57.82</ele><time>2018-09-15T23:45:20Z</time></trkpt><trkpt lat="45.0511249155" lon="39.9125608709"><ele>57.82</ele><time>2018-09-15T23:45:23Z</time></trkpt><trkpt lat="45.0512643903" lon="39.9109834805"><ele>58.78</ele><time>2018-09-15T23:45:44Z</time></trkpt><trkpt lat="45.0513514783" lon="39.9098561984"><ele>59.26</ele><time>2018-09-15T23:46:01Z</time></trkpt><trkpt lat="45.0514092296" lon="39.9091842212"><ele>59.26</ele><time>2018-09-15T23:46:11Z</time></trkpt><trkpt lat="45.0514903665" lon="39.9081179593"><ele>59.26</ele><time>2018-09-15T23:46:26Z</time></trkpt><trkpt lat="45.0515917875" lon="39.9067982286"><ele>59.26</ele><time>2018-09-15T23:46:44Z</time></trkpt><trkpt lat="45.0516699068" lon="39.9057312962"><ele>59.26</ele><time>2018-09-15T23:47:00Z</time></trkpt><trkpt lat="45.0516868383" lon="39.9056063220"><ele>58.78</ele><time>2018-09-15T23:47:02Z</time></trkpt><trkpt lat="45.0517843198" lon="39.9047099613"><ele>58.78</ele><time>2018-09-15T23:47:18Z</time></trkpt><trkpt lat="45.0518468488" lon="39.9041563366"><ele>59.26</ele><time>2018-09-15T23:47:27Z</time></trkpt><trkpt lat="45.0518600084" lon="39.9040421750"><ele>58.78</ele><time>2018-09-15T23:47:29Z</time></trkpt><trkpt lat="45.0518693123" lon="39.9039226491"><ele>58.78</ele><time>2018-09-15T23:47:31Z</time></trkpt><trkpt lat="45.0518795382" lon="39.9038655683"><ele>58.78</ele><time>2018-09-15T23:47:32Z</time></trkpt><trkpt lat="45.0519046001" lon="39.9037410133"><ele>58.78</ele><time>2018-09-15T23:47:34Z</time></trkpt><trkpt lat="45.0519133173" lon="39.9036774784"><ele>58.78</ele><time>2018-09-15T23:47:35Z</time></trkpt><trkpt lat="45.0519224536" lon="39.9036091659"><ele>58.78</ele><time>2018-09-15T23:47:36Z</time></trkpt><trkpt lat="45.0519405585" lon="39.9034868740"><ele>58.30</ele><time>2018-09-15T23:47:38Z</time></trkpt><trkpt lat="45.0520657841" lon="39.9026210234"><ele>57.34</ele><time>2018-09-15T23:47:53Z</time></trkpt><trkpt lat="45.0520810392" lon="39.9024914391"><ele>57.34</ele><time>2018-09-15T23:47:55Z</time></trkpt><trkpt lat="45.0520833023" lon="39.9024291616"><ele>57.34</ele><time>2018-09-15T23:47:56Z</time></trkpt><trkpt lat="45.0521112140" lon="39.9017024506"><ele>57.34</ele><time>2018-09-15T23:48:07Z</time></trkpt><trkpt lat="45.0521122199" lon="39.9015040509"><ele>57.82</ele><time>2018-09-15T23:48:10Z</time></trkpt><trkpt lat="45.0521154050" lon="39.9014368281"><ele>57.82</ele><time>2018-09-15T23:48:11Z</time></trkpt><trkpt lat="45.0521199312" lon="39.9003510363"><ele>57.82</ele><time>2018-09-15T23:48:27Z</time></trkpt><trkpt lat="45.0521214399" lon="39.9002840649"><ele>57.82</ele><time>2018-09-15T23:48:28Z</time></trkpt><trkpt lat="45.0521165784" lon="39.8991256859"><ele>56.86</ele><time>2018-09-15T23:48:44Z</time></trkpt><trkpt lat="45.0521340966" lon="39.8977204598"><ele>53.49</ele><time>2018-09-15T23:48:59Z</time></trkpt><trkpt lat="45.0522602443" lon="39.8964507692"><ele>52.53</ele><time>2018-09-15T23:49:14Z</time></trkpt><trkpt lat="45.0524455681" lon="39.8951763846"><ele>52.05</ele><time>2018-09-15T23:49:31Z</time></trkpt><trkpt lat="45.0526112784" lon="39.8939649481"><ele>52.05</ele><time>2018-09-15T23:49:47Z</time></trkpt><trkpt lat="45.0526234321" lon="39.8938929476"><ele>52.05</ele><time>2018-09-15T23:49:48Z</time></trkpt><trkpt lat="45.0526358373" lon="39.8938228749"><ele>52.05</ele><time>2018-09-15T23:49:49Z</time></trkpt><trkpt lat="45.0526428781" lon="39.8937518802"><ele>52.05</ele><time>2018-09-15T23:49:50Z</time></trkpt><trkpt lat="45.0527909864" lon="39.8926470615"><ele>51.09</ele><time>2018-09-15T23:50:05Z</time></trkpt><trkpt lat="45.0529573672" lon="39.8913142551"><ele>51.09</ele><time>2018-09-15T23:50:23Z</time></trkpt><trkpt lat="45.0530392583" lon="39.8905389290"><ele>51.57</ele><time>2018-09-15T23:50:35Z</time></trkpt><trkpt lat="45.0530797429" lon="39.8898608331"><ele>51.09</ele><time>2018-09-15T23:50:45Z</time></trkpt><trkpt lat="45.0530990213" lon="39.8890068848"><ele>50.13</ele><time>2018-09-15T23:50:58Z</time></trkpt><trkpt lat="45.0530996080" lon="39.8883547727"><ele>50.61</ele><time>2018-09-15T23:51:08Z</time></trkpt><trkpt lat="45.0530836824" lon="39.8871917836"><ele>50.61</ele><time>2018-09-15T23:51:25Z</time></trkpt><trkpt lat="45.0530734565" lon="39.8858413752"><ele>50.61</ele><time>2018-09-15T23:51:44Z</time></trkpt><trkpt lat="45.0530687626" lon="39.8851835635"><ele>50.61</ele><time>2018-09-15T23:51:54Z</time></trkpt><trkpt lat="45.0530748814" lon="39.8848469462"><ele>50.13</ele><time>2018-09-15T23:51:59Z</time></trkpt><trkpt lat="45.0530671701" lon="39.8847259954"><ele>50.61</ele><time>2018-09-15T23:52:01Z</time></trkpt><trkpt lat="45.0530664995" lon="39.8842365760"><ele>50.61</ele><time>2018-09-15T23:52:09Z</time></trkpt><trkpt lat="45.0530658290" lon="39.8839795031"><ele>51.09</ele><time>2018-09-15T23:52:13Z</time></trkpt><trkpt lat="45.0530709419" lon="39.8830078728"><ele>51.09</ele><time>2018-09-15T23:52:29Z</time></trkpt><trkpt lat="45.0530718639" lon="39.8829449248"><ele>51.57</ele><time>2018-09-15T23:52:30Z</time></trkpt><trkpt lat="45.0530692656" lon="39.8828818928"><ele>51.57</ele><time>2018-09-15T23:52:31Z</time></trkpt><trkpt lat="45.0530654937" lon="39.8828180227"><ele>51.57</ele><time>2018-09-15T23:52:32Z</time></trkpt><trkpt lat="45.0530654937" lon="39.8827536497"><ele>51.57</ele><time>2018-09-15T23:52:33Z</time></trkpt><trkpt lat="45.0530670024" lon="39.8826876003"><ele>51.57</ele><time>2018-09-15T23:52:34Z</time></trkpt><trkpt lat="45.0530597940" lon="39.8822889570"><ele>51.09</ele><time>2018-09-15T23:52:40Z</time></trkpt><trkpt lat="45.0530487299" lon="39.8815731425"><ele>51.57</ele><time>2018-09-15T23:52:51Z</time></trkpt><trkpt lat="45.0530431978" lon="39.8805021029"><ele>51.57</ele><time>2018-09-15T23:53:07Z</time></trkpt><trkpt lat="45.0530386716" lon="39.8799879570"><ele>51.57</ele><time>2018-09-15T23:53:15Z</time></trkpt><trkpt lat="45.0530391745" lon="39.8799257632"><ele>51.57</ele><time>2018-09-15T23:53:16Z</time></trkpt><trkpt lat="45.0530410185" lon="39.8798633181"><ele>51.09</ele><time>2018-09-15T23:53:17Z</time></trkpt><trkpt lat="45.0530779827" lon="39.8786805477"><ele>50.61</ele><time>2018-09-15T23:53:34Z</time></trkpt><trkpt lat="45.0531579461" lon="39.8775051534"><ele>51.09</ele><time>2018-09-15T23:53:51Z</time></trkpt><trkpt lat="45.0532333832" lon="39.8764422443"><ele>51.09</ele><time>2018-09-15T23:54:06Z</time></trkpt><trkpt lat="45.0533070602" lon="39.8753872979"><ele>51.09</ele><time>2018-09-15T23:54:21Z</time></trkpt><trkpt lat="45.0533719361" lon="39.8742725886"><ele>51.09</ele><time>2018-09-15T23:54:37Z</time></trkpt><trkpt lat="45.0533723552" lon="39.8742029350"><ele>51.09</ele><time>2018-09-15T23:54:38Z</time></trkpt><trkpt lat="45.0534040388" lon="39.8736881185"><ele>51.09</ele><time>2018-09-15T23:54:46Z</time></trkpt><trkpt lat="45.0534126721" lon="39.8736283556"><ele>51.09</ele><time>2018-09-15T23:54:47Z</time></trkpt><trkpt lat="45.0534161087" lon="39.8735699337"><ele>51.09</ele><time>2018-09-15T23:54:48Z</time></trkpt><trkpt lat="45.0534663163" lon="39.8727043346"><ele>50.61</ele><time>2018-09-15T23:55:04Z</time></trkpt><trkpt lat="45.0535044540" lon="39.8720100615"><ele>50.61</ele><time>2018-09-15T23:55:16Z</time></trkpt><trkpt lat="45.0535401609" lon="39.8716796469"><ele>50.61</ele><time>2018-09-15T23:55:21Z</time></trkpt><trkpt lat="45.0536161847" lon="39.8704260495"><ele>51.09</ele><time>2018-09-15T23:55:39Z</time></trkpt><trkpt lat="45.0536588486" lon="39.8697255738"><ele>51.09</ele><time>2018-09-15T23:55:51Z</time></trkpt><trkpt lat="45.0536599383" lon="39.8696646374"><ele>51.09</ele><time>2018-09-15T23:55:52Z</time></trkpt><trkpt lat="45.0536651351" lon="39.8696019407"><ele>51.09</ele><time>2018-09-15T23:55:53Z</time></trkpt><trkpt lat="45.0537015125" lon="39.8689334840"><ele>51.57</ele><time>2018-09-15T23:56:03Z</time></trkpt><trkpt lat="45.0537818111" lon="39.8677497916"><ele>51.57</ele><time>2018-09-15T23:56:20Z</time></trkpt><trkpt lat="45.0538817234" lon="39.8663501814"><ele>51.57</ele><time>2018-09-15T23:56:40Z</time></trkpt><trkpt lat="45.0538859144" lon="39.8662773427"><ele>51.57</ele><time>2018-09-15T23:56:41Z</time></trkpt><trkpt lat="45.0539602619" lon="39.8650949914"><ele>51.57</ele><time>2018-09-15T23:56:58Z</time></trkpt><trkpt lat="45.0539620221" lon="39.8649766389"><ele>51.57</ele><time>2018-09-15T23:57:00Z</time></trkpt><trkpt lat="45.0539823901" lon="39.8647228349"><ele>51.57</ele><time>2018-09-15T23:57:04Z</time></trkpt><trkpt lat="45.0539942924" lon="39.8646028899"><ele>51.57</ele><time>2018-09-15T23:57:06Z</time></trkpt><trkpt lat="45.0540232938" lon="39.8642511014"><ele>51.57</ele><time>2018-09-15T23:57:17Z</time></trkpt><trkpt lat="45.0540301669" lon="39.8642195016"><ele>51.09</ele><time>2018-09-15T23:57:31Z</time></trkpt><trkpt lat="45.0540376268" lon="39.8642272968"><ele>51.09</ele><time>2018-09-15T23:58:07Z</time></trkpt><trkpt lat="45.0540302508" lon="39.8642303143"><ele>52.53</ele><time>2018-09-15T23:58:47Z</time></trkpt><trkpt lat="45.0540275685" lon="39.8642228544"><ele>51.57</ele><time>2018-09-15T23:59:19Z</time></trkpt><trkpt lat="45.0540347770" lon="39.8642125446"><ele>51.57</ele><time>2018-09-15T23:59:59Z</time></trkpt><trkpt lat="45.0540232100" lon="39.8641627561"><ele>52.05</ele><time>2018-09-16T00:00:29Z</time></trkpt><trkpt lat="45.0540455896" lon="39.8638687190"><ele>52.05</ele><time>2018-09-16T00:00:41Z</time></trkpt><trkpt lat="45.0540891755" lon="39.8631482106"><ele>51.57</ele><time>2018-09-16T00:00:56Z</time></trkpt><trkpt lat="45.0541205239" lon="39.8626494873"><ele>51.57</ele><time>2018-09-16T00:01:04Z</time></trkpt><trkpt lat="45.0541813765" lon="39.8614850733"><ele>51.57</ele><time>2018-09-16T00:01:22Z</time></trkpt><trkpt lat="45.0541880820" lon="39.8614359554"><ele>51.57</ele><time>2018-09-16T00:01:23Z</time></trkpt><trkpt lat="45.0541946199" lon="39.8613804672"><ele>51.57</ele><time>2018-09-16T00:01:24Z</time></trkpt><trkpt lat="45.0542721525" lon="39.8602456413"><ele>51.57</ele><time>2018-09-16T00:01:41Z</time></trkpt><trkpt lat="45.0543554686" lon="39.8590725940"><ele>51.57</ele><time>2018-09-16T00:01:58Z</time></trkpt><trkpt lat="45.0544371922" lon="39.8576775938"><ele>51.09</ele><time>2018-09-16T00:02:18Z</time></trkpt><trkpt lat="45.0545153953" lon="39.8564451188"><ele>51.57</ele><time>2018-09-16T00:02:37Z</time></trkpt><trkpt lat="45.0545744877" lon="39.8554224428"><ele>51.57</ele><time>2018-09-16T00:02:53Z</time></trkpt><trkpt lat="45.0546205044" lon="39.8545246571"><ele>51.57</ele><time>2018-09-16T00:03:07Z</time></trkpt><trkpt lat="45.0546365138" lon="39.8542538378"><ele>51.09</ele><time>2018-09-16T00:03:11Z</time></trkpt><trkpt lat="45.0547114480" lon="39.8530476820"><ele>51.09</ele><time>2018-09-16T00:03:28Z</time></trkpt><trkpt lat="45.0547675230" lon="39.8521883693"><ele>51.09</ele><time>2018-09-16T00:03:40Z</time></trkpt><trkpt lat="45.0547769945" lon="39.8521258403"><ele>51.09</ele><time>2018-09-16T00:03:41Z</time></trkpt><trkpt lat="45.0547840353" lon="39.8520597909"><ele>51.09</ele><time>2018-09-16T00:03:42Z</time></trkpt><trkpt lat="45.0548525993" lon="39.8509232886"><ele>50.61</ele><time>2018-09-16T00:03:59Z</time></trkpt><trkpt lat="45.0548754819" lon="39.8505880125"><ele>50.13</ele><time>2018-09-16T00:04:04Z</time></trkpt><trkpt lat="45.0549038127" lon="39.8502004333"><ele>49.65</ele><time>2018-09-16T00:04:10Z</time></trkpt><trkpt lat="45.0549625698" lon="39.8491807748"><ele>50.13</ele><time>2018-09-16T00:04:26Z</time></trkpt><trkpt lat="45.0550395995" lon="39.8479451146"><ele>50.13</ele><time>2018-09-16T00:04:45Z</time></trkpt><trkpt lat="45.0550446287" lon="39.8478276003"><ele>50.61</ele><time>2018-09-16T00:04:47Z</time></trkpt><trkpt lat="45.0551271066" lon="39.8466050997"><ele>51.09</ele><time>2018-09-16T00:05:05Z</time></trkpt><trkpt lat="45.0552035496" lon="39.8454144504"><ele>51.09</ele><time>2018-09-16T00:05:22Z</time></trkpt><trkpt lat="45.0552414358" lon="39.8446139786"><ele>50.61</ele><time>2018-09-16T00:05:33Z</time></trkpt><trkpt lat="45.0552949123" lon="39.8438109085"><ele>50.61</ele><time>2018-09-16T00:05:44Z</time></trkpt><trkpt lat="45.0553717744" lon="39.8425426427"><ele>50.61</ele><time>2018-09-16T00:06:01Z</time></trkpt><trkpt lat="45.0554562639" lon="39.8412261810"><ele>51.09</ele><time>2018-09-16T00:06:19Z</time></trkpt><trkpt lat="45.0555382390" lon="39.8398167640"><ele>51.09</ele><time>2018-09-16T00:06:38Z</time></trkpt><trkpt lat="45.0556129217" lon="39.8386773281"><ele>50.13</ele><time>2018-09-16T00:06:54Z</time></trkpt><trkpt lat="45.0556636322" lon="39.8379740026"><ele>49.65</ele><time>2018-09-16T00:07:04Z</time></trkpt><trkpt lat="45.0556648057" lon="39.8378970567"><ele>49.65</ele><time>2018-09-16T00:07:05Z</time></trkpt><trkpt lat="45.0557132531" lon="39.8369328864"><ele>49.16</ele><time>2018-09-16T00:07:20Z</time></trkpt><trkpt lat="45.0557179470" lon="39.8368689325"><ele>49.16</ele><time>2018-09-16T00:07:21Z</time></trkpt><trkpt lat="45.0557247363" lon="39.8367416952"><ele>49.16</ele><time>2018-09-16T00:07:23Z</time></trkpt><trkpt lat="45.0557628740" lon="39.8360265512"><ele>49.65</ele><time>2018-09-16T00:07:34Z</time></trkpt><trkpt lat="45.0557684898" lon="39.8359611724"><ele>49.65</ele><time>2018-09-16T00:07:35Z</time></trkpt><trkpt lat="45.0557738543" lon="39.8358957935"><ele>49.65</ele><time>2018-09-16T00:07:36Z</time></trkpt><trkpt lat="45.0557933841" lon="39.8355659656"><ele>50.13</ele><time>2018-09-16T00:07:41Z</time></trkpt><trkpt lat="45.0558725093" lon="39.8344758153"><ele>49.16</ele><time>2018-09-16T00:07:57Z</time></trkpt><trkpt lat="45.0559271593" lon="39.8335406464"><ele>48.20</ele><time>2018-09-16T00:08:11Z</time></trkpt><trkpt lat="45.0560030155" lon="39.8323023040"><ele>47.72</ele><time>2018-09-16T00:08:29Z</time></trkpt><trkpt lat="45.0560589228" lon="39.8311697412"><ele>48.20</ele><time>2018-09-16T00:08:46Z</time></trkpt><trkpt lat="45.0561343599" lon="39.8301572073"><ele>49.16</ele><time>2018-09-16T00:09:01Z</time></trkpt><trkpt lat="45.0561994035" lon="39.8297032434"><ele>49.65</ele><time>2018-09-16T00:09:08Z</time></trkpt><trkpt lat="45.0562135689" lon="39.8296416365"><ele>49.65</ele><time>2018-09-16T00:09:09Z</time></trkpt><trkpt lat="45.0564977992" lon="39.8286197148"><ele>49.65</ele><time>2018-09-16T00:09:26Z</time></trkpt><trkpt lat="45.0568353385" lon="39.8277541995"><ele>48.68</ele><time>2018-09-16T00:09:41Z</time></trkpt><trkpt lat="45.0568568800" lon="39.8276939336"><ele>48.68</ele><time>2018-09-16T00:09:42Z</time></trkpt><trkpt lat="45.0568770804" lon="39.8276334163"><ele>48.68</ele><time>2018-09-16T00:09:43Z</time></trkpt><trkpt lat="45.0570040662" lon="39.8272967152"><ele>49.16</ele><time>2018-09-16T00:09:49Z</time></trkpt><trkpt lat="45.0570248533" lon="39.8272506986"><ele>49.16</ele><time>2018-09-16T00:09:50Z</time></trkpt><trkpt lat="45.0570450537" lon="39.8272050172"><ele>49.16</ele><time>2018-09-16T00:09:51Z</time></trkpt><trkpt lat="45.0571477320" lon="39.8269902728"><ele>49.65</ele><time>2018-09-16T00:09:56Z</time></trkpt><trkpt lat="45.0571737997" lon="39.8269448429"><ele>49.65</ele><time>2018-09-16T00:09:57Z</time></trkpt><trkpt lat="45.0571975205" lon="39.8268943839"><ele>49.16</ele><time>2018-09-16T00:09:58Z</time></trkpt><trkpt lat="45.0572763942" lon="39.8266713414"><ele>49.16</ele><time>2018-09-16T00:10:02Z</time></trkpt><trkpt lat="45.0572965108" lon="39.8266178649"><ele>49.16</ele><time>2018-09-16T00:10:03Z</time></trkpt><trkpt lat="45.0573986862" lon="39.8264166154"><ele>49.65</ele><time>2018-09-16T00:10:07Z</time></trkpt><trkpt lat="45.0578065496" lon="39.8254443146"><ele>49.16</ele><time>2018-09-16T00:10:23Z</time></trkpt><trkpt lat="45.0582258124" lon="39.8244584352"><ele>48.20</ele><time>2018-09-16T00:10:39Z</time></trkpt><trkpt lat="45.0586396270" lon="39.8234792612"><ele>50.13</ele><time>2018-09-16T00:10:55Z</time></trkpt><trkpt lat="45.0589711312" lon="39.8226928711"><ele>50.61</ele><time>2018-09-16T00:11:09Z</time></trkpt><trkpt lat="45.0590490829" lon="39.8225149233"><ele>50.61</ele><time>2018-09-16T00:11:12Z</time></trkpt><trkpt lat="45.0590757374" lon="39.8224594351"><ele>50.61</ele><time>2018-09-16T00:11:13Z</time></trkpt><trkpt lat="45.0594620593" lon="39.8215018027"><ele>52.05</ele><time>2018-09-16T00:11:29Z</time></trkpt><trkpt lat="45.0599316973" lon="39.8204471916"><ele>52.53</ele><time>2018-09-16T00:11:47Z</time></trkpt><trkpt lat="45.0604254752" lon="39.8192645051"><ele>53.01</ele><time>2018-09-16T00:12:06Z</time></trkpt><trkpt lat="45.0607794430" lon="39.8182035238"><ele>53.49</ele><time>2018-09-16T00:12:22Z</time></trkpt><trkpt lat="45.0610081851" lon="39.8167332541"><ele>53.49</ele><time>2018-09-16T00:12:42Z</time></trkpt><trkpt lat="45.0610602368" lon="39.8163770232"><ele>53.01</ele><time>2018-09-16T00:12:47Z</time></trkpt><trkpt lat="45.0611369312" lon="39.8156124260"><ele>53.49</ele><time>2018-09-16T00:12:58Z</time></trkpt><trkpt lat="45.0612457283" lon="39.8144112993"><ele>53.49</ele><time>2018-09-16T00:13:15Z</time></trkpt><trkpt lat="45.0612524338" lon="39.8143442441"><ele>53.01</ele><time>2018-09-16T00:13:16Z</time></trkpt><trkpt lat="45.0613277871" lon="39.8134221509"><ele>53.49</ele><time>2018-09-16T00:13:30Z</time></trkpt><trkpt lat="45.0613388512" lon="39.8133530002"><ele>53.97</ele><time>2018-09-16T00:13:31Z</time></trkpt><trkpt lat="45.0613449700" lon="39.8132821731"><ele>53.97</ele><time>2018-09-16T00:13:32Z</time></trkpt><trkpt lat="45.0614103489" lon="39.8122925218"><ele>53.49</ele><time>2018-09-16T00:13:46Z</time></trkpt><trkpt lat="45.0615221635" lon="39.8110557720"><ele>53.97</ele><time>2018-09-16T00:14:03Z</time></trkpt><trkpt lat="45.0616303738" lon="39.8098709062"><ele>53.97</ele><time>2018-09-16T00:14:19Z</time></trkpt><trkpt lat="45.0616622251" lon="39.8094492964"><ele>53.97</ele><time>2018-09-16T00:14:25Z</time></trkpt><trkpt lat="45.0617644005" lon="39.8082807753"><ele>53.97</ele><time>2018-09-16T00:14:42Z</time></trkpt><trkpt lat="45.0618832558" lon="39.8069932312"><ele>53.97</ele><time>2018-09-16T00:15:00Z</time></trkpt><trkpt lat="45.0619359780" lon="39.8063747305"><ele>53.97</ele><time>2018-09-16T00:15:09Z</time></trkpt><trkpt lat="45.0620260835" lon="39.8052612785"><ele>53.97</ele><time>2018-09-16T00:15:25Z</time></trkpt><trkpt lat="45.0621376466" lon="39.8039845470"><ele>53.97</ele><time>2018-09-16T00:15:43Z</time></trkpt><trkpt lat="45.0621762872" lon="39.8035704810"><ele>53.97</ele><time>2018-09-16T00:15:49Z</time></trkpt><trkpt lat="45.0622868445" lon="39.8022587132"><ele>53.49</ele><time>2018-09-16T00:16:07Z</time></trkpt><trkpt lat="45.0623254012" lon="39.8018433899"><ele>53.97</ele><time>2018-09-16T00:16:13Z</time></trkpt><trkpt lat="45.0624310132" lon="39.8004286923"><ele>53.01</ele><time>2018-09-16T00:16:32Z</time></trkpt><trkpt lat="45.0625447556" lon="39.7991368733"><ele>53.97</ele><time>2018-09-16T00:16:50Z</time></trkpt><trkpt lat="45.0625673030" lon="39.7988605220"><ele>53.97</ele><time>2018-09-16T00:16:54Z</time></trkpt><trkpt lat="45.0626498647" lon="39.7978164721"><ele>54.45</ele><time>2018-09-16T00:17:09Z</time></trkpt><trkpt lat="45.0626777764" lon="39.7973883245"><ele>54.45</ele><time>2018-09-16T00:17:15Z</time></trkpt><trkpt lat="45.0627749227" lon="39.7960700188"><ele>54.45</ele><time>2018-09-16T00:17:33Z</time></trkpt><trkpt lat="45.0629314128" lon="39.7944001760"><ele>53.97</ele><time>2018-09-16T00:17:55Z</time></trkpt><trkpt lat="45.0631684531" lon="39.7930077743"><ele>53.01</ele><time>2018-09-16T00:18:14Z</time></trkpt><trkpt lat="45.0632460695" lon="39.7925710771"><ele>52.53</ele><time>2018-09-16T00:18:20Z</time></trkpt><trkpt lat="45.0633645058" lon="39.7918533348"><ele>52.53</ele><time>2018-09-16T00:18:31Z</time></trkpt><trkpt lat="45.0633800123" lon="39.7917908058"><ele>52.53</ele><time>2018-09-16T00:18:32Z</time></trkpt><trkpt lat="45.0634683575" lon="39.7913322318"><ele>52.53</ele><time>2018-09-16T00:18:39Z</time></trkpt><trkpt lat="45.0636301283" lon="39.7904455103"><ele>53.01</ele><time>2018-09-16T00:18:53Z</time></trkpt><trkpt lat="45.0638948288" lon="39.7890130430"><ele>52.05</ele><time>2018-09-16T00:19:13Z</time></trkpt><trkpt lat="45.0641701743" lon="39.7877398320"><ele>52.05</ele><time>2018-09-16T00:19:31Z</time></trkpt><trkpt lat="45.0642534066" lon="39.7873087507"><ele>52.53</ele><time>2018-09-16T00:19:37Z</time></trkpt><trkpt lat="45.0643885229" lon="39.7867364343"><ele>52.53</ele><time>2018-09-16T00:19:45Z</time></trkpt><trkpt lat="45.0646488648" lon="39.7856805660"><ele>52.53</ele><time>2018-09-16T00:20:00Z</time></trkpt><trkpt lat="45.0648120604" lon="39.7850122768"><ele>52.53</ele><time>2018-09-16T00:20:10Z</time></trkpt><trkpt lat="45.0648310874" lon="39.7849478200"><ele>53.01</ele><time>2018-09-16T00:20:11Z</time></trkpt><trkpt lat="45.0650335103" lon="39.7841636930"><ele>53.01</ele><time>2018-09-16T00:20:22Z</time></trkpt><trkpt lat="45.0653412938" lon="39.7829079162"><ele>53.01</ele><time>2018-09-16T00:20:40Z</time></trkpt><trkpt lat="45.0656833593" lon="39.7815860901"><ele>52.53</ele><time>2018-09-16T00:20:59Z</time></trkpt><trkpt lat="45.0657840259" lon="39.7811943199"><ele>53.01</ele><time>2018-09-16T00:21:05Z</time></trkpt><trkpt lat="45.0660393387" lon="39.7801763378"><ele>52.53</ele><time>2018-09-16T00:21:20Z</time></trkpt><trkpt lat="45.0664284267" lon="39.7786132805"><ele>52.05</ele><time>2018-09-16T00:21:42Z</time></trkpt><trkpt lat="45.0666582584" lon="39.7777160816"><ele>51.57</ele><time>2018-09-16T00:21:55Z</time></trkpt><trkpt lat="45.0666758604" lon="39.7776543070"><ele>52.05</ele><time>2018-09-16T00:21:56Z</time></trkpt><trkpt lat="45.0669662934" lon="39.7764929105"><ele>51.57</ele><time>2018-09-16T00:22:13Z</time></trkpt><trkpt lat="45.0672336761" lon="39.7754637804"><ele>51.09</ele><time>2018-09-16T00:22:28Z</time></trkpt><trkpt lat="45.0674446486" lon="39.7747608740"><ele>50.13</ele><time>2018-09-16T00:22:39Z</time></trkpt><trkpt lat="45.0676278770" lon="39.7742591333"><ele>50.61</ele><time>2018-09-16T00:22:48Z</time></trkpt><trkpt lat="45.0676550344" lon="39.7742042318"><ele>50.61</ele><time>2018-09-16T00:22:49Z</time></trkpt><trkpt lat="45.0677146297" lon="39.7740959376"><ele>50.61</ele><time>2018-09-16T00:22:51Z</time></trkpt><trkpt lat="45.0677399430" lon="39.7740383539"><ele>50.61</ele><time>2018-09-16T00:22:52Z</time></trkpt><trkpt lat="45.0677911565" lon="39.7739204206"><ele>50.61</ele><time>2018-09-16T00:22:54Z</time></trkpt><trkpt lat="45.0678215828" lon="39.7738682013"><ele>50.61</ele><time>2018-09-16T00:22:55Z</time></trkpt><trkpt lat="45.0678530149" lon="39.7738143057"><ele>51.09</ele><time>2018-09-16T00:22:56Z</time></trkpt><trkpt lat="45.0683900435" lon="39.7728966549"><ele>51.57</ele><time>2018-09-16T00:23:13Z</time></trkpt><trkpt lat="45.0684835017" lon="39.7727474570"><ele>51.57</ele><time>2018-09-16T00:23:16Z</time></trkpt><trkpt lat="45.0685140118" lon="39.7727040388"><ele>51.57</ele><time>2018-09-16T00:23:17Z</time></trkpt><trkpt lat="45.0685415044" lon="39.7726565134"><ele>51.57</ele><time>2018-09-16T00:23:18Z</time></trkpt><trkpt lat="45.0685690809" lon="39.7726056352"><ele>51.57</ele><time>2018-09-16T00:23:19Z</time></trkpt><trkpt lat="45.0685992558" lon="39.7725546733"><ele>51.57</ele><time>2018-09-16T00:23:20Z</time></trkpt><trkpt lat="45.0687847473" lon="39.7722473089"><ele>51.57</ele><time>2018-09-16T00:23:26Z</time></trkpt><trkpt lat="45.0688534789" lon="39.7721509170"><ele>51.09</ele><time>2018-09-16T00:23:28Z</time></trkpt><trkpt lat="45.0691077858" lon="39.7717819456"><ele>51.09</ele><time>2018-09-16T00:23:40Z</time></trkpt><trkpt lat="45.0690977275" lon="39.7717902437"><ele>50.13</ele><time>2018-09-16T00:24:05Z</time></trkpt><trkpt lat="45.0690983981" lon="39.7717909142"><ele>49.16</ele><time>2018-09-16T00:24:52Z</time></trkpt><trkpt lat="45.0691044331" lon="39.7717991285"><ele>49.65</ele><time>2018-09-16T00:25:30Z</time></trkpt><trkpt lat="45.0691232923" lon="39.7717476636"><ele>50.61</ele><time>2018-09-16T00:26:02Z</time></trkpt><trkpt lat="45.0691413973" lon="39.7717081010"><ele>50.61</ele><time>2018-09-16T00:26:07Z</time></trkpt><trkpt lat="45.0691546407" lon="39.7716943547"><ele>50.61</ele><time>2018-09-16T00:26:08Z</time></trkpt><trkpt lat="45.0691679679" lon="39.7716780938"><ele>50.61</ele><time>2018-09-16T00:26:09Z</time></trkpt><trkpt lat="45.0691844802" lon="39.7716549598"><ele>50.61</ele><time>2018-09-16T00:26:10Z</time></trkpt><trkpt lat="45.0692011602" lon="39.7716278862"><ele>50.61</ele><time>2018-09-16T00:26:11Z</time></trkpt><trkpt lat="45.0692192651" lon="39.7715978790"><ele>50.61</ele><time>2018-09-16T00:26:12Z</time></trkpt><trkpt lat="45.0692385435" lon="39.7715651058"><ele>50.61</ele><time>2018-09-16T00:26:13Z</time></trkpt><trkpt lat="45.0695114583" lon="39.7711308394"><ele>49.65</ele><time>2018-09-16T00:26:26Z</time></trkpt><trkpt lat="45.0697626639" lon="39.7707303520"><ele>49.16</ele><time>2018-09-16T00:26:36Z</time></trkpt><trkpt lat="45.0700920727" lon="39.7702129371"><ele>50.13</ele><time>2018-09-16T00:26:49Z</time></trkpt><trkpt lat="45.0704612955" lon="39.7696152236"><ele>51.09</ele><time>2018-09-16T00:27:03Z</time></trkpt><trkpt lat="45.0706695020" lon="39.7692914307"><ele>51.09</ele><time>2018-09-16T00:27:10Z</time></trkpt><trkpt lat="45.0706976652" lon="39.7692393791"><ele>50.61</ele><time>2018-09-16T00:27:11Z</time></trkpt><trkpt lat="45.0708858389" lon="39.7689490300"><ele>50.61</ele><time>2018-09-16T00:27:17Z</time></trkpt><trkpt lat="45.0714024156" lon="39.7681575269"><ele>49.65</ele><time>2018-09-16T00:27:33Z</time></trkpt><trkpt lat="45.0720161386" lon="39.7671803646"><ele>49.65</ele><time>2018-09-16T00:27:52Z</time></trkpt><trkpt lat="45.0727278460" lon="39.7660557646"><ele>49.65</ele><time>2018-09-16T00:28:13Z</time></trkpt><trkpt lat="45.0733464304" lon="39.7650671192"><ele>49.16</ele><time>2018-09-16T00:28:32Z</time></trkpt><trkpt lat="45.0736749172" lon="39.7645455133"><ele>49.65</ele><time>2018-09-16T00:28:43Z</time></trkpt><trkpt lat="45.0737010688" lon="39.7644974850"><ele>49.65</ele><time>2018-09-16T00:28:44Z</time></trkpt><trkpt lat="45.0742498320" lon="39.7636182234"><ele>49.16</ele><time>2018-09-16T00:29:02Z</time></trkpt><trkpt lat="45.0747484714" lon="39.7628050111"><ele>49.16</ele><time>2018-09-16T00:29:18Z</time></trkpt><trkpt lat="45.0750732701" lon="39.7623032704"><ele>48.68</ele><time>2018-09-16T00:29:28Z</time></trkpt><trkpt lat="45.0755683891" lon="39.7615167126"><ele>47.72</ele><time>2018-09-16T00:29:44Z</time></trkpt><trkpt lat="45.0760555454" lon="39.7607341781"><ele>47.24</ele><time>2018-09-16T00:30:00Z</time></trkpt><trkpt lat="45.0765244290" lon="39.7600014322"><ele>47.24</ele><time>2018-09-16T00:30:15Z</time></trkpt><trkpt lat="45.0770693365" lon="39.7591650859"><ele>46.76</ele><time>2018-09-16T00:30:31Z</time></trkpt><trkpt lat="45.0775674731" lon="39.7583515383"><ele>47.72</ele><time>2018-09-16T00:30:47Z</time></trkpt><trkpt lat="45.0782112032" lon="39.7573237494"><ele>48.20</ele><time>2018-09-16T00:31:06Z</time></trkpt><trkpt lat="45.0788167957" lon="39.7563672904"><ele>48.68</ele><time>2018-09-16T00:31:24Z</time></trkpt><trkpt lat="45.0793645531" lon="39.7555053793"><ele>48.20</ele><time>2018-09-16T00:31:40Z</time></trkpt><trkpt lat="45.0798727479" lon="39.7546940111"><ele>48.68</ele><time>2018-09-16T00:31:56Z</time></trkpt><trkpt lat="45.0799791142" lon="39.7545162309"><ele>48.68</ele><time>2018-09-16T00:32:00Z</time></trkpt><trkpt lat="45.0805018935" lon="39.7536844946"><ele>49.65</ele><time>2018-09-16T00:32:18Z</time></trkpt><trkpt lat="45.0808799174" lon="39.7530719452"><ele>49.65</ele><time>2018-09-16T00:32:30Z</time></trkpt><trkpt lat="45.0810962543" lon="39.7527301311"><ele>49.65</ele><time>2018-09-16T00:32:37Z</time></trkpt><trkpt lat="45.0816252362" lon="39.7518996522"><ele>50.13</ele><time>2018-09-16T00:32:54Z</time></trkpt><trkpt lat="45.0821475126" lon="39.7510860208"><ele>50.13</ele><time>2018-09-16T00:33:10Z</time></trkpt><trkpt lat="45.0826345850" lon="39.7503186576"><ele>49.65</ele><time>2018-09-16T00:33:25Z</time></trkpt><trkpt lat="45.0832283590" lon="39.7493925411"><ele>50.13</ele><time>2018-09-16T00:33:43Z</time></trkpt><trkpt lat="45.0839114841" lon="39.7483213339"><ele>49.65</ele><time>2018-09-16T00:34:03Z</time></trkpt><trkpt lat="45.0844561402" lon="39.7474500351"><ele>49.65</ele><time>2018-09-16T00:34:20Z</time></trkpt><trkpt lat="45.0845391210" lon="39.7473168466"><ele>49.65</ele><time>2018-09-16T00:34:23Z</time></trkpt><trkpt lat="45.0845637638" lon="39.7472730093"><ele>49.65</ele><time>2018-09-16T00:34:24Z</time></trkpt><trkpt lat="45.0848360080" lon="39.7468113340"><ele>49.65</ele><time>2018-09-16T00:34:34Z</time></trkpt><trkpt lat="45.0848629978" lon="39.7467679996"><ele>49.65</ele><time>2018-09-16T00:34:35Z</time></trkpt><trkpt lat="45.0849165581" lon="39.7466800734"><ele>49.65</ele><time>2018-09-16T00:34:37Z</time></trkpt><trkpt lat="45.0850890577" lon="39.7463619802"><ele>50.13</ele><time>2018-09-16T00:34:44Z</time></trkpt><trkpt lat="45.0851163827" lon="39.7463226691"><ele>50.13</ele><time>2018-09-16T00:34:45Z</time></trkpt><trkpt lat="45.0851696078" lon="39.7462328151"><ele>50.13</ele><time>2018-09-16T00:34:47Z</time></trkpt><trkpt lat="45.0854877010" lon="39.7456279770"><ele>50.61</ele><time>2018-09-16T00:35:00Z</time></trkpt><trkpt lat="45.0857280940" lon="39.7452795412"><ele>50.13</ele><time>2018-09-16T00:35:12Z</time></trkpt><trkpt lat="45.0857037026" lon="39.7452794574"><ele>50.13</ele><time>2018-09-16T00:35:28Z</time></trkpt><trkpt lat="45.0857043732" lon="39.7452600952"><ele>50.13</ele><time>2018-09-16T00:36:01Z</time></trkpt><trkpt lat="45.0857016910" lon="39.7452693991"><ele>49.65</ele><time>2018-09-16T00:36:36Z</time></trkpt><trkpt lat="45.0857156049" lon="39.7452700697"><ele>49.16</ele><time>2018-09-16T00:37:14Z</time></trkpt><trkpt lat="45.0857084803" lon="39.7452622745"><ele>49.65</ele><time>2018-09-16T00:37:46Z</time></trkpt><trkpt lat="45.0857057143" lon="39.7452642024"><ele>50.13</ele><time>2018-09-16T00:38:25Z</time></trkpt><trkpt lat="45.0857204664" lon="39.7452069540"><ele>50.61</ele><time>2018-09-16T00:38:38Z</time></trkpt><trkpt lat="45.0857228972" lon="39.7451873403"><ele>50.13</ele><time>2018-09-16T00:38:41Z</time></trkpt><trkpt lat="45.0857250765" lon="39.7451701574"><ele>50.13</ele><time>2018-09-16T00:38:42Z</time></trkpt><trkpt lat="45.0857295189" lon="39.7451549862"><ele>50.13</ele><time>2018-09-16T00:38:43Z</time></trkpt><trkpt lat="45.0857391581" lon="39.7451401502"><ele>50.13</ele><time>2018-09-16T00:38:44Z</time></trkpt><trkpt lat="45.0857508089" lon="39.7451187763"><ele>50.13</ele><time>2018-09-16T00:38:45Z</time></trkpt><trkpt lat="45.0857618731" lon="39.7450955585"><ele>50.13</ele><time>2018-09-16T00:38:46Z</time></trkpt><trkpt lat="45.0860135816" lon="39.7445728630"><ele>50.61</ele><time>2018-09-16T00:38:59Z</time></trkpt><trkpt lat="45.0865019113" lon="39.7435919289"><ele>48.68</ele><time>2018-09-16T00:39:15Z</time></trkpt><trkpt lat="45.0870312285" lon="39.7425301094"><ele>47.72</ele><time>2018-09-16T00:39:31Z</time></trkpt><trkpt lat="45.0876014493" lon="39.7413749155"><ele>47.24</ele><time>2018-09-16T00:39:49Z</time></trkpt><trkpt lat="45.0880623702" lon="39.7404340468"><ele>48.20</ele><time>2018-09-16T00:40:05Z</time></trkpt><trkpt lat="45.0885574892" lon="39.7394337505"><ele>49.16</ele><time>2018-09-16T00:40:22Z</time></trkpt><trkpt lat="45.0890530273" lon="39.7384312749"><ele>48.68</ele><time>2018-09-16T00:40:39Z</time></trkpt><trkpt lat="45.0890817773" lon="39.7383739427"><ele>48.68</ele><time>2018-09-16T00:40:40Z</time></trkpt><trkpt lat="45.0895525888" lon="39.7374613211"><ele>48.68</ele><time>2018-09-16T00:40:55Z</time></trkpt><trkpt lat="45.0899579376" lon="39.7366178501"><ele>49.16</ele><time>2018-09-16T00:41:10Z</time></trkpt><trkpt lat="45.0899845921" lon="39.7365701571"><ele>49.16</ele><time>2018-09-16T00:41:11Z</time></trkpt><trkpt lat="45.0900099054" lon="39.7365254816"><ele>49.16</ele><time>2018-09-16T00:41:12Z</time></trkpt><trkpt lat="45.0900326204" lon="39.7364789620"><ele>49.65</ele><time>2018-09-16T00:41:13Z</time></trkpt><trkpt lat="45.0900529884" lon="39.7364363819"><ele>49.65</ele><time>2018-09-16T00:41:14Z</time></trkpt><trkpt lat="45.0900743622" lon="39.7363993339"><ele>49.65</ele><time>2018-09-16T00:41:15Z</time></trkpt><trkpt lat="45.0900935568" lon="39.7363571730"><ele>49.65</ele><time>2018-09-16T00:41:16Z</time></trkpt><trkpt lat="45.0901097339" lon="39.7363192867"><ele>49.65</ele><time>2018-09-16T00:41:17Z</time></trkpt><trkpt lat="45.0901288446" lon="39.7362762038"><ele>49.65</ele><time>2018-09-16T00:41:18Z</time></trkpt><trkpt lat="45.0902427547" lon="39.7360767145"><ele>49.65</ele><time>2018-09-16T00:41:23Z</time></trkpt><trkpt lat="45.0903631188" lon="39.7358348127"><ele>49.16</ele><time>2018-09-16T00:41:28Z</time></trkpt><trkpt lat="45.0904452614" lon="39.7356960922"><ele>48.68</ele><time>2018-09-16T00:41:31Z</time></trkpt><trkpt lat="45.0905498676" lon="39.7354829405"><ele>48.20</ele><time>2018-09-16T00:41:35Z</time></trkpt><trkpt lat="45.0905762706" lon="39.7354335710"><ele>48.20</ele><time>2018-09-16T00:41:36Z</time></trkpt><trkpt lat="45.0906748418" lon="39.7352173179"><ele>48.20</ele><time>2018-09-16T00:41:40Z</time></trkpt><trkpt lat="45.0909927674" lon="39.7346089594"><ele>48.20</ele><time>2018-09-16T00:41:51Z</time></trkpt><trkpt lat="45.0913608167" lon="39.7338206414"><ele>48.20</ele><time>2018-09-16T00:42:05Z</time></trkpt><trkpt lat="45.0918769743" lon="39.7328044195"><ele>47.24</ele><time>2018-09-16T00:42:22Z</time></trkpt><trkpt lat="45.0923709199" lon="39.7317094915"><ele>47.24</ele><time>2018-09-16T00:42:40Z</time></trkpt><trkpt lat="45.0923921261" lon="39.7316487227"><ele>47.24</ele><time>2018-09-16T00:42:41Z</time></trkpt><trkpt lat="45.0927002449" lon="39.7306184191"><ele>47.24</ele><time>2018-09-16T00:42:58Z</time></trkpt><trkpt lat="45.0927181821" lon="39.7305699717"><ele>46.76</ele><time>2018-09-16T00:42:59Z</time></trkpt><trkpt lat="45.0927331019" lon="39.7305335943"><ele>46.76</ele><time>2018-09-16T00:43:00Z</time></trkpt><trkpt lat="45.0927290786" lon="39.7305165790"><ele>47.24</ele><time>2018-09-16T00:43:09Z</time></trkpt><trkpt lat="45.0927364547" lon="39.7305219434"><ele>49.65</ele><time>2018-09-16T00:43:41Z</time></trkpt><trkpt lat="45.0927319285" lon="39.7305226978"><ele>49.65</ele><time>2018-09-16T00:44:19Z</time></trkpt><trkpt lat="45.0927402265" lon="39.7305247094"><ele>49.65</ele><time>2018-09-16T00:44:53Z</time></trkpt><trkpt lat="45.0927442499" lon="39.7304797824"><ele>48.68</ele><time>2018-09-16T00:45:22Z</time></trkpt><trkpt lat="45.0927649532" lon="39.7303683031"><ele>48.20</ele><time>2018-09-16T00:45:28Z</time></trkpt><trkpt lat="45.0927755143" lon="39.7303414810"><ele>48.20</ele><time>2018-09-16T00:45:29Z</time></trkpt><trkpt lat="45.0929183420" lon="39.7297716793"><ele>48.68</ele><time>2018-09-16T00:45:42Z</time></trkpt><trkpt lat="45.0930247921" lon="39.7293531708"><ele>49.16</ele><time>2018-09-16T00:45:50Z</time></trkpt><trkpt lat="45.0933125429" lon="39.7282142378"><ele>49.16</ele><time>2018-09-16T00:46:09Z</time></trkpt><trkpt lat="45.0934344158" lon="39.7276810650"><ele>49.16</ele><time>2018-09-16T00:46:17Z</time></trkpt><trkpt lat="45.0937415287" lon="39.7265593149"><ele>49.16</ele><time>2018-09-16T00:46:34Z</time></trkpt><trkpt lat="45.0940490607" lon="39.7253866866"><ele>49.16</ele><time>2018-09-16T00:46:52Z</time></trkpt><trkpt lat="45.0941763818" lon="39.7248821799"><ele>49.16</ele><time>2018-09-16T00:47:00Z</time></trkpt><trkpt lat="45.0942494720" lon="39.7245566268"><ele>49.16</ele><time>2018-09-16T00:47:05Z</time></trkpt><trkpt lat="45.0942871906" lon="39.7244298086"><ele>49.16</ele><time>2018-09-16T00:47:07Z</time></trkpt><trkpt lat="45.0946408231" lon="39.7230546735"><ele>49.65</ele><time>2018-09-16T00:47:28Z</time></trkpt><trkpt lat="45.0948315952" lon="39.7222984582"><ele>49.16</ele><time>2018-09-16T00:47:40Z</time></trkpt><trkpt lat="45.0949089602" lon="39.7220056783"><ele>49.16</ele><time>2018-09-16T00:47:45Z</time></trkpt><trkpt lat="45.0949246343" lon="39.7219485976"><ele>49.16</ele><time>2018-09-16T00:47:46Z</time></trkpt><trkpt lat="45.0951803662" lon="39.7210068069"><ele>49.16</ele><time>2018-09-16T00:48:02Z</time></trkpt><trkpt lat="45.0951956213" lon="39.7209440265"><ele>49.16</ele><time>2018-09-16T00:48:03Z</time></trkpt><trkpt lat="45.0954778399" lon="39.7198282275"><ele>48.68</ele><time>2018-09-16T00:48:20Z</time></trkpt><trkpt lat="45.0955127086" lon="39.7197073605"><ele>48.68</ele><time>2018-09-16T00:48:22Z</time></trkpt><trkpt lat="45.0955311488" lon="39.7196506988"><ele>48.68</ele><time>2018-09-16T00:48:23Z</time></trkpt><trkpt lat="45.0958073325" lon="39.7187167034"><ele>48.20</ele><time>2018-09-16T00:48:39Z</time></trkpt><trkpt lat="45.0958736334" lon="39.7185050603"><ele>48.68</ele><time>2018-09-16T00:48:43Z</time></trkpt><trkpt lat="45.0961572770" lon="39.7175237909"><ele>49.16</ele><time>2018-09-16T00:48:59Z</time></trkpt><trkpt lat="45.0965021923" lon="39.7163874563"><ele>48.20</ele><time>2018-09-16T00:49:17Z</time></trkpt><trkpt lat="45.0967594329" lon="39.7155867331"><ele>48.68</ele><time>2018-09-16T00:49:30Z</time></trkpt><trkpt lat="45.0967761129" lon="39.7155244555"><ele>48.68</ele><time>2018-09-16T00:49:31Z</time></trkpt><trkpt lat="45.0970890932" lon="39.7144250013"><ele>48.68</ele><time>2018-09-16T00:49:49Z</time></trkpt><trkpt lat="45.0973846391" lon="39.7134700511"><ele>47.72</ele><time>2018-09-16T00:50:05Z</time></trkpt><trkpt lat="45.0976841245" lon="39.7124633845"><ele>48.20</ele><time>2018-09-16T00:50:22Z</time></trkpt><trkpt lat="45.0980064087" lon="39.7114234418"><ele>47.72</ele><time>2018-09-16T00:50:39Z</time></trkpt><trkpt lat="45.0980969332" lon="39.7111360263"><ele>47.24</ele><time>2018-09-16T00:50:44Z</time></trkpt><trkpt lat="45.0984094106" lon="39.7101289406"><ele>47.24</ele><time>2018-09-16T00:51:01Z</time></trkpt><trkpt lat="45.0986406673" lon="39.7093583085"><ele>46.76</ele><time>2018-09-16T00:51:13Z</time></trkpt><trkpt lat="45.0990165118" lon="39.7081421781"><ele>43.40</ele><time>2018-09-16T00:51:30Z</time></trkpt><trkpt lat="45.0994959567" lon="39.7066119779"><ele>40.51</ele><time>2018-09-16T00:51:48Z</time></trkpt><trkpt lat="45.0998757407" lon="39.7053427901"><ele>39.55</ele><time>2018-09-16T00:52:05Z</time></trkpt><trkpt lat="45.1002085023" lon="39.7042153403"><ele>39.55</ele><time>2018-09-16T00:52:21Z</time></trkpt><trkpt lat="45.1005472150" lon="39.7031035647"><ele>39.07</ele><time>2018-09-16T00:52:37Z</time></trkpt><trkpt lat="45.1009469479" lon="39.7018130030"><ele>38.59</ele><time>2018-09-16T00:52:56Z</time></trkpt><trkpt lat="45.1009892765" lon="39.7016831674"><ele>38.59</ele><time>2018-09-16T00:52:58Z</time></trkpt><trkpt lat="45.1012928691" lon="39.7006834578"><ele>38.11</ele><time>2018-09-16T00:53:13Z</time></trkpt><trkpt lat="45.1016144827" lon="39.6996274218"><ele>38.11</ele><time>2018-09-16T00:53:30Z</time></trkpt><trkpt lat="45.1018086914" lon="39.6989934985"><ele>38.11</ele><time>2018-09-16T00:53:41Z</time></trkpt><trkpt lat="45.1021333225" lon="39.6981003229"><ele>39.55</ele><time>2018-09-16T00:53:59Z</time></trkpt><trkpt lat="45.1023237593" lon="39.6975615341"><ele>39.07</ele><time>2018-09-16T00:54:10Z</time></trkpt><trkpt lat="45.1027223188" lon="39.6966356691"><ele>38.11</ele><time>2018-09-16T00:54:28Z</time></trkpt><trkpt lat="45.1032184437" lon="39.6956052817"><ele>39.07</ele><time>2018-09-16T00:54:47Z</time></trkpt><trkpt lat="45.1033704914" lon="39.6952907089"><ele>39.55</ele><time>2018-09-16T00:54:53Z</time></trkpt><trkpt lat="45.1036532130" lon="39.6946730465"><ele>39.55</ele><time>2018-09-16T00:55:04Z</time></trkpt><trkpt lat="45.1040420495" lon="39.6937940363"><ele>39.55</ele><time>2018-09-16T00:55:20Z</time></trkpt><trkpt lat="45.1044179779" lon="39.6929286886"><ele>40.51</ele><time>2018-09-16T00:55:35Z</time></trkpt><trkpt lat="45.1048550103" lon="39.6919252072"><ele>40.03</ele><time>2018-09-16T00:55:52Z</time></trkpt><trkpt lat="45.1054812223" lon="39.6905779000"><ele>38.11</ele><time>2018-09-16T00:56:13Z</time></trkpt><trkpt lat="45.1060039178" lon="39.6894557308"><ele>37.63</ele><time>2018-09-16T00:56:31Z</time></trkpt><trkpt lat="45.1062142197" lon="39.6890052874"><ele>38.11</ele><time>2018-09-16T00:56:39Z</time></trkpt><trkpt lat="45.1062403712" lon="39.6889504697"><ele>38.11</ele><time>2018-09-16T00:56:40Z</time></trkpt><trkpt lat="45.1066867914" lon="39.6879994590"><ele>38.59</ele><time>2018-09-16T00:56:58Z</time></trkpt><trkpt lat="45.1069607120" lon="39.6873929445"><ele>39.07</ele><time>2018-09-16T00:57:10Z</time></trkpt><trkpt lat="45.1069846004" lon="39.6873445809"><ele>39.07</ele><time>2018-09-16T00:57:11Z</time></trkpt><trkpt lat="45.1070087403" lon="39.6872960497"><ele>39.07</ele><time>2018-09-16T00:57:12Z</time></trkpt><trkpt lat="45.1070355624" lon="39.6872483566"><ele>39.07</ele><time>2018-09-16T00:57:13Z</time></trkpt><trkpt lat="45.1070607081" lon="39.6872027591"><ele>39.55</ele><time>2018-09-16T00:57:14Z</time></trkpt><trkpt lat="45.1070866920" lon="39.6871501207"><ele>39.55</ele><time>2018-09-16T00:57:15Z</time></trkpt><trkpt lat="45.1071348041" lon="39.6870392282"><ele>39.55</ele><time>2018-09-16T00:57:17Z</time></trkpt><trkpt lat="45.1071576867" lon="39.6869821474"><ele>39.07</ele><time>2018-09-16T00:57:18Z</time></trkpt><trkpt lat="45.1076135784" lon="39.6859940886"><ele>39.07</ele><time>2018-09-16T00:57:35Z</time></trkpt><trkpt lat="45.1080751698" lon="39.6850377135"><ele>40.03</ele><time>2018-09-16T00:57:52Z</time></trkpt><trkpt lat="45.1084888168" lon="39.6842447855"><ele>40.03</ele><time>2018-09-16T00:58:07Z</time></trkpt><trkpt lat="45.1086515095" lon="39.6839323919"><ele>40.03</ele><time>2018-09-16T00:58:13Z</time></trkpt><trkpt lat="45.1090622228" lon="39.6830844786"><ele>39.55</ele><time>2018-09-16T00:58:30Z</time></trkpt><trkpt lat="45.1093815733" lon="39.6824929677"><ele>40.03</ele><time>2018-09-16T00:58:42Z</time></trkpt><trkpt lat="45.1094545797" lon="39.6823373158"><ele>40.03</ele><time>2018-09-16T00:58:45Z</time></trkpt><trkpt lat="45.1099644508" lon="39.6814318188"><ele>39.55</ele><time>2018-09-16T00:59:02Z</time></trkpt><trkpt lat="45.1104702987" lon="39.6804505493"><ele>39.55</ele><time>2018-09-16T00:59:19Z</time></trkpt><trkpt lat="45.1107735559" lon="39.6798556857"><ele>39.07</ele><time>2018-09-16T00:59:29Z</time></trkpt><trkpt lat="45.1111791562" lon="39.6790963691"><ele>38.59</ele><time>2018-09-16T00:59:43Z</time></trkpt><trkpt lat="45.1113314554" lon="39.6787942015"><ele>39.07</ele><time>2018-09-16T00:59:49Z</time></trkpt><trkpt lat="45.1113889553" lon="39.6786963847"><ele>38.59</ele><time>2018-09-16T00:59:51Z</time></trkpt><trkpt lat="45.1115146838" lon="39.6784339473"><ele>39.07</ele><time>2018-09-16T00:59:56Z</time></trkpt><trkpt lat="45.1115420926" lon="39.6783882659"><ele>39.07</ele><time>2018-09-16T00:59:57Z</time></trkpt><trkpt lat="45.1119323540" lon="39.6776292846"><ele>39.07</ele><time>2018-09-16T01:00:13Z</time></trkpt><trkpt lat="45.1119871717" lon="39.6775251813"><ele>39.07</ele><time>2018-09-16T01:00:15Z</time></trkpt><trkpt lat="45.1124008186" lon="39.6767637692"><ele>39.55</ele><time>2018-09-16T01:00:30Z</time></trkpt><trkpt lat="45.1128450595" lon="39.6758943144"><ele>39.55</ele><time>2018-09-16T01:00:47Z</time></trkpt><trkpt lat="45.1133457106" lon="39.6749281324"><ele>37.15</ele><time>2018-09-16T01:01:04Z</time></trkpt><trkpt lat="45.1139502972" lon="39.6737939771"><ele>37.15</ele><time>2018-09-16T01:01:23Z</time></trkpt><trkpt lat="45.1143793669" lon="39.6730224229"><ele>36.67</ele><time>2018-09-16T01:01:38Z</time></trkpt><trkpt lat="45.1143946219" lon="39.6730177291"><ele>36.67</ele><time>2018-09-16T01:01:39Z</time></trkpt><trkpt lat="45.1144086197" lon="39.6730097663"><ele>36.67</ele><time>2018-09-16T01:01:40Z</time></trkpt><trkpt lat="45.1144104637" lon="39.6730079222"><ele>36.19</ele><time>2018-09-16T01:01:53Z</time></trkpt><trkpt lat="45.1144413091" lon="39.6730170585"><ele>35.23</ele><time>2018-09-16T01:02:07Z</time></trkpt><trkpt lat="45.1144413091" lon="39.6730149630"><ele>36.19</ele><time>2018-09-16T01:02:27Z</time></trkpt><trkpt lat="45.1144502778" lon="39.6730337385"><ele>37.63</ele><time>2018-09-16T01:03:00Z</time></trkpt><trkpt lat="45.1144519541" lon="39.6730354987"><ele>38.59</ele><time>2018-09-16T01:03:46Z</time></trkpt><trkpt lat="45.1144720707" lon="39.6730453894"><ele>39.07</ele><time>2018-09-16T01:04:32Z</time></trkpt><trkpt lat="45.1144746691" lon="39.6730602253"><ele>40.51</ele><time>2018-09-16T01:05:24Z</time></trkpt><trkpt lat="45.1144600846" lon="39.6730394382"><ele>40.51</ele><time>2018-09-16T01:06:08Z</time></trkpt><trkpt lat="45.1144465059" lon="39.6730282903"><ele>40.51</ele><time>2018-09-16T01:06:45Z</time></trkpt><trkpt lat="45.1144309156" lon="39.6729983669"><ele>37.15</ele><time>2018-09-16T01:07:26Z</time></trkpt><trkpt lat="45.1144382078" lon="39.6730064973"><ele>35.23</ele><time>2018-09-16T01:08:16Z</time></trkpt><trkpt lat="45.1144457515" lon="39.6730124485"><ele>34.74</ele><time>2018-09-16T01:09:13Z</time></trkpt><trkpt lat="45.1144455001" lon="39.6730025578"><ele>33.78</ele><time>2018-09-16T01:10:03Z</time></trkpt><trkpt lat="45.1144351065" lon="39.6729943436"><ele>35.23</ele><time>2018-09-16T01:10:51Z</time></trkpt><trkpt lat="45.1144313347" lon="39.6730044018"><ele>36.67</ele><time>2018-09-16T01:11:33Z</time></trkpt><trkpt lat="45.1144305803" lon="39.6730071679"><ele>37.63</ele><time>2018-09-16T01:12:01Z</time></trkpt><trkpt lat="45.1144294068" lon="39.6730119456"><ele>37.15</ele><time>2018-09-16T01:12:34Z</time></trkpt><trkpt lat="45.1144480985" lon="39.6730158012"><ele>33.78</ele><time>2018-09-16T01:13:14Z</time></trkpt><trkpt lat="45.1144567318" lon="39.6730242670"><ele>32.34</ele><time>2018-09-16T01:13:59Z</time></trkpt><trkpt lat="45.1144496072" lon="39.6730059944"><ele>31.38</ele><time>2018-09-16T01:14:51Z</time></trkpt><trkpt lat="45.1144427340" lon="39.6729808487"><ele>31.38</ele><time>2018-09-16T01:15:39Z</time></trkpt><trkpt lat="45.1144491043" lon="39.6729790885"><ele>30.90</ele><time>2018-09-16T01:16:17Z</time></trkpt><trkpt lat="45.1144480985" lon="39.6729897335"><ele>30.42</ele><time>2018-09-16T01:17:03Z</time></trkpt><trkpt lat="45.1144557260" lon="39.6729985345"><ele>31.86</ele><time>2018-09-16T01:17:44Z</time></trkpt><trkpt lat="45.1144427340" lon="39.6729983669"><ele>34.26</ele><time>2018-09-16T01:18:14Z</time></trkpt><trkpt lat="45.1144444942" lon="39.6730066650"><ele>35.23</ele><time>2018-09-16T01:18:41Z</time></trkpt><trkpt lat="45.1144232880" lon="39.6729904879"><ele>36.19</ele><time>2018-09-16T01:19:10Z</time></trkpt><trkpt lat="45.1144091226" lon="39.6729745623"><ele>38.11</ele><time>2018-09-16T01:19:49Z</time></trkpt><trkpt lat="45.1144101284" lon="39.6729923319"><ele>37.63</ele><time>2018-09-16T01:20:28Z</time></trkpt><trkpt lat="45.1144276466" lon="39.6729100216"><ele>39.07</ele><time>2018-09-16T01:20:43Z</time></trkpt><trkpt lat="45.1144372020" lon="39.6728909109"><ele>39.07</ele><time>2018-09-16T01:21:01Z</time></trkpt><trkpt lat="45.1144390460" lon="39.6728708781"><ele>39.07</ele><time>2018-09-16T01:21:08Z</time></trkpt><trkpt lat="45.1144445781" lon="39.6728571318"><ele>39.55</ele><time>2018-09-16T01:21:09Z</time></trkpt><trkpt lat="45.1144488528" lon="39.6728414577"><ele>39.55</ele><time>2018-09-16T01:21:10Z</time></trkpt><trkpt lat="45.1144557260" lon="39.6728299744"><ele>39.55</ele><time>2018-09-16T01:21:11Z</time></trkpt><trkpt lat="45.1144691370" lon="39.6728168987"><ele>39.55</ele><time>2018-09-16T01:21:12Z</time></trkpt><trkpt lat="45.1144829672" lon="39.6728000510"><ele>39.55</ele><time>2018-09-16T01:21:13Z</time></trkpt><trkpt lat="45.1144940313" lon="39.6727786772"><ele>39.55</ele><time>2018-09-16T01:21:14Z</time></trkpt><trkpt lat="45.1145009883" lon="39.6727609914"><ele>39.55</ele><time>2018-09-16T01:21:15Z</time></trkpt><trkpt lat="45.1145081129" lon="39.6727463230"><ele>38.11</ele><time>2018-09-16T01:21:29Z</time></trkpt><trkpt lat="45.1145113818" lon="39.6727410425"><ele>36.67</ele><time>2018-09-16T01:21:53Z</time></trkpt><trkpt lat="45.1145512797" lon="39.6726659406"><ele>36.67</ele><time>2018-09-16T01:22:10Z</time></trkpt><trkpt lat="45.1147275511" lon="39.6723208576"><ele>36.67</ele><time>2018-09-16T01:22:22Z</time></trkpt><trkpt lat="45.1150096860" lon="39.6718250681"><ele>35.71</ele><time>2018-09-16T01:22:38Z</time></trkpt><trkpt lat="45.1151707023" lon="39.6715372335"><ele>35.71</ele><time>2018-09-16T01:22:45Z</time></trkpt><trkpt lat="45.1154271886" lon="39.6710486524"><ele>35.71</ele><time>2018-09-16T01:22:55Z</time></trkpt><trkpt lat="45.1158689987" lon="39.6702113841"><ele>35.71</ele><time>2018-09-16T01:23:11Z</time></trkpt><trkpt lat="45.1163627766" lon="39.6692868602"><ele>36.19</ele><time>2018-09-16T01:23:28Z</time></trkpt><trkpt lat="45.1166976336" lon="39.6686399449"><ele>37.15</ele><time>2018-09-16T01:23:42Z</time></trkpt><trkpt lat="45.1170428842" lon="39.6678502858"><ele>38.59</ele><time>2018-09-16T01:23:58Z</time></trkpt><trkpt lat="45.1171272900" lon="39.6675012633"><ele>39.07</ele><time>2018-09-16T01:24:04Z</time></trkpt><trkpt lat="45.1171347499" lon="39.6674404107"><ele>39.07</ele><time>2018-09-16T01:24:05Z</time></trkpt><trkpt lat="45.1171553694" lon="39.6672001015"><ele>39.07</ele><time>2018-09-16T01:24:09Z</time></trkpt><trkpt lat="45.1171572134" lon="39.6671385784"><ele>39.07</ele><time>2018-09-16T01:24:10Z</time></trkpt><trkpt lat="45.1171635836" lon="39.6670765523"><ele>38.59</ele><time>2018-09-16T01:24:11Z</time></trkpt><trkpt lat="45.1171703730" lon="39.6670132689"><ele>39.07</ele><time>2018-09-16T01:24:12Z</time></trkpt><trkpt lat="45.1171732228" lon="39.6669484768"><ele>38.59</ele><time>2018-09-16T01:24:13Z</time></trkpt><trkpt lat="45.1171748992" lon="39.6668866184"><ele>38.59</ele><time>2018-09-16T01:24:14Z</time></trkpt><trkpt lat="45.1172075048" lon="39.6657488588"><ele>38.11</ele><time>2018-09-16T01:24:31Z</time></trkpt><trkpt lat="45.1172318961" lon="39.6643290482"><ele>38.11</ele><time>2018-09-16T01:24:51Z</time></trkpt><trkpt lat="45.1172870491" lon="39.6629090700"><ele>37.63</ele><time>2018-09-16T01:25:10Z</time></trkpt><trkpt lat="45.1175437868" lon="39.6618532855"><ele>37.15</ele><time>2018-09-16T01:25:26Z</time></trkpt><trkpt lat="45.1179215591" lon="39.6608696692"><ele>37.15</ele><time>2018-09-16T01:25:42Z</time></trkpt><trkpt lat="45.1183197834" lon="39.6598526090"><ele>37.15</ele><time>2018-09-16T01:25:59Z</time></trkpt><trkpt lat="45.1187711488" lon="39.6587088145"><ele>36.67</ele><time>2018-09-16T01:26:18Z</time></trkpt><trkpt lat="45.1188636851" lon="39.6584759653"><ele>36.67</ele><time>2018-09-16T01:26:22Z</time></trkpt><trkpt lat="45.1188842207" lon="39.6584173758"><ele>36.67</ele><time>2018-09-16T01:26:23Z</time></trkpt><trkpt lat="45.1191556267" lon="39.6577338316"><ele>36.19</ele><time>2018-09-16T01:26:35Z</time></trkpt><trkpt lat="45.1195536833" lon="39.6566596068"><ele>36.19</ele><time>2018-09-16T01:26:53Z</time></trkpt><trkpt lat="45.1198581140" lon="39.6557168104"><ele>37.63</ele><time>2018-09-16T01:27:08Z</time></trkpt><trkpt lat="45.1204001717" lon="39.6542100795"><ele>38.11</ele><time>2018-09-16T01:27:32Z</time></trkpt><trkpt lat="45.1209703088" lon="39.6530630160"><ele>37.63</ele><time>2018-09-16T01:27:51Z</time></trkpt><trkpt lat="45.1215108577" lon="39.6519986819"><ele>37.63</ele><time>2018-09-16T01:28:09Z</time></trkpt><trkpt lat="45.1219687611" lon="39.6511227731"><ele>38.11</ele><time>2018-09-16T01:28:25Z</time></trkpt><trkpt lat="45.1224922109" lon="39.6500917152"><ele>38.11</ele><time>2018-09-16T01:28:43Z</time></trkpt><trkpt lat="45.1230046805" lon="39.6491060872"><ele>35.71</ele><time>2018-09-16T01:29:00Z</time></trkpt><trkpt lat="45.1231288165" lon="39.6488608327"><ele>35.23</ele><time>2018-09-16T01:29:04Z</time></trkpt><trkpt lat="45.1231540460" lon="39.6488002315"><ele>35.23</ele><time>2018-09-16T01:29:05Z</time></trkpt><trkpt lat="45.1231806166" lon="39.6487405524"><ele>34.74</ele><time>2018-09-16T01:29:06Z</time></trkpt><trkpt lat="45.1232092828" lon="39.6486900095"><ele>34.74</ele><time>2018-09-16T01:29:07Z</time></trkpt><trkpt lat="45.1232407987" lon="39.6486398857"><ele>34.74</ele><time>2018-09-16T01:29:08Z</time></trkpt><trkpt lat="45.1236764900" lon="39.6478125919"><ele>34.26</ele><time>2018-09-16T01:29:23Z</time></trkpt><trkpt lat="45.1237788331" lon="39.6476062294"><ele>34.26</ele><time>2018-09-16T01:29:27Z</time></trkpt><trkpt lat="45.1239183079" lon="39.6473312192"><ele>34.26</ele><time>2018-09-16T01:29:32Z</time></trkpt><trkpt lat="45.1245060470" lon="39.6461953875"><ele>34.26</ele><time>2018-09-16T01:29:51Z</time></trkpt><trkpt lat="45.1249978971" lon="39.6452250984"><ele>34.74</ele><time>2018-09-16T01:30:07Z</time></trkpt><trkpt lat="45.1252368651" lon="39.6446770057"><ele>34.74</ele><time>2018-09-16T01:30:16Z</time></trkpt><trkpt lat="45.1252858154" lon="39.6445662808"><ele>34.74</ele><time>2018-09-16T01:30:18Z</time></trkpt><trkpt lat="45.1257925853" lon="39.6433897968"><ele>35.23</ele><time>2018-09-16T01:30:37Z</time></trkpt><trkpt lat="45.1262180507" lon="39.6424117126"><ele>35.23</ele><time>2018-09-16T01:30:54Z</time></trkpt><trkpt lat="45.1266182028" lon="39.6414959058"><ele>34.26</ele><time>2018-09-16T01:31:09Z</time></trkpt><trkpt lat="45.1270621084" lon="39.6404703800"><ele>35.23</ele><time>2018-09-16T01:31:27Z</time></trkpt><trkpt lat="45.1274173334" lon="39.6396616101"><ele>35.23</ele><time>2018-09-16T01:31:42Z</time></trkpt><trkpt lat="45.1278274599" lon="39.6387191489"><ele>35.71</ele><time>2018-09-16T01:31:58Z</time></trkpt><trkpt lat="45.1279972773" lon="39.6383306477"><ele>34.74</ele><time>2018-09-16T01:32:04Z</time></trkpt><trkpt lat="45.1280270331" lon="39.6382696275"><ele>34.74</ele><time>2018-09-16T01:32:05Z</time></trkpt><trkpt lat="45.1285495609" lon="39.6370481327"><ele>34.74</ele><time>2018-09-16T01:32:24Z</time></trkpt><trkpt lat="45.1290606894" lon="39.6358911786"><ele>35.23</ele><time>2018-09-16T01:32:43Z</time></trkpt><trkpt lat="45.1291796286" lon="39.6355873346"><ele>35.71</ele><time>2018-09-16T01:32:49Z</time></trkpt><trkpt lat="45.1292022597" lon="39.6355418209"><ele>35.71</ele><time>2018-09-16T01:32:50Z</time></trkpt><trkpt lat="45.1292278245" lon="39.6354989056"><ele>35.71</ele><time>2018-09-16T01:32:51Z</time></trkpt><trkpt lat="45.1292518806" lon="39.6354611870"><ele>35.71</ele><time>2018-09-16T01:32:52Z</time></trkpt><trkpt lat="45.1292760205" lon="39.6354195289"><ele>35.71</ele><time>2018-09-16T01:32:53Z</time></trkpt><trkpt lat="45.1295586582" lon="39.6353409905"><ele>36.19</ele><time>2018-09-16T01:33:03Z</time></trkpt><trkpt lat="45.1299268752" lon="39.6356863249"><ele>35.71</ele><time>2018-09-16T01:33:14Z</time></trkpt><trkpt lat="45.1306048036" lon="39.6362911630"><ele>35.23</ele><time>2018-09-16T01:33:32Z</time></trkpt><trkpt lat="45.1311120763" lon="39.6366972663"><ele>35.23</ele><time>2018-09-16T01:33:48Z</time></trkpt><trkpt lat="45.1318302378" lon="39.6372841671"><ele>34.26</ele><time>2018-09-16T01:34:05Z</time></trkpt><trkpt lat="45.1325996965" lon="39.6379355248"><ele>34.74</ele><time>2018-09-16T01:34:23Z</time></trkpt><trkpt lat="45.1332471147" lon="39.6385032311"><ele>34.26</ele><time>2018-09-16T01:34:38Z</time></trkpt><trkpt lat="45.1340910047" lon="39.6392214764"><ele>33.30</ele><time>2018-09-16T01:34:57Z</time></trkpt><trkpt lat="45.1348141115" lon="39.6398393065"><ele>32.82</ele><time>2018-09-16T01:35:13Z</time></trkpt><trkpt lat="45.1356223784" lon="39.6405104455"><ele>31.38</ele><time>2018-09-16T01:35:31Z</time></trkpt><trkpt lat="45.1364727225" lon="39.6411361545"><ele>30.90</ele><time>2018-09-16T01:35:49Z</time></trkpt><trkpt lat="45.1372322906" lon="39.6416588500"><ele>31.38</ele><time>2018-09-16T01:36:05Z</time></trkpt><trkpt lat="45.1380111370" lon="39.6421823837"><ele>31.38</ele><time>2018-09-16T01:36:22Z</time></trkpt><trkpt lat="45.1383249555" lon="39.6423754189"><ele>31.38</ele><time>2018-09-16T01:36:29Z</time></trkpt><trkpt lat="45.1383695472" lon="39.6424094494"><ele>31.86</ele><time>2018-09-16T01:36:30Z</time></trkpt><trkpt lat="45.1384105347" lon="39.6424419712"><ele>31.86</ele><time>2018-09-16T01:36:31Z</time></trkpt><trkpt lat="45.1392525807" lon="39.6429561172"><ele>31.86</ele><time>2018-09-16T01:36:49Z</time></trkpt><trkpt lat="45.1401523780" lon="39.6434535831"><ele>32.34</ele><time>2018-09-16T01:37:08Z</time></trkpt><trkpt lat="45.1413630601" lon="39.6440738440"><ele>31.38</ele><time>2018-09-16T01:37:31Z</time></trkpt><trkpt lat="45.1423105504" lon="39.6444998961"><ele>30.90</ele><time>2018-09-16T01:37:49Z</time></trkpt><trkpt lat="45.1433354896" lon="39.6449242719"><ele>30.42</ele><time>2018-09-16T01:38:08Z</time></trkpt><trkpt lat="45.1444094628" lon="39.6453165449"><ele>30.90</ele><time>2018-09-16T01:38:29Z</time></trkpt><trkpt lat="45.1453945041" lon="39.6456320398"><ele>30.42</ele><time>2018-09-16T01:38:48Z</time></trkpt><trkpt lat="45.1463564951" lon="39.6458994225"><ele>29.94</ele><time>2018-09-16T01:39:06Z</time></trkpt><trkpt lat="45.1467854809" lon="39.6460029390"><ele>30.42</ele><time>2018-09-16T01:39:14Z</time></trkpt><trkpt lat="45.1469844673" lon="39.6460476983"><ele>30.42</ele><time>2018-09-16T01:39:18Z</time></trkpt><trkpt lat="45.1473167259" lon="39.6461212914"><ele>30.90</ele><time>2018-09-16T01:39:25Z</time></trkpt><trkpt lat="45.1481588557" lon="39.6463109739"><ele>31.38</ele><time>2018-09-16T01:39:42Z</time></trkpt><trkpt lat="45.1491136383" lon="39.6464656200"><ele>32.34</ele><time>2018-09-16T01:40:00Z</time></trkpt><trkpt lat="45.1497131120" lon="39.6465491876"><ele>32.34</ele><time>2018-09-16T01:40:13Z</time></trkpt><trkpt lat="45.1497631520" lon="39.6465483494"><ele>32.34</ele><time>2018-09-16T01:40:14Z</time></trkpt><trkpt lat="45.1506295893" lon="39.6466324199"><ele>32.82</ele><time>2018-09-16T01:40:31Z</time></trkpt><trkpt lat="45.1517567039" lon="39.6467025764"><ele>32.82</ele><time>2018-09-16T01:40:52Z</time></trkpt><trkpt lat="45.1528431661" lon="39.6467316616"><ele>33.30</ele><time>2018-09-16T01:41:12Z</time></trkpt><trkpt lat="45.1539723761" lon="39.6466741618"><ele>32.82</ele><time>2018-09-16T01:41:32Z</time></trkpt><trkpt lat="45.1550861634" lon="39.6466312464"><ele>32.82</ele><time>2018-09-16T01:41:52Z</time></trkpt><trkpt lat="45.1562231686" lon="39.6465024166"><ele>32.82</ele><time>2018-09-16T01:42:12Z</time></trkpt><trkpt lat="45.1572745107" lon="39.6463398077"><ele>32.82</ele><time>2018-09-16T01:42:31Z</time></trkpt><trkpt lat="45.1583644096" lon="39.6461867541"><ele>32.82</ele><time>2018-09-16T01:42:50Z</time></trkpt><trkpt lat="45.1594765205" lon="39.6460272465"><ele>32.82</ele><time>2018-09-16T01:43:09Z</time></trkpt><trkpt lat="45.1607448701" lon="39.6458389889"><ele>32.34</ele><time>2018-09-16T01:43:30Z</time></trkpt><trkpt lat="45.1618994772" lon="39.6456612088"><ele>31.86</ele><time>2018-09-16T01:43:50Z</time></trkpt><trkpt lat="45.1627426967" lon="39.6455250029"><ele>30.90</ele><time>2018-09-16T01:44:05Z</time></trkpt><trkpt lat="45.1635920350" lon="39.6453958377"><ele>31.38</ele><time>2018-09-16T01:44:21Z</time></trkpt><trkpt lat="45.1644529402" lon="39.6452729590"><ele>31.38</ele><time>2018-09-16T01:44:38Z</time></trkpt><trkpt lat="45.1654553320" lon="39.6451214980"><ele>31.38</ele><time>2018-09-16T01:44:57Z</time></trkpt><trkpt lat="45.1663282234" lon="39.6449863818"><ele>30.42</ele><time>2018-09-16T01:45:14Z</time></trkpt><trkpt lat="45.1671715267" lon="39.6448590606"><ele>30.42</ele><time>2018-09-16T01:45:30Z</time></trkpt><trkpt lat="45.1682045963" lon="39.6447134670"><ele>29.94</ele><time>2018-09-16T01:45:49Z</time></trkpt><trkpt lat="45.1690585446" lon="39.6445796080"><ele>29.94</ele><time>2018-09-16T01:46:06Z</time></trkpt><trkpt lat="45.1699299272" lon="39.6444611717"><ele>29.94</ele><time>2018-09-16T01:46:23Z</time></trkpt><trkpt lat="45.1708090212" lon="39.6443386283"><ele>31.38</ele><time>2018-09-16T01:46:41Z</time></trkpt><trkpt lat="45.1716409251" lon="39.6442320105"><ele>30.90</ele><time>2018-09-16T01:46:57Z</time></trkpt><trkpt lat="45.1725540496" lon="39.6441241354"><ele>30.42</ele><time>2018-09-16T01:47:15Z</time></trkpt><trkpt lat="45.1732603926" lon="39.6440234687"><ele>30.42</ele><time>2018-09-16T01:47:29Z</time></trkpt><trkpt lat="45.1735803299" lon="39.6439702436"><ele>29.94</ele><time>2018-09-16T01:47:35Z</time></trkpt><trkpt lat="45.1736369915" lon="39.6439647954"><ele>29.94</ele><time>2018-09-16T01:47:36Z</time></trkpt><trkpt lat="45.1746358629" lon="39.6438497119"><ele>29.94</ele><time>2018-09-16T01:47:54Z</time></trkpt><trkpt lat="45.1757259294" lon="39.6436754521"><ele>30.90</ele><time>2018-09-16T01:48:15Z</time></trkpt><trkpt lat="45.1766066160" lon="39.6435135137"><ele>30.90</ele><time>2018-09-16T01:48:32Z</time></trkpt><trkpt lat="45.1776955090" lon="39.6433540061"><ele>30.42</ele><time>2018-09-16T01:48:52Z</time></trkpt><trkpt lat="45.1788552292" lon="39.6431803331"><ele>30.42</ele><time>2018-09-16T01:49:13Z</time></trkpt><trkpt lat="45.1800245047" lon="39.6430115215"><ele>30.42</ele><time>2018-09-16T01:49:34Z</time></trkpt><trkpt lat="45.1810675487" lon="39.6428868826"><ele>30.42</ele><time>2018-09-16T01:49:54Z</time></trkpt><trkpt lat="45.1820138656" lon="39.6427887306"><ele>30.42</ele><time>2018-09-16T01:50:12Z</time></trkpt><trkpt lat="45.1825928036" lon="39.6427270398"><ele>31.86</ele><time>2018-09-16T01:50:25Z</time></trkpt><trkpt lat="45.1826310251" lon="39.6427146345"><ele>31.86</ele><time>2018-09-16T01:50:26Z</time></trkpt><trkpt lat="45.1829414908" lon="39.6426758263"><ele>31.38</ele><time>2018-09-16T01:50:34Z</time></trkpt><trkpt lat="45.1830297522" lon="39.6426642593"><ele>31.38</ele><time>2018-09-16T01:50:36Z</time></trkpt><trkpt lat="45.1837732270" lon="39.6425482538"><ele>30.42</ele><time>2018-09-16T01:50:52Z</time></trkpt><trkpt lat="45.1846073940" lon="39.6423723176"><ele>30.42</ele><time>2018-09-16T01:51:08Z</time></trkpt><trkpt lat="45.1857346762" lon="39.6422000695"><ele>30.42</ele><time>2018-09-16T01:51:28Z</time></trkpt><trkpt lat="45.1868720166" lon="39.6420388017"><ele>29.94</ele><time>2018-09-16T01:51:48Z</time></trkpt><trkpt lat="45.1881704573" lon="39.6418735944"><ele>29.94</ele><time>2018-09-16T01:52:10Z</time></trkpt><trkpt lat="45.1891545765" lon="39.6417961456"><ele>29.94</ele><time>2018-09-16T01:52:27Z</time></trkpt><trkpt lat="45.1899594907" lon="39.6417730115"><ele>30.42</ele><time>2018-09-16T01:52:42Z</time></trkpt><trkpt lat="45.1911165286" lon="39.6418061201"><ele>30.42</ele><time>2018-09-16T01:53:03Z</time></trkpt><trkpt lat="45.1921371929" lon="39.6419206169"><ele>30.90</ele><time>2018-09-16T01:53:22Z</time></trkpt><trkpt lat="45.1929674204" lon="39.6420687251"><ele>30.90</ele><time>2018-09-16T01:53:38Z</time></trkpt><trkpt lat="45.1940345205" lon="39.6423044242"><ele>30.42</ele><time>2018-09-16T01:53:58Z</time></trkpt><trkpt lat="45.1951815002" lon="39.6426239423"><ele>30.42</ele><time>2018-09-16T01:54:20Z</time></trkpt><trkpt lat="45.1961145736" lon="39.6429152135"><ele>30.90</ele><time>2018-09-16T01:54:38Z</time></trkpt><trkpt lat="45.1969651692" lon="39.6431854460"><ele>31.38</ele><time>2018-09-16T01:54:55Z</time></trkpt><trkpt lat="45.1978906989" lon="39.6434897929"><ele>31.86</ele><time>2018-09-16T01:55:14Z</time></trkpt><trkpt lat="45.1987565495" lon="39.6437839977"><ele>31.38</ele><time>2018-09-16T01:55:31Z</time></trkpt><trkpt lat="45.1997312810" lon="39.6441302542"><ele>32.34</ele><time>2018-09-16T01:55:51Z</time></trkpt><trkpt lat="45.2004633565" lon="39.6443609241"><ele>33.30</ele><time>2018-09-16T01:56:07Z</time></trkpt><trkpt lat="45.2010186575" lon="39.6445388719"><ele>33.30</ele><time>2018-09-16T01:56:22Z</time></trkpt><trkpt lat="45.2015643194" lon="39.6446961164"><ele>33.30</ele><time>2018-09-16T01:56:36Z</time></trkpt><trkpt lat="45.2019371465" lon="39.6448267065"><ele>33.78</ele><time>2018-09-16T01:56:45Z</time></trkpt><trkpt lat="45.2027377859" lon="39.6450912394"><ele>33.30</ele><time>2018-09-16T01:57:03Z</time></trkpt><trkpt lat="45.2035709471" lon="39.6453536768"><ele>32.82</ele><time>2018-09-16T01:57:21Z</time></trkpt><trkpt lat="45.2043033578" lon="39.6455840953"><ele>33.30</ele><time>2018-09-16T01:57:37Z</time></trkpt><trkpt lat="45.2050262131" lon="39.6458231471"><ele>33.30</ele><time>2018-09-16T01:57:53Z</time></trkpt><trkpt lat="45.2057983540" lon="39.6460741851"><ele>33.78</ele><time>2018-09-16T01:58:10Z</time></trkpt><trkpt lat="45.2061488014" lon="39.6461828146"><ele>34.26</ele><time>2018-09-16T01:58:18Z</time></trkpt><trkpt lat="45.2064675651" lon="39.6462927014"><ele>35.23</ele><time>2018-09-16T01:58:26Z</time></trkpt><trkpt lat="45.2068631910" lon="39.6464162506"><ele>36.19</ele><time>2018-09-16T01:58:38Z</time></trkpt><trkpt lat="45.2074780874" lon="39.6466169134"><ele>38.11</ele><time>2018-09-16T01:58:57Z</time></trkpt><trkpt lat="45.2078631520" lon="39.6467249561"><ele>40.51</ele><time>2018-09-16T01:59:10Z</time></trkpt><trkpt lat="45.2084525675" lon="39.6469298098"><ele>42.44</ele><time>2018-09-16T01:59:28Z</time></trkpt><trkpt lat="45.2089124825" lon="39.6470727213"><ele>43.40</ele><time>2018-09-16T01:59:43Z</time></trkpt><trkpt lat="45.2094350103" lon="39.6472556144"><ele>44.84</ele><time>2018-09-16T02:00:00Z</time></trkpt><trkpt lat="45.2099078335" lon="39.6474034712"><ele>46.76</ele><time>2018-09-16T02:00:15Z</time></trkpt><trkpt lat="45.2104265057" lon="39.6475850232"><ele>47.72</ele><time>2018-09-16T02:00:33Z</time></trkpt><trkpt lat="45.2109326888" lon="39.6477483027"><ele>48.68</ele><time>2018-09-16T02:00:51Z</time></trkpt><trkpt lat="45.2113884129" lon="39.6478832513"><ele>51.09</ele><time>2018-09-16T02:01:08Z</time></trkpt><trkpt lat="45.2116713859" lon="39.6479624603"><ele>52.05</ele><time>2018-09-16T02:01:19Z</time></trkpt><trkpt lat="45.2121261042" lon="39.6481226385"><ele>53.49</ele><time>2018-09-16T02:01:36Z</time></trkpt><trkpt lat="45.2125540003" lon="39.6482528094"><ele>54.45</ele><time>2018-09-16T02:01:51Z</time></trkpt><trkpt lat="45.2128687408" lon="39.6483595949"><ele>55.41</ele><time>2018-09-16T02:02:05Z</time></trkpt><trkpt lat="45.2132169250" lon="39.6484673023"><ele>57.82</ele><time>2018-09-16T02:02:21Z</time></trkpt><trkpt lat="45.2135467529" lon="39.6485587489"><ele>59.74</ele><time>2018-09-16T02:02:37Z</time></trkpt><trkpt lat="45.2136500180" lon="39.6485753451"><ele>60.70</ele><time>2018-09-16T02:02:42Z</time></trkpt><trkpt lat="45.2136721462" lon="39.6485762671"><ele>60.70</ele><time>2018-09-16T02:02:43Z</time></trkpt><trkpt lat="45.2139906585" lon="39.6486037597"><ele>62.62</ele><time>2018-09-16T02:02:58Z</time></trkpt><trkpt lat="45.2143376693" lon="39.6486600861"><ele>65.99</ele><time>2018-09-16T02:03:14Z</time></trkpt><trkpt lat="45.2145431098" lon="39.6486707311"><ele>67.91</ele><time>2018-09-16T02:03:23Z</time></trkpt><trkpt lat="45.2145664953" lon="39.6486760117"><ele>67.91</ele><time>2018-09-16T02:03:24Z</time></trkpt><trkpt lat="45.2145885397" lon="39.6486769337"><ele>68.39</ele><time>2018-09-16T02:03:25Z</time></trkpt><trkpt lat="45.2149871830" lon="39.6486356948"><ele>70.31</ele><time>2018-09-16T02:03:43Z</time></trkpt><trkpt lat="45.2153173462" lon="39.6485215332"><ele>71.27</ele><time>2018-09-16T02:03:58Z</time></trkpt><trkpt lat="45.2156764269" lon="39.6483394783"><ele>73.68</ele><time>2018-09-16T02:04:15Z</time></trkpt><trkpt lat="45.2159690391" lon="39.6481570043"><ele>74.64</ele><time>2018-09-16T02:04:29Z</time></trkpt><trkpt lat="45.2162427921" lon="39.6479290165"><ele>74.16</ele><time>2018-09-16T02:04:43Z</time></trkpt><trkpt lat="45.2165382542" lon="39.6476105042"><ele>73.68</ele><time>2018-09-16T02:04:58Z</time></trkpt><trkpt lat="45.2168317046" lon="39.6472731326"><ele>73.68</ele><time>2018-09-16T02:05:11Z</time></trkpt><trkpt lat="45.2172838245" lon="39.6467369422"><ele>76.08</ele><time>2018-09-16T02:05:28Z</time></trkpt><trkpt lat="45.2176687215" lon="39.6461705770"><ele>79.45</ele><time>2018-09-16T02:05:44Z</time></trkpt><trkpt lat="45.2179728169" lon="39.6456810739"><ele>79.45</ele><time>2018-09-16T02:05:58Z</time></trkpt><trkpt lat="45.2183168102" lon="39.6451714542"><ele>80.89</ele><time>2018-09-16T02:06:12Z</time></trkpt><trkpt lat="45.2186193969" lon="39.6447480004"><ele>82.81</ele><time>2018-09-16T02:06:24Z</time></trkpt><trkpt lat="45.2189493924" lon="39.6443087887"><ele>83.77</ele><time>2018-09-16T02:06:38Z</time></trkpt><trkpt lat="45.2192775439" lon="39.6438860055"><ele>85.69</ele><time>2018-09-16T02:06:52Z</time></trkpt><trkpt lat="45.2196595911" lon="39.6433820017"><ele>88.58</ele><time>2018-09-16T02:07:07Z</time></trkpt><trkpt lat="45.2199913468" lon="39.6429419518"><ele>89.54</ele><time>2018-09-16T02:07:20Z</time></trkpt><trkpt lat="45.2202726435" lon="39.6425782610"><ele>90.98</ele><time>2018-09-16T02:07:33Z</time></trkpt><trkpt lat="45.2207329776" lon="39.6420228761"><ele>90.98</ele><time>2018-09-16T02:07:50Z</time></trkpt><trkpt lat="45.2209750470" lon="39.6417165175"><ele>89.54</ele><time>2018-09-16T02:07:59Z</time></trkpt><trkpt lat="45.2210386656" lon="39.6416415833"><ele>89.06</ele><time>2018-09-16T02:08:01Z</time></trkpt><trkpt lat="45.2210690919" lon="39.6415965725"><ele>89.06</ele><time>2018-09-16T02:08:02Z</time></trkpt><trkpt lat="45.2210991830" lon="39.6415542439"><ele>88.58</ele><time>2018-09-16T02:08:03Z</time></trkpt><trkpt lat="45.2216720022" lon="39.6408245992"><ele>86.66</ele><time>2018-09-16T02:08:17Z</time></trkpt><trkpt lat="45.2225338295" lon="39.6397392265"><ele>82.81</ele><time>2018-09-16T02:08:34Z</time></trkpt><trkpt lat="45.2228743862" lon="39.6393358056"><ele>81.37</ele><time>2018-09-16T02:08:41Z</time></trkpt><trkpt lat="45.2229140326" lon="39.6393040381"><ele>80.89</ele><time>2018-09-16T02:08:42Z</time></trkpt><trkpt lat="45.2229588758" lon="39.6392747015"><ele>80.89</ele><time>2018-09-16T02:08:43Z</time></trkpt><trkpt lat="45.2236344572" lon="39.6390986815"><ele>80.41</ele><time>2018-09-16T02:08:57Z</time></trkpt><trkpt lat="45.2237699088" lon="39.6390843485"><ele>80.41</ele><time>2018-09-16T02:09:00Z</time></trkpt><trkpt lat="45.2238176018" lon="39.6390678361"><ele>80.41</ele><time>2018-09-16T02:09:01Z</time></trkpt><trkpt lat="45.2238587569" lon="39.6390473843"><ele>79.93</ele><time>2018-09-16T02:09:02Z</time></trkpt><trkpt lat="45.2239028458" lon="39.6390196402"><ele>79.93</ele><time>2018-09-16T02:09:03Z</time></trkpt><trkpt lat="45.2239426598" lon="39.6389907226"><ele>79.93</ele><time>2018-09-16T02:09:04Z</time></trkpt><trkpt lat="45.2239789534" lon="39.6389597934"><ele>79.93</ele><time>2018-09-16T02:09:05Z</time></trkpt><trkpt lat="45.2240132354" lon="39.6389265172"><ele>80.41</ele><time>2018-09-16T02:09:06Z</time></trkpt><trkpt lat="45.2241453342" lon="39.6387404390"><ele>79.93</ele><time>2018-09-16T02:09:10Z</time></trkpt><trkpt lat="45.2241735812" lon="39.6386796702"><ele>79.93</ele><time>2018-09-16T02:09:11Z</time></trkpt><trkpt lat="45.2241943683" lon="39.6386162192"><ele>79.93</ele><time>2018-09-16T02:09:12Z</time></trkpt><trkpt lat="45.2242081985" lon="39.6385531034"><ele>79.93</ele><time>2018-09-16T02:09:13Z</time></trkpt><trkpt lat="45.2242175862" lon="39.6384926699"><ele>80.41</ele><time>2018-09-16T02:09:14Z</time></trkpt><trkpt lat="45.2242245432" lon="39.6384246089"><ele>79.93</ele><time>2018-09-16T02:09:15Z</time></trkpt><trkpt lat="45.2242269740" lon="39.6383659355"><ele>79.93</ele><time>2018-09-16T02:09:16Z</time></trkpt><trkpt lat="45.2242242079" lon="39.6382995509"><ele>79.93</ele><time>2018-09-16T02:09:17Z</time></trkpt><trkpt lat="45.2242219448" lon="39.6382423863"><ele>79.93</ele><time>2018-09-16T02:09:18Z</time></trkpt><trkpt lat="45.2242178377" lon="39.6381760016"><ele>79.45</ele><time>2018-09-16T02:09:19Z</time></trkpt><trkpt lat="45.2242107969" lon="39.6381133888"><ele>79.45</ele><time>2018-09-16T02:09:20Z</time></trkpt><trkpt lat="45.2239590045" lon="39.6376200300"><ele>79.45</ele><time>2018-09-16T02:09:32Z</time></trkpt><trkpt lat="45.2235543262" lon="39.6374933794"><ele>78.97</ele><time>2018-09-16T02:09:44Z</time></trkpt><trkpt lat="45.2231153660" lon="39.6376308426"><ele>78.97</ele><time>2018-09-16T02:09:57Z</time></trkpt><trkpt lat="45.2225950174" lon="39.6374896076"><ele>78.97</ele><time>2018-09-16T02:10:11Z</time></trkpt><trkpt lat="45.2221670374" lon="39.6372055449"><ele>79.93</ele><time>2018-09-16T02:10:25Z</time></trkpt><trkpt lat="45.2218122315" lon="39.6367327217"><ele>79.93</ele><time>2018-09-16T02:10:38Z</time></trkpt><trkpt lat="45.2214929648" lon="39.6360893268"><ele>78.97</ele><time>2018-09-16T02:10:52Z</time></trkpt><trkpt lat="45.2212714311" lon="39.6351932175"><ele>78.48</ele><time>2018-09-16T02:11:08Z</time></trkpt><trkpt lat="45.2212501410" lon="39.6348904632"><ele>78.00</ele><time>2018-09-16T02:11:13Z</time></trkpt><trkpt lat="45.2212473750" lon="39.6348271798"><ele>78.00</ele><time>2018-09-16T02:11:14Z</time></trkpt><trkpt lat="45.2212503087" lon="39.6338504367"><ele>78.48</ele><time>2018-09-16T02:11:31Z</time></trkpt><trkpt lat="45.2212771308" lon="39.6328990068"><ele>78.00</ele><time>2018-09-16T02:11:47Z</time></trkpt><trkpt lat="45.2212723531" lon="39.6325922292"><ele>77.04</ele><time>2018-09-16T02:11:52Z</time></trkpt><trkpt lat="45.2212780528" lon="39.6325473860"><ele>77.04</ele><time>2018-09-16T02:11:53Z</time></trkpt><trkpt lat="45.2212771308" lon="39.6325102542"><ele>76.56</ele><time>2018-09-16T02:11:54Z</time></trkpt><trkpt lat="45.2212823275" lon="39.6319237724"><ele>76.08</ele><time>2018-09-16T02:12:07Z</time></trkpt><trkpt lat="45.2213311102" lon="39.6309616975"><ele>75.60</ele><time>2018-09-16T02:12:22Z</time></trkpt><trkpt lat="45.2213222254" lon="39.6306968294"><ele>75.12</ele><time>2018-09-16T02:12:26Z</time></trkpt><trkpt lat="45.2213349659" lon="39.6293820441"><ele>72.72</ele><time>2018-09-16T02:12:45Z</time></trkpt><trkpt lat="45.2213394921" lon="39.6281241719"><ele>72.72</ele><time>2018-09-16T02:13:03Z</time></trkpt><trkpt lat="45.2213979978" lon="39.6270973887"><ele>72.72</ele><time>2018-09-16T02:13:20Z</time></trkpt><trkpt lat="45.2213932201" lon="39.6271032561"><ele>75.12</ele><time>2018-09-16T02:13:36Z</time></trkpt><trkpt lat="45.2213955671" lon="39.6271106321"><ele>74.16</ele><time>2018-09-16T02:14:15Z</time></trkpt><trkpt lat="45.2213876043" lon="39.6270946227"><ele>76.56</ele><time>2018-09-16T02:14:44Z</time></trkpt><trkpt lat="45.2213751152" lon="39.6270626038"><ele>77.52</ele><time>2018-09-16T02:14:59Z</time></trkpt><trkpt lat="45.2213864308" lon="39.6267481986"><ele>77.52</ele><time>2018-09-16T02:15:10Z</time></trkpt><trkpt lat="45.2214040328" lon="39.6260081604"><ele>77.04</ele><time>2018-09-16T02:15:25Z</time></trkpt><trkpt lat="45.2214009315" lon="39.6256215032"><ele>77.04</ele><time>2018-09-16T02:15:32Z</time></trkpt><trkpt lat="45.2213636320" lon="39.6245621145"><ele>76.08</ele><time>2018-09-16T02:15:48Z</time></trkpt><trkpt lat="45.2212808188" lon="39.6231750771"><ele>75.12</ele><time>2018-09-16T02:16:07Z</time></trkpt><trkpt lat="45.2212007716" lon="39.6219588630"><ele>75.12</ele><time>2018-09-16T02:16:24Z</time></trkpt><trkpt lat="45.2211105824" lon="39.6205188520"><ele>74.64</ele><time>2018-09-16T02:16:43Z</time></trkpt><trkpt lat="45.2209947444" lon="39.6188684553"><ele>73.68</ele><time>2018-09-16T02:17:04Z</time></trkpt><trkpt lat="45.2209214028" lon="39.6175923944"><ele>72.72</ele><time>2018-09-16T02:17:21Z</time></trkpt><trkpt lat="45.2208431996" lon="39.6164081153"><ele>73.20</ele><time>2018-09-16T02:17:37Z</time></trkpt><trkpt lat="45.2207266074" lon="39.6147526056"><ele>73.20</ele><time>2018-09-16T02:17:59Z</time></trkpt><trkpt lat="45.2206275333" lon="39.6133835055"><ele>72.24</ele><time>2018-09-16T02:18:18Z</time></trkpt><trkpt lat="45.2205194067" lon="39.6119300835"><ele>72.24</ele><time>2018-09-16T02:18:38Z</time></trkpt><trkpt lat="45.2204029821" lon="39.6104409546"><ele>73.20</ele><time>2018-09-16T02:18:58Z</time></trkpt><trkpt lat="45.2203019802" lon="39.6091365628"><ele>73.68</ele><time>2018-09-16T02:19:16Z</time></trkpt><trkpt lat="45.2202215977" lon="39.6080474183"><ele>73.68</ele><time>2018-09-16T02:19:31Z</time></trkpt><trkpt lat="45.2201215178" lon="39.6068332158"><ele>72.72</ele><time>2018-09-16T02:19:48Z</time></trkpt><trkpt lat="45.2200163249" lon="39.6053497866"><ele>71.76</ele><time>2018-09-16T02:20:08Z</time></trkpt><trkpt lat="45.2199072763" lon="39.6039018128"><ele>71.27</ele><time>2018-09-16T02:20:27Z</time></trkpt><trkpt lat="45.2198151592" lon="39.6023721993"><ele>71.27</ele><time>2018-09-16T02:20:47Z</time></trkpt><trkpt lat="45.2197100502" lon="39.6010745969"><ele>71.76</ele><time>2018-09-16T02:21:05Z</time></trkpt><trkpt lat="45.2196018398" lon="39.5996679459"><ele>71.27</ele><time>2018-09-16T02:21:23Z</time></trkpt><trkpt lat="45.2194777038" lon="39.5984085649"><ele>71.27</ele><time>2018-09-16T02:21:40Z</time></trkpt><trkpt lat="45.2194541506" lon="39.5982079860"><ele>71.27</ele><time>2018-09-16T02:21:43Z</time></trkpt><trkpt lat="45.2193426713" lon="39.5968304202"><ele>71.76</ele><time>2018-09-16T02:22:02Z</time></trkpt><trkpt lat="45.2192474529" lon="39.5956283715"><ele>72.24</ele><time>2018-09-16T02:22:19Z</time></trkpt><trkpt lat="45.2191586047" lon="39.5944704115"><ele>72.24</ele><time>2018-09-16T02:22:35Z</time></trkpt><trkpt lat="45.2190328762" lon="39.5928947814"><ele>71.27</ele><time>2018-09-16T02:22:56Z</time></trkpt><trkpt lat="45.2189308684" lon="39.5917105861"><ele>71.27</ele><time>2018-09-16T02:23:12Z</time></trkpt><trkpt lat="45.2188171260" lon="39.5903327689"><ele>70.79</ele><time>2018-09-16T02:23:31Z</time></trkpt><trkpt lat="45.2187359054" lon="39.5894949138"><ele>69.83</ele><time>2018-09-16T02:23:43Z</time></trkpt><trkpt lat="45.2187303733" lon="39.5894316304"><ele>69.83</ele><time>2018-09-16T02:23:44Z</time></trkpt><trkpt lat="45.2187188063" lon="39.5893073268"><ele>69.83</ele><time>2018-09-16T02:23:46Z</time></trkpt><trkpt lat="45.2187156212" lon="39.5892463066"><ele>69.83</ele><time>2018-09-16T02:23:47Z</time></trkpt><trkpt lat="45.2186669223" lon="39.5881315973"><ele>69.35</ele><time>2018-09-16T02:24:03Z</time></trkpt><trkpt lat="45.2186731249" lon="39.5877707563"><ele>68.39</ele><time>2018-09-16T02:24:08Z</time></trkpt><trkpt lat="45.2186754718" lon="39.5876383223"><ele>68.39</ele><time>2018-09-16T02:24:10Z</time></trkpt><trkpt lat="45.2187776472" lon="39.5864697173"><ele>70.31</ele><time>2018-09-16T02:24:27Z</time></trkpt><trkpt lat="45.2189255040" lon="39.5853133500"><ele>71.76</ele><time>2018-09-16T02:24:43Z</time></trkpt><trkpt lat="45.2189632226" lon="39.5850395132"><ele>71.76</ele><time>2018-09-16T02:24:47Z</time></trkpt><trkpt lat="45.2190240752" lon="39.5845095254"><ele>71.27</ele><time>2018-09-16T02:24:55Z</time></trkpt><trkpt lat="45.2190846764" lon="39.5838373806"><ele>71.76</ele><time>2018-09-16T02:25:06Z</time></trkpt><trkpt lat="45.2190286014" lon="39.5828470588"><ele>73.20</ele><time>2018-09-16T02:25:22Z</time></trkpt><trkpt lat="45.2189881168" lon="39.5821455773"><ele>75.12</ele><time>2018-09-16T02:25:33Z</time></trkpt><trkpt lat="45.2189363167" lon="39.5810296945"><ele>75.60</ele><time>2018-09-16T02:25:49Z</time></trkpt><trkpt lat="45.2188955806" lon="39.5806439593"><ele>75.12</ele><time>2018-09-16T02:25:55Z</time></trkpt><trkpt lat="45.2188965864" lon="39.5805841964"><ele>75.12</ele><time>2018-09-16T02:25:56Z</time></trkpt><trkpt lat="45.2188971732" lon="39.5805292111"><ele>75.12</ele><time>2018-09-16T02:25:57Z</time></trkpt><trkpt lat="45.2188855223" lon="39.5802867226"><ele>75.12</ele><time>2018-09-16T02:26:01Z</time></trkpt><trkpt lat="45.2188265976" lon="39.5791990869"><ele>75.60</ele><time>2018-09-16T02:26:18Z</time></trkpt><trkpt lat="45.2187567763" lon="39.5779296476"><ele>76.08</ele><time>2018-09-16T02:26:36Z</time></trkpt><trkpt lat="45.2187001146" lon="39.5767820813"><ele>76.08</ele><time>2018-09-16T02:26:52Z</time></trkpt><trkpt lat="45.2186415251" lon="39.5756450761"><ele>73.68</ele><time>2018-09-16T02:27:08Z</time></trkpt><trkpt lat="45.2185815107" lon="39.5746511500"><ele>73.20</ele><time>2018-09-16T02:27:21Z</time></trkpt><trkpt lat="45.2185126115" lon="39.5734231174"><ele>73.20</ele><time>2018-09-16T02:27:37Z</time></trkpt><trkpt lat="45.2184548602" lon="39.5723424386"><ele>73.20</ele><time>2018-09-16T02:27:54Z</time></trkpt><trkpt lat="45.2184181474" lon="39.5715881512"><ele>72.72</ele><time>2018-09-16T02:28:09Z</time></trkpt><trkpt lat="45.2183638327" lon="39.5708198659"><ele>72.24</ele><time>2018-09-16T02:28:23Z</time></trkpt><trkpt lat="45.2183345798" lon="39.5705608651"><ele>72.24</ele><time>2018-09-16T02:28:27Z</time></trkpt><trkpt lat="45.2182214241" lon="39.5695272926"><ele>72.24</ele><time>2018-09-16T02:28:42Z</time></trkpt><trkpt lat="45.2181340847" lon="39.5689189341"><ele>71.76</ele><time>2018-09-16T02:28:51Z</time></trkpt><trkpt lat="45.2181044966" lon="39.5686915331"><ele>71.27</ele><time>2018-09-16T02:28:55Z</time></trkpt><trkpt lat="45.2180019859" lon="39.5677863713"><ele>71.27</ele><time>2018-09-16T02:29:10Z</time></trkpt><trkpt lat="45.2178994752" lon="39.5669240411"><ele>71.76</ele><time>2018-09-16T02:29:25Z</time></trkpt><trkpt lat="45.2177811228" lon="39.5659395866"><ele>71.76</ele><time>2018-09-16T02:29:42Z</time></trkpt><trkpt lat="45.2176707331" lon="39.5651143044"><ele>72.72</ele><time>2018-09-16T02:29:56Z</time></trkpt><trkpt lat="45.2175136562" lon="39.5640169457"><ele>72.72</ele><time>2018-09-16T02:30:13Z</time></trkpt><trkpt lat="45.2172141708" lon="39.5630731434"><ele>72.24</ele><time>2018-09-16T02:30:29Z</time></trkpt><trkpt lat="45.2171874326" lon="39.5630196668"><ele>72.24</ele><time>2018-09-16T02:30:30Z</time></trkpt><trkpt lat="45.2171608619" lon="39.5629663579"><ele>72.24</ele><time>2018-09-16T02:30:31Z</time></trkpt><trkpt lat="45.2166272700" lon="39.5619673189"><ele>71.27</ele><time>2018-09-16T02:30:49Z</time></trkpt><trkpt lat="45.2161246911" lon="39.5610640012"><ele>70.79</ele><time>2018-09-16T02:31:04Z</time></trkpt><trkpt lat="45.2159407921" lon="39.5607184153"><ele>70.31</ele><time>2018-09-16T02:31:10Z</time></trkpt><trkpt lat="45.2159112040" lon="39.5606695488"><ele>69.83</ele><time>2018-09-16T02:31:11Z</time></trkpt><trkpt lat="45.2158834599" lon="39.5606145635"><ele>69.83</ele><time>2018-09-16T02:31:12Z</time></trkpt><trkpt lat="45.2154693101" lon="39.5597836655"><ele>68.87</ele><time>2018-09-16T02:31:26Z</time></trkpt><trkpt lat="45.2149400767" lon="39.5587633364"><ele>68.39</ele><time>2018-09-16T02:31:44Z</time></trkpt><trkpt lat="45.2145480551" lon="39.5579603501"><ele>67.91</ele><time>2018-09-16T02:31:59Z</time></trkpt><trkpt lat="45.2140848711" lon="39.5570717845"><ele>67.91</ele><time>2018-09-16T02:32:16Z</time></trkpt><trkpt lat="45.2136827074" lon="39.5562918484"><ele>67.91</ele><time>2018-09-16T02:32:31Z</time></trkpt><trkpt lat="45.2132155839" lon="39.5553886145"><ele>67.91</ele><time>2018-09-16T02:32:48Z</time></trkpt><trkpt lat="45.2127390727" lon="39.5544654317"><ele>67.91</ele><time>2018-09-16T02:33:06Z</time></trkpt><trkpt lat="45.2122856118" lon="39.5536187757"><ele>67.91</ele><time>2018-09-16T02:33:22Z</time></trkpt><trkpt lat="45.2118846215" lon="39.5528409351"><ele>67.91</ele><time>2018-09-16T02:33:36Z</time></trkpt><trkpt lat="45.2114293166" lon="39.5519726537"><ele>68.39</ele><time>2018-09-16T02:33:53Z</time></trkpt><trkpt lat="45.2110188548" lon="39.5511500537"><ele>68.87</ele><time>2018-09-16T02:34:09Z</time></trkpt><trkpt lat="45.2105484623" lon="39.5502417907"><ele>70.31</ele><time>2018-09-16T02:34:26Z</time></trkpt><trkpt lat="45.2102369070" lon="39.5496438257"><ele>69.83</ele><time>2018-09-16T02:34:39Z</time></trkpt><trkpt lat="45.2097879723" lon="39.5487775560"><ele>68.87</ele><time>2018-09-16T02:34:56Z</time></trkpt><trkpt lat="45.2097591385" lon="39.5487208106"><ele>68.87</ele><time>2018-09-16T02:34:57Z</time></trkpt><trkpt lat="45.2093757503" lon="39.5479914173"><ele>68.39</ele><time>2018-09-16T02:35:11Z</time></trkpt><trkpt lat="45.2090042643" lon="39.5472958870"><ele>68.39</ele><time>2018-09-16T02:35:25Z</time></trkpt><trkpt lat="45.2085479535" lon="39.5464323834"><ele>67.91</ele><time>2018-09-16T02:35:42Z</time></trkpt><trkpt lat="45.2081639785" lon="39.5457536168"><ele>67.91</ele><time>2018-09-16T02:35:55Z</time></trkpt><trkpt lat="45.2081392519" lon="39.5457026549"><ele>67.91</ele><time>2018-09-16T02:35:56Z</time></trkpt><trkpt lat="45.2076531015" lon="39.5447589364"><ele>67.91</ele><time>2018-09-16T02:36:14Z</time></trkpt><trkpt lat="45.2074410394" lon="39.5443713572"><ele>68.39</ele><time>2018-09-16T02:36:22Z</time></trkpt><trkpt lat="45.2069771849" lon="39.5434669498"><ele>67.91</ele><time>2018-09-16T02:36:39Z</time></trkpt><trkpt lat="45.2066554874" lon="39.5428517181"><ele>67.43</ele><time>2018-09-16T02:36:51Z</time></trkpt><trkpt lat="45.2066270728" lon="39.5428032707"><ele>67.43</ele><time>2018-09-16T02:36:52Z</time></trkpt><trkpt lat="45.2061817423" lon="39.5419478975"><ele>68.39</ele><time>2018-09-16T02:37:09Z</time></trkpt><trkpt lat="45.2056788281" lon="39.5410879143"><ele>68.39</ele><time>2018-09-16T02:37:26Z</time></trkpt><trkpt lat="45.2055230085" lon="39.5408450905"><ele>68.87</ele><time>2018-09-16T02:37:31Z</time></trkpt><trkpt lat="45.2054932527" lon="39.5408005826"><ele>68.87</ele><time>2018-09-16T02:37:32Z</time></trkpt><trkpt lat="45.2048560604" lon="39.5398450457"><ele>68.87</ele><time>2018-09-16T02:37:52Z</time></trkpt><trkpt lat="45.2042787150" lon="39.5390014071"><ele>68.87</ele><time>2018-09-16T02:38:09Z</time></trkpt><trkpt lat="45.2036737930" lon="39.5381115843"><ele>68.39</ele><time>2018-09-16T02:38:27Z</time></trkpt><trkpt lat="45.2031025663" lon="39.5372646768"><ele>68.87</ele><time>2018-09-16T02:38:44Z</time></trkpt><trkpt lat="45.2025616821" lon="39.5364766102"><ele>68.39</ele><time>2018-09-16T02:39:01Z</time></trkpt><trkpt lat="45.2019175328" lon="39.5355164632"><ele>68.87</ele><time>2018-09-16T02:39:21Z</time></trkpt><trkpt lat="45.2012596373" lon="39.5345507003"><ele>68.87</ele><time>2018-09-16T02:39:41Z</time></trkpt><trkpt lat="45.2007976267" lon="39.5338793937"><ele>69.35</ele><time>2018-09-16T02:39:56Z</time></trkpt><trkpt lat="45.2001840714" lon="39.5329721365"><ele>69.35</ele><time>2018-09-16T02:40:15Z</time></trkpt><trkpt lat="45.1995767187" lon="39.5320668072"><ele>69.83</ele><time>2018-09-16T02:40:34Z</time></trkpt><trkpt lat="45.1990823541" lon="39.5313284453"><ele>69.83</ele><time>2018-09-16T02:40:50Z</time></trkpt><trkpt lat="45.1985904202" lon="39.5305524487"><ele>69.35</ele><time>2018-09-16T02:41:06Z</time></trkpt><trkpt lat="45.1980707422" lon="39.5296490472"><ele>68.87</ele><time>2018-09-16T02:41:23Z</time></trkpt><trkpt lat="45.1974871103" lon="39.5285847131"><ele>68.39</ele><time>2018-09-16T02:41:42Z</time></trkpt><trkpt lat="45.1969783287" lon="39.5276508015"><ele>68.39</ele><time>2018-09-16T02:41:59Z</time></trkpt><trkpt lat="45.1966049988" lon="39.5269768964"><ele>68.39</ele><time>2018-09-16T02:42:13Z</time></trkpt><trkpt lat="45.1961377915" lon="39.5261132251"><ele>68.39</ele><time>2018-09-16T02:42:30Z</time></trkpt><trkpt lat="45.1956187002" lon="39.5251655672"><ele>67.91</ele><time>2018-09-16T02:42:47Z</time></trkpt><trkpt lat="45.1952545065" lon="39.5244874712"><ele>67.43</ele><time>2018-09-16T02:42:59Z</time></trkpt><trkpt lat="45.1952278521" lon="39.5244355872"><ele>67.43</ele><time>2018-09-16T02:43:00Z</time></trkpt><trkpt lat="45.1947255246" lon="39.5235191938"><ele>67.43</ele><time>2018-09-16T02:43:17Z</time></trkpt><trkpt lat="45.1941676252" lon="39.5224909019"><ele>67.43</ele><time>2018-09-16T02:43:36Z</time></trkpt><trkpt lat="45.1936771162" lon="39.5215891767"><ele>67.43</ele><time>2018-09-16T02:43:53Z</time></trkpt><trkpt lat="45.1930826716" lon="39.5205117669"><ele>66.95</ele><time>2018-09-16T02:44:13Z</time></trkpt><trkpt lat="45.1925527677" lon="39.5195402205"><ele>67.43</ele><time>2018-09-16T02:44:31Z</time></trkpt><trkpt lat="45.1919465885" lon="39.5184392575"><ele>66.95</ele><time>2018-09-16T02:44:52Z</time></trkpt><trkpt lat="45.1914257370" lon="39.5174851455"><ele>67.43</ele><time>2018-09-16T02:45:11Z</time></trkpt><trkpt lat="45.1909153629" lon="39.5165562630"><ele>67.91</ele><time>2018-09-16T02:45:29Z</time></trkpt><trkpt lat="45.1904514246" lon="39.5157223474"><ele>67.91</ele><time>2018-09-16T02:45:46Z</time></trkpt><trkpt lat="45.1904260274" lon="39.5156736486"><ele>67.91</ele><time>2018-09-16T02:45:47Z</time></trkpt><trkpt lat="45.1899734885" lon="39.5148380566"><ele>68.39</ele><time>2018-09-16T02:46:03Z</time></trkpt><trkpt lat="45.1899183355" lon="39.5147424191"><ele>68.39</ele><time>2018-09-16T02:46:05Z</time></trkpt><trkpt lat="45.1893950533" lon="39.5137937553"><ele>67.91</ele><time>2018-09-16T02:46:23Z</time></trkpt><trkpt lat="45.1888064761" lon="39.5127223805"><ele>67.91</ele><time>2018-09-16T02:46:42Z</time></trkpt><trkpt lat="45.1882449724" lon="39.5116902329"><ele>67.91</ele><time>2018-09-16T02:47:01Z</time></trkpt><trkpt lat="45.1877580676" lon="39.5108033437"><ele>67.43</ele><time>2018-09-16T02:47:18Z</time></trkpt><trkpt lat="45.1872031856" lon="39.5098061487"><ele>67.43</ele><time>2018-09-16T02:47:37Z</time></trkpt><trkpt lat="45.1867312845" lon="39.5089676231"><ele>67.43</ele><time>2018-09-16T02:47:53Z</time></trkpt><trkpt lat="45.1861775760" lon="39.5079669915"><ele>66.47</ele><time>2018-09-16T02:48:12Z</time></trkpt><trkpt lat="45.1856471691" lon="39.5069869794"><ele>66.47</ele><time>2018-09-16T02:48:31Z</time></trkpt><trkpt lat="45.1851250604" lon="39.5060311910"><ele>66.47</ele><time>2018-09-16T02:48:49Z</time></trkpt><trkpt lat="45.1846582722" lon="39.5051893126"><ele>65.99</ele><time>2018-09-16T02:49:06Z</time></trkpt><trkpt lat="45.1842015423" lon="39.5043506194"><ele>65.51</ele><time>2018-09-16T02:49:22Z</time></trkpt><trkpt lat="45.1837047469" lon="39.5034265984"><ele>65.99</ele><time>2018-09-16T02:49:40Z</time></trkpt><trkpt lat="45.1832211949" lon="39.5025441516"><ele>65.51</ele><time>2018-09-16T02:49:56Z</time></trkpt><trkpt lat="45.1826560870" lon="39.5015000179"><ele>65.99</ele><time>2018-09-16T02:50:15Z</time></trkpt><trkpt lat="45.1823451184" lon="39.5009393524"><ele>66.95</ele><time>2018-09-16T02:50:26Z</time></trkpt><trkpt lat="45.1818189025" lon="39.4999761879"><ele>67.43</ele><time>2018-09-16T02:50:45Z</time></trkpt><trkpt lat="45.1812892500" lon="39.4990229979"><ele>67.91</ele><time>2018-09-16T02:51:04Z</time></trkpt><trkpt lat="45.1808537263" lon="39.4982325844"><ele>67.91</ele><time>2018-09-16T02:51:19Z</time></trkpt><trkpt lat="45.1803683303" lon="39.4973237347"><ele>67.43</ele><time>2018-09-16T02:51:37Z</time></trkpt><trkpt lat="45.1797924098" lon="39.4962733984"><ele>67.43</ele><time>2018-09-16T02:51:57Z</time></trkpt><trkpt lat="45.1792587340" lon="39.4952713419"><ele>66.47</ele><time>2018-09-16T02:52:15Z</time></trkpt><trkpt lat="45.1787613519" lon="39.4943396095"><ele>67.43</ele><time>2018-09-16T02:52:32Z</time></trkpt><trkpt lat="45.1784514729" lon="39.4937496912"><ele>67.43</ele><time>2018-09-16T02:52:43Z</time></trkpt><trkpt lat="45.1779354829" lon="39.4927813299"><ele>67.91</ele><time>2018-09-16T02:53:02Z</time></trkpt><trkpt lat="45.1774221752" lon="39.4918024074"><ele>67.91</ele><time>2018-09-16T02:53:20Z</time></trkpt><trkpt lat="45.1768286526" lon="39.4906948227"><ele>67.43</ele><time>2018-09-16T02:53:41Z</time></trkpt><trkpt lat="45.1764616091" lon="39.4900292996"><ele>66.95</ele><time>2018-09-16T02:53:55Z</time></trkpt><trkpt lat="45.1762578450" lon="39.4896751642"><ele>65.99</ele><time>2018-09-16T02:54:02Z</time></trkpt><trkpt lat="45.1762280893" lon="39.4896218553"><ele>65.99</ele><time>2018-09-16T02:54:03Z</time></trkpt><trkpt lat="45.1758326311" lon="39.4888501335"><ele>66.47</ele><time>2018-09-16T02:54:17Z</time></trkpt><trkpt lat="45.1753105223" lon="39.4878939260"><ele>65.03</ele><time>2018-09-16T02:54:34Z</time></trkpt><trkpt lat="45.1748059317" lon="39.4869782031"><ele>64.55</ele><time>2018-09-16T02:54:52Z</time></trkpt><trkpt lat="45.1746804547" lon="39.4867534842"><ele>64.55</ele><time>2018-09-16T02:54:57Z</time></trkpt><trkpt lat="45.1744398940" lon="39.4862983469"><ele>65.51</ele><time>2018-09-16T02:55:06Z</time></trkpt><trkpt lat="45.1740083937" lon="39.4854874816"><ele>65.99</ele><time>2018-09-16T02:55:22Z</time></trkpt><trkpt lat="45.1734753046" lon="39.4845126662"><ele>65.99</ele><time>2018-09-16T02:55:41Z</time></trkpt><trkpt lat="45.1730125397" lon="39.4836721290"><ele>65.03</ele><time>2018-09-16T02:55:57Z</time></trkpt><trkpt lat="45.1725828834" lon="39.4828851521"><ele>64.55</ele><time>2018-09-16T02:56:12Z</time></trkpt><trkpt lat="45.1721015107" lon="39.4819965865"><ele>63.58</ele><time>2018-09-16T02:56:29Z</time></trkpt><trkpt lat="45.1717509795" lon="39.4813638367"><ele>62.62</ele><time>2018-09-16T02:56:42Z</time></trkpt><trkpt lat="45.1713299565" lon="39.4805837329"><ele>62.14</ele><time>2018-09-16T02:56:57Z</time></trkpt><trkpt lat="45.1708418783" lon="39.4796887133"><ele>62.62</ele><time>2018-09-16T02:57:14Z</time></trkpt><trkpt lat="45.1704059355" lon="39.4788770936"><ele>62.14</ele><time>2018-09-16T02:57:30Z</time></trkpt><trkpt lat="45.1699247304" lon="39.4779897016"><ele>63.58</ele><time>2018-09-16T02:57:47Z</time></trkpt><trkpt lat="45.1693568565" lon="39.4769415446"><ele>62.62</ele><time>2018-09-16T02:58:06Z</time></trkpt><trkpt lat="45.1689225901" lon="39.4761404861"><ele>62.14</ele><time>2018-09-16T02:58:21Z</time></trkpt><trkpt lat="45.1685179118" lon="39.4753887970"><ele>61.18</ele><time>2018-09-16T02:58:36Z</time></trkpt><trkpt lat="45.1680165902" lon="39.4744605012"><ele>60.70</ele><time>2018-09-16T02:58:54Z</time></trkpt><trkpt lat="45.1675278414" lon="39.4735457003"><ele>60.70</ele><time>2018-09-16T02:59:11Z</time></trkpt><trkpt lat="45.1673829183" lon="39.4732887112"><ele>60.22</ele><time>2018-09-16T02:59:16Z</time></trkpt><trkpt lat="45.1673530787" lon="39.4732338097"><ele>60.70</ele><time>2018-09-16T02:59:17Z</time></trkpt><trkpt lat="45.1668982767" lon="39.4723933563"><ele>60.70</ele><time>2018-09-16T02:59:34Z</time></trkpt><trkpt lat="45.1665072609" lon="39.4716827385"><ele>61.18</ele><time>2018-09-16T02:59:50Z</time></trkpt><trkpt lat="45.1660735812" lon="39.4708694424"><ele>61.66</ele><time>2018-09-16T03:00:06Z</time></trkpt><trkpt lat="45.1656362973" lon="39.4700745866"><ele>61.66</ele><time>2018-09-16T03:00:22Z</time></trkpt><trkpt lat="45.1656134985" lon="39.4700259715"><ele>61.66</ele><time>2018-09-16T03:00:23Z</time></trkpt><trkpt lat="45.1655907836" lon="39.4699739199"><ele>61.66</ele><time>2018-09-16T03:00:24Z</time></trkpt><trkpt lat="45.1655650511" lon="39.4699248020"><ele>61.66</ele><time>2018-09-16T03:00:25Z</time></trkpt><trkpt lat="45.1651510689" lon="39.4691631384"><ele>61.18</ele><time>2018-09-16T03:00:41Z</time></trkpt><trkpt lat="45.1646727975" lon="39.4682797696"><ele>61.18</ele><time>2018-09-16T03:00:59Z</time></trkpt><trkpt lat="45.1643549558" lon="39.4676864147"><ele>61.66</ele><time>2018-09-16T03:01:11Z</time></trkpt><trkpt lat="45.1638139877" lon="39.4666730426"><ele>61.66</ele><time>2018-09-16T03:01:31Z</time></trkpt><trkpt lat="45.1633981615" lon="39.4659051765"><ele>60.70</ele><time>2018-09-16T03:01:46Z</time></trkpt><trkpt lat="45.1629441138" lon="39.4650511444"><ele>60.22</ele><time>2018-09-16T03:02:02Z</time></trkpt><trkpt lat="45.1624239329" lon="39.4641036540"><ele>60.70</ele><time>2018-09-16T03:02:20Z</time></trkpt><trkpt lat="45.1618998125" lon="39.4631418306"><ele>60.70</ele><time>2018-09-16T03:02:38Z</time></trkpt><trkpt lat="45.1614258997" lon="39.4622636586"><ele>60.22</ele><time>2018-09-16T03:02:55Z</time></trkpt><trkpt lat="45.1609035395" lon="39.4613083731"><ele>59.74</ele><time>2018-09-16T03:03:14Z</time></trkpt><trkpt lat="45.1604753919" lon="39.4605158642"><ele>59.74</ele><time>2018-09-16T03:03:29Z</time></trkpt><trkpt lat="45.1600784250" lon="39.4597790949"><ele>60.22</ele><time>2018-09-16T03:03:44Z</time></trkpt><trkpt lat="45.1596294064" lon="39.4589691516"><ele>59.26</ele><time>2018-09-16T03:04:00Z</time></trkpt><trkpt lat="45.1592527237" lon="39.4582893793"><ele>58.78</ele><time>2018-09-16T03:04:14Z</time></trkpt><trkpt lat="45.1587979216" lon="39.4574607443"><ele>58.78</ele><time>2018-09-16T03:04:30Z</time></trkpt><trkpt lat="45.1587131806" lon="39.4573167432"><ele>59.26</ele><time>2018-09-16T03:04:33Z</time></trkpt><trkpt lat="45.1583033893" lon="39.4565769564"><ele>58.78</ele><time>2018-09-16T03:04:48Z</time></trkpt><trkpt lat="45.1578798518" lon="39.4558098447"><ele>59.74</ele><time>2018-09-16T03:05:04Z</time></trkpt><trkpt lat="45.1573641133" lon="39.4548641983"><ele>59.74</ele><time>2018-09-16T03:05:22Z</time></trkpt><trkpt lat="45.1571814716" lon="39.4545356277"><ele>59.74</ele><time>2018-09-16T03:05:29Z</time></trkpt><trkpt lat="45.1571553200" lon="39.4544930477"><ele>59.74</ele><time>2018-09-16T03:05:30Z</time></trkpt><trkpt lat="45.1569986623" lon="39.4542006869"><ele>60.22</ele><time>2018-09-16T03:05:36Z</time></trkpt><trkpt lat="45.1565970015" lon="39.4534554519"><ele>60.70</ele><time>2018-09-16T03:05:52Z</time></trkpt><trkpt lat="45.1561026368" lon="39.4525637012"><ele>60.70</ele><time>2018-09-16T03:06:10Z</time></trkpt><trkpt lat="45.1556834579" lon="39.4518002775"><ele>60.70</ele><time>2018-09-16T03:06:26Z</time></trkpt><trkpt lat="45.1552220341" lon="39.4509683736"><ele>60.22</ele><time>2018-09-16T03:06:43Z</time></trkpt><trkpt lat="45.1550623588" lon="39.4506828859"><ele>59.74</ele><time>2018-09-16T03:06:49Z</time></trkpt><trkpt lat="45.1550350338" lon="39.4506309181"><ele>59.74</ele><time>2018-09-16T03:06:50Z</time></trkpt><trkpt lat="45.1550073735" lon="39.4505782798"><ele>59.74</ele><time>2018-09-16T03:06:51Z</time></trkpt><trkpt lat="45.1549776178" lon="39.4505221210"><ele>59.74</ele><time>2018-09-16T03:06:52Z</time></trkpt><trkpt lat="45.1549471077" lon="39.4504687283"><ele>59.74</ele><time>2018-09-16T03:06:53Z</time></trkpt><trkpt lat="45.1548546553" lon="39.4503126573"><ele>59.74</ele><time>2018-09-16T03:06:56Z</time></trkpt><trkpt lat="45.1544314530" lon="39.4495369960"><ele>59.26</ele><time>2018-09-16T03:07:12Z</time></trkpt><trkpt lat="45.1539026387" lon="39.4485853147"><ele>59.74</ele><time>2018-09-16T03:07:31Z</time></trkpt><trkpt lat="45.1534164045" lon="39.4476954080"><ele>58.78</ele><time>2018-09-16T03:07:50Z</time></trkpt><trkpt lat="45.1529370435" lon="39.4468557928"><ele>58.78</ele><time>2018-09-16T03:08:07Z</time></trkpt><trkpt lat="45.1526255719" lon="39.4462748431"><ele>58.78</ele><time>2018-09-16T03:08:18Z</time></trkpt><trkpt lat="45.1521299500" lon="39.4453726150"><ele>59.26</ele><time>2018-09-16T03:08:36Z</time></trkpt><trkpt lat="45.1517320611" lon="39.4446432218"><ele>60.22</ele><time>2018-09-16T03:08:50Z</time></trkpt><trkpt lat="45.1512450725" lon="39.4437699113"><ele>60.22</ele><time>2018-09-16T03:09:07Z</time></trkpt><trkpt lat="45.1509071980" lon="39.4431402627"><ele>59.74</ele><time>2018-09-16T03:09:22Z</time></trkpt><trkpt lat="45.1509021688" lon="39.4431234151"><ele>60.22</ele><time>2018-09-16T03:09:33Z</time></trkpt><trkpt lat="45.1509041805" lon="39.4431272708"><ele>59.74</ele><time>2018-09-16T03:10:04Z</time></trkpt><trkpt lat="45.1508932840" lon="39.4431232475"><ele>59.26</ele><time>2018-09-16T03:10:29Z</time></trkpt><trkpt lat="45.1507757697" lon="39.4429209922"><ele>60.22</ele><time>2018-09-16T03:10:41Z</time></trkpt><trkpt lat="45.1504678186" lon="39.4423585664"><ele>60.22</ele><time>2018-09-16T03:10:55Z</time></trkpt><trkpt lat="45.1500828378" lon="39.4416606054"><ele>59.74</ele><time>2018-09-16T03:11:10Z</time></trkpt><trkpt lat="45.1495258603" lon="39.4406461436"><ele>59.74</ele><time>2018-09-16T03:11:30Z</time></trkpt><trkpt lat="45.1490619220" lon="39.4398165867"><ele>59.74</ele><time>2018-09-16T03:11:46Z</time></trkpt><trkpt lat="45.1484748535" lon="39.4387512468"><ele>59.26</ele><time>2018-09-16T03:12:05Z</time></trkpt><trkpt lat="45.1478447858" lon="39.4376060273"><ele>57.34</ele><time>2018-09-16T03:12:24Z</time></trkpt><trkpt lat="45.1472313982" lon="39.4364805054"><ele>56.86</ele><time>2018-09-16T03:12:43Z</time></trkpt><trkpt lat="45.1467556413" lon="39.4356128946"><ele>57.82</ele><time>2018-09-16T03:13:00Z</time></trkpt><trkpt lat="45.1467278972" lon="39.4355650339"><ele>57.82</ele><time>2018-09-16T03:13:01Z</time></trkpt><trkpt lat="45.1461036131" lon="39.4344272744"><ele>58.30</ele><time>2018-09-16T03:13:22Z</time></trkpt><trkpt lat="45.1454960089" lon="39.4333103858"><ele>57.34</ele><time>2018-09-16T03:13:41Z</time></trkpt><trkpt lat="45.1449091919" lon="39.4322775677"><ele>56.86</ele><time>2018-09-16T03:13:58Z</time></trkpt><trkpt lat="45.1442967262" lon="39.4312069472"><ele>56.37</ele><time>2018-09-16T03:14:16Z</time></trkpt><trkpt lat="45.1436113380" lon="39.4300387613"><ele>55.41</ele><time>2018-09-16T03:14:37Z</time></trkpt><trkpt lat="45.1431129500" lon="39.4291978888"><ele>55.41</ele><time>2018-09-16T03:14:53Z</time></trkpt><trkpt lat="45.1428213436" lon="39.4286725949"><ele>55.41</ele><time>2018-09-16T03:15:03Z</time></trkpt><trkpt lat="45.1427935157" lon="39.4286285061"><ele>55.41</ele><time>2018-09-16T03:15:04Z</time></trkpt><trkpt lat="45.1423558965" lon="39.4278823491"><ele>55.41</ele><time>2018-09-16T03:15:19Z</time></trkpt><trkpt lat="45.1418179460" lon="39.4269237109"><ele>55.89</ele><time>2018-09-16T03:15:37Z</time></trkpt><trkpt lat="45.1416084822" lon="39.4265300967"><ele>55.89</ele><time>2018-09-16T03:15:48Z</time></trkpt><trkpt lat="45.1415945683" lon="39.4265227206"><ele>55.41</ele><time>2018-09-16T03:16:08Z</time></trkpt><trkpt lat="45.1415759604" lon="39.4265057892"><ele>55.41</ele><time>2018-09-16T03:16:38Z</time></trkpt><trkpt lat="45.1414880343" lon="39.4263281766"><ele>55.41</ele><time>2018-09-16T03:16:57Z</time></trkpt><trkpt lat="45.1411693543" lon="39.4257141184"><ele>55.41</ele><time>2018-09-16T03:17:11Z</time></trkpt><trkpt lat="45.1406542864" lon="39.4247674663"><ele>54.93</ele><time>2018-09-16T03:17:29Z</time></trkpt><trkpt lat="45.1402444951" lon="39.4240264222"><ele>55.41</ele><time>2018-09-16T03:17:44Z</time></trkpt><trkpt lat="45.1400308404" lon="39.4235741347"><ele>55.89</ele><time>2018-09-16T03:17:52Z</time></trkpt><trkpt lat="45.1399717480" lon="39.4234683551"><ele>55.89</ele><time>2018-09-16T03:17:54Z</time></trkpt><trkpt lat="45.1395399123" lon="39.4226723257"><ele>55.89</ele><time>2018-09-16T03:18:09Z</time></trkpt><trkpt lat="45.1391816698" lon="39.4220350496"><ele>55.89</ele><time>2018-09-16T03:18:23Z</time></trkpt><trkpt lat="45.1389191486" lon="39.4215707760"><ele>58.78</ele><time>2018-09-16T03:18:37Z</time></trkpt><trkpt lat="45.1386974473" lon="39.4211746473"><ele>59.74</ele><time>2018-09-16T03:18:51Z</time></trkpt><trkpt lat="45.1384751592" lon="39.4207532890"><ele>59.26</ele><time>2018-09-16T03:19:05Z</time></trkpt><trkpt lat="45.1382161584" lon="39.4202903565"><ele>59.26</ele><time>2018-09-16T03:19:17Z</time></trkpt><trkpt lat="45.1379082911" lon="39.4197467901"><ele>58.30</ele><time>2018-09-16T03:19:31Z</time></trkpt><trkpt lat="45.1376409922" lon="39.4192764815"><ele>58.78</ele><time>2018-09-16T03:19:44Z</time></trkpt><trkpt lat="45.1372861024" lon="39.4186038338"><ele>58.30</ele><time>2018-09-16T03:19:59Z</time></trkpt><trkpt lat="45.1367690228" lon="39.4176389929"><ele>57.82</ele><time>2018-09-16T03:20:17Z</time></trkpt><trkpt lat="45.1362920087" lon="39.4166459888"><ele>56.86</ele><time>2018-09-16T03:20:35Z</time></trkpt><trkpt lat="45.1361634303" lon="39.4162672944"><ele>56.86</ele><time>2018-09-16T03:20:42Z</time></trkpt><trkpt lat="45.1358643640" lon="39.4152803253"><ele>56.37</ele><time>2018-09-16T03:20:58Z</time></trkpt><trkpt lat="45.1358310878" lon="39.4151712768"><ele>56.37</ele><time>2018-09-16T03:21:00Z</time></trkpt><trkpt lat="45.1357811317" lon="39.4150009565"><ele>56.37</ele><time>2018-09-16T03:21:03Z</time></trkpt><trkpt lat="45.1357740909" lon="39.4149423670"><ele>56.37</ele><time>2018-09-16T03:21:04Z</time></trkpt><trkpt lat="45.1357713249" lon="39.4148815982"><ele>55.89</ele><time>2018-09-16T03:21:05Z</time></trkpt><trkpt lat="45.1357747614" lon="39.4148232602"><ele>55.89</ele><time>2018-09-16T03:21:06Z</time></trkpt><trkpt lat="45.1357885916" lon="39.4147647545"><ele>55.41</ele><time>2018-09-16T03:21:07Z</time></trkpt><trkpt lat="45.1358154137" lon="39.4147063326"><ele>55.41</ele><time>2018-09-16T03:21:08Z</time></trkpt><trkpt lat="45.1358445827" lon="39.4146598969"><ele>54.93</ele><time>2018-09-16T03:21:09Z</time></trkpt><trkpt lat="45.1358818822" lon="39.4146225974"><ele>54.93</ele><time>2018-09-16T03:21:10Z</time></trkpt><trkpt lat="45.1359260548" lon="39.4145990442"><ele>54.93</ele><time>2018-09-16T03:21:11Z</time></trkpt><trkpt lat="45.1359684672" lon="39.4145865552"><ele>54.93</ele><time>2018-09-16T03:21:12Z</time></trkpt><trkpt lat="45.1360149868" lon="39.4145798497"><ele>55.41</ele><time>2018-09-16T03:21:13Z</time></trkpt><trkpt lat="45.1360589080" lon="39.4145739824"><ele>55.41</ele><time>2018-09-16T03:21:14Z</time></trkpt><trkpt lat="45.1367396861" lon="39.4144675322"><ele>57.34</ele><time>2018-09-16T03:21:28Z</time></trkpt><trkpt lat="45.1371315401" lon="39.4143200107"><ele>56.86</ele><time>2018-09-16T03:21:36Z</time></trkpt><trkpt lat="45.1379096322" lon="39.4137898553"><ele>54.93</ele><time>2018-09-16T03:21:53Z</time></trkpt><trkpt lat="45.1383319963" lon="39.4134033658"><ele>54.93</ele><time>2018-09-16T03:22:03Z</time></trkpt><trkpt lat="45.1383738220" lon="39.4133529905"><ele>54.93</ele><time>2018-09-16T03:22:04Z</time></trkpt><trkpt lat="45.1387215033" lon="39.4129037205"><ele>54.45</ele><time>2018-09-16T03:22:15Z</time></trkpt><trkpt lat="45.1389569510" lon="39.4126313925"><ele>54.45</ele><time>2018-09-16T03:22:22Z</time></trkpt><trkpt lat="45.1389872096" lon="39.4125819393"><ele>53.97</ele><time>2018-09-16T03:22:23Z</time></trkpt><trkpt lat="45.1390472241" lon="39.4124837033"><ele>53.97</ele><time>2018-09-16T03:22:25Z</time></trkpt><trkpt lat="45.1391372457" lon="39.4123371877"><ele>53.97</ele><time>2018-09-16T03:22:28Z</time></trkpt><trkpt lat="45.1391926501" lon="39.4122314919"><ele>53.97</ele><time>2018-09-16T03:22:30Z</time></trkpt><trkpt lat="45.1392523292" lon="39.4121245388"><ele>53.49</ele><time>2018-09-16T03:22:32Z</time></trkpt><trkpt lat="45.1392781455" lon="39.4120731577"><ele>53.49</ele><time>2018-09-16T03:22:33Z</time></trkpt><trkpt lat="45.1393361483" lon="39.4119669590"><ele>53.49</ele><time>2018-09-16T03:22:35Z</time></trkpt><trkpt lat="45.1397629548" lon="39.4109189697"><ele>53.01</ele><time>2018-09-16T03:22:53Z</time></trkpt><trkpt lat="45.1398210414" lon="39.4107355736"><ele>53.01</ele><time>2018-09-16T03:22:56Z</time></trkpt><trkpt lat="45.1400824729" lon="39.4096707366"><ele>52.05</ele><time>2018-09-16T03:23:12Z</time></trkpt><trkpt lat="45.1402210258" lon="39.4085107651"><ele>52.05</ele><time>2018-09-16T03:23:29Z</time></trkpt><trkpt lat="45.1402333472" lon="39.4073569961"><ele>51.57</ele><time>2018-09-16T03:23:46Z</time></trkpt><trkpt lat="45.1402327605" lon="39.4072912820"><ele>51.57</ele><time>2018-09-16T03:23:47Z</time></trkpt><trkpt lat="45.1402201876" lon="39.4060967769"><ele>51.09</ele><time>2018-09-16T03:24:04Z</time></trkpt><trkpt lat="45.1402167510" lon="39.4047487993"><ele>50.61</ele><time>2018-09-16T03:24:23Z</time></trkpt><trkpt lat="45.1402062736" lon="39.4036071841"><ele>50.13</ele><time>2018-09-16T03:24:40Z</time></trkpt><trkpt lat="45.1401909348" lon="39.4025352225"><ele>50.13</ele><time>2018-09-16T03:24:56Z</time></trkpt><trkpt lat="45.1401892584" lon="39.4013520330"><ele>50.13</ele><time>2018-09-16T03:25:13Z</time></trkpt><trkpt lat="45.1401879173" lon="39.4006161019"><ele>49.65</ele><time>2018-09-16T03:25:23Z</time></trkpt><trkpt lat="45.1401817985" lon="39.3995631672"><ele>49.65</ele><time>2018-09-16T03:25:39Z</time></trkpt><trkpt lat="45.1401737519" lon="39.3989009969"><ele>50.13</ele><time>2018-09-16T03:25:50Z</time></trkpt><trkpt lat="45.1401709858" lon="39.3983935565"><ele>50.61</ele><time>2018-09-16T03:25:58Z</time></trkpt><trkpt lat="45.1401633583" lon="39.3973819446"><ele>51.09</ele><time>2018-09-16T03:26:14Z</time></trkpt><trkpt lat="45.1401580777" lon="39.3961553369"><ele>51.09</ele><time>2018-09-16T03:26:33Z</time></trkpt><trkpt lat="45.1401479356" lon="39.3949192576"><ele>51.09</ele><time>2018-09-16T03:26:52Z</time></trkpt><trkpt lat="45.1401273161" lon="39.3943929579"><ele>51.09</ele><time>2018-09-16T03:27:00Z</time></trkpt><trkpt lat="45.1401284896" lon="39.3943310995"><ele>51.09</ele><time>2018-09-16T03:27:01Z</time></trkpt><trkpt lat="45.1401251368" lon="39.3933119439"><ele>51.57</ele><time>2018-09-16T03:27:17Z</time></trkpt><trkpt lat="45.1401210297" lon="39.3924382143"><ele>52.05</ele><time>2018-09-16T03:27:31Z</time></trkpt><trkpt lat="45.1401154976" lon="39.3915208150"><ele>52.05</ele><time>2018-09-16T03:27:44Z</time></trkpt><trkpt lat="45.1401156653" lon="39.3914509099"><ele>52.05</ele><time>2018-09-16T03:27:45Z</time></trkpt><trkpt lat="45.1401102170" lon="39.3913224991"><ele>52.05</ele><time>2018-09-16T03:27:47Z</time></trkpt><trkpt lat="45.1401081216" lon="39.3912546895"><ele>52.05</ele><time>2018-09-16T03:27:48Z</time></trkpt><trkpt lat="45.1401046850" lon="39.3911174778"><ele>52.05</ele><time>2018-09-16T03:27:50Z</time></trkpt><trkpt lat="45.1401092950" lon="39.3910505064"><ele>52.05</ele><time>2018-09-16T03:27:51Z</time></trkpt><trkpt lat="45.1401136536" lon="39.3909831997"><ele>52.05</ele><time>2018-09-16T03:27:52Z</time></trkpt><trkpt lat="45.1401145756" lon="39.3909102771"><ele>52.05</ele><time>2018-09-16T03:27:53Z</time></trkpt><trkpt lat="45.1401136536" lon="39.3908396177"><ele>51.57</ele><time>2018-09-16T03:27:54Z</time></trkpt><trkpt lat="45.1401144918" lon="39.3895196356"><ele>51.09</ele><time>2018-09-16T03:28:13Z</time></trkpt><trkpt lat="45.1401855703" lon="39.3882900104"><ele>50.61</ele><time>2018-09-16T03:28:31Z</time></trkpt><trkpt lat="45.1402932778" lon="39.3870758079"><ele>50.61</ele><time>2018-09-16T03:28:49Z</time></trkpt><trkpt lat="45.1403885800" lon="39.3861715682"><ele>50.13</ele><time>2018-09-16T03:29:03Z</time></trkpt><trkpt lat="45.1405474171" lon="39.3850185536"><ele>51.09</ele><time>2018-09-16T03:29:20Z</time></trkpt><trkpt lat="45.1407986227" lon="39.3836106453"><ele>51.57</ele><time>2018-09-16T03:29:40Z</time></trkpt><trkpt lat="45.1410539355" lon="39.3822391145"><ele>52.05</ele><time>2018-09-16T03:30:00Z</time></trkpt><trkpt lat="45.1412458811" lon="39.3811574299"><ele>51.57</ele><time>2018-09-16T03:30:16Z</time></trkpt><trkpt lat="45.1412906405" lon="39.3808962498"><ele>51.57</ele><time>2018-09-16T03:30:20Z</time></trkpt><trkpt lat="45.1413093321" lon="39.3808285240"><ele>51.57</ele><time>2018-09-16T03:30:21Z</time></trkpt><trkpt lat="45.1413272694" lon="39.3807634804"><ele>51.57</ele><time>2018-09-16T03:30:22Z</time></trkpt><trkpt lat="45.1413429435" lon="39.3806955870"><ele>51.57</ele><time>2018-09-16T03:30:23Z</time></trkpt><trkpt lat="45.1413550973" lon="39.3806240056"><ele>51.57</ele><time>2018-09-16T03:30:24Z</time></trkpt><trkpt lat="45.1415523235" lon="39.3795566540"><ele>51.57</ele><time>2018-09-16T03:30:40Z</time></trkpt><trkpt lat="45.1417607814" lon="39.3782480713"><ele>51.57</ele><time>2018-09-16T03:30:58Z</time></trkpt><trkpt lat="45.1419290062" lon="39.3767276779"><ele>50.61</ele><time>2018-09-16T03:31:20Z</time></trkpt><trkpt lat="45.1420605183" lon="39.3755335920"><ele>50.13</ele><time>2018-09-16T03:31:37Z</time></trkpt><trkpt lat="45.1421364583" lon="39.3744300306"><ele>50.61</ele><time>2018-09-16T03:31:52Z</time></trkpt><trkpt lat="45.1421463490" lon="39.3742810842"><ele>50.61</ele><time>2018-09-16T03:31:54Z</time></trkpt><trkpt lat="45.1421535574" lon="39.3735749088"><ele>50.13</ele><time>2018-09-16T03:32:04Z</time></trkpt><trkpt lat="45.1421530545" lon="39.3735123798"><ele>50.13</ele><time>2018-09-16T03:32:05Z</time></trkpt><trkpt lat="45.1421384700" lon="39.3724576849"><ele>49.65</ele><time>2018-09-16T03:32:20Z</time></trkpt><trkpt lat="45.1421453431" lon="39.3714177422"><ele>50.13</ele><time>2018-09-16T03:32:34Z</time></trkpt><trkpt lat="45.1421531383" lon="39.3704709224"><ele>50.61</ele><time>2018-09-16T03:32:47Z</time></trkpt><trkpt lat="45.1421646215" lon="39.3702845089"><ele>50.13</ele><time>2018-09-16T03:32:50Z</time></trkpt><trkpt lat="45.1421544794" lon="39.3690888304"><ele>49.65</ele><time>2018-09-16T03:33:08Z</time></trkpt><trkpt lat="45.1421674713" lon="39.3679459579"><ele>49.65</ele><time>2018-09-16T03:33:24Z</time></trkpt><trkpt lat="45.1421690639" lon="39.3668963760"><ele>50.13</ele><time>2018-09-16T03:33:38Z</time></trkpt><trkpt lat="45.1421729196" lon="39.3656757195"><ele>51.09</ele><time>2018-09-16T03:33:54Z</time></trkpt><trkpt lat="45.1421066187" lon="39.3647892494"><ele>51.57</ele><time>2018-09-16T03:34:06Z</time></trkpt><trkpt lat="45.1421036012" lon="39.3647175841"><ele>51.57</ele><time>2018-09-16T03:34:07Z</time></trkpt><trkpt lat="45.1420916989" lon="39.3640519772"><ele>50.13</ele><time>2018-09-16T03:34:16Z</time></trkpt><trkpt lat="45.1420803834" lon="39.3639206327"><ele>50.13</ele><time>2018-09-16T03:34:18Z</time></trkpt><trkpt lat="45.1420676429" lon="39.3637432717"><ele>50.13</ele><time>2018-09-16T03:34:21Z</time></trkpt><trkpt lat="45.1420537289" lon="39.3636918068"><ele>50.13</ele><time>2018-09-16T03:34:22Z</time></trkpt><trkpt lat="45.1420362107" lon="39.3636439461"><ele>50.13</ele><time>2018-09-16T03:34:23Z</time></trkpt><trkpt lat="45.1420037728" lon="39.3635981809"><ele>50.13</ele><time>2018-09-16T03:34:24Z</time></trkpt><trkpt lat="45.1419796329" lon="39.3635772262"><ele>50.13</ele><time>2018-09-16T03:34:25Z</time></trkpt><trkpt lat="45.1419451833" lon="39.3635625578"><ele>50.13</ele><time>2018-09-16T03:34:26Z</time></trkpt><trkpt lat="45.1419126615" lon="39.3635615520"><ele>50.61</ele><time>2018-09-16T03:34:27Z</time></trkpt><trkpt lat="45.1418824866" lon="39.3635666650"><ele>50.13</ele><time>2018-09-16T03:34:28Z</time></trkpt><trkpt lat="45.1418549940" lon="39.3635710236"><ele>50.13</ele><time>2018-09-16T03:34:29Z</time></trkpt><trkpt lat="45.1418367215" lon="39.3635709397"><ele>49.65</ele><time>2018-09-16T03:34:30Z</time></trkpt><trkpt lat="45.1418298483" lon="39.3635787349"><ele>48.68</ele><time>2018-09-16T03:34:40Z</time></trkpt><trkpt lat="45.1418337878" lon="39.3635934871"><ele>53.49</ele><time>2018-09-16T03:35:19Z</time></trkpt><trkpt lat="45.1418281719" lon="39.3635970075"><ele>53.01</ele><time>2018-09-16T03:35:57Z</time></trkpt><trkpt lat="45.1418169402" lon="39.3636004440"><ele>52.05</ele><time>2018-09-16T03:36:33Z</time></trkpt><trkpt lat="45.1418215502" lon="39.3635965046"><ele>51.09</ele><time>2018-09-16T03:37:05Z</time></trkpt><trkpt lat="45.1418328658" lon="39.3636002764"><ele>51.09</ele><time>2018-09-16T03:37:49Z</time></trkpt><trkpt lat="45.1418284234" lon="39.3635878712"><ele>50.61</ele><time>2018-09-16T03:38:30Z</time></trkpt><trkpt lat="45.1418310218" lon="39.3635762203"><ele>51.57</ele><time>2018-09-16T03:38:59Z</time></trkpt><trkpt lat="45.1418546587" lon="39.3636161182"><ele>52.05</ele><time>2018-09-16T03:39:12Z</time></trkpt><trkpt lat="45.1418706682" lon="39.3636151962"><ele>52.05</ele><time>2018-09-16T03:39:14Z</time></trkpt><trkpt lat="45.1418849174" lon="39.3636156991"><ele>52.05</ele><time>2018-09-16T03:39:15Z</time></trkpt><trkpt lat="45.1418974064" lon="39.3636136036"><ele>52.05</ele><time>2018-09-16T03:39:16Z</time></trkpt><trkpt lat="45.1419103984" lon="39.3636099156"><ele>52.05</ele><time>2018-09-16T03:39:17Z</time></trkpt><trkpt lat="45.1419251505" lon="39.3636068143"><ele>52.53</ele><time>2018-09-16T03:39:18Z</time></trkpt><trkpt lat="45.1419418305" lon="39.3635979295"><ele>52.53</ele><time>2018-09-16T03:39:19Z</time></trkpt><trkpt lat="45.1419620309" lon="39.3635886256"><ele>52.53</ele><time>2018-09-16T03:39:20Z</time></trkpt><trkpt lat="45.1419839077" lon="39.3635763880"><ele>52.53</ele><time>2018-09-16T03:39:21Z</time></trkpt><trkpt lat="45.1420047786" lon="39.3635625578"><ele>52.53</ele><time>2018-09-16T03:39:22Z</time></trkpt><trkpt lat="45.1421311777" lon="39.3633125257"><ele>52.53</ele><time>2018-09-16T03:39:29Z</time></trkpt><trkpt lat="45.1421419904" lon="39.3632602226"><ele>52.05</ele><time>2018-09-16T03:39:30Z</time></trkpt><trkpt lat="45.1421446726" lon="39.3632001244"><ele>52.05</ele><time>2018-09-16T03:39:31Z</time></trkpt><trkpt lat="45.1421399787" lon="39.3630836159"><ele>52.05</ele><time>2018-09-16T03:39:33Z</time></trkpt><trkpt lat="45.1421417389" lon="39.3630215060"><ele>52.05</ele><time>2018-09-16T03:39:34Z</time></trkpt><trkpt lat="45.1421429962" lon="39.3629644252"><ele>52.05</ele><time>2018-09-16T03:39:35Z</time></trkpt><trkpt lat="45.1421393920" lon="39.3620705791"><ele>50.61</ele><time>2018-09-16T03:39:49Z</time></trkpt><trkpt lat="45.1421381347" lon="39.3620058708"><ele>50.61</ele><time>2018-09-16T03:39:50Z</time></trkpt><trkpt lat="45.1421432476" lon="39.3608754035"><ele>50.13</ele><time>2018-09-16T03:40:07Z</time></trkpt><trkpt lat="45.1421388052" lon="39.3596105743"><ele>50.13</ele><time>2018-09-16T03:40:25Z</time></trkpt><trkpt lat="45.1421358716" lon="39.3594710995"><ele>50.13</ele><time>2018-09-16T03:40:27Z</time></trkpt><trkpt lat="45.1421258133" lon="39.3582652789"><ele>49.65</ele><time>2018-09-16T03:40:43Z</time></trkpt><trkpt lat="45.1421253942" lon="39.3569695204"><ele>48.68</ele><time>2018-09-16T03:41:00Z</time></trkpt><trkpt lat="45.1421279926" lon="39.3554732669"><ele>47.72</ele><time>2018-09-16T03:41:19Z</time></trkpt><trkpt lat="45.1421314292" lon="39.3548673391"><ele>47.72</ele><time>2018-09-16T03:41:27Z</time></trkpt><trkpt lat="45.1421328541" lon="39.3547896389"><ele>47.72</ele><time>2018-09-16T03:41:28Z</time></trkpt><trkpt lat="45.1421143301" lon="39.3534005061"><ele>49.16</ele><time>2018-09-16T03:41:47Z</time></trkpt><trkpt lat="45.1421142463" lon="39.3524767365"><ele>48.68</ele><time>2018-09-16T03:42:00Z</time></trkpt><trkpt lat="45.1421153359" lon="39.3524028920"><ele>48.68</ele><time>2018-09-16T03:42:01Z</time></trkpt><trkpt lat="45.1421142463" lon="39.3522628304"><ele>48.20</ele><time>2018-09-16T03:42:03Z</time></trkpt><trkpt lat="45.1421199460" lon="39.3519208487"><ele>48.20</ele><time>2018-09-16T03:42:08Z</time></trkpt><trkpt lat="45.1421132404" lon="39.3508363143"><ele>47.72</ele><time>2018-09-16T03:42:23Z</time></trkpt><trkpt lat="45.1421141624" lon="39.3507641461"><ele>47.72</ele><time>2018-09-16T03:42:24Z</time></trkpt><trkpt lat="45.1421155035" lon="39.3506897148"><ele>47.72</ele><time>2018-09-16T03:42:25Z</time></trkpt><trkpt lat="45.1421032660" lon="39.3492113985"><ele>47.24</ele><time>2018-09-16T03:42:45Z</time></trkpt><trkpt lat="45.1420971472" lon="39.3478164822"><ele>46.76</ele><time>2018-09-16T03:43:03Z</time></trkpt><trkpt lat="45.1421029307" lon="39.3472997379"><ele>46.28</ele><time>2018-09-16T03:43:10Z</time></trkpt><trkpt lat="45.1420948841" lon="39.3469937146"><ele>46.28</ele><time>2018-09-16T03:43:14Z</time></trkpt><trkpt lat="45.1420838200" lon="39.3457787577"><ele>45.80</ele><time>2018-09-16T03:43:30Z</time></trkpt><trkpt lat="45.1420795452" lon="39.3445173651"><ele>45.80</ele><time>2018-09-16T03:43:47Z</time></trkpt><trkpt lat="45.1420775335" lon="39.3441069033"><ele>45.80</ele><time>2018-09-16T03:43:53Z</time></trkpt><trkpt lat="45.1420759410" lon="39.3440359924"><ele>45.80</ele><time>2018-09-16T03:43:54Z</time></trkpt><trkpt lat="45.1420739293" lon="39.3429003283"><ele>45.80</ele><time>2018-09-16T03:44:10Z</time></trkpt><trkpt lat="45.1420652959" lon="39.3414162286"><ele>45.80</ele><time>2018-09-16T03:44:30Z</time></trkpt><trkpt lat="45.1420724206" lon="39.3409082014"><ele>45.80</ele><time>2018-09-16T03:44:37Z</time></trkpt><trkpt lat="45.1420703251" lon="39.3401849270"><ele>44.84</ele><time>2018-09-16T03:44:49Z</time></trkpt><trkpt lat="45.1420659665" lon="39.3390772585"><ele>44.36</ele><time>2018-09-16T03:45:05Z</time></trkpt><trkpt lat="45.1420669723" lon="39.3376422767"><ele>43.40</ele><time>2018-09-16T03:45:24Z</time></trkpt><trkpt lat="45.1420720015" lon="39.3363150023"><ele>43.40</ele><time>2018-09-16T03:45:43Z</time></trkpt><trkpt lat="45.1420647930" lon="39.3351809308"><ele>43.88</ele><time>2018-09-16T03:46:00Z</time></trkpt><trkpt lat="45.1420617756" lon="39.3336408399"><ele>42.44</ele><time>2018-09-16T03:46:21Z</time></trkpt><trkpt lat="45.1420390606" lon="39.3329395261"><ele>43.40</ele><time>2018-09-16T03:46:31Z</time></trkpt><trkpt lat="45.1420428324" lon="39.3328800984"><ele>43.40</ele><time>2018-09-16T03:46:32Z</time></trkpt><trkpt lat="45.1420512982" lon="39.3318746891"><ele>43.88</ele><time>2018-09-16T03:46:48Z</time></trkpt><trkpt lat="45.1420363784" lon="39.3308743089"><ele>44.84</ele><time>2018-09-16T03:47:02Z</time></trkpt><trkpt lat="45.1420430001" lon="39.3303870689"><ele>44.84</ele><time>2018-09-16T03:47:09Z</time></trkpt><trkpt lat="45.1420331933" lon="39.3302476779"><ele>44.84</ele><time>2018-09-16T03:47:11Z</time></trkpt><trkpt lat="45.1420384739" lon="39.3301164173"><ele>44.84</ele><time>2018-09-16T03:47:13Z</time></trkpt><trkpt lat="45.1420461852" lon="39.3300405610"><ele>44.84</ele><time>2018-09-16T03:47:14Z</time></trkpt><trkpt lat="45.1420466881" lon="39.3299740925"><ele>44.84</ele><time>2018-09-16T03:47:15Z</time></trkpt><trkpt lat="45.1420371328" lon="39.3288761470"><ele>44.84</ele><time>2018-09-16T03:47:30Z</time></trkpt><trkpt lat="45.1420272421" lon="39.3286576308"><ele>44.84</ele><time>2018-09-16T03:47:33Z</time></trkpt><trkpt lat="45.1420265716" lon="39.3280312512"><ele>45.80</ele><time>2018-09-16T03:47:42Z</time></trkpt><trkpt lat="45.1420342829" lon="39.3278957997"><ele>45.32</ele><time>2018-09-16T03:47:44Z</time></trkpt><trkpt lat="45.1420322713" lon="39.3278290797"><ele>45.32</ele><time>2018-09-16T03:47:45Z</time></trkpt><trkpt lat="45.1420217101" lon="39.3269359879"><ele>45.80</ele><time>2018-09-16T03:47:58Z</time></trkpt><trkpt lat="45.1420259010" lon="39.3268587068"><ele>45.80</ele><time>2018-09-16T03:47:59Z</time></trkpt><trkpt lat="45.1420161780" lon="39.3261721451"><ele>45.32</ele><time>2018-09-16T03:48:09Z</time></trkpt><trkpt lat="45.1420233026" lon="39.3260586541"><ele>45.32</ele><time>2018-09-16T03:48:11Z</time></trkpt><trkpt lat="45.1420296729" lon="39.3260120507"><ele>45.32</ele><time>2018-09-16T03:48:12Z</time></trkpt><trkpt lat="45.1420331094" lon="39.3259909283"><ele>44.84</ele><time>2018-09-16T03:48:13Z</time></trkpt><trkpt lat="45.1420355402" lon="39.3259908445"><ele>44.36</ele><time>2018-09-16T03:48:25Z</time></trkpt><trkpt lat="45.1420373004" lon="39.3259593286"><ele>45.32</ele><time>2018-09-16T03:48:36Z</time></trkpt><trkpt lat="45.1420348696" lon="39.3259393796"><ele>45.32</ele><time>2018-09-16T03:48:37Z</time></trkpt><trkpt lat="45.1420314331" lon="39.3259195983"><ele>45.32</ele><time>2018-09-16T03:48:38Z</time></trkpt><trkpt lat="45.1420296729" lon="39.3258994818"><ele>45.32</ele><time>2018-09-16T03:48:39Z</time></trkpt><trkpt lat="45.1420306787" lon="39.3258709833"><ele>45.32</ele><time>2018-09-16T03:48:40Z</time></trkpt><trkpt lat="45.1420297567" lon="39.3258384615"><ele>45.32</ele><time>2018-09-16T03:48:41Z</time></trkpt><trkpt lat="45.1420277450" lon="39.3258009106"><ele>45.32</ele><time>2018-09-16T03:48:42Z</time></trkpt><trkpt lat="45.1420148369" lon="39.3252758682"><ele>45.80</ele><time>2018-09-16T03:48:54Z</time></trkpt><trkpt lat="45.1420163456" lon="39.3247675896"><ele>45.32</ele><time>2018-09-16T03:49:03Z</time></trkpt><trkpt lat="45.1420227997" lon="39.3234929536"><ele>45.32</ele><time>2018-09-16T03:49:20Z</time></trkpt><trkpt lat="45.1420134120" lon="39.3226939905"><ele>45.80</ele><time>2018-09-16T03:49:35Z</time></trkpt><trkpt lat="45.1420227159" lon="39.3225541804"><ele>45.80</ele><time>2018-09-16T03:49:44Z</time></trkpt><trkpt lat="45.1420171000" lon="39.3225225806"><ele>47.72</ele><time>2018-09-16T03:50:14Z</time></trkpt><trkpt lat="45.1420116518" lon="39.3219822831"><ele>46.76</ele><time>2018-09-16T03:50:27Z</time></trkpt><trkpt lat="45.1420081314" lon="39.3218634278"><ele>46.76</ele><time>2018-09-16T03:50:29Z</time></trkpt><trkpt lat="45.1420065388" lon="39.3207241595"><ele>45.80</ele><time>2018-09-16T03:50:45Z</time></trkpt><trkpt lat="45.1420038566" lon="39.3195352703"><ele>44.84</ele><time>2018-09-16T03:51:01Z</time></trkpt><trkpt lat="45.1420026831" lon="39.3183540925"><ele>44.84</ele><time>2018-09-16T03:51:18Z</time></trkpt><trkpt lat="45.1419953909" lon="39.3173844740"><ele>44.84</ele><time>2018-09-16T03:51:34Z</time></trkpt><trkpt lat="45.1419770345" lon="39.3162563536"><ele>45.32</ele><time>2018-09-16T03:51:50Z</time></trkpt><trkpt lat="45.1419783756" lon="39.3161887117"><ele>45.32</ele><time>2018-09-16T03:51:51Z</time></trkpt><trkpt lat="45.1419823989" lon="39.3150999863"><ele>44.84</ele><time>2018-09-16T03:52:07Z</time></trkpt><trkpt lat="45.1419820637" lon="39.3150243815"><ele>44.84</ele><time>2018-09-16T03:52:08Z</time></trkpt><trkpt lat="45.1419701613" lon="39.3142607063"><ele>45.32</ele><time>2018-09-16T03:52:19Z</time></trkpt><trkpt lat="45.1419733465" lon="39.3142013624"><ele>45.32</ele><time>2018-09-16T03:52:20Z</time></trkpt><trkpt lat="45.1419790462" lon="39.3141411804"><ele>45.32</ele><time>2018-09-16T03:52:21Z</time></trkpt><trkpt lat="45.1419827342" lon="39.3140819203"><ele>45.32</ele><time>2018-09-16T03:52:22Z</time></trkpt><trkpt lat="45.1419827342" lon="39.3140205648"><ele>45.32</ele><time>2018-09-16T03:52:23Z</time></trkpt><trkpt lat="45.1419813093" lon="39.3139522523"><ele>45.32</ele><time>2018-09-16T03:52:24Z</time></trkpt><trkpt lat="45.1419636235" lon="39.3130901735"><ele>45.32</ele><time>2018-09-16T03:52:36Z</time></trkpt><trkpt lat="45.1419712510" lon="39.3130180892"><ele>45.32</ele><time>2018-09-16T03:52:37Z</time></trkpt><trkpt lat="45.1419835724" lon="39.3128759321"><ele>45.32</ele><time>2018-09-16T03:52:39Z</time></trkpt><trkpt lat="45.1419829018" lon="39.3128072843"><ele>45.32</ele><time>2018-09-16T03:52:40Z</time></trkpt><trkpt lat="45.1419875119" lon="39.3116138689"><ele>43.40</ele><time>2018-09-16T03:52:56Z</time></trkpt><trkpt lat="45.1419951394" lon="39.3104752712"><ele>42.44</ele><time>2018-09-16T03:53:12Z</time></trkpt><trkpt lat="45.1419953909" lon="39.3092963565"><ele>43.40</ele><time>2018-09-16T03:53:29Z</time></trkpt><trkpt lat="45.1419996656" lon="39.3079959042"><ele>43.40</ele><time>2018-09-16T03:53:48Z</time></trkpt><trkpt lat="45.1419974864" lon="39.3066480104"><ele>42.92</ele><time>2018-09-16T03:54:06Z</time></trkpt><trkpt lat="45.1419946365" lon="39.3053304590"><ele>42.92</ele><time>2018-09-16T03:54:24Z</time></trkpt><trkpt lat="45.1419899426" lon="39.3041977286"><ele>42.44</ele><time>2018-09-16T03:54:40Z</time></trkpt><trkpt lat="45.1419831533" lon="39.3028230965"><ele>43.40</ele><time>2018-09-16T03:55:00Z</time></trkpt><trkpt lat="45.1419649646" lon="39.3015301879"><ele>45.32</ele><time>2018-09-16T03:55:21Z</time></trkpt><trkpt lat="45.1419637911" lon="39.3013337161"><ele>45.80</ele><time>2018-09-16T03:55:24Z</time></trkpt><trkpt lat="45.1419615280" lon="39.3012659065"><ele>45.80</ele><time>2018-09-16T03:55:25Z</time></trkpt><trkpt lat="45.1419599354" lon="39.3006877229"><ele>46.76</ele><time>2018-09-16T03:55:33Z</time></trkpt><trkpt lat="45.1419581752" lon="39.3006157223"><ele>46.28</ele><time>2018-09-16T03:55:34Z</time></trkpt><trkpt lat="45.1419553254" lon="39.2995171901"><ele>47.24</ele><time>2018-09-16T03:55:49Z</time></trkpt><trkpt lat="45.1419448480" lon="39.2984117847"><ele>46.76</ele><time>2018-09-16T03:56:04Z</time></trkpt><trkpt lat="45.1419426687" lon="39.2981821205"><ele>46.28</ele><time>2018-09-16T03:56:07Z</time></trkpt><trkpt lat="45.1419337839" lon="39.2969866935"><ele>46.76</ele><time>2018-09-16T03:56:24Z</time></trkpt><trkpt lat="45.1419356279" lon="39.2966977693"><ele>46.76</ele><time>2018-09-16T03:56:28Z</time></trkpt><trkpt lat="45.1419252343" lon="39.2956336029"><ele>46.76</ele><time>2018-09-16T03:56:43Z</time></trkpt><trkpt lat="45.1419245638" lon="39.2953001708"><ele>46.76</ele><time>2018-09-16T03:56:48Z</time></trkpt><trkpt lat="45.1419218816" lon="39.2940973677"><ele>47.72</ele><time>2018-09-16T03:57:05Z</time></trkpt><trkpt lat="45.1419249829" lon="39.2939538695"><ele>47.72</ele><time>2018-09-16T03:57:07Z</time></trkpt><trkpt lat="45.1419260725" lon="39.2938912567"><ele>47.72</ele><time>2018-09-16T03:57:08Z</time></trkpt><trkpt lat="45.1419131644" lon="39.2929306906"><ele>47.24</ele><time>2018-09-16T03:57:22Z</time></trkpt><trkpt lat="45.1419084705" lon="39.2918146402"><ele>46.76</ele><time>2018-09-16T03:57:38Z</time></trkpt><trkpt lat="45.1419148408" lon="39.2912511248"><ele>46.28</ele><time>2018-09-16T03:57:46Z</time></trkpt><trkpt lat="45.1419096440" lon="39.2899871338"><ele>44.84</ele><time>2018-09-16T03:58:04Z</time></trkpt><trkpt lat="45.1419040281" lon="39.2891901825"><ele>44.84</ele><time>2018-09-16T03:58:15Z</time></trkpt><trkpt lat="45.1419036090" lon="39.2891203612"><ele>44.84</ele><time>2018-09-16T03:58:16Z</time></trkpt><trkpt lat="45.1419031061" lon="39.2890481930"><ele>44.84</ele><time>2018-09-16T03:58:17Z</time></trkpt><trkpt lat="45.1419038605" lon="39.2884267587"><ele>44.84</ele><time>2018-09-16T03:58:26Z</time></trkpt><trkpt lat="45.1419073809" lon="39.2883597035"><ele>44.84</ele><time>2018-09-16T03:58:27Z</time></trkpt><trkpt lat="45.1419137511" lon="39.2881538440"><ele>44.84</ele><time>2018-09-16T03:58:30Z</time></trkpt><trkpt lat="45.1419456024" lon="39.2879544385"><ele>44.36</ele><time>2018-09-16T03:58:33Z</time></trkpt><trkpt lat="45.1419900265" lon="39.2878201604"><ele>44.36</ele><time>2018-09-16T03:58:35Z</time></trkpt><trkpt lat="45.1420196146" lon="39.2877602298"><ele>44.36</ele><time>2018-09-16T03:58:36Z</time></trkpt><trkpt lat="45.1420571655" lon="39.2877063341"><ele>43.88</ele><time>2018-09-16T03:58:37Z</time></trkpt><trkpt lat="45.1421413198" lon="39.2876390275"><ele>43.40</ele><time>2018-09-16T03:58:39Z</time></trkpt><trkpt lat="45.1429478265" lon="39.2875858862"><ele>42.44</ele><time>2018-09-16T03:58:54Z</time></trkpt><trkpt lat="45.1439225581" lon="39.2875339184"><ele>42.44</ele><time>2018-09-16T03:59:11Z</time></trkpt><trkpt lat="45.1447317470" lon="39.2875055876"><ele>42.44</ele><time>2018-09-16T03:59:26Z</time></trkpt><trkpt lat="45.1456122659" lon="39.2874913383"><ele>42.44</ele><time>2018-09-16T03:59:42Z</time></trkpt><trkpt lat="45.1465977263" lon="39.2874677014"><ele>42.92</ele><time>2018-09-16T04:00:00Z</time></trkpt><trkpt lat="45.1474726293" lon="39.2874505185"><ele>42.92</ele><time>2018-09-16T04:00:16Z</time></trkpt><trkpt lat="45.1479775552" lon="39.2874416336"><ele>43.40</ele><time>2018-09-16T04:00:25Z</time></trkpt><trkpt lat="45.1488570683" lon="39.2874316592"><ele>42.92</ele><time>2018-09-16T04:00:41Z</time></trkpt><trkpt lat="45.1492510177" lon="39.2874338385"><ele>42.44</ele><time>2018-09-16T04:00:48Z</time></trkpt><trkpt lat="45.1494819392" lon="39.2874188349"><ele>42.44</ele><time>2018-09-16T04:00:52Z</time></trkpt><trkpt lat="45.1498920657" lon="39.2874207627"><ele>42.44</ele><time>2018-09-16T04:00:59Z</time></trkpt><trkpt lat="45.1507885102" lon="39.2873226106"><ele>40.99</ele><time>2018-09-16T04:01:13Z</time></trkpt><trkpt lat="45.1508417353" lon="39.2872929387"><ele>40.99</ele><time>2018-09-16T04:01:14Z</time></trkpt><trkpt lat="45.1509003248" lon="39.2872471735"><ele>40.99</ele><time>2018-09-16T04:01:15Z</time></trkpt><trkpt lat="45.1509474311" lon="39.2872022465"><ele>40.99</ele><time>2018-09-16T04:01:16Z</time></trkpt><trkpt lat="45.1517213322" lon="39.2862260062"><ele>40.03</ele><time>2018-09-16T04:01:32Z</time></trkpt><trkpt lat="45.1526987460" lon="39.2850502767"><ele>38.59</ele><time>2018-09-16T04:01:52Z</time></trkpt><trkpt lat="45.1527534798" lon="39.2849992309"><ele>38.59</ele><time>2018-09-16T04:01:53Z</time></trkpt><trkpt lat="45.1528091356" lon="39.2849625181"><ele>38.59</ele><time>2018-09-16T04:01:54Z</time></trkpt><trkpt lat="45.1529906038" lon="39.2848859075"><ele>38.59</ele><time>2018-09-16T04:01:57Z</time></trkpt><trkpt lat="45.1531129796" lon="39.2848612648"><ele>38.11</ele><time>2018-09-16T04:01:59Z</time></trkpt><trkpt lat="45.1540464722" lon="39.2848067824"><ele>37.63</ele><time>2018-09-16T04:02:14Z</time></trkpt><trkpt lat="45.1552757621" lon="39.2847321834"><ele>38.11</ele><time>2018-09-16T04:02:33Z</time></trkpt><trkpt lat="45.1560912374" lon="39.2846334446"><ele>38.59</ele><time>2018-09-16T04:02:46Z</time></trkpt><trkpt lat="45.1569031924" lon="39.2843371443"><ele>40.03</ele><time>2018-09-16T04:03:01Z</time></trkpt><trkpt lat="45.1569471136" lon="39.2843083106"><ele>40.03</ele><time>2018-09-16T04:03:02Z</time></trkpt><trkpt lat="45.1570775360" lon="39.2842114158"><ele>40.03</ele><time>2018-09-16T04:03:05Z</time></trkpt><trkpt lat="45.1577841304" lon="39.2835109401"><ele>40.99</ele><time>2018-09-16T04:03:22Z</time></trkpt><trkpt lat="45.1578232739" lon="39.2834619898"><ele>40.51</ele><time>2018-09-16T04:03:23Z</time></trkpt><trkpt lat="45.1584878750" lon="39.2826474365"><ele>39.55</ele><time>2018-09-16T04:03:40Z</time></trkpt><trkpt lat="45.1586882863" lon="39.2824128270"><ele>39.55</ele><time>2018-09-16T04:03:45Z</time></trkpt><trkpt lat="45.1592999138" lon="39.2816893011"><ele>39.55</ele><time>2018-09-16T04:04:01Z</time></trkpt><trkpt lat="45.1600204222" lon="39.2809045874"><ele>40.51</ele><time>2018-09-16T04:04:19Z</time></trkpt><trkpt lat="45.1603450533" lon="39.2805782799"><ele>40.51</ele><time>2018-09-16T04:04:27Z</time></trkpt><trkpt lat="45.1610144321" lon="39.2799529899"><ele>40.51</ele><time>2018-09-16T04:04:43Z</time></trkpt><trkpt lat="45.1616998203" lon="39.2792982794"><ele>40.99</ele><time>2018-09-16T04:04:59Z</time></trkpt><trkpt lat="45.1625793334" lon="39.2784584966"><ele>40.51</ele><time>2018-09-16T04:05:19Z</time></trkpt><trkpt lat="45.1633850019" lon="39.2776940670"><ele>40.51</ele><time>2018-09-16T04:05:37Z</time></trkpt><trkpt lat="45.1642442308" lon="39.2768676952"><ele>40.03</ele><time>2018-09-16T04:05:55Z</time></trkpt><trkpt lat="45.1650112588" lon="39.2761433311"><ele>40.03</ele><time>2018-09-16T04:06:12Z</time></trkpt><trkpt lat="45.1651901286" lon="39.2759761121"><ele>40.03</ele><time>2018-09-16T04:06:16Z</time></trkpt><trkpt lat="45.1657812204" lon="39.2754124291"><ele>40.51</ele><time>2018-09-16T04:06:31Z</time></trkpt><trkpt lat="45.1665661857" lon="39.2746516038"><ele>40.03</ele><time>2018-09-16T04:06:49Z</time></trkpt><trkpt lat="45.1673763804" lon="39.2738737632"><ele>40.03</ele><time>2018-09-16T04:07:06Z</time></trkpt><trkpt lat="45.1680667978" lon="39.2732124310"><ele>39.55</ele><time>2018-09-16T04:07:21Z</time></trkpt><trkpt lat="45.1687903237" lon="39.2725373525"><ele>39.07</ele><time>2018-09-16T04:07:37Z</time></trkpt><trkpt lat="45.1694996003" lon="39.2718664650"><ele>38.59</ele><time>2018-09-16T04:07:54Z</time></trkpt><trkpt lat="45.1702413149" lon="39.2711592838"><ele>38.11</ele><time>2018-09-16T04:08:11Z</time></trkpt><trkpt lat="45.1709328219" lon="39.2704838701"><ele>39.55</ele><time>2018-09-16T04:08:27Z</time></trkpt><trkpt lat="45.1715975907" lon="39.2698579095"><ele>40.03</ele><time>2018-09-16T04:08:42Z</time></trkpt><trkpt lat="45.1723075379" lon="39.2691624630"><ele>40.03</ele><time>2018-09-16T04:08:58Z</time></trkpt><trkpt lat="45.1725324243" lon="39.2689498980"><ele>40.03</ele><time>2018-09-16T04:09:03Z</time></trkpt><trkpt lat="45.1734050643" lon="39.2681257054"><ele>39.07</ele><time>2018-09-16T04:09:22Z</time></trkpt><trkpt lat="45.1742717531" lon="39.2672943883"><ele>39.55</ele><time>2018-09-16T04:09:42Z</time></trkpt><trkpt lat="45.1749907527" lon="39.2665992770"><ele>39.55</ele><time>2018-09-16T04:09:59Z</time></trkpt><trkpt lat="45.1752450597" lon="39.2663507536"><ele>40.03</ele><time>2018-09-16T04:10:05Z</time></trkpt><trkpt lat="45.1752848737" lon="39.2663123645"><ele>40.03</ele><time>2018-09-16T04:10:06Z</time></trkpt><trkpt lat="45.1755202375" lon="39.2660915852"><ele>39.55</ele><time>2018-09-16T04:10:12Z</time></trkpt><trkpt lat="45.1757648215" lon="39.2658723146"><ele>39.55</ele><time>2018-09-16T04:10:18Z</time></trkpt><trkpt lat="45.1757965889" lon="39.2658339255"><ele>40.03</ele><time>2018-09-16T04:10:19Z</time></trkpt><trkpt lat="45.1758291107" lon="39.2657950334"><ele>40.03</ele><time>2018-09-16T04:10:20Z</time></trkpt><trkpt lat="45.1758612972" lon="39.2657614220"><ele>40.03</ele><time>2018-09-16T04:10:21Z</time></trkpt><trkpt lat="45.1758969203" lon="39.2657288164"><ele>40.03</ele><time>2018-09-16T04:10:22Z</time></trkpt><trkpt lat="45.1762062125" lon="39.2654430773"><ele>40.03</ele><time>2018-09-16T04:10:30Z</time></trkpt><trkpt lat="45.1762430090" lon="39.2654057778"><ele>40.03</ele><time>2018-09-16T04:10:31Z</time></trkpt><trkpt lat="45.1764840726" lon="39.2651718389"><ele>40.51</ele><time>2018-09-16T04:10:37Z</time></trkpt><trkpt lat="45.1765213721" lon="39.2651378922"><ele>40.51</ele><time>2018-09-16T04:10:38Z</time></trkpt><trkpt lat="45.1771444827" lon="39.2645455431"><ele>40.51</ele><time>2018-09-16T04:10:54Z</time></trkpt><trkpt lat="45.1778460480" lon="39.2638704646"><ele>40.99</ele><time>2018-09-16T04:11:11Z</time></trkpt><trkpt lat="45.1780174579" lon="39.2637062632"><ele>40.99</ele><time>2018-09-16T04:11:15Z</time></trkpt><trkpt lat="45.1780593675" lon="39.2636633478"><ele>40.99</ele><time>2018-09-16T04:11:16Z</time></trkpt><trkpt lat="45.1788255572" lon="39.2629253212"><ele>40.03</ele><time>2018-09-16T04:11:34Z</time></trkpt><trkpt lat="45.1794896554" lon="39.2623022106"><ele>40.03</ele><time>2018-09-16T04:11:49Z</time></trkpt><trkpt lat="45.1802746207" lon="39.2615408823"><ele>38.59</ele><time>2018-09-16T04:12:05Z</time></trkpt><trkpt lat="45.1810584962" lon="39.2608004250"><ele>36.19</ele><time>2018-09-16T04:12:21Z</time></trkpt><trkpt lat="45.1817610674" lon="39.2601202335"><ele>36.19</ele><time>2018-09-16T04:12:36Z</time></trkpt><trkpt lat="45.1827059593" lon="39.2592130601"><ele>35.23</ele><time>2018-09-16T04:12:56Z</time></trkpt><trkpt lat="45.1833742484" lon="39.2585788853"><ele>35.71</ele><time>2018-09-16T04:13:10Z</time></trkpt><trkpt lat="45.1839919947" lon="39.2579865362"><ele>35.71</ele><time>2018-09-16T04:13:23Z</time></trkpt><trkpt lat="45.1848145109" lon="39.2572074383"><ele>35.71</ele><time>2018-09-16T04:13:42Z</time></trkpt><trkpt lat="45.1854805369" lon="39.2565678991"><ele>34.74</ele><time>2018-09-16T04:13:57Z</time></trkpt><trkpt lat="45.1855285652" lon="39.2565265764"><ele>34.74</ele><time>2018-09-16T04:13:58Z</time></trkpt><trkpt lat="45.1862681843" lon="39.2558220774"><ele>34.74</ele><time>2018-09-16T04:14:14Z</time></trkpt><trkpt lat="45.1869774610" lon="39.2551489267"><ele>33.78</ele><time>2018-09-16T04:14:28Z</time></trkpt><trkpt lat="45.1877703890" lon="39.2543874308"><ele>33.78</ele><time>2018-09-16T04:14:44Z</time></trkpt><trkpt lat="45.1885660831" lon="39.2536183074"><ele>32.82</ele><time>2018-09-16T04:15:01Z</time></trkpt><trkpt lat="45.1894207858" lon="39.2527971324"><ele>32.82</ele><time>2018-09-16T04:15:19Z</time></trkpt><trkpt lat="45.1902653463" lon="39.2519842554"><ele>31.38</ele><time>2018-09-16T04:15:36Z</time></trkpt><trkpt lat="45.1911436021" lon="39.2511357553"><ele>28.98</ele><time>2018-09-16T04:15:53Z</time></trkpt><trkpt lat="45.1916414034" lon="39.2506285664"><ele>28.98</ele><time>2018-09-16T04:16:02Z</time></trkpt><trkpt lat="45.1916847378" lon="39.2505559791"><ele>28.98</ele><time>2018-09-16T04:16:03Z</time></trkpt><trkpt lat="45.1917222049" lon="39.2504707351"><ele>28.98</ele><time>2018-09-16T04:16:04Z</time></trkpt><trkpt lat="45.1917488594" lon="39.2503878381"><ele>29.46</ele><time>2018-09-16T04:16:05Z</time></trkpt><trkpt lat="45.1917680539" lon="39.2503102217"><ele>29.46</ele><time>2018-09-16T04:16:06Z</time></trkpt><trkpt lat="45.1917823032" lon="39.2502264865"><ele>29.46</ele><time>2018-09-16T04:16:07Z</time></trkpt><trkpt lat="45.1917940378" lon="39.2501393147"><ele>29.46</ele><time>2018-09-16T04:16:08Z</time></trkpt><trkpt lat="45.1918528788" lon="39.2489935085"><ele>29.46</ele><time>2018-09-16T04:16:22Z</time></trkpt><trkpt lat="45.1918683015" lon="39.2488432210"><ele>29.94</ele><time>2018-09-16T04:16:24Z</time></trkpt><trkpt lat="45.1918683015" lon="39.2487702984"><ele>29.94</ele><time>2018-09-16T04:16:25Z</time></trkpt><trkpt lat="45.1919667050" lon="39.2478083074"><ele>30.42</ele><time>2018-09-16T04:16:39Z</time></trkpt><trkpt lat="45.1922311541" lon="39.2470841110"><ele>32.82</ele><time>2018-09-16T04:16:53Z</time></trkpt><trkpt lat="45.1928069070" lon="39.2462996487"><ele>33.78</ele><time>2018-09-16T04:17:12Z</time></trkpt><trkpt lat="45.1929452084" lon="39.2461299151"><ele>33.78</ele><time>2018-09-16T04:17:16Z</time></trkpt><trkpt lat="45.1935673133" lon="39.2454647273"><ele>33.30</ele><time>2018-09-16T04:17:33Z</time></trkpt><trkpt lat="45.1941655297" lon="39.2449059058"><ele>31.38</ele><time>2018-09-16T04:17:47Z</time></trkpt><trkpt lat="45.1948461402" lon="39.2442892492"><ele>30.90</ele><time>2018-09-16T04:18:02Z</time></trkpt><trkpt lat="45.1953367330" lon="39.2438395601"><ele>30.42</ele><time>2018-09-16T04:18:13Z</time></trkpt><trkpt lat="45.1957047824" lon="39.2435100675"><ele>30.42</ele><time>2018-09-16T04:18:21Z</time></trkpt><trkpt lat="45.1965455711" lon="39.2427150439"><ele>29.94</ele><time>2018-09-16T04:18:40Z</time></trkpt><trkpt lat="45.1972497348" lon="39.2420415580"><ele>31.38</ele><time>2018-09-16T04:18:57Z</time></trkpt><trkpt lat="45.1979271602" lon="39.2414135020"><ele>31.86</ele><time>2018-09-16T04:19:14Z</time></trkpt><trkpt lat="45.1985864807" lon="39.2407767288"><ele>32.82</ele><time>2018-09-16T04:19:31Z</time></trkpt><trkpt lat="45.1992069930" lon="39.2402011435"><ele>33.78</ele><time>2018-09-16T04:19:45Z</time></trkpt><trkpt lat="45.1999169402" lon="39.2395418230"><ele>33.78</ele><time>2018-09-16T04:20:02Z</time></trkpt><trkpt lat="45.2007001452" lon="39.2388258409"><ele>33.78</ele><time>2018-09-16T04:20:20Z</time></trkpt><trkpt lat="45.2014545165" lon="39.2381916661"><ele>34.74</ele><time>2018-09-16T04:20:38Z</time></trkpt><trkpt lat="45.2022197004" lon="39.2379085254"><ele>34.74</ele><time>2018-09-16T04:20:54Z</time></trkpt><trkpt lat="45.2029210143" lon="39.2379597388"><ele>35.71</ele><time>2018-09-16T04:21:09Z</time></trkpt><trkpt lat="45.2030112036" lon="39.2379884049"><ele>35.71</ele><time>2018-09-16T04:21:11Z</time></trkpt><trkpt lat="45.2033194900" lon="39.2381011415"><ele>35.23</ele><time>2018-09-16T04:21:17Z</time></trkpt><trkpt lat="45.2038908005" lon="39.2383449711"><ele>35.23</ele><time>2018-09-16T04:21:28Z</time></trkpt><trkpt lat="45.2039355598" lon="39.2383682728"><ele>35.23</ele><time>2018-09-16T04:21:29Z</time></trkpt><trkpt lat="45.2040638030" lon="39.2384370044"><ele>35.23</ele><time>2018-09-16T04:21:32Z</time></trkpt><trkpt lat="45.2041065507" lon="39.2384505831"><ele>35.23</ele><time>2018-09-16T04:21:33Z</time></trkpt><trkpt lat="45.2047641110" lon="39.2387160379"><ele>34.74</ele><time>2018-09-16T04:21:47Z</time></trkpt><trkpt lat="45.2051723097" lon="39.2388574407"><ele>34.74</ele><time>2018-09-16T04:21:55Z</time></trkpt><trkpt lat="45.2052673604" lon="39.2388588656"><ele>35.23</ele><time>2018-09-16T04:21:57Z</time></trkpt><trkpt lat="45.2053075936" lon="39.2388501484"><ele>35.23</ele><time>2018-09-16T04:21:58Z</time></trkpt><trkpt lat="45.2053532749" lon="39.2388327979"><ele>35.23</ele><time>2018-09-16T04:21:59Z</time></trkpt><trkpt lat="45.2054054104" lon="39.2388054729"><ele>35.23</ele><time>2018-09-16T04:22:00Z</time></trkpt><trkpt lat="45.2054340765" lon="39.2387861107"><ele>35.23</ele><time>2018-09-16T04:22:01Z</time></trkpt><trkpt lat="45.2054728847" lon="39.2387492303"><ele>35.23</ele><time>2018-09-16T04:22:02Z</time></trkpt><trkpt lat="45.2055116091" lon="39.2387086619"><ele>35.23</ele><time>2018-09-16T04:22:03Z</time></trkpt><trkpt lat="45.2057141159" lon="39.2385028861"><ele>34.74</ele><time>2018-09-16T04:22:08Z</time></trkpt><trkpt lat="45.2058596257" lon="39.2383505031"><ele>33.78</ele><time>2018-09-16T04:22:13Z</time></trkpt><trkpt lat="45.2058811672" lon="39.2383454740"><ele>33.78</ele><time>2018-09-16T04:22:14Z</time></trkpt><trkpt lat="45.2058944944" lon="39.2383551970"><ele>33.30</ele><time>2018-09-16T04:22:15Z</time></trkpt><trkpt lat="45.2058473881" lon="39.2383609805"><ele>33.78</ele><time>2018-09-16T04:22:21Z</time></trkpt><trkpt lat="45.2058360726" lon="39.2380351759"><ele>40.51</ele><time>2018-09-16T04:22:29Z</time></trkpt><trkpt lat="45.2058135252" lon="39.2380057555"><ele>40.51</ele><time>2018-09-16T04:22:30Z</time></trkpt><trkpt lat="45.2057980187" lon="39.2379529495"><ele>40.51</ele><time>2018-09-16T04:22:31Z</time></trkpt><trkpt lat="45.2058013715" lon="39.2379041668"><ele>40.03</ele><time>2018-09-16T04:22:32Z</time></trkpt><trkpt lat="45.2058187220" lon="39.2378492653"><ele>40.03</ele><time>2018-09-16T04:22:33Z</time></trkpt><trkpt lat="45.2058424428" lon="39.2378053442"><ele>40.03</ele><time>2018-09-16T04:22:34Z</time></trkpt><trkpt lat="45.2058707736" lon="39.2377513647"><ele>40.03</ele><time>2018-09-16T04:22:35Z</time></trkpt><trkpt lat="45.2058954164" lon="39.2377061862"><ele>40.03</ele><time>2018-09-16T04:22:36Z</time></trkpt><trkpt lat="45.2059214003" lon="39.2376563977"><ele>39.55</ele><time>2018-09-16T04:22:37Z</time></trkpt><trkpt lat="45.2059365716" lon="39.2376114707"><ele>39.55</ele><time>2018-09-16T04:22:38Z</time></trkpt><trkpt lat="45.2059535868" lon="39.2375602573"><ele>39.07</ele><time>2018-09-16T04:22:39Z</time></trkpt><trkpt lat="45.2059719432" lon="39.2375160009"><ele>39.07</ele><time>2018-09-16T04:22:40Z</time></trkpt><trkpt lat="45.2060685027" lon="39.2372850794"><ele>39.07</ele><time>2018-09-16T04:22:49Z</time></trkpt><trkpt lat="45.2060824167" lon="39.2372530606"><ele>38.59</ele><time>2018-09-16T04:22:50Z</time></trkpt><trkpt lat="45.2060840093" lon="39.2372178566"><ele>38.59</ele><time>2018-09-16T04:22:51Z</time></trkpt><trkpt lat="45.2060602885" lon="39.2371539865"><ele>38.59</ele><time>2018-09-16T04:22:53Z</time></trkpt><trkpt lat="45.2060896251" lon="39.2370166071"><ele>38.11</ele><time>2018-09-16T04:22:57Z</time></trkpt><trkpt lat="45.2062122524" lon="39.2367579415"><ele>37.63</ele><time>2018-09-16T04:23:03Z</time></trkpt><trkpt lat="45.2062520664" lon="39.2366456240"><ele>37.15</ele><time>2018-09-16T04:23:05Z</time></trkpt><trkpt lat="45.2064087242" lon="39.2362099327"><ele>35.23</ele><time>2018-09-16T04:23:13Z</time></trkpt><trkpt lat="45.2064831555" lon="39.2359905783"><ele>34.74</ele><time>2018-09-16T04:23:17Z</time></trkpt><trkpt lat="45.2065896057" lon="39.2357736547"><ele>34.26</ele><time>2018-09-16T04:23:21Z</time></trkpt><trkpt lat="45.2066139970" lon="39.2357135564"><ele>34.26</ele><time>2018-09-16T04:23:22Z</time></trkpt><trkpt lat="45.2066353709" lon="39.2356591579"><ele>33.78</ele><time>2018-09-16T04:23:23Z</time></trkpt><trkpt lat="45.2066599298" lon="39.2355990596"><ele>33.78</ele><time>2018-09-16T04:23:24Z</time></trkpt><trkpt lat="45.2066879254" lon="39.2355480138"><ele>33.78</ele><time>2018-09-16T04:23:25Z</time></trkpt><trkpt lat="45.2067174297" lon="39.2355002370"><ele>33.30</ele><time>2018-09-16T04:23:26Z</time></trkpt><trkpt lat="45.2067548130" lon="39.2354532145"><ele>33.30</ele><time>2018-09-16T04:23:27Z</time></trkpt><trkpt lat="45.2067910228" lon="39.2354216985"><ele>33.30</ele><time>2018-09-16T04:23:28Z</time></trkpt><trkpt lat="45.2068380453" lon="39.2354024202"><ele>33.78</ele><time>2018-09-16T04:23:29Z</time></trkpt><trkpt lat="45.2068700641" lon="39.2353980616"><ele>33.78</ele><time>2018-09-16T04:23:30Z</time></trkpt><trkpt lat="45.2069137339" lon="39.2353980616"><ele>33.78</ele><time>2018-09-16T04:23:31Z</time></trkpt><trkpt lat="45.2069612592" lon="39.2354001570"><ele>33.78</ele><time>2018-09-16T04:23:32Z</time></trkpt><trkpt lat="45.2071900014" lon="39.2353832256"><ele>34.26</ele><time>2018-09-16T04:23:37Z</time></trkpt><trkpt lat="45.2073297277" lon="39.2353395559"><ele>34.26</ele><time>2018-09-16T04:23:40Z</time></trkpt><trkpt lat="45.2073812764" lon="39.2353301682"><ele>34.26</ele><time>2018-09-16T04:23:41Z</time></trkpt><trkpt lat="45.2074333280" lon="39.2353246361"><ele>34.26</ele><time>2018-09-16T04:23:42Z</time></trkpt><trkpt lat="45.2074852120" lon="39.2353261448"><ele>34.26</ele><time>2018-09-16T04:23:43Z</time></trkpt><trkpt lat="45.2075381018" lon="39.2353337724"><ele>34.26</ele><time>2018-09-16T04:23:44Z</time></trkpt><trkpt lat="45.2077292092" lon="39.2353600077"><ele>34.26</ele><time>2018-09-16T04:23:48Z</time></trkpt><trkpt lat="45.2081084903" lon="39.2354403064"><ele>34.26</ele><time>2018-09-16T04:23:57Z</time></trkpt><trkpt lat="45.2081548423" lon="39.2354389653"><ele>33.78</ele><time>2018-09-16T04:23:58Z</time></trkpt><trkpt lat="45.2086228877" lon="39.2353227921"><ele>33.78</ele><time>2018-09-16T04:24:08Z</time></trkpt><trkpt lat="45.2086701617" lon="39.2352829780"><ele>33.30</ele><time>2018-09-16T04:24:09Z</time></trkpt><trkpt lat="45.2087147534" lon="39.2352369614"><ele>33.30</ele><time>2018-09-16T04:24:10Z</time></trkpt><trkpt lat="45.2087560762" lon="39.2351896036"><ele>33.30</ele><time>2018-09-16T04:24:11Z</time></trkpt><trkpt lat="45.2087955549" lon="39.2351422459"><ele>33.30</ele><time>2018-09-16T04:24:12Z</time></trkpt><trkpt lat="45.2092392091" lon="39.2346108332"><ele>31.86</ele><time>2018-09-16T04:24:23Z</time></trkpt><trkpt lat="45.2097876370" lon="39.2339244392"><ele>31.86</ele><time>2018-09-16T04:24:38Z</time></trkpt><trkpt lat="45.2098598052" lon="39.2338248622"><ele>32.34</ele><time>2018-09-16T04:24:40Z</time></trkpt><trkpt lat="45.2105303574" lon="39.2330118176"><ele>33.30</ele><time>2018-09-16T04:24:57Z</time></trkpt><trkpt lat="45.2112257201" lon="39.2322148662"><ele>32.34</ele><time>2018-09-16T04:25:14Z</time></trkpt><trkpt lat="45.2116569690" lon="39.2317132931"><ele>31.86</ele><time>2018-09-16T04:25:25Z</time></trkpt><trkpt lat="45.2123442851" lon="39.2309066188"><ele>30.42</ele><time>2018-09-16T04:25:42Z</time></trkpt><trkpt lat="45.2130583394" lon="39.2300684284"><ele>29.46</ele><time>2018-09-16T04:26:00Z</time></trkpt><trkpt lat="45.2138307318" lon="39.2292263824"><ele>30.42</ele><time>2018-09-16T04:26:18Z</time></trkpt><trkpt lat="45.2143495716" lon="39.2286608554"><ele>29.94</ele><time>2018-09-16T04:26:32Z</time></trkpt><trkpt lat="45.2148530725" lon="39.2281029560"><ele>29.94</ele><time>2018-09-16T04:26:46Z</time></trkpt><trkpt lat="45.2153919451" lon="39.2274838686"><ele>31.38</ele><time>2018-09-16T04:26:59Z</time></trkpt><trkpt lat="45.2157634310" lon="39.2270642705"><ele>31.86</ele><time>2018-09-16T04:27:07Z</time></trkpt><trkpt lat="45.2165212389" lon="39.2262190394"><ele>32.34</ele><time>2018-09-16T04:27:24Z</time></trkpt><trkpt lat="45.2167032938" lon="39.2260182928"><ele>32.82</ele><time>2018-09-16T04:27:29Z</time></trkpt><trkpt lat="45.2167421021" lon="39.2259875312"><ele>32.82</ele><time>2018-09-16T04:27:30Z</time></trkpt><trkpt lat="45.2168499772" lon="39.2258989345"><ele>32.82</ele><time>2018-09-16T04:27:33Z</time></trkpt><trkpt lat="45.2168830857" lon="39.2258629762"><ele>32.82</ele><time>2018-09-16T04:27:34Z</time></trkpt><trkpt lat="45.2174637839" lon="39.2252209224"><ele>33.30</ele><time>2018-09-16T04:27:49Z</time></trkpt><trkpt lat="45.2176533826" lon="39.2250183318"><ele>32.82</ele><time>2018-09-16T04:27:54Z</time></trkpt><trkpt lat="45.2178533748" lon="39.2247338500"><ele>32.82</ele><time>2018-09-16T04:28:00Z</time></trkpt><trkpt lat="45.2181687858" lon="39.2242836580"><ele>30.90</ele><time>2018-09-16T04:28:09Z</time></trkpt><trkpt lat="45.2183434647" lon="39.2240270041"><ele>30.42</ele><time>2018-09-16T04:28:14Z</time></trkpt><trkpt lat="45.2184493281" lon="39.2238937318"><ele>29.94</ele><time>2018-09-16T04:28:17Z</time></trkpt><trkpt lat="45.2188809123" lon="39.2233654205"><ele>29.46</ele><time>2018-09-16T04:28:32Z</time></trkpt><trkpt lat="45.2191986702" lon="39.2229675315"><ele>30.90</ele><time>2018-09-16T04:28:43Z</time></trkpt><trkpt lat="45.2197973896" lon="39.2222334445"><ele>31.86</ele><time>2018-09-16T04:28:58Z</time></trkpt><trkpt lat="45.2203382738" lon="39.2216302827"><ele>31.38</ele><time>2018-09-16T04:29:12Z</time></trkpt><trkpt lat="45.2209491469" lon="39.2209655140"><ele>30.42</ele><time>2018-09-16T04:29:28Z</time></trkpt><trkpt lat="45.2214581799" lon="39.2203677166"><ele>29.94</ele><time>2018-09-16T04:29:42Z</time></trkpt><trkpt lat="45.2214948088" lon="39.2203239631"><ele>30.42</ele><time>2018-09-16T04:29:43Z</time></trkpt><trkpt lat="45.2216522209" lon="39.2201549001"><ele>30.42</ele><time>2018-09-16T04:29:47Z</time></trkpt><trkpt lat="45.2218559012" lon="39.2199466098"><ele>29.94</ele><time>2018-09-16T04:29:52Z</time></trkpt><trkpt lat="45.2224714682" lon="39.2192856967"><ele>31.38</ele><time>2018-09-16T04:30:07Z</time></trkpt><trkpt lat="45.2230614703" lon="39.2186438944"><ele>30.42</ele><time>2018-09-16T04:30:21Z</time></trkpt><trkpt lat="45.2238700725" lon="39.2179000005"><ele>29.46</ele><time>2018-09-16T04:30:39Z</time></trkpt><trkpt lat="45.2243651077" lon="39.2174638901"><ele>28.50</ele><time>2018-09-16T04:30:50Z</time></trkpt><trkpt lat="45.2246384416" lon="39.2171964236"><ele>28.98</ele><time>2018-09-16T04:30:57Z</time></trkpt><trkpt lat="45.2246795129" lon="39.2171593755"><ele>29.46</ele><time>2018-09-16T04:30:58Z</time></trkpt><trkpt lat="45.2250074130" lon="39.2168681882"><ele>30.42</ele><time>2018-09-16T04:31:06Z</time></trkpt><trkpt lat="45.2255840041" lon="39.2163389549"><ele>30.90</ele><time>2018-09-16T04:31:20Z</time></trkpt><trkpt lat="45.2262109704" lon="39.2157445103"><ele>29.94</ele><time>2018-09-16T04:31:35Z</time></trkpt><trkpt lat="45.2262486052" lon="39.2157053668"><ele>29.94</ele><time>2018-09-16T04:31:36Z</time></trkpt><trkpt lat="45.2267896570" lon="39.2152177077"><ele>30.42</ele><time>2018-09-16T04:31:48Z</time></trkpt><trkpt lat="45.2269524336" lon="39.2150653247"><ele>30.42</ele><time>2018-09-16T04:31:52Z</time></trkpt><trkpt lat="45.2270334028" lon="39.2149863672"><ele>30.42</ele><time>2018-09-16T04:31:54Z</time></trkpt><trkpt lat="45.2273692656" lon="39.2146913242"><ele>30.42</ele><time>2018-09-16T04:32:02Z</time></trkpt><trkpt lat="45.2274105884" lon="39.2146618199"><ele>30.42</ele><time>2018-09-16T04:32:03Z</time></trkpt><trkpt lat="45.2278913744" lon="39.2142943572"><ele>31.86</ele><time>2018-09-16T04:32:16Z</time></trkpt><trkpt lat="45.2285585739" lon="39.2139179260"><ele>32.82</ele><time>2018-09-16T04:32:31Z</time></trkpt><trkpt lat="45.2289702091" lon="39.2137082107"><ele>31.86</ele><time>2018-09-16T04:32:41Z</time></trkpt><trkpt lat="45.2289991267" lon="39.2137294170"><ele>31.86</ele><time>2018-09-16T04:32:42Z</time></trkpt><trkpt lat="45.2290163934" lon="39.2137574125"><ele>31.86</ele><time>2018-09-16T04:32:43Z</time></trkpt><trkpt lat="45.2290267870" lon="39.2137844861"><ele>31.38</ele><time>2018-09-16T04:32:44Z</time></trkpt><trkpt lat="45.2290350851" lon="39.2138075363"><ele>31.38</ele><time>2018-09-16T04:32:45Z</time></trkpt><trkpt lat="45.2290402818" lon="39.2138310894"><ele>31.38</ele><time>2018-09-16T04:32:46Z</time></trkpt><trkpt lat="45.2290407009" lon="39.2138529662"><ele>31.38</ele><time>2018-09-16T04:32:47Z</time></trkpt><trkpt lat="45.2290462330" lon="39.2138732504"><ele>30.42</ele><time>2018-09-16T04:32:58Z</time></trkpt><trkpt lat="45.2290599793" lon="39.2138668802"><ele>28.98</ele><time>2018-09-16T04:33:19Z</time></trkpt><trkpt lat="45.2290446404" lon="39.2138626054"><ele>28.02</ele><time>2018-09-16T04:33:53Z</time></trkpt><trkpt lat="45.2290510945" lon="39.2138903495"><ele>28.98</ele><time>2018-09-16T04:34:29Z</time></trkpt><trkpt lat="45.2290759888" lon="39.2138797045"><ele>24.65</ele><time>2018-09-16T04:35:06Z</time></trkpt><trkpt lat="45.2290868852" lon="39.2138922773"><ele>26.57</ele><time>2018-09-16T04:35:36Z</time></trkpt><trkpt lat="45.2291031461" lon="39.2138970550"><ele>28.02</ele><time>2018-09-16T04:36:09Z</time></trkpt><trkpt lat="45.2290861309" lon="39.2138385493"><ele>29.46</ele><time>2018-09-16T04:36:29Z</time></trkpt><trkpt lat="45.2290853765" lon="39.2138138227"><ele>29.46</ele><time>2018-09-16T04:36:31Z</time></trkpt><trkpt lat="45.2290792577" lon="39.2136927880"><ele>30.90</ele><time>2018-09-16T04:36:44Z</time></trkpt><trkpt lat="45.2291149646" lon="39.2136512976"><ele>30.90</ele><time>2018-09-16T04:36:47Z</time></trkpt><trkpt lat="45.2294901386" lon="39.2135134991"><ele>30.42</ele><time>2018-09-16T04:37:00Z</time></trkpt><trkpt lat="45.2299240697" lon="39.2133364733"><ele>31.38</ele><time>2018-09-16T04:37:14Z</time></trkpt><trkpt lat="45.2300301008" lon="39.2132783867"><ele>31.38</ele><time>2018-09-16T04:37:17Z</time></trkpt><trkpt lat="45.2300744411" lon="39.2132590245"><ele>31.38</ele><time>2018-09-16T04:37:18Z</time></trkpt><trkpt lat="45.2307216078" lon="39.2129708547"><ele>31.38</ele><time>2018-09-16T04:37:34Z</time></trkpt><trkpt lat="45.2313837782" lon="39.2126831040"><ele>32.34</ele><time>2018-09-16T04:37:48Z</time></trkpt><trkpt lat="45.2314324770" lon="39.2126582935"><ele>32.34</ele><time>2018-09-16T04:37:49Z</time></trkpt><trkpt lat="45.2314806730" lon="39.2126318906"><ele>32.34</ele><time>2018-09-16T04:37:50Z</time></trkpt><trkpt lat="45.2315324731" lon="39.2126057390"><ele>32.34</ele><time>2018-09-16T04:37:51Z</time></trkpt><trkpt lat="45.2315836027" lon="39.2125815991"><ele>32.34</ele><time>2018-09-16T04:37:52Z</time></trkpt><trkpt lat="45.2324869204" lon="39.2121310718"><ele>32.82</ele><time>2018-09-16T04:38:10Z</time></trkpt><trkpt lat="45.2333522681" lon="39.2116949614"><ele>32.82</ele><time>2018-09-16T04:38:27Z</time></trkpt><trkpt lat="45.2341761254" lon="39.2113071308"><ele>33.30</ele><time>2018-09-16T04:38:44Z</time></trkpt><trkpt lat="45.2349447459" lon="39.2109322920"><ele>32.34</ele><time>2018-09-16T04:39:00Z</time></trkpt><trkpt lat="45.2357432060" lon="39.2105537653"><ele>32.82</ele><time>2018-09-16T04:39:18Z</time></trkpt><trkpt lat="45.2363551687" lon="39.2102542799"><ele>32.34</ele><time>2018-09-16T04:39:31Z</time></trkpt><trkpt lat="45.2365487069" lon="39.2101596482"><ele>32.82</ele><time>2018-09-16T04:39:35Z</time></trkpt><trkpt lat="45.2371145692" lon="39.2098966241"><ele>33.30</ele><time>2018-09-16T04:39:47Z</time></trkpt><trkpt lat="45.2371601667" lon="39.2098755017"><ele>33.30</ele><time>2018-09-16T04:39:48Z</time></trkpt><trkpt lat="45.2378775738" lon="39.2095439974"><ele>33.78</ele><time>2018-09-16T04:40:03Z</time></trkpt><trkpt lat="45.2385487128" lon="39.2091669794"><ele>32.82</ele><time>2018-09-16T04:40:19Z</time></trkpt><trkpt lat="45.2387865074" lon="39.2090223916"><ele>32.34</ele><time>2018-09-16T04:40:32Z</time></trkpt><trkpt lat="45.2389601804" lon="39.2089375667"><ele>31.86</ele><time>2018-09-16T04:40:38Z</time></trkpt><trkpt lat="45.2389944624" lon="39.2089054640"><ele>31.86</ele><time>2018-09-16T04:40:39Z</time></trkpt><trkpt lat="45.2396375220" lon="39.2083835229"><ele>32.82</ele><time>2018-09-16T04:40:55Z</time></trkpt><trkpt lat="45.2402529214" lon="39.2078578100"><ele>32.34</ele><time>2018-09-16T04:41:09Z</time></trkpt><trkpt lat="45.2410067059" lon="39.2071844917"><ele>33.78</ele><time>2018-09-16T04:41:27Z</time></trkpt><trkpt lat="45.2416008152" lon="39.2066539172"><ele>34.26</ele><time>2018-09-16T04:41:43Z</time></trkpt><trkpt lat="45.2422004566" lon="39.2061233427"><ele>35.23</ele><time>2018-09-16T04:41:59Z</time></trkpt><trkpt lat="45.2428268362" lon="39.2055525351"><ele>35.23</ele><time>2018-09-16T04:42:14Z</time></trkpt><trkpt lat="45.2435530443" lon="39.2048145086"><ele>34.26</ele><time>2018-09-16T04:42:31Z</time></trkpt><trkpt lat="45.2443916537" lon="39.2039803416"><ele>33.78</ele><time>2018-09-16T04:42:49Z</time></trkpt><trkpt lat="45.2453197818" lon="39.2031592503"><ele>33.30</ele><time>2018-09-16T04:43:08Z</time></trkpt><trkpt lat="45.2458664495" lon="39.2026667297"><ele>33.30</ele><time>2018-09-16T04:43:20Z</time></trkpt><trkpt lat="45.2465811744" lon="39.2020388413"><ele>32.82</ele><time>2018-09-16T04:43:37Z</time></trkpt><trkpt lat="45.2473036107" lon="39.2013823707"><ele>32.34</ele><time>2018-09-16T04:43:53Z</time></trkpt><trkpt lat="45.2475047763" lon="39.2011237051"><ele>31.86</ele><time>2018-09-16T04:43:58Z</time></trkpt><trkpt lat="45.2475504577" lon="39.2010820471"><ele>31.38</ele><time>2018-09-16T04:43:59Z</time></trkpt><trkpt lat="45.2476912737" lon="39.2009610962"><ele>31.38</ele><time>2018-09-16T04:44:02Z</time></trkpt><trkpt lat="45.2484703716" lon="39.2001591995"><ele>30.42</ele><time>2018-09-16T04:44:18Z</time></trkpt><trkpt lat="45.2485964354" lon="39.1998997796"><ele>30.90</ele><time>2018-09-16T04:44:22Z</time></trkpt><trkpt lat="45.2488126047" lon="39.1991502699"><ele>32.34</ele><time>2018-09-16T04:44:37Z</time></trkpt><trkpt lat="45.2489018720" lon="39.1984232236"><ele>33.30</ele><time>2018-09-16T04:44:53Z</time></trkpt><trkpt lat="45.2489850204" lon="39.1976563632"><ele>33.78</ele><time>2018-09-16T04:45:09Z</time></trkpt><trkpt lat="45.2490756288" lon="39.1967755090"><ele>33.30</ele><time>2018-09-16T04:45:25Z</time></trkpt><trkpt lat="45.2491506469" lon="39.1959260032"><ele>30.90</ele><time>2018-09-16T04:45:38Z</time></trkpt><trkpt lat="45.2491482161" lon="39.1957819182"><ele>30.42</ele><time>2018-09-16T04:45:40Z</time></trkpt><trkpt lat="45.2490907162" lon="39.1954950895"><ele>29.94</ele><time>2018-09-16T04:45:44Z</time></trkpt><trkpt lat="45.2490338031" lon="39.1953730490"><ele>29.46</ele><time>2018-09-16T04:45:46Z</time></trkpt><trkpt lat="45.2489272691" lon="39.1952162236"><ele>29.46</ele><time>2018-09-16T04:45:49Z</time></trkpt><trkpt lat="45.2487575356" lon="39.1950894054"><ele>28.98</ele><time>2018-09-16T04:45:53Z</time></trkpt><trkpt lat="45.2485324815" lon="39.1950508486"><ele>28.98</ele><time>2018-09-16T04:45:58Z</time></trkpt><trkpt lat="45.2484462317" lon="39.1950671934"><ele>28.98</ele><time>2018-09-16T04:46:00Z</time></trkpt><trkpt lat="45.2477833908" lon="39.1955137812"><ele>27.53</ele><time>2018-09-16T04:46:15Z</time></trkpt><trkpt lat="45.2473068796" lon="39.1956099216"><ele>27.53</ele><time>2018-09-16T04:46:27Z</time></trkpt><trkpt lat="45.2467106748" lon="39.1953934170"><ele>28.50</ele><time>2018-09-16T04:46:44Z</time></trkpt><trkpt lat="45.2461463213" lon="39.1950198356"><ele>28.98</ele><time>2018-09-16T04:47:00Z</time></trkpt><trkpt lat="45.2455584146" lon="39.1946233716"><ele>28.98</ele><time>2018-09-16T04:47:16Z</time></trkpt><trkpt lat="45.2449253295" lon="39.1941821482"><ele>28.50</ele><time>2018-09-16T04:47:33Z</time></trkpt><trkpt lat="45.2448467910" lon="39.1941242293"><ele>28.50</ele><time>2018-09-16T04:47:35Z</time></trkpt><trkpt lat="45.2447276004" lon="39.1940457746"><ele>28.02</ele><time>2018-09-16T04:47:38Z</time></trkpt><trkpt lat="45.2446900494" lon="39.1940176953"><ele>28.02</ele><time>2018-09-16T04:47:39Z</time></trkpt><trkpt lat="45.2440266218" lon="39.1935771424"><ele>28.50</ele><time>2018-09-16T04:47:56Z</time></trkpt><trkpt lat="45.2434155811" lon="39.1931591369"><ele>29.46</ele><time>2018-09-16T04:48:13Z</time></trkpt><trkpt lat="45.2429016866" lon="39.1928211786"><ele>29.94</ele><time>2018-09-16T04:48:28Z</time></trkpt><trkpt lat="45.2424444538" lon="39.1925057676"><ele>30.42</ele><time>2018-09-16T04:48:42Z</time></trkpt><trkpt lat="45.2419038210" lon="39.1921269055"><ele>29.94</ele><time>2018-09-16T04:48:58Z</time></trkpt><trkpt lat="45.2413139027" lon="39.1917429306"><ele>31.38</ele><time>2018-09-16T04:49:15Z</time></trkpt><trkpt lat="45.2407920454" lon="39.1913892142"><ele>30.42</ele><time>2018-09-16T04:49:30Z</time></trkpt><trkpt lat="45.2406011056" lon="39.1912527569"><ele>30.42</ele><time>2018-09-16T04:49:41Z</time></trkpt><trkpt lat="45.2404737845" lon="39.1911735479"><ele>31.38</ele><time>2018-09-16T04:49:54Z</time></trkpt><trkpt lat="45.2400311362" lon="39.1908643395"><ele>31.38</ele><time>2018-09-16T04:50:09Z</time></trkpt><trkpt lat="45.2394123003" lon="39.1904375330"><ele>30.42</ele><time>2018-09-16T04:50:27Z</time></trkpt><trkpt lat="45.2388647106" lon="39.1900757700"><ele>30.90</ele><time>2018-09-16T04:50:43Z</time></trkpt><trkpt lat="45.2383237425" lon="39.1897045355"><ele>30.90</ele><time>2018-09-16T04:50:58Z</time></trkpt><trkpt lat="45.2378665097" lon="39.1894011106"><ele>31.38</ele><time>2018-09-16T04:51:11Z</time></trkpt><trkpt lat="45.2378316410" lon="39.1893756296"><ele>31.38</ele><time>2018-09-16T04:51:12Z</time></trkpt><trkpt lat="45.2373113763" lon="39.1890308820"><ele>32.34</ele><time>2018-09-16T04:51:27Z</time></trkpt><trkpt lat="45.2367398981" lon="39.1886516847"><ele>31.38</ele><time>2018-09-16T04:51:43Z</time></trkpt><trkpt lat="45.2360716090" lon="39.1881745029"><ele>30.90</ele><time>2018-09-16T04:52:02Z</time></trkpt><trkpt lat="45.2356255241" lon="39.1878742632"><ele>30.90</ele><time>2018-09-16T04:52:16Z</time></trkpt><trkpt lat="45.2354256157" lon="39.1877243947"><ele>31.38</ele><time>2018-09-16T04:52:27Z</time></trkpt><trkpt lat="45.2354050800" lon="39.1877197009"><ele>31.86</ele><time>2018-09-16T04:52:41Z</time></trkpt><trkpt lat="45.2353910822" lon="39.1877202876"><ele>29.94</ele><time>2018-09-16T04:53:08Z</time></trkpt><trkpt lat="45.2352956124" lon="39.1876640450"><ele>29.46</ele><time>2018-09-16T04:53:18Z</time></trkpt><trkpt lat="45.2349013276" lon="39.1873824969"><ele>31.38</ele><time>2018-09-16T04:53:31Z</time></trkpt><trkpt lat="45.2341684978" lon="39.1868647467"><ele>31.38</ele><time>2018-09-16T04:53:51Z</time></trkpt><trkpt lat="45.2335782442" lon="39.1864705458"><ele>30.90</ele><time>2018-09-16T04:54:08Z</time></trkpt><trkpt lat="45.2329692151" lon="39.1860595811"><ele>31.38</ele><time>2018-09-16T04:54:25Z</time></trkpt><trkpt lat="45.2329300717" lon="39.1860372853"><ele>31.38</ele><time>2018-09-16T04:54:26Z</time></trkpt><trkpt lat="45.2323517203" lon="39.1856678948"><ele>32.34</ele><time>2018-09-16T04:54:43Z</time></trkpt><trkpt lat="45.2317960002" lon="39.1853173636"><ele>32.82</ele><time>2018-09-16T04:55:00Z</time></trkpt><trkpt lat="45.2313627396" lon="39.1849997733"><ele>34.26</ele><time>2018-09-16T04:55:13Z</time></trkpt><trkpt lat="45.2308194246" lon="39.1846157983"><ele>34.26</ele><time>2018-09-16T04:55:29Z</time></trkpt><trkpt lat="45.2301592659" lon="39.1841967031"><ele>31.38</ele><time>2018-09-16T04:55:48Z</time></trkpt><trkpt lat="45.2296029590" lon="39.1838229541"><ele>30.42</ele><time>2018-09-16T04:56:04Z</time></trkpt><trkpt lat="45.2293794975" lon="39.1835978162"><ele>30.42</ele><time>2018-09-16T04:56:12Z</time></trkpt><trkpt lat="45.2293533459" lon="39.1835589241"><ele>29.94</ele><time>2018-09-16T04:56:13Z</time></trkpt><trkpt lat="45.2293241769" lon="39.1835418250"><ele>29.94</ele><time>2018-09-16T04:56:14Z</time></trkpt><trkpt lat="45.2292944212" lon="39.1835324373"><ele>29.94</ele><time>2018-09-16T04:56:15Z</time></trkpt><trkpt lat="45.2292641625" lon="39.1835227981"><ele>29.94</ele><time>2018-09-16T04:56:16Z</time></trkpt><trkpt lat="45.2292326465" lon="39.1835121531"><ele>29.94</ele><time>2018-09-16T04:56:17Z</time></trkpt><trkpt lat="45.2286796086" lon="39.1831902042"><ele>29.94</ele><time>2018-09-16T04:56:34Z</time></trkpt><trkpt lat="45.2280828170" lon="39.1827942431"><ele>30.90</ele><time>2018-09-16T04:56:51Z</time></trkpt><trkpt lat="45.2276179567" lon="39.1824848671"><ele>29.94</ele><time>2018-09-16T04:57:04Z</time></trkpt><trkpt lat="45.2275829203" lon="39.1824551113"><ele>29.46</ele><time>2018-09-16T04:57:05Z</time></trkpt><trkpt lat="45.2270487417" lon="39.1821194999"><ele>28.98</ele><time>2018-09-16T04:57:20Z</time></trkpt><trkpt lat="45.2264911775" lon="39.1817822959"><ele>29.94</ele><time>2018-09-16T04:57:36Z</time></trkpt><trkpt lat="45.2260217071" lon="39.1814626101"><ele>30.42</ele><time>2018-09-16T04:57:50Z</time></trkpt><trkpt lat="45.2254935633" lon="39.1811107378"><ele>32.34</ele><time>2018-09-16T04:58:06Z</time></trkpt><trkpt lat="45.2250010427" lon="39.1807781439"><ele>30.42</ele><time>2018-09-16T04:58:21Z</time></trkpt><trkpt lat="45.2244386170" lon="39.1804075800"><ele>30.90</ele><time>2018-09-16T04:58:37Z</time></trkpt><trkpt lat="45.2238663845" lon="39.1800147202"><ele>30.90</ele><time>2018-09-16T04:58:54Z</time></trkpt><trkpt lat="45.2233725227" lon="39.1796888318"><ele>30.90</ele><time>2018-09-16T04:59:10Z</time></trkpt><trkpt lat="45.2228237595" lon="39.1793037672"><ele>31.38</ele><time>2018-09-16T04:59:26Z</time></trkpt><trkpt lat="45.2223709691" lon="39.1789510567"><ele>31.38</ele><time>2018-09-16T04:59:39Z</time></trkpt><trkpt lat="45.2218475193" lon="39.1785125155"><ele>31.86</ele><time>2018-09-16T04:59:54Z</time></trkpt><trkpt lat="45.2218146622" lon="39.1784862801"><ele>31.86</ele><time>2018-09-16T04:59:55Z</time></trkpt><trkpt lat="45.2214171086" lon="39.1781283729"><ele>31.86</ele><time>2018-09-16T05:00:08Z</time></trkpt><trkpt lat="45.2208303753" lon="39.1775739938"><ele>32.82</ele><time>2018-09-16T05:00:26Z</time></trkpt><trkpt lat="45.2205062471" lon="39.1772314254"><ele>31.86</ele><time>2018-09-16T05:00:36Z</time></trkpt><trkpt lat="45.2204761561" lon="39.1771958023"><ele>32.34</ele><time>2018-09-16T05:00:37Z</time></trkpt><trkpt lat="45.2202471625" lon="39.1769514699"><ele>32.82</ele><time>2018-09-16T05:00:44Z</time></trkpt><trkpt lat="45.2201824542" lon="39.1768828221"><ele>32.34</ele><time>2018-09-16T05:00:46Z</time></trkpt><trkpt lat="45.2197920252" lon="39.1764453705"><ele>32.82</ele><time>2018-09-16T05:00:59Z</time></trkpt><trkpt lat="45.2193223033" lon="39.1758712940"><ele>31.86</ele><time>2018-09-16T05:01:15Z</time></trkpt><trkpt lat="45.2188376617" lon="39.1752443276"><ele>31.86</ele><time>2018-09-16T05:01:31Z</time></trkpt><trkpt lat="45.2183733042" lon="39.1745900363"><ele>30.90</ele><time>2018-09-16T05:01:48Z</time></trkpt><trkpt lat="45.2180535346" lon="39.1741141118"><ele>31.38</ele><time>2018-09-16T05:02:00Z</time></trkpt><trkpt lat="45.2175938711" lon="39.1733765043"><ele>31.38</ele><time>2018-09-16T05:02:17Z</time></trkpt><trkpt lat="45.2174611017" lon="39.1731612571"><ele>30.90</ele><time>2018-09-16T05:02:22Z</time></trkpt><trkpt lat="45.2170941420" lon="39.1725418344"><ele>30.90</ele><time>2018-09-16T05:02:36Z</time></trkpt><trkpt lat="45.2170663979" lon="39.1724949796"><ele>30.90</ele><time>2018-09-16T05:02:37Z</time></trkpt><trkpt lat="45.2170156036" lon="39.1724083945"><ele>30.42</ele><time>2018-09-16T05:02:39Z</time></trkpt><trkpt lat="45.2166108415" lon="39.1717116069"><ele>29.46</ele><time>2018-09-16T05:02:55Z</time></trkpt><trkpt lat="45.2161950152" lon="39.1709755082"><ele>29.46</ele><time>2018-09-16T05:03:11Z</time></trkpt><trkpt lat="45.2160925884" lon="39.1708076186"><ele>29.46</ele><time>2018-09-16T05:03:15Z</time></trkpt><trkpt lat="45.2160674427" lon="39.1707574110"><ele>29.46</ele><time>2018-09-16T05:03:16Z</time></trkpt><trkpt lat="45.2160424646" lon="39.1707162559"><ele>29.46</ele><time>2018-09-16T05:03:17Z</time></trkpt><trkpt lat="45.2156566456" lon="39.1700700112"><ele>29.46</ele><time>2018-09-16T05:03:32Z</time></trkpt><trkpt lat="45.2156318352" lon="39.1700224858"><ele>29.46</ele><time>2018-09-16T05:03:33Z</time></trkpt><trkpt lat="45.2156043425" lon="39.1699757986"><ele>29.46</ele><time>2018-09-16T05:03:34Z</time></trkpt><trkpt lat="45.2152518835" lon="39.1693693679"><ele>30.42</ele><time>2018-09-16T05:03:47Z</time></trkpt><trkpt lat="45.2152268216" lon="39.1693236865"><ele>30.42</ele><time>2018-09-16T05:03:48Z</time></trkpt><trkpt lat="45.2151412424" lon="39.1691822000"><ele>30.42</ele><time>2018-09-16T05:03:51Z</time></trkpt><trkpt lat="45.2150291763" lon="39.1689998098"><ele>30.90</ele><time>2018-09-16T05:03:55Z</time></trkpt><trkpt lat="45.2150014322" lon="39.1689564753"><ele>30.42</ele><time>2018-09-16T05:03:56Z</time></trkpt><trkpt lat="45.2149767894" lon="39.1689127218"><ele>30.42</ele><time>2018-09-16T05:03:57Z</time></trkpt><trkpt lat="45.2145285252" lon="39.1681489628"><ele>30.42</ele><time>2018-09-16T05:04:13Z</time></trkpt><trkpt lat="45.2141401917" lon="39.1675005388"><ele>29.94</ele><time>2018-09-16T05:04:27Z</time></trkpt><trkpt lat="45.2137594018" lon="39.1668496002"><ele>29.46</ele><time>2018-09-16T05:04:42Z</time></trkpt><trkpt lat="45.2135778498" lon="39.1665290762"><ele>29.46</ele><time>2018-09-16T05:04:49Z</time></trkpt><trkpt lat="45.2135530394" lon="39.1664802097"><ele>29.46</ele><time>2018-09-16T05:04:50Z</time></trkpt><trkpt lat="45.2131336927" lon="39.1657648981"><ele>29.46</ele><time>2018-09-16T05:05:06Z</time></trkpt><trkpt lat="45.2127756178" lon="39.1651627421"><ele>29.46</ele><time>2018-09-16T05:05:20Z</time></trkpt><trkpt lat="45.2127246559" lon="39.1650701221"><ele>29.94</ele><time>2018-09-16T05:05:22Z</time></trkpt><trkpt lat="45.2125224844" lon="39.1647148132"><ele>29.94</ele><time>2018-09-16T05:05:30Z</time></trkpt><trkpt lat="45.2124947403" lon="39.1646682937"><ele>29.94</ele><time>2018-09-16T05:05:31Z</time></trkpt><trkpt lat="45.2122841869" lon="39.1643160861"><ele>29.46</ele><time>2018-09-16T05:05:39Z</time></trkpt><trkpt lat="45.2122343984" lon="39.1642188560"><ele>29.46</ele><time>2018-09-16T05:05:41Z</time></trkpt><trkpt lat="45.2118389402" lon="39.1635562666"><ele>28.98</ele><time>2018-09-16T05:05:57Z</time></trkpt><trkpt lat="45.2114668675" lon="39.1629039869"><ele>28.98</ele><time>2018-09-16T05:06:12Z</time></trkpt><trkpt lat="45.2113594115" lon="39.1627287213"><ele>28.50</ele><time>2018-09-16T05:06:16Z</time></trkpt><trkpt lat="45.2109749336" lon="39.1620749328"><ele>28.98</ele><time>2018-09-16T05:06:32Z</time></trkpt><trkpt lat="45.2107072156" lon="39.1616019420"><ele>28.98</ele><time>2018-09-16T05:06:44Z</time></trkpt><trkpt lat="45.2103493921" lon="39.1609913204"><ele>29.46</ele><time>2018-09-16T05:06:59Z</time></trkpt><trkpt lat="45.2100083325" lon="39.1604127176"><ele>29.94</ele><time>2018-09-16T05:07:13Z</time></trkpt><trkpt lat="45.2095800173" lon="39.1596760321"><ele>30.42</ele><time>2018-09-16T05:07:30Z</time></trkpt><trkpt lat="45.2095256187" lon="39.1595838312"><ele>30.42</ele><time>2018-09-16T05:07:32Z</time></trkpt><trkpt lat="45.2090905979" lon="39.1588324774"><ele>30.42</ele><time>2018-09-16T05:07:49Z</time></trkpt><trkpt lat="45.2090659551" lon="39.1587879695"><ele>30.42</ele><time>2018-09-16T05:07:50Z</time></trkpt><trkpt lat="45.2086621989" lon="39.1580951214"><ele>30.42</ele><time>2018-09-16T05:08:07Z</time></trkpt><trkpt lat="45.2082215622" lon="39.1573578492"><ele>29.94</ele><time>2018-09-16T05:08:24Z</time></trkpt><trkpt lat="45.2078104299" lon="39.1566473152"><ele>29.94</ele><time>2018-09-16T05:08:40Z</time></trkpt><trkpt lat="45.2073571365" lon="39.1558628529"><ele>29.46</ele><time>2018-09-16T05:08:57Z</time></trkpt><trkpt lat="45.2070773486" lon="39.1553715896"><ele>30.42</ele><time>2018-09-16T05:09:11Z</time></trkpt><trkpt lat="45.2068046015" lon="39.1549294442"><ele>30.42</ele><time>2018-09-16T05:09:24Z</time></trkpt><trkpt lat="45.2064943872" lon="39.1543806810"><ele>30.90</ele><time>2018-09-16T05:09:39Z</time></trkpt><trkpt lat="45.2061983384" lon="39.1538789403"><ele>31.38</ele><time>2018-09-16T05:09:52Z</time></trkpt><trkpt lat="45.2058756351" lon="39.1533440910"><ele>31.86</ele><time>2018-09-16T05:10:05Z</time></trkpt><trkpt lat="45.2056670934" lon="39.1529804002"><ele>30.90</ele><time>2018-09-16T05:10:13Z</time></trkpt><trkpt lat="45.2056408580" lon="39.1529379878"><ele>30.90</ele><time>2018-09-16T05:10:14Z</time></trkpt><trkpt lat="45.2055584639" lon="39.1528080683"><ele>30.90</ele><time>2018-09-16T05:10:17Z</time></trkpt><trkpt lat="45.2055102680" lon="39.1527107544"><ele>30.90</ele><time>2018-09-16T05:10:19Z</time></trkpt><trkpt lat="45.2054835297" lon="39.1526658274"><ele>30.90</ele><time>2018-09-16T05:10:20Z</time></trkpt><trkpt lat="45.2050471678" lon="39.1519358475"><ele>31.38</ele><time>2018-09-16T05:10:37Z</time></trkpt><trkpt lat="45.2047377080" lon="39.1514277365"><ele>31.38</ele><time>2018-09-16T05:10:50Z</time></trkpt><trkpt lat="45.2043222170" lon="39.1507239081"><ele>30.90</ele><time>2018-09-16T05:11:07Z</time></trkpt><trkpt lat="45.2039043792" lon="39.1500321496"><ele>30.90</ele><time>2018-09-16T05:11:23Z</time></trkpt><trkpt lat="45.2035888843" lon="39.1494988091"><ele>30.42</ele><time>2018-09-16T05:11:37Z</time></trkpt><trkpt lat="45.2032821905" lon="39.1489957273"><ele>29.94</ele><time>2018-09-16T05:11:49Z</time></trkpt><trkpt lat="45.2032567933" lon="39.1489528958"><ele>29.94</ele><time>2018-09-16T05:11:50Z</time></trkpt><trkpt lat="45.2027643565" lon="39.1481395997"><ele>30.42</ele><time>2018-09-16T05:12:09Z</time></trkpt><trkpt lat="45.2026881650" lon="39.1480022203"><ele>30.42</ele><time>2018-09-16T05:12:12Z</time></trkpt><trkpt lat="45.2021871787" lon="39.1471689753"><ele>30.42</ele><time>2018-09-16T05:12:31Z</time></trkpt><trkpt lat="45.2018486336" lon="39.1466026101"><ele>30.90</ele><time>2018-09-16T05:12:45Z</time></trkpt><trkpt lat="45.2013967652" lon="39.1458501667"><ele>30.90</ele><time>2018-09-16T05:13:03Z</time></trkpt><trkpt lat="45.2009974513" lon="39.1451838054"><ele>29.94</ele><time>2018-09-16T05:13:19Z</time></trkpt><trkpt lat="45.2006760053" lon="39.1446532309"><ele>29.94</ele><time>2018-09-16T05:13:32Z</time></trkpt><trkpt lat="45.2003486920" lon="39.1440983489"><ele>29.94</ele><time>2018-09-16T05:13:46Z</time></trkpt><trkpt lat="45.1999725960" lon="39.1434714664"><ele>29.94</ele><time>2018-09-16T05:14:01Z</time></trkpt><trkpt lat="45.1997277606" lon="39.1430789419"><ele>29.46</ele><time>2018-09-16T05:14:10Z</time></trkpt><trkpt lat="45.1994478051" lon="39.1425885167"><ele>28.98</ele><time>2018-09-16T05:14:24Z</time></trkpt><trkpt lat="45.1994254254" lon="39.1425937973"><ele>26.57</ele><time>2018-09-16T05:14:38Z</time></trkpt><trkpt lat="45.1993952505" lon="39.1425095592"><ele>28.50</ele><time>2018-09-16T05:14:50Z</time></trkpt><trkpt lat="45.1991862897" lon="39.1421634704"><ele>28.50</ele><time>2018-09-16T05:15:01Z</time></trkpt><trkpt lat="45.1988208387" lon="39.1415596381"><ele>28.50</ele><time>2018-09-16T05:15:16Z</time></trkpt><trkpt lat="45.1983807888" lon="39.1408249643"><ele>29.46</ele><time>2018-09-16T05:15:34Z</time></trkpt><trkpt lat="45.1980381366" lon="39.1402379796"><ele>28.98</ele><time>2018-09-16T05:15:49Z</time></trkpt><trkpt lat="45.1977384835" lon="39.1397502366"><ele>29.46</ele><time>2018-09-16T05:16:01Z</time></trkpt><trkpt lat="45.1973438635" lon="39.1390666924"><ele>29.46</ele><time>2018-09-16T05:16:17Z</time></trkpt><trkpt lat="45.1968879718" lon="39.1383212060"><ele>28.50</ele><time>2018-09-16T05:16:35Z</time></trkpt><trkpt lat="45.1964478381" lon="39.1375815030"><ele>28.98</ele><time>2018-09-16T05:16:52Z</time></trkpt><trkpt lat="45.1959954668" lon="39.1368626710"><ele>28.50</ele><time>2018-09-16T05:17:10Z</time></trkpt><trkpt lat="45.1955905370" lon="39.1361424979"><ele>28.98</ele><time>2018-09-16T05:17:27Z</time></trkpt><trkpt lat="45.1952349767" lon="39.1355313733"><ele>28.98</ele><time>2018-09-16T05:17:42Z</time></trkpt><trkpt lat="45.1947583817" lon="39.1347376071"><ele>28.98</ele><time>2018-09-16T05:18:01Z</time></trkpt><trkpt lat="45.1944525260" lon="39.1342372913"><ele>29.46</ele><time>2018-09-16T05:18:14Z</time></trkpt><trkpt lat="45.1940242108" lon="39.1335224826"><ele>28.98</ele><time>2018-09-16T05:18:31Z</time></trkpt><trkpt lat="45.1936699077" lon="39.1328410339"><ele>28.50</ele><time>2018-09-16T05:18:46Z</time></trkpt><trkpt lat="45.1933222264" lon="39.1322524566"><ele>28.98</ele><time>2018-09-16T05:19:00Z</time></trkpt><trkpt lat="45.1929244213" lon="39.1316031106"><ele>29.46</ele><time>2018-09-16T05:19:16Z</time></trkpt><trkpt lat="45.1925500017" lon="39.1309872922"><ele>30.90</ele><time>2018-09-16T05:19:31Z</time></trkpt><trkpt lat="45.1921374444" lon="39.1303285584"><ele>29.94</ele><time>2018-09-16T05:19:47Z</time></trkpt><trkpt lat="45.1917998213" lon="39.1297796275"><ele>29.94</ele><time>2018-09-16T05:20:01Z</time></trkpt><trkpt lat="45.1915891841" lon="39.1294158529"><ele>30.42</ele><time>2018-09-16T05:20:10Z</time></trkpt><trkpt lat="45.1913495455" lon="39.1289589554"><ele>31.38</ele><time>2018-09-16T05:20:21Z</time></trkpt><trkpt lat="45.1909372397" lon="39.1282867268"><ele>30.42</ele><time>2018-09-16T05:20:37Z</time></trkpt><trkpt lat="45.1905684359" lon="39.1277206130"><ele>30.42</ele><time>2018-09-16T05:20:52Z</time></trkpt><trkpt lat="45.1902625803" lon="39.1272526514"><ele>30.42</ele><time>2018-09-16T05:21:04Z</time></trkpt><trkpt lat="45.1902355067" lon="39.1272102389"><ele>30.90</ele><time>2018-09-16T05:21:05Z</time></trkpt><trkpt lat="45.1902067568" lon="39.1271695029"><ele>30.90</ele><time>2018-09-16T05:21:06Z</time></trkpt><trkpt lat="45.1901837066" lon="39.1271270066"><ele>30.90</ele><time>2018-09-16T05:21:07Z</time></trkpt><trkpt lat="45.1901603211" lon="39.1270867735"><ele>30.90</ele><time>2018-09-16T05:21:08Z</time></trkpt><trkpt lat="45.1898010727" lon="39.1265087575"><ele>30.42</ele><time>2018-09-16T05:21:22Z</time></trkpt><trkpt lat="45.1893251482" lon="39.1256914381"><ele>30.42</ele><time>2018-09-16T05:21:41Z</time></trkpt><trkpt lat="45.1891447697" lon="39.1254965588"><ele>30.42</ele><time>2018-09-16T05:21:48Z</time></trkpt><trkpt lat="45.1887830906" lon="39.1248865239"><ele>29.46</ele><time>2018-09-16T05:22:03Z</time></trkpt><trkpt lat="45.1884336490" lon="39.1243005451"><ele>29.94</ele><time>2018-09-16T05:22:18Z</time></trkpt><trkpt lat="45.1880897395" lon="39.1237311624"><ele>30.42</ele><time>2018-09-16T05:22:33Z</time></trkpt><trkpt lat="45.1876948681" lon="39.1230478697"><ele>30.90</ele><time>2018-09-16T05:22:49Z</time></trkpt><trkpt lat="45.1872316841" lon="39.1222690232"><ele>29.94</ele><time>2018-09-16T05:23:07Z</time></trkpt><trkpt lat="45.1866920572" lon="39.1213811282"><ele>29.46</ele><time>2018-09-16T05:23:27Z</time></trkpt><trkpt lat="45.1861388516" lon="39.1204467136"><ele>30.42</ele><time>2018-09-16T05:23:47Z</time></trkpt><trkpt lat="45.1855939440" lon="39.1195301525"><ele>30.42</ele><time>2018-09-16T05:24:07Z</time></trkpt><trkpt lat="45.1855186746" lon="39.1194022447"><ele>30.42</ele><time>2018-09-16T05:24:10Z</time></trkpt><trkpt lat="45.1850182749" lon="39.1185705084"><ele>29.46</ele><time>2018-09-16T05:24:28Z</time></trkpt><trkpt lat="45.1847139280" lon="39.1180525068"><ele>28.98</ele><time>2018-09-16T05:24:39Z</time></trkpt><trkpt lat="45.1846871059" lon="39.1180064902"><ele>28.98</ele><time>2018-09-16T05:24:40Z</time></trkpt><trkpt lat="45.1841669250" lon="39.1171434894"><ele>29.94</ele><time>2018-09-16T05:24:59Z</time></trkpt><trkpt lat="45.1836295612" lon="39.1162359808"><ele>29.94</ele><time>2018-09-16T05:25:19Z</time></trkpt><trkpt lat="45.1832482684" lon="39.1155509278"><ele>30.90</ele><time>2018-09-16T05:25:35Z</time></trkpt><trkpt lat="45.1828474458" lon="39.1148762684"><ele>30.90</ele><time>2018-09-16T05:25:51Z</time></trkpt><trkpt lat="45.1823063102" lon="39.1139706876"><ele>31.38</ele><time>2018-09-16T05:26:11Z</time></trkpt><trkpt lat="45.1818254404" lon="39.1131751612"><ele>31.86</ele><time>2018-09-16T05:26:29Z</time></trkpt><trkpt lat="45.1815992966" lon="39.1126983985"><ele>31.38</ele><time>2018-09-16T05:26:39Z</time></trkpt><trkpt lat="45.1812665351" lon="39.1121729370"><ele>30.90</ele><time>2018-09-16T05:26:52Z</time></trkpt><trkpt lat="45.1811336819" lon="39.1119611263"><ele>30.90</ele><time>2018-09-16T05:26:57Z</time></trkpt><trkpt lat="45.1811133139" lon="39.1119122598"><ele>30.90</ele><time>2018-09-16T05:26:58Z</time></trkpt><trkpt lat="45.1810911018" lon="39.1118594538"><ele>30.90</ele><time>2018-09-16T05:26:59Z</time></trkpt><trkpt lat="45.1810672972" lon="39.1118125990"><ele>30.90</ele><time>2018-09-16T05:27:00Z</time></trkpt><trkpt lat="45.1810398046" lon="39.1117685102"><ele>30.90</ele><time>2018-09-16T05:27:01Z</time></trkpt><trkpt lat="45.1810105518" lon="39.1117249243"><ele>30.90</ele><time>2018-09-16T05:27:02Z</time></trkpt><trkpt lat="45.1807155088" lon="39.1112267878"><ele>31.38</ele><time>2018-09-16T05:27:14Z</time></trkpt><trkpt lat="45.1803021133" lon="39.1105573252"><ele>30.90</ele><time>2018-09-16T05:27:30Z</time></trkpt><trkpt lat="45.1799884625" lon="39.1100531537"><ele>30.42</ele><time>2018-09-16T05:27:45Z</time></trkpt><trkpt lat="45.1796470676" lon="39.1095170472"><ele>30.90</ele><time>2018-09-16T05:27:59Z</time></trkpt><trkpt lat="45.1791755855" lon="39.1087645199"><ele>30.90</ele><time>2018-09-16T05:28:17Z</time></trkpt><trkpt lat="45.1788367052" lon="39.1082158405"><ele>30.42</ele><time>2018-09-16T05:28:31Z</time></trkpt><trkpt lat="45.1784382295" lon="39.1075782292"><ele>30.42</ele><time>2018-09-16T05:28:47Z</time></trkpt><trkpt lat="45.1780633908" lon="39.1069397796"><ele>29.94</ele><time>2018-09-16T05:29:02Z</time></trkpt><trkpt lat="45.1776305493" lon="39.1062324308"><ele>30.42</ele><time>2018-09-16T05:29:19Z</time></trkpt><trkpt lat="45.1771781780" lon="39.1054794006"><ele>29.94</ele><time>2018-09-16T05:29:36Z</time></trkpt><trkpt lat="45.1769394614" lon="39.1050825175"><ele>28.98</ele><time>2018-09-16T05:29:45Z</time></trkpt><trkpt lat="45.1765555702" lon="39.1044616699"><ele>28.02</ele><time>2018-09-16T05:30:01Z</time></trkpt><trkpt lat="45.1761274226" lon="39.1037539858"><ele>28.02</ele><time>2018-09-16T05:30:17Z</time></trkpt><trkpt lat="45.1756566949" lon="39.1030192282"><ele>28.02</ele><time>2018-09-16T05:30:35Z</time></trkpt><trkpt lat="45.1752193272" lon="39.1022993065"><ele>28.50</ele><time>2018-09-16T05:30:52Z</time></trkpt><trkpt lat="45.1748114638" lon="39.1016342025"><ele>29.46</ele><time>2018-09-16T05:31:08Z</time></trkpt><trkpt lat="45.1745587494" lon="39.1012213100"><ele>30.42</ele><time>2018-09-16T05:31:18Z</time></trkpt><trkpt lat="45.1742179412" lon="39.1006498318"><ele>29.94</ele><time>2018-09-16T05:31:31Z</time></trkpt><trkpt lat="45.1740047056" lon="39.1002846323"><ele>29.46</ele><time>2018-09-16T05:31:39Z</time></trkpt><trkpt lat="45.1735304575" lon="39.0994774550"><ele>29.94</ele><time>2018-09-16T05:31:57Z</time></trkpt><trkpt lat="45.1735068206" lon="39.0994369704"><ele>29.94</ele><time>2018-09-16T05:31:58Z</time></trkpt><trkpt lat="45.1730659325" lon="39.0986743011"><ele>30.42</ele><time>2018-09-16T05:32:15Z</time></trkpt><trkpt lat="45.1727307402" lon="39.0981185809"><ele>30.42</ele><time>2018-09-16T05:32:28Z</time></trkpt><trkpt lat="45.1727086119" lon="39.0980716422"><ele>30.42</ele><time>2018-09-16T05:32:29Z</time></trkpt><trkpt lat="45.1726800296" lon="39.0980229434"><ele>29.94</ele><time>2018-09-16T05:32:30Z</time></trkpt><trkpt lat="45.1722295862" lon="39.0972668957"><ele>28.98</ele><time>2018-09-16T05:32:47Z</time></trkpt><trkpt lat="45.1718277577" lon="39.0965881292"><ele>28.02</ele><time>2018-09-16T05:33:03Z</time></trkpt><trkpt lat="45.1714224089" lon="39.0959013160"><ele>28.02</ele><time>2018-09-16T05:33:19Z</time></trkpt><trkpt lat="45.1709838677" lon="39.0951647144"><ele>27.53</ele><time>2018-09-16T05:33:36Z</time></trkpt><trkpt lat="45.1705235336" lon="39.0943987761"><ele>28.50</ele><time>2018-09-16T05:33:55Z</time></trkpt><trkpt lat="45.1700871717" lon="39.0936667845"><ele>28.02</ele><time>2018-09-16T05:34:13Z</time></trkpt><trkpt lat="45.1696182881" lon="39.0928809810"><ele>28.02</ele><time>2018-09-16T05:34:32Z</time></trkpt><trkpt lat="45.1692408510" lon="39.0922499076"><ele>28.02</ele><time>2018-09-16T05:34:47Z</time></trkpt><trkpt lat="45.1690608915" lon="39.0919509251"><ele>28.02</ele><time>2018-09-16T05:34:54Z</time></trkpt><trkpt lat="45.1688467339" lon="39.0916055907"><ele>28.02</ele><time>2018-09-16T05:35:02Z</time></trkpt><trkpt lat="45.1688192412" lon="39.0915616695"><ele>28.50</ele><time>2018-09-16T05:35:03Z</time></trkpt><trkpt lat="45.1687944308" lon="39.0915180836"><ele>28.50</ele><time>2018-09-16T05:35:04Z</time></trkpt><trkpt lat="45.1687648427" lon="39.0914662834"><ele>28.50</ele><time>2018-09-16T05:35:05Z</time></trkpt><trkpt lat="45.1687399484" lon="39.0914241225"><ele>28.50</ele><time>2018-09-16T05:35:06Z</time></trkpt><trkpt lat="45.1683095377" lon="39.0907147620"><ele>27.53</ele><time>2018-09-16T05:35:21Z</time></trkpt><trkpt lat="45.1682777703" lon="39.0906670690"><ele>27.53</ele><time>2018-09-16T05:35:22Z</time></trkpt><trkpt lat="45.1678392291" lon="39.0899579599"><ele>27.05</ele><time>2018-09-16T05:35:39Z</time></trkpt><trkpt lat="45.1674746163" lon="39.0893823747"><ele>27.53</ele><time>2018-09-16T05:35:54Z</time></trkpt><trkpt lat="45.1671343111" lon="39.0889189392"><ele>28.02</ele><time>2018-09-16T05:36:07Z</time></trkpt><trkpt lat="45.1667110249" lon="39.0883304458"><ele>28.02</ele><time>2018-09-16T05:36:23Z</time></trkpt><trkpt lat="45.1662452426" lon="39.0876893140"><ele>28.50</ele><time>2018-09-16T05:36:40Z</time></trkpt><trkpt lat="45.1658082101" lon="39.0870964620"><ele>28.50</ele><time>2018-09-16T05:36:56Z</time></trkpt><trkpt lat="45.1652893703" lon="39.0863881074"><ele>28.98</ele><time>2018-09-16T05:37:14Z</time></trkpt><trkpt lat="45.1647296268" lon="39.0856193192"><ele>29.46</ele><time>2018-09-16T05:37:33Z</time></trkpt><trkpt lat="45.1642681193" lon="39.0849847253"><ele>29.46</ele><time>2018-09-16T05:37:48Z</time></trkpt><trkpt lat="45.1642356813" lon="39.0849429835"><ele>29.46</ele><time>2018-09-16T05:37:49Z</time></trkpt><trkpt lat="45.1637107227" lon="39.0842249058"><ele>29.46</ele><time>2018-09-16T05:38:06Z</time></trkpt><trkpt lat="45.1636220422" lon="39.0841003507"><ele>29.46</ele><time>2018-09-16T05:38:09Z</time></trkpt><trkpt lat="45.1635934599" lon="39.0840644762"><ele>29.46</ele><time>2018-09-16T05:38:10Z</time></trkpt><trkpt lat="45.1635662187" lon="39.0840240754"><ele>29.46</ele><time>2018-09-16T05:38:11Z</time></trkpt><trkpt lat="45.1635415759" lon="39.0839881171"><ele>29.46</ele><time>2018-09-16T05:38:12Z</time></trkpt><trkpt lat="45.1635184418" lon="39.0839544218"><ele>29.46</ele><time>2018-09-16T05:38:13Z</time></trkpt><trkpt lat="45.1630727760" lon="39.0833479911"><ele>29.94</ele><time>2018-09-16T05:38:29Z</time></trkpt><trkpt lat="45.1626680139" lon="39.0827931929"><ele>29.94</ele><time>2018-09-16T05:38:43Z</time></trkpt><trkpt lat="45.1622620784" lon="39.0822274145"><ele>29.94</ele><time>2018-09-16T05:38:58Z</time></trkpt><trkpt lat="45.1618053485" lon="39.0815721173"><ele>30.42</ele><time>2018-09-16T05:39:14Z</time></trkpt><trkpt lat="45.1612924598" lon="39.0807475056"><ele>30.90</ele><time>2018-09-16T05:39:34Z</time></trkpt><trkpt lat="45.1611456927" lon="39.0804729145"><ele>30.42</ele><time>2018-09-16T05:39:46Z</time></trkpt><trkpt lat="45.1611113269" lon="39.0804620180"><ele>28.98</ele><time>2018-09-16T05:40:08Z</time></trkpt><trkpt lat="45.1610188745" lon="39.0802792087"><ele>29.46</ele><time>2018-09-16T05:40:20Z</time></trkpt><trkpt lat="45.1607433613" lon="39.0797734447"><ele>30.42</ele><time>2018-09-16T05:40:33Z</time></trkpt><trkpt lat="45.1605651621" lon="39.0794356540"><ele>29.94</ele><time>2018-09-16T05:40:41Z</time></trkpt><trkpt lat="45.1605411060" lon="39.0793869551"><ele>30.42</ele><time>2018-09-16T05:40:42Z</time></trkpt><trkpt lat="45.1601020619" lon="39.0785050951"><ele>29.46</ele><time>2018-09-16T05:41:01Z</time></trkpt><trkpt lat="45.1596700586" lon="39.0776243247"><ele>28.98</ele><time>2018-09-16T05:41:18Z</time></trkpt><trkpt lat="45.1596202701" lon="39.0775268432"><ele>28.98</ele><time>2018-09-16T05:41:20Z</time></trkpt><trkpt lat="45.1592047792" lon="39.0766172390"><ele>28.02</ele><time>2018-09-16T05:41:38Z</time></trkpt><trkpt lat="45.1587935630" lon="39.0757656377"><ele>28.50</ele><time>2018-09-16T05:41:56Z</time></trkpt><trkpt lat="45.1585339755" lon="39.0752497315"><ele>28.98</ele><time>2018-09-16T05:42:07Z</time></trkpt><trkpt lat="45.1585102547" lon="39.0752028767"><ele>28.98</ele><time>2018-09-16T05:42:08Z</time></trkpt><trkpt lat="45.1584843546" lon="39.0751518309"><ele>28.98</ele><time>2018-09-16T05:42:09Z</time></trkpt><trkpt lat="45.1581995375" lon="39.0745551232"><ele>28.98</ele><time>2018-09-16T05:42:21Z</time></trkpt><trkpt lat="45.1581774931" lon="39.0745072626"><ele>28.50</ele><time>2018-09-16T05:42:22Z</time></trkpt><trkpt lat="45.1578032412" lon="39.0737942141"><ele>28.02</ele><time>2018-09-16T05:42:38Z</time></trkpt><trkpt lat="45.1574713178" lon="39.0731854364"><ele>28.02</ele><time>2018-09-16T05:42:52Z</time></trkpt><trkpt lat="45.1570474450" lon="39.0723258723"><ele>28.50</ele><time>2018-09-16T05:43:10Z</time></trkpt><trkpt lat="45.1567000151" lon="39.0716269054"><ele>28.50</ele><time>2018-09-16T05:43:25Z</time></trkpt><trkpt lat="45.1564021222" lon="39.0710173734"><ele>28.02</ele><time>2018-09-16T05:43:39Z</time></trkpt><trkpt lat="45.1559501700" lon="39.0701142233"><ele>28.02</ele><time>2018-09-16T05:43:59Z</time></trkpt><trkpt lat="45.1556190010" lon="39.0694384743"><ele>27.53</ele><time>2018-09-16T05:44:14Z</time></trkpt><trkpt lat="45.1553067751" lon="39.0688079875"><ele>27.53</ele><time>2018-09-16T05:44:29Z</time></trkpt><trkpt lat="45.1549808867" lon="39.0681506786"><ele>28.02</ele><time>2018-09-16T05:44:44Z</time></trkpt><trkpt lat="45.1546387374" lon="39.0674533043"><ele>28.98</ele><time>2018-09-16T05:44:59Z</time></trkpt><trkpt lat="45.1543461252" lon="39.0668758750"><ele>29.94</ele><time>2018-09-16T05:45:12Z</time></trkpt><trkpt lat="45.1540361624" lon="39.0662437957"><ele>30.42</ele><time>2018-09-16T05:45:26Z</time></trkpt><trkpt lat="45.1539421175" lon="39.0660570469"><ele>30.42</ele><time>2018-09-16T05:45:30Z</time></trkpt><trkpt lat="45.1535917539" lon="39.0653395560"><ele>30.42</ele><time>2018-09-16T05:45:46Z</time></trkpt><trkpt lat="45.1532444917" lon="39.0646425169"><ele>30.42</ele><time>2018-09-16T05:46:02Z</time></trkpt><trkpt lat="45.1528396457" lon="39.0638074279"><ele>30.42</ele><time>2018-09-16T05:46:19Z</time></trkpt><trkpt lat="45.1524474565" lon="39.0630269051"><ele>30.90</ele><time>2018-09-16T05:46:35Z</time></trkpt><trkpt lat="45.1520754676" lon="39.0622510761"><ele>29.94</ele><time>2018-09-16T05:46:52Z</time></trkpt><trkpt lat="45.1515808515" lon="39.0612503607"><ele>30.42</ele><time>2018-09-16T05:47:12Z</time></trkpt><trkpt lat="45.1511955354" lon="39.0604052134"><ele>29.94</ele><time>2018-09-16T05:47:29Z</time></trkpt><trkpt lat="45.1508266479" lon="39.0596255288"><ele>29.94</ele><time>2018-09-16T05:47:45Z</time></trkpt><trkpt lat="45.1505416632" lon="39.0590802021"><ele>29.94</ele><time>2018-09-16T05:47:59Z</time></trkpt><trkpt lat="45.1501766313" lon="39.0583046246"><ele>29.94</ele><time>2018-09-16T05:48:14Z</time></trkpt><trkpt lat="45.1499430276" lon="39.0578230843"><ele>29.94</ele><time>2018-09-16T05:48:23Z</time></trkpt><trkpt lat="45.1494897343" lon="39.0568603389"><ele>29.46</ele><time>2018-09-16T05:48:40Z</time></trkpt><trkpt lat="45.1489841379" lon="39.0558513254"><ele>28.98</ele><time>2018-09-16T05:48:58Z</time></trkpt><trkpt lat="45.1485037711" lon="39.0548470058"><ele>29.94</ele><time>2018-09-16T05:49:16Z</time></trkpt><trkpt lat="45.1480462868" lon="39.0539101604"><ele>29.94</ele><time>2018-09-16T05:49:34Z</time></trkpt><trkpt lat="45.1479978394" lon="39.0538026206"><ele>29.94</ele><time>2018-09-16T05:49:36Z</time></trkpt><trkpt lat="45.1476443745" lon="39.0530563798"><ele>30.42</ele><time>2018-09-16T05:49:51Z</time></trkpt><trkpt lat="45.1473474875" lon="39.0524530504"><ele>30.42</ele><time>2018-09-16T05:50:06Z</time></trkpt><trkpt lat="45.1470010635" lon="39.0517459530"><ele>30.42</ele><time>2018-09-16T05:50:21Z</time></trkpt><trkpt lat="45.1466327626" lon="39.0509895701"><ele>31.38</ele><time>2018-09-16T05:50:37Z</time></trkpt><trkpt lat="45.1462611090" lon="39.0502136573"><ele>30.90</ele><time>2018-09-16T05:50:53Z</time></trkpt><trkpt lat="45.1460429281" lon="39.0497617889"><ele>30.42</ele><time>2018-09-16T05:51:02Z</time></trkpt><trkpt lat="45.1457575243" lon="39.0491703618"><ele>29.94</ele><time>2018-09-16T05:51:13Z</time></trkpt><trkpt lat="45.1452817675" lon="39.0482022520"><ele>29.46</ele><time>2018-09-16T05:51:31Z</time></trkpt><trkpt lat="45.1448275521" lon="39.0472634789"><ele>30.42</ele><time>2018-09-16T05:51:48Z</time></trkpt><trkpt lat="45.1442971453" lon="39.0461696405"><ele>30.42</ele><time>2018-09-16T05:52:08Z</time></trkpt><trkpt lat="45.1437592786" lon="39.0450821724"><ele>29.94</ele><time>2018-09-16T05:52:27Z</time></trkpt><trkpt lat="45.1433932409" lon="39.0443516895"><ele>28.50</ele><time>2018-09-16T05:52:40Z</time></trkpt><trkpt lat="45.1429229323" lon="39.0434069652"><ele>28.50</ele><time>2018-09-16T05:52:57Z</time></trkpt><trkpt lat="45.1423287392" lon="39.0422158130"><ele>28.02</ele><time>2018-09-16T05:53:18Z</time></trkpt><trkpt lat="45.1418116596" lon="39.0411895327"><ele>28.02</ele><time>2018-09-16T05:53:36Z</time></trkpt><trkpt lat="45.1413517445" lon="39.0402522683"><ele>27.53</ele><time>2018-09-16T05:53:52Z</time></trkpt><trkpt lat="45.1407301426" lon="39.0389922168"><ele>25.61</ele><time>2018-09-16T05:54:13Z</time></trkpt><trkpt lat="45.1403214410" lon="39.0381832793"><ele>26.09</ele><time>2018-09-16T05:54:29Z</time></trkpt><trkpt lat="45.1398564130" lon="39.0372431651"><ele>26.57</ele><time>2018-09-16T05:54:46Z</time></trkpt><trkpt lat="45.1393781416" lon="39.0362751391"><ele>26.09</ele><time>2018-09-16T05:55:04Z</time></trkpt><trkpt lat="45.1388900634" lon="39.0352936182"><ele>26.09</ele><time>2018-09-16T05:55:22Z</time></trkpt><trkpt lat="45.1384097803" lon="39.0343326330"><ele>26.09</ele><time>2018-09-16T05:55:40Z</time></trkpt><trkpt lat="45.1378684770" lon="39.0332485177"><ele>26.57</ele><time>2018-09-16T05:56:00Z</time></trkpt><trkpt lat="45.1376941334" lon="39.0329057816"><ele>27.05</ele><time>2018-09-16T05:56:06Z</time></trkpt><trkpt lat="45.1372806542" lon="39.0320701059"><ele>26.57</ele><time>2018-09-16T05:56:21Z</time></trkpt><trkpt lat="45.1368680131" lon="39.0312217735"><ele>26.57</ele><time>2018-09-16T05:56:37Z</time></trkpt><trkpt lat="45.1366195735" lon="39.0307318512"><ele>26.57</ele><time>2018-09-16T05:56:46Z</time></trkpt><trkpt lat="45.1361574791" lon="39.0297957603"><ele>26.09</ele><time>2018-09-16T05:57:04Z</time></trkpt><trkpt lat="45.1357932016" lon="39.0289872419"><ele>26.57</ele><time>2018-09-16T05:57:19Z</time></trkpt><trkpt lat="45.1351855975" lon="39.0277500730"><ele>25.61</ele><time>2018-09-16T05:57:41Z</time></trkpt><trkpt lat="45.1351063047" lon="39.0275756456"><ele>26.09</ele><time>2018-09-16T05:57:44Z</time></trkpt><trkpt lat="45.1346623991" lon="39.0266899299"><ele>26.57</ele><time>2018-09-16T05:58:00Z</time></trkpt><trkpt lat="45.1342131291" lon="39.0257893782"><ele>27.05</ele><time>2018-09-16T05:58:17Z</time></trkpt><trkpt lat="45.1340066828" lon="39.0253434610"><ele>27.05</ele><time>2018-09-16T05:58:26Z</time></trkpt><trkpt lat="45.1335574128" lon="39.0244668815"><ele>27.53</ele><time>2018-09-16T05:58:43Z</time></trkpt><trkpt lat="45.1334481966" lon="39.0242635366"><ele>27.05</ele><time>2018-09-16T05:58:47Z</time></trkpt><trkpt lat="45.1330205519" lon="39.0233789943"><ele>27.53</ele><time>2018-09-16T05:59:04Z</time></trkpt><trkpt lat="45.1329381578" lon="39.0232221689"><ele>27.53</ele><time>2018-09-16T05:59:07Z</time></trkpt><trkpt lat="45.1329094917" lon="39.0231696982"><ele>27.53</ele><time>2018-09-16T05:59:08Z</time></trkpt><trkpt lat="45.1324499957" lon="39.0222942922"><ele>27.05</ele><time>2018-09-16T05:59:25Z</time></trkpt><trkpt lat="45.1323160529" lon="39.0220305976"><ele>27.05</ele><time>2018-09-16T05:59:30Z</time></trkpt><trkpt lat="45.1322924998" lon="39.0219778754"><ele>27.05</ele><time>2018-09-16T05:59:31Z</time></trkpt><trkpt lat="45.1317930222" lon="39.0209550317"><ele>26.57</ele><time>2018-09-16T05:59:50Z</time></trkpt><trkpt lat="45.1315879170" lon="39.0205249563"><ele>26.57</ele><time>2018-09-16T05:59:58Z</time></trkpt><trkpt lat="45.1315597538" lon="39.0204678755"><ele>26.57</ele><time>2018-09-16T05:59:59Z</time></trkpt><trkpt lat="45.1309523173" lon="39.0192825906"><ele>26.57</ele><time>2018-09-16T06:00:19Z</time></trkpt><trkpt lat="45.1305451244" lon="39.0184652712"><ele>26.09</ele><time>2018-09-16T06:00:34Z</time></trkpt><trkpt lat="45.1301469002" lon="39.0176530648"><ele>26.09</ele><time>2018-09-16T06:00:49Z</time></trkpt><trkpt lat="45.1295981370" lon="39.0165634174"><ele>26.57</ele><time>2018-09-16T06:01:09Z</time></trkpt><trkpt lat="45.1291057002" lon="39.0155442618"><ele>26.57</ele><time>2018-09-16T06:01:27Z</time></trkpt><trkpt lat="45.1287459489" lon="39.0147696063"><ele>27.05</ele><time>2018-09-16T06:01:41Z</time></trkpt><trkpt lat="45.1283575315" lon="39.0139988903"><ele>27.05</ele><time>2018-09-16T06:01:55Z</time></trkpt><trkpt lat="45.1278421283" lon="39.0129680838"><ele>27.05</ele><time>2018-09-16T06:02:14Z</time></trkpt><trkpt lat="45.1274250448" lon="39.0121362638"><ele>27.53</ele><time>2018-09-16T06:02:31Z</time></trkpt><trkpt lat="45.1271097176" lon="39.0114839002"><ele>27.05</ele><time>2018-09-16T06:02:45Z</time></trkpt><trkpt lat="45.1266615372" lon="39.0105504077"><ele>26.57</ele><time>2018-09-16T06:03:02Z</time></trkpt><trkpt lat="45.1266114973" lon="39.0104442090"><ele>26.57</ele><time>2018-09-16T06:03:04Z</time></trkpt><trkpt lat="45.1265868545" lon="39.0103863738"><ele>26.57</ele><time>2018-09-16T06:03:05Z</time></trkpt><trkpt lat="45.1261619758" lon="39.0094667114"><ele>26.57</ele><time>2018-09-16T06:03:21Z</time></trkpt><trkpt lat="45.1256379392" lon="39.0084101725"><ele>27.53</ele><time>2018-09-16T06:03:40Z</time></trkpt><trkpt lat="45.1253847219" lon="39.0079311468"><ele>29.46</ele><time>2018-09-16T06:03:54Z</time></trkpt><trkpt lat="45.1252190117" lon="39.0075475909"><ele>30.42</ele><time>2018-09-16T06:04:05Z</time></trkpt><trkpt lat="45.1251916867" lon="39.0074947849"><ele>30.42</ele><time>2018-09-16T06:04:06Z</time></trkpt><trkpt lat="45.1249848213" lon="39.0070724208"><ele>29.94</ele><time>2018-09-16T06:04:14Z</time></trkpt><trkpt lat="45.1247059554" lon="39.0065432712"><ele>29.46</ele><time>2018-09-16T06:04:25Z</time></trkpt><trkpt lat="45.1246774569" lon="39.0065031219"><ele>29.46</ele><time>2018-09-16T06:04:26Z</time></trkpt><trkpt lat="45.1246528141" lon="39.0064543393"><ele>29.46</ele><time>2018-09-16T06:04:27Z</time></trkpt><trkpt lat="45.1246311050" lon="39.0063934866"><ele>29.46</ele><time>2018-09-16T06:04:28Z</time></trkpt><trkpt lat="45.1246124133" lon="39.0063445363"><ele>28.98</ele><time>2018-09-16T06:04:29Z</time></trkpt><trkpt lat="45.1242375746" lon="39.0055445675"><ele>28.98</ele><time>2018-09-16T06:04:44Z</time></trkpt><trkpt lat="45.1238444634" lon="39.0046944749"><ele>28.98</ele><time>2018-09-16T06:05:00Z</time></trkpt><trkpt lat="45.1233895775" lon="39.0037885588"><ele>28.50</ele><time>2018-09-16T06:05:18Z</time></trkpt><trkpt lat="45.1229493599" lon="39.0029365383"><ele>28.50</ele><time>2018-09-16T06:05:35Z</time></trkpt><trkpt lat="45.1225652173" lon="39.0023504756"><ele>29.46</ele><time>2018-09-16T06:05:49Z</time></trkpt><trkpt lat="45.1225366350" lon="39.0023053810"><ele>29.46</ele><time>2018-09-16T06:05:50Z</time></trkpt><trkpt lat="45.1220245846" lon="39.0015790891"><ele>28.02</ele><time>2018-09-16T06:06:06Z</time></trkpt><trkpt lat="45.1214393601" lon="39.0007589199"><ele>27.53</ele><time>2018-09-16T06:06:23Z</time></trkpt><trkpt lat="45.1208506990" lon="39.0000208933"><ele>27.05</ele><time>2018-09-16T06:06:40Z</time></trkpt><trkpt lat="45.1207853202" lon="38.9999493957"><ele>27.05</ele><time>2018-09-16T06:06:42Z</time></trkpt><trkpt lat="45.1207491104" lon="38.9999193884"><ele>26.57</ele><time>2018-09-16T06:06:43Z</time></trkpt><trkpt lat="45.1207157504" lon="38.9998924825"><ele>26.57</ele><time>2018-09-16T06:06:44Z</time></trkpt><trkpt lat="45.1206823904" lon="38.9998570271"><ele>26.57</ele><time>2018-09-16T06:06:45Z</time></trkpt><trkpt lat="45.1206507068" lon="38.9998188894"><ele>26.57</ele><time>2018-09-16T06:06:46Z</time></trkpt><trkpt lat="45.1201197132" lon="38.9992539492"><ele>25.61</ele><time>2018-09-16T06:07:02Z</time></trkpt><trkpt lat="45.1196281146" lon="38.9987751748"><ele>25.13</ele><time>2018-09-16T06:07:16Z</time></trkpt><trkpt lat="45.1191453170" lon="38.9983232226"><ele>25.61</ele><time>2018-09-16T06:07:29Z</time></trkpt><trkpt lat="45.1189134736" lon="38.9981475379"><ele>25.61</ele><time>2018-09-16T06:07:35Z</time></trkpt><trkpt lat="45.1187232044" lon="38.9979984239"><ele>26.09</ele><time>2018-09-16T06:07:40Z</time></trkpt><trkpt lat="45.1181102358" lon="38.9975444600"><ele>25.61</ele><time>2018-09-16T06:07:56Z</time></trkpt><trkpt lat="45.1176064834" lon="38.9972790051"><ele>25.61</ele><time>2018-09-16T06:08:10Z</time></trkpt><trkpt lat="45.1169338357" lon="38.9969166555"><ele>25.61</ele><time>2018-09-16T06:08:27Z</time></trkpt><trkpt lat="45.1167041715" lon="38.9968024939"><ele>26.57</ele><time>2018-09-16T06:08:33Z</time></trkpt><trkpt lat="45.1159587689" lon="38.9964787848"><ele>27.53</ele><time>2018-09-16T06:08:50Z</time></trkpt><trkpt lat="45.1155702677" lon="38.9963574987"><ele>27.53</ele><time>2018-09-16T06:08:58Z</time></trkpt><trkpt lat="45.1149701234" lon="38.9961829875"><ele>28.02</ele><time>2018-09-16T06:09:11Z</time></trkpt><trkpt lat="45.1148324087" lon="38.9961482864"><ele>28.02</ele><time>2018-09-16T06:09:14Z</time></trkpt><trkpt lat="45.1147888228" lon="38.9961396530"><ele>28.02</ele><time>2018-09-16T06:09:15Z</time></trkpt><trkpt lat="45.1147475839" lon="38.9961271640"><ele>27.53</ele><time>2018-09-16T06:09:16Z</time></trkpt><trkpt lat="45.1147030760" lon="38.9961143397"><ele>27.53</ele><time>2018-09-16T06:09:17Z</time></trkpt><trkpt lat="45.1146627590" lon="38.9961049519"><ele>27.53</ele><time>2018-09-16T06:09:18Z</time></trkpt><trkpt lat="45.1139277499" lon="38.9959462825"><ele>29.46</ele><time>2018-09-16T06:09:35Z</time></trkpt><trkpt lat="45.1132384222" lon="38.9957788959"><ele>29.46</ele><time>2018-09-16T06:09:51Z</time></trkpt><trkpt lat="45.1123092882" lon="38.9955807477"><ele>28.02</ele><time>2018-09-16T06:10:12Z</time></trkpt><trkpt lat="45.1115658972" lon="38.9954188932"><ele>28.50</ele><time>2018-09-16T06:10:30Z</time></trkpt><trkpt lat="45.1109190658" lon="38.9952426217"><ele>28.02</ele><time>2018-09-16T06:10:45Z</time></trkpt><trkpt lat="45.1102970447" lon="38.9950834494"><ele>27.05</ele><time>2018-09-16T06:11:00Z</time></trkpt><trkpt lat="45.1097521372" lon="38.9949510153"><ele>27.05</ele><time>2018-09-16T06:11:15Z</time></trkpt><trkpt lat="45.1092099957" lon="38.9948065951"><ele>26.09</ele><time>2018-09-16T06:11:29Z</time></trkpt><trkpt lat="45.1088665891" lon="38.9947055094"><ele>26.09</ele><time>2018-09-16T06:11:37Z</time></trkpt><trkpt lat="45.1082019042" lon="38.9945278130"><ele>26.09</ele><time>2018-09-16T06:11:53Z</time></trkpt><trkpt lat="45.1075378060" lon="38.9943806268"><ele>26.09</ele><time>2018-09-16T06:12:09Z</time></trkpt><trkpt lat="45.1074521430" lon="38.9943678863"><ele>26.57</ele><time>2018-09-16T06:12:11Z</time></trkpt><trkpt lat="45.1074135024" lon="38.9943539724"><ele>26.57</ele><time>2018-09-16T06:12:12Z</time></trkpt><trkpt lat="45.1073726825" lon="38.9943375438"><ele>26.57</ele><time>2018-09-16T06:12:13Z</time></trkpt><trkpt lat="45.1069721952" lon="38.9942642022"><ele>27.05</ele><time>2018-09-16T06:12:23Z</time></trkpt><trkpt lat="45.1062065922" lon="38.9940886013"><ele>27.53</ele><time>2018-09-16T06:12:41Z</time></trkpt><trkpt lat="45.1055009197" lon="38.9939275011"><ele>27.53</ele><time>2018-09-16T06:12:58Z</time></trkpt><trkpt lat="45.1051797252" lon="38.9938358031"><ele>28.02</ele><time>2018-09-16T06:13:06Z</time></trkpt><trkpt lat="45.1050994266" lon="38.9938169438"><ele>28.02</ele><time>2018-09-16T06:13:08Z</time></trkpt><trkpt lat="45.1050173678" lon="38.9937901217"><ele>28.50</ele><time>2018-09-16T06:13:10Z</time></trkpt><trkpt lat="45.1049716864" lon="38.9937805664"><ele>28.50</ele><time>2018-09-16T06:13:11Z</time></trkpt><trkpt lat="45.1043781638" lon="38.9936005231"><ele>28.50</ele><time>2018-09-16T06:13:25Z</time></trkpt><trkpt lat="45.1036048494" lon="38.9933561068"><ele>27.53</ele><time>2018-09-16T06:13:43Z</time></trkpt><trkpt lat="45.1027778070" lon="38.9931493253"><ele>25.61</ele><time>2018-09-16T06:14:01Z</time></trkpt><trkpt lat="45.1020909101" lon="38.9929912426"><ele>28.02</ele><time>2018-09-16T06:14:16Z</time></trkpt><trkpt lat="45.1020860486" lon="38.9929854590"><ele>27.53</ele><time>2018-09-16T06:14:25Z</time></trkpt><trkpt lat="45.1020880602" lon="38.9929951821"><ele>28.02</ele><time>2018-09-16T06:14:43Z</time></trkpt><trkpt lat="45.1020995434" lon="38.9929845370"><ele>30.90</ele><time>2018-09-16T06:15:23Z</time></trkpt><trkpt lat="45.1020840369" lon="38.9929764904"><ele>29.94</ele><time>2018-09-16T06:15:51Z</time></trkpt><trkpt lat="45.1019852143" lon="38.9929629117"><ele>30.42</ele><time>2018-09-16T06:16:04Z</time></trkpt><trkpt lat="45.1015525404" lon="38.9928725548"><ele>30.42</ele><time>2018-09-16T06:16:17Z</time></trkpt><trkpt lat="45.1008828264" lon="38.9927278832"><ele>30.90</ele><time>2018-09-16T06:16:33Z</time></trkpt><trkpt lat="45.1000570413" lon="38.9925386198"><ele>30.90</ele><time>2018-09-16T06:16:52Z</time></trkpt><trkpt lat="45.0992244668" lon="38.9923480991"><ele>29.94</ele><time>2018-09-16T06:17:11Z</time></trkpt><trkpt lat="45.0983455405" lon="38.9921978116"><ele>29.94</ele><time>2018-09-16T06:17:29Z</time></trkpt><trkpt lat="45.0981512479" lon="38.9921651222"><ele>29.46</ele><time>2018-09-16T06:17:33Z</time></trkpt><trkpt lat="45.0981035549" lon="38.9921601769"><ele>29.46</ele><time>2018-09-16T06:17:34Z</time></trkpt><trkpt lat="45.0972953718" lon="38.9920766931"><ele>29.94</ele><time>2018-09-16T06:17:51Z</time></trkpt><trkpt lat="45.0964160264" lon="38.9919731766"><ele>30.42</ele><time>2018-09-16T06:18:10Z</time></trkpt><trkpt lat="45.0955410395" lon="38.9918605238"><ele>30.42</ele><time>2018-09-16T06:18:28Z</time></trkpt><trkpt lat="45.0953929313" lon="38.9918269124"><ele>30.90</ele><time>2018-09-16T06:18:31Z</time></trkpt><trkpt lat="45.0945904478" lon="38.9917078894"><ele>30.42</ele><time>2018-09-16T06:18:48Z</time></trkpt><trkpt lat="45.0937339850" lon="38.9915374853"><ele>29.94</ele><time>2018-09-16T06:19:05Z</time></trkpt><trkpt lat="45.0926804636" lon="38.9913035464"><ele>29.46</ele><time>2018-09-16T06:19:26Z</time></trkpt><trkpt lat="45.0918176305" lon="38.9911182225"><ele>29.46</ele><time>2018-09-16T06:19:43Z</time></trkpt><trkpt lat="45.0909615867" lon="38.9909308031"><ele>29.46</ele><time>2018-09-16T06:20:01Z</time></trkpt><trkpt lat="45.0901929662" lon="38.9907888975"><ele>29.94</ele><time>2018-09-16T06:20:17Z</time></trkpt><trkpt lat="45.0899053831" lon="38.9907267038"><ele>30.42</ele><time>2018-09-16T06:20:23Z</time></trkpt><trkpt lat="45.0895193964" lon="38.9906491712"><ele>29.46</ele><time>2018-09-16T06:20:31Z</time></trkpt><trkpt lat="45.0887015741" lon="38.9904718939"><ele>29.94</ele><time>2018-09-16T06:20:49Z</time></trkpt><trkpt lat="45.0879196264" lon="38.9902890008"><ele>29.46</ele><time>2018-09-16T06:21:07Z</time></trkpt><trkpt lat="45.0870762393" lon="38.9900920261"><ele>29.94</ele><time>2018-09-16T06:21:26Z</time></trkpt><trkpt lat="45.0863876659" lon="38.9899387211"><ele>30.90</ele><time>2018-09-16T06:21:42Z</time></trkpt><trkpt lat="45.0854490604" lon="38.9897122420"><ele>29.94</ele><time>2018-09-16T06:21:59Z</time></trkpt><trkpt lat="45.0845920108" lon="38.9894985035"><ele>29.94</ele><time>2018-09-16T06:22:15Z</time></trkpt><trkpt lat="45.0844898354" lon="38.9894886129"><ele>29.46</ele><time>2018-09-16T06:22:17Z</time></trkpt><trkpt lat="45.0838098116" lon="38.9893215615"><ele>29.46</ele><time>2018-09-16T06:22:32Z</time></trkpt><trkpt lat="45.0837606937" lon="38.9893060550"><ele>29.46</ele><time>2018-09-16T06:22:33Z</time></trkpt><trkpt lat="45.0829096790" lon="38.9891091641"><ele>29.94</ele><time>2018-09-16T06:22:51Z</time></trkpt><trkpt lat="45.0821366161" lon="38.9889442921"><ele>28.98</ele><time>2018-09-16T06:23:08Z</time></trkpt><trkpt lat="45.0813679956" lon="38.9887634944"><ele>28.50</ele><time>2018-09-16T06:23:24Z</time></trkpt><trkpt lat="45.0810128544" lon="38.9886791725"><ele>28.50</ele><time>2018-09-16T06:23:32Z</time></trkpt><trkpt lat="45.0809715316" lon="38.9886744786"><ele>28.50</ele><time>2018-09-16T06:23:33Z</time></trkpt><trkpt lat="45.0809321366" lon="38.9886645041"><ele>28.50</ele><time>2018-09-16T06:23:34Z</time></trkpt><trkpt lat="45.0802503526" lon="38.9885085169"><ele>28.50</ele><time>2018-09-16T06:23:50Z</time></trkpt><trkpt lat="45.0793964881" lon="38.9883123804"><ele>28.98</ele><time>2018-09-16T06:24:08Z</time></trkpt><trkpt lat="45.0788064860" lon="38.9881828800"><ele>28.98</ele><time>2018-09-16T06:24:21Z</time></trkpt><trkpt lat="45.0780675374" lon="38.9880069438"><ele>28.98</ele><time>2018-09-16T06:24:37Z</time></trkpt><trkpt lat="45.0774575025" lon="38.9878812991"><ele>28.98</ele><time>2018-09-16T06:24:51Z</time></trkpt><trkpt lat="45.0774140842" lon="38.9878653735"><ele>28.98</ele><time>2018-09-16T06:24:52Z</time></trkpt><trkpt lat="45.0765920710" lon="38.9877056982"><ele>28.98</ele><time>2018-09-16T06:25:10Z</time></trkpt><trkpt lat="45.0765418634" lon="38.9876825642"><ele>29.46</ele><time>2018-09-16T06:25:11Z</time></trkpt><trkpt lat="45.0764976908" lon="38.9876629505"><ele>29.46</ele><time>2018-09-16T06:25:12Z</time></trkpt><trkpt lat="45.0764513388" lon="38.9876533952"><ele>29.46</ele><time>2018-09-16T06:25:13Z</time></trkpt><trkpt lat="45.0764025562" lon="38.9876455162"><ele>29.46</ele><time>2018-09-16T06:25:14Z</time></trkpt><trkpt lat="45.0763075892" lon="38.9876198675"><ele>29.46</ele><time>2018-09-16T06:25:16Z</time></trkpt><trkpt lat="45.0762578845" lon="38.9876048639"><ele>29.94</ele><time>2018-09-16T06:25:17Z</time></trkpt><trkpt lat="45.0753862504" lon="38.9874189533"><ele>29.94</ele><time>2018-09-16T06:25:35Z</time></trkpt><trkpt lat="45.0746698491" lon="38.9872384071"><ele>29.94</ele><time>2018-09-16T06:25:51Z</time></trkpt><trkpt lat="45.0738310721" lon="38.9870526642"><ele>29.94</ele><time>2018-09-16T06:26:08Z</time></trkpt><trkpt lat="45.0729608629" lon="38.9868677594"><ele>29.94</ele><time>2018-09-16T06:26:26Z</time></trkpt><trkpt lat="45.0723943301" lon="38.9867433719"><ele>30.42</ele><time>2018-09-16T06:26:39Z</time></trkpt><trkpt lat="45.0715716463" lon="38.9865914918"><ele>30.42</ele><time>2018-09-16T06:26:56Z</time></trkpt><trkpt lat="45.0706228148" lon="38.9863972832"><ele>30.90</ele><time>2018-09-16T06:27:15Z</time></trkpt><trkpt lat="45.0696642604" lon="38.9861966204"><ele>30.42</ele><time>2018-09-16T06:27:33Z</time></trkpt><trkpt lat="45.0692634378" lon="38.9861178305"><ele>29.94</ele><time>2018-09-16T06:27:41Z</time></trkpt><trkpt lat="45.0692175049" lon="38.9861014858"><ele>29.94</ele><time>2018-09-16T06:27:42Z</time></trkpt><trkpt lat="45.0691742543" lon="38.9860863145"><ele>29.46</ele><time>2018-09-16T06:27:43Z</time></trkpt><trkpt lat="45.0688627828" lon="38.9860363584"><ele>29.46</ele><time>2018-09-16T06:27:50Z</time></trkpt><trkpt lat="45.0680874567" lon="38.9858806226"><ele>29.46</ele><time>2018-09-16T06:28:06Z</time></trkpt><trkpt lat="45.0677033979" lon="38.9858301636"><ele>29.94</ele><time>2018-09-16T06:28:14Z</time></trkpt><trkpt lat="45.0669593364" lon="38.9857740048"><ele>31.38</ele><time>2018-09-16T06:28:30Z</time></trkpt><trkpt lat="45.0659799110" lon="38.9857170917"><ele>32.82</ele><time>2018-09-16T06:28:50Z</time></trkpt><trkpt lat="45.0659273565" lon="38.9857134037"><ele>32.82</ele><time>2018-09-16T06:28:51Z</time></trkpt><trkpt lat="45.0658762269" lon="38.9857086260"><ele>32.82</ele><time>2018-09-16T06:28:52Z</time></trkpt><trkpt lat="45.0650703907" lon="38.9856684767"><ele>32.34</ele><time>2018-09-16T06:29:08Z</time></trkpt><trkpt lat="45.0643397402" lon="38.9856403973"><ele>33.30</ele><time>2018-09-16T06:29:23Z</time></trkpt><trkpt lat="45.0634580478" lon="38.9855943806"><ele>32.82</ele><time>2018-09-16T06:29:41Z</time></trkpt><trkpt lat="45.0625526346" lon="38.9855766110"><ele>31.86</ele><time>2018-09-16T06:29:59Z</time></trkpt><trkpt lat="45.0619010255" lon="38.9855358750"><ele>32.34</ele><time>2018-09-16T06:30:15Z</time></trkpt><trkpt lat="45.0613907352" lon="38.9855512138"><ele>32.82</ele><time>2018-09-16T06:30:26Z</time></trkpt><trkpt lat="45.0611148868" lon="38.9855896868"><ele>31.86</ele><time>2018-09-16T06:30:32Z</time></trkpt><trkpt lat="45.0610712171" lon="38.9855983201"><ele>32.34</ele><time>2018-09-16T06:30:33Z</time></trkpt><trkpt lat="45.0609434769" lon="38.9856219571"><ele>31.38</ele><time>2018-09-16T06:30:36Z</time></trkpt><trkpt lat="45.0602877606" lon="38.9857250545"><ele>31.38</ele><time>2018-09-16T06:30:50Z</time></trkpt><trkpt lat="45.0597065594" lon="38.9857881702"><ele>29.94</ele><time>2018-09-16T06:31:05Z</time></trkpt><trkpt lat="45.0595528353" lon="38.9857538883"><ele>29.94</ele><time>2018-09-16T06:31:11Z</time></trkpt><trkpt lat="45.0595372450" lon="38.9857309218"><ele>29.94</ele><time>2018-09-16T06:31:12Z</time></trkpt><trkpt lat="45.0595078245" lon="38.9856700692"><ele>30.42</ele><time>2018-09-16T06:31:14Z</time></trkpt><trkpt lat="45.0594965927" lon="38.9856357034"><ele>30.42</ele><time>2018-09-16T06:31:15Z</time></trkpt><trkpt lat="45.0594121031" lon="38.9852792211"><ele>29.94</ele><time>2018-09-16T06:31:23Z</time></trkpt><trkpt lat="45.0592596363" lon="38.9844960161"><ele>28.98</ele><time>2018-09-16T06:31:38Z</time></trkpt><trkpt lat="45.0592445489" lon="38.9843874704"><ele>28.98</ele><time>2018-09-16T06:31:40Z</time></trkpt><trkpt lat="45.0591641665" lon="38.9837993961"><ele>28.02</ele><time>2018-09-16T06:31:50Z</time></trkpt><trkpt lat="45.0589984562" lon="38.9828596171"><ele>27.05</ele><time>2018-09-16T06:32:02Z</time></trkpt><trkpt lat="45.0589956902" lon="38.9826975111"><ele>27.53</ele><time>2018-09-16T06:32:04Z</time></trkpt><trkpt lat="45.0590264518" lon="38.9822459780"><ele>28.50</ele><time>2018-09-16T06:32:14Z</time></trkpt><trkpt lat="45.0590479095" lon="38.9820055012"><ele>28.98</ele><time>2018-09-16T06:32:18Z</time></trkpt><trkpt lat="45.0590424612" lon="38.9819428883"><ele>28.98</ele><time>2018-09-16T06:32:19Z</time></trkpt><trkpt lat="45.0590252783" lon="38.9818806108"><ele>28.98</ele><time>2018-09-16T06:32:20Z</time></trkpt><trkpt lat="45.0589959417" lon="38.9818293136"><ele>28.98</ele><time>2018-09-16T06:32:21Z</time></trkpt><trkpt lat="45.0589604024" lon="38.9817823749"><ele>28.50</ele><time>2018-09-16T06:32:22Z</time></trkpt><trkpt lat="45.0589199178" lon="38.9817561395"><ele>28.98</ele><time>2018-09-16T06:32:23Z</time></trkpt><trkpt lat="45.0588683691" lon="38.9817407168"><ele>29.46</ele><time>2018-09-16T06:32:24Z</time></trkpt><trkpt lat="45.0588311534" lon="38.9817321673"><ele>29.46</ele><time>2018-09-16T06:32:25Z</time></trkpt><trkpt lat="45.0586454943" lon="38.9816870727"><ele>29.46</ele><time>2018-09-16T06:32:29Z</time></trkpt><trkpt lat="45.0584233738" lon="38.9816105459"><ele>29.46</ele><time>2018-09-16T06:32:34Z</time></trkpt><trkpt lat="45.0583792850" lon="38.9815988950"><ele>29.46</ele><time>2018-09-16T06:32:35Z</time></trkpt><trkpt lat="45.0581429154" lon="38.9815200213"><ele>29.94</ele><time>2018-09-16T06:32:40Z</time></trkpt><trkpt lat="45.0573829282" lon="38.9812888484"><ele>28.02</ele><time>2018-09-16T06:32:55Z</time></trkpt><trkpt lat="45.0565404631" lon="38.9810302667"><ele>24.65</ele><time>2018-09-16T06:33:10Z</time></trkpt><trkpt lat="45.0557336211" lon="38.9807989262"><ele>23.21</ele><time>2018-09-16T06:33:23Z</time></trkpt><trkpt lat="45.0549434591" lon="38.9805307053"><ele>21.77</ele><time>2018-09-16T06:33:38Z</time></trkpt><trkpt lat="45.0548230112" lon="38.9804804977"><ele>22.25</ele><time>2018-09-16T06:33:48Z</time></trkpt><trkpt lat="45.0546042435" lon="38.9803932421"><ele>22.25</ele><time>2018-09-16T06:33:58Z</time></trkpt><trkpt lat="45.0544141419" lon="38.9803396817"><ele>22.73</ele><time>2018-09-16T06:34:03Z</time></trkpt><trkpt lat="45.0541772693" lon="38.9802681003"><ele>22.73</ele><time>2018-09-16T06:34:08Z</time></trkpt><trkpt lat="45.0533158612" lon="38.9800163917"><ele>22.73</ele><time>2018-09-16T06:34:23Z</time></trkpt><trkpt lat="45.0530724507" lon="38.9799473248"><ele>22.73</ele><time>2018-09-16T06:34:28Z</time></trkpt><trkpt lat="45.0529921521" lon="38.9799299743"><ele>22.73</ele><time>2018-09-16T06:34:30Z</time></trkpt><trkpt lat="45.0528269447" lon="38.9798881486"><ele>23.21</ele><time>2018-09-16T06:34:34Z</time></trkpt><trkpt lat="45.0523145590" lon="38.9797086921"><ele>22.25</ele><time>2018-09-16T06:34:46Z</time></trkpt><trkpt lat="45.0515784603" lon="38.9794874936"><ele>21.29</ele><time>2018-09-16T06:35:01Z</time></trkpt><trkpt lat="45.0508972630" lon="38.9792792872"><ele>20.32</ele><time>2018-09-16T06:35:16Z</time></trkpt><trkpt lat="45.0508548506" lon="38.9792622719"><ele>20.32</ele><time>2018-09-16T06:35:17Z</time></trkpt><trkpt lat="45.0508064870" lon="38.9792481903"><ele>20.81</ele><time>2018-09-16T06:35:18Z</time></trkpt><trkpt lat="45.0507592969" lon="38.9792334381"><ele>20.81</ele><time>2018-09-16T06:35:19Z</time></trkpt><trkpt lat="45.0507131964" lon="38.9792175125"><ele>20.81</ele><time>2018-09-16T06:35:20Z</time></trkpt><trkpt lat="45.0506189000" lon="38.9791845717"><ele>20.81</ele><time>2018-09-16T06:35:22Z</time></trkpt><trkpt lat="45.0505769905" lon="38.9791647065"><ele>20.81</ele><time>2018-09-16T06:35:23Z</time></trkpt><trkpt lat="45.0505338237" lon="38.9791512117"><ele>21.29</ele><time>2018-09-16T06:35:24Z</time></trkpt><trkpt lat="45.0504869688" lon="38.9791397285"><ele>21.29</ele><time>2018-09-16T06:35:25Z</time></trkpt><trkpt lat="45.0504419580" lon="38.9791227132"><ele>21.29</ele><time>2018-09-16T06:35:26Z</time></trkpt><trkpt lat="45.0501781795" lon="38.9790393971"><ele>21.29</ele><time>2018-09-16T06:35:32Z</time></trkpt><trkpt lat="45.0501345098" lon="38.9790321887"><ele>21.29</ele><time>2018-09-16T06:35:33Z</time></trkpt><trkpt lat="45.0495444238" lon="38.9788565878"><ele>23.69</ele><time>2018-09-16T06:35:47Z</time></trkpt><trkpt lat="45.0493640453" lon="38.9788005129"><ele>24.17</ele><time>2018-09-16T06:35:51Z</time></trkpt><trkpt lat="45.0492286775" lon="38.9787555020"><ele>24.17</ele><time>2018-09-16T06:35:54Z</time></trkpt><trkpt lat="45.0491851754" lon="38.9787453599"><ele>24.17</ele><time>2018-09-16T06:35:55Z</time></trkpt><trkpt lat="45.0485639926" lon="38.9785208926"><ele>25.61</ele><time>2018-09-16T06:36:10Z</time></trkpt><trkpt lat="45.0481780898" lon="38.9783894643"><ele>26.57</ele><time>2018-09-16T06:36:19Z</time></trkpt><trkpt lat="45.0481391978" lon="38.9783745445"><ele>26.57</ele><time>2018-09-16T06:36:20Z</time></trkpt><trkpt lat="45.0476723257" lon="38.9782072417"><ele>28.50</ele><time>2018-09-16T06:36:31Z</time></trkpt><trkpt lat="45.0471526477" lon="38.9780214150"><ele>26.09</ele><time>2018-09-16T06:36:42Z</time></trkpt><trkpt lat="45.0465488993" lon="38.9778272901"><ele>24.65</ele><time>2018-09-16T06:36:54Z</time></trkpt><trkpt lat="45.0464498252" lon="38.9777874760"><ele>24.65</ele><time>2018-09-16T06:36:56Z</time></trkpt><trkpt lat="45.0457133912" lon="38.9775563870"><ele>25.13</ele><time>2018-09-16T06:37:11Z</time></trkpt><trkpt lat="45.0451586768" lon="38.9773627650"><ele>24.17</ele><time>2018-09-16T06:37:24Z</time></trkpt><trkpt lat="45.0449202117" lon="38.9772874117"><ele>24.65</ele><time>2018-09-16T06:37:30Z</time></trkpt><trkpt lat="45.0447948184" lon="38.9772524592"><ele>24.17</ele><time>2018-09-16T06:37:33Z</time></trkpt><trkpt lat="45.0445155334" lon="38.9771740884"><ele>24.17</ele><time>2018-09-16T06:37:39Z</time></trkpt><trkpt lat="45.0444669183" lon="38.9771595038"><ele>24.65</ele><time>2018-09-16T06:37:40Z</time></trkpt><trkpt lat="45.0437957793" lon="38.9768912829"><ele>25.61</ele><time>2018-09-16T06:37:54Z</time></trkpt><trkpt lat="45.0430918671" lon="38.9766476210"><ele>25.61</ele><time>2018-09-16T06:38:07Z</time></trkpt><trkpt lat="45.0424510706" lon="38.9764125086"><ele>25.13</ele><time>2018-09-16T06:38:19Z</time></trkpt><trkpt lat="45.0417923369" lon="38.9761804137"><ele>25.13</ele><time>2018-09-16T06:38:33Z</time></trkpt><trkpt lat="45.0410943758" lon="38.9759794995"><ele>25.61</ele><time>2018-09-16T06:38:47Z</time></trkpt><trkpt lat="45.0405813195" lon="38.9758167230"><ele>23.69</ele><time>2018-09-16T06:39:01Z</time></trkpt><trkpt lat="45.0403484702" lon="38.9757143799"><ele>26.57</ele><time>2018-09-16T06:39:16Z</time></trkpt><trkpt lat="45.0401674211" lon="38.9756225143"><ele>27.05</ele><time>2018-09-16T06:39:22Z</time></trkpt><trkpt lat="45.0396006368" lon="38.9754330833"><ele>26.09</ele><time>2018-09-16T06:39:34Z</time></trkpt><trkpt lat="45.0395559613" lon="38.9754110388"><ele>25.61</ele><time>2018-09-16T06:39:35Z</time></trkpt><trkpt lat="45.0394512713" lon="38.9753692970"><ele>24.65</ele><time>2018-09-16T06:39:37Z</time></trkpt><trkpt lat="45.0393109582" lon="38.9753057621"><ele>24.17</ele><time>2018-09-16T06:39:40Z</time></trkpt><trkpt lat="45.0392693002" lon="38.9752773475"><ele>24.17</ele><time>2018-09-16T06:39:41Z</time></trkpt><trkpt lat="45.0392273907" lon="38.9752628468"><ele>24.17</ele><time>2018-09-16T06:39:42Z</time></trkpt><trkpt lat="45.0391843077" lon="38.9752479270"><ele>24.17</ele><time>2018-09-16T06:39:43Z</time></trkpt><trkpt lat="45.0391461700" lon="38.9752278104"><ele>23.69</ele><time>2018-09-16T06:39:44Z</time></trkpt><trkpt lat="45.0388397276" lon="38.9751084521"><ele>21.77</ele><time>2018-09-16T06:39:55Z</time></trkpt><trkpt lat="45.0388160907" lon="38.9751164149"><ele>22.25</ele><time>2018-09-16T06:40:01Z</time></trkpt><trkpt lat="45.0388062000" lon="38.9751019981"><ele>22.25</ele><time>2018-09-16T06:40:02Z</time></trkpt><trkpt lat="45.0387948845" lon="38.9750845637"><ele>22.25</ele><time>2018-09-16T06:40:03Z</time></trkpt><trkpt lat="45.0387762766" lon="38.9750695601"><ele>22.25</ele><time>2018-09-16T06:40:04Z</time></trkpt><trkpt lat="45.0387531426" lon="38.9750608429"><ele>22.25</ele><time>2018-09-16T06:40:05Z</time></trkpt><trkpt lat="45.0387248117" lon="38.9750606753"><ele>22.25</ele><time>2018-09-16T06:40:06Z</time></trkpt><trkpt lat="45.0386891048" lon="38.9750747569"><ele>22.73</ele><time>2018-09-16T06:40:07Z</time></trkpt><trkpt lat="45.0386596844" lon="38.9750794508"><ele>22.73</ele><time>2018-09-16T06:40:08Z</time></trkpt><trkpt lat="45.0386234745" lon="38.9750713203"><ele>23.21</ele><time>2018-09-16T06:40:09Z</time></trkpt><trkpt lat="45.0385897793" lon="38.9750636090"><ele>23.21</ele><time>2018-09-16T06:40:10Z</time></trkpt><trkpt lat="45.0385563355" lon="38.9750534669"><ele>23.69</ele><time>2018-09-16T06:40:11Z</time></trkpt><trkpt lat="45.0385274179" lon="38.9750389662"><ele>23.69</ele><time>2018-09-16T06:40:12Z</time></trkpt><trkpt lat="45.0380244199" lon="38.9748691488"><ele>23.69</ele><time>2018-09-16T06:40:24Z</time></trkpt><trkpt lat="45.0373014808" lon="38.9746294264"><ele>24.65</ele><time>2018-09-16T06:40:37Z</time></trkpt><trkpt lat="45.0371088646" lon="38.9745473675"><ele>25.13</ele><time>2018-09-16T06:40:41Z</time></trkpt><trkpt lat="45.0366444234" lon="38.9743717667"><ele>21.77</ele><time>2018-09-16T06:40:53Z</time></trkpt><trkpt lat="45.0361797307" lon="38.9741722774"><ele>20.81</ele><time>2018-09-16T06:41:05Z</time></trkpt><trkpt lat="45.0361405034" lon="38.9741716068"><ele>21.29</ele><time>2018-09-16T06:41:06Z</time></trkpt><trkpt lat="45.0361027010" lon="38.9741773065"><ele>21.29</ele><time>2018-09-16T06:41:07Z</time></trkpt><trkpt lat="45.0358975120" lon="38.9742113370"><ele>24.17</ele><time>2018-09-16T06:41:12Z</time></trkpt><trkpt lat="45.0357466377" lon="38.9742157795"><ele>25.61</ele><time>2018-09-16T06:41:16Z</time></trkpt><trkpt lat="45.0357070751" lon="38.9742030390"><ele>25.61</ele><time>2018-09-16T06:41:17Z</time></trkpt><trkpt lat="45.0355469808" lon="38.9741406776"><ele>25.61</ele><time>2018-09-16T06:41:21Z</time></trkpt><trkpt lat="45.0348550547" lon="38.9739349857"><ele>26.09</ele><time>2018-09-16T06:41:36Z</time></trkpt><trkpt lat="45.0347224530" lon="38.9738812577"><ele>25.61</ele><time>2018-09-16T06:41:39Z</time></trkpt><trkpt lat="45.0345952995" lon="38.9738477301"><ele>25.61</ele><time>2018-09-16T06:41:42Z</time></trkpt><trkpt lat="45.0341781322" lon="38.9737503324"><ele>21.77</ele><time>2018-09-16T06:41:53Z</time></trkpt><trkpt lat="45.0337644015" lon="38.9736691955"><ele>15.52</ele><time>2018-09-16T06:42:03Z</time></trkpt><trkpt lat="45.0336647406" lon="38.9736322314"><ele>15.52</ele><time>2018-09-16T06:42:05Z</time></trkpt><trkpt lat="45.0327728223" lon="38.9733288903"><ele>20.81</ele><time>2018-09-16T06:42:20Z</time></trkpt><trkpt lat="45.0318908785" lon="38.9729861543"><ele>22.25</ele><time>2018-09-16T06:42:35Z</time></trkpt><trkpt lat="45.0314538460" lon="38.9728059433"><ele>22.73</ele><time>2018-09-16T06:42:46Z</time></trkpt><trkpt lat="45.0312419515" lon="38.9726848248"><ele>23.21</ele><time>2018-09-16T06:42:57Z</time></trkpt><trkpt lat="45.0311619882" lon="38.9726662170"><ele>23.69</ele><time>2018-09-16T06:42:59Z</time></trkpt><trkpt lat="45.0311211683" lon="38.9726479445"><ele>23.69</ele><time>2018-09-16T06:43:00Z</time></trkpt><trkpt lat="45.0305061042" lon="38.9724237286"><ele>22.73</ele><time>2018-09-16T06:43:12Z</time></trkpt><trkpt lat="45.0304607581" lon="38.9724043664"><ele>22.73</ele><time>2018-09-16T06:43:13Z</time></trkpt><trkpt lat="45.0300248154" lon="38.9722735249"><ele>22.25</ele><time>2018-09-16T06:43:22Z</time></trkpt><trkpt lat="45.0298131723" lon="38.9722230658"><ele>24.17</ele><time>2018-09-16T06:43:26Z</time></trkpt><trkpt lat="45.0297761243" lon="38.9722078107"><ele>24.17</ele><time>2018-09-16T06:43:27Z</time></trkpt><trkpt lat="45.0297270063" lon="38.9721845090"><ele>24.65</ele><time>2018-09-16T06:43:28Z</time></trkpt><trkpt lat="45.0296348892" lon="38.9721421804"><ele>24.65</ele><time>2018-09-16T06:43:30Z</time></trkpt><trkpt lat="45.0295786466" lon="38.9721278474"><ele>24.65</ele><time>2018-09-16T06:43:31Z</time></trkpt><trkpt lat="45.0286656898" lon="38.9718348999"><ele>26.57</ele><time>2018-09-16T06:43:48Z</time></trkpt><trkpt lat="45.0285168272" lon="38.9717778191"><ele>27.05</ele><time>2018-09-16T06:43:51Z</time></trkpt><trkpt lat="45.0283853989" lon="38.9717344847"><ele>28.02</ele><time>2018-09-16T06:43:54Z</time></trkpt><trkpt lat="45.0283082854" lon="38.9716835227"><ele>28.02</ele><time>2018-09-16T06:43:56Z</time></trkpt><trkpt lat="45.0276587717" lon="38.9714435488"><ele>30.42</ele><time>2018-09-16T06:44:10Z</time></trkpt><trkpt lat="45.0275654811" lon="38.9714267850"><ele>31.38</ele><time>2018-09-16T06:44:12Z</time></trkpt><trkpt lat="45.0272981822" lon="38.9713581372"><ele>31.38</ele><time>2018-09-16T06:44:18Z</time></trkpt><trkpt lat="45.0268092658" lon="38.9711730648"><ele>31.86</ele><time>2018-09-16T06:44:30Z</time></trkpt><trkpt lat="45.0262802839" lon="38.9709911775"><ele>32.34</ele><time>2018-09-16T06:44:42Z</time></trkpt><trkpt lat="45.0262391288" lon="38.9709762577"><ele>31.86</ele><time>2018-09-16T06:44:43Z</time></trkpt><trkpt lat="45.0261461735" lon="38.9709439874"><ele>31.86</ele><time>2018-09-16T06:44:45Z</time></trkpt><trkpt lat="45.0261035934" lon="38.9709303249"><ele>31.38</ele><time>2018-09-16T06:44:46Z</time></trkpt><trkpt lat="45.0260559842" lon="38.9709180873"><ele>30.90</ele><time>2018-09-16T06:44:47Z</time></trkpt><trkpt lat="45.0258304272" lon="38.9708455838"><ele>30.90</ele><time>2018-09-16T06:44:52Z</time></trkpt><trkpt lat="45.0257865898" lon="38.9708265569"><ele>30.90</ele><time>2018-09-16T06:44:53Z</time></trkpt><trkpt lat="45.0257026870" lon="38.9707970526"><ele>30.42</ele><time>2018-09-16T06:44:55Z</time></trkpt><trkpt lat="45.0255145133" lon="38.9707475994"><ele>30.42</ele><time>2018-09-16T06:44:59Z</time></trkpt><trkpt lat="45.0254701730" lon="38.9707221184"><ele>30.42</ele><time>2018-09-16T06:45:00Z</time></trkpt><trkpt lat="45.0253870245" lon="38.9706714079"><ele>30.90</ele><time>2018-09-16T06:45:02Z</time></trkpt><trkpt lat="45.0248909835" lon="38.9704997465"><ele>30.42</ele><time>2018-09-16T06:45:13Z</time></trkpt><trkpt lat="45.0248417817" lon="38.9704818930"><ele>30.42</ele><time>2018-09-16T06:45:14Z</time></trkpt><trkpt lat="45.0241028331" lon="38.9702284243"><ele>28.50</ele><time>2018-09-16T06:45:30Z</time></trkpt><trkpt lat="45.0233819894" lon="38.9699809067"><ele>26.57</ele><time>2018-09-16T06:45:45Z</time></trkpt><trkpt lat="45.0232862681" lon="38.9699603710"><ele>26.09</ele><time>2018-09-16T06:45:47Z</time></trkpt><trkpt lat="45.0224939268" lon="38.9697398432"><ele>24.17</ele><time>2018-09-16T06:46:02Z</time></trkpt><trkpt lat="45.0224423781" lon="38.9697275218"><ele>24.17</ele><time>2018-09-16T06:46:03Z</time></trkpt><trkpt lat="45.0223930087" lon="38.9697082434"><ele>24.17</ele><time>2018-09-16T06:46:04Z</time></trkpt><trkpt lat="45.0222512707" lon="38.9696413558"><ele>25.13</ele><time>2018-09-16T06:46:07Z</time></trkpt><trkpt lat="45.0219037570" lon="38.9695386775"><ele>26.57</ele><time>2018-09-16T06:46:15Z</time></trkpt><trkpt lat="45.0216709916" lon="38.9694872964"><ele>27.53</ele><time>2018-09-16T06:46:20Z</time></trkpt><trkpt lat="45.0215498731" lon="38.9694148768"><ele>27.05</ele><time>2018-09-16T06:46:23Z</time></trkpt><trkpt lat="45.0214217976" lon="38.9693538565"><ele>26.57</ele><time>2018-09-16T06:46:26Z</time></trkpt><trkpt lat="45.0211095717" lon="38.9692229312"><ele>26.57</ele><time>2018-09-16T06:46:33Z</time></trkpt><trkpt lat="45.0209677499" lon="38.9691512659"><ele>26.09</ele><time>2018-09-16T06:46:36Z</time></trkpt><trkpt lat="45.0208028778" lon="38.9690979570"><ele>26.57</ele><time>2018-09-16T06:46:40Z</time></trkpt><trkpt lat="45.0207615551" lon="38.9690858871"><ele>26.57</ele><time>2018-09-16T06:46:41Z</time></trkpt><trkpt lat="45.0200624205" lon="38.9688822906"><ele>26.09</ele><time>2018-09-16T06:46:56Z</time></trkpt><trkpt lat="45.0199644361" lon="38.9688686281"><ele>25.61</ele><time>2018-09-16T06:46:58Z</time></trkpt><trkpt lat="45.0199003145" lon="38.9688594081"><ele>25.61</ele><time>2018-09-16T06:46:59Z</time></trkpt><trkpt lat="45.0198612548" lon="38.9688472543"><ele>25.61</ele><time>2018-09-16T06:47:00Z</time></trkpt><trkpt lat="45.0190953165" lon="38.9685709029"><ele>25.61</ele><time>2018-09-16T06:47:16Z</time></trkpt><trkpt lat="45.0188037939" lon="38.9684818033"><ele>25.13</ele><time>2018-09-16T06:47:22Z</time></trkpt><trkpt lat="45.0187584478" lon="38.9684607647"><ele>25.13</ele><time>2018-09-16T06:47:23Z</time></trkpt><trkpt lat="45.0180361792" lon="38.9682264905"><ele>25.13</ele><time>2018-09-16T06:47:39Z</time></trkpt><trkpt lat="45.0179076847" lon="38.9681905322"><ele>24.65</ele><time>2018-09-16T06:47:42Z</time></trkpt><trkpt lat="45.0178684574" lon="38.9681957290"><ele>24.65</ele><time>2018-09-16T06:47:43Z</time></trkpt><trkpt lat="45.0175674632" lon="38.9681062102"><ele>24.65</ele><time>2018-09-16T06:47:53Z</time></trkpt><trkpt lat="45.0170496292" lon="38.9678891189"><ele>23.69</ele><time>2018-09-16T06:48:06Z</time></trkpt><trkpt lat="45.0166571885" lon="38.9677601214"><ele>23.21</ele><time>2018-09-16T06:48:15Z</time></trkpt><trkpt lat="45.0166112557" lon="38.9677578583"><ele>23.21</ele><time>2018-09-16T06:48:16Z</time></trkpt><trkpt lat="45.0163367484" lon="38.9677645639"><ele>22.25</ele><time>2018-09-16T06:48:22Z</time></trkpt><trkpt lat="45.0160840340" lon="38.9677297790"><ele>22.25</ele><time>2018-09-16T06:48:27Z</time></trkpt><trkpt lat="45.0159985386" lon="38.9677115902"><ele>22.25</ele><time>2018-09-16T06:48:29Z</time></trkpt><trkpt lat="45.0159060024" lon="38.9676836785"><ele>22.25</ele><time>2018-09-16T06:48:31Z</time></trkpt><trkpt lat="45.0158336665" lon="38.9676769730"><ele>21.77</ele><time>2018-09-16T06:48:37Z</time></trkpt><trkpt lat="45.0158131309" lon="38.9676765539"><ele>21.77</ele><time>2018-09-16T06:48:57Z</time></trkpt><trkpt lat="45.0158018153" lon="38.9676696807"><ele>25.61</ele><time>2018-09-16T06:49:27Z</time></trkpt><trkpt lat="45.0157958642" lon="38.9676688425"><ele>25.61</ele><time>2018-09-16T06:49:34Z</time></trkpt></trkseg></trk></gpx>